<?xml version='1.0' encoding='UTF-8'?><gpx version="1.1" creator="JPX - https://github.com/jenetics/jpx" xmlns="http://www.topografix.com/GPX/1/1"><trk><trkseg><trkpt lat="42.52197221324147" lon="14.15254527590253"><ele>-0.9999999999999999</ele><time>2026-05-01T07:18:16.999Z</time></trkpt><trkpt lat="42.522000654234205" lon="14.152630025066003"><ele>-1.0</ele><time>2026-05-01T07:18:22.999Z</time></trkpt><trkpt lat="42.522047587872116" lon="14.152728770711844"><ele>-1.0</ele><time>2026-05-01T07:19:20.999Z</time></trkpt><trkpt lat="42.52209541451136" lon="14.152861079830233"><ele>-1.0</ele><time>2026-05-01T07:19:22.999Z</time></trkpt><trkpt lat="42.5221379471772" lon="14.152944369949676"><ele>-0.9999999999999999</ele><time>2026-05-01T07:19:23.999Z</time></trkpt><trkpt lat="42.52217398073209" lon="14.153023183652577"><ele>-1.0</ele><time>2026-05-01T07:19:24.999Z</time></trkpt><trkpt lat="42.52221749505163" lon="14.153136284291648"><ele>-0.49999999999999994</ele><time>2026-05-01T07:19:26.999Z</time></trkpt><trkpt lat="42.52228272789801" lon="14.153151205989447"><ele>0.0</ele><time>2026-05-01T07:19:28.999Z</time></trkpt><trkpt lat="42.52236322809482" lon="14.153089494283558"><ele>0.5</ele><time>2026-05-01T07:19:30.999Z</time></trkpt><trkpt lat="42.52243827112108" lon="14.153010857604173"><ele>1.0</ele><time>2026-05-01T07:19:32.999Z</time></trkpt><trkpt lat="42.52250762290965" lon="14.152965163528854"><ele>1.4999999999999998</ele><time>2026-05-01T07:19:34.999Z</time></trkpt><trkpt lat="42.52259964366182" lon="14.152879552933511"><ele>2.0</ele><time>2026-05-01T07:19:36.999Z</time></trkpt><trkpt lat="42.5226875693354" lon="14.152861642459326"><ele>2.0</ele><time>2026-05-01T07:19:38.999Z</time></trkpt><trkpt lat="42.5227225516691" lon="14.152938426805921"><ele>2.0</ele><time>2026-05-01T07:19:41.999Z</time></trkpt><trkpt lat="42.52264780837026" lon="14.153057700698657"><ele>2.0</ele><time>2026-05-01T07:19:44.999Z</time></trkpt><trkpt lat="42.52255139952635" lon="14.153094255928286"><ele>2.0</ele><time>2026-05-01T07:19:45.999Z</time></trkpt><trkpt lat="42.522474965551275" lon="14.153169170612326"><ele>2.0</ele><time>2026-05-01T07:19:46.999Z</time></trkpt><trkpt lat="42.52238481263142" lon="14.153248217358389"><ele>1.9999999999999998</ele><time>2026-05-01T07:19:47.999Z</time></trkpt><trkpt lat="42.52228545339542" lon="14.153321721575047"><ele>2.0</ele><time>2026-05-01T07:19:48.999Z</time></trkpt><trkpt lat="42.5222062221817" lon="14.153395192787416"><ele>2.0</ele><time>2026-05-01T07:19:49.999Z</time></trkpt><trkpt lat="42.52213477197078" lon="14.153455865687688"><ele>2.0</ele><time>2026-05-01T07:19:50.999Z</time></trkpt><trkpt lat="42.5220702440735" lon="14.15350659292888"><ele>1.9999999999999998</ele><time>2026-05-01T07:19:51.999Z</time></trkpt><trkpt lat="42.52201568357456" lon="14.153552250003528"><ele>2.0</ele><time>2026-05-01T07:19:52.999Z</time></trkpt><trkpt lat="42.52194699478679" lon="14.15361793304524"><ele>1.8333333333333333</ele><time>2026-05-01T07:19:54.999Z</time></trkpt><trkpt lat="42.52189760083044" lon="14.153678361124292"><ele>1.6666666666666665</ele><time>2026-05-01T07:19:57.999Z</time></trkpt><trkpt lat="42.52189971484921" lon="14.153799164387538"><ele>1.5</ele><time>2026-05-01T07:20:00.999Z</time></trkpt><trkpt lat="42.521920844927735" lon="14.15394189129751"><ele>1.3333333333333333</ele><time>2026-05-01T07:20:02.999Z</time></trkpt><trkpt lat="42.521935915507626" lon="14.154037587408311"><ele>1.1666666666666665</ele><time>2026-05-01T07:20:04.999Z</time></trkpt><trkpt lat="42.521985068445375" lon="14.154120364229726"><ele>1.0</ele><time>2026-05-01T07:23:38Z</time></trkpt><trkpt lat="42.52201922350363" lon="14.154233865139664"><ele>2.4000000000000004</ele><time>2026-05-01T07:23:40Z</time></trkpt><trkpt lat="42.522072896689714" lon="14.154369236116434"><ele>3.8000000000000003</ele><time>2026-05-01T07:23:42Z</time></trkpt><trkpt lat="42.522094824707324" lon="14.15449480172441"><ele>5.200000000000001</ele><time>2026-05-01T07:23:44Z</time></trkpt><trkpt lat="42.52211533448908" lon="14.15461313254449"><ele>6.6000000000000005</ele><time>2026-05-01T07:23:46Z</time></trkpt><trkpt lat="42.52213985375027" lon="14.154762531565382"><ele>8.0</ele><time>2026-05-01T07:23:48Z</time></trkpt><trkpt lat="42.5221489540477" lon="14.154901022659967"><ele>8.600000000000001</ele><time>2026-05-01T07:23:49.999Z</time></trkpt><trkpt lat="42.522150479978585" lon="14.1550312573462"><ele>9.200000000000001</ele><time>2026-05-01T07:23:51.999Z</time></trkpt><trkpt lat="42.52214582586587" lon="14.155162791082166"><ele>9.8</ele><time>2026-05-01T07:23:53.999Z</time></trkpt><trkpt lat="42.522134591033286" lon="14.155297830917146"><ele>10.4</ele><time>2026-05-01T07:23:55.999Z</time></trkpt><trkpt lat="42.52211660303488" lon="14.155441382886071"><ele>11.0</ele><time>2026-05-01T07:23:57.999Z</time></trkpt><trkpt lat="42.52208571498656" lon="14.15560154150383"><ele>11.0</ele><time>2026-05-01T07:23:59.999Z</time></trkpt><trkpt lat="42.522068695924666" lon="14.155687931318836"><ele>11.0</ele><time>2026-05-01T07:24:00.999Z</time></trkpt><trkpt lat="42.52204813148909" lon="14.15578110578836"><ele>11.0</ele><time>2026-05-01T07:24:01.999Z</time></trkpt><trkpt lat="42.52202301965283" lon="14.155876616990334"><ele>11.0</ele><time>2026-05-01T07:24:02.999Z</time></trkpt><trkpt lat="42.52198938112189" lon="14.155985609921279"><ele>11.0</ele><time>2026-05-01T07:24:03.999Z</time></trkpt><trkpt lat="42.52195122521104" lon="14.156091855386142"><ele>11.0</ele><time>2026-05-01T07:24:04.999Z</time></trkpt><trkpt lat="42.52190565833977" lon="14.15620100946899"><ele>9.4</ele><time>2026-05-01T07:24:05.999Z</time></trkpt><trkpt lat="42.52185391742609" lon="14.156306842929576"><ele>7.800000000000001</ele><time>2026-05-01T07:24:06.999Z</time></trkpt><trkpt lat="42.521796310491744" lon="14.156403820210791"><ele>6.2</ele><time>2026-05-01T07:24:07.999Z</time></trkpt><trkpt lat="42.52173309571036" lon="14.156502287788262"><ele>4.6</ele><time>2026-05-01T07:24:08.999Z</time></trkpt><trkpt lat="42.521664967569336" lon="14.156602182834245"><ele>3.0</ele><time>2026-05-01T07:24:09.999Z</time></trkpt><trkpt lat="42.521591298904895" lon="14.156688876425584"><ele>3.0</ele><time>2026-05-01T07:24:10.999Z</time></trkpt><trkpt lat="42.52152270824332" lon="14.156764993125666"><ele>3.0</ele><time>2026-05-01T07:24:11.999Z</time></trkpt><trkpt lat="42.521456096704036" lon="14.156834822795577"><ele>3.0</ele><time>2026-05-01T07:24:12.999Z</time></trkpt><trkpt lat="42.52139696545108" lon="14.156899536038383"><ele>3.0</ele><time>2026-05-01T07:24:13.999Z</time></trkpt><trkpt lat="42.52134314159341" lon="14.156961070065698"><ele>3.0</ele><time>2026-05-01T07:24:14.999Z</time></trkpt><trkpt lat="42.5212936524542" lon="14.157016350947991"><ele>3.0</ele><time>2026-05-01T07:24:15.999Z</time></trkpt><trkpt lat="42.52120078277321" lon="14.15711397845371"><ele>3.0</ele><time>2026-05-01T07:24:17.999Z</time></trkpt><trkpt lat="42.52112373214291" lon="14.157203214800385"><ele>3.0</ele><time>2026-05-01T07:24:19.999Z</time></trkpt><trkpt lat="42.52103677183098" lon="14.157291981359204"><ele>3.0</ele><time>2026-05-01T07:24:21.999Z</time></trkpt><trkpt lat="42.520982704157404" lon="14.157348247201586"><ele>3.0</ele><time>2026-05-01T07:24:22.999Z</time></trkpt><trkpt lat="42.52092413321749" lon="14.157412189470454"><ele>3.0</ele><time>2026-05-01T07:24:23.999Z</time></trkpt><trkpt lat="42.52087189678091" lon="14.157465134398274"><ele>3.0</ele><time>2026-05-01T07:24:24.999Z</time></trkpt><trkpt lat="42.520776004099716" lon="14.157561531643694"><ele>3.0</ele><time>2026-05-01T07:24:26.999Z</time></trkpt><trkpt lat="42.52070059936437" lon="14.157642799590736"><ele>3.0</ele><time>2026-05-01T07:24:28.999Z</time></trkpt><trkpt lat="42.520623282378175" lon="14.157729831541642"><ele>3.0</ele><time>2026-05-01T07:24:30.999Z</time></trkpt><trkpt lat="42.520526490491754" lon="14.157820819525828"><ele>3.0</ele><time>2026-05-01T07:24:32.999Z</time></trkpt><trkpt lat="42.520430207053735" lon="14.157934287603004"><ele>3.0</ele><time>2026-05-01T07:24:34.999Z</time></trkpt><trkpt lat="42.52037350956756" lon="14.157988903958657"><ele>2.9999999999999996</ele><time>2026-05-01T07:24:35.999Z</time></trkpt><trkpt lat="42.52031499513306" lon="14.158049502250389"><ele>3.0</ele><time>2026-05-01T07:24:36.999Z</time></trkpt><trkpt lat="42.52025830997682" lon="14.15811049332435"><ele>3.0</ele><time>2026-05-01T07:24:37.999Z</time></trkpt><trkpt lat="42.5202032696598" lon="14.15817312695517"><ele>3.0</ele><time>2026-05-01T07:24:38.999Z</time></trkpt><trkpt lat="42.5201486174532" lon="14.158236661513863"><ele>3.0</ele><time>2026-05-01T07:24:39.999Z</time></trkpt><trkpt lat="42.520085839967145" lon="14.158302683861596"><ele>2.9999999999999996</ele><time>2026-05-01T07:24:40.999Z</time></trkpt><trkpt lat="42.52002345095374" lon="14.15836888046985"><ele>3.0</ele><time>2026-05-01T07:24:41.999Z</time></trkpt><trkpt lat="42.51996065844359" lon="14.158438555381107"><ele>3.0</ele><time>2026-05-01T07:24:42.999Z</time></trkpt><trkpt lat="42.519896676038734" lon="14.158507804393803"><ele>3.0</ele><time>2026-05-01T07:24:43.999Z</time></trkpt><trkpt lat="42.51982966986292" lon="14.158577909916549"><ele>3.0</ele><time>2026-05-01T07:24:44.999Z</time></trkpt><trkpt lat="42.51976223043678" lon="14.158649479126115"><ele>3.0</ele><time>2026-05-01T07:24:45.999Z</time></trkpt><trkpt lat="42.51969549558687" lon="14.158720134290324"><ele>3.0</ele><time>2026-05-01T07:24:46.999Z</time></trkpt><trkpt lat="42.51962732809545" lon="14.158793293044074"><ele>3.0</ele><time>2026-05-01T07:24:47.999Z</time></trkpt><trkpt lat="42.51955810421215" lon="14.158867719071013"><ele>2.8</ele><time>2026-05-01T07:24:48.999Z</time></trkpt><trkpt lat="42.51948497987089" lon="14.158948591082893"><ele>2.5999999999999996</ele><time>2026-05-01T07:24:49.999Z</time></trkpt><trkpt lat="42.519408992058075" lon="14.159029996604328"><ele>2.4000000000000004</ele><time>2026-05-01T07:24:50.999Z</time></trkpt><trkpt lat="42.51932949515874" lon="14.159117105281583"><ele>2.2</ele><time>2026-05-01T07:24:51.999Z</time></trkpt><trkpt lat="42.519249770874445" lon="14.159201134781341"><ele>2.0</ele><time>2026-05-01T07:24:52.999Z</time></trkpt><trkpt lat="42.519167712342714" lon="14.159289348171725"><ele>2.0</ele><time>2026-05-01T07:24:53.999Z</time></trkpt><trkpt lat="42.51908351571875" lon="14.159380121291386"><ele>2.0</ele><time>2026-05-01T07:24:54.999Z</time></trkpt><trkpt lat="42.51899903382005" lon="14.159470474000736"><ele>2.0</ele><time>2026-05-01T07:24:55.999Z</time></trkpt><trkpt lat="42.51891243029725" lon="14.1595640451073"><ele>2.0</ele><time>2026-05-01T07:24:57Z</time></trkpt><trkpt lat="42.51882308278297" lon="14.15965798077128"><ele>2.0</ele><time>2026-05-01T07:24:58Z</time></trkpt><trkpt lat="42.518733450155246" lon="14.159751583097085"><ele>1.8</ele><time>2026-05-01T07:24:59Z</time></trkpt><trkpt lat="42.51864858250713" lon="14.159842799643306"><ele>1.6</ele><time>2026-05-01T07:25:00Z</time></trkpt><trkpt lat="42.51856412352215" lon="14.159935378108878"><ele>1.4000000000000001</ele><time>2026-05-01T07:25:01Z</time></trkpt><trkpt lat="42.51847805616232" lon="14.160028295349463"><ele>1.2000000000000002</ele><time>2026-05-01T07:25:02Z</time></trkpt><trkpt lat="42.5183962261582" lon="14.160122808255434"><ele>1.0</ele><time>2026-05-01T07:25:03Z</time></trkpt><trkpt lat="42.51831091740555" lon="14.16021519655386"><ele>1.2000000000000002</ele><time>2026-05-01T07:25:04Z</time></trkpt><trkpt lat="42.51822583002875" lon="14.160302137629817"><ele>1.4000000000000001</ele><time>2026-05-01T07:25:05Z</time></trkpt><trkpt lat="42.51814451548147" lon="14.160390755828802"><ele>1.6</ele><time>2026-05-01T07:25:06Z</time></trkpt><trkpt lat="42.518063214123764" lon="14.16048011142162"><ele>1.8</ele><time>2026-05-01T07:25:07Z</time></trkpt><trkpt lat="42.517981200013296" lon="14.16057072679278"><ele>2.0</ele><time>2026-05-01T07:25:08Z</time></trkpt><trkpt lat="42.517898427040464" lon="14.160662373642168"><ele>2.2</ele><time>2026-05-01T07:25:09Z</time></trkpt><trkpt lat="42.51781210814671" lon="14.160751946742701"><ele>2.4000000000000004</ele><time>2026-05-01T07:25:10Z</time></trkpt><trkpt lat="42.517730307776006" lon="14.16084048131735"><ele>2.5999999999999996</ele><time>2026-05-01T07:25:11Z</time></trkpt><trkpt lat="42.5176529017443" lon="14.160922198852342"><ele>2.8</ele><time>2026-05-01T07:25:12Z</time></trkpt><trkpt lat="42.517572916653705" lon="14.161008481455779"><ele>3.0</ele><time>2026-05-01T07:25:13Z</time></trkpt><trkpt lat="42.51749283454913" lon="14.161096910491493"><ele>3.0</ele><time>2026-05-01T07:25:14Z</time></trkpt><trkpt lat="42.51741110646236" lon="14.161186662269339"><ele>3.0</ele><time>2026-05-01T07:25:15Z</time></trkpt><trkpt lat="42.51733097128123" lon="14.161272593140032"><ele>3.0</ele><time>2026-05-01T07:25:16Z</time></trkpt><trkpt lat="42.517255218279466" lon="14.161361053100448"><ele>3.0</ele><time>2026-05-01T07:25:17Z</time></trkpt><trkpt lat="42.51716861754123" lon="14.161450424266162"><ele>3.0</ele><time>2026-05-01T07:25:18Z</time></trkpt><trkpt lat="42.517085479270996" lon="14.161544634335774"><ele>3.25</ele><time>2026-05-01T07:25:19Z</time></trkpt><trkpt lat="42.51699483416276" lon="14.161633826170439"><ele>3.5</ele><time>2026-05-01T07:25:20Z</time></trkpt><trkpt lat="42.51690356121547" lon="14.161730819302484"><ele>3.75</ele><time>2026-05-01T07:25:21Z</time></trkpt><trkpt lat="42.51681341811241" lon="14.16182803787673"><ele>4.0</ele><time>2026-05-01T07:25:22Z</time></trkpt><trkpt lat="42.516725232289794" lon="14.161927738830821"><ele>4.0</ele><time>2026-05-01T07:25:23Z</time></trkpt><trkpt lat="42.51663227158269" lon="14.16200443024651"><ele>4.0</ele><time>2026-05-01T07:25:24Z</time></trkpt><trkpt lat="42.516549141325605" lon="14.16211374114605"><ele>4.0</ele><time>2026-05-01T07:25:25Z</time></trkpt><trkpt lat="42.51645530305256" lon="14.162212381000703"><ele>4.0</ele><time>2026-05-01T07:25:26Z</time></trkpt><trkpt lat="42.51636372691723" lon="14.162305122533489"><ele>4.0</ele><time>2026-05-01T07:25:27Z</time></trkpt><trkpt lat="42.51627627288626" lon="14.162397746187157"><ele>4.0</ele><time>2026-05-01T07:25:28Z</time></trkpt><trkpt lat="42.51618325870677" lon="14.162495527362267"><ele>4.0</ele><time>2026-05-01T07:25:29Z</time></trkpt><trkpt lat="42.51608824061325" lon="14.162596969152048"><ele>4.0</ele><time>2026-05-01T07:25:30Z</time></trkpt><trkpt lat="42.5159912992488" lon="14.162704327414792"><ele>4.0</ele><time>2026-05-01T07:25:31Z</time></trkpt><trkpt lat="42.515893552387766" lon="14.162808364246319"><ele>4.0</ele><time>2026-05-01T07:25:32Z</time></trkpt><trkpt lat="42.51579235694245" lon="14.162918189303944"><ele>4.0</ele><time>2026-05-01T07:25:33Z</time></trkpt><trkpt lat="42.51568709820973" lon="14.163032450214857"><ele>4.0</ele><time>2026-05-01T07:25:34Z</time></trkpt><trkpt lat="42.515579235793744" lon="14.163147894942139"><ele>3.5</ele><time>2026-05-01T07:25:35Z</time></trkpt><trkpt lat="42.515477906768695" lon="14.163256559499775"><ele>3.0</ele><time>2026-05-01T07:25:36Z</time></trkpt><trkpt lat="42.515386793349634" lon="14.163361422435745"><ele>2.5</ele><time>2026-05-01T07:25:37Z</time></trkpt><trkpt lat="42.51529217930939" lon="14.163461230142522"><ele>2.0</ele><time>2026-05-01T07:25:38Z</time></trkpt><trkpt lat="42.51519701935783" lon="14.163560541067115"><ele>2.0</ele><time>2026-05-01T07:25:39Z</time></trkpt><trkpt lat="42.51510503648127" lon="14.163661679083829"><ele>2.0</ele><time>2026-05-01T07:25:40Z</time></trkpt><trkpt lat="42.515020867324175" lon="14.163754605441639"><ele>2.0</ele><time>2026-05-01T07:25:41Z</time></trkpt><trkpt lat="42.51493569093504" lon="14.163851469522085"><ele>2.0</ele><time>2026-05-01T07:25:42Z</time></trkpt><trkpt lat="42.514846142840064" lon="14.163928751844283"><ele>2.0</ele><time>2026-05-01T07:25:43Z</time></trkpt><trkpt lat="42.51476512078793" lon="14.164015268510799"><ele>1.75</ele><time>2026-05-01T07:25:44Z</time></trkpt><trkpt lat="42.51468746404646" lon="14.164098191632357"><ele>1.5</ele><time>2026-05-01T07:25:45Z</time></trkpt><trkpt lat="42.5145991203279" lon="14.164192497422928"><ele>1.25</ele><time>2026-05-01T07:25:46Z</time></trkpt><trkpt lat="42.51449847961482" lon="14.164299905484096"><ele>1.0</ele><time>2026-05-01T07:25:47Z</time></trkpt><trkpt lat="42.51440100587307" lon="14.164424357262124"><ele>1.0</ele><time>2026-05-01T07:25:48Z</time></trkpt><trkpt lat="42.51429364657805" lon="14.164536943361181"><ele>1.0</ele><time>2026-05-01T07:25:49Z</time></trkpt><trkpt lat="42.5141938457471" lon="14.164641139728287"><ele>1.0</ele><time>2026-05-01T07:25:50Z</time></trkpt><trkpt lat="42.51410548319879" lon="14.164742087614018"><ele>1.0</ele><time>2026-05-01T07:25:51Z</time></trkpt><trkpt lat="42.51401847612274" lon="14.164830883479253"><ele>1.25</ele><time>2026-05-01T07:25:52Z</time></trkpt><trkpt lat="42.51393360952715" lon="14.16492552397113"><ele>1.5</ele><time>2026-05-01T07:25:53Z</time></trkpt><trkpt lat="42.51384475677339" lon="14.165022561063543"><ele>1.75</ele><time>2026-05-01T07:25:54Z</time></trkpt><trkpt lat="42.51375188394077" lon="14.165119761474951"><ele>2.0</ele><time>2026-05-01T07:25:55Z</time></trkpt><trkpt lat="42.5136527912316" lon="14.165221802729675"><ele>2.0</ele><time>2026-05-01T07:25:56Z</time></trkpt><trkpt lat="42.51355815330068" lon="14.165316710070446"><ele>2.0</ele><time>2026-05-01T07:25:57Z</time></trkpt><trkpt lat="42.513460926158025" lon="14.165419755256579"><ele>2.0</ele><time>2026-05-01T07:25:58Z</time></trkpt><trkpt lat="42.51336473004202" lon="14.165525096294278"><ele>2.0</ele><time>2026-05-01T07:25:59Z</time></trkpt><trkpt lat="42.513267094132345" lon="14.165627945098773"><ele>2.0</ele><time>2026-05-01T07:26:00Z</time></trkpt><trkpt lat="42.513169051484255" lon="14.165731322621031"><ele>2.0</ele><time>2026-05-01T07:26:01Z</time></trkpt><trkpt lat="42.51307186489876" lon="14.165835393421306"><ele>2.0</ele><time>2026-05-01T07:26:02Z</time></trkpt><trkpt lat="42.512978429702045" lon="14.165937083334782"><ele>2.0</ele><time>2026-05-01T07:26:03Z</time></trkpt><trkpt lat="42.51289153332745" lon="14.166031231384526"><ele>2.25</ele><time>2026-05-01T07:26:04Z</time></trkpt><trkpt lat="42.51280366899856" lon="14.16612942209981"><ele>2.5</ele><time>2026-05-01T07:26:05Z</time></trkpt><trkpt lat="42.51271457735638" lon="14.1662289031714"><ele>2.75</ele><time>2026-05-01T07:26:06Z</time></trkpt><trkpt lat="42.51262504692578" lon="14.166330841808955"><ele>3.0</ele><time>2026-05-01T07:26:07Z</time></trkpt><trkpt lat="42.51253530479809" lon="14.1664262378892"><ele>3.0</ele><time>2026-05-01T07:26:08Z</time></trkpt><trkpt lat="42.512448733923854" lon="14.166514010870433"><ele>3.0</ele><time>2026-05-01T07:26:09Z</time></trkpt><trkpt lat="42.51236148632234" lon="14.166603985880979"><ele>3.0</ele><time>2026-05-01T07:26:09.999Z</time></trkpt><trkpt lat="42.51227787422846" lon="14.166693905221392"><ele>3.0</ele><time>2026-05-01T07:26:10.999Z</time></trkpt><trkpt lat="42.512194391929555" lon="14.166785029677484"><ele>3.0</ele><time>2026-05-01T07:26:11.999Z</time></trkpt><trkpt lat="42.512106000378274" lon="14.166879462003777"><ele>2.75</ele><time>2026-05-01T07:26:12.999Z</time></trkpt><trkpt lat="42.512017687121826" lon="14.16697356168887"><ele>2.5</ele><time>2026-05-01T07:26:13.999Z</time></trkpt><trkpt lat="42.51192783647765" lon="14.16706713429261"><ele>2.25</ele><time>2026-05-01T07:26:14.999Z</time></trkpt><trkpt lat="42.511833888535755" lon="14.16716513837645"><ele>2.0</ele><time>2026-05-01T07:26:15.999Z</time></trkpt><trkpt lat="42.511740202097364" lon="14.167262655529303"><ele>2.0</ele><time>2026-05-01T07:26:16.999Z</time></trkpt><trkpt lat="42.5116485327952" lon="14.167358160907764"><ele>2.0</ele><time>2026-05-01T07:26:17.999Z</time></trkpt><trkpt lat="42.51155922704407" lon="14.167456545390111"><ele>2.0</ele><time>2026-05-01T07:26:18.999Z</time></trkpt><trkpt lat="42.511474246640496" lon="14.167554330483485"><ele>2.0</ele><time>2026-05-01T07:26:19.999Z</time></trkpt><trkpt lat="42.51139242593352" lon="14.167639459960725"><ele>2.0</ele><time>2026-05-01T07:26:20.999Z</time></trkpt><trkpt lat="42.51131472228266" lon="14.16772134608571"><ele>2.0</ele><time>2026-05-01T07:26:21.999Z</time></trkpt><trkpt lat="42.51124086241736" lon="14.167800166282051"><ele>2.0</ele><time>2026-05-01T07:26:22.999Z</time></trkpt><trkpt lat="42.51117035419915" lon="14.167874755406212"><ele>2.0</ele><time>2026-05-01T07:26:23.999Z</time></trkpt><trkpt lat="42.51109777052871" lon="14.167952165865277"><ele>2.0</ele><time>2026-05-01T07:26:24.999Z</time></trkpt><trkpt lat="42.51102573460617" lon="14.16802920326944"><ele>2.0</ele><time>2026-05-01T07:26:25.999Z</time></trkpt><trkpt lat="42.51095291331594" lon="14.1681101183484"><ele>2.0</ele><time>2026-05-01T07:26:26.999Z</time></trkpt><trkpt lat="42.51087110176765" lon="14.168188218653869"><ele>2.0</ele><time>2026-05-01T07:26:27.999Z</time></trkpt><trkpt lat="42.510786351116785" lon="14.16827213052415"><ele>2.0</ele><time>2026-05-01T07:26:28.999Z</time></trkpt><trkpt lat="42.5107028881851" lon="14.168366982905273"><ele>2.0</ele><time>2026-05-01T07:26:29.999Z</time></trkpt><trkpt lat="42.51062628250216" lon="14.168444850185274"><ele>2.0</ele><time>2026-05-01T07:26:30.999Z</time></trkpt><trkpt lat="42.510556137984025" lon="14.168524565939459"><ele>1.9999999999999998</ele><time>2026-05-01T07:26:31.999Z</time></trkpt><trkpt lat="42.51049802160676" lon="14.16859264177642"><ele>2.0</ele><time>2026-05-01T07:26:32.999Z</time></trkpt><trkpt lat="42.51044534960424" lon="14.168661725216644"><ele>2.0</ele><time>2026-05-01T07:26:33.999Z</time></trkpt><trkpt lat="42.51038909832164" lon="14.168710577336057"><ele>2.0</ele><time>2026-05-01T07:26:34.999Z</time></trkpt><trkpt lat="42.51031727522657" lon="14.168787737816116"><ele>1.9999999999999998</ele><time>2026-05-01T07:26:36.999Z</time></trkpt><trkpt lat="42.510263468783464" lon="14.168841774076146"><ele>2.0</ele><time>2026-05-01T07:26:38.999Z</time></trkpt><trkpt lat="42.510190226410664" lon="14.168912024521976"><ele>1.8333333333333333</ele><time>2026-05-01T07:26:41.999Z</time></trkpt><trkpt lat="42.51011827592273" lon="14.168960165008533"><ele>1.6666666666666665</ele><time>2026-05-01T07:26:43.999Z</time></trkpt><trkpt lat="42.51005340215128" lon="14.168980536962742"><ele>1.5</ele><time>2026-05-01T07:26:45.999Z</time></trkpt><trkpt lat="42.50994668340757" lon="14.16894674115953"><ele>1.3333333333333333</ele><time>2026-05-01T07:26:47.999Z</time></trkpt><trkpt lat="42.5098893959768" lon="14.168884925758583"><ele>1.1666666666666665</ele><time>2026-05-01T07:26:48.999Z</time></trkpt><trkpt lat="42.50983198192027" lon="14.168808665308452"><ele>1.0</ele><time>2026-05-01T07:26:49.999Z</time></trkpt><trkpt lat="42.50978321324083" lon="14.168739484873242"><ele>1.0</ele><time>2026-05-01T07:26:50.999Z</time></trkpt><trkpt lat="42.50970156467366" lon="14.168636357553977"><ele>1.0</ele><time>2026-05-01T07:26:51.999Z</time></trkpt><trkpt lat="42.509632276582444" lon="14.168509738283484"><ele>1.0</ele><time>2026-05-01T07:26:52.999Z</time></trkpt><trkpt lat="42.50955413474458" lon="14.16837872382768"><ele>1.0</ele><time>2026-05-01T07:26:53.999Z</time></trkpt><trkpt lat="42.50947247888983" lon="14.168250253313335"><ele>1.5</ele><time>2026-05-01T07:26:54.999Z</time></trkpt><trkpt lat="42.50939018748133" lon="14.168124372484543"><ele>2.0</ele><time>2026-05-01T07:26:55.999Z</time></trkpt><trkpt lat="42.50931108893324" lon="14.167996069704824"><ele>2.5</ele><time>2026-05-01T07:26:56.999Z</time></trkpt><trkpt lat="42.50922925616398" lon="14.167874308208956"><ele>3.0</ele><time>2026-05-01T07:26:57.999Z</time></trkpt><trkpt lat="42.509145651202566" lon="14.167742139205851"><ele>3.0</ele><time>2026-05-01T07:26:58.999Z</time></trkpt><trkpt lat="42.50905924297288" lon="14.167602994080395"><ele>3.0</ele><time>2026-05-01T07:26:59.999Z</time></trkpt><trkpt lat="42.50896706750772" lon="14.167462574246255"><ele>3.0</ele><time>2026-05-01T07:27:00.999Z</time></trkpt><trkpt lat="42.50887940261069" lon="14.167323468577091"><ele>3.0</ele><time>2026-05-01T07:27:01.999Z</time></trkpt><trkpt lat="42.50879344348061" lon="14.167188152513306"><ele>2.75</ele><time>2026-05-01T07:27:03Z</time></trkpt><trkpt lat="42.5087054398856" lon="14.167056640332323"><ele>2.5</ele><time>2026-05-01T07:27:04Z</time></trkpt><trkpt lat="42.50862865174286" lon="14.166934505949927"><ele>2.25</ele><time>2026-05-01T07:27:05Z</time></trkpt><trkpt lat="42.50855299808265" lon="14.166817534205276"><ele>2.0</ele><time>2026-05-01T07:27:06Z</time></trkpt><trkpt lat="42.508491504763725" lon="14.166685531040653"><ele>2.0</ele><time>2026-05-01T07:27:07Z</time></trkpt><trkpt lat="42.5084042068541" lon="14.166581776612226"><ele>2.0</ele><time>2026-05-01T07:27:08Z</time></trkpt><trkpt lat="42.50833786219981" lon="14.16647584631444"><ele>2.0</ele><time>2026-05-01T07:27:09Z</time></trkpt><trkpt lat="42.50828252416602" lon="14.166356723568573"><ele>2.0</ele><time>2026-05-01T07:27:10Z</time></trkpt><trkpt lat="42.508224714710636" lon="14.166265563396871"><ele>2.0</ele><time>2026-05-01T07:27:11Z</time></trkpt><trkpt lat="42.50816010743167" lon="14.166163683748707"><ele>2.25</ele><time>2026-05-01T07:27:12Z</time></trkpt><trkpt lat="42.5080871242288" lon="14.166049886968862"><ele>2.5</ele><time>2026-05-01T07:27:13Z</time></trkpt><trkpt lat="42.50800713355874" lon="14.165925907857467"><ele>2.75</ele><time>2026-05-01T07:27:14Z</time></trkpt><trkpt lat="42.507910581884055" lon="14.16580851163983"><ele>3.0</ele><time>2026-05-01T07:27:15Z</time></trkpt><trkpt lat="42.50783556359493" lon="14.165676233053448"><ele>3.0</ele><time>2026-05-01T07:27:16Z</time></trkpt><trkpt lat="42.50775881986283" lon="14.165553138986555"><ele>3.0</ele><time>2026-05-01T07:27:17Z</time></trkpt><trkpt lat="42.50768709564838" lon="14.165444569694333"><ele>3.0</ele><time>2026-05-01T07:27:18Z</time></trkpt><trkpt lat="42.507615975371515" lon="14.165335220452016"><ele>3.0</ele><time>2026-05-01T07:27:19Z</time></trkpt><trkpt lat="42.5075405257621" lon="14.165229162684708"><ele>3.0</ele><time>2026-05-01T07:27:20Z</time></trkpt><trkpt lat="42.50748118788065" lon="14.165106887018288"><ele>3.0</ele><time>2026-05-01T07:27:21Z</time></trkpt><trkpt lat="42.507421096259954" lon="14.165012288215053"><ele>3.0</ele><time>2026-05-01T07:27:22Z</time></trkpt><trkpt lat="42.507375793451445" lon="14.164941407128957"><ele>3.0</ele><time>2026-05-01T07:27:23Z</time></trkpt><trkpt lat="42.50732670127476" lon="14.164866423431539"><ele>3.0</ele><time>2026-05-01T07:27:25Z</time></trkpt><trkpt lat="42.50728073365569" lon="14.164801133777143"><ele>3.0</ele><time>2026-05-01T07:27:27Z</time></trkpt><trkpt lat="42.50719489361666" lon="14.16468684031133"><ele>3.0</ele><time>2026-05-01T07:27:29Z</time></trkpt><trkpt lat="42.50711519007884" lon="14.164587285244645"><ele>2.75</ele><time>2026-05-01T07:27:30Z</time></trkpt><trkpt lat="42.50703363543687" lon="14.164463916714022"><ele>2.5</ele><time>2026-05-01T07:27:31Z</time></trkpt><trkpt lat="42.5069404295048" lon="14.164327086868033"><ele>2.25</ele><time>2026-05-01T07:27:32Z</time></trkpt><trkpt lat="42.50685733756039" lon="14.164204855704638"><ele>2.0</ele><time>2026-05-01T07:27:33Z</time></trkpt><trkpt lat="42.506772720520395" lon="14.164112065325433"><ele>1.8333333333333333</ele><time>2026-05-01T07:27:34Z</time></trkpt><trkpt lat="42.5067105115083" lon="14.164012199000988"><ele>1.6666666666666665</ele><time>2026-05-01T07:27:35Z</time></trkpt><trkpt lat="42.50665420044768" lon="14.163924987302602"><ele>1.5</ele><time>2026-05-01T07:27:36Z</time></trkpt><trkpt lat="42.506601748970944" lon="14.163841584129088"><ele>1.3333333333333333</ele><time>2026-05-01T07:27:37Z</time></trkpt><trkpt lat="42.50654917861541" lon="14.16376179263522"><ele>1.1666666666666665</ele><time>2026-05-01T07:27:38Z</time></trkpt><trkpt lat="42.50650114140214" lon="14.163684176885392"><ele>1.0</ele><time>2026-05-01T07:27:39Z</time></trkpt><trkpt lat="42.506454556186874" lon="14.163617676965375"><ele>1.0</ele><time>2026-05-01T07:27:40Z</time></trkpt><trkpt lat="42.506372362541754" lon="14.163500539072142"><ele>1.0</ele><time>2026-05-01T07:27:42Z</time></trkpt><trkpt lat="42.506280845291066" lon="14.16337316570741"><ele>1.0</ele><time>2026-05-01T07:27:44Z</time></trkpt><trkpt lat="42.50622934460173" lon="14.163295571728279"><ele>1.0</ele><time>2026-05-01T07:27:45Z</time></trkpt><trkpt lat="42.5061778536454" lon="14.163184727592448"><ele>1.0</ele><time>2026-05-01T07:27:46Z</time></trkpt><trkpt lat="42.50611802210233" lon="14.163093663470228"><ele>1.2000000000000002</ele><time>2026-05-01T07:27:47Z</time></trkpt><trkpt lat="42.50606499662886" lon="14.163012984491708"><ele>1.4000000000000001</ele><time>2026-05-01T07:27:48Z</time></trkpt><trkpt lat="42.50601814899515" lon="14.162942130013676"><ele>1.6</ele><time>2026-05-01T07:27:49Z</time></trkpt><trkpt lat="42.505959403915476" lon="14.162842688508237"><ele>1.8</ele><time>2026-05-01T07:27:51Z</time></trkpt><trkpt lat="42.50581712205748" lon="14.16290867256062"><ele>2.0</ele><time>2026-05-01T07:27:53Z</time></trkpt><trkpt lat="42.50574661218017" lon="14.162967110412174"><ele>2.0</ele><time>2026-05-01T07:27:54Z</time></trkpt><trkpt lat="42.505663447946745" lon="14.163066444577089"><ele>2.0</ele><time>2026-05-01T07:27:55Z</time></trkpt><trkpt lat="42.505570159258134" lon="14.16319986425271"><ele>2.0</ele><time>2026-05-01T07:27:56Z</time></trkpt><trkpt lat="42.50546186602542" lon="14.163338079715716"><ele>2.0</ele><time>2026-05-01T07:27:57Z</time></trkpt><trkpt lat="42.505348375962484" lon="14.163465079868077"><ele>2.25</ele><time>2026-05-01T07:27:58Z</time></trkpt><trkpt lat="42.505241466639696" lon="14.163592469369984"><ele>2.5</ele><time>2026-05-01T07:27:59Z</time></trkpt><trkpt lat="42.505140651385034" lon="14.163706311893085"><ele>2.75</ele><time>2026-05-01T07:28:00Z</time></trkpt><trkpt lat="42.505044394524035" lon="14.163826937441675"><ele>3.0</ele><time>2026-05-01T07:28:01Z</time></trkpt><trkpt lat="42.50495392355308" lon="14.16394579076692"><ele>2.75</ele><time>2026-05-01T07:28:02Z</time></trkpt><trkpt lat="42.5048653133074" lon="14.16405864807007"><ele>2.5</ele><time>2026-05-01T07:28:03Z</time></trkpt><trkpt lat="42.50477451838367" lon="14.16416086779347"><ele>2.25</ele><time>2026-05-01T07:28:04Z</time></trkpt><trkpt lat="42.50468924159808" lon="14.164263510058591"><ele>2.0</ele><time>2026-05-01T07:28:05Z</time></trkpt><trkpt lat="42.5046045268956" lon="14.164367959814848"><ele>2.25</ele><time>2026-05-01T07:28:06Z</time></trkpt><trkpt lat="42.504520313285234" lon="14.164481034350255"><ele>2.5</ele><time>2026-05-01T07:28:07Z</time></trkpt><trkpt lat="42.50442858168898" lon="14.164597125319737"><ele>2.75</ele><time>2026-05-01T07:28:08Z</time></trkpt><trkpt lat="42.50431652036798" lon="14.164706699591658"><ele>3.0</ele><time>2026-05-01T07:28:09Z</time></trkpt><trkpt lat="42.504216105063264" lon="14.164857211473032"><ele>2.75</ele><time>2026-05-01T07:28:10Z</time></trkpt><trkpt lat="42.50409853335718" lon="14.164986916799972"><ele>2.5</ele><time>2026-05-01T07:28:11Z</time></trkpt><trkpt lat="42.50398847113586" lon="14.16511634986269"><ele>2.25</ele><time>2026-05-01T07:28:12Z</time></trkpt><trkpt lat="42.50389054548654" lon="14.165233385719421"><ele>2.0</ele><time>2026-05-01T07:28:13Z</time></trkpt><trkpt lat="42.50379456938067" lon="14.165344310530074"><ele>2.75</ele><time>2026-05-01T07:28:14Z</time></trkpt><trkpt lat="42.50370320186397" lon="14.165457143159365"><ele>3.5</ele><time>2026-05-01T07:28:15Z</time></trkpt><trkpt lat="42.503616439773594" lon="14.165564594082968"><ele>4.25</ele><time>2026-05-01T07:28:16Z</time></trkpt><trkpt lat="42.5035370426862" lon="14.16565904072104"><ele>5.0</ele><time>2026-05-01T07:28:17Z</time></trkpt><trkpt lat="42.50346044743258" lon="14.165753991318553"><ele>5.0</ele><time>2026-05-01T07:28:18Z</time></trkpt><trkpt lat="42.50338264008129" lon="14.165848001257059"><ele>5.0</ele><time>2026-05-01T07:28:19Z</time></trkpt><trkpt lat="42.50330041237565" lon="14.165941553655115"><ele>5.0</ele><time>2026-05-01T07:28:20Z</time></trkpt><trkpt lat="42.50321864375187" lon="14.166035762059975"><ele>5.0</ele><time>2026-05-01T07:28:21Z</time></trkpt><trkpt lat="42.503146261825655" lon="14.166124791933083"><ele>5.0</ele><time>2026-05-01T07:28:22Z</time></trkpt><trkpt lat="42.503079894288824" lon="14.166210705016264"><ele>5.0</ele><time>2026-05-01T07:28:23Z</time></trkpt><trkpt lat="42.503017882140504" lon="14.166289053088118"><ele>5.0</ele><time>2026-05-01T07:28:24Z</time></trkpt><trkpt lat="42.50295757466767" lon="14.166361601971474"><ele>5.0</ele><time>2026-05-01T07:28:25Z</time></trkpt><trkpt lat="42.5029076362131" lon="14.166420181155143"><ele>5.0</ele><time>2026-05-01T07:28:26Z</time></trkpt><trkpt lat="42.50282197955239" lon="14.166503161205066"><ele>5.0</ele><time>2026-05-01T07:28:28Z</time></trkpt><trkpt lat="42.502760202233894" lon="14.166575002585832"><ele>5.0</ele><time>2026-05-01T07:28:30Z</time></trkpt><trkpt lat="42.502674014453326" lon="14.166687977567957"><ele>4.75</ele><time>2026-05-01T07:28:32Z</time></trkpt><trkpt lat="42.50260691903562" lon="14.166777957536954"><ele>4.5</ele><time>2026-05-01T07:28:33Z</time></trkpt><trkpt lat="42.502522050898996" lon="14.166883566573844"><ele>4.25</ele><time>2026-05-01T07:28:33.999Z</time></trkpt><trkpt lat="42.5024364874793" lon="14.166989465685258"><ele>4.0</ele><time>2026-05-01T07:28:34.999Z</time></trkpt><trkpt lat="42.5023413961744" lon="14.167104518701183"><ele>4.0</ele><time>2026-05-01T07:28:35.999Z</time></trkpt><trkpt lat="42.50223451413006" lon="14.167226710009949"><ele>4.0</ele><time>2026-05-01T07:28:36.999Z</time></trkpt><trkpt lat="42.50212694922341" lon="14.167351685354822"><ele>4.0</ele><time>2026-05-01T07:28:37.999Z</time></trkpt><trkpt lat="42.5020203197284" lon="14.167483383040738"><ele>4.0</ele><time>2026-05-01T07:28:38.999Z</time></trkpt><trkpt lat="42.501913478870286" lon="14.167613212968481"><ele>4.0</ele><time>2026-05-01T07:28:39.999Z</time></trkpt><trkpt lat="42.50181041827071" lon="14.167743453903963"><ele>4.0</ele><time>2026-05-01T07:28:40.999Z</time></trkpt><trkpt lat="42.507910581884055" lon="14.16580851163983"><ele>3.75</ele><time>2026-05-01T07:27:15Z</time></trkpt><trkpt lat="42.50783556359493" lon="14.165676233053448"><ele>3.5</ele><time>2026-05-01T07:27:16Z</time></trkpt><trkpt lat="42.50775881986283" lon="14.165553138986555"><ele>3.25</ele><time>2026-05-01T07:27:17Z</time></trkpt><trkpt lat="42.50768709564838" lon="14.165444569694333"><ele>3.0</ele><time>2026-05-01T07:27:18Z</time></trkpt><trkpt lat="42.507615975371515" lon="14.165335220452016"><ele>3.0</ele><time>2026-05-01T07:27:19Z</time></trkpt><trkpt lat="42.5075405257621" lon="14.165229162684708"><ele>3.0</ele><time>2026-05-01T07:27:20Z</time></trkpt><trkpt lat="42.50748118788065" lon="14.165106887018288"><ele>3.0</ele><time>2026-05-01T07:27:21Z</time></trkpt><trkpt lat="42.507421096259954" lon="14.165012288215053"><ele>3.0</ele><time>2026-05-01T07:27:22Z</time></trkpt><trkpt lat="42.507375793451445" lon="14.164941407128957"><ele>3.0</ele><time>2026-05-01T07:27:23Z</time></trkpt><trkpt lat="42.50732670127476" lon="14.164866423431539"><ele>2.8</ele><time>2026-05-01T07:27:25Z</time></trkpt><trkpt lat="42.50728073365569" lon="14.164801133777143"><ele>2.5999999999999996</ele><time>2026-05-01T07:27:27Z</time></trkpt><trkpt lat="42.50719489361666" lon="14.16468684031133"><ele>2.4000000000000004</ele><time>2026-05-01T07:27:29Z</time></trkpt><trkpt lat="42.50711519007884" lon="14.164587285244645"><ele>2.2</ele><time>2026-05-01T07:27:30Z</time></trkpt><trkpt lat="42.50703363543687" lon="14.164463916714022"><ele>2.0</ele><time>2026-05-01T07:27:31Z</time></trkpt><trkpt lat="42.5069404295048" lon="14.164327086868033"><ele>2.0</ele><time>2026-05-01T07:27:32Z</time></trkpt><trkpt lat="42.50685733756039" lon="14.164204855704638"><ele>2.0</ele><time>2026-05-01T07:27:33Z</time></trkpt><trkpt lat="42.506772720520395" lon="14.164112065325433"><ele>2.0</ele><time>2026-05-01T07:27:34Z</time></trkpt><trkpt lat="42.5067105115083" lon="14.164012199000988"><ele>2.0</ele><time>2026-05-01T07:27:35Z</time></trkpt><trkpt lat="42.50665420044768" lon="14.163924987302602"><ele>2.0</ele><time>2026-05-01T07:27:36Z</time></trkpt><trkpt lat="42.506601748970944" lon="14.163841584129088"><ele>1.8</ele><time>2026-05-01T07:27:37Z</time></trkpt><trkpt lat="42.50654917861541" lon="14.16376179263522"><ele>1.6</ele><time>2026-05-01T07:27:38Z</time></trkpt><trkpt lat="42.50650114140214" lon="14.163684176885392"><ele>1.4000000000000001</ele><time>2026-05-01T07:27:39Z</time></trkpt><trkpt lat="42.506454556186874" lon="14.163617676965375"><ele>1.2000000000000002</ele><time>2026-05-01T07:27:40Z</time></trkpt><trkpt lat="42.506372362541754" lon="14.163500539072142"><ele>1.0</ele><time>2026-05-01T07:27:42Z</time></trkpt><trkpt lat="42.506280845291066" lon="14.16337316570741"><ele>1.1666666666666665</ele><time>2026-05-01T07:27:44Z</time></trkpt><trkpt lat="42.50622934460173" lon="14.163295571728279"><ele>1.3333333333333333</ele><time>2026-05-01T07:27:45Z</time></trkpt><trkpt lat="42.5061778536454" lon="14.163184727592448"><ele>1.5</ele><time>2026-05-01T07:27:46Z</time></trkpt><trkpt lat="42.50611802210233" lon="14.163093663470228"><ele>1.6666666666666665</ele><time>2026-05-01T07:27:47Z</time></trkpt><trkpt lat="42.50606499662886" lon="14.163012984491708"><ele>1.8333333333333333</ele><time>2026-05-01T07:27:48Z</time></trkpt><trkpt lat="42.50601814899515" lon="14.162942130013676"><ele>2.0</ele><time>2026-05-01T07:27:49Z</time></trkpt><trkpt lat="42.505959403915476" lon="14.162842688508237"><ele>2.0</ele><time>2026-05-01T07:27:51Z</time></trkpt><trkpt lat="42.50581712205748" lon="14.16290867256062"><ele>2.0</ele><time>2026-05-01T07:27:53Z</time></trkpt><trkpt lat="42.50574661218017" lon="14.162967110412174"><ele>2.0</ele><time>2026-05-01T07:27:54Z</time></trkpt><trkpt lat="42.505663447946745" lon="14.163066444577089"><ele>2.0</ele><time>2026-05-01T07:27:55Z</time></trkpt><trkpt lat="42.505570159258134" lon="14.16319986425271"><ele>2.0</ele><time>2026-05-01T07:27:56Z</time></trkpt><trkpt lat="42.50546186602542" lon="14.163338079715716"><ele>2.0</ele><time>2026-05-01T07:27:57Z</time></trkpt><trkpt lat="42.505348375962484" lon="14.163465079868077"><ele>2.0</ele><time>2026-05-01T07:27:58Z</time></trkpt><trkpt lat="42.505241466639696" lon="14.163592469369984"><ele>2.0</ele><time>2026-05-01T07:27:59Z</time></trkpt><trkpt lat="42.505140651385034" lon="14.163706311893085"><ele>2.0</ele><time>2026-05-01T07:28:00Z</time></trkpt><trkpt lat="42.505044394524035" lon="14.163826937441675"><ele>2.0</ele><time>2026-05-01T07:28:01Z</time></trkpt><trkpt lat="42.50495392355308" lon="14.16394579076692"><ele>2.0</ele><time>2026-05-01T07:28:02Z</time></trkpt><trkpt lat="42.5048653133074" lon="14.16405864807007"><ele>2.0</ele><time>2026-05-01T07:28:03Z</time></trkpt><trkpt lat="42.50477451838367" lon="14.16416086779347"><ele>2.0</ele><time>2026-05-01T07:28:04Z</time></trkpt><trkpt lat="42.50468924159808" lon="14.164263510058591"><ele>2.0</ele><time>2026-05-01T07:28:05Z</time></trkpt><trkpt lat="42.5046045268956" lon="14.164367959814848"><ele>2.0</ele><time>2026-05-01T07:28:06Z</time></trkpt><trkpt lat="42.504520313285234" lon="14.164481034350255"><ele>2.0</ele><time>2026-05-01T07:28:07Z</time></trkpt><trkpt lat="42.50442858168898" lon="14.164597125319737"><ele>2.0</ele><time>2026-05-01T07:28:08Z</time></trkpt><trkpt lat="42.50431652036798" lon="14.164706699591658"><ele>2.0</ele><time>2026-05-01T07:28:09Z</time></trkpt><trkpt lat="42.504216105063264" lon="14.164857211473032"><ele>2.0</ele><time>2026-05-01T07:28:10Z</time></trkpt><trkpt lat="42.50409853335718" lon="14.164986916799972"><ele>2.0</ele><time>2026-05-01T07:28:11Z</time></trkpt><trkpt lat="42.50398847113586" lon="14.16511634986269"><ele>2.0</ele><time>2026-05-01T07:28:12Z</time></trkpt><trkpt lat="42.50389054548654" lon="14.165233385719421"><ele>2.0</ele><time>2026-05-01T07:28:13Z</time></trkpt><trkpt lat="42.50379456938067" lon="14.165344310530074"><ele>2.0</ele><time>2026-05-01T07:28:14Z</time></trkpt><trkpt lat="42.50370320186397" lon="14.165457143159365"><ele>2.0</ele><time>2026-05-01T07:28:15Z</time></trkpt><trkpt lat="42.503616439773594" lon="14.165564594082968"><ele>2.6</ele><time>2026-05-01T07:28:16Z</time></trkpt><trkpt lat="42.5035370426862" lon="14.16565904072104"><ele>3.2</ele><time>2026-05-01T07:28:17Z</time></trkpt><trkpt lat="42.50346044743258" lon="14.165753991318553"><ele>3.8</ele><time>2026-05-01T07:28:18Z</time></trkpt><trkpt lat="42.50338264008129" lon="14.165848001257059"><ele>4.4</ele><time>2026-05-01T07:28:19Z</time></trkpt><trkpt lat="42.50330041237565" lon="14.165941553655115"><ele>5.0</ele><time>2026-05-01T07:28:20Z</time></trkpt><trkpt lat="42.50321864375187" lon="14.166035762059975"><ele>5.0</ele><time>2026-05-01T07:28:21Z</time></trkpt><trkpt lat="42.503146261825655" lon="14.166124791933083"><ele>5.0</ele><time>2026-05-01T07:28:22Z</time></trkpt><trkpt lat="42.503079894288824" lon="14.166210705016264"><ele>5.0</ele><time>2026-05-01T07:28:23Z</time></trkpt><trkpt lat="42.503017882140504" lon="14.166289053088118"><ele>5.0</ele><time>2026-05-01T07:28:24Z</time></trkpt><trkpt lat="42.50295757466767" lon="14.166361601971474"><ele>5.0</ele><time>2026-05-01T07:28:25Z</time></trkpt><trkpt lat="42.5029076362131" lon="14.166420181155143"><ele>5.0</ele><time>2026-05-01T07:28:26Z</time></trkpt><trkpt lat="42.50282197955239" lon="14.166503161205066"><ele>4.8</ele><time>2026-05-01T07:28:28Z</time></trkpt><trkpt lat="42.502760202233894" lon="14.166575002585832"><ele>4.6</ele><time>2026-05-01T07:28:30Z</time></trkpt><trkpt lat="42.502674014453326" lon="14.166687977567957"><ele>4.4</ele><time>2026-05-01T07:28:32Z</time></trkpt><trkpt lat="42.50260691903562" lon="14.166777957536954"><ele>4.2</ele><time>2026-05-01T07:28:33Z</time></trkpt><trkpt lat="42.502522050898996" lon="14.166883566573844"><ele>4.0</ele><time>2026-05-01T07:28:33.999Z</time></trkpt><trkpt lat="42.5024364874793" lon="14.166989465685258"><ele>4.0</ele><time>2026-05-01T07:28:34.999Z</time></trkpt><trkpt lat="42.5023413961744" lon="14.167104518701183"><ele>4.0</ele><time>2026-05-01T07:28:35.999Z</time></trkpt><trkpt lat="42.50223451413006" lon="14.167226710009949"><ele>4.0</ele><time>2026-05-01T07:28:36.999Z</time></trkpt><trkpt lat="42.50212694922341" lon="14.167351685354822"><ele>4.0</ele><time>2026-05-01T07:28:37.999Z</time></trkpt><trkpt lat="42.5020203197284" lon="14.167483383040738"><ele>4.0</ele><time>2026-05-01T07:28:38.999Z</time></trkpt><trkpt lat="42.501913478870286" lon="14.167613212968481"><ele>4.0</ele><time>2026-05-01T07:28:39.999Z</time></trkpt><trkpt lat="42.50181041827071" lon="14.167743453903963"><ele>4.0</ele><time>2026-05-01T07:28:40.999Z</time></trkpt><trkpt lat="42.501709164142866" lon="14.167868468991285"><ele>4.0</ele><time>2026-05-01T07:28:41.999Z</time></trkpt><trkpt lat="42.50161105754141" lon="14.167983798556856"><ele>4.0</ele><time>2026-05-01T07:28:42.999Z</time></trkpt><trkpt lat="42.50151672404817" lon="14.168100603935798"><ele>4.0</ele><time>2026-05-01T07:28:43.999Z</time></trkpt><trkpt lat="42.50142060556223" lon="14.168216053374824"><ele>4.0</ele><time>2026-05-01T07:28:44.999Z</time></trkpt><trkpt lat="42.501325522288425" lon="14.168331007805863"><ele>4.0</ele><time>2026-05-01T07:28:45.999Z</time></trkpt><trkpt lat="42.50123027285889" lon="14.168446016694105"><ele>4.0</ele><time>2026-05-01T07:28:46.999Z</time></trkpt><trkpt lat="42.50113857699097" lon="14.168557562299005"><ele>4.0</ele><time>2026-05-01T07:28:47.999Z</time></trkpt><trkpt lat="42.50105092789501" lon="14.168671547723616"><ele>4.0</ele><time>2026-05-01T07:28:48.999Z</time></trkpt><trkpt lat="42.50096578206014" lon="14.168774564351294"><ele>4.0</ele><time>2026-05-01T07:28:49.999Z</time></trkpt><trkpt lat="42.500880317148145" lon="14.16888200590052"><ele>4.0</ele><time>2026-05-01T07:28:50.999Z</time></trkpt><trkpt lat="42.50078904978328" lon="14.168997970194098"><ele>4.0</ele><time>2026-05-01T07:28:51.999Z</time></trkpt><trkpt lat="42.50069376249109" lon="14.169116935337597"><ele>4.0</ele><time>2026-05-01T07:28:52.999Z</time></trkpt><trkpt lat="42.50059792476045" lon="14.16923060154321"><ele>4.0</ele><time>2026-05-01T07:28:53.999Z</time></trkpt><trkpt lat="42.50051032298597" lon="14.169348470274981"><ele>4.0</ele><time>2026-05-01T07:28:54.999Z</time></trkpt><trkpt lat="42.5004200533429" lon="14.169460977837327"><ele>4.0</ele><time>2026-05-01T07:28:55.999Z</time></trkpt><trkpt lat="42.50031860774464" lon="14.169555794429892"><ele>4.0</ele><time>2026-05-01T07:28:56.999Z</time></trkpt><trkpt lat="42.50022345674534" lon="14.169670232732589"><ele>4.0</ele><time>2026-05-01T07:28:57.999Z</time></trkpt><trkpt lat="42.50011999327695" lon="14.169795315745157"><ele>3.5</ele><time>2026-05-01T07:28:58.999Z</time></trkpt><trkpt lat="42.500024215139554" lon="14.16991110981672"><ele>3.0</ele><time>2026-05-01T07:28:59.999Z</time></trkpt><trkpt lat="42.49994569012406" lon="14.170032577688175"><ele>2.5</ele><time>2026-05-01T07:29:00.999Z</time></trkpt><trkpt lat="42.49985590488909" lon="14.170137352046243"><ele>2.0</ele><time>2026-05-01T07:29:01.999Z</time></trkpt><trkpt lat="42.49976083232334" lon="14.170238380248783"><ele>2.0</ele><time>2026-05-01T07:29:02.999Z</time></trkpt><trkpt lat="42.499667634240346" lon="14.170338061903836"><ele>2.0</ele><time>2026-05-01T07:29:03.999Z</time></trkpt><trkpt lat="42.49958512306533" lon="14.17043712383206"><ele>2.0</ele><time>2026-05-01T07:29:04.999Z</time></trkpt><trkpt lat="42.4995119711283" lon="14.170532159882903"><ele>2.0</ele><time>2026-05-01T07:29:05.999Z</time></trkpt><trkpt lat="42.49944164504824" lon="14.170616829884496"><ele>2.0</ele><time>2026-05-01T07:29:06.999Z</time></trkpt><trkpt lat="42.499372520247505" lon="14.170700482781251"><ele>2.4000000000000004</ele><time>2026-05-01T07:29:07.999Z</time></trkpt><trkpt lat="42.49930328654917" lon="14.170784531895583"><ele>2.8000000000000003</ele><time>2026-05-01T07:29:09Z</time></trkpt><trkpt lat="42.49923127982152" lon="14.170870504134003"><ele>3.2</ele><time>2026-05-01T07:29:10Z</time></trkpt><trkpt lat="42.4991531888357" lon="14.170958391005447"><ele>3.6</ele><time>2026-05-01T07:29:11Z</time></trkpt><trkpt lat="42.49907654584334" lon="14.171054581701274"><ele>4.0</ele><time>2026-05-01T07:29:12Z</time></trkpt><trkpt lat="42.498999693827884" lon="14.171155400179332"><ele>4.0</ele><time>2026-05-01T07:29:13Z</time></trkpt><trkpt lat="42.498920416207795" lon="14.171256170760453"><ele>4.0</ele><time>2026-05-01T07:29:14Z</time></trkpt><trkpt lat="42.49884162081468" lon="14.171357283025701"><ele>4.0</ele><time>2026-05-01T07:29:15Z</time></trkpt><trkpt lat="42.49876144327705" lon="14.17145847818095"><ele>4.0</ele><time>2026-05-01T07:29:16Z</time></trkpt><trkpt lat="42.49867886004139" lon="14.171557117355679"><ele>4.0</ele><time>2026-05-01T07:29:17Z</time></trkpt><trkpt lat="42.49859374476399" lon="14.171658191933652"><ele>3.8000000000000003</ele><time>2026-05-01T07:29:18Z</time></trkpt><trkpt lat="42.49851052285553" lon="14.171763573837392"><ele>3.6000000000000005</ele><time>2026-05-01T07:29:19Z</time></trkpt><trkpt lat="42.498433808629514" lon="14.17186187404233"><ele>3.4</ele><time>2026-05-01T07:29:20Z</time></trkpt><trkpt lat="42.49836163135062" lon="14.17195091399037"><ele>3.2</ele><time>2026-05-01T07:29:21Z</time></trkpt><trkpt lat="42.49828777258333" lon="14.172040070466089"><ele>3.0</ele><time>2026-05-01T07:29:22Z</time></trkpt><trkpt lat="42.49821352054043" lon="14.172131743531407"><ele>3.0</ele><time>2026-05-01T07:29:23Z</time></trkpt><trkpt lat="42.49813726674223" lon="14.172229240518668"><ele>3.0</ele><time>2026-05-01T07:29:24Z</time></trkpt><trkpt lat="42.498049300296394" lon="14.172308871889967"><ele>3.0</ele><time>2026-05-01T07:29:25Z</time></trkpt><trkpt lat="42.497971532848915" lon="14.17240447813832"><ele>3.0</ele><time>2026-05-01T07:29:26Z</time></trkpt><trkpt lat="42.49789565687523" lon="14.172497912117759"><ele>3.0</ele><time>2026-05-01T07:29:27Z</time></trkpt><trkpt lat="42.497813162351015" lon="14.172597568952629"><ele>3.5</ele><time>2026-05-01T07:29:28Z</time></trkpt><trkpt lat="42.49772636300903" lon="14.172703053579694"><ele>4.0</ele><time>2026-05-01T07:29:29Z</time></trkpt><trkpt lat="42.49763471193395" lon="14.17281493064182"><ele>4.5</ele><time>2026-05-01T07:29:30Z</time></trkpt><trkpt lat="42.49754810467064" lon="14.17291934013875"><ele>5.0</ele><time>2026-05-01T07:29:31Z</time></trkpt><trkpt lat="42.49747956793378" lon="14.17303084860359"><ele>5.0</ele><time>2026-05-01T07:29:32Z</time></trkpt><trkpt lat="42.497393700380904" lon="14.173106365138358"><ele>5.0</ele><time>2026-05-01T07:29:33Z</time></trkpt><trkpt lat="42.49732444032064" lon="14.173190390598819"><ele>5.0</ele><time>2026-05-01T07:29:34Z</time></trkpt><trkpt lat="42.497267273581556" lon="14.173286605010729"><ele>5.0</ele><time>2026-05-01T07:29:35Z</time></trkpt><trkpt lat="42.497186100381384" lon="14.173358222873723"><ele>5.0</ele><time>2026-05-01T07:29:36Z</time></trkpt><trkpt lat="42.49712050628529" lon="14.173437850155866"><ele>5.0</ele><time>2026-05-01T07:29:37Z</time></trkpt><trkpt lat="42.497064058926874" lon="14.17350551958817"><ele>5.0</ele><time>2026-05-01T07:29:38Z</time></trkpt><trkpt lat="42.497014883431184" lon="14.173564888878134"><ele>5.0</ele><time>2026-05-01T07:29:39Z</time></trkpt><trkpt lat="42.49693914203538" lon="14.173656331052328"><ele>5.0</ele><time>2026-05-01T07:29:41Z</time></trkpt><trkpt lat="42.496882993584705" lon="14.173724118760731"><ele>5.0</ele><time>2026-05-01T07:29:44Z</time></trkpt><trkpt lat="42.4968342024304" lon="14.173782975028372"><ele>5.0</ele><time>2026-05-01T07:29:48Z</time></trkpt><trkpt lat="42.49676524320524" lon="14.17386627961661"><ele>5.0</ele><time>2026-05-01T07:29:50Z</time></trkpt><trkpt lat="42.496723407495075" lon="14.173936252186026"><ele>5.0</ele><time>2026-05-01T07:29:52Z</time></trkpt><trkpt lat="42.496830548157135" lon="14.174102717961793"><ele>5.0</ele><time>2026-05-01T07:29:53Z</time></trkpt><trkpt lat="42.49688101482476" lon="14.174155897645022"><ele>5.0</ele><time>2026-05-01T07:29:54Z</time></trkpt><trkpt lat="42.49695395531752" lon="14.17426547747807"><ele>5.0</ele><time>2026-05-01T07:29:56Z</time></trkpt><trkpt lat="42.496995667742944" lon="14.174336348008545"><ele>4.666666666666667</ele><time>2026-05-01T07:29:57Z</time></trkpt><trkpt lat="42.497038211264545" lon="14.174407553809255"><ele>4.333333333333334</ele><time>2026-05-01T07:29:58Z</time></trkpt><trkpt lat="42.49708254512874" lon="14.174470952860819"><ele>4.0</ele><time>2026-05-01T07:29:59Z</time></trkpt><trkpt lat="42.49713281533746" lon="14.174549021092421"><ele>3.666666666666667</ele><time>2026-05-01T07:30:00Z</time></trkpt><trkpt lat="42.497190000593505" lon="14.17463777900197"><ele>3.3333333333333335</ele><time>2026-05-01T07:30:01Z</time></trkpt><trkpt lat="42.4972591576009" lon="14.174735020531621"><ele>3.0</ele><time>2026-05-01T07:30:02Z</time></trkpt><trkpt lat="42.49731527042107" lon="14.174838459656197"><ele>3.0</ele><time>2026-05-01T07:30:03Z</time></trkpt><trkpt lat="42.49738394219106" lon="14.17491183852898"><ele>3.0</ele><time>2026-05-01T07:30:04Z</time></trkpt><trkpt lat="42.49744154689744" lon="14.174997272148959"><ele>3.0</ele><time>2026-05-01T07:30:05Z</time></trkpt><trkpt lat="42.497501648071896" lon="14.175093523924946"><ele>3.0</ele><time>2026-05-01T07:30:06Z</time></trkpt><trkpt lat="42.497557734529074" lon="14.175176934707103"><ele>3.0</ele><time>2026-05-01T07:30:07Z</time></trkpt><trkpt lat="42.49761456401516" lon="14.175258836624044"><ele>3.0</ele><time>2026-05-01T07:30:08Z</time></trkpt><trkpt lat="42.49767450511641" lon="14.17535002639689"><ele>3.0</ele><time>2026-05-01T07:30:09Z</time></trkpt><trkpt lat="42.497736891599" lon="14.175458543828638"><ele>3.0</ele><time>2026-05-01T07:30:10Z</time></trkpt><trkpt lat="42.49779735067716" lon="14.175546748899158"><ele>3.0</ele><time>2026-05-01T07:30:11Z</time></trkpt><trkpt lat="42.497861980062744" lon="14.175643653523604"><ele>3.0</ele><time>2026-05-01T07:30:12Z</time></trkpt><trkpt lat="42.49792372160691" lon="14.175735835485074"><ele>3.0</ele><time>2026-05-01T07:30:13Z</time></trkpt><trkpt lat="42.497981797153756" lon="14.175822966147644"><ele>3.2</ele><time>2026-05-01T07:30:14Z</time></trkpt><trkpt lat="42.49803233350761" lon="14.175894891485877"><ele>3.4</ele><time>2026-05-01T07:30:15Z</time></trkpt><trkpt lat="42.49808806115474" lon="14.175983495387943"><ele>3.6000000000000005</ele><time>2026-05-01T07:30:16Z</time></trkpt><trkpt lat="42.498154625672015" lon="14.176084186215965"><ele>3.8000000000000003</ele><time>2026-05-01T07:30:17Z</time></trkpt><trkpt lat="42.49823505058007" lon="14.176209548109567"><ele>4.0</ele><time>2026-05-01T07:30:18Z</time></trkpt><trkpt lat="42.49832289872957" lon="14.176342961809695"><ele>4.0</ele><time>2026-05-01T07:30:19Z</time></trkpt><trkpt lat="42.49839533778725" lon="14.176453858404683"><ele>4.0</ele><time>2026-05-01T07:30:20Z</time></trkpt><trkpt lat="42.498457278739515" lon="14.176545373460609"><ele>4.0</ele><time>2026-05-01T07:30:21Z</time></trkpt><trkpt lat="42.49850674721113" lon="14.176635460677458"><ele>4.0</ele><time>2026-05-01T07:30:22Z</time></trkpt><trkpt lat="42.4985743947117" lon="14.176729171305741"><ele>4.0</ele><time>2026-05-01T07:30:23Z</time></trkpt><trkpt lat="42.498654580087674" lon="14.176839509196899"><ele>4.2</ele><time>2026-05-01T07:30:24Z</time></trkpt><trkpt lat="42.4987283332703" lon="14.176951994972603"><ele>4.4</ele><time>2026-05-01T07:30:25Z</time></trkpt><trkpt lat="42.49879859093243" lon="14.177064258462849"><ele>4.6</ele><time>2026-05-01T07:30:26Z</time></trkpt><trkpt lat="42.49887024781466" lon="14.17716792444458"><ele>4.8</ele><time>2026-05-01T07:30:27Z</time></trkpt><trkpt lat="42.49893974994233" lon="14.177275852495601"><ele>5.0</ele><time>2026-05-01T07:30:28Z</time></trkpt><trkpt lat="42.4990017057891" lon="14.177377526594416"><ele>5.166666666666667</ele><time>2026-05-01T07:30:29Z</time></trkpt><trkpt lat="42.499062824232574" lon="14.177465529055176"><ele>5.333333333333334</ele><time>2026-05-01T07:30:30Z</time></trkpt><trkpt lat="42.499123041222845" lon="14.177557328709696"><ele>5.5</ele><time>2026-05-01T07:30:31Z</time></trkpt><trkpt lat="42.49917653241907" lon="14.177638771495658"><ele>5.666666666666667</ele><time>2026-05-01T07:30:32Z</time></trkpt><trkpt lat="42.49923316492151" lon="14.177729871977089"><ele>5.833333333333333</ele><time>2026-05-01T07:30:33Z</time></trkpt><trkpt lat="42.499300736374146" lon="14.177831946019127"><ele>6.0</ele><time>2026-05-01T07:30:34Z</time></trkpt><trkpt lat="42.49936687904607" lon="14.177932133884196"><ele>6.0</ele><time>2026-05-01T07:30:35Z</time></trkpt><trkpt lat="42.49942238907954" lon="14.178020039421595"><ele>6.0</ele><time>2026-05-01T07:30:36Z</time></trkpt><trkpt lat="42.49947692113511" lon="14.178109803088356"><ele>6.0</ele><time>2026-05-01T07:30:37Z</time></trkpt><trkpt lat="42.49953311606457" lon="14.178196371144722"><ele>6.0</ele><time>2026-05-01T07:30:38Z</time></trkpt><trkpt lat="42.499582119898875" lon="14.17827319157983"><ele>6.0</ele><time>2026-05-01T07:30:39Z</time></trkpt><trkpt lat="42.49966122173968" lon="14.178396873647817"><ele>5.833333333333333</ele><time>2026-05-01T07:30:41Z</time></trkpt><trkpt lat="42.49972617147412" lon="14.178506231233245"><ele>5.666666666666667</ele><time>2026-05-01T07:30:43Z</time></trkpt><trkpt lat="42.49977417013582" lon="14.178600965761524"><ele>5.5</ele><time>2026-05-01T07:30:45Z</time></trkpt><trkpt lat="42.49980250585511" lon="14.178691350805797"><ele>5.333333333333334</ele><time>2026-05-01T07:30:48.999Z</time></trkpt><trkpt lat="42.49972154205132" lon="14.178797954986218"><ele>5.166666666666667</ele><time>2026-05-01T07:30:49.999Z</time></trkpt><trkpt lat="42.4996596966974" lon="14.178849568454433"><ele>5.0</ele><time>2026-05-01T07:30:58.999Z</time></trkpt><trkpt lat="42.49951779959502" lon="14.178982773691706"><ele>4.666666666666667</ele><time>2026-05-01T07:31:00.999Z</time></trkpt><trkpt lat="42.499410239477285" lon="14.179117466972057"><ele>4.333333333333333</ele><time>2026-05-01T07:31:01.999Z</time></trkpt><trkpt lat="42.499277617117826" lon="14.17923674253114"><ele>4.0</ele><time>2026-05-01T07:31:02.999Z</time></trkpt><trkpt lat="42.49911758705704" lon="14.179377455962966"><ele>4.0</ele><time>2026-05-01T07:31:03.999Z</time></trkpt><trkpt lat="42.498941392718876" lon="14.179521738757847"><ele>4.0</ele><time>2026-05-01T07:31:04.999Z</time></trkpt><trkpt lat="42.49874204695293" lon="14.17968171859766"><ele>4.0</ele><time>2026-05-01T07:31:05.999Z</time></trkpt><trkpt lat="42.4985613161739" lon="14.179865110340273"><ele>4.25</ele><time>2026-05-01T07:31:06.999Z</time></trkpt><trkpt lat="42.49856457543608" lon="14.179975117414811"><ele>4.5</ele><time>2026-05-01T07:31:07.999Z</time></trkpt><trkpt lat="42.49844798735629" lon="14.180098168321862"><ele>4.75</ele><time>2026-05-01T07:31:08.999Z</time></trkpt><trkpt lat="42.49833631188374" lon="14.180212273964097"><ele>5.0</ele><time>2026-05-01T07:31:09.999Z</time></trkpt><trkpt lat="42.498229650573904" lon="14.180320284438494"><ele>5.0</ele><time>2026-05-01T07:31:10.999Z</time></trkpt><trkpt lat="42.49812474332898" lon="14.18042536340033"><ele>5.0</ele><time>2026-05-01T07:31:11.999Z</time></trkpt><trkpt lat="42.49801992000406" lon="14.18052546050612"><ele>5.0</ele><time>2026-05-01T07:31:12.999Z</time></trkpt><trkpt lat="42.4979189512033" lon="14.180620323288434"><ele>5.0</ele><time>2026-05-01T07:31:13.999Z</time></trkpt><trkpt lat="42.49781677312432" lon="14.180722205379361"><ele>5.25</ele><time>2026-05-01T07:31:15Z</time></trkpt><trkpt lat="42.4977156059183" lon="14.180826240999519"><ele>5.5</ele><time>2026-05-01T07:31:16Z</time></trkpt><trkpt lat="42.497612952708" lon="14.180933641379585"><ele>5.75</ele><time>2026-05-01T07:31:17Z</time></trkpt><trkpt lat="42.497510083074026" lon="14.181038174924597"><ele>6.0</ele><time>2026-05-01T07:31:18Z</time></trkpt><trkpt lat="42.497407687495155" lon="14.181144870593899"><ele>6.0</ele><time>2026-05-01T07:31:19Z</time></trkpt><trkpt lat="42.49730498191176" lon="14.181251363729428"><ele>6.0</ele><time>2026-05-01T07:31:20Z</time></trkpt><trkpt lat="42.497201712070414" lon="14.181358882259246"><ele>6.0</ele><time>2026-05-01T07:31:21Z</time></trkpt><trkpt lat="42.49710002579356" lon="14.181463995396143"><ele>6.0</ele><time>2026-05-01T07:31:22Z</time></trkpt><trkpt lat="42.49699834673097" lon="14.181566146011589"><ele>5.75</ele><time>2026-05-01T07:31:23Z</time></trkpt><trkpt lat="42.496899691988034" lon="14.181665623928572"><ele>5.5</ele><time>2026-05-01T07:31:24Z</time></trkpt><trkpt lat="42.496802107226" lon="14.18176507758988"><ele>5.25</ele><time>2026-05-01T07:31:25Z</time></trkpt><trkpt lat="42.49670443240204" lon="14.181865409166862"><ele>5.0</ele><time>2026-05-01T07:31:26Z</time></trkpt><trkpt lat="42.49660757291139" lon="14.181968063080793"><ele>5.0</ele><time>2026-05-01T07:31:27Z</time></trkpt><trkpt lat="42.496514119555705" lon="14.182066600102495"><ele>5.0</ele><time>2026-05-01T07:31:28Z</time></trkpt><trkpt lat="42.496426612700844" lon="14.18216146717404"><ele>5.0</ele><time>2026-05-01T07:31:29Z</time></trkpt><trkpt lat="42.49634619379106" lon="14.182253582002389"><ele>5.0</ele><time>2026-05-01T07:31:30Z</time></trkpt><trkpt lat="42.49626195363655" lon="14.182343135737526"><ele>5.0</ele><time>2026-05-01T07:31:31Z</time></trkpt><trkpt lat="42.49618508320186" lon="14.18241740202536"><ele>4.4</ele><time>2026-05-01T07:31:32Z</time></trkpt><trkpt lat="42.49611740534492" lon="14.182495573643823"><ele>3.8</ele><time>2026-05-01T07:31:33Z</time></trkpt><trkpt lat="42.49603620392599" lon="14.18257851440977"><ele>3.2</ele><time>2026-05-01T07:31:34Z</time></trkpt><trkpt lat="42.49595015622932" lon="14.182666224077929"><ele>2.6</ele><time>2026-05-01T07:31:35Z</time></trkpt><trkpt lat="42.495862480149064" lon="14.182758917118928"><ele>2.0</ele><time>2026-05-01T07:31:36Z</time></trkpt><trkpt lat="42.49576976652991" lon="14.182849980523184"><ele>2.0</ele><time>2026-05-01T07:31:37Z</time></trkpt><trkpt lat="42.495669887212934" lon="14.182946055019036"><ele>2.0</ele><time>2026-05-01T07:31:38Z</time></trkpt><trkpt lat="42.495573053904025" lon="14.18304483863992"><ele>2.0</ele><time>2026-05-01T07:31:39Z</time></trkpt><trkpt lat="42.495473216791595" lon="14.183145604239835"><ele>2.0</ele><time>2026-05-01T07:31:40Z</time></trkpt><trkpt lat="42.49537807102448" lon="14.18324106922197"><ele>2.6</ele><time>2026-05-01T07:31:41Z</time></trkpt><trkpt lat="42.4952877229787" lon="14.183334158037578"><ele>3.2</ele><time>2026-05-01T07:31:42Z</time></trkpt><trkpt lat="42.49519858492808" lon="14.183428777547881"><ele>3.8</ele><time>2026-05-01T07:31:43Z</time></trkpt><trkpt lat="42.495107163268656" lon="14.183516877382354"><ele>4.4</ele><time>2026-05-01T07:31:44Z</time></trkpt><trkpt lat="42.495019815117864" lon="14.183604450902974"><ele>5.0</ele><time>2026-05-01T07:31:45Z</time></trkpt><trkpt lat="42.494932399500115" lon="14.183695857116605"><ele>5.0</ele><time>2026-05-01T07:31:46Z</time></trkpt><trkpt lat="42.494847938040415" lon="14.183783511154356"><ele>5.0</ele><time>2026-05-01T07:31:47Z</time></trkpt><trkpt lat="42.49476288534857" lon="14.183864923268166"><ele>5.0</ele><time>2026-05-01T07:31:48Z</time></trkpt><trkpt lat="42.49468816522066" lon="14.183948079582734"><ele>5.0</ele><time>2026-05-01T07:31:49Z</time></trkpt><trkpt lat="42.49461511903372" lon="14.184024967646529"><ele>5.0</ele><time>2026-05-01T07:31:50Z</time></trkpt><trkpt lat="42.494552049240085" lon="14.184085988254314"><ele>5.0</ele><time>2026-05-01T07:31:51Z</time></trkpt><trkpt lat="42.49449040992875" lon="14.184145458253788"><ele>5.0</ele><time>2026-05-01T07:31:52Z</time></trkpt><trkpt lat="42.494431179730576" lon="14.184202723378814"><ele>5.0</ele><time>2026-05-01T07:31:53Z</time></trkpt><trkpt lat="42.494369437285975" lon="14.1842625613959"><ele>5.0</ele><time>2026-05-01T07:31:54Z</time></trkpt><trkpt lat="42.49430938285865" lon="14.184323669153803"><ele>5.0</ele><time>2026-05-01T07:31:55Z</time></trkpt><trkpt lat="42.49425093863896" lon="14.18438570841066"><ele>5.0</ele><time>2026-05-01T07:31:56Z</time></trkpt><trkpt lat="42.49418503405162" lon="14.184451335519327"><ele>5.0</ele><time>2026-05-01T07:31:57Z</time></trkpt><trkpt lat="42.49411977252821" lon="14.184521520681498"><ele>5.0</ele><time>2026-05-01T07:31:58Z</time></trkpt><trkpt lat="42.49405633710273" lon="14.184589930593104"><ele>5.0</ele><time>2026-05-01T07:31:59Z</time></trkpt><trkpt lat="42.493989544761014" lon="14.184660701895313"><ele>5.0</ele><time>2026-05-01T07:32:00Z</time></trkpt><trkpt lat="42.49392137415383" lon="14.184728016824371"><ele>5.0</ele><time>2026-05-01T07:32:01Z</time></trkpt><trkpt lat="42.49385363522362" lon="14.184801921150235"><ele>5.0</ele><time>2026-05-01T07:32:02Z</time></trkpt><trkpt lat="42.49379092028366" lon="14.184871918622138"><ele>4.857142857142857</ele><time>2026-05-01T07:32:03Z</time></trkpt><trkpt lat="42.493728306231056" lon="14.18493997618596"><ele>4.714285714285714</ele><time>2026-05-01T07:32:04Z</time></trkpt><trkpt lat="42.49367244512603" lon="14.185001544843157"><ele>4.571428571428571</ele><time>2026-05-01T07:32:05Z</time></trkpt><trkpt lat="42.49361426497423" lon="14.185063343594782"><ele>4.428571428571429</ele><time>2026-05-01T07:32:06Z</time></trkpt><trkpt lat="42.49356003803942" lon="14.185120913048424"><ele>4.285714285714286</ele><time>2026-05-01T07:32:07Z</time></trkpt><trkpt lat="42.49350423305565" lon="14.18517994843268"><ele>4.142857142857142</ele><time>2026-05-01T07:32:08Z</time></trkpt><trkpt lat="42.493448616337645" lon="14.185238686296286"><ele>4.0</ele><time>2026-05-01T07:32:09Z</time></trkpt><trkpt lat="42.49339253110061" lon="14.185300853151993"><ele>3.9999999999999996</ele><time>2026-05-01T07:32:10Z</time></trkpt><trkpt lat="42.49333388779717" lon="14.185360955334858"><ele>4.0</ele><time>2026-05-01T07:32:11Z</time></trkpt><trkpt lat="42.493272258076004" lon="14.185422544710015"><ele>4.0</ele><time>2026-05-01T07:32:12Z</time></trkpt><trkpt lat="42.49321468679389" lon="14.185489016500618"><ele>4.0</ele><time>2026-05-01T07:32:13Z</time></trkpt><trkpt lat="42.493157795865" lon="14.185557022037411"><ele>3.9999999999999996</ele><time>2026-05-01T07:32:14Z</time></trkpt><trkpt lat="42.493094433566405" lon="14.185631551228154"><ele>4.0</ele><time>2026-05-01T07:32:15Z</time></trkpt><trkpt lat="42.49303535165665" lon="14.185699629626281"><ele>4.333333333333333</ele><time>2026-05-01T07:32:16Z</time></trkpt><trkpt lat="42.49297745869102" lon="14.185764466194309"><ele>4.666666666666666</ele><time>2026-05-01T07:32:17Z</time></trkpt><trkpt lat="42.49291352380139" lon="14.18584257288885"><ele>5.0</ele><time>2026-05-01T07:32:18Z</time></trkpt><trkpt lat="42.49285017070694" lon="14.185918426546783"><ele>5.333333333333333</ele><time>2026-05-01T07:32:19Z</time></trkpt><trkpt lat="42.49278230622139" lon="14.185997932064272"><ele>5.666666666666667</ele><time>2026-05-01T07:32:20Z</time></trkpt><trkpt lat="42.492718241038595" lon="14.18606277944164"><ele>6.0</ele><time>2026-05-01T07:32:21Z</time></trkpt><trkpt lat="42.49265870005663" lon="14.186128928746493"><ele>6.0</ele><time>2026-05-01T07:32:22Z</time></trkpt><trkpt lat="42.49260463316252" lon="14.18618864149205"><ele>6.0</ele><time>2026-05-01T07:32:22.999Z</time></trkpt><trkpt lat="42.49254430360531" lon="14.186258733121614"><ele>6.0</ele><time>2026-05-01T07:32:23.999Z</time></trkpt><trkpt lat="42.49247836238996" lon="14.186335321128725"><ele>6.0</ele><time>2026-05-01T07:32:24.999Z</time></trkpt><trkpt lat="42.49240569565206" lon="14.18641693476464"><ele>6.0</ele><time>2026-05-01T07:32:25.999Z</time></trkpt><trkpt lat="42.49232874108036" lon="14.18650514805259"><ele>6.0</ele><time>2026-05-01T07:32:26.999Z</time></trkpt><trkpt lat="42.492246285989886" lon="14.18659790543286"><ele>5.5</ele><time>2026-05-01T07:32:27.999Z</time></trkpt><trkpt lat="42.49215572077944" lon="14.18669918014555"><ele>5.0</ele><time>2026-05-01T07:32:28.999Z</time></trkpt><trkpt lat="42.492066494212374" lon="14.1868021747993"><ele>4.5</ele><time>2026-05-01T07:32:29.999Z</time></trkpt><trkpt lat="42.49197371927213" lon="14.186898767501358"><ele>4.0</ele><time>2026-05-01T07:32:30.999Z</time></trkpt><trkpt lat="42.49188719913847" lon="14.186994749055122"><ele>4.0</ele><time>2026-05-01T07:32:31.999Z</time></trkpt><trkpt lat="42.49179885220217" lon="14.18708884165098"><ele>4.0</ele><time>2026-05-01T07:32:32.999Z</time></trkpt><trkpt lat="42.49171133272152" lon="14.187181314474858"><ele>4.0</ele><time>2026-05-01T07:32:33.999Z</time></trkpt><trkpt lat="42.491623869982206" lon="14.187278039502"><ele>4.0</ele><time>2026-05-01T07:32:34.999Z</time></trkpt><trkpt lat="42.491537032639975" lon="14.187373354293515"><ele>4.0</ele><time>2026-05-01T07:32:35.999Z</time></trkpt><trkpt lat="42.49145162093921" lon="14.187469254810901"><ele>4.0</ele><time>2026-05-01T07:32:36.999Z</time></trkpt><trkpt lat="42.49136958393707" lon="14.187562890593348"><ele>4.0</ele><time>2026-05-01T07:32:37.999Z</time></trkpt><trkpt lat="42.4912864508913" lon="14.187654928152888"><ele>4.0</ele><time>2026-05-01T07:32:38.999Z</time></trkpt><trkpt lat="42.49120212668312" lon="14.187749088979261"><ele>4.0</ele><time>2026-05-01T07:32:39.999Z</time></trkpt><trkpt lat="42.49111532278752" lon="14.187843372053862"><ele>4.0</ele><time>2026-05-01T07:32:40.999Z</time></trkpt><trkpt lat="42.49103023829099" lon="14.187938357718991"><ele>4.25</ele><time>2026-05-01T07:32:41.999Z</time></trkpt><trkpt lat="42.49094493137587" lon="14.188032097385703"><ele>4.5</ele><time>2026-05-01T07:32:42.999Z</time></trkpt><trkpt lat="42.49085539287463" lon="14.188125123987879"><ele>4.75</ele><time>2026-05-01T07:32:43.999Z</time></trkpt><trkpt lat="42.490758226072074" lon="14.188229665925782"><ele>5.0</ele><time>2026-05-01T07:32:44.999Z</time></trkpt><trkpt lat="42.490649551763184" lon="14.188338224392252"><ele>5.25</ele><time>2026-05-01T07:32:45.999Z</time></trkpt><trkpt lat="42.490546746938584" lon="14.188450735981336"><ele>5.5</ele><time>2026-05-01T07:32:46.999Z</time></trkpt><trkpt lat="42.49044727994414" lon="14.188558991621782"><ele>5.75</ele><time>2026-05-01T07:32:47.999Z</time></trkpt><trkpt lat="42.49035287037278" lon="14.188663972358723"><ele>6.0</ele><time>2026-05-01T07:32:48.999Z</time></trkpt><trkpt lat="42.49026085030903" lon="14.188763604343679"><ele>6.0</ele><time>2026-05-01T07:32:49.999Z</time></trkpt><trkpt lat="42.490166668246495" lon="14.188867049886849"><ele>6.0</ele><time>2026-05-01T07:32:50.999Z</time></trkpt><trkpt lat="42.49007089418371" lon="14.188972564174676"><ele>6.0</ele><time>2026-05-01T07:32:51.999Z</time></trkpt><trkpt lat="42.489979144380676" lon="14.189076231567775"><ele>6.0</ele><time>2026-05-01T07:32:52.999Z</time></trkpt><trkpt lat="42.48988846301578" lon="14.18917503198235"><ele>6.0</ele><time>2026-05-01T07:32:53.999Z</time></trkpt><trkpt lat="42.48980558787514" lon="14.189269748211933"><ele>6.0</ele><time>2026-05-01T07:32:54.999Z</time></trkpt><trkpt lat="42.48972759987236" lon="14.189354920013617"><ele>6.0</ele><time>2026-05-01T07:32:55.999Z</time></trkpt><trkpt lat="42.4896537587101" lon="14.189433499484155"><ele>6.0</ele><time>2026-05-01T07:32:56.999Z</time></trkpt><trkpt lat="42.48958542610794" lon="14.189507756004268"><ele>6.0</ele><time>2026-05-01T07:32:57.999Z</time></trkpt><trkpt lat="42.48952490177813" lon="14.189576995325694"><ele>5.999999999999999</ele><time>2026-05-01T07:32:58.999Z</time></trkpt><trkpt lat="42.489468187659064" lon="14.189641496073769"><ele>6.0</ele><time>2026-05-01T07:32:59.999Z</time></trkpt><trkpt lat="42.48941323807391" lon="14.189702558876716"><ele>6.0</ele><time>2026-05-01T07:33:00.999Z</time></trkpt><trkpt lat="42.48935938839296" lon="14.189762725558651"><ele>6.0</ele><time>2026-05-01T07:33:01.999Z</time></trkpt><trkpt lat="42.4893045785173" lon="14.189821254610651"><ele>6.0</ele><time>2026-05-01T07:33:02.999Z</time></trkpt><trkpt lat="42.48925118793432" lon="14.189883355152991"><ele>5.999999999999999</ele><time>2026-05-01T07:33:03.999Z</time></trkpt><trkpt lat="42.48919030064063" lon="14.189947795584704"><ele>6.0</ele><time>2026-05-01T07:33:04.999Z</time></trkpt><trkpt lat="42.489132776075316" lon="14.19001071834686"><ele>5.333333333333333</ele><time>2026-05-01T07:33:05.999Z</time></trkpt><trkpt lat="42.48907273234819" lon="14.190077472681384"><ele>4.666666666666667</ele><time>2026-05-01T07:33:06.999Z</time></trkpt><trkpt lat="42.48901126016966" lon="14.190145086297774"><ele>4.0</ele><time>2026-05-01T07:33:07.999Z</time></trkpt><trkpt lat="42.488950270359034" lon="14.190213110754016"><ele>3.333333333333333</ele><time>2026-05-01T07:33:08.999Z</time></trkpt><trkpt lat="42.48888908400389" lon="14.190279069645968"><ele>2.6666666666666665</ele><time>2026-05-01T07:33:09.999Z</time></trkpt><trkpt lat="42.48882990591115" lon="14.190342491617688"><ele>2.0</ele><time>2026-05-01T07:33:10.999Z</time></trkpt><trkpt lat="42.4887679895695" lon="14.190410351177887"><ele>2.2</ele><time>2026-05-01T07:33:11.999Z</time></trkpt><trkpt lat="42.48870760549019" lon="14.190477617273887"><ele>2.4000000000000004</ele><time>2026-05-01T07:33:12.999Z</time></trkpt><trkpt lat="42.488633892541486" lon="14.190551890313564"><ele>2.5999999999999996</ele><time>2026-05-01T07:33:13.999Z</time></trkpt><trkpt lat="42.48855668829069" lon="14.190638840705446"><ele>2.8</ele><time>2026-05-01T07:33:14.999Z</time></trkpt><trkpt lat="42.488464815109054" lon="14.190735210350073"><ele>3.0</ele><time>2026-05-01T07:33:15.999Z</time></trkpt><trkpt lat="42.488378229205544" lon="14.19084172932372"><ele>3.5</ele><time>2026-05-01T07:33:16.999Z</time></trkpt><trkpt lat="42.4882809083588" lon="14.190950633055783"><ele>4.0</ele><time>2026-05-01T07:33:17.999Z</time></trkpt><trkpt lat="42.488166634399775" lon="14.191072512989718"><ele>4.5</ele><time>2026-05-01T07:33:18.999Z</time></trkpt><trkpt lat="42.48804459379039" lon="14.191202702346189"><ele>5.0</ele><time>2026-05-01T07:33:19.999Z</time></trkpt><trkpt lat="42.48791885767471" lon="14.191337241649503"><ele>5.333333333333334</ele><time>2026-05-01T07:33:20.999Z</time></trkpt><trkpt lat="42.48778980674929" lon="14.191477030838657"><ele>5.666666666666667</ele><time>2026-05-01T07:33:21.999Z</time></trkpt><trkpt lat="42.48765611952783" lon="14.191620309423739"><ele>6.0</ele><time>2026-05-01T07:33:22.999Z</time></trkpt><trkpt lat="42.48752890742101" lon="14.191765574182075"><ele>6.0</ele><time>2026-05-01T07:33:23.999Z</time></trkpt><trkpt lat="42.487395117617034" lon="14.191913806181418"><ele>6.0</ele><time>2026-05-01T07:33:24.999Z</time></trkpt><trkpt lat="42.487260585749624" lon="14.192062658287503"><ele>6.0</ele><time>2026-05-01T07:33:25.999Z</time></trkpt><trkpt lat="42.48712743194656" lon="14.192202845998162"><ele>5.0</ele><time>2026-05-01T07:33:26.999Z</time></trkpt><trkpt lat="42.48699555315199" lon="14.192349415102342"><ele>4.0</ele><time>2026-05-01T07:33:27.999Z</time></trkpt><trkpt lat="42.48685771346744" lon="14.19249388031791"><ele>3.0</ele><time>2026-05-01T07:33:28.999Z</time></trkpt><trkpt lat="42.48671937650286" lon="14.192637029251571"><ele>3.0</ele><time>2026-05-01T07:33:29.999Z</time></trkpt><trkpt lat="42.48658059635906" lon="14.192779667033522"><ele>3.0</ele><time>2026-05-01T07:33:30.999Z</time></trkpt><trkpt lat="42.48643873952043" lon="14.192927829317572"><ele>3.0</ele><time>2026-05-01T07:33:31.999Z</time></trkpt><trkpt lat="42.4863000749353" lon="14.193075455502273"><ele>3.333333333333333</ele><time>2026-05-01T07:33:32.999Z</time></trkpt><trkpt lat="42.48616443661182" lon="14.19322045926873"><ele>3.6666666666666665</ele><time>2026-05-01T07:33:33.999Z</time></trkpt><trkpt lat="42.48602902035637" lon="14.193362664511353"><ele>4.0</ele><time>2026-05-01T07:33:34.999Z</time></trkpt><trkpt lat="42.48589196021214" lon="14.193505624490363"><ele>4.0</ele><time>2026-05-01T07:33:35.999Z</time></trkpt><trkpt lat="42.485759145508396" lon="14.193645711231236"><ele>4.0</ele><time>2026-05-01T07:33:36.999Z</time></trkpt><trkpt lat="42.48563591044233" lon="14.193776693934327"><ele>4.0</ele><time>2026-05-01T07:33:37.999Z</time></trkpt><trkpt lat="42.48551241871327" lon="14.193923401875773"><ele>3.6666666666666665</ele><time>2026-05-01T07:33:38.999Z</time></trkpt><trkpt lat="42.48539036295485" lon="14.194079997192448"><ele>3.333333333333333</ele><time>2026-05-01T07:33:39.999Z</time></trkpt><trkpt lat="42.48526167244849" lon="14.194252424187757"><ele>3.0</ele><time>2026-05-01T07:33:40.999Z</time></trkpt><trkpt lat="42.485140289647084" lon="14.194401299254164"><ele>3.0</ele><time>2026-05-01T07:33:41.999Z</time></trkpt><trkpt lat="42.48502690982538" lon="14.1945388875425"><ele>3.0</ele><time>2026-05-01T07:33:42.999Z</time></trkpt><trkpt lat="42.48491690657348" lon="14.19467972882297"><ele>3.0</ele><time>2026-05-01T07:33:43.999Z</time></trkpt><trkpt lat="42.48479472790661" lon="14.194810922635986"><ele>2.75</ele><time>2026-05-01T07:33:44.999Z</time></trkpt><trkpt lat="42.484683563804225" lon="14.19494934043652"><ele>2.5</ele><time>2026-05-01T07:33:45.999Z</time></trkpt><trkpt lat="42.484575724246014" lon="14.195084921393086"><ele>2.25</ele><time>2026-05-01T07:33:46.999Z</time></trkpt><trkpt lat="42.484490912890315" lon="14.19522219053203"><ele>2.0</ele><time>2026-05-01T07:33:47.999Z</time></trkpt><trkpt lat="42.48439759319308" lon="14.195343875670641"><ele>2.0</ele><time>2026-05-01T07:33:48.999Z</time></trkpt><trkpt lat="42.48430523848466" lon="14.195470092897224"><ele>2.0</ele><time>2026-05-01T07:33:49.999Z</time></trkpt><trkpt lat="42.48418886483388" lon="14.19560926811149"><ele>2.0</ele><time>2026-05-01T07:33:50.999Z</time></trkpt><trkpt lat="42.484079606597334" lon="14.195761080781654"><ele>2.0</ele><time>2026-05-01T07:33:51.999Z</time></trkpt><trkpt lat="42.48398738154974" lon="14.19591103530703"><ele>1.75</ele><time>2026-05-01T07:33:52.999Z</time></trkpt><trkpt lat="42.48388746349289" lon="14.196035172307885"><ele>1.5</ele><time>2026-05-01T07:33:53.999Z</time></trkpt><trkpt lat="42.48379130825225" lon="14.196160132314885"><ele>1.25</ele><time>2026-05-01T07:33:54.999Z</time></trkpt><trkpt lat="42.48370028757833" lon="14.196283544571406"><ele>1.0</ele><time>2026-05-01T07:33:55.999Z</time></trkpt><trkpt lat="42.483610752017604" lon="14.196407715343826"><ele>2.25</ele><time>2026-05-01T07:33:56.999Z</time></trkpt><trkpt lat="42.48351856146635" lon="14.19654270718875"><ele>3.5</ele><time>2026-05-01T07:33:57.999Z</time></trkpt><trkpt lat="42.48342730659482" lon="14.196681673591259"><ele>4.75</ele><time>2026-05-01T07:33:58.999Z</time></trkpt><trkpt lat="42.483337818815485" lon="14.196818445586974"><ele>6.0</ele><time>2026-05-01T07:33:59.999Z</time></trkpt><trkpt lat="42.483234727852896" lon="14.196941403567143"><ele>6.0</ele><time>2026-05-01T07:34:00.999Z</time></trkpt><trkpt lat="42.48313690295527" lon="14.19708454442244"><ele>6.0</ele><time>2026-05-01T07:34:01.999Z</time></trkpt><trkpt lat="42.483036382046635" lon="14.197232618265964"><ele>6.0</ele><time>2026-05-01T07:34:02.999Z</time></trkpt><trkpt lat="42.482941222182525" lon="14.197397638403825"><ele>6.0</ele><time>2026-05-01T07:34:03.999Z</time></trkpt><trkpt lat="42.48282710108102" lon="14.197542481650313"><ele>6.333333333333334</ele><time>2026-05-01T07:34:04.999Z</time></trkpt><trkpt lat="42.48271789284691" lon="14.19769117857401"><ele>6.666666666666667</ele><time>2026-05-01T07:34:05.999Z</time></trkpt><trkpt lat="42.482617491794244" lon="14.197843375568064"><ele>7.0</ele><time>2026-05-01T07:34:06.999Z</time></trkpt><trkpt lat="42.482520996554996" lon="14.197995042332586"><ele>7.0</ele><time>2026-05-01T07:34:07.999Z</time></trkpt><trkpt lat="42.48242406058126" lon="14.198135849575902"><ele>7.0</ele><time>2026-05-01T07:34:08.999Z</time></trkpt><trkpt lat="42.482327601153095" lon="14.198276804735244"><ele>7.0</ele><time>2026-05-01T07:34:09.999Z</time></trkpt><trkpt lat="42.48223054104257" lon="14.198417785876275"><ele>7.0</ele><time>2026-05-01T07:34:10.999Z</time></trkpt><trkpt lat="42.4821358843423" lon="14.198552118488433"><ele>7.0</ele><time>2026-05-01T07:34:11.999Z</time></trkpt><trkpt lat="42.4820419811958" lon="14.198689287541633"><ele>7.0</ele><time>2026-05-01T07:34:12.999Z</time></trkpt><trkpt lat="42.48195195569803" lon="14.198823844277078"><ele>7.0</ele><time>2026-05-01T07:34:13.999Z</time></trkpt><trkpt lat="42.48185742342969" lon="14.198959488522373"><ele>7.0</ele><time>2026-05-01T07:34:14.999Z</time></trkpt><trkpt lat="42.48176323338927" lon="14.199095473163064"><ele>7.0</ele><time>2026-05-01T07:34:15.999Z</time></trkpt><trkpt lat="42.481665747428735" lon="14.199238318502307"><ele>7.0</ele><time>2026-05-01T07:34:16.999Z</time></trkpt><trkpt lat="42.48156219158152" lon="14.199385397306008"><ele>7.0</ele><time>2026-05-01T07:34:17.999Z</time></trkpt><trkpt lat="42.481457395058705" lon="14.199536917737436"><ele>7.0</ele><time>2026-05-01T07:34:18.999Z</time></trkpt><trkpt lat="42.481351858864755" lon="14.19969264751248"><ele>5.666666666666667</ele><time>2026-05-01T07:34:19.999Z</time></trkpt><trkpt lat="42.481247666379815" lon="14.199847456557512"><ele>4.333333333333334</ele><time>2026-05-01T07:34:20.999Z</time></trkpt><trkpt lat="42.4811435482458" lon="14.199997043850853"><ele>3.0</ele><time>2026-05-01T07:34:21.999Z</time></trkpt><trkpt lat="42.481035880593105" lon="14.200150994034045"><ele>3.0</ele><time>2026-05-01T07:34:22.999Z</time></trkpt><trkpt lat="42.48093708169636" lon="14.200293960440211"><ele>3.0</ele><time>2026-05-01T07:34:23.999Z</time></trkpt><trkpt lat="42.48084766204238" lon="14.2004286326599"><ele>3.0</ele><time>2026-05-01T07:34:24.999Z</time></trkpt><trkpt lat="42.480759897486216" lon="14.200557462920276"><ele>3.0</ele><time>2026-05-01T07:34:25.999Z</time></trkpt><trkpt lat="42.480667362364386" lon="14.200696656239135"><ele>2.75</ele><time>2026-05-01T07:34:26.999Z</time></trkpt><trkpt lat="42.48056777937256" lon="14.200839808714214"><ele>2.5</ele><time>2026-05-01T07:34:27.999Z</time></trkpt><trkpt lat="42.4804689737229" lon="14.200981826087881"><ele>2.25</ele><time>2026-05-01T07:34:28.999Z</time></trkpt><trkpt lat="42.48037558752465" lon="14.201121161396792"><ele>2.0</ele><time>2026-05-01T07:34:29.999Z</time></trkpt><trkpt lat="42.480292139276195" lon="14.201242022740397"><ele>2.75</ele><time>2026-05-01T07:34:30.999Z</time></trkpt><trkpt lat="42.48020974570384" lon="14.201351059176961"><ele>3.5</ele><time>2026-05-01T07:34:31.999Z</time></trkpt><trkpt lat="42.48012762672195" lon="14.201462133647635"><ele>4.25</ele><time>2026-05-01T07:34:32.999Z</time></trkpt><trkpt lat="42.48004466335249" lon="14.20158564619919"><ele>5.0</ele><time>2026-05-01T07:34:33.999Z</time></trkpt><trkpt lat="42.479961489257256" lon="14.201718467259695"><ele>5.0</ele><time>2026-05-01T07:34:34.999Z</time></trkpt><trkpt lat="42.4798790433373" lon="14.201849493665751"><ele>5.0</ele><time>2026-05-01T07:34:35.999Z</time></trkpt><trkpt lat="42.479802151489906" lon="14.201960606782386"><ele>5.0</ele><time>2026-05-01T07:34:36.999Z</time></trkpt><trkpt lat="42.479738248405134" lon="14.202059687456181"><ele>5.0</ele><time>2026-05-01T07:34:37.999Z</time></trkpt><trkpt lat="42.47968228953942" lon="14.202150274801726"><ele>5.0</ele><time>2026-05-01T07:34:38.999Z</time></trkpt><trkpt lat="42.47962399410609" lon="14.202240582831717"><ele>4.75</ele><time>2026-05-01T07:34:39.999Z</time></trkpt><trkpt lat="42.47955278492589" lon="14.20233676663014"><ele>4.5</ele><time>2026-05-01T07:34:40.999Z</time></trkpt><trkpt lat="42.47946924135838" lon="14.20245001460455"><ele>4.25</ele><time>2026-05-01T07:34:41.999Z</time></trkpt><trkpt lat="42.47938446297719" lon="14.202578138018444"><ele>4.0</ele><time>2026-05-01T07:34:42.999Z</time></trkpt><trkpt lat="42.47929545582732" lon="14.202713183797558"><ele>4.0</ele><time>2026-05-01T07:34:43.999Z</time></trkpt><trkpt lat="42.47920358733" lon="14.2028469627262"><ele>4.0</ele><time>2026-05-01T07:34:44.999Z</time></trkpt><trkpt lat="42.47911271001523" lon="14.202979841942405"><ele>4.0</ele><time>2026-05-01T07:34:45.999Z</time></trkpt><trkpt lat="42.47902240631903" lon="14.203114159680565"><ele>4.0</ele><time>2026-05-01T07:34:46.999Z</time></trkpt><trkpt lat="42.478930831778456" lon="14.20324850918313"><ele>3.5</ele><time>2026-05-01T07:34:47.999Z</time></trkpt><trkpt lat="42.478839569892635" lon="14.203379603460585"><ele>3.0</ele><time>2026-05-01T07:34:48.999Z</time></trkpt><trkpt lat="42.47875061256445" lon="14.203508848649536"><ele>2.5</ele><time>2026-05-01T07:34:49.999Z</time></trkpt><trkpt lat="42.4786619891492" lon="14.203636666817504"><ele>2.0</ele><time>2026-05-01T07:34:50.999Z</time></trkpt><trkpt lat="42.47857417035245" lon="14.203761176247722"><ele>2.5</ele><time>2026-05-01T07:34:51.999Z</time></trkpt><trkpt lat="42.47848247620386" lon="14.203897750742312"><ele>3.0</ele><time>2026-05-01T07:34:52.999Z</time></trkpt><trkpt lat="42.478388912091155" lon="14.204035464756577"><ele>3.5</ele><time>2026-05-01T07:34:53.999Z</time></trkpt><trkpt lat="42.478294434885164" lon="14.204174361744242"><ele>4.0</ele><time>2026-05-01T07:34:54.999Z</time></trkpt><trkpt lat="42.478205301164635" lon="14.20431024342148"><ele>4.0</ele><time>2026-05-01T07:34:55.999Z</time></trkpt><trkpt lat="42.478117549853046" lon="14.204441968088709"><ele>4.0</ele><time>2026-05-01T07:34:56.999Z</time></trkpt><trkpt lat="42.4780299119394" lon="14.204562871703352"><ele>4.0</ele><time>2026-05-01T07:34:57.999Z</time></trkpt><trkpt lat="42.47793977136207" lon="14.20469237985104"><ele>4.0</ele><time>2026-05-01T07:34:58.999Z</time></trkpt><trkpt lat="42.4778525784456" lon="14.204822412025234"><ele>4.5</ele><time>2026-05-01T07:34:59.999Z</time></trkpt><trkpt lat="42.477764632765016" lon="14.204955509115186"><ele>5.0</ele><time>2026-05-01T07:35:00.999Z</time></trkpt><trkpt lat="42.477676705902894" lon="14.205086132509134"><ele>5.5</ele><time>2026-05-01T07:35:01.999Z</time></trkpt><trkpt lat="42.47758948425984" lon="14.20521094227945"><ele>6.0</ele><time>2026-05-01T07:35:02.999Z</time></trkpt><trkpt lat="42.47750741099645" lon="14.205338909623201"><ele>6.0</ele><time>2026-05-01T07:35:03.999Z</time></trkpt><trkpt lat="42.47741977462736" lon="14.205463886792096"><ele>6.0</ele><time>2026-05-01T07:35:04.999Z</time></trkpt><trkpt lat="42.4773288982508" lon="14.205585510567587"><ele>6.0</ele><time>2026-05-01T07:35:05.999Z</time></trkpt><trkpt lat="42.47723848883813" lon="14.20570588443488"><ele>6.0</ele><time>2026-05-01T07:35:06.999Z</time></trkpt><trkpt lat="42.47715700682268" lon="14.205830829181437"><ele>5.75</ele><time>2026-05-01T07:35:07.999Z</time></trkpt><trkpt lat="42.47707503276022" lon="14.20594906028547"><ele>5.5</ele><time>2026-05-01T07:35:08.999Z</time></trkpt><trkpt lat="42.476992972418856" lon="14.20606826746378"><ele>5.25</ele><time>2026-05-01T07:35:09.999Z</time></trkpt><trkpt lat="42.47690944058855" lon="14.206188429280752"><ele>5.0</ele><time>2026-05-01T07:35:10.999Z</time></trkpt><trkpt lat="42.47682913892048" lon="14.20630871038657"><ele>5.0</ele><time>2026-05-01T07:35:11.999Z</time></trkpt><trkpt lat="42.47674517901407" lon="14.20643268599271"><ele>5.0</ele><time>2026-05-01T07:35:12.999Z</time></trkpt><trkpt lat="42.47666048976671" lon="14.206555375327575"><ele>5.0</ele><time>2026-05-01T07:35:13.999Z</time></trkpt><trkpt lat="42.476573444928384" lon="14.206680256399666"><ele>5.0</ele><time>2026-05-01T07:35:14.999Z</time></trkpt><trkpt lat="42.47648809761043" lon="14.206805630128777"><ele>5.25</ele><time>2026-05-01T07:35:15.999Z</time></trkpt><trkpt lat="42.4764055471631" lon="14.206933354894089"><ele>5.5</ele><time>2026-05-01T07:35:16.999Z</time></trkpt><trkpt lat="42.47632040310356" lon="14.207056450218793"><ele>5.75</ele><time>2026-05-01T07:35:17.999Z</time></trkpt><trkpt lat="42.476228316170044" lon="14.207191645352292"><ele>6.0</ele><time>2026-05-01T07:35:18.999Z</time></trkpt><trkpt lat="42.476150703673966" lon="14.207307081172612"><ele>5.5</ele><time>2026-05-01T07:35:19.999Z</time></trkpt><trkpt lat="42.47606940621359" lon="14.207429831444298"><ele>5.0</ele><time>2026-05-01T07:35:20.999Z</time></trkpt><trkpt lat="42.475985093363846" lon="14.207553502650335"><ele>4.5</ele><time>2026-05-01T07:35:21.999Z</time></trkpt><trkpt lat="42.47589876746815" lon="14.207677890989325"><ele>4.0</ele><time>2026-05-01T07:35:22.999Z</time></trkpt><trkpt lat="42.47581206273881" lon="14.207806494239968"><ele>4.0</ele><time>2026-05-01T07:35:23.999Z</time></trkpt><trkpt lat="42.47572358724931" lon="14.207937357885072"><ele>4.0</ele><time>2026-05-01T07:35:24.999Z</time></trkpt><trkpt lat="42.47563296182174" lon="14.208067004830117"><ele>4.0</ele><time>2026-05-01T07:35:25.999Z</time></trkpt><trkpt lat="42.4755430666766" lon="14.208194665197839"><ele>4.0</ele><time>2026-05-01T07:35:26.999Z</time></trkpt><trkpt lat="42.47545302331306" lon="14.208316837438634"><ele>4.25</ele><time>2026-05-01T07:35:27.999Z</time></trkpt><trkpt lat="42.47536733573522" lon="14.208448995939312"><ele>4.5</ele><time>2026-05-01T07:35:28.999Z</time></trkpt><trkpt lat="42.47527840594917" lon="14.208580912871668"><ele>4.75</ele><time>2026-05-01T07:35:29.999Z</time></trkpt><trkpt lat="42.47518886719146" lon="14.208712881800109"><ele>5.0</ele><time>2026-05-01T07:35:30.999Z</time></trkpt><trkpt lat="42.475098073001895" lon="14.208844166159603"><ele>5.0</ele><time>2026-05-01T07:35:31.999Z</time></trkpt><trkpt lat="42.47500538832119" lon="14.208982657302494"><ele>5.0</ele><time>2026-05-01T07:35:32.999Z</time></trkpt><trkpt lat="42.47491273127257" lon="14.209118487424456"><ele>5.0</ele><time>2026-05-01T07:35:33.999Z</time></trkpt><trkpt lat="42.47482130734018" lon="14.209250057963711"><ele>5.0</ele><time>2026-05-01T07:35:34.999Z</time></trkpt><trkpt lat="42.47473192349656" lon="14.209380680586655"><ele>4.75</ele><time>2026-05-01T07:35:35.999Z</time></trkpt><trkpt lat="42.4746434859981" lon="14.209507994981509"><ele>4.5</ele><time>2026-05-01T07:35:36.999Z</time></trkpt><trkpt lat="42.47455644123411" lon="14.209634388453246"><ele>4.25</ele><time>2026-05-01T07:35:37.999Z</time></trkpt><trkpt lat="42.47446942820162" lon="14.209765682919079"><ele>4.0</ele><time>2026-05-01T07:35:38.999Z</time></trkpt><trkpt lat="42.4743806275045" lon="14.209894791300352"><ele>3.5</ele><time>2026-05-01T07:35:39.999Z</time></trkpt><trkpt lat="42.474290960304614" lon="14.210023171549398"><ele>3.0</ele><time>2026-05-01T07:35:40.999Z</time></trkpt><trkpt lat="42.47419869691736" lon="14.210153484018376"><ele>2.5</ele><time>2026-05-01T07:35:41.999Z</time></trkpt><trkpt lat="42.47410729221532" lon="14.210283498491401"><ele>2.0</ele><time>2026-05-01T07:35:42.999Z</time></trkpt><trkpt lat="42.474012516820196" lon="14.210421435119951"><ele>2.0</ele><time>2026-05-01T07:35:43.999Z</time></trkpt><trkpt lat="42.47391897140455" lon="14.210561283547394"><ele>2.0</ele><time>2026-05-01T07:35:44.999Z</time></trkpt><trkpt lat="42.473830741165735" lon="14.210692959311217"><ele>2.0</ele><time>2026-05-01T07:35:45.999Z</time></trkpt><trkpt lat="42.47374930928924" lon="14.210817308459335"><ele>2.0</ele><time>2026-05-01T07:35:46.999Z</time></trkpt><trkpt lat="42.47367454063249" lon="14.210928612986628"><ele>2.6</ele><time>2026-05-01T07:35:47.999Z</time></trkpt><trkpt lat="42.473606834730774" lon="14.211035644846696"><ele>3.2</ele><time>2026-05-01T07:35:48.999Z</time></trkpt><trkpt lat="42.473540834787094" lon="14.211147207798195"><ele>3.8</ele><time>2026-05-01T07:35:49.999Z</time></trkpt><trkpt lat="42.47347169923239" lon="14.211260244171026"><ele>4.4</ele><time>2026-05-01T07:35:50.999Z</time></trkpt><trkpt lat="42.473410067807286" lon="14.21136890496042"><ele>5.0</ele><time>2026-05-01T07:35:51.999Z</time></trkpt><trkpt lat="42.47334598119667" lon="14.21146925735051"><ele>4.2</ele><time>2026-05-01T07:35:52.999Z</time></trkpt><trkpt lat="42.47327457905153" lon="14.211575281417954"><ele>3.4</ele><time>2026-05-01T07:35:53.999Z</time></trkpt><trkpt lat="42.47320471905952" lon="14.211690895182873"><ele>2.6</ele><time>2026-05-01T07:35:54.999Z</time></trkpt><trkpt lat="42.47312922683114" lon="14.211808447148199"><ele>1.8</ele><time>2026-05-01T07:35:55.999Z</time></trkpt><trkpt lat="42.47305630356989" lon="14.211922880812994"><ele>1.0</ele><time>2026-05-01T07:35:56.999Z</time></trkpt><trkpt lat="42.4729780972681" lon="14.212039747226866"><ele>1.0</ele><time>2026-05-01T07:35:57.999Z</time></trkpt><trkpt lat="42.47295212085446" lon="14.212143597448234"><ele>1.0</ele><time>2026-05-01T07:35:58.999Z</time></trkpt><trkpt lat="42.47287288253827" lon="14.21227351479234"><ele>1.0</ele><time>2026-05-01T07:35:59.999Z</time></trkpt><trkpt lat="42.47278963610402" lon="14.212408560740641"><ele>1.0</ele><time>2026-05-01T07:36:00.999Z</time></trkpt><trkpt lat="42.47270706804049" lon="14.212543774393433"><ele>1.5</ele><time>2026-05-01T07:36:01.999Z</time></trkpt><trkpt lat="42.47261884808756" lon="14.212688520441585"><ele>2.0</ele><time>2026-05-01T07:36:02.999Z</time></trkpt><trkpt lat="42.47252868830627" lon="14.21283764525818"><ele>2.5</ele><time>2026-05-01T07:36:03.999Z</time></trkpt><trkpt lat="42.47243630765513" lon="14.21299466358639"><ele>3.0</ele><time>2026-05-01T07:36:04.999Z</time></trkpt><trkpt lat="42.47234279213368" lon="14.213152371742234"><ele>3.0</ele><time>2026-05-01T07:36:05.999Z</time></trkpt><trkpt lat="42.472255805274735" lon="14.213304595409648"><ele>3.0</ele><time>2026-05-01T07:36:06.999Z</time></trkpt><trkpt lat="42.472170287840136" lon="14.213451088570196"><ele>3.0</ele><time>2026-05-01T07:36:07.999Z</time></trkpt><trkpt lat="42.4720801007795" lon="14.213599374485424"><ele>3.0</ele><time>2026-05-01T07:36:08.999Z</time></trkpt><trkpt lat="42.47199328261009" lon="14.213754037004252"><ele>3.75</ele><time>2026-05-01T07:36:09.999Z</time></trkpt><trkpt lat="42.471903423213035" lon="14.213906599081563"><ele>4.5</ele><time>2026-05-01T07:36:10.999Z</time></trkpt><trkpt lat="42.47181783952657" lon="14.214060274451725"><ele>5.25</ele><time>2026-05-01T07:36:11.999Z</time></trkpt><trkpt lat="42.47173371675399" lon="14.214216599608305"><ele>6.0</ele><time>2026-05-01T07:36:12.999Z</time></trkpt><trkpt lat="42.47164326724724" lon="14.214371306680272"><ele>6.0</ele><time>2026-05-01T07:36:13.999Z</time></trkpt><trkpt lat="42.4715566586677" lon="14.214518928623328"><ele>6.0</ele><time>2026-05-01T07:36:14.999Z</time></trkpt><trkpt lat="42.47147421287737" lon="14.21465932960984"><ele>6.0</ele><time>2026-05-01T07:36:15.999Z</time></trkpt><trkpt lat="42.47139493912483" lon="14.21479535308811"><ele>6.0</ele><time>2026-05-01T07:36:16.999Z</time></trkpt><trkpt lat="42.47130505669619" lon="14.214927891509575"><ele>6.0</ele><time>2026-05-01T07:36:17.999Z</time></trkpt><trkpt lat="42.471206224306684" lon="14.215098464118762"><ele>6.0</ele><time>2026-05-01T07:36:18.999Z</time></trkpt><trkpt lat="42.471114143207096" lon="14.215283121302743"><ele>6.0</ele><time>2026-05-01T07:36:19.999Z</time></trkpt><trkpt lat="42.47101504972818" lon="14.215450978172086"><ele>6.0</ele><time>2026-05-01T07:36:20.999Z</time></trkpt><trkpt lat="42.47091969705213" lon="14.215605134484454"><ele>6.0</ele><time>2026-05-01T07:36:21.999Z</time></trkpt><trkpt lat="42.470830417655556" lon="14.215757934097283"><ele>6.0</ele><time>2026-05-01T07:36:22.999Z</time></trkpt><trkpt lat="42.470747875015824" lon="14.215904135568257"><ele>6.0</ele><time>2026-05-01T07:36:23.999Z</time></trkpt><trkpt lat="42.47067143732695" lon="14.216037049685106"><ele>6.5</ele><time>2026-05-01T07:36:24.999Z</time></trkpt><trkpt lat="42.470593441861126" lon="14.216163003498542"><ele>7.0</ele><time>2026-05-01T07:36:25.999Z</time></trkpt><trkpt lat="42.47052140127449" lon="14.216282710312676"><ele>7.5</ele><time>2026-05-01T07:36:26.999Z</time></trkpt><trkpt lat="42.4704497567207" lon="14.21640417146232"><ele>8.0</ele><time>2026-05-01T07:36:27.999Z</time></trkpt><trkpt lat="42.470368846628354" lon="14.216556657463292"><ele>7.0</ele><time>2026-05-01T07:36:28.999Z</time></trkpt><trkpt lat="42.4702800177461" lon="14.216721246746522"><ele>6.0</ele><time>2026-05-01T07:36:29.999Z</time></trkpt><trkpt lat="42.470187241658444" lon="14.21687428782808"><ele>5.0</ele><time>2026-05-01T07:36:30.999Z</time></trkpt><trkpt lat="42.470098114925754" lon="14.217025966119476"><ele>4.0</ele><time>2026-05-01T07:36:31.999Z</time></trkpt><trkpt lat="42.47001062525605" lon="14.21718367814652"><ele>3.6666666666666665</ele><time>2026-05-01T07:36:32.999Z</time></trkpt><trkpt lat="42.46991283187317" lon="14.217338160060576"><ele>3.333333333333333</ele><time>2026-05-01T07:36:33.999Z</time></trkpt><trkpt lat="42.46981452197186" lon="14.217500354480412"><ele>3.0</ele><time>2026-05-01T07:36:34.999Z</time></trkpt><trkpt lat="42.46971702319324" lon="14.217648192736625"><ele>3.0</ele><time>2026-05-01T07:36:35.999Z</time></trkpt><trkpt lat="42.46964056541386" lon="14.217808108430823"><ele>3.0</ele><time>2026-05-01T07:36:36.999Z</time></trkpt><trkpt lat="42.46954995467905" lon="14.217958316990522"><ele>3.0</ele><time>2026-05-01T07:36:37.999Z</time></trkpt><trkpt lat="42.46945333548749" lon="14.21812690206997"><ele>3.0</ele><time>2026-05-01T07:36:38.999Z</time></trkpt><trkpt lat="42.469357585283596" lon="14.218283859896136"><ele>3.25</ele><time>2026-05-01T07:36:39.999Z</time></trkpt><trkpt lat="42.469270088472086" lon="14.218442694393996"><ele>3.5</ele><time>2026-05-01T07:36:40.999Z</time></trkpt><trkpt lat="42.46918810932079" lon="14.218590963283946"><ele>3.75</ele><time>2026-05-01T07:36:41.999Z</time></trkpt><trkpt lat="42.469112774752446" lon="14.218720938575494"><ele>4.0</ele><time>2026-05-01T07:36:42.999Z</time></trkpt><trkpt lat="42.46904459475883" lon="14.21884045495594"><ele>4.0</ele><time>2026-05-01T07:36:43.999Z</time></trkpt><trkpt lat="42.468973110788966" lon="14.218927235105237"><ele>4.0</ele><time>2026-05-01T07:36:44.999Z</time></trkpt><trkpt lat="42.46892582675539" lon="14.219008740424977"><ele>4.0</ele><time>2026-05-01T07:36:45.999Z</time></trkpt><trkpt lat="42.46889976445802" lon="14.219087121503527"><ele>4.0</ele><time>2026-05-01T07:36:46.999Z</time></trkpt><trkpt lat="42.46882809536906" lon="14.219204289750158"><ele>4.0</ele><time>2026-05-01T07:36:48.999Z</time></trkpt><trkpt lat="42.46874413181847" lon="14.219330828149257"><ele>4.2</ele><time>2026-05-01T07:36:50.999Z</time></trkpt><trkpt lat="42.46868215171777" lon="14.21943242431813"><ele>4.4</ele><time>2026-05-01T07:36:51.999Z</time></trkpt><trkpt lat="42.46861635889491" lon="14.219558060379514"><ele>4.6</ele><time>2026-05-01T07:36:52.999Z</time></trkpt><trkpt lat="42.46854732966815" lon="14.21968123479698"><ele>4.8</ele><time>2026-05-01T07:36:53.999Z</time></trkpt><trkpt lat="42.46848308056272" lon="14.219786595489111"><ele>5.0</ele><time>2026-05-01T07:36:54.999Z</time></trkpt><trkpt lat="42.468431174797665" lon="14.219870947241674"><ele>4.666666666666667</ele><time>2026-05-01T07:36:55.999Z</time></trkpt><trkpt lat="42.46838403683201" lon="14.219954373537286"><ele>4.333333333333334</ele><time>2026-05-01T07:36:56.999Z</time></trkpt><trkpt lat="42.46833491327063" lon="14.220043233701473"><ele>4.0</ele><time>2026-05-01T07:36:57.999Z</time></trkpt><trkpt lat="42.46827547648015" lon="14.220120297915983"><ele>3.666666666666667</ele><time>2026-05-01T07:36:58.999Z</time></trkpt><trkpt lat="42.46823040962598" lon="14.220226385734257"><ele>3.3333333333333335</ele><time>2026-05-01T07:36:59.999Z</time></trkpt><trkpt lat="42.46814955795538" lon="14.220337916454984"><ele>3.0</ele><time>2026-05-01T07:37:00.999Z</time></trkpt><trkpt lat="42.468074308479416" lon="14.220501378342323"><ele>3.0</ele><time>2026-05-01T07:37:01.999Z</time></trkpt><trkpt lat="42.46798859815625" lon="14.22062687116689"><ele>3.0</ele><time>2026-05-01T07:37:02.999Z</time></trkpt><trkpt lat="42.467923673317294" lon="14.220734876794952"><ele>3.0</ele><time>2026-05-01T07:37:03.999Z</time></trkpt><trkpt lat="42.467870040851025" lon="14.220834629253844"><ele>3.0</ele><time>2026-05-01T07:37:04.999Z</time></trkpt><trkpt lat="42.467815268964536" lon="14.220932131275225"><ele>3.0</ele><time>2026-05-01T07:37:06.999Z</time></trkpt><trkpt lat="42.46774870275629" lon="14.221029438645182"><ele>2.75</ele><time>2026-05-01T07:37:14.999Z</time></trkpt><trkpt lat="42.467699439695" lon="14.221113288169105"><ele>2.5</ele><time>2026-05-01T07:37:15.999Z</time></trkpt><trkpt lat="42.46763432817647" lon="14.221224246836622"><ele>2.25</ele><time>2026-05-01T07:37:16.999Z</time></trkpt><trkpt lat="42.46756299316587" lon="14.221377368849941"><ele>2.0</ele><time>2026-05-01T07:37:17.999Z</time></trkpt><trkpt lat="42.46746385289046" lon="14.221528610559114"><ele>1.75</ele><time>2026-05-01T07:37:18.999Z</time></trkpt><trkpt lat="42.467360530047664" lon="14.221698112024418"><ele>1.5</ele><time>2026-05-01T07:37:19.999Z</time></trkpt><trkpt lat="42.46727341032083" lon="14.221847329771808"><ele>1.25</ele><time>2026-05-01T07:37:20.999Z</time></trkpt><trkpt lat="42.46718868542154" lon="14.221964594836875"><ele>1.0</ele><time>2026-05-01T07:37:21.999Z</time></trkpt><trkpt lat="42.46709980119538" lon="14.222053607358697"><ele>1.6</ele><time>2026-05-01T07:37:22.999Z</time></trkpt><trkpt lat="42.46700875999676" lon="14.222114470766225"><ele>2.2</ele><time>2026-05-01T07:37:23.999Z</time></trkpt><trkpt lat="42.466913320793715" lon="14.222139976312933"><ele>2.8000000000000003</ele><time>2026-05-01T07:37:24.999Z</time></trkpt><trkpt lat="42.466816067607546" lon="14.222139650608785"><ele>3.4000000000000004</ele><time>2026-05-01T07:37:25.999Z</time></trkpt><trkpt lat="42.46670800484234" lon="14.222098226277843"><ele>4.0</ele><time>2026-05-01T07:37:26.999Z</time></trkpt><trkpt lat="42.46657837898534" lon="14.222027544238122"><ele>4.0</ele><time>2026-05-01T07:37:27.999Z</time></trkpt><trkpt lat="42.466446872705184" lon="14.221937622785868"><ele>4.0</ele><time>2026-05-01T07:37:28.999Z</time></trkpt><trkpt lat="42.46632308061508" lon="14.22184875212834"><ele>4.0</ele><time>2026-05-01T07:37:29.999Z</time></trkpt><trkpt lat="42.466217551573955" lon="14.221771374930473"><ele>4.0</ele><time>2026-05-01T07:37:30.999Z</time></trkpt><trkpt lat="42.466127076971844" lon="14.22169849413628"><ele>3.8000000000000003</ele><time>2026-05-01T07:37:31.999Z</time></trkpt><trkpt lat="42.46604057355041" lon="14.221618481490935"><ele>3.6000000000000005</ele><time>2026-05-01T07:37:32.999Z</time></trkpt><trkpt lat="42.465972783655545" lon="14.221535525172362"><ele>3.4</ele><time>2026-05-01T07:37:33.999Z</time></trkpt><trkpt lat="42.46593309227925" lon="14.221431204727919"><ele>3.2</ele><time>2026-05-01T07:37:34.999Z</time></trkpt><trkpt lat="42.46587902821213" lon="14.221339003250915"><ele>3.0</ele><time>2026-05-01T07:37:35.999Z</time></trkpt><trkpt lat="42.46584720747566" lon="14.221212725555755"><ele>4.0</ele><time>2026-05-01T07:37:36.999Z</time></trkpt><trkpt lat="42.46580161799003" lon="14.221087087809659"><ele>5.0</ele><time>2026-05-01T07:37:37.999Z</time></trkpt><trkpt lat="42.46575391715108" lon="14.220932078759166"><ele>6.0</ele><time>2026-05-01T07:37:38.999Z</time></trkpt><trkpt lat="42.465712359839245" lon="14.220759430360262"><ele>7.0</ele><time>2026-05-01T07:37:39.999Z</time></trkpt><trkpt lat="42.46567440419378" lon="14.22059676807791"><ele>8.2</ele><time>2026-05-01T07:37:40.999Z</time></trkpt><trkpt lat="42.465643369157654" lon="14.22046898138695"><ele>9.399999999999999</ele><time>2026-05-01T07:37:41.999Z</time></trkpt><trkpt lat="42.46561050558073" lon="14.220345518536742"><ele>10.600000000000001</ele><time>2026-05-01T07:37:42.999Z</time></trkpt><trkpt lat="42.46556991462418" lon="14.220191817946471"><ele>11.8</ele><time>2026-05-01T07:37:43.999Z</time></trkpt><trkpt lat="42.465535244173985" lon="14.220043597732564"><ele>13.0</ele><time>2026-05-01T07:37:44.999Z</time></trkpt><trkpt lat="42.465511888049924" lon="14.219908811311742"><ele>11.4</ele><time>2026-05-01T07:37:45.999Z</time></trkpt><trkpt lat="42.465479007273586" lon="14.21977668043381"><ele>9.8</ele><time>2026-05-01T07:37:46.999Z</time></trkpt><trkpt lat="42.465439943907775" lon="14.219644938121785"><ele>8.2</ele><time>2026-05-01T07:37:47.999Z</time></trkpt><trkpt lat="42.46542202211097" lon="14.219508817298355"><ele>6.6</ele><time>2026-05-01T07:37:48.999Z</time></trkpt><trkpt lat="42.46537901225783" lon="14.21940080095293"><ele>5.0</ele><time>2026-05-01T07:37:49.999Z</time></trkpt><trkpt lat="42.465356362283664" lon="14.219301648576758"><ele>4.8</ele><time>2026-05-01T07:37:50.999Z</time></trkpt><trkpt lat="42.465333162208914" lon="14.219209628909269"><ele>4.6</ele><time>2026-05-01T07:37:51.999Z</time></trkpt><trkpt lat="42.46530203461108" lon="14.219050500896795"><ele>4.4</ele><time>2026-05-01T07:37:53.999Z</time></trkpt><trkpt lat="42.465268461881784" lon="14.2189329006182"><ele>4.2</ele><time>2026-05-01T07:37:55.999Z</time></trkpt><trkpt lat="42.46525056696015" lon="14.218812454584077"><ele>4.0</ele><time>2026-05-01T07:37:58.999Z</time></trkpt><trkpt lat="42.46523227560206" lon="14.21868142011389"><ele>3.833333333333333</ele><time>2026-05-01T07:38:01.999Z</time></trkpt><trkpt lat="42.46519276887122" lon="14.218591231067126"><ele>3.6666666666666665</ele><time>2026-05-01T07:38:03.999Z</time></trkpt><trkpt lat="42.465133771492454" lon="14.218546630736606"><ele>3.5</ele><time>2026-05-01T07:38:05.999Z</time></trkpt><trkpt lat="42.46505636438322" lon="14.218616020379924"><ele>3.333333333333333</ele><time>2026-05-01T07:38:06.999Z</time></trkpt><trkpt lat="42.464945615451434" lon="14.21857063263319"><ele>3.1666666666666665</ele><time>2026-05-01T07:38:08.999Z</time></trkpt><trkpt lat="42.46492519579918" lon="14.218460107053408"><ele>3.0</ele><time>2026-05-01T07:38:09.999Z</time></trkpt><trkpt lat="42.464873397352775" lon="14.218347145421724"><ele>3.0</ele><time>2026-05-01T07:38:10.999Z</time></trkpt><trkpt lat="42.46483658109708" lon="14.218197996449922"><ele>3.0</ele><time>2026-05-01T07:38:11.999Z</time></trkpt><trkpt lat="42.4647972569227" lon="14.218039716768226"><ele>3.0</ele><time>2026-05-01T07:38:12.999Z</time></trkpt><trkpt lat="42.46475684079757" lon="14.217892723503901"><ele>3.0</ele><time>2026-05-01T07:38:13.999Z</time></trkpt><trkpt lat="42.4647211953204" lon="14.217740556585428"><ele>3.2</ele><time>2026-05-01T07:38:14.999Z</time></trkpt><trkpt lat="42.464683505474056" lon="14.217593504715909"><ele>3.4</ele><time>2026-05-01T07:38:15.999Z</time></trkpt><trkpt lat="42.46464995543019" lon="14.217459370460025"><ele>3.6000000000000005</ele><time>2026-05-01T07:38:16.999Z</time></trkpt><trkpt lat="42.4646166634881" lon="14.21733283690636"><ele>3.8000000000000003</ele><time>2026-05-01T07:38:17.999Z</time></trkpt><trkpt lat="42.46458188272063" lon="14.217195707876606"><ele>4.0</ele><time>2026-05-01T07:38:18.999Z</time></trkpt><trkpt lat="42.464550900464054" lon="14.217063976725267"><ele>4.0</ele><time>2026-05-01T07:38:19.999Z</time></trkpt><trkpt lat="42.46451329649968" lon="14.216929768126587"><ele>4.0</ele><time>2026-05-01T07:38:20.999Z</time></trkpt><trkpt lat="42.46445146903541" lon="14.216790293779708"><ele>4.0</ele><time>2026-05-01T07:38:21.999Z</time></trkpt><trkpt lat="42.4643726701663" lon="14.216648337802669"><ele>4.0</ele><time>2026-05-01T07:38:22.999Z</time></trkpt><trkpt lat="42.46430142251776" lon="14.216506020973874"><ele>4.0</ele><time>2026-05-01T07:38:23.999Z</time></trkpt><trkpt lat="42.46423516974724" lon="14.216339578883455"><ele>4.0</ele><time>2026-05-01T07:38:24.999Z</time></trkpt><trkpt lat="42.46416992076062" lon="14.216139670929781"><ele>4.0</ele><time>2026-05-01T07:38:25.999Z</time></trkpt><trkpt lat="42.464111394652" lon="14.215951844562476"><ele>4.0</ele><time>2026-05-01T07:38:26.999Z</time></trkpt><trkpt lat="42.46405357625424" lon="14.215766347093918"><ele>4.0</ele><time>2026-05-01T07:38:27.999Z</time></trkpt><trkpt lat="42.4639903774162" lon="14.215589932583114"><ele>4.0</ele><time>2026-05-01T07:38:28.999Z</time></trkpt><trkpt lat="42.46392493234283" lon="14.215412797389732"><ele>4.0</ele><time>2026-05-01T07:38:29.999Z</time></trkpt><trkpt lat="42.46385748936304" lon="14.215229978564732"><ele>4.75</ele><time>2026-05-01T07:38:30.999Z</time></trkpt><trkpt lat="42.463811365738394" lon="14.215090834069795"><ele>5.5</ele><time>2026-05-01T07:38:31.999Z</time></trkpt><trkpt lat="42.463750265957" lon="14.21493369202591"><ele>6.25</ele><time>2026-05-01T07:38:32.999Z</time></trkpt><trkpt lat="42.463676378500764" lon="14.214765997682957"><ele>7.0</ele><time>2026-05-01T07:38:33.999Z</time></trkpt><trkpt lat="42.46360482669232" lon="14.214605233905978"><ele>7.5</ele><time>2026-05-01T07:38:34.999Z</time></trkpt><trkpt lat="42.46353994770049" lon="14.214453901021423"><ele>8.0</ele><time>2026-05-01T07:38:35.999Z</time></trkpt><trkpt lat="42.46347926867603" lon="14.214316147225025"><ele>8.5</ele><time>2026-05-01T07:38:36.999Z</time></trkpt><trkpt lat="42.46341947008356" lon="14.2141854646262"><ele>9.0</ele><time>2026-05-01T07:38:37.999Z</time></trkpt><trkpt lat="42.46336468005585" lon="14.214059846001247"><ele>9.75</ele><time>2026-05-01T07:38:38.999Z</time></trkpt><trkpt lat="42.46329222398092" lon="14.213942708748005"><ele>10.5</ele><time>2026-05-01T07:38:39.999Z</time></trkpt><trkpt lat="42.46323623287967" lon="14.213763132446458"><ele>11.25</ele><time>2026-05-01T07:38:40.999Z</time></trkpt><trkpt lat="42.46317591898251" lon="14.213607611061498"><ele>12.0</ele><time>2026-05-01T07:38:41.999Z</time></trkpt><trkpt lat="42.4631199948344" lon="14.21347278881881"><ele>12.0</ele><time>2026-05-01T07:38:42.999Z</time></trkpt><trkpt lat="42.463059508235375" lon="14.21333941571772"><ele>12.0</ele><time>2026-05-01T07:38:43.999Z</time></trkpt><trkpt lat="42.46301391072224" lon="14.213195591424698"><ele>12.0</ele><time>2026-05-01T07:38:44.999Z</time></trkpt><trkpt lat="42.46295792681463" lon="14.213067365316332"><ele>12.0</ele><time>2026-05-01T07:38:45.999Z</time></trkpt><trkpt lat="42.462886531120056" lon="14.212958749209681"><ele>12.0</ele><time>2026-05-01T07:38:46.999Z</time></trkpt><trkpt lat="42.46283218304715" lon="14.212836597761669"><ele>11.0</ele><time>2026-05-01T07:38:47.999Z</time></trkpt><trkpt lat="42.46277627743922" lon="14.21270662598212"><ele>10.0</ele><time>2026-05-01T07:38:48.999Z</time></trkpt><trkpt lat="42.46272143504448" lon="14.212577935149167"><ele>9.0</ele><time>2026-05-01T07:38:49.999Z</time></trkpt><trkpt lat="42.46267068522149" lon="14.212454267835687"><ele>8.0</ele><time>2026-05-01T07:38:50.999Z</time></trkpt><trkpt lat="42.46262260672025" lon="14.212337602824046"><ele>7.0</ele><time>2026-05-01T07:38:51.999Z</time></trkpt><trkpt lat="42.46257972526598" lon="14.212232091102758"><ele>6.3999999999999995</ele><time>2026-05-01T07:38:52.999Z</time></trkpt><trkpt lat="42.46253282272065" lon="14.212136337974476"><ele>5.799999999999999</ele><time>2026-05-01T07:38:53.999Z</time></trkpt><trkpt lat="42.462482568799885" lon="14.212034942720951"><ele>5.2</ele><time>2026-05-01T07:38:54.999Z</time></trkpt><trkpt lat="42.46243643847378" lon="14.211932968049666"><ele>4.6</ele><time>2026-05-01T07:38:55.999Z</time></trkpt><trkpt lat="42.46238770228577" lon="14.21182447324085"><ele>4.0</ele><time>2026-05-01T07:38:56.999Z</time></trkpt><trkpt lat="42.46234491640466" lon="14.211712982407626"><ele>4.0</ele><time>2026-05-01T07:38:57.999Z</time></trkpt><trkpt lat="42.462301112301716" lon="14.211612002209126"><ele>4.0</ele><time>2026-05-01T07:38:58.999Z</time></trkpt><trkpt lat="42.462250643432554" lon="14.211503427430708"><ele>4.0</ele><time>2026-05-01T07:38:59.999Z</time></trkpt><trkpt lat="42.46219781462153" lon="14.211388065891688"><ele>4.0</ele><time>2026-05-01T07:39:00.999Z</time></trkpt><trkpt lat="42.46214659343352" lon="14.211273121231656"><ele>4.0</ele><time>2026-05-01T07:39:01.999Z</time></trkpt><trkpt lat="42.462093864447226" lon="14.211154981461215"><ele>4.0</ele><time>2026-05-01T07:39:02.999Z</time></trkpt><trkpt lat="42.46203774080293" lon="14.211027933837169"><ele>4.0</ele><time>2026-05-01T07:39:03.999Z</time></trkpt><trkpt lat="42.461978819454266" lon="14.210889865685365"><ele>4.0</ele><time>2026-05-01T07:39:04.999Z</time></trkpt><trkpt lat="42.461920633038176" lon="14.21074894709018"><ele>4.0</ele><time>2026-05-01T07:39:05.999Z</time></trkpt><trkpt lat="42.46187195053497" lon="14.210618529023009"><ele>4.0</ele><time>2026-05-01T07:39:06.999Z</time></trkpt><trkpt lat="42.461833787199495" lon="14.210484343358646"><ele>4.0</ele><time>2026-05-01T07:39:07.999Z</time></trkpt><trkpt lat="42.46181206844248" lon="14.210338518849943"><ele>4.0</ele><time>2026-05-01T07:39:08.999Z</time></trkpt><trkpt lat="42.461793734763546" lon="14.210185328895255"><ele>4.0</ele><time>2026-05-01T07:39:09.999Z</time></trkpt><trkpt lat="42.46178760969408" lon="14.210035715681615"><ele>4.0</ele><time>2026-05-01T07:39:10.999Z</time></trkpt><trkpt lat="42.461785419193674" lon="14.2099108549365"><ele>4.2</ele><time>2026-05-01T07:39:11.999Z</time></trkpt><trkpt lat="42.46178417363961" lon="14.209786296620203"><ele>4.4</ele><time>2026-05-01T07:39:12.999Z</time></trkpt><trkpt lat="42.461784731216426" lon="14.209654930531684"><ele>4.6</ele><time>2026-05-01T07:39:13.999Z</time></trkpt><trkpt lat="42.461824185046794" lon="14.209556563630974"><ele>4.8</ele><time>2026-05-01T07:39:14.999Z</time></trkpt><trkpt lat="42.461888587872885" lon="14.20947179596676"><ele>5.0</ele><time>2026-05-01T07:39:15.999Z</time></trkpt><trkpt lat="42.4619368332485" lon="14.20937050469283"><ele>5.0</ele><time>2026-05-01T07:39:16.999Z</time></trkpt><trkpt lat="42.46198878823129" lon="14.20927932046683"><ele>5.0</ele><time>2026-05-01T07:39:17.999Z</time></trkpt><trkpt lat="42.462029937409476" lon="14.209169768593004"><ele>5.0</ele><time>2026-05-01T07:39:18.999Z</time></trkpt><trkpt lat="42.46205555611243" lon="14.209062966745861"><ele>5.0</ele><time>2026-05-01T07:39:19.999Z</time></trkpt><trkpt lat="42.46207450251502" lon="14.208966946944333"><ele>5.0</ele><time>2026-05-01T07:39:20.999Z</time></trkpt><trkpt lat="42.46211081952912" lon="14.208809455889286"><ele>4.6</ele><time>2026-05-01T07:39:22.999Z</time></trkpt><trkpt lat="42.46217033047991" lon="14.208676236231488"><ele>4.2</ele><time>2026-05-01T07:39:24.999Z</time></trkpt><trkpt lat="42.46225530563469" lon="14.20855249077481"><ele>3.8</ele><time>2026-05-01T07:39:26.999Z</time></trkpt><trkpt lat="42.462302986705" lon="14.208399021614158"><ele>3.4</ele><time>2026-05-01T07:39:28.999Z</time></trkpt><trkpt lat="42.462305387603706" lon="14.208307420413542"><ele>3.0</ele><time>2026-05-01T07:39:29.999Z</time></trkpt><trkpt lat="42.462222871755785" lon="14.208204318592895"><ele>2.75</ele><time>2026-05-01T07:39:31.999Z</time></trkpt><trkpt lat="42.46220841696734" lon="14.208097965606"><ele>2.5</ele><time>2026-05-01T07:39:32.999Z</time></trkpt><trkpt lat="42.46205290053748" lon="14.208192553358373"><ele>2.25</ele><time>2026-05-01T07:39:33.999Z</time></trkpt><trkpt lat="42.461973581292014" lon="14.208250143443822"><ele>2.0</ele><time>2026-05-01T07:39:34.999Z</time></trkpt><trkpt lat="42.46185878041901" lon="14.208187333007533"><ele>2.5</ele><time>2026-05-01T07:39:35.999Z</time></trkpt><trkpt lat="42.46176535765167" lon="14.208155080289432"><ele>3.0</ele><time>2026-05-01T07:39:36.999Z</time></trkpt><trkpt lat="42.46167837594556" lon="14.208124640047961"><ele>3.5</ele><time>2026-05-01T07:39:37.999Z</time></trkpt><trkpt lat="42.461583659343965" lon="14.208116851367963"><ele>4.0</ele><time>2026-05-01T07:39:38.999Z</time></trkpt><trkpt lat="42.46150728966515" lon="14.208069975251801"><ele>4.5</ele><time>2026-05-01T07:39:39.999Z</time></trkpt><trkpt lat="42.46143237239496" lon="14.208056330313795"><ele>5.0</ele><time>2026-05-01T07:39:40.999Z</time></trkpt><trkpt lat="42.46131651228995" lon="14.208021438849851"><ele>5.2</ele><time>2026-05-01T07:39:42.999Z</time></trkpt><trkpt lat="42.461215000093254" lon="14.207992229274906"><ele>5.4</ele><time>2026-05-01T07:39:44.999Z</time></trkpt><trkpt lat="42.46113506373007" lon="14.207956242807196"><ele>5.6</ele><time>2026-05-01T07:39:46.999Z</time></trkpt><trkpt lat="42.461058201139295" lon="14.207854023298578"><ele>5.8</ele><time>2026-05-01T07:39:48.999Z</time></trkpt><trkpt lat="42.46095511934894" lon="14.207767130009392"><ele>6.0</ele><time>2026-05-01T07:39:50.999Z</time></trkpt><trkpt lat="42.46088153249018" lon="14.207769401999618"><ele>6.0</ele><time>2026-05-01T07:39:51.999Z</time></trkpt><trkpt lat="42.4608219633087" lon="14.207817179780076"><ele>6.0</ele><time>2026-05-01T07:39:52.999Z</time></trkpt><trkpt lat="42.46078230639614" lon="14.207894088702217"><ele>6.0</ele><time>2026-05-01T07:39:53.999Z</time></trkpt><trkpt lat="42.46076719977669" lon="14.207984187248874"><ele>6.0</ele><time>2026-05-01T07:39:54.999Z</time></trkpt><trkpt lat="42.46080256390212" lon="14.20813686289491"><ele>6.0</ele><time>2026-05-01T07:39:56.999Z</time></trkpt><trkpt lat="42.46081217370402" lon="14.208301488013818"><ele>6.0</ele><time>2026-05-01T07:39:58.999Z</time></trkpt><trkpt lat="42.46079085995424" lon="14.208431283875028"><ele>6.0</ele><time>2026-05-01T07:40:00.999Z</time></trkpt><trkpt lat="42.46076871668513" lon="14.208522558188614"><ele>6.0</ele><time>2026-05-01T07:40:02.999Z</time></trkpt><trkpt lat="42.46073163401469" lon="14.208594871553762"><ele>6.0</ele><time>2026-05-01T07:40:04.999Z</time></trkpt><trkpt lat="42.460668747077726" lon="14.208687154350836"><ele>6.0</ele><time>2026-05-01T07:40:06.999Z</time></trkpt><trkpt lat="42.46061679165195" lon="14.208738821055022"><ele>6.0</ele><time>2026-05-01T07:40:08.999Z</time></trkpt><trkpt lat="42.460525343402225" lon="14.208775739948974"><ele>6.0</ele><time>2026-05-01T07:40:10.999Z</time></trkpt><trkpt lat="42.460448352196885" lon="14.208804406028609"><ele>5.6</ele><time>2026-05-01T07:40:11.999Z</time></trkpt><trkpt lat="42.460359043513165" lon="14.208856364020175"><ele>5.199999999999999</ele><time>2026-05-01T07:40:12.999Z</time></trkpt><trkpt lat="42.46026497645858" lon="14.20891583751464"><ele>4.800000000000001</ele><time>2026-05-01T07:40:13.999Z</time></trkpt><trkpt lat="42.46017285747327" lon="14.208974676515707"><ele>4.4</ele><time>2026-05-01T07:40:14.999Z</time></trkpt><trkpt lat="42.46008626439574" lon="14.20903085521234"><ele>4.0</ele><time>2026-05-01T07:40:15.999Z</time></trkpt><trkpt lat="42.4600115240501" lon="14.209084609341259"><ele>3.833333333333333</ele><time>2026-05-01T07:40:16.999Z</time></trkpt><trkpt lat="42.45993314490771" lon="14.209132089842543"><ele>3.6666666666666665</ele><time>2026-05-01T07:40:17.999Z</time></trkpt><trkpt lat="42.45984790446126" lon="14.209181616033328"><ele>3.5</ele><time>2026-05-01T07:40:18.999Z</time></trkpt><trkpt lat="42.45978091868217" lon="14.209237125993651"><ele>3.333333333333333</ele><time>2026-05-01T07:40:19.999Z</time></trkpt><trkpt lat="42.459723307898415" lon="14.20927959198282"><ele>3.1666666666666665</ele><time>2026-05-01T07:40:20.999Z</time></trkpt><trkpt lat="42.45966821644592" lon="14.209324569436884"><ele>3.0</ele><time>2026-05-01T07:40:21.999Z</time></trkpt><trkpt lat="42.459592264068654" lon="14.209379854111647"><ele>3.4</ele><time>2026-05-01T07:40:22.999Z</time></trkpt><trkpt lat="42.45949167101626" lon="14.20943704486879"><ele>3.8</ele><time>2026-05-01T07:40:23.999Z</time></trkpt><trkpt lat="42.45937810300021" lon="14.20949016125713"><ele>4.2</ele><time>2026-05-01T07:40:24.999Z</time></trkpt><trkpt lat="42.45928594107877" lon="14.209559617284386"><ele>4.6</ele><time>2026-05-01T07:40:25.999Z</time></trkpt><trkpt lat="42.45920049904854" lon="14.20962544893128"><ele>5.0</ele><time>2026-05-01T07:40:26.999Z</time></trkpt><trkpt lat="42.45912416162203" lon="14.20967246664706"><ele>5.0</ele><time>2026-05-01T07:40:27.999Z</time></trkpt><trkpt lat="42.45904429650006" lon="14.209726409674762"><ele>5.0</ele><time>2026-05-01T07:40:28.999Z</time></trkpt><trkpt lat="42.45896116539495" lon="14.209768752391728"><ele>5.0</ele><time>2026-05-01T07:40:29.999Z</time></trkpt><trkpt lat="42.45888751063423" lon="14.209815863659417"><ele>5.0</ele><time>2026-05-01T07:40:30.999Z</time></trkpt><trkpt lat="42.45881997042676" lon="14.209871382596594"><ele>5.0</ele><time>2026-05-01T07:40:31.999Z</time></trkpt><trkpt lat="42.45874797483428" lon="14.209916558668132"><ele>5.0</ele><time>2026-05-01T07:40:32.999Z</time></trkpt><trkpt lat="42.45867949687472" lon="14.209969204530763"><ele>5.166666666666667</ele><time>2026-05-01T07:40:33.999Z</time></trkpt><trkpt lat="42.45860629789424" lon="14.210025475776133"><ele>5.333333333333334</ele><time>2026-05-01T07:40:34.999Z</time></trkpt><trkpt lat="42.45854160208936" lon="14.210070397169227"><ele>5.5</ele><time>2026-05-01T07:40:35.999Z</time></trkpt><trkpt lat="42.458483467663044" lon="14.21011090209537"><ele>5.666666666666667</ele><time>2026-05-01T07:40:36.999Z</time></trkpt><trkpt lat="42.45840109016265" lon="14.210174474963434"><ele>5.833333333333333</ele><time>2026-05-01T07:40:38.999Z</time></trkpt><trkpt lat="42.45835537534023" lon="14.210234491737433"><ele>6.0</ele><time>2026-05-01T07:40:40.999Z</time></trkpt><trkpt lat="42.458291685005484" lon="14.210370541436907"><ele>6.0</ele><time>2026-05-01T07:40:43.999Z</time></trkpt><trkpt lat="42.458292108169346" lon="14.210518094904037"><ele>6.0</ele><time>2026-05-01T07:40:45.999Z</time></trkpt><trkpt lat="42.458324344069666" lon="14.210596370285833"><ele>6.0</ele><time>2026-05-01T07:40:46.999Z</time></trkpt><trkpt lat="42.45838591073638" lon="14.21067445163442"><ele>6.0</ele><time>2026-05-01T07:40:47.999Z</time></trkpt><trkpt lat="42.45844926745409" lon="14.210747160000432"><ele>6.0</ele><time>2026-05-01T07:40:48.999Z</time></trkpt><trkpt lat="42.458498510622555" lon="14.210812545212786"><ele>6.0</ele><time>2026-05-01T07:40:49.999Z</time></trkpt><trkpt lat="42.458542642077745" lon="14.210884180562108"><ele>6.25</ele><time>2026-05-01T07:40:50.999Z</time></trkpt><trkpt lat="42.45860282881622" lon="14.210993598107724"><ele>6.5</ele><time>2026-05-01T07:40:52.999Z</time></trkpt><trkpt lat="42.45848730107948" lon="14.211122516366471"><ele>6.75</ele><time>2026-05-01T07:40:54.999Z</time></trkpt><trkpt lat="42.45839898205566" lon="14.211176940083318"><ele>7.0</ele><time>2026-05-01T07:40:55.999Z</time></trkpt><trkpt lat="42.4582831489302" lon="14.211245878407949"><ele>7.0</ele><time>2026-05-01T07:40:56.999Z</time></trkpt><trkpt lat="42.45815497400508" lon="14.211325054766473"><ele>7.0</ele><time>2026-05-01T07:40:57.999Z</time></trkpt><trkpt lat="42.45802518075165" lon="14.211426659355693"><ele>7.0</ele><time>2026-05-01T07:40:58.999Z</time></trkpt><trkpt lat="42.45787589166354" lon="14.211500973870722"><ele>6.0</ele><time>2026-05-01T07:40:59.999Z</time></trkpt><trkpt lat="42.45772485822824" lon="14.211599236628167"><ele>5.0</ele><time>2026-05-01T07:41:00.999Z</time></trkpt><trkpt lat="42.45757085465741" lon="14.211696776886214"><ele>4.0</ele><time>2026-05-01T07:41:01.999Z</time></trkpt><trkpt lat="42.45742709105024" lon="14.211792599366538"><ele>4.0</ele><time>2026-05-01T07:41:02.999Z</time></trkpt><trkpt lat="42.45728242369759" lon="14.211884485499711"><ele>4.0</ele><time>2026-05-01T07:41:03.999Z</time></trkpt><trkpt lat="42.457138666837906" lon="14.211968200777495"><ele>4.0</ele><time>2026-05-01T07:41:04.999Z</time></trkpt><trkpt lat="42.456995953657255" lon="14.212042935879781"><ele>3.333333333333333</ele><time>2026-05-01T07:41:05.999Z</time></trkpt><trkpt lat="42.45685170408357" lon="14.212120670077528"><ele>2.6666666666666665</ele><time>2026-05-01T07:41:06.999Z</time></trkpt><trkpt lat="42.45670485858817" lon="14.212196391181976"><ele>2.0</ele><time>2026-05-01T07:41:07.999Z</time></trkpt><trkpt lat="42.45657591343424" lon="14.212264967857458"><ele>2.25</ele><time>2026-05-01T07:41:08.999Z</time></trkpt><trkpt lat="42.45645022159334" lon="14.212337877989304"><ele>2.5</ele><time>2026-05-01T07:41:09.999Z</time></trkpt><trkpt lat="42.456312804892534" lon="14.212381856587248"><ele>2.75</ele><time>2026-05-01T07:41:10.999Z</time></trkpt><trkpt lat="42.456190614115314" lon="14.212456510242722"><ele>3.0</ele><time>2026-05-01T07:41:11.999Z</time></trkpt><trkpt lat="42.45606888961961" lon="14.212499706974087"><ele>3.0</ele><time>2026-05-01T07:41:12.999Z</time></trkpt><trkpt lat="42.455955310291976" lon="14.212535431615768"><ele>3.0</ele><time>2026-05-01T07:41:13.999Z</time></trkpt><trkpt lat="42.45584430019375" lon="14.212560117594004"><ele>3.0</ele><time>2026-05-01T07:41:14.999Z</time></trkpt><trkpt lat="42.455736938092905" lon="14.212572725573997"><ele>3.0</ele><time>2026-05-01T07:41:15.999Z</time></trkpt><trkpt lat="42.45563503537304" lon="14.212578880994037"><ele>3.0</ele><time>2026-05-01T07:41:16.999Z</time></trkpt><trkpt lat="42.45554134245965" lon="14.212579404064973"><ele>3.0</ele><time>2026-05-01T07:41:17.999Z</time></trkpt><trkpt lat="42.45545002293766" lon="14.212583698247192"><ele>3.0</ele><time>2026-05-01T07:41:18.999Z</time></trkpt><trkpt lat="42.455350369945236" lon="14.212598085506432"><ele>3.0</ele><time>2026-05-01T07:41:19.999Z</time></trkpt><trkpt lat="42.455242097887655" lon="14.212595993028051"><ele>3.0</ele><time>2026-05-01T07:41:20.999Z</time></trkpt><trkpt lat="42.45512843706796" lon="14.212602044837217"><ele>3.0</ele><time>2026-05-01T07:41:21.999Z</time></trkpt><trkpt lat="42.45501096941469" lon="14.212607727903453"><ele>3.0</ele><time>2026-05-01T07:41:22.999Z</time></trkpt><trkpt lat="42.454911759592406" lon="14.212613735209311"><ele>3.0</ele><time>2026-05-01T07:41:23.999Z</time></trkpt><trkpt lat="42.454818181104415" lon="14.212625783832031"><ele>3.0</ele><time>2026-05-01T07:41:24.999Z</time></trkpt><trkpt lat="42.45473949870887" lon="14.212625631085912"><ele>3.0</ele><time>2026-05-01T07:41:25.999Z</time></trkpt><trkpt lat="42.45467784926689" lon="14.212664794266583"><ele>3.0</ele><time>2026-05-01T07:41:26.999Z</time></trkpt><trkpt lat="42.45462895675418" lon="14.212745971773384"><ele>3.0</ele><time>2026-05-01T07:41:27.999Z</time></trkpt><trkpt lat="42.45463404787972" lon="14.212888012325793"><ele>3.0</ele><time>2026-05-01T07:41:28.999Z</time></trkpt><trkpt lat="42.454625987213184" lon="14.213007507279384"><ele>3.0</ele><time>2026-05-01T07:41:29.999Z</time></trkpt><trkpt lat="42.45460595427558" lon="14.213112510459442"><ele>3.0</ele><time>2026-05-01T07:41:30.999Z</time></trkpt><trkpt lat="42.45456298056899" lon="14.21320350013029"><ele>3.0</ele><time>2026-05-01T07:41:31.999Z</time></trkpt><trkpt lat="42.45447282914673" lon="14.213230330587637"><ele>3.0</ele><time>2026-05-01T07:41:32.999Z</time></trkpt><trkpt lat="42.454366531894806" lon="14.213276829482474"><ele>3.0</ele><time>2026-05-01T07:41:33.999Z</time></trkpt><trkpt lat="42.454254905532814" lon="14.21334230143589"><ele>3.0</ele><time>2026-05-01T07:41:34.999Z</time></trkpt><trkpt lat="42.45414253174504" lon="14.213396892804848"><ele>3.0</ele><time>2026-05-01T07:41:35.999Z</time></trkpt><trkpt lat="42.45403572076562" lon="14.213451286611887"><ele>3.0</ele><time>2026-05-01T07:41:36.999Z</time></trkpt><trkpt lat="42.453927123224666" lon="14.213500167267059"><ele>3.0</ele><time>2026-05-01T07:41:37.999Z</time></trkpt><trkpt lat="42.4538211951804" lon="14.213554312462426"><ele>3.0</ele><time>2026-05-01T07:41:38.999Z</time></trkpt><trkpt lat="42.45371551194059" lon="14.21360945756777"><ele>3.0</ele><time>2026-05-01T07:41:39.999Z</time></trkpt><trkpt lat="42.4536119390442" lon="14.213653680432838"><ele>3.0</ele><time>2026-05-01T07:41:40.999Z</time></trkpt><trkpt lat="42.45351226783663" lon="14.213706582899865"><ele>3.0</ele><time>2026-05-01T07:41:41.999Z</time></trkpt><trkpt lat="42.4534103916274" lon="14.213750063484726"><ele>2.8</ele><time>2026-05-01T07:41:42.998Z</time></trkpt><trkpt lat="42.45331415269947" lon="14.213794270016905"><ele>2.5999999999999996</ele><time>2026-05-01T07:41:43.998Z</time></trkpt><trkpt lat="42.45322133912357" lon="14.213838640970955"><ele>2.4000000000000004</ele><time>2026-05-01T07:41:44.998Z</time></trkpt><trkpt lat="42.45312942399382" lon="14.213883352298273"><ele>2.2</ele><time>2026-05-01T07:41:45.998Z</time></trkpt><trkpt lat="42.45303607141097" lon="14.213928764206523"><ele>2.0</ele><time>2026-05-01T07:41:46.998Z</time></trkpt><trkpt lat="42.452937567968824" lon="14.213975807505612"><ele>1.6</ele><time>2026-05-01T07:41:47.998Z</time></trkpt><trkpt lat="42.45283529793656" lon="14.21402595007882"><ele>1.2000000000000002</ele><time>2026-05-01T07:41:48.998Z</time></trkpt><trkpt lat="42.452733759704145" lon="14.214071740802805"><ele>0.8</ele><time>2026-05-01T07:41:49.998Z</time></trkpt><trkpt lat="42.452634814423135" lon="14.214114619999052"><ele>0.4</ele><time>2026-05-01T07:41:50.998Z</time></trkpt><trkpt lat="42.45253514747648" lon="14.214162170517769"><ele>0.0</ele><time>2026-05-01T07:41:51.998Z</time></trkpt><trkpt lat="42.4524376977627" lon="14.214212337198948"><ele>0.0</ele><time>2026-05-01T07:41:52.998Z</time></trkpt><trkpt lat="42.45234000664801" lon="14.214259002022052"><ele>0.0</ele><time>2026-05-01T07:41:53.998Z</time></trkpt><trkpt lat="42.45224957529973" lon="14.21430070033659"><ele>0.0</ele><time>2026-05-01T07:41:54.998Z</time></trkpt><trkpt lat="42.452148536262634" lon="14.214353829589438"><ele>0.0</ele><time>2026-05-01T07:41:55.998Z</time></trkpt><trkpt lat="42.452050996457125" lon="14.21441998984422"><ele>0.0</ele><time>2026-05-01T07:41:56.998Z</time></trkpt><trkpt lat="42.45195303055832" lon="14.214502588992797"><ele>0.2</ele><time>2026-05-01T07:41:57.998Z</time></trkpt><trkpt lat="42.45186461075608" lon="14.21459555407631"><ele>0.4</ele><time>2026-05-01T07:41:58.999Z</time></trkpt><trkpt lat="42.45178456742795" lon="14.214703371843026"><ele>0.6000000000000001</ele><time>2026-05-01T07:41:59.999Z</time></trkpt><trkpt lat="42.451716221605984" lon="14.214820094128399"><ele>0.8</ele><time>2026-05-01T07:42:00.999Z</time></trkpt><trkpt lat="42.4516547389854" lon="14.214940686263464"><ele>1.0</ele><time>2026-05-01T07:42:01.999Z</time></trkpt><trkpt lat="42.45159883281303" lon="14.215052521544786"><ele>1.0</ele><time>2026-05-01T07:42:02.999Z</time></trkpt><trkpt lat="42.451539158739315" lon="14.2151591128778"><ele>1.0</ele><time>2026-05-01T07:42:03.999Z</time></trkpt><trkpt lat="42.451479925173864" lon="14.215267312650672"><ele>1.0</ele><time>2026-05-01T07:42:04.999Z</time></trkpt><trkpt lat="42.45142425835641" lon="14.215371267495492"><ele>1.0</ele><time>2026-05-01T07:42:05.999Z</time></trkpt><trkpt lat="42.45136744383511" lon="14.21548047872155"><ele>1.0</ele><time>2026-05-01T07:42:06.999Z</time></trkpt><trkpt lat="42.451320621621576" lon="14.215574447872216"><ele>1.2857142857142856</ele><time>2026-05-01T07:42:07.999Z</time></trkpt><trkpt lat="42.451270852170786" lon="14.215666946734032"><ele>1.5714285714285712</ele><time>2026-05-01T07:42:08.999Z</time></trkpt><trkpt lat="42.45122796105877" lon="14.21574519995019"><ele>1.857142857142857</ele><time>2026-05-01T07:42:09.999Z</time></trkpt><trkpt lat="42.45118838880745" lon="14.215822003244934"><ele>2.142857142857143</ele><time>2026-05-01T07:42:10.999Z</time></trkpt><trkpt lat="42.45114951827817" lon="14.215895114708013"><ele>2.4285714285714284</ele><time>2026-05-01T07:42:11.999Z</time></trkpt><trkpt lat="42.45111034961726" lon="14.21597130603367"><ele>2.714285714285714</ele><time>2026-05-01T07:42:12.999Z</time></trkpt><trkpt lat="42.45106932059047" lon="14.216046521654356"><ele>3.0</ele><time>2026-05-01T07:42:13.999Z</time></trkpt><trkpt lat="42.45102511946898" lon="14.216137741181523"><ele>3.0</ele><time>2026-05-01T07:42:14.999Z</time></trkpt><trkpt lat="42.450977966354415" lon="14.21623571793712"><ele>3.0</ele><time>2026-05-01T07:42:15.999Z</time></trkpt><trkpt lat="42.45092747841843" lon="14.21633448612614"><ele>3.0</ele><time>2026-05-01T07:42:16.999Z</time></trkpt><trkpt lat="42.45087273886583" lon="14.216421152055249"><ele>3.0</ele><time>2026-05-01T07:42:17.999Z</time></trkpt><trkpt lat="42.450821110589786" lon="14.21651746861555"><ele>3.0</ele><time>2026-05-01T07:42:18.999Z</time></trkpt><trkpt lat="42.45077498559565" lon="14.2165987024322"><ele>3.0</ele><time>2026-05-01T07:42:19.999Z</time></trkpt><trkpt lat="42.45070001787331" lon="14.216717858005039"><ele>3.2</ele><time>2026-05-01T07:42:21.999Z</time></trkpt><trkpt lat="42.45064492385021" lon="14.216818213640174"><ele>3.4</ele><time>2026-05-01T07:42:23.999Z</time></trkpt><trkpt lat="42.450604279891664" lon="14.216884788951214"><ele>3.6000000000000005</ele><time>2026-05-01T07:42:25.999Z</time></trkpt><trkpt lat="42.45054723960438" lon="14.216967715058624"><ele>3.8000000000000003</ele><time>2026-05-01T07:42:28.999Z</time></trkpt><trkpt lat="42.45039878359614" lon="14.21680519467651"><ele>4.0</ele><time>2026-05-01T07:42:31.999Z</time></trkpt><trkpt lat="42.45034081449123" lon="14.216720361244137"><ele>3.9999999999999996</ele><time>2026-05-01T07:42:32.999Z</time></trkpt><trkpt lat="42.450278260502685" lon="14.21662881815244"><ele>4.0</ele><time>2026-05-01T07:42:33.999Z</time></trkpt><trkpt lat="42.450221875693394" lon="14.216546302724772"><ele>4.0</ele><time>2026-05-01T07:42:34.999Z</time></trkpt><trkpt lat="42.450166106435844" lon="14.21646415535639"><ele>4.0</ele><time>2026-05-01T07:42:35.999Z</time></trkpt><trkpt lat="42.45011221921465" lon="14.2163849328264"><ele>3.9999999999999996</ele><time>2026-05-01T07:42:36.999Z</time></trkpt><trkpt lat="42.45006416543836" lon="14.216314284974795"><ele>4.0</ele><time>2026-05-01T07:42:37.999Z</time></trkpt><trkpt lat="42.450014769633604" lon="14.21624269581985"><ele>4.0</ele><time>2026-05-01T07:42:38.999Z</time></trkpt><trkpt lat="42.449958933878094" lon="14.216160406665507"><ele>3.9999999999999996</ele><time>2026-05-01T07:42:39.999Z</time></trkpt><trkpt lat="42.44990136545382" lon="14.216075563942354"><ele>4.0</ele><time>2026-05-01T07:42:40.999Z</time></trkpt><trkpt lat="42.449852057751144" lon="14.21600289784122"><ele>4.0</ele><time>2026-05-01T07:42:41.999Z</time></trkpt><trkpt lat="42.4498059950681" lon="14.215935084944503"><ele>3.9999999999999996</ele><time>2026-05-01T07:42:42.999Z</time></trkpt><trkpt lat="42.44975736221807" lon="14.215863470423441"><ele>4.0</ele><time>2026-05-01T07:42:43.999Z</time></trkpt><trkpt lat="42.44971409945002" lon="14.21579976408461"><ele>4.0</ele><time>2026-05-01T07:42:44.999Z</time></trkpt><trkpt lat="42.44965258977951" lon="14.215732301612167"><ele>3.9999999999999996</ele><time>2026-05-01T07:42:46.999Z</time></trkpt><trkpt lat="42.4495891785469" lon="14.21567289768457"><ele>4.0</ele><time>2026-05-01T07:42:49.999Z</time></trkpt><trkpt lat="42.449543964481904" lon="14.215567466859422"><ele>4.0</ele><time>2026-05-01T07:42:52.999Z</time></trkpt><trkpt lat="42.44949722722018" lon="14.215453469985041"><ele>4.0</ele><time>2026-05-01T07:42:54.999Z</time></trkpt><trkpt lat="42.449449709366505" lon="14.215375837781457"><ele>3.9999999999999996</ele><time>2026-05-01T07:42:56.999Z</time></trkpt><trkpt lat="42.44937330832079" lon="14.215467238198606"><ele>4.0</ele><time>2026-05-01T07:42:57.999Z</time></trkpt><trkpt lat="42.449301231118795" lon="14.21550298910696"><ele>4.0</ele><time>2026-05-01T07:42:58.999Z</time></trkpt><trkpt lat="42.44925296883194" lon="14.215628177876606"><ele>4.0</ele><time>2026-05-01T07:42:59.999Z</time></trkpt><trkpt lat="42.449162124046445" lon="14.215658008156206"><ele>4.0</ele><time>2026-05-01T07:43:00.999Z</time></trkpt><trkpt lat="42.44907041906935" lon="14.215711415902774"><ele>4.0</ele><time>2026-05-01T07:43:01.999Z</time></trkpt><trkpt lat="42.44898463345662" lon="14.215761376260563"><ele>4.0</ele><time>2026-05-01T07:43:02.999Z</time></trkpt><trkpt lat="42.44890085884477" lon="14.215810594041539"><ele>4.0</ele><time>2026-05-01T07:43:03.999Z</time></trkpt><trkpt lat="42.44881222705522" lon="14.215862672842736"><ele>4.0</ele><time>2026-05-01T07:43:04.999Z</time></trkpt><trkpt lat="42.44871933869795" lon="14.215917252762367"><ele>4.0</ele><time>2026-05-01T07:43:05.999Z</time></trkpt><trkpt lat="42.448614881962506" lon="14.215978654037329"><ele>4.0</ele><time>2026-05-01T07:43:06.999Z</time></trkpt><trkpt lat="42.44851488370247" lon="14.216037442134311"><ele>4.0</ele><time>2026-05-01T07:43:07.999Z</time></trkpt><trkpt lat="42.44841444625515" lon="14.216096260017874"><ele>4.6</ele><time>2026-05-01T07:43:08.999Z</time></trkpt><trkpt lat="42.44832235853037" lon="14.216149862769576"><ele>5.2</ele><time>2026-05-01T07:43:09.999Z</time></trkpt><trkpt lat="42.4482282078888" lon="14.216204666367537"><ele>5.799999999999999</ele><time>2026-05-01T07:43:10.999Z</time></trkpt><trkpt lat="42.44812977257323" lon="14.216262865532164"><ele>6.3999999999999995</ele><time>2026-05-01T07:43:11.999Z</time></trkpt><trkpt lat="42.448028117137085" lon="14.216323641171462"><ele>7.0</ele><time>2026-05-01T07:43:12.999Z</time></trkpt><trkpt lat="42.44792360302759" lon="14.216386349828051"><ele>7.0</ele><time>2026-05-01T07:43:13.999Z</time></trkpt><trkpt lat="42.44781328250119" lon="14.216450563935227"><ele>7.0</ele><time>2026-05-01T07:43:14.999Z</time></trkpt><trkpt lat="42.44768655839664" lon="14.216523242565696"><ele>7.0</ele><time>2026-05-01T07:43:15.999Z</time></trkpt><trkpt lat="42.44756394499129" lon="14.216592983424022"><ele>7.0</ele><time>2026-05-01T07:43:16.999Z</time></trkpt><trkpt lat="42.447461227201245" lon="14.21665318866861"><ele>7.0</ele><time>2026-05-01T07:43:17.999Z</time></trkpt><trkpt lat="42.44736093857134" lon="14.216712174421746"><ele>6.999999999999999</ele><time>2026-05-01T07:43:18.999Z</time></trkpt><trkpt lat="42.44726397854525" lon="14.21676920240971"><ele>6.999999999999999</ele><time>2026-05-01T07:43:19.999Z</time></trkpt><trkpt lat="42.44717146376124" lon="14.216823615886518"><ele>7.0</ele><time>2026-05-01T07:43:20.999Z</time></trkpt><trkpt lat="42.44708393552205" lon="14.21689590226779"><ele>7.0</ele><time>2026-05-01T07:43:21.999Z</time></trkpt><trkpt lat="42.44699301305192" lon="14.216946626058974"><ele>7.199999999999999</ele><time>2026-05-01T07:43:22.999Z</time></trkpt><trkpt lat="42.44689012819444" lon="14.217007974539387"><ele>7.3999999999999995</ele><time>2026-05-01T07:43:23.999Z</time></trkpt><trkpt lat="42.446781699873256" lon="14.21707727943106"><ele>7.6000000000000005</ele><time>2026-05-01T07:43:24.999Z</time></trkpt><trkpt lat="42.4466782094302" lon="14.217109676833356"><ele>7.800000000000001</ele><time>2026-05-01T07:43:25.999Z</time></trkpt><trkpt lat="42.446578243468984" lon="14.21715103142062"><ele>8.0</ele><time>2026-05-01T07:43:26.999Z</time></trkpt><trkpt lat="42.44649458988695" lon="14.217203370569909"><ele>8.0</ele><time>2026-05-01T07:43:27.999Z</time></trkpt><trkpt lat="42.44642678624229" lon="14.217243734939997"><ele>8.0</ele><time>2026-05-01T07:43:28.999Z</time></trkpt><trkpt lat="42.44636449084016" lon="14.217295705238874"><ele>8.0</ele><time>2026-05-01T07:43:29.999Z</time></trkpt><trkpt lat="42.44630130279623" lon="14.217330893054012"><ele>8.0</ele><time>2026-05-01T07:43:30.999Z</time></trkpt><trkpt lat="42.446219214347096" lon="14.217402770739012"><ele>8.0</ele><time>2026-05-01T07:43:32.999Z</time></trkpt><trkpt lat="42.44611122117032" lon="14.217231160367932"><ele>7.2</ele><time>2026-05-01T07:43:35.999Z</time></trkpt><trkpt lat="42.44606144470654" lon="14.217154494325287"><ele>6.4</ele><time>2026-05-01T07:43:36.999Z</time></trkpt><trkpt lat="42.44598747509523" lon="14.217077902324412"><ele>5.6000000000000005</ele><time>2026-05-01T07:43:37.999Z</time></trkpt><trkpt lat="42.445908162964066" lon="14.216965864489168"><ele>4.800000000000001</ele><time>2026-05-01T07:43:38.999Z</time></trkpt><trkpt lat="42.44581377319327" lon="14.216872792824194"><ele>4.0</ele><time>2026-05-01T07:43:39.999Z</time></trkpt><trkpt lat="42.44571592082408" lon="14.216802342891315"><ele>4.0</ele><time>2026-05-01T07:43:40.999Z</time></trkpt><trkpt lat="42.44563090317594" lon="14.216717634243064"><ele>4.0</ele><time>2026-05-01T07:43:41.999Z</time></trkpt><trkpt lat="42.445544458202306" lon="14.21663510367267"><ele>4.0</ele><time>2026-05-01T07:43:42.999Z</time></trkpt><trkpt lat="42.44546066725975" lon="14.216558719241618"><ele>4.0</ele><time>2026-05-01T07:43:43.999Z</time></trkpt><trkpt lat="42.44537999928774" lon="14.216482408301173"><ele>4.0</ele><time>2026-05-01T07:43:44.999Z</time></trkpt><trkpt lat="42.44530062224685" lon="14.216404291976062"><ele>4.800000000000001</ele><time>2026-05-01T07:43:45.999Z</time></trkpt><trkpt lat="42.44521145976322" lon="14.216317803169268"><ele>5.6000000000000005</ele><time>2026-05-01T07:43:46.999Z</time></trkpt><trkpt lat="42.44512193502924" lon="14.216231632169954"><ele>6.4</ele><time>2026-05-01T07:43:47.999Z</time></trkpt><trkpt lat="42.44503301704261" lon="14.216150021690396"><ele>7.2</ele><time>2026-05-01T07:43:48.999Z</time></trkpt><trkpt lat="42.444947148607895" lon="14.216069530314082"><ele>8.0</ele><time>2026-05-01T07:43:49.999Z</time></trkpt><trkpt lat="42.444860878733635" lon="14.215986808028541"><ele>8.0</ele><time>2026-05-01T07:43:50.999Z</time></trkpt><trkpt lat="42.4447839199882" lon="14.215906966576787"><ele>8.0</ele><time>2026-05-01T07:43:51.999Z</time></trkpt><trkpt lat="42.44471072465203" lon="14.215843806311973"><ele>8.0</ele><time>2026-05-01T07:43:52.999Z</time></trkpt><trkpt lat="42.44463049572209" lon="14.215742289157037"><ele>8.0</ele><time>2026-05-01T07:43:53.999Z</time></trkpt><trkpt lat="42.44451910103353" lon="14.215659184655046"><ele>8.0</ele><time>2026-05-01T07:43:55Z</time></trkpt><trkpt lat="42.4444291487185" lon="14.215564155745712"><ele>7.5</ele><time>2026-05-01T07:43:56Z</time></trkpt><trkpt lat="42.4443366765839" lon="14.215472469934447"><ele>7.0</ele><time>2026-05-01T07:43:57Z</time></trkpt><trkpt lat="42.444235273075634" lon="14.21537536751963"><ele>6.5</ele><time>2026-05-01T07:43:58Z</time></trkpt><trkpt lat="42.44412786921534" lon="14.215275100955555"><ele>6.0</ele><time>2026-05-01T07:43:59Z</time></trkpt><trkpt lat="42.444031888114075" lon="14.215184248854882"><ele>6.0</ele><time>2026-05-01T07:44:00Z</time></trkpt><trkpt lat="42.44394382167338" lon="14.215102083238023"><ele>6.0</ele><time>2026-05-01T07:44:01Z</time></trkpt><trkpt lat="42.44385255101426" lon="14.215018206882963"><ele>6.0</ele><time>2026-05-01T07:44:02Z</time></trkpt><trkpt lat="42.44376252984677" lon="14.214933633923728"><ele>6.0</ele><time>2026-05-01T07:44:03Z</time></trkpt><trkpt lat="42.44368154122409" lon="14.214860455100398"><ele>6.0</ele><time>2026-05-01T07:44:04Z</time></trkpt><trkpt lat="42.4435988552915" lon="14.214782184374961"><ele>6.199999999999999</ele><time>2026-05-01T07:44:05Z</time></trkpt><trkpt lat="42.443511237288156" lon="14.214697046110185"><ele>6.3999999999999995</ele><time>2026-05-01T07:44:06Z</time></trkpt><trkpt lat="42.44343238105686" lon="14.2146117387505"><ele>6.6</ele><time>2026-05-01T07:44:07Z</time></trkpt><trkpt lat="42.44336750966604" lon="14.214534692279559"><ele>6.8</ele><time>2026-05-01T07:44:08Z</time></trkpt><trkpt lat="42.4433209161515" lon="14.214433501163203"><ele>7.0</ele><time>2026-05-01T07:44:09Z</time></trkpt><trkpt lat="42.44327539390511" lon="14.214354591259262"><ele>7.0</ele><time>2026-05-01T07:44:10Z</time></trkpt><trkpt lat="42.44321753267161" lon="14.214232611625649"><ele>6.999999999999999</ele><time>2026-05-01T07:44:12Z</time></trkpt><trkpt lat="42.443161068002524" lon="14.21411347440089"><ele>6.999999999999999</ele><time>2026-05-01T07:44:14Z</time></trkpt><trkpt lat="42.44311468264407" lon="14.214015604025716"><ele>7.0</ele><time>2026-05-01T07:44:16Z</time></trkpt><trkpt lat="42.443071636273594" lon="14.21392477866792"><ele>7.0</ele><time>2026-05-01T07:44:18Z</time></trkpt><trkpt lat="42.44292702191472" lon="14.213889512208548"><ele>7.3999999999999995</ele><time>2026-05-01T07:44:20Z</time></trkpt><trkpt lat="42.44279219793599" lon="14.213876779433448"><ele>7.799999999999999</ele><time>2026-05-01T07:44:22Z</time></trkpt><trkpt lat="42.442718653126384" lon="14.213869614832278"><ele>8.2</ele><time>2026-05-01T07:44:23Z</time></trkpt><trkpt lat="42.44264319295987" lon="14.213862334341794"><ele>8.6</ele><time>2026-05-01T07:44:24Z</time></trkpt><trkpt lat="42.44256064053492" lon="14.21387657989033"><ele>9.0</ele><time>2026-05-01T07:44:25Z</time></trkpt><trkpt lat="42.442473841462366" lon="14.213868806800015"><ele>9.0</ele><time>2026-05-01T07:44:26Z</time></trkpt><trkpt lat="42.44239058678852" lon="14.213858523235515"><ele>9.0</ele><time>2026-05-01T07:44:27Z</time></trkpt><trkpt lat="42.442310278061534" lon="14.213854817443682"><ele>9.0</ele><time>2026-05-01T07:44:28Z</time></trkpt><trkpt lat="42.442227093663085" lon="14.213854489817896"><ele>9.0</ele><time>2026-05-01T07:44:29Z</time></trkpt><trkpt lat="42.4421317133835" lon="14.213858431010278"><ele>9.0</ele><time>2026-05-01T07:44:30Z</time></trkpt><trkpt lat="42.44203089418153" lon="14.2138344436914"><ele>9.0</ele><time>2026-05-01T07:44:31Z</time></trkpt><trkpt lat="42.44192973081646" lon="14.213832578018927"><ele>8.8</ele><time>2026-05-01T07:44:32Z</time></trkpt><trkpt lat="42.44183442187788" lon="14.213829725957558"><ele>8.600000000000001</ele><time>2026-05-01T07:44:33Z</time></trkpt><trkpt lat="42.44173728642051" lon="14.213825952841603"><ele>8.4</ele><time>2026-05-01T07:44:34Z</time></trkpt><trkpt lat="42.44164730858916" lon="14.213822051582648"><ele>8.200000000000001</ele><time>2026-05-01T07:44:35Z</time></trkpt><trkpt lat="42.44155360620605" lon="14.213839135089875"><ele>8.0</ele><time>2026-05-01T07:44:36Z</time></trkpt><trkpt lat="42.44145539865588" lon="14.213833646285089"><ele>8.0</ele><time>2026-05-01T07:44:37Z</time></trkpt><trkpt lat="42.44135936380114" lon="14.213804572319443"><ele>8.0</ele><time>2026-05-01T07:44:38Z</time></trkpt><trkpt lat="42.44125485698568" lon="14.213793814265683"><ele>8.0</ele><time>2026-05-01T07:44:39Z</time></trkpt><trkpt lat="42.44114558539633" lon="14.213796614247041"><ele>8.0</ele><time>2026-05-01T07:44:40Z</time></trkpt><trkpt lat="42.44102473920899" lon="14.213780107093603"><ele>8.0</ele><time>2026-05-01T07:44:41Z</time></trkpt><trkpt lat="42.44090432547369" lon="14.213764560983478"><ele>11.0</ele><time>2026-05-01T07:44:42Z</time></trkpt><trkpt lat="42.440781619772835" lon="14.213738855079702"><ele>14.0</ele><time>2026-05-01T07:44:43Z</time></trkpt><trkpt lat="42.44065303547447" lon="14.213722612040998"><ele>17.0</ele><time>2026-05-01T07:44:44Z</time></trkpt><trkpt lat="42.4405309249441" lon="14.213718837483052"><ele>20.0</ele><time>2026-05-01T07:44:45Z</time></trkpt><trkpt lat="42.440417111980814" lon="14.213745609627171"><ele>20.25</ele><time>2026-05-01T07:44:46Z</time></trkpt><trkpt lat="42.440300002820685" lon="14.213775141904433"><ele>20.5</ele><time>2026-05-01T07:44:47Z</time></trkpt><trkpt lat="42.44019832148815" lon="14.213831505810605"><ele>20.75</ele><time>2026-05-01T07:44:48Z</time></trkpt><trkpt lat="42.440087096695564" lon="14.213926115832868"><ele>21.0</ele><time>2026-05-01T07:44:49Z</time></trkpt><trkpt lat="42.439958580561175" lon="14.214053368994938"><ele>21.0</ele><time>2026-05-01T07:44:50Z</time></trkpt><trkpt lat="42.43982303362906" lon="14.214162945908352"><ele>21.0</ele><time>2026-05-01T07:44:51Z</time></trkpt><trkpt lat="42.439689212971075" lon="14.214258119087535"><ele>21.0</ele><time>2026-05-01T07:44:52Z</time></trkpt><trkpt lat="42.43955151987043" lon="14.21433387470781"><ele>23.25</ele><time>2026-05-01T07:44:53Z</time></trkpt><trkpt lat="42.43940476156384" lon="14.214410948158626"><ele>25.5</ele><time>2026-05-01T07:44:54Z</time></trkpt><trkpt lat="42.4392713601027" lon="14.214491025077661"><ele>27.75</ele><time>2026-05-01T07:44:55Z</time></trkpt><trkpt lat="42.43915395627902" lon="14.214575770547023"><ele>30.0</ele><time>2026-05-01T07:44:56Z</time></trkpt><trkpt lat="42.43902773756792" lon="14.214671256693064"><ele>30.0</ele><time>2026-05-01T07:44:57Z</time></trkpt><trkpt lat="42.438892811125875" lon="14.21477408783798"><ele>30.0</ele><time>2026-05-01T07:44:58Z</time></trkpt><trkpt lat="42.43876946239264" lon="14.214862200954302"><ele>30.0</ele><time>2026-05-01T07:44:59Z</time></trkpt><trkpt lat="42.43864924468941" lon="14.214941430728302"><ele>30.0</ele><time>2026-05-01T07:45:00Z</time></trkpt><trkpt lat="42.4385251738746" lon="14.21498362651772"><ele>33.25</ele><time>2026-05-01T07:45:01Z</time></trkpt><trkpt lat="42.43838126383705" lon="14.215016918862318"><ele>36.5</ele><time>2026-05-01T07:45:02Z</time></trkpt><trkpt lat="42.43823728763018" lon="14.215073626643488"><ele>39.75</ele><time>2026-05-01T07:45:03Z</time></trkpt><trkpt lat="42.438088347447625" lon="14.215084674868354"><ele>43.0</ele><time>2026-05-01T07:45:04Z</time></trkpt><trkpt lat="42.43793124744323" lon="14.21506688540621"><ele>43.5</ele><time>2026-05-01T07:45:05Z</time></trkpt><trkpt lat="42.437776002783416" lon="14.21503573870881"><ele>44.0</ele><time>2026-05-01T07:45:06Z</time></trkpt><trkpt lat="42.437614663856465" lon="14.215020677202318"><ele>44.5</ele><time>2026-05-01T07:45:07Z</time></trkpt><trkpt lat="42.43749074002251" lon="14.215009030875578"><ele>45.0</ele><time>2026-05-01T07:45:08Z</time></trkpt><trkpt lat="42.43739362655838" lon="14.215023580997528"><ele>45.0</ele><time>2026-05-01T07:45:09Z</time></trkpt><trkpt lat="42.43730753745601" lon="14.215043898129569"><ele>45.0</ele><time>2026-05-01T07:45:10Z</time></trkpt><trkpt lat="42.437220970044535" lon="14.215058960569307"><ele>45.0</ele><time>2026-05-01T07:45:11Z</time></trkpt><trkpt lat="42.43713541725592" lon="14.215129036533751"><ele>45.0</ele><time>2026-05-01T07:45:12Z</time></trkpt><trkpt lat="42.4370445896696" lon="14.215181528338357"><ele>45.0</ele><time>2026-05-01T07:45:13Z</time></trkpt><trkpt lat="42.43695517804946" lon="14.215265182303947"><ele>44.25</ele><time>2026-05-01T07:45:14Z</time></trkpt><trkpt lat="42.43686683083927" lon="14.21538273278994"><ele>43.5</ele><time>2026-05-01T07:45:15Z</time></trkpt><trkpt lat="42.43677465710299" lon="14.215520059341204"><ele>42.75</ele><time>2026-05-01T07:45:16Z</time></trkpt><trkpt lat="42.43667445474749" lon="14.215683519291103"><ele>42.0</ele><time>2026-05-01T07:45:17Z</time></trkpt><trkpt lat="42.43657446210397" lon="14.215844705837007"><ele>44.5</ele><time>2026-05-01T07:45:18Z</time></trkpt><trkpt lat="42.436473633340576" lon="14.216001753491048"><ele>47.0</ele><time>2026-05-01T07:45:19Z</time></trkpt><trkpt lat="42.43637861431699" lon="14.216150612912843"><ele>49.5</ele><time>2026-05-01T07:45:20Z</time></trkpt><trkpt lat="42.43628331339655" lon="14.216268572846037"><ele>52.0</ele><time>2026-05-01T07:45:21Z</time></trkpt><trkpt lat="42.43620139305701" lon="14.216387782239178"><ele>52.33333333333333</ele><time>2026-05-01T07:45:22Z</time></trkpt><trkpt lat="42.4361278707969" lon="14.21648953439077"><ele>52.666666666666664</ele><time>2026-05-01T07:45:23Z</time></trkpt><trkpt lat="42.43606373741158" lon="14.216590946896764"><ele>53.0</ele><time>2026-05-01T07:45:24Z</time></trkpt><trkpt lat="42.43598191864426" lon="14.216640271219878"><ele>53.33333333333333</ele><time>2026-05-01T07:45:25Z</time></trkpt><trkpt lat="42.43591895556499" lon="14.216719090298527"><ele>53.666666666666664</ele><time>2026-05-01T07:45:26Z</time></trkpt><trkpt lat="42.43585781320938" lon="14.216764499666844"><ele>54.0</ele><time>2026-05-01T07:45:27Z</time></trkpt><trkpt lat="42.435799013677475" lon="14.216807176628517"><ele>54.0</ele><time>2026-05-01T07:45:28Z</time></trkpt><trkpt lat="42.43572226284588" lon="14.216811036049783"><ele>54.0</ele><time>2026-05-01T07:45:30Z</time></trkpt><trkpt lat="42.435649209937985" lon="14.21678061498534"><ele>54.0</ele><time>2026-05-01T07:45:40Z</time></trkpt><trkpt lat="42.43557287901424" lon="14.216783764447774"><ele>54.0</ele><time>2026-05-01T07:51:46Z</time></trkpt><trkpt lat="42.435498779127" lon="14.216779176903934"><ele>54.0</ele><time>2026-05-01T07:51:51Z</time></trkpt><trkpt lat="42.4354278538344" lon="14.216743244574028"><ele>54.0</ele><time>2026-05-01T07:51:54Z</time></trkpt><trkpt lat="42.43531633782375" lon="14.216690993113088"><ele>54.75</ele><time>2026-05-01T07:51:55Z</time></trkpt><trkpt lat="42.43521667713574" lon="14.216628838812056"><ele>55.5</ele><time>2026-05-01T07:51:56Z</time></trkpt><trkpt lat="42.43510399295069" lon="14.216546846098783"><ele>56.25</ele><time>2026-05-01T07:51:57Z</time></trkpt><trkpt lat="42.435013847492066" lon="14.216434359353986"><ele>57.0</ele><time>2026-05-01T07:51:58Z</time></trkpt><trkpt lat="42.43494823629285" lon="14.216313213539744"><ele>58.0</ele><time>2026-05-01T07:51:59Z</time></trkpt><trkpt lat="42.43488680419561" lon="14.216242777059856"><ele>59.0</ele><time>2026-05-01T07:52:00Z</time></trkpt><trkpt lat="42.43479847859657" lon="14.216160074755882"><ele>60.0</ele><time>2026-05-01T07:52:02Z</time></trkpt><trkpt lat="42.43471253590659" lon="14.216108888881129"><ele>61.0</ele><time>2026-05-01T07:52:03Z</time></trkpt><trkpt lat="42.43460167823131" lon="14.216019818129856"><ele>62.0</ele><time>2026-05-01T07:52:04Z</time></trkpt><trkpt lat="42.43449237053862" lon="14.215906724827446"><ele>62.0</ele><time>2026-05-01T07:52:05Z</time></trkpt><trkpt lat="42.434397178627385" lon="14.21577787157493"><ele>62.0</ele><time>2026-05-01T07:52:06Z</time></trkpt><trkpt lat="42.43431292930882" lon="14.21570359277173"><ele>62.0</ele><time>2026-05-01T07:52:07Z</time></trkpt><trkpt lat="42.43426565000071" lon="14.215628849853552"><ele>62.0</ele><time>2026-05-01T07:52:08Z</time></trkpt><trkpt lat="42.43416381858947" lon="14.215617002459636"><ele>62.0</ele><time>2026-05-01T07:52:09Z</time></trkpt><trkpt lat="42.43406928189327" lon="14.215541710758782"><ele>65.4</ele><time>2026-05-01T07:52:10Z</time></trkpt><trkpt lat="42.43396962344467" lon="14.215505018630491"><ele>68.80000000000001</ele><time>2026-05-01T07:52:11Z</time></trkpt><trkpt lat="42.43387957976307" lon="14.215481213778324"><ele>72.2</ele><time>2026-05-01T07:52:12.001Z</time></trkpt><trkpt lat="42.43376073214141" lon="14.215468254930007"><ele>75.60000000000001</ele><time>2026-05-01T07:52:13.001Z</time></trkpt><trkpt lat="42.43363631179511" lon="14.215471658153294"><ele>79.0</ele><time>2026-05-01T07:52:14.001Z</time></trkpt><trkpt lat="42.43351055616474" lon="14.215485668497402"><ele>79.0</ele><time>2026-05-01T07:52:15.001Z</time></trkpt><trkpt lat="42.43338879449249" lon="14.215492389636319"><ele>79.0</ele><time>2026-05-01T07:52:16.001Z</time></trkpt><trkpt lat="42.433275226159815" lon="14.21549005795263"><ele>79.0</ele><time>2026-05-01T07:52:17.001Z</time></trkpt><trkpt lat="42.43317588038921" lon="14.215502812240278"><ele>79.0</ele><time>2026-05-01T07:52:18.001Z</time></trkpt><trkpt lat="42.43309159920409" lon="14.215508695751366"><ele>79.0</ele><time>2026-05-01T07:52:19.001Z</time></trkpt><trkpt lat="42.432998095421475" lon="14.21547451518006"><ele>78.0</ele><time>2026-05-01T07:52:20.001Z</time></trkpt><trkpt lat="42.43291288290998" lon="14.215445913606105"><ele>77.0</ele><time>2026-05-01T07:52:21.001Z</time></trkpt><trkpt lat="42.432825686686186" lon="14.215410050099514"><ele>76.0</ele><time>2026-05-01T07:52:22.001Z</time></trkpt><trkpt lat="42.432740194605444" lon="14.215365215667735"><ele>75.0</ele><time>2026-05-01T07:52:23.001Z</time></trkpt><trkpt lat="42.43264006836068" lon="14.215308936455372"><ele>74.0</ele><time>2026-05-01T07:52:24.001Z</time></trkpt><trkpt lat="42.432549617405435" lon="14.215281465289564"><ele>74.0</ele><time>2026-05-01T07:52:25.001Z</time></trkpt><trkpt lat="42.43248614218496" lon="14.215277549140755"><ele>74.0</ele><time>2026-05-01T07:52:26.001Z</time></trkpt><trkpt lat="42.432412382130394" lon="14.215300051620812"><ele>74.0</ele><time>2026-05-01T07:52:27.001Z</time></trkpt><trkpt lat="42.4323188725028" lon="14.215343506905365"><ele>74.0</ele><time>2026-05-01T07:52:28.001Z</time></trkpt><trkpt lat="42.432219863398494" lon="14.215391189318755"><ele>74.0</ele><time>2026-05-01T07:52:29.001Z</time></trkpt><trkpt lat="42.43214247411674" lon="14.215411046550527"><ele>74.0</ele><time>2026-05-01T07:52:30.001Z</time></trkpt><trkpt lat="42.432073655689805" lon="14.215416525957165"><ele>73.0</ele><time>2026-05-01T07:52:31.001Z</time></trkpt><trkpt lat="42.43201052644293" lon="14.215392624661124"><ele>72.0</ele><time>2026-05-01T07:52:32.001Z</time></trkpt><trkpt lat="42.43194572737812" lon="14.215273683252924"><ele>71.0</ele><time>2026-05-01T07:52:34.001Z</time></trkpt><trkpt lat="42.43189265278205" lon="14.215201586650412"><ele>70.0</ele><time>2026-05-01T07:52:35.001Z</time></trkpt><trkpt lat="42.43180014714704" lon="14.215133374663665"><ele>69.0</ele><time>2026-05-01T07:52:36.001Z</time></trkpt><trkpt lat="42.431709330768626" lon="14.215078192920142"><ele>69.0</ele><time>2026-05-01T07:52:37.001Z</time></trkpt><trkpt lat="42.431601735616894" lon="14.2150084891226"><ele>69.0</ele><time>2026-05-01T07:52:38.001Z</time></trkpt><trkpt lat="42.43149487962915" lon="14.214936590959802"><ele>69.0</ele><time>2026-05-01T07:52:39.001Z</time></trkpt><trkpt lat="42.43137597831357" lon="14.214893142163907"><ele>69.0</ele><time>2026-05-01T07:52:40.001Z</time></trkpt><trkpt lat="42.431267431457826" lon="14.214869072685174"><ele>69.0</ele><time>2026-05-01T07:52:41Z</time></trkpt><trkpt lat="42.431182586413755" lon="14.21487298221036"><ele>69.0</ele><time>2026-05-01T07:52:42Z</time></trkpt><trkpt lat="42.43105958074901" lon="14.214817393449449"><ele>69.0</ele><time>2026-05-01T07:52:44Z</time></trkpt><trkpt lat="42.430982275694284" lon="14.214736859990422"><ele>69.0</ele><time>2026-05-01T07:52:45Z</time></trkpt><trkpt lat="42.43086288094294" lon="14.21462763414724"><ele>70.2</ele><time>2026-05-01T07:52:46Z</time></trkpt><trkpt lat="42.43073839350567" lon="14.214525840248129"><ele>71.4</ele><time>2026-05-01T07:52:47Z</time></trkpt><trkpt lat="42.43063784966672" lon="14.21446073982462"><ele>72.6</ele><time>2026-05-01T07:52:48Z</time></trkpt><trkpt lat="42.43056472559913" lon="14.214415485466182"><ele>73.8</ele><time>2026-05-01T07:52:49Z</time></trkpt><trkpt lat="42.4305040043153" lon="14.214354454969753"><ele>75.0</ele><time>2026-05-01T07:52:50Z</time></trkpt><trkpt lat="42.43046120434153" lon="14.214280732330549"><ele>75.2</ele><time>2026-05-01T07:52:51Z</time></trkpt><trkpt lat="42.43040844221788" lon="14.214206292358233"><ele>75.4</ele><time>2026-05-01T07:52:52Z</time></trkpt><trkpt lat="42.430358313059926" lon="14.214149493252878"><ele>75.6</ele><time>2026-05-01T07:52:53Z</time></trkpt><trkpt lat="42.43022275866204" lon="14.214072004728571"><ele>75.8</ele><time>2026-05-01T07:52:55Z</time></trkpt><trkpt lat="42.43015115523591" lon="14.214015975256274"><ele>76.0</ele><time>2026-05-01T07:52:56Z</time></trkpt><trkpt lat="42.43007975057457" lon="14.21394424916254"><ele>76.8</ele><time>2026-05-01T07:52:57Z</time></trkpt><trkpt lat="42.429991904363014" lon="14.21385144893531"><ele>77.6</ele><time>2026-05-01T07:52:58Z</time></trkpt><trkpt lat="42.42991057970841" lon="14.213756226543797"><ele>78.4</ele><time>2026-05-01T07:52:59Z</time></trkpt><trkpt lat="42.42982797360434" lon="14.213653994119044"><ele>79.2</ele><time>2026-05-01T07:53:00Z</time></trkpt><trkpt lat="42.42974125533987" lon="14.213548235999614"><ele>80.0</ele><time>2026-05-01T07:53:01Z</time></trkpt><trkpt lat="42.42964752571997" lon="14.21345132658526"><ele>80.4</ele><time>2026-05-01T07:53:02Z</time></trkpt><trkpt lat="42.42955765954767" lon="14.21335430157102"><ele>80.8</ele><time>2026-05-01T07:53:03Z</time></trkpt><trkpt lat="42.42947969684626" lon="14.213274194388019"><ele>81.19999999999999</ele><time>2026-05-01T07:53:04Z</time></trkpt><trkpt lat="42.42940576175909" lon="14.213186970381471"><ele>81.6</ele><time>2026-05-01T07:53:05Z</time></trkpt><trkpt lat="42.42932370436184" lon="14.213088928140053"><ele>82.0</ele><time>2026-05-01T07:53:06Z</time></trkpt><trkpt lat="42.429221778900306" lon="14.212986969443905"><ele>82.0</ele><time>2026-05-01T07:53:07Z</time></trkpt><trkpt lat="42.42913232492235" lon="14.212915306269725"><ele>82.0</ele><time>2026-05-01T07:53:08Z</time></trkpt><trkpt lat="42.42904523715984" lon="14.212837669929563"><ele>82.0</ele><time>2026-05-01T07:53:09Z</time></trkpt><trkpt lat="42.42895115790406" lon="14.212749246019932"><ele>82.0</ele><time>2026-05-01T07:53:10Z</time></trkpt><trkpt lat="42.4288541598174" lon="14.212663416287329"><ele>82.0</ele><time>2026-05-01T07:53:11Z</time></trkpt><trkpt lat="42.428754584476565" lon="14.212585058348811"><ele>82.16666666666666</ele><time>2026-05-01T07:53:12Z</time></trkpt><trkpt lat="42.428675158901214" lon="14.212515614501598"><ele>82.33333333333333</ele><time>2026-05-01T07:53:13Z</time></trkpt><trkpt lat="42.42859873625053" lon="14.21243646763137"><ele>82.5</ele><time>2026-05-01T07:53:14Z</time></trkpt><trkpt lat="42.428519035771636" lon="14.212365051448343"><ele>82.66666666666667</ele><time>2026-05-01T07:53:15Z</time></trkpt><trkpt lat="42.42845027914936" lon="14.212307834503926"><ele>82.83333333333334</ele><time>2026-05-01T07:53:16Z</time></trkpt><trkpt lat="42.42838004139905" lon="14.212254351247529"><ele>83.0</ele><time>2026-05-01T07:53:17Z</time></trkpt><trkpt lat="42.428312905863145" lon="14.212205258654114"><ele>83.60000000000001</ele><time>2026-05-01T07:53:18Z</time></trkpt><trkpt lat="42.42824396391191" lon="14.212138252274299"><ele>84.2</ele><time>2026-05-01T07:53:19Z</time></trkpt><trkpt lat="42.428174272392475" lon="14.212065573739714"><ele>84.8</ele><time>2026-05-01T07:53:20Z</time></trkpt><trkpt lat="42.4280912759999" lon="14.21196077576511"><ele>85.4</ele><time>2026-05-01T07:53:21Z</time></trkpt><trkpt lat="42.42799307642341" lon="14.211859883404077"><ele>86.0</ele><time>2026-05-01T07:53:22Z</time></trkpt><trkpt lat="42.42791573590786" lon="14.211783999608661"><ele>86.6</ele><time>2026-05-01T07:53:23Z</time></trkpt><trkpt lat="42.427851267338475" lon="14.211732628549978"><ele>87.19999999999999</ele><time>2026-05-01T07:53:24Z</time></trkpt><trkpt lat="42.427800061061845" lon="14.211656649181425"><ele>87.80000000000001</ele><time>2026-05-01T07:53:25Z</time></trkpt><trkpt lat="42.42774219356772" lon="14.21154548578547"><ele>88.4</ele><time>2026-05-01T07:53:26Z</time></trkpt><trkpt lat="42.42768519369678" lon="14.211424567381108"><ele>89.0</ele><time>2026-05-01T07:53:27Z</time></trkpt><trkpt lat="42.427622906965105" lon="14.211321313354935"><ele>89.0</ele><time>2026-05-01T07:53:28Z</time></trkpt><trkpt lat="42.427551551026944" lon="14.21122323088166"><ele>89.0</ele><time>2026-05-01T07:53:29Z</time></trkpt><trkpt lat="42.427486218197224" lon="14.211137032197952"><ele>89.0</ele><time>2026-05-01T07:53:30Z</time></trkpt><trkpt lat="42.42740657673308" lon="14.211053084627004"><ele>89.0</ele><time>2026-05-01T07:53:31Z</time></trkpt><trkpt lat="42.42733686798774" lon="14.210987443818622"><ele>89.0</ele><time>2026-05-01T07:53:32Z</time></trkpt><trkpt lat="42.42727245418764" lon="14.210935922470101"><ele>89.0</ele><time>2026-05-01T07:53:33Z</time></trkpt><trkpt lat="42.42721202087456" lon="14.21089986368358"><ele>89.0</ele><time>2026-05-01T07:53:34Z</time></trkpt><trkpt lat="42.427097916704696" lon="14.210865527204426"><ele>89.0</ele><time>2026-05-01T07:53:36Z</time></trkpt><trkpt lat="42.427020613488416" lon="14.21084153123787"><ele>89.0</ele><time>2026-05-01T07:53:37Z</time></trkpt><trkpt lat="42.426937952173404" lon="14.21081668524945"><ele>89.0</ele><time>2026-05-01T07:53:38Z</time></trkpt><trkpt lat="42.42684955101926" lon="14.210787170941163"><ele>89.0</ele><time>2026-05-01T07:53:39Z</time></trkpt><trkpt lat="42.42677176181523" lon="14.210753239030058"><ele>89.66666666666667</ele><time>2026-05-01T07:53:40Z</time></trkpt><trkpt lat="42.42667893344549" lon="14.210727769302785"><ele>90.33333333333334</ele><time>2026-05-01T07:53:41Z</time></trkpt><trkpt lat="42.426601555999945" lon="14.210681357426113"><ele>91.0</ele><time>2026-05-01T07:53:42Z</time></trkpt><trkpt lat="42.426517198110055" lon="14.210642683826096"><ele>91.66666666666667</ele><time>2026-05-01T07:53:43Z</time></trkpt><trkpt lat="42.426436938134614" lon="14.210612624546295"><ele>92.33333333333333</ele><time>2026-05-01T07:53:44Z</time></trkpt><trkpt lat="42.42636572278242" lon="14.210585537401403"><ele>93.0</ele><time>2026-05-01T07:53:45Z</time></trkpt><trkpt lat="42.426292635543675" lon="14.210544671490533"><ele>93.0</ele><time>2026-05-01T07:53:46Z</time></trkpt><trkpt lat="42.426208761066135" lon="14.210492732472991"><ele>93.0</ele><time>2026-05-01T07:53:47Z</time></trkpt><trkpt lat="42.42612401699399" lon="14.21043590013703"><ele>93.0</ele><time>2026-05-01T07:53:48Z</time></trkpt><trkpt lat="42.42603014652917" lon="14.21038275322138"><ele>93.0</ele><time>2026-05-01T07:53:49Z</time></trkpt><trkpt lat="42.425941228408625" lon="14.210323397659257"><ele>93.0</ele><time>2026-05-01T07:53:50Z</time></trkpt><trkpt lat="42.425855755636334" lon="14.210262748233555"><ele>93.0</ele><time>2026-05-01T07:53:51Z</time></trkpt><trkpt lat="42.42576744380212" lon="14.210216553037334"><ele>93.0</ele><time>2026-05-01T07:53:52Z</time></trkpt><trkpt lat="42.4256775592875" lon="14.21016295257025"><ele>93.0</ele><time>2026-05-01T07:53:53Z</time></trkpt><trkpt lat="42.42560654280594" lon="14.210112021993925"><ele>93.0</ele><time>2026-05-01T07:53:54Z</time></trkpt><trkpt lat="42.42553784324137" lon="14.210075386111663"><ele>93.0</ele><time>2026-05-01T07:53:55Z</time></trkpt><trkpt lat="42.42544447230166" lon="14.210015942298499"><ele>93.0</ele><time>2026-05-01T07:53:57Z</time></trkpt><trkpt lat="42.42538430927422" lon="14.20997342507886"><ele>93.0</ele><time>2026-05-01T07:53:59Z</time></trkpt><trkpt lat="42.425324759661756" lon="14.21000114259954"><ele>93.0</ele><time>2026-05-01T07:54:01Z</time></trkpt><trkpt lat="42.4252712237225" lon="14.21008357545038"><ele>93.0</ele><time>2026-05-01T07:54:03Z</time></trkpt><trkpt lat="42.42520930986529" lon="14.210244497634443"><ele>93.0</ele><time>2026-05-01T07:54:05Z</time></trkpt><trkpt lat="42.42517073122904" lon="14.210324780781779"><ele>93.0</ele><time>2026-05-01T07:54:06Z</time></trkpt><trkpt lat="42.42512470299574" lon="14.21042338231866"><ele>93.0</ele><time>2026-05-01T07:54:07Z</time></trkpt><trkpt lat="42.425090946541346" lon="14.210515975735243"><ele>93.0</ele><time>2026-05-01T07:54:08Z</time></trkpt><trkpt lat="42.42505990544318" lon="14.210621749464103"><ele>93.0</ele><time>2026-05-01T07:54:09Z</time></trkpt><trkpt lat="42.42502819586319" lon="14.210757697492891"><ele>93.0</ele><time>2026-05-01T07:54:10Z</time></trkpt><trkpt lat="42.42499709197677" lon="14.210898785927023"><ele>93.0</ele><time>2026-05-01T07:54:11Z</time></trkpt><trkpt lat="42.42495858801849" lon="14.211045838673577"><ele>95.2</ele><time>2026-05-01T07:54:12Z</time></trkpt><trkpt lat="42.424924660853634" lon="14.211164339626523"><ele>97.4</ele><time>2026-05-01T07:54:13Z</time></trkpt><trkpt lat="42.42488783117674" lon="14.211294334293584"><ele>99.60000000000001</ele><time>2026-05-01T07:54:14Z</time></trkpt><trkpt lat="42.424870543969696" lon="14.211394335515475"><ele>101.80000000000001</ele><time>2026-05-01T07:54:15Z</time></trkpt><trkpt lat="42.424857765119" lon="14.211513911856375"><ele>104.0</ele><time>2026-05-01T07:54:16Z</time></trkpt><trkpt lat="42.424848955756914" lon="14.211640397045715"><ele>104.6</ele><time>2026-05-01T07:54:17Z</time></trkpt><trkpt lat="42.42484180312108" lon="14.211765239431335"><ele>105.2</ele><time>2026-05-01T07:54:18.001Z</time></trkpt><trkpt lat="42.42483717431812" lon="14.211889831199358"><ele>105.79999999999998</ele><time>2026-05-01T07:54:19.001Z</time></trkpt><trkpt lat="42.4248159811789" lon="14.212040689593636"><ele>106.39999999999999</ele><time>2026-05-01T07:54:20.001Z</time></trkpt><trkpt lat="42.42479390405247" lon="14.21216693606028"><ele>107.0</ele><time>2026-05-01T07:54:21.001Z</time></trkpt><trkpt lat="42.42477203907312" lon="14.212287748035717"><ele>107.83333333333333</ele><time>2026-05-01T07:54:22.001Z</time></trkpt><trkpt lat="42.42474637519013" lon="14.212390264224503"><ele>108.66666666666666</ele><time>2026-05-01T07:54:23.001Z</time></trkpt><trkpt lat="42.42470996653484" lon="14.212501240891559"><ele>109.5</ele><time>2026-05-01T07:54:24.001Z</time></trkpt><trkpt lat="42.42467678331245" lon="14.212614213175144"><ele>110.33333333333334</ele><time>2026-05-01T07:54:25.001Z</time></trkpt><trkpt lat="42.424649966031396" lon="14.212723112020939"><ele>111.16666666666667</ele><time>2026-05-01T07:54:26.001Z</time></trkpt><trkpt lat="42.42462928320723" lon="14.212845108146704"><ele>112.0</ele><time>2026-05-01T07:54:27.001Z</time></trkpt><trkpt lat="42.42461255731153" lon="14.212950560358944"><ele>113.33333333333334</ele><time>2026-05-01T07:54:28.001Z</time></trkpt><trkpt lat="42.424585053718054" lon="14.213063866872593"><ele>114.66666666666667</ele><time>2026-05-01T07:54:29.001Z</time></trkpt><trkpt lat="42.424544314014504" lon="14.213144206241052"><ele>116.0</ele><time>2026-05-01T07:54:30.001Z</time></trkpt><trkpt lat="42.4244823241057" lon="14.213228610225068"><ele>117.33333333333334</ele><time>2026-05-01T07:54:31Z</time></trkpt><trkpt lat="42.4244166218518" lon="14.213277637713542"><ele>118.66666666666667</ele><time>2026-05-01T07:54:32Z</time></trkpt><trkpt lat="42.42436170320351" lon="14.213332031383189"><ele>120.0</ele><time>2026-05-01T07:54:33Z</time></trkpt><trkpt lat="42.4243177056962" lon="14.213395221983463"><ele>120.0</ele><time>2026-05-01T07:54:34Z</time></trkpt><trkpt lat="42.42424393851061" lon="14.2135064194903"><ele>120.0</ele><time>2026-05-01T07:54:36Z</time></trkpt><trkpt lat="42.42421085710253" lon="14.2135999536605"><ele>120.0</ele><time>2026-05-01T07:54:38Z</time></trkpt><trkpt lat="42.424199117281155" lon="14.213738879872842"><ele>120.0</ele><time>2026-05-01T07:54:40Z</time></trkpt><trkpt lat="42.424179035118634" lon="14.213890285231152"><ele>120.0</ele><time>2026-05-01T07:54:42Z</time></trkpt><trkpt lat="42.42410959512365" lon="14.214029283018636"><ele>122.0</ele><time>2026-05-01T07:54:44Z</time></trkpt><trkpt lat="42.424055575677336" lon="14.21410350175823"><ele>124.0</ele><time>2026-05-01T07:54:45Z</time></trkpt><trkpt lat="42.423982815770266" lon="14.214190277328234"><ele>126.0</ele><time>2026-05-01T07:54:46Z</time></trkpt><trkpt lat="42.423901909504906" lon="14.214281636352716"><ele>128.0</ele><time>2026-05-01T07:54:47Z</time></trkpt><trkpt lat="42.423814377493834" lon="14.214394637083176"><ele>130.0</ele><time>2026-05-01T07:54:48Z</time></trkpt><trkpt lat="42.4237564771867" lon="14.214491670709519"><ele>130.8</ele><time>2026-05-01T07:54:49Z</time></trkpt><trkpt lat="42.42370090599432" lon="14.214609205902898"><ele>131.6</ele><time>2026-05-01T07:54:50Z</time></trkpt><trkpt lat="42.42364078284007" lon="14.214745167837942"><ele>132.4</ele><time>2026-05-01T07:54:51Z</time></trkpt><trkpt lat="42.4235798399488" lon="14.214867288161145"><ele>133.2</ele><time>2026-05-01T07:54:52Z</time></trkpt><trkpt lat="42.42352070732535" lon="14.214977868366233"><ele>134.0</ele><time>2026-05-01T07:54:53Z</time></trkpt><trkpt lat="42.42345551793239" lon="14.215083858324636"><ele>134.0</ele><time>2026-05-01T07:54:54Z</time></trkpt><trkpt lat="42.423410107804806" lon="14.21522703845739"><ele>134.0</ele><time>2026-05-01T07:54:55Z</time></trkpt><trkpt lat="42.42337411145716" lon="14.215376189267285"><ele>134.0</ele><time>2026-05-01T07:54:56Z</time></trkpt><trkpt lat="42.42332250345877" lon="14.21552400417876"><ele>134.0</ele><time>2026-05-01T07:54:57Z</time></trkpt><trkpt lat="42.423265474720324" lon="14.215685736357697"><ele>135.75</ele><time>2026-05-01T07:54:58Z</time></trkpt><trkpt lat="42.4231840479825" lon="14.21584497001357"><ele>137.5</ele><time>2026-05-01T07:54:59Z</time></trkpt><trkpt lat="42.42312052242813" lon="14.216015728246612"><ele>139.25</ele><time>2026-05-01T07:55:00Z</time></trkpt><trkpt lat="42.42307480079297" lon="14.216153730029948"><ele>141.0</ele><time>2026-05-01T07:55:01Z</time></trkpt><trkpt lat="42.42304722472194" lon="14.216298352893846"><ele>141.0</ele><time>2026-05-01T07:55:02Z</time></trkpt><trkpt lat="42.423022166112766" lon="14.216437103264836"><ele>141.0</ele><time>2026-05-01T07:55:03Z</time></trkpt><trkpt lat="42.42297342819843" lon="14.216581623978893"><ele>141.0</ele><time>2026-05-01T07:55:04Z</time></trkpt><trkpt lat="42.422948595821744" lon="14.216722834212568"><ele>141.0</ele><time>2026-05-01T07:55:05Z</time></trkpt><trkpt lat="42.422913915711696" lon="14.216846385642736"><ele>141.0</ele><time>2026-05-01T07:55:06Z</time></trkpt><trkpt lat="42.422859022189975" lon="14.216956328140718"><ele>140.33333333333334</ele><time>2026-05-01T07:55:08Z</time></trkpt><trkpt lat="42.4228080151276" lon="14.217023169190096"><ele>139.66666666666666</ele><time>2026-05-01T07:55:12Z</time></trkpt><trkpt lat="42.4228069453172" lon="14.217121891941554"><ele>139.0</ele><time>2026-05-01T07:55:15Z</time></trkpt><trkpt lat="42.42282763405776" lon="14.21722597301544"><ele>138.33333333333331</ele><time>2026-05-01T07:55:19Z</time></trkpt><trkpt lat="42.42285361500399" lon="14.217308533292723"><ele>137.66666666666666</ele><time>2026-05-01T07:55:23Z</time></trkpt><trkpt lat="42.422892003752764" lon="14.217400581300698"><ele>137.0</ele><time>2026-05-01T07:55:27Z</time></trkpt><trkpt lat="42.42292764569816" lon="14.217500665912556"><ele>141.2</ele><time>2026-05-01T07:55:29Z</time></trkpt><trkpt lat="42.42298498389778" lon="14.217644550652901"><ele>145.39999999999998</ele><time>2026-05-01T07:55:31Z</time></trkpt><trkpt lat="42.423028135217514" lon="14.217714412978932"><ele>149.60000000000002</ele><time>2026-05-01T07:55:32Z</time></trkpt><trkpt lat="42.42309379366498" lon="14.2177906187414"><ele>153.8</ele><time>2026-05-01T07:55:33Z</time></trkpt><trkpt lat="42.423163635168414" lon="14.217868945166705"><ele>158.0</ele><time>2026-05-01T07:55:34Z</time></trkpt><trkpt lat="42.423233444964325" lon="14.217952589309181"><ele>158.0</ele><time>2026-05-01T07:55:35Z</time></trkpt><trkpt lat="42.42330173691878" lon="14.218044375581577"><ele>158.0</ele><time>2026-05-01T07:55:36Z</time></trkpt><trkpt lat="42.42336668010612" lon="14.218154649438834"><ele>158.0</ele><time>2026-05-01T07:55:37Z</time></trkpt><trkpt lat="42.42341930178065" lon="14.218286337610513"><ele>158.0</ele><time>2026-05-01T07:55:38Z</time></trkpt><trkpt lat="42.423452923268144" lon="14.21847836449458"><ele>154.20000000000002</ele><time>2026-05-01T07:55:39Z</time></trkpt><trkpt lat="42.423512296884894" lon="14.218648623754692"><ele>150.4</ele><time>2026-05-01T07:55:40Z</time></trkpt><trkpt lat="42.42356525233142" lon="14.218792989823907"><ele>146.60000000000002</ele><time>2026-05-01T07:55:41Z</time></trkpt><trkpt lat="42.4236267474053" lon="14.218902316462414"><ele>142.8</ele><time>2026-05-01T07:55:42Z</time></trkpt><trkpt lat="42.42367993252407" lon="14.218971704424218"><ele>139.0</ele><time>2026-05-01T07:55:43Z</time></trkpt><trkpt lat="42.423553640563306" lon="14.218827303065874"><ele>139.0</ele><time>2026-05-01T07:55:49Z</time></trkpt><trkpt lat="42.42347878061601" lon="14.218687724635682"><ele>139.0</ele><time>2026-05-01T07:55:50Z</time></trkpt><trkpt lat="42.423295476440714" lon="14.218658110335616"><ele>139.0</ele><time>2026-05-01T07:55:51Z</time></trkpt><trkpt lat="42.42321465864358" lon="14.21847158095637"><ele>139.0</ele><time>2026-05-01T07:55:52Z</time></trkpt><trkpt lat="42.423128734488095" lon="14.218354826543935"><ele>139.0</ele><time>2026-05-01T07:55:53Z</time></trkpt><trkpt lat="42.42303750284826" lon="14.218260693155692"><ele>139.0</ele><time>2026-05-01T07:55:54Z</time></trkpt><trkpt lat="42.422924897391084" lon="14.218193428214164"><ele>139.0</ele><time>2026-05-01T07:55:55Z</time></trkpt><trkpt lat="42.42279675898509" lon="14.218178679434391"><ele>138.5</ele><time>2026-05-01T07:55:56Z</time></trkpt><trkpt lat="42.422657699058085" lon="14.218187543331258"><ele>138.0</ele><time>2026-05-01T07:55:56.999Z</time></trkpt><trkpt lat="42.42251220554691" lon="14.218205231660471"><ele>137.5</ele><time>2026-05-01T07:55:57.999Z</time></trkpt><trkpt lat="42.42237778722111" lon="14.218161321640803"><ele>137.0</ele><time>2026-05-01T07:55:58.999Z</time></trkpt><trkpt lat="42.42225771096572" lon="14.218100338575931"><ele>132.5</ele><time>2026-05-01T07:55:59.999Z</time></trkpt><trkpt lat="42.422138115315974" lon="14.218006834094723"><ele>128.0</ele><time>2026-05-01T07:56:00.999Z</time></trkpt><trkpt lat="42.422014311945595" lon="14.217897806779883"><ele>123.5</ele><time>2026-05-01T07:56:01.999Z</time></trkpt><trkpt lat="42.42187547662718" lon="14.21778144844707"><ele>119.0</ele><time>2026-05-01T07:56:02.999Z</time></trkpt><trkpt lat="42.42170420674155" lon="14.2176964776534"><ele>119.0</ele><time>2026-05-01T07:56:03.999Z</time></trkpt><trkpt lat="42.421531268187046" lon="14.217625179041324"><ele>119.0</ele><time>2026-05-01T07:56:04.999Z</time></trkpt><trkpt lat="42.42138176111606" lon="14.217552623770164"><ele>119.0</ele><time>2026-05-01T07:56:05.999Z</time></trkpt><trkpt lat="42.421246681142804" lon="14.217472957394726"><ele>117.75</ele><time>2026-05-01T07:56:06.999Z</time></trkpt><trkpt lat="42.4211380403742" lon="14.217352786863563"><ele>116.5</ele><time>2026-05-01T07:56:07.999Z</time></trkpt><trkpt lat="42.4210454670588" lon="14.217239592716473"><ele>115.25</ele><time>2026-05-01T07:56:08.999Z</time></trkpt><trkpt lat="42.420977389904046" lon="14.217103066274817"><ele>114.0</ele><time>2026-05-01T07:56:09.999Z</time></trkpt><trkpt lat="42.420959777558906" lon="14.216960946828205"><ele>114.0</ele><time>2026-05-01T07:56:10.999Z</time></trkpt><trkpt lat="42.42096814686101" lon="14.216823270247426"><ele>114.0</ele><time>2026-05-01T07:56:11.999Z</time></trkpt><trkpt lat="42.42096800749321" lon="14.216660335464011"><ele>114.0</ele><time>2026-05-01T07:56:12.999Z</time></trkpt><trkpt lat="42.420926682566574" lon="14.216538640960097"><ele>114.0</ele><time>2026-05-01T07:56:13.999Z</time></trkpt><trkpt lat="42.420878702389096" lon="14.216461671922131"><ele>114.0</ele><time>2026-05-01T07:56:14.999Z</time></trkpt><trkpt lat="42.42083128228723" lon="14.21637518285434"><ele>114.0</ele><time>2026-05-01T07:56:16.999Z</time></trkpt><trkpt lat="42.420780089796686" lon="14.216511467784514"><ele>114.0</ele><time>2026-05-01T07:56:19.999Z</time></trkpt><trkpt lat="42.420777303712455" lon="14.216598738408239"><ele>114.0</ele><time>2026-05-01T07:56:20.999Z</time></trkpt><trkpt lat="42.420778824839594" lon="14.216700868265583"><ele>114.0</ele><time>2026-05-01T07:56:21.999Z</time></trkpt><trkpt lat="42.4207717742569" lon="14.216823549746637"><ele>114.0</ele><time>2026-05-01T07:56:22.999Z</time></trkpt><trkpt lat="42.420764913768586" lon="14.21695206485687"><ele>114.0</ele><time>2026-05-01T07:56:24Z</time></trkpt><trkpt lat="42.42076002729337" lon="14.217097055523384"><ele>114.0</ele><time>2026-05-01T07:56:25Z</time></trkpt><trkpt lat="42.42077248590031" lon="14.217218112860753"><ele>114.0</ele><time>2026-05-01T07:56:26Z</time></trkpt><trkpt lat="42.42080427231904" lon="14.217382630311013"><ele>114.0</ele><time>2026-05-01T07:56:27Z</time></trkpt><trkpt lat="42.420839487031685" lon="14.21756030831811"><ele>114.0</ele><time>2026-05-01T07:56:28Z</time></trkpt><trkpt lat="42.42087506210652" lon="14.217717728407623"><ele>111.6</ele><time>2026-05-01T07:56:29Z</time></trkpt><trkpt lat="42.42091328010686" lon="14.21786535458683"><ele>109.2</ele><time>2026-05-01T07:56:30Z</time></trkpt><trkpt lat="42.42091641879605" lon="14.217999979697252"><ele>106.8</ele><time>2026-05-01T07:56:31Z</time></trkpt><trkpt lat="42.420911692036064" lon="14.218122202520098"><ele>104.39999999999999</ele><time>2026-05-01T07:56:32Z</time></trkpt><trkpt lat="42.42087562180347" lon="14.21823280873701"><ele>102.0</ele><time>2026-05-01T07:56:33Z</time></trkpt><trkpt lat="42.42085994325959" lon="14.218316950242844"><ele>100.19999999999999</ele><time>2026-05-01T07:56:34Z</time></trkpt><trkpt lat="42.42087928801533" lon="14.218468698596565"><ele>98.4</ele><time>2026-05-01T07:56:36Z</time></trkpt><trkpt lat="42.42100518116058" lon="14.218531942247937"><ele>96.6</ele><time>2026-05-01T07:56:38Z</time></trkpt><trkpt lat="42.42110184554645" lon="14.218567555639233"><ele>94.80000000000001</ele><time>2026-05-01T07:56:39Z</time></trkpt><trkpt lat="42.421179714591915" lon="14.218605483401513"><ele>93.0</ele><time>2026-05-01T07:56:40Z</time></trkpt><trkpt lat="42.42127476354665" lon="14.218659709489083"><ele>93.00000000000001</ele><time>2026-05-01T07:56:42Z</time></trkpt><trkpt lat="42.4213310050083" lon="14.218711660357037"><ele>93.0</ele><time>2026-05-01T07:56:45Z</time></trkpt><trkpt lat="42.42127617887823" lon="14.218640424650426"><ele>93.0</ele><time>2026-05-01T07:56:52Z</time></trkpt><trkpt lat="42.421214820615454" lon="14.218620319056761"><ele>93.0</ele><time>2026-05-01T07:56:53Z</time></trkpt><trkpt lat="42.42114195737165" lon="14.218588849857833"><ele>93.0</ele><time>2026-05-01T07:56:54Z</time></trkpt><trkpt lat="42.42106605684239" lon="14.218542182066782"><ele>93.00000000000001</ele><time>2026-05-01T07:56:55Z</time></trkpt><trkpt lat="42.42099642033746" lon="14.218506829948891"><ele>93.0</ele><time>2026-05-01T07:56:56Z</time></trkpt><trkpt lat="42.420927822511814" lon="14.218466143145681"><ele>93.0</ele><time>2026-05-01T07:56:57Z</time></trkpt><trkpt lat="42.42086978570655" lon="14.218407483766546"><ele>93.0</ele><time>2026-05-01T07:56:58Z</time></trkpt><trkpt lat="42.42084486912542" lon="14.218286670731274"><ele>93.0</ele><time>2026-05-01T07:57:00Z</time></trkpt><trkpt lat="42.420746379710344" lon="14.218286669001527"><ele>93.0</ele><time>2026-05-01T07:57:02Z</time></trkpt><trkpt lat="42.42065789996659" lon="14.218414500836076"><ele>93.0</ele><time>2026-05-01T07:57:06Z</time></trkpt><trkpt lat="42.42062967653172" lon="14.218493543004508"><ele>93.0</ele><time>2026-05-01T07:57:07Z</time></trkpt><trkpt lat="42.42058492568964" lon="14.218607423823313"><ele>93.0</ele><time>2026-05-01T07:57:09Z</time></trkpt><trkpt lat="42.42054498987165" lon="14.218698808230162"><ele>93.0</ele><time>2026-05-01T07:57:11Z</time></trkpt><trkpt lat="42.42050672023657" lon="14.218856354838092"><ele>93.0</ele><time>2026-05-01T07:57:13Z</time></trkpt><trkpt lat="42.420499107474754" lon="14.218946182540396"><ele>93.0</ele><time>2026-05-01T07:57:14Z</time></trkpt><trkpt lat="42.42048192336681" lon="14.219032243283824"><ele>93.0</ele><time>2026-05-01T07:57:15Z</time></trkpt><trkpt lat="42.420440912076835" lon="14.219127468591052"><ele>90.00000000000001</ele><time>2026-05-01T07:57:16Z</time></trkpt><trkpt lat="42.42039234542994" lon="14.219225158797084"><ele>87.0</ele><time>2026-05-01T07:57:17Z</time></trkpt><trkpt lat="42.42035095012658" lon="14.219309677288123"><ele>84.0</ele><time>2026-05-01T07:57:18Z</time></trkpt><trkpt lat="42.4203180951792" lon="14.219392042537239"><ele>81.0</ele><time>2026-05-01T07:57:19Z</time></trkpt><trkpt lat="42.42029076544043" lon="14.21947906931183"><ele>78.0</ele><time>2026-05-01T07:57:20Z</time></trkpt><trkpt lat="42.42026118943868" lon="14.219562927349628"><ele>75.00000000000001</ele><time>2026-05-01T07:57:21Z</time></trkpt><trkpt lat="42.42024023282477" lon="14.219646541803385"><ele>72.0</ele><time>2026-05-01T07:57:22Z</time></trkpt><trkpt lat="42.42020205393162" lon="14.21974463203888"><ele>70.0</ele><time>2026-05-01T07:57:23Z</time></trkpt><trkpt lat="42.42015416767959" lon="14.219856297393518"><ele>68.0</ele><time>2026-05-01T07:57:24Z</time></trkpt><trkpt lat="42.42009850212455" lon="14.219976774573091"><ele>66.0</ele><time>2026-05-01T07:57:25Z</time></trkpt><trkpt lat="42.42004771468676" lon="14.22008770748349"><ele>64.0</ele><time>2026-05-01T07:57:26Z</time></trkpt><trkpt lat="42.42000754744575" lon="14.220185343254073"><ele>62.0</ele><time>2026-05-01T07:57:27Z</time></trkpt><trkpt lat="42.41996994051436" lon="14.220290213866916"><ele>62.0</ele><time>2026-05-01T07:57:28Z</time></trkpt><trkpt lat="42.41987320662197" lon="14.220601673180733"><ele>62.0</ele><time>2026-05-01T07:57:30Z</time></trkpt><trkpt lat="42.41983288932847" lon="14.220759265227626"><ele>62.0</ele><time>2026-05-01T07:57:31Z</time></trkpt><trkpt lat="42.41979532161582" lon="14.22089281567558"><ele>60.16666666666667</ele><time>2026-05-01T07:57:32Z</time></trkpt><trkpt lat="42.41975491612383" lon="14.22100001940523"><ele>58.333333333333336</ele><time>2026-05-01T07:57:33Z</time></trkpt><trkpt lat="42.41971779225552" lon="14.22107773199775"><ele>56.5</ele><time>2026-05-01T07:57:33.999Z</time></trkpt><trkpt lat="42.41963923239687" lon="14.221089917861313"><ele>54.66666666666667</ele><time>2026-05-01T07:57:36.999Z</time></trkpt><trkpt lat="42.419561754416954" lon="14.220984969765372"><ele>52.833333333333336</ele><time>2026-05-01T07:57:38.999Z</time></trkpt><trkpt lat="42.41950072656328" lon="14.22090610208727"><ele>51.0</ele><time>2026-05-01T07:57:39.999Z</time></trkpt><trkpt lat="42.419408515020145" lon="14.220832017683643"><ele>50.8</ele><time>2026-05-01T07:57:40.999Z</time></trkpt><trkpt lat="42.419286084353196" lon="14.220751813188933"><ele>50.599999999999994</ele><time>2026-05-01T07:57:41.999Z</time></trkpt><trkpt lat="42.419169217411095" lon="14.220670765691919"><ele>50.4</ele><time>2026-05-01T07:57:42.999Z</time></trkpt><trkpt lat="42.41908603560739" lon="14.220608793961828"><ele>50.2</ele><time>2026-05-01T07:57:43.999Z</time></trkpt><trkpt lat="42.41902870325203" lon="14.220529449255075"><ele>50.0</ele><time>2026-05-01T07:57:44.999Z</time></trkpt><trkpt lat="42.41898434550153" lon="14.220412915728234"><ele>50.333333333333336</ele><time>2026-05-01T07:57:45.999Z</time></trkpt><trkpt lat="42.41894007458072" lon="14.220338862783416"><ele>50.66666666666667</ele><time>2026-05-01T07:57:46.999Z</time></trkpt><trkpt lat="42.418875404864195" lon="14.220301333574808"><ele>51.0</ele><time>2026-05-01T07:57:47.999Z</time></trkpt><trkpt lat="42.41879029804338" lon="14.220277905607631"><ele>51.33333333333333</ele><time>2026-05-01T07:57:48.999Z</time></trkpt><trkpt lat="42.4187008883677" lon="14.220285150097787"><ele>51.666666666666664</ele><time>2026-05-01T07:57:49.999Z</time></trkpt><trkpt lat="42.41860419036824" lon="14.220302407896488"><ele>52.0</ele><time>2026-05-01T07:57:50.999Z</time></trkpt><trkpt lat="42.418517367133695" lon="14.220294025122943"><ele>52.0</ele><time>2026-05-01T07:57:51.999Z</time></trkpt><trkpt lat="42.41842530125725" lon="14.220251719373609"><ele>52.0</ele><time>2026-05-01T07:57:52.999Z</time></trkpt><trkpt lat="42.4183362856573" lon="14.220183630665728"><ele>52.0</ele><time>2026-05-01T07:57:53.999Z</time></trkpt><trkpt lat="42.41826084072574" lon="14.220093729288086"><ele>52.0</ele><time>2026-05-01T07:57:54.999Z</time></trkpt><trkpt lat="42.41819640210905" lon="14.219993769159158"><ele>52.0</ele><time>2026-05-01T07:57:55.999Z</time></trkpt><trkpt lat="42.41815087050061" lon="14.219866626769203"><ele>52.0</ele><time>2026-05-01T07:57:56.999Z</time></trkpt><trkpt lat="42.41810016091646" lon="14.219763535196813"><ele>52.0</ele><time>2026-05-01T07:57:57.999Z</time></trkpt><trkpt lat="42.41804230784402" lon="14.219700448484947"><ele>52.0</ele><time>2026-05-01T07:57:58.999Z</time></trkpt><trkpt lat="42.417991347174" lon="14.219645994648848"><ele>52.0</ele><time>2026-05-01T07:57:59.999Z</time></trkpt><trkpt lat="42.41786782549568" lon="14.219599497956226"><ele>52.0</ele><time>2026-05-01T07:58:00.999Z</time></trkpt><trkpt lat="42.41775543783745" lon="14.219556340234377"><ele>52.0</ele><time>2026-05-01T07:58:01.999Z</time></trkpt><trkpt lat="42.4176674711694" lon="14.2195433387126"><ele>52.0</ele><time>2026-05-01T07:58:02.999Z</time></trkpt><trkpt lat="42.41763203940429" lon="14.21945871433472"><ele>52.0</ele><time>2026-05-01T07:58:05.999Z</time></trkpt><trkpt lat="42.41764684538522" lon="14.219316589081648"><ele>52.0</ele><time>2026-05-01T07:58:07.999Z</time></trkpt><trkpt lat="42.41755918575894" lon="14.219268535662092"><ele>52.0</ele><time>2026-05-01T07:58:09.999Z</time></trkpt><trkpt lat="42.41745891121615" lon="14.219230034394355"><ele>52.0</ele><time>2026-05-01T07:58:11.999Z</time></trkpt><trkpt lat="42.417405617562544" lon="14.219182081097689"><ele>52.0</ele><time>2026-05-01T07:58:13.999Z</time></trkpt><trkpt lat="42.417341436101" lon="14.21910103249149"><ele>52.0</ele><time>2026-05-01T07:58:18.999Z</time></trkpt><trkpt lat="42.41727569077739" lon="14.21900816350936"><ele>52.0</ele><time>2026-05-01T07:58:21.999Z</time></trkpt><trkpt lat="42.41720638221953" lon="14.218906627041447"><ele>52.0</ele><time>2026-05-01T07:58:24.999Z</time></trkpt><trkpt lat="42.417144570598026" lon="14.21877812326693"><ele>52.666666666666664</ele><time>2026-05-01T07:58:26.999Z</time></trkpt><trkpt lat="42.4171076702278" lon="14.218706634313385"><ele>53.33333333333333</ele><time>2026-05-01T07:58:27.999Z</time></trkpt><trkpt lat="42.41702957456903" lon="14.218615652908705"><ele>54.0</ele><time>2026-05-01T07:58:30Z</time></trkpt><trkpt lat="42.416910202503836" lon="14.218542171367407"><ele>54.66666666666667</ele><time>2026-05-01T07:58:32Z</time></trkpt><trkpt lat="42.41684491977823" lon="14.2185173142664"><ele>55.333333333333336</ele><time>2026-05-01T07:58:33Z</time></trkpt><trkpt lat="42.41678193499905" lon="14.218479706955378"><ele>56.0</ele><time>2026-05-01T07:58:34Z</time></trkpt><trkpt lat="42.41673364398992" lon="14.218412111899294"><ele>56.0</ele><time>2026-05-01T07:58:35Z</time></trkpt><trkpt lat="42.41670604893128" lon="14.218322276040995"><ele>55.99999999999999</ele><time>2026-05-01T07:58:36Z</time></trkpt><trkpt lat="42.41667091366937" lon="14.218212204392096"><ele>55.99999999999999</ele><time>2026-05-01T07:58:37Z</time></trkpt><trkpt lat="42.4166210824418" lon="14.21808760647676"><ele>56.0</ele><time>2026-05-01T07:58:38Z</time></trkpt><trkpt lat="42.41656769437031" lon="14.217971764380502"><ele>56.0</ele><time>2026-05-01T07:58:39Z</time></trkpt><trkpt lat="42.41651221041208" lon="14.217862209885059"><ele>56.599999999999994</ele><time>2026-05-01T07:58:40Z</time></trkpt><trkpt lat="42.41644409252772" lon="14.217742994675648"><ele>57.199999999999996</ele><time>2026-05-01T07:58:41Z</time></trkpt><trkpt lat="42.41638415402114" lon="14.217635919027126"><ele>57.800000000000004</ele><time>2026-05-01T07:58:42Z</time></trkpt><trkpt lat="42.41632971107403" lon="14.217539411378015"><ele>58.400000000000006</ele><time>2026-05-01T07:58:43Z</time></trkpt><trkpt lat="42.416273996872874" lon="14.217439745340684"><ele>59.0</ele><time>2026-05-01T07:58:44Z</time></trkpt><trkpt lat="42.41620030720954" lon="14.217349198311613"><ele>58.800000000000004</ele><time>2026-05-01T07:58:45Z</time></trkpt><trkpt lat="42.41612106843167" lon="14.217255090914055"><ele>58.60000000000001</ele><time>2026-05-01T07:58:46Z</time></trkpt><trkpt lat="42.41603907714665" lon="14.217156854873421"><ele>58.4</ele><time>2026-05-01T07:58:47Z</time></trkpt><trkpt lat="42.41595665589976" lon="14.217069042830627"><ele>58.2</ele><time>2026-05-01T07:58:48Z</time></trkpt><trkpt lat="42.41588391504359" lon="14.216992108980607"><ele>58.0</ele><time>2026-05-01T07:58:49Z</time></trkpt><trkpt lat="42.415824822433514" lon="14.216916327109193"><ele>57.99999999999999</ele><time>2026-05-01T07:58:50Z</time></trkpt><trkpt lat="42.41579737969419" lon="14.216834908637022"><ele>58.0</ele><time>2026-05-01T07:58:51Z</time></trkpt><trkpt lat="42.41573422517308" lon="14.216765168715945"><ele>58.0</ele><time>2026-05-01T07:58:52Z</time></trkpt><trkpt lat="42.415632446092765" lon="14.216684855060256"><ele>58.0</ele><time>2026-05-01T07:58:54Z</time></trkpt><trkpt lat="42.415569626852715" lon="14.216665827172564"><ele>57.99999999999999</ele><time>2026-05-01T07:58:55Z</time></trkpt><trkpt lat="42.41549274708754" lon="14.216640172766745"><ele>58.0</ele><time>2026-05-01T07:58:56Z</time></trkpt><trkpt lat="42.41539864334037" lon="14.216582532255773"><ele>58.33333333333333</ele><time>2026-05-01T07:58:58Z</time></trkpt><trkpt lat="42.415351045164336" lon="14.216462183129124"><ele>58.666666666666664</ele><time>2026-05-01T07:59:00Z</time></trkpt><trkpt lat="42.415337355775726" lon="14.216376363169005"><ele>59.0</ele><time>2026-05-01T07:59:01Z</time></trkpt><trkpt lat="42.41529605587504" lon="14.216271711086424"><ele>59.33333333333333</ele><time>2026-05-01T07:59:02Z</time></trkpt><trkpt lat="42.41525411443361" lon="14.216198257050634"><ele>59.666666666666664</ele><time>2026-05-01T07:59:03Z</time></trkpt><trkpt lat="42.41521180087044" lon="14.21612760446671"><ele>60.0</ele><time>2026-05-01T07:59:04Z</time></trkpt><trkpt lat="42.41515546879461" lon="14.21606152893034"><ele>60.0</ele><time>2026-05-01T07:59:05Z</time></trkpt><trkpt lat="42.41510347088117" lon="14.216000925544352"><ele>60.0</ele><time>2026-05-01T07:59:06Z</time></trkpt><trkpt lat="42.41503810332706" lon="14.215935544876949"><ele>60.0</ele><time>2026-05-01T07:59:07Z</time></trkpt><trkpt lat="42.41497894560871" lon="14.215860530292444"><ele>60.0</ele><time>2026-05-01T07:59:08Z</time></trkpt><trkpt lat="42.41488955589743" lon="14.215792607498335"><ele>60.0</ele><time>2026-05-01T07:59:09Z</time></trkpt><trkpt lat="42.414841834655306" lon="14.215705229313388"><ele>60.0</ele><time>2026-05-01T07:59:10Z</time></trkpt><trkpt lat="42.414816793427576" lon="14.215600481731435"><ele>61.0</ele><time>2026-05-01T07:59:11Z</time></trkpt><trkpt lat="42.41480110773982" lon="14.2154697336736"><ele>62.0</ele><time>2026-05-01T07:59:12Z</time></trkpt><trkpt lat="42.414778527718184" lon="14.21529793197076"><ele>63.0</ele><time>2026-05-01T07:59:13Z</time></trkpt><trkpt lat="42.41474671720631" lon="14.215162198033731"><ele>64.0</ele><time>2026-05-01T07:59:14Z</time></trkpt><trkpt lat="42.41473541785903" lon="14.215069252795718"><ele>65.0</ele><time>2026-05-01T07:59:15Z</time></trkpt><trkpt lat="42.41471463797555" lon="14.214935755984435"><ele>65.2</ele><time>2026-05-01T07:59:17Z</time></trkpt><trkpt lat="42.41470956428068" lon="14.214817650021882"><ele>65.4</ele><time>2026-05-01T07:59:18.999Z</time></trkpt><trkpt lat="42.41472911612704" lon="14.214720074502118"><ele>65.6</ele><time>2026-05-01T07:59:20.999Z</time></trkpt><trkpt lat="42.41475105765665" lon="14.214573844961455"><ele>65.8</ele><time>2026-05-01T07:59:22.999Z</time></trkpt><trkpt lat="42.41471713239168" lon="14.214429086001083"><ele>66.0</ele><time>2026-05-01T07:59:24.999Z</time></trkpt><trkpt lat="42.41465388167651" lon="14.214289341853071"><ele>66.0</ele><time>2026-05-01T07:59:26.999Z</time></trkpt><trkpt lat="42.414598799702645" lon="14.214204980926214"><ele>66.0</ele><time>2026-05-01T07:59:27.999Z</time></trkpt><trkpt lat="42.414539858611434" lon="14.214113124235594"><ele>66.0</ele><time>2026-05-01T07:59:28.999Z</time></trkpt><trkpt lat="42.414486441284595" lon="14.214003803227055"><ele>66.0</ele><time>2026-05-01T07:59:29.999Z</time></trkpt><trkpt lat="42.414444713884684" lon="14.213903350302347"><ele>66.0</ele><time>2026-05-01T07:59:30.999Z</time></trkpt><trkpt lat="42.414407374177294" lon="14.213834364710944"><ele>66.0</ele><time>2026-05-01T07:59:31.999Z</time></trkpt><trkpt lat="42.414363413086804" lon="14.213681381471469"><ele>66.16666666666667</ele><time>2026-05-01T07:59:33.999Z</time></trkpt><trkpt lat="42.414386883873945" lon="14.213586089272187"><ele>66.33333333333333</ele><time>2026-05-01T07:59:34.999Z</time></trkpt><trkpt lat="42.41443460170204" lon="14.213490849250114"><ele>66.5</ele><time>2026-05-01T07:59:35.999Z</time></trkpt><trkpt lat="42.41449127013866" lon="14.213405043253486"><ele>66.66666666666666</ele><time>2026-05-01T07:59:36.999Z</time></trkpt><trkpt lat="42.414527606367876" lon="14.21333369694022"><ele>66.83333333333333</ele><time>2026-05-01T07:59:37.999Z</time></trkpt><trkpt lat="42.4145347776018" lon="14.21322905379901"><ele>67.0</ele><time>2026-05-01T07:59:38.999Z</time></trkpt><trkpt lat="42.41452939938257" lon="14.213086952724144"><ele>67.0</ele><time>2026-05-01T07:59:39.999Z</time></trkpt><trkpt lat="42.414514023615126" lon="14.212949549157232"><ele>67.0</ele><time>2026-05-01T07:59:40.999Z</time></trkpt><trkpt lat="42.41448399183411" lon="14.212813513011744"><ele>67.0</ele><time>2026-05-01T07:59:41.999Z</time></trkpt><trkpt lat="42.41445748442786" lon="14.212692906409522"><ele>67.0</ele><time>2026-05-01T07:59:42.999Z</time></trkpt><trkpt lat="42.41441904952947" lon="14.21259332984264"><ele>67.0</ele><time>2026-05-01T07:59:43.999Z</time></trkpt><trkpt lat="42.41437367652714" lon="14.212501989476316"><ele>67.0</ele><time>2026-05-01T07:59:44.999Z</time></trkpt><trkpt lat="42.41431500209549" lon="14.212406183598032"><ele>67.0</ele><time>2026-05-01T07:59:45.999Z</time></trkpt><trkpt lat="42.414282737503534" lon="14.212316411994127"><ele>67.0</ele><time>2026-05-01T07:59:46.999Z</time></trkpt><trkpt lat="42.41424263229268" lon="14.212210393454262"><ele>67.0</ele><time>2026-05-01T07:59:47.999Z</time></trkpt><trkpt lat="42.41419151543175" lon="14.21209576665924"><ele>67.0</ele><time>2026-05-01T07:59:48.999Z</time></trkpt><trkpt lat="42.414137982943636" lon="14.21197741090209"><ele>67.2</ele><time>2026-05-01T07:59:49.999Z</time></trkpt><trkpt lat="42.41409433401198" lon="14.211865610610515"><ele>67.4</ele><time>2026-05-01T07:59:50.999Z</time></trkpt><trkpt lat="42.4140575023064" lon="14.211758902870285"><ele>67.6</ele><time>2026-05-01T07:59:51.999Z</time></trkpt><trkpt lat="42.414020841338775" lon="14.211651513750647"><ele>67.8</ele><time>2026-05-01T07:59:52.999Z</time></trkpt><trkpt lat="42.41397796857465" lon="14.211538690791105"><ele>68.0</ele><time>2026-05-01T07:59:53.999Z</time></trkpt><trkpt lat="42.41392887598908" lon="14.211422188105125"><ele>68.6</ele><time>2026-05-01T07:59:54.999Z</time></trkpt><trkpt lat="42.41387667370384" lon="14.211295603210038"><ele>69.19999999999999</ele><time>2026-05-01T07:59:55.999Z</time></trkpt><trkpt lat="42.41382596160768" lon="14.211178121102568"><ele>69.8</ele><time>2026-05-01T07:59:56.999Z</time></trkpt><trkpt lat="42.41378717136048" lon="14.211065623874592"><ele>70.39999999999999</ele><time>2026-05-01T07:59:57.999Z</time></trkpt><trkpt lat="42.41374849864371" lon="14.210956917258734"><ele>71.0</ele><time>2026-05-01T07:59:58.999Z</time></trkpt><trkpt lat="42.41370562592013" lon="14.210846938319827"><ele>71.0</ele><time>2026-05-01T07:59:59.999Z</time></trkpt><trkpt lat="42.41369188019612" lon="14.210753840855084"><ele>71.0</ele><time>2026-05-01T08:00:00.999Z</time></trkpt><trkpt lat="42.413712954226085" lon="14.210599485650002"><ele>71.0</ele><time>2026-05-01T08:00:02.999Z</time></trkpt><trkpt lat="42.413712169225974" lon="14.210427819869354"><ele>71.0</ele><time>2026-05-01T08:00:04.999Z</time></trkpt><trkpt lat="42.41367929416502" lon="14.2103386744971"><ele>71.0</ele><time>2026-05-01T08:00:05.999Z</time></trkpt><trkpt lat="42.41363235849892" lon="14.21026131179248"><ele>71.16666666666667</ele><time>2026-05-01T08:00:06.999Z</time></trkpt><trkpt lat="42.41357637373551" lon="14.210168782912946"><ele>71.33333333333334</ele><time>2026-05-01T08:00:07.999Z</time></trkpt><trkpt lat="42.41351986802002" lon="14.21008501938468"><ele>71.5</ele><time>2026-05-01T08:00:08.999Z</time></trkpt><trkpt lat="42.41346025649972" lon="14.210038019308788"><ele>71.66666666666667</ele><time>2026-05-01T08:00:09.999Z</time></trkpt><trkpt lat="42.41338470226959" lon="14.209998425511715"><ele>71.83333333333333</ele><time>2026-05-01T08:00:10.999Z</time></trkpt><trkpt lat="42.413298685795745" lon="14.20995332353743"><ele>72.0</ele><time>2026-05-01T08:00:11.999Z</time></trkpt><trkpt lat="42.41322984385777" lon="14.209875936756596"><ele>72.0</ele><time>2026-05-01T08:00:13.999Z</time></trkpt><trkpt lat="42.41313731256341" lon="14.209890309065607"><ele>72.0</ele><time>2026-05-01T08:00:18.999Z</time></trkpt><trkpt lat="42.413058847625145" lon="14.209971679392433"><ele>72.0</ele><time>2026-05-01T08:00:20.999Z</time></trkpt><trkpt lat="42.41296165033436" lon="14.210039904194343"><ele>72.0</ele><time>2026-05-01T08:00:22.999Z</time></trkpt><trkpt lat="42.4128917968899" lon="14.210099104479571"><ele>72.0</ele><time>2026-05-01T08:00:23.999Z</time></trkpt><trkpt lat="42.41281883001891" lon="14.210147470448295"><ele>73.4</ele><time>2026-05-01T08:00:25.999Z</time></trkpt><trkpt lat="42.412817194913195" lon="14.210236065228418"><ele>74.80000000000001</ele><time>2026-05-01T08:00:30.999Z</time></trkpt><trkpt lat="42.4128468273435" lon="14.210322482712813"><ele>76.2</ele><time>2026-05-01T08:00:31.999Z</time></trkpt><trkpt lat="42.412876035591076" lon="14.210442869638433"><ele>77.60000000000001</ele><time>2026-05-01T08:00:32.999Z</time></trkpt><trkpt lat="42.41287057501691" lon="14.21058669203194"><ele>79.0</ele><time>2026-05-01T08:00:33.999Z</time></trkpt><trkpt lat="42.412871461383254" lon="14.21074652806029"><ele>80.0</ele><time>2026-05-01T08:00:34.999Z</time></trkpt><trkpt lat="42.41286503957813" lon="14.210913671732344"><ele>81.0</ele><time>2026-05-01T08:00:36Z</time></trkpt><trkpt lat="42.41285314583951" lon="14.211101618017146"><ele>82.0</ele><time>2026-05-01T08:00:37Z</time></trkpt><trkpt lat="42.412833925318274" lon="14.211289310348437"><ele>83.0</ele><time>2026-05-01T08:00:38Z</time></trkpt><trkpt lat="42.41283882926121" lon="14.211470384572339"><ele>82.75</ele><time>2026-05-01T08:00:39Z</time></trkpt><trkpt lat="42.41286686848937" lon="14.211668892628701"><ele>82.5</ele><time>2026-05-01T08:00:40Z</time></trkpt><trkpt lat="42.41289558757041" lon="14.211862643446652"><ele>82.25</ele><time>2026-05-01T08:00:41Z</time></trkpt><trkpt lat="42.41289715666488" lon="14.212034623710023"><ele>82.0</ele><time>2026-05-01T08:00:42Z</time></trkpt><trkpt lat="42.412929855583194" lon="14.212196304608867"><ele>83.5</ele><time>2026-05-01T08:00:43Z</time></trkpt><trkpt lat="42.41295807573488" lon="14.212354718031543"><ele>85.0</ele><time>2026-05-01T08:00:44Z</time></trkpt><trkpt lat="42.4129859210249" lon="14.212516368923993"><ele>86.5</ele><time>2026-05-01T08:00:45Z</time></trkpt><trkpt lat="42.41302534396555" lon="14.212669253627316"><ele>88.0</ele><time>2026-05-01T08:00:46Z</time></trkpt><trkpt lat="42.41308250871984" lon="14.212812028382041"><ele>84.75</ele><time>2026-05-01T08:00:47Z</time></trkpt><trkpt lat="42.4131311413162" lon="14.21296979491736"><ele>81.5</ele><time>2026-05-01T08:00:48Z</time></trkpt><trkpt lat="42.41316897619811" lon="14.213140404125761"><ele>78.25</ele><time>2026-05-01T08:00:49Z</time></trkpt><trkpt lat="42.41323204524035" lon="14.213294844012005"><ele>75.0</ele><time>2026-05-01T08:00:50Z</time></trkpt><trkpt lat="42.41327938158559" lon="14.213443097696903"><ele>75.0</ele><time>2026-05-01T08:00:51Z</time></trkpt><trkpt lat="42.41330503237442" lon="14.213585561965234"><ele>75.0</ele><time>2026-05-01T08:00:52Z</time></trkpt><trkpt lat="42.41333454082067" lon="14.21372109315075"><ele>75.0</ele><time>2026-05-01T08:00:53Z</time></trkpt><trkpt lat="42.413365334917714" lon="14.213861876906613"><ele>75.0</ele><time>2026-05-01T08:00:54Z</time></trkpt><trkpt lat="42.413379358269566" lon="14.214007632205702"><ele>75.0</ele><time>2026-05-01T08:00:55Z</time></trkpt><trkpt lat="42.413397876592335" lon="14.214143601323476"><ele>77.25</ele><time>2026-05-01T08:00:56Z</time></trkpt><trkpt lat="42.41342714321712" lon="14.214276528628154"><ele>79.5</ele><time>2026-05-01T08:00:57Z</time></trkpt><trkpt lat="42.413473975312606" lon="14.214418492794707"><ele>81.75</ele><time>2026-05-01T08:00:58Z</time></trkpt><trkpt lat="42.4135213304847" lon="14.214575320224727"><ele>84.0</ele><time>2026-05-01T08:00:59Z</time></trkpt><trkpt lat="42.41358822919459" lon="14.2147320635486"><ele>85.5</ele><time>2026-05-01T08:01:00Z</time></trkpt><trkpt lat="42.41366288496441" lon="14.214886829766284"><ele>87.0</ele><time>2026-05-01T08:01:01Z</time></trkpt><trkpt lat="42.41371661453687" lon="14.215044409891567"><ele>88.5</ele><time>2026-05-01T08:01:02Z</time></trkpt><trkpt lat="42.41377278731633" lon="14.215207770484628"><ele>90.0</ele><time>2026-05-01T08:01:03Z</time></trkpt><trkpt lat="42.41382990643789" lon="14.215389951232767"><ele>86.25</ele><time>2026-05-01T08:01:04Z</time></trkpt><trkpt lat="42.41389969762151" lon="14.215576311425918"><ele>82.5</ele><time>2026-05-01T08:01:05Z</time></trkpt><trkpt lat="42.41395523000704" lon="14.215751183076636"><ele>78.75</ele><time>2026-05-01T08:01:06Z</time></trkpt><trkpt lat="42.41402295623377" lon="14.215901346375302"><ele>75.0</ele><time>2026-05-01T08:01:07Z</time></trkpt><trkpt lat="42.414091635703215" lon="14.216042451895053"><ele>75.0</ele><time>2026-05-01T08:01:08Z</time></trkpt><trkpt lat="42.414153157819456" lon="14.216188266685412"><ele>75.0</ele><time>2026-05-01T08:01:09Z</time></trkpt><trkpt lat="42.414214292680576" lon="14.216342117386949"><ele>75.0</ele><time>2026-05-01T08:01:10Z</time></trkpt><trkpt lat="42.41427891320184" lon="14.216492209293985"><ele>75.0</ele><time>2026-05-01T08:01:11Z</time></trkpt><trkpt lat="42.414338446211964" lon="14.216623932477082"><ele>76.2</ele><time>2026-05-01T08:01:12Z</time></trkpt><trkpt lat="42.414385342087584" lon="14.21675351133806"><ele>77.4</ele><time>2026-05-01T08:01:13Z</time></trkpt><trkpt lat="42.41443722953766" lon="14.21688458767268"><ele>78.6</ele><time>2026-05-01T08:01:14Z</time></trkpt><trkpt lat="42.414481521518056" lon="14.217013777990912"><ele>79.8</ele><time>2026-05-01T08:01:15Z</time></trkpt><trkpt lat="42.4145192618143" lon="14.217135584361085"><ele>81.0</ele><time>2026-05-01T08:01:16Z</time></trkpt><trkpt lat="42.414520607741075" lon="14.217269477972508"><ele>83.19999999999999</ele><time>2026-05-01T08:01:17Z</time></trkpt><trkpt lat="42.41453229492021" lon="14.217416239453927"><ele>85.39999999999999</ele><time>2026-05-01T08:01:18Z</time></trkpt><trkpt lat="42.414540940091314" lon="14.217562222894497"><ele>87.6</ele><time>2026-05-01T08:01:19Z</time></trkpt><trkpt lat="42.41455538821453" lon="14.2176803280939"><ele>89.8</ele><time>2026-05-01T08:01:20Z</time></trkpt><trkpt lat="42.4145175775455" lon="14.217766383769046"><ele>92.0</ele><time>2026-05-01T08:01:21Z</time></trkpt><trkpt lat="42.41442762758369" lon="14.2178017989756"><ele>92.0</ele><time>2026-05-01T08:01:22Z</time></trkpt><trkpt lat="42.414344371560325" lon="14.217867079123652"><ele>92.0</ele><time>2026-05-01T08:01:23Z</time></trkpt><trkpt lat="42.41425459232517" lon="14.2179562984294"><ele>92.0</ele><time>2026-05-01T08:01:24Z</time></trkpt><trkpt lat="42.41416028869158" lon="14.218034984260958"><ele>92.0</ele><time>2026-05-01T08:01:25Z</time></trkpt><trkpt lat="42.41408536975015" lon="14.218149691690922"><ele>92.0</ele><time>2026-05-01T08:01:26Z</time></trkpt><trkpt lat="42.41403746381043" lon="14.218278312751291"><ele>90.83333333333334</ele><time>2026-05-01T08:01:27Z</time></trkpt><trkpt lat="42.41399365988134" lon="14.218397702530218"><ele>89.66666666666667</ele><time>2026-05-01T08:01:28Z</time></trkpt><trkpt lat="42.413951432885426" lon="14.218494737604948"><ele>88.5</ele><time>2026-05-01T08:01:29Z</time></trkpt><trkpt lat="42.41391558168475" lon="14.21856942356328"><ele>87.33333333333333</ele><time>2026-05-01T08:01:30Z</time></trkpt><trkpt lat="42.41384830575437" lon="14.218672538818987"><ele>86.16666666666666</ele><time>2026-05-01T08:01:32Z</time></trkpt><trkpt lat="42.4138026421369" lon="14.218759436776322"><ele>85.0</ele><time>2026-05-01T08:01:34Z</time></trkpt><trkpt lat="42.413720700293084" lon="14.218836135632364"><ele>85.2</ele><time>2026-05-01T08:01:36Z</time></trkpt><trkpt lat="42.41363546948143" lon="14.218917539441513"><ele>85.4</ele><time>2026-05-01T08:01:38Z</time></trkpt><trkpt lat="42.41355514090511" lon="14.21892461322652"><ele>85.6</ele><time>2026-05-01T08:01:42Z</time></trkpt><trkpt lat="42.41349106216462" lon="14.21894664469827"><ele>85.8</ele><time>2026-05-01T08:01:46Z</time></trkpt><trkpt lat="42.41343255584528" lon="14.219002964201293"><ele>86.0</ele><time>2026-05-01T08:01:49Z</time></trkpt><trkpt lat="42.41355031050103" lon="14.219571159725385"><ele>86.0</ele><time>2026-05-01T08:01:51Z</time></trkpt><trkpt lat="42.41355183037806" lon="14.219688485137189"><ele>86.0</ele><time>2026-05-01T08:01:54Z</time></trkpt><trkpt lat="42.4135597971127" lon="14.219804027729493"><ele>86.0</ele><time>2026-05-01T08:01:56Z</time></trkpt><trkpt lat="42.41356782250778" lon="14.219894128712143"><ele>86.0</ele><time>2026-05-01T08:01:57Z</time></trkpt><trkpt lat="42.41357451140717" lon="14.220000994093928"><ele>86.0</ele><time>2026-05-01T08:01:58Z</time></trkpt><trkpt lat="42.413588263743975" lon="14.220112059888137"><ele>86.0</ele><time>2026-05-01T08:01:58.999Z</time></trkpt><trkpt lat="42.41360135510706" lon="14.220215144758985"><ele>84.16666666666667</ele><time>2026-05-01T08:01:59.999Z</time></trkpt><trkpt lat="42.41361931278029" lon="14.220302115233663"><ele>82.33333333333334</ele><time>2026-05-01T08:02:00.999Z</time></trkpt><trkpt lat="42.41362324583908" lon="14.220403536670458"><ele>80.5</ele><time>2026-05-01T08:02:01.999Z</time></trkpt><trkpt lat="42.41361826766081" lon="14.220518463586577"><ele>78.66666666666667</ele><time>2026-05-01T08:02:02.999Z</time></trkpt><trkpt lat="42.413629017094664" lon="14.220630506133169"><ele>76.83333333333333</ele><time>2026-05-01T08:02:03.999Z</time></trkpt><trkpt lat="42.4136358851098" lon="14.220742741611494"><ele>75.0</ele><time>2026-05-01T08:02:04.999Z</time></trkpt><trkpt lat="42.41362567344691" lon="14.220866176741689"><ele>75.0</ele><time>2026-05-01T08:02:05.999Z</time></trkpt><trkpt lat="42.4135997584172" lon="14.220966640002318"><ele>75.0</ele><time>2026-05-01T08:02:06.999Z</time></trkpt><trkpt lat="42.41350982769565" lon="14.221060837173885"><ele>75.0</ele><time>2026-05-01T08:02:08.999Z</time></trkpt><trkpt lat="42.413399063726864" lon="14.221043100932782"><ele>75.0</ele><time>2026-05-01T08:02:10.999Z</time></trkpt><trkpt lat="42.41327702874487" lon="14.221064079248118"><ele>75.0</ele><time>2026-05-01T08:02:12.999Z</time></trkpt><trkpt lat="42.413243014197086" lon="14.221225783375443"><ele>75.0</ele><time>2026-05-01T08:02:14.999Z</time></trkpt><trkpt lat="42.413317780839584" lon="14.221325558323526"><ele>75.0</ele><time>2026-05-01T08:02:16.999Z</time></trkpt><trkpt lat="42.41338529675844" lon="14.221361344335415"><ele>75.0</ele><time>2026-05-01T08:02:17.999Z</time></trkpt><trkpt lat="42.41345582140971" lon="14.221370992142745"><ele>75.0</ele><time>2026-05-01T08:02:18.999Z</time></trkpt><trkpt lat="42.41352708630539" lon="14.221367769979722"><ele>75.0</ele><time>2026-05-01T08:02:19.999Z</time></trkpt><trkpt lat="42.41359395508193" lon="14.221383965586815"><ele>75.0</ele><time>2026-05-01T08:02:20.999Z</time></trkpt><trkpt lat="42.41367154180229" lon="14.221410705257721"><ele>75.0</ele><time>2026-05-01T08:02:21.999Z</time></trkpt><trkpt lat="42.413741768039955" lon="14.221462314346399"><ele>75.0</ele><time>2026-05-01T08:02:22.999Z</time></trkpt><trkpt lat="42.41381841672993" lon="14.221606247243772"><ele>75.0</ele><time>2026-05-01T08:02:24.999Z</time></trkpt><trkpt lat="42.413877851832055" lon="14.221707597053422"><ele>75.0</ele><time>2026-05-01T08:02:26.999Z</time></trkpt><trkpt lat="42.41396348388598" lon="14.221751403277585"><ele>75.0</ele><time>2026-05-01T08:02:28.999Z</time></trkpt><trkpt lat="42.41399605337434" lon="14.22187979964658"><ele>78.4</ele><time>2026-05-01T08:02:30.999Z</time></trkpt><trkpt lat="42.41403995771652" lon="14.221969205104088"><ele>81.8</ele><time>2026-05-01T08:02:31.999Z</time></trkpt><trkpt lat="42.414068988337256" lon="14.222131297586847"><ele>85.19999999999999</ele><time>2026-05-01T08:02:32.999Z</time></trkpt><trkpt lat="42.41409951783367" lon="14.222223118738864"><ele>88.6</ele><time>2026-05-01T08:02:33.999Z</time></trkpt><trkpt lat="42.414161673103145" lon="14.222274931123659"><ele>92.0</ele><time>2026-05-01T08:02:35.999Z</time></trkpt><trkpt lat="42.414274193915524" lon="14.222233084191698"><ele>92.0</ele><time>2026-05-01T08:02:37.999Z</time></trkpt><trkpt lat="42.41437804094148" lon="14.222267402320028"><ele>92.0</ele><time>2026-05-01T08:02:39.999Z</time></trkpt><trkpt lat="42.414423707130865" lon="14.222424703490354"><ele>92.0</ele><time>2026-05-01T08:02:42Z</time></trkpt><trkpt lat="42.41445822892877" lon="14.22253289472316"><ele>92.0</ele><time>2026-05-01T08:02:43Z</time></trkpt><trkpt lat="42.414477646620156" lon="14.222691682619608"><ele>92.0</ele><time>2026-05-01T08:02:45Z</time></trkpt><trkpt lat="42.41445213766712" lon="14.222896566586327"><ele>94.16666666666667</ele><time>2026-05-01T08:02:47Z</time></trkpt><trkpt lat="42.41444309796483" lon="14.223014766117684"><ele>96.33333333333334</ele><time>2026-05-01T08:02:48Z</time></trkpt><trkpt lat="42.41442251517889" lon="14.223120824998364"><ele>98.5</ele><time>2026-05-01T08:02:49Z</time></trkpt><trkpt lat="42.414391359663476" lon="14.223217328600876"><ele>100.66666666666667</ele><time>2026-05-01T08:02:50Z</time></trkpt><trkpt lat="42.414377794349825" lon="14.22332592730984"><ele>102.83333333333333</ele><time>2026-05-01T08:02:51Z</time></trkpt><trkpt lat="42.414346272203474" lon="14.223440778444596"><ele>105.0</ele><time>2026-05-01T08:02:52Z</time></trkpt><trkpt lat="42.41428615541698" lon="14.223592257622766"><ele>107.33333333333333</ele><time>2026-05-01T08:02:54Z</time></trkpt><trkpt lat="42.414238218397664" lon="14.22365785894016"><ele>109.66666666666666</ele><time>2026-05-01T08:02:57Z</time></trkpt><trkpt lat="42.41427850093392" lon="14.223777939165736"><ele>112.0</ele><time>2026-05-01T08:03:00Z</time></trkpt><trkpt lat="42.41433496573355" lon="14.22383811494899"><ele>114.33333333333333</ele><time>2026-05-01T08:03:01Z</time></trkpt><trkpt lat="42.414382927579666" lon="14.223898914369812"><ele>116.66666666666666</ele><time>2026-05-01T08:03:02Z</time></trkpt><trkpt lat="42.41442429506652" lon="14.224008421042022"><ele>119.0</ele><time>2026-05-01T08:03:04Z</time></trkpt><trkpt lat="42.41446442289844" lon="14.224128483756308"><ele>120.33333333333333</ele><time>2026-05-01T08:03:06Z</time></trkpt><trkpt lat="42.41456450480031" lon="14.224120631349347"><ele>121.66666666666666</ele><time>2026-05-01T08:03:08Z</time></trkpt><trkpt lat="42.41463670689595" lon="14.224111932310784"><ele>123.0</ele><time>2026-05-01T08:03:09Z</time></trkpt><trkpt lat="42.41471606206498" lon="14.224077440525427"><ele>124.33333333333334</ele><time>2026-05-01T08:03:10Z</time></trkpt><trkpt lat="42.4148000072149" lon="14.224010835379119"><ele>125.66666666666667</ele><time>2026-05-01T08:03:11Z</time></trkpt><trkpt lat="42.41488534142472" lon="14.223951346648686"><ele>127.0</ele><time>2026-05-01T08:03:12Z</time></trkpt><trkpt lat="42.41497222038778" lon="14.223880118885148"><ele>127.00000000000001</ele><time>2026-05-01T08:03:13Z</time></trkpt><trkpt lat="42.41503516738087" lon="14.223805401186242"><ele>127.0</ele><time>2026-05-01T08:03:14Z</time></trkpt><trkpt lat="42.41508305791432" lon="14.223714451720662"><ele>127.0</ele><time>2026-05-01T08:03:15Z</time></trkpt><trkpt lat="42.415138625690986" lon="14.22362286788532"><ele>127.0</ele><time>2026-05-01T08:03:16Z</time></trkpt><trkpt lat="42.41517921983318" lon="14.223541033111252"><ele>127.00000000000001</ele><time>2026-05-01T08:03:17Z</time></trkpt><trkpt lat="42.415254223007686" lon="14.22342792429641"><ele>127.0</ele><time>2026-05-01T08:03:19Z</time></trkpt><trkpt lat="42.41532406759918" lon="14.22335964647766"><ele>127.00000000000001</ele><time>2026-05-01T08:03:20Z</time></trkpt><trkpt lat="42.41544293808578" lon="14.223319397611274"><ele>127.0</ele><time>2026-05-01T08:03:22Z</time></trkpt><trkpt lat="42.41554774671199" lon="14.223357802863326"><ele>127.0</ele><time>2026-05-01T08:03:24Z</time></trkpt><trkpt lat="42.41560044863796" lon="14.223406823963218"><ele>127.0</ele><time>2026-05-01T08:03:25Z</time></trkpt><trkpt lat="42.41553974255361" lon="14.223474839599731"><ele>127.00000000000001</ele><time>2026-05-01T08:03:29Z</time></trkpt><trkpt lat="42.41547737880577" lon="14.223491150132586"><ele>127.0</ele><time>2026-05-01T08:03:30Z</time></trkpt><trkpt lat="42.41538816078994" lon="14.223517015377206"><ele>127.0</ele><time>2026-05-01T08:03:31Z</time></trkpt><trkpt lat="42.415304638617975" lon="14.22357013752666"><ele>126.99999999999999</ele><time>2026-05-01T08:03:32Z</time></trkpt><trkpt lat="42.4152816784146" lon="14.22370344007692"><ele>126.99999999999999</ele><time>2026-05-01T08:03:33Z</time></trkpt><trkpt lat="42.41522783855039" lon="14.223831649311036"><ele>127.0</ele><time>2026-05-01T08:03:34Z</time></trkpt><trkpt lat="42.41516914139006" lon="14.223966486906109"><ele>127.0</ele><time>2026-05-01T08:03:35Z</time></trkpt><trkpt lat="42.41514067126331" lon="14.2241475609608"><ele>131.2</ele><time>2026-05-01T08:03:36Z</time></trkpt><trkpt lat="42.415098343827644" lon="14.224258304343019"><ele>135.39999999999998</ele><time>2026-05-01T08:03:37Z</time></trkpt><trkpt lat="42.41504574693095" lon="14.224329390684568"><ele>139.60000000000002</ele><time>2026-05-01T08:03:38Z</time></trkpt><trkpt lat="42.414960690801216" lon="14.224421292143784"><ele>143.8</ele><time>2026-05-01T08:03:39Z</time></trkpt><trkpt lat="42.41486022346653" lon="14.224519097615964"><ele>148.0</ele><time>2026-05-01T08:03:40Z</time></trkpt><trkpt lat="42.41476484348042" lon="14.224634874014036"><ele>148.0</ele><time>2026-05-01T08:03:41Z</time></trkpt><trkpt lat="42.41468292973091" lon="14.224715486036716"><ele>148.0</ele><time>2026-05-01T08:03:42Z</time></trkpt><trkpt lat="42.4146021957581" lon="14.22478626779655"><ele>148.0</ele><time>2026-05-01T08:03:43Z</time></trkpt><trkpt lat="42.414533085394574" lon="14.224854640875886"><ele>148.0</ele><time>2026-05-01T08:03:44Z</time></trkpt><trkpt lat="42.41446938432687" lon="14.224919931075739"><ele>148.0</ele><time>2026-05-01T08:03:45Z</time></trkpt><trkpt lat="42.41442736331498" lon="14.225026446404025"><ele>148.66666666666669</ele><time>2026-05-01T08:03:46Z</time></trkpt><trkpt lat="42.41442620424953" lon="14.225132694381474"><ele>149.33333333333334</ele><time>2026-05-01T08:03:47Z</time></trkpt><trkpt lat="42.414456348575094" lon="14.225226261095404"><ele>150.0</ele><time>2026-05-01T08:03:49Z</time></trkpt><trkpt lat="42.41449120172225" lon="14.22535547755925"><ele>150.66666666666666</ele><time>2026-05-01T08:03:51Z</time></trkpt><trkpt lat="42.41452111719243" lon="14.225434460754776"><ele>151.33333333333331</ele><time>2026-05-01T08:03:52Z</time></trkpt><trkpt lat="42.41455894723981" lon="14.225509656884086"><ele>152.0</ele><time>2026-05-01T08:03:53Z</time></trkpt><trkpt lat="42.41460500225811" lon="14.225590761108132"><ele>153.5</ele><time>2026-05-01T08:03:54Z</time></trkpt><trkpt lat="42.414647843997976" lon="14.225679798328818"><ele>155.0</ele><time>2026-05-01T08:03:55Z</time></trkpt><trkpt lat="42.414690025866754" lon="14.225745065049324"><ele>156.5</ele><time>2026-05-01T08:03:56Z</time></trkpt><trkpt lat="42.41472665943499" lon="14.22589800560831"><ele>158.0</ele><time>2026-05-01T08:03:58Z</time></trkpt><trkpt lat="42.414719866464026" lon="14.226025561626392"><ele>159.5</ele><time>2026-05-01T08:04:00Z</time></trkpt><trkpt lat="42.41464319113312" lon="14.226094259691337"><ele>161.0</ele><time>2026-05-01T08:04:02Z</time></trkpt><trkpt lat="42.41457749364441" lon="14.226097485554"><ele>161.0</ele><time>2026-05-01T08:04:03Z</time></trkpt><trkpt lat="42.41450273151233" lon="14.226064043534778"><ele>161.0</ele><time>2026-05-01T08:04:04Z</time></trkpt><trkpt lat="42.41440654752843" lon="14.226047204285631"><ele>161.0</ele><time>2026-05-01T08:04:05Z</time></trkpt><trkpt lat="42.41430005865422" lon="14.226060383078403"><ele>161.0</ele><time>2026-05-01T08:04:07Z</time></trkpt><trkpt lat="42.41422143663092" lon="14.2261618223562"><ele>161.0</ele><time>2026-05-01T08:04:09Z</time></trkpt><trkpt lat="42.41419486249285" lon="14.226247801926924"><ele>161.0</ele><time>2026-05-01T08:04:10Z</time></trkpt><trkpt lat="42.41416724861932" lon="14.226381563082606"><ele>161.0</ele><time>2026-05-01T08:04:11Z</time></trkpt><trkpt lat="42.41413200573947" lon="14.226518083271618"><ele>161.0</ele><time>2026-05-01T08:04:12Z</time></trkpt><trkpt lat="42.4140853395236" lon="14.226693130127058"><ele>161.0</ele><time>2026-05-01T08:04:13Z</time></trkpt><trkpt lat="42.414055119820866" lon="14.226845490869632"><ele>162.20000000000002</ele><time>2026-05-01T08:04:14Z</time></trkpt><trkpt lat="42.41401523536998" lon="14.226965014409958"><ele>163.4</ele><time>2026-05-01T08:04:15Z</time></trkpt><trkpt lat="42.41396906197456" lon="14.227103984395152"><ele>164.6</ele><time>2026-05-01T08:04:16Z</time></trkpt><trkpt lat="42.41392429365644" lon="14.227238485750949"><ele>165.8</ele><time>2026-05-01T08:04:17Z</time></trkpt><trkpt lat="42.41388425162189" lon="14.227374666494923"><ele>167.0</ele><time>2026-05-01T08:04:18Z</time></trkpt><trkpt lat="42.4138518620566" lon="14.227481534951842"><ele>167.33333333333331</ele><time>2026-05-01T08:04:19Z</time></trkpt><trkpt lat="42.4138176900861" lon="14.22758396633207"><ele>167.66666666666666</ele><time>2026-05-01T08:04:20Z</time></trkpt><trkpt lat="42.41378451048396" lon="14.227708681118933"><ele>168.0</ele><time>2026-05-01T08:04:22Z</time></trkpt><trkpt lat="42.41380441151779" lon="14.227802406570794"><ele>168.33333333333334</ele><time>2026-05-01T08:04:26Z</time></trkpt><trkpt lat="42.41389286143685" lon="14.227847386461427"><ele>168.66666666666669</ele><time>2026-05-01T08:04:29Z</time></trkpt><trkpt lat="42.413982825227926" lon="14.227892432016771"><ele>169.0</ele><time>2026-05-01T08:04:30.999Z</time></trkpt><trkpt lat="42.414078371569225" lon="14.227954212417318"><ele>169.0</ele><time>2026-05-01T08:04:32.999Z</time></trkpt><trkpt lat="42.41418501646738" lon="14.228015204670694"><ele>169.0</ele><time>2026-05-01T08:04:34.999Z</time></trkpt><trkpt lat="42.41425045623347" lon="14.228055732916463"><ele>169.0</ele><time>2026-05-01T08:04:35.999Z</time></trkpt><trkpt lat="42.41434109380966" lon="14.228103048667412"><ele>169.0</ele><time>2026-05-01T08:04:36.999Z</time></trkpt><trkpt lat="42.41443806822554" lon="14.228151942115229"><ele>169.0</ele><time>2026-05-01T08:04:37.999Z</time></trkpt><trkpt lat="42.41455109376552" lon="14.228221551399901"><ele>169.25</ele><time>2026-05-01T08:04:38.999Z</time></trkpt><trkpt lat="42.41466449642972" lon="14.228324582340143"><ele>169.5</ele><time>2026-05-01T08:04:39.999Z</time></trkpt><trkpt lat="42.41478125221111" lon="14.228454094733447"><ele>169.75</ele><time>2026-05-01T08:04:40.999Z</time></trkpt><trkpt lat="42.41490647134774" lon="14.228584600046975"><ele>170.0</ele><time>2026-05-01T08:04:41.999Z</time></trkpt><trkpt lat="42.4150355525057" lon="14.228709484243879"><ele>170.0</ele><time>2026-05-01T08:04:42.999Z</time></trkpt><trkpt lat="42.41517648649954" lon="14.228849051295908"><ele>170.0</ele><time>2026-05-01T08:04:43.999Z</time></trkpt><trkpt lat="42.41532252415362" lon="14.22900489269168"><ele>170.0</ele><time>2026-05-01T08:04:44.999Z</time></trkpt><trkpt lat="42.415468434369984" lon="14.229165090505251"><ele>169.33333333333331</ele><time>2026-05-01T08:04:45.999Z</time></trkpt><trkpt lat="42.415613623201004" lon="14.229320512306177"><ele>168.66666666666666</ele><time>2026-05-01T08:04:47.001Z</time></trkpt><trkpt lat="42.415745607092354" lon="14.229462842195707"><ele>168.0</ele><time>2026-05-01T08:04:48.001Z</time></trkpt><trkpt lat="42.41586600160394" lon="14.229592614968269"><ele>168.0</ele><time>2026-05-01T08:04:49.001Z</time></trkpt><trkpt lat="42.41598676893421" lon="14.22972761015322"><ele>168.0</ele><time>2026-05-01T08:04:50.001Z</time></trkpt><trkpt lat="42.41610261497481" lon="14.22986021472471"><ele>168.0</ele><time>2026-05-01T08:04:51.001Z</time></trkpt><trkpt lat="42.41620964943093" lon="14.229981417208291"><ele>168.0</ele><time>2026-05-01T08:04:52.001Z</time></trkpt><trkpt lat="42.41630604820347" lon="14.230097918061855"><ele>166.75</ele><time>2026-05-01T08:04:53.001Z</time></trkpt><trkpt lat="42.41638863123583" lon="14.230204093364943"><ele>165.5</ele><time>2026-05-01T08:04:54.001Z</time></trkpt><trkpt lat="42.41646863804703" lon="14.230314537136907"><ele>164.25</ele><time>2026-05-01T08:04:55.001Z</time></trkpt><trkpt lat="42.416552502244976" lon="14.23043565530158"><ele>163.0</ele><time>2026-05-01T08:04:56.001Z</time></trkpt><trkpt lat="42.41663083065121" lon="14.23055723818019"><ele>164.0</ele><time>2026-05-01T08:04:57.001Z</time></trkpt><trkpt lat="42.41670030994785" lon="14.230671387607687"><ele>165.0</ele><time>2026-05-01T08:04:58Z</time></trkpt><trkpt lat="42.41677012350298" lon="14.230787038374064"><ele>166.0</ele><time>2026-05-01T08:04:59Z</time></trkpt><trkpt lat="42.41684050667245" lon="14.230912231223568"><ele>167.0</ele><time>2026-05-01T08:05:00Z</time></trkpt><trkpt lat="42.41689574207452" lon="14.231023763156186"><ele>168.0</ele><time>2026-05-01T08:05:01Z</time></trkpt><trkpt lat="42.416942334875124" lon="14.231102615518353"><ele>168.0</ele><time>2026-05-01T08:05:02Z</time></trkpt><trkpt lat="42.41699967532707" lon="14.231220428160752"><ele>168.0</ele><time>2026-05-01T08:05:04Z</time></trkpt><trkpt lat="42.41682300860446" lon="14.231355451712595"><ele>168.0</ele><time>2026-05-01T08:05:07Z</time></trkpt><trkpt lat="42.416720709198536" lon="14.231455421381149"><ele>168.0</ele><time>2026-05-01T08:05:08Z</time></trkpt><trkpt lat="42.41660650844189" lon="14.231542581582172"><ele>168.25</ele><time>2026-05-01T08:05:09Z</time></trkpt><trkpt lat="42.41649504463756" lon="14.23160804190448"><ele>168.5</ele><time>2026-05-01T08:05:10Z</time></trkpt><trkpt lat="42.416392405833776" lon="14.231708327150397"><ele>168.75</ele><time>2026-05-01T08:05:11Z</time></trkpt><trkpt lat="42.416286713281934" lon="14.231789143594183"><ele>169.0</ele><time>2026-05-01T08:05:12Z</time></trkpt><trkpt lat="42.41618768844201" lon="14.23186842746633"><ele>169.0</ele><time>2026-05-01T08:05:13Z</time></trkpt><trkpt lat="42.4160911338696" lon="14.231945883854038"><ele>169.0</ele><time>2026-05-01T08:05:14Z</time></trkpt><trkpt lat="42.41598959511146" lon="14.232015791593424"><ele>169.0</ele><time>2026-05-01T08:05:15Z</time></trkpt><trkpt lat="42.41588715568037" lon="14.232097684445334"><ele>169.0</ele><time>2026-05-01T08:05:16Z</time></trkpt><trkpt lat="42.41578479415733" lon="14.232175684137392"><ele>169.0</ele><time>2026-05-01T08:05:17Z</time></trkpt><trkpt lat="42.415687646296384" lon="14.232248462424478"><ele>169.0</ele><time>2026-05-01T08:05:18Z</time></trkpt><trkpt lat="42.415599119136154" lon="14.23231283628915"><ele>169.0</ele><time>2026-05-01T08:05:19Z</time></trkpt><trkpt lat="42.415507702121374" lon="14.232356190070993"><ele>169.0</ele><time>2026-05-01T08:05:20Z</time></trkpt><trkpt lat="42.41542399939016" lon="14.232415492716603"><ele>169.0</ele><time>2026-05-01T08:05:21Z</time></trkpt><trkpt lat="42.41534476507595" lon="14.23248674299458"><ele>167.39999999999998</ele><time>2026-05-01T08:05:22Z</time></trkpt><trkpt lat="42.41526228710388" lon="14.232556514053082"><ele>165.8</ele><time>2026-05-01T08:05:23Z</time></trkpt><trkpt lat="42.41517436849302" lon="14.232617269398466"><ele>164.2</ele><time>2026-05-01T08:05:24Z</time></trkpt><trkpt lat="42.41508930383051" lon="14.232682467105992"><ele>162.60000000000002</ele><time>2026-05-01T08:05:25Z</time></trkpt><trkpt lat="42.41499539765171" lon="14.232714427493438"><ele>161.0</ele><time>2026-05-01T08:05:26Z</time></trkpt><trkpt lat="42.41490849564567" lon="14.23273680631729"><ele>161.0</ele><time>2026-05-01T08:05:27Z</time></trkpt><trkpt lat="42.41483544136185" lon="14.232745362711897"><ele>161.0</ele><time>2026-05-01T08:05:28Z</time></trkpt><trkpt lat="42.41474292653307" lon="14.2327578849539"><ele>161.0</ele><time>2026-05-01T08:05:30Z</time></trkpt><trkpt lat="42.414862413674236" lon="14.23257758404916"><ele>161.0</ele><time>2026-05-01T08:05:35Z</time></trkpt><trkpt lat="42.414897079131926" lon="14.232478452285951"><ele>161.0</ele><time>2026-05-01T08:05:36Z</time></trkpt><trkpt lat="42.41491630582412" lon="14.232379106117655"><ele>160.66666666666666</ele><time>2026-05-01T08:05:37Z</time></trkpt><trkpt lat="42.414920685166514" lon="14.2322771643885"><ele>160.33333333333331</ele><time>2026-05-01T08:05:38Z</time></trkpt><trkpt lat="42.41490707645523" lon="14.232180273093535"><ele>160.0</ele><time>2026-05-01T08:05:39Z</time></trkpt><trkpt lat="42.41487014632829" lon="14.232096727873284"><ele>159.66666666666666</ele><time>2026-05-01T08:05:40Z</time></trkpt><trkpt lat="42.4148083164175" lon="14.23200303226731"><ele>159.33333333333334</ele><time>2026-05-01T08:05:41Z</time></trkpt><trkpt lat="42.41475404061384" lon="14.231909847227689"><ele>159.0</ele><time>2026-05-01T08:05:42Z</time></trkpt><trkpt lat="42.41470253392726" lon="14.2318060518063"><ele>159.0</ele><time>2026-05-01T08:05:43Z</time></trkpt><trkpt lat="42.41469200712682" lon="14.231698294343275"><ele>159.0</ele><time>2026-05-01T08:05:44Z</time></trkpt><trkpt lat="42.41467028593808" lon="14.231550090882575"><ele>159.0</ele><time>2026-05-01T08:05:45Z</time></trkpt><trkpt lat="42.41464793615829" lon="14.231360959681949"><ele>159.0</ele><time>2026-05-01T08:05:46Z</time></trkpt><trkpt lat="42.414627658430724" lon="14.231188825532127"><ele>155.2</ele><time>2026-05-01T08:05:47Z</time></trkpt><trkpt lat="42.41462260432048" lon="14.231053717935863"><ele>151.4</ele><time>2026-05-01T08:05:48Z</time></trkpt><trkpt lat="42.41461295818395" lon="14.23094594371112"><ele>147.6</ele><time>2026-05-01T08:05:49Z</time></trkpt><trkpt lat="42.41462231590167" lon="14.230792282772974"><ele>143.8</ele><time>2026-05-01T08:05:51Z</time></trkpt><trkpt lat="42.41462533801578" lon="14.230638526662663"><ele>140.0</ele><time>2026-05-01T08:05:53Z</time></trkpt><trkpt lat="42.41460707778479" lon="14.2305483261422"><ele>140.0</ele><time>2026-05-01T08:05:54Z</time></trkpt><trkpt lat="42.41459851808754" lon="14.230453249295522"><ele>140.0</ele><time>2026-05-01T08:05:55Z</time></trkpt><trkpt lat="42.41458956648195" lon="14.230356498540264"><ele>140.0</ele><time>2026-05-01T08:05:56Z</time></trkpt><trkpt lat="42.41457305895666" lon="14.230252724125924"><ele>140.0</ele><time>2026-05-01T08:05:57Z</time></trkpt><trkpt lat="42.41454886366373" lon="14.230139793075063"><ele>140.0</ele><time>2026-05-01T08:05:58Z</time></trkpt><trkpt lat="42.41453224706408" lon="14.230029417765902"><ele>140.0</ele><time>2026-05-01T08:05:59Z</time></trkpt><trkpt lat="42.414517184702525" lon="14.229929781508927"><ele>140.0</ele><time>2026-05-01T08:06:00Z</time></trkpt><trkpt lat="42.41449502671689" lon="14.22984173713748"><ele>140.0</ele><time>2026-05-01T08:06:01Z</time></trkpt><trkpt lat="42.41447279747234" lon="14.229754900926286"><ele>140.0</ele><time>2026-05-01T08:06:02Z</time></trkpt><trkpt lat="42.4144571587091" lon="14.229669817545835"><ele>140.0</ele><time>2026-05-01T08:06:03Z</time></trkpt><trkpt lat="42.41442723431382" lon="14.229575215039059"><ele>140.0</ele><time>2026-05-01T08:06:04Z</time></trkpt><trkpt lat="42.414401331686825" lon="14.22949373849365"><ele>140.0</ele><time>2026-05-01T08:06:05Z</time></trkpt><trkpt lat="42.41435951775475" lon="14.229422137351738"><ele>140.0</ele><time>2026-05-01T08:06:06Z</time></trkpt><trkpt lat="42.414247657184546" lon="14.22937677316033"><ele>142.33333333333331</ele><time>2026-05-01T08:06:08Z</time></trkpt><trkpt lat="42.41417046687637" lon="14.229376912513313"><ele>144.66666666666666</ele><time>2026-05-01T08:06:09Z</time></trkpt><trkpt lat="42.41409975641321" lon="14.229373640915803"><ele>147.0</ele><time>2026-05-01T08:06:10Z</time></trkpt><trkpt lat="42.41403333235368" lon="14.229390502047702"><ele>149.33333333333334</ele><time>2026-05-01T08:06:11Z</time></trkpt><trkpt lat="42.41396006401697" lon="14.22942942498858"><ele>151.66666666666669</ele><time>2026-05-01T08:06:12Z</time></trkpt><trkpt lat="42.413899870402766" lon="14.229462403475658"><ele>154.0</ele><time>2026-05-01T08:06:13Z</time></trkpt><trkpt lat="42.41381173408184" lon="14.22953690232808"><ele>152.5</ele><time>2026-05-01T08:06:15Z</time></trkpt><trkpt lat="42.41378913211926" lon="14.229687119901657"><ele>151.0</ele><time>2026-05-01T08:06:17Z</time></trkpt><trkpt lat="42.41381119378736" lon="14.229814171362017"><ele>149.5</ele><time>2026-05-01T08:06:18Z</time></trkpt><trkpt lat="42.41384424172855" lon="14.229994733697371"><ele>148.0</ele><time>2026-05-01T08:06:19Z</time></trkpt><trkpt lat="42.41386639399531" lon="14.23017733145584"><ele>146.0</ele><time>2026-05-01T08:06:20Z</time></trkpt><trkpt lat="42.41388468354359" lon="14.23035449308727"><ele>144.0</ele><time>2026-05-01T08:06:21Z</time></trkpt><trkpt lat="42.41389837115042" lon="14.230515502792109"><ele>142.0</ele><time>2026-05-01T08:06:22Z</time></trkpt><trkpt lat="42.41390240547796" lon="14.230683121027589"><ele>140.0</ele><time>2026-05-01T08:06:23Z</time></trkpt><trkpt lat="42.4138967283916" lon="14.230857984183624"><ele>139.66666666666666</ele><time>2026-05-01T08:06:24Z</time></trkpt><trkpt lat="42.41389560910475" lon="14.231041497664966"><ele>139.33333333333334</ele><time>2026-05-01T08:06:25Z</time></trkpt><trkpt lat="42.413894258479445" lon="14.231255416086618"><ele>139.0</ele><time>2026-05-01T08:06:26Z</time></trkpt><trkpt lat="42.41389276858783" lon="14.231468400291433"><ele>137.75</ele><time>2026-05-01T08:06:27Z</time></trkpt><trkpt lat="42.413896507182336" lon="14.231656870464464"><ele>136.5</ele><time>2026-05-01T08:06:28Z</time></trkpt><trkpt lat="42.41390427428185" lon="14.231844754744094"><ele>135.25</ele><time>2026-05-01T08:06:29Z</time></trkpt><trkpt lat="42.41390425975444" lon="14.232024224097064"><ele>134.0</ele><time>2026-05-01T08:06:30Z</time></trkpt><trkpt lat="42.41389890864582" lon="14.232192936696382"><ele>136.0</ele><time>2026-05-01T08:06:31Z</time></trkpt><trkpt lat="42.41389324526239" lon="14.232348106846686"><ele>138.0</ele><time>2026-05-01T08:06:32Z</time></trkpt><trkpt lat="42.41386413335068" lon="14.232471194655663"><ele>140.0</ele><time>2026-05-01T08:06:33Z</time></trkpt><trkpt lat="42.41385030901501" lon="14.232588114214144"><ele>142.0</ele><time>2026-05-01T08:06:34Z</time></trkpt><trkpt lat="42.413821738500374" lon="14.232729549476662"><ele>144.0</ele><time>2026-05-01T08:06:36Z</time></trkpt><trkpt lat="42.41380375901913" lon="14.232815486076667"><ele>144.83333333333334</ele><time>2026-05-01T08:06:37Z</time></trkpt><trkpt lat="42.41373934531844" lon="14.232852047226425"><ele>145.66666666666666</ele><time>2026-05-01T08:06:38Z</time></trkpt><trkpt lat="42.41370094901817" lon="14.232939498004479"><ele>146.5</ele><time>2026-05-01T08:06:39Z</time></trkpt><trkpt lat="42.41366836506995" lon="14.233013710825729"><ele>147.33333333333331</ele><time>2026-05-01T08:06:40Z</time></trkpt><trkpt lat="42.41361487716306" lon="14.233156381913982"><ele>148.16666666666666</ele><time>2026-05-01T08:06:42Z</time></trkpt><trkpt lat="42.4135905568244" lon="14.233240773874165"><ele>149.0</ele><time>2026-05-01T08:06:43Z</time></trkpt><trkpt lat="42.4139249371579" lon="14.23360276043492"><ele>149.0</ele><time>2026-05-01T08:06:44Z</time></trkpt><trkpt lat="42.4139485134287" lon="14.23368876236952"><ele>149.0</ele><time>2026-05-01T08:06:45Z</time></trkpt><trkpt lat="42.4139804371474" lon="14.233781733080757"><ele>149.0</ele><time>2026-05-01T08:06:46Z</time></trkpt><trkpt lat="42.414015877864855" lon="14.233873638518746"><ele>149.0</ele><time>2026-05-01T08:06:47Z</time></trkpt><trkpt lat="42.41404100967044" lon="14.23395720220751"><ele>149.0</ele><time>2026-05-01T08:06:48Z</time></trkpt><trkpt lat="42.41406329009368" lon="14.234040902408594"><ele>149.0</ele><time>2026-05-01T08:06:49Z</time></trkpt><trkpt lat="42.4140717518923" lon="14.234128955866451"><ele>149.0</ele><time>2026-05-01T08:06:50Z</time></trkpt><trkpt lat="42.41407448383337" lon="14.234219190942758"><ele>146.66666666666666</ele><time>2026-05-01T08:06:50.999Z</time></trkpt><trkpt lat="42.41407457075987" lon="14.234316272217898"><ele>144.33333333333331</ele><time>2026-05-01T08:06:51.999Z</time></trkpt><trkpt lat="42.41408153065967" lon="14.234429953913667"><ele>142.0</ele><time>2026-05-01T08:06:53.001Z</time></trkpt><trkpt lat="42.41408199897332" lon="14.234555029439225"><ele>139.66666666666666</ele><time>2026-05-01T08:06:54.001Z</time></trkpt><trkpt lat="42.41408884346625" lon="14.234671980488104"><ele>137.33333333333334</ele><time>2026-05-01T08:06:55.001Z</time></trkpt><trkpt lat="42.41408370531656" lon="14.2348132325557"><ele>135.0</ele><time>2026-05-01T08:06:56.001Z</time></trkpt><trkpt lat="42.41408250831452" lon="14.234967019286946"><ele>131.8</ele><time>2026-05-01T08:06:57.001Z</time></trkpt><trkpt lat="42.414090865252405" lon="14.23511140458398"><ele>128.6</ele><time>2026-05-01T08:06:58.001Z</time></trkpt><trkpt lat="42.414099958589475" lon="14.235229531105864"><ele>125.4</ele><time>2026-05-01T08:06:59.001Z</time></trkpt><trkpt lat="42.41422419476498" lon="14.235339149857555"><ele>122.2</ele><time>2026-05-01T08:07:00.001Z</time></trkpt><trkpt lat="42.41423012803707" lon="14.235448742431375"><ele>119.0</ele><time>2026-05-01T08:07:01.001Z</time></trkpt><trkpt lat="42.414235936131256" lon="14.235550811650148"><ele>117.71428571428571</ele><time>2026-05-01T08:07:02.001Z</time></trkpt><trkpt lat="42.41424192715615" lon="14.235646474380673"><ele>116.42857142857143</ele><time>2026-05-01T08:07:03.001Z</time></trkpt><trkpt lat="42.41424913105215" lon="14.23574919829171"><ele>115.14285714285714</ele><time>2026-05-01T08:07:04.001Z</time></trkpt><trkpt lat="42.414255391678005" lon="14.23583789707411"><ele>113.85714285714286</ele><time>2026-05-01T08:07:05.001Z</time></trkpt><trkpt lat="42.41426268027656" lon="14.235933200981497"><ele>112.57142857142857</ele><time>2026-05-01T08:07:06.001Z</time></trkpt><trkpt lat="42.414269744217876" lon="14.236025567364461"><ele>111.28571428571428</ele><time>2026-05-01T08:07:07.001Z</time></trkpt><trkpt lat="42.414277275804075" lon="14.236116944585039"><ele>110.0</ele><time>2026-05-01T08:07:09.001Z</time></trkpt><trkpt lat="42.41406121995712" lon="14.236102293914605"><ele>109.99999999999999</ele><time>2026-05-01T08:07:13.001Z</time></trkpt><trkpt lat="42.41402477701789" lon="14.23603177338945"><ele>110.0</ele><time>2026-05-01T08:07:14.001Z</time></trkpt><trkpt lat="42.41398892866971" lon="14.235952325499133"><ele>110.0</ele><time>2026-05-01T08:07:15Z</time></trkpt><trkpt lat="42.41391411550565" lon="14.235825354006195"><ele>110.0</ele><time>2026-05-01T08:07:17Z</time></trkpt><trkpt lat="42.41387147098711" lon="14.235753023225413"><ele>109.99999999999999</ele><time>2026-05-01T08:07:18Z</time></trkpt><trkpt lat="42.4137952084304" lon="14.235635434823424"><ele>110.0</ele><time>2026-05-01T08:07:20Z</time></trkpt><trkpt lat="42.41368320061355" lon="14.235599642555298"><ele>107.83333333333333</ele><time>2026-05-01T08:07:22Z</time></trkpt><trkpt lat="42.41361239116777" lon="14.235602206249984"><ele>105.66666666666666</ele><time>2026-05-01T08:07:23Z</time></trkpt><trkpt lat="42.4135188286163" lon="14.235544020755889"><ele>103.5</ele><time>2026-05-01T08:07:25Z</time></trkpt><trkpt lat="42.41348200516737" lon="14.235460701295919"><ele>101.33333333333334</ele><time>2026-05-01T08:07:26Z</time></trkpt><trkpt lat="42.41343976575738" lon="14.235392142112861"><ele>99.16666666666667</ele><time>2026-05-01T08:07:27Z</time></trkpt><trkpt lat="42.41338884359255" lon="14.235338283331707"><ele>97.0</ele><time>2026-05-01T08:07:28Z</time></trkpt><trkpt lat="42.41328627187527" lon="14.235290782447741"><ele>97.00000000000001</ele><time>2026-05-01T08:07:30Z</time></trkpt><trkpt lat="42.41318382654872" lon="14.235242847427921"><ele>97.0</ele><time>2026-05-01T08:07:32Z</time></trkpt><trkpt lat="42.41312275710111" lon="14.235216813685394"><ele>97.0</ele><time>2026-05-01T08:07:34Z</time></trkpt><trkpt lat="42.413031691948575" lon="14.235251633533677"><ele>97.0</ele><time>2026-05-01T08:07:36Z</time></trkpt><trkpt lat="42.412961692991914" lon="14.235287398742402"><ele>97.00000000000001</ele><time>2026-05-01T08:07:37Z</time></trkpt><trkpt lat="42.41288590056008" lon="14.235329833834315"><ele>97.0</ele><time>2026-05-01T08:07:38Z</time></trkpt><trkpt lat="42.41278395379552" lon="14.235370316557795"><ele>93.39999999999999</ele><time>2026-05-01T08:07:40Z</time></trkpt><trkpt lat="42.41276537690555" lon="14.235499589230674"><ele>89.8</ele><time>2026-05-01T08:07:43Z</time></trkpt><trkpt lat="42.41279942571696" lon="14.235621930504584"><ele>86.2</ele><time>2026-05-01T08:07:44Z</time></trkpt><trkpt lat="42.412835131268764" lon="14.235767141533811"><ele>82.6</ele><time>2026-05-01T08:07:45Z</time></trkpt><trkpt lat="42.412878163431465" lon="14.235897399779997"><ele>79.0</ele><time>2026-05-01T08:07:46Z</time></trkpt><trkpt lat="42.412913382594205" lon="14.236008799292538"><ele>78.5</ele><time>2026-05-01T08:07:47Z</time></trkpt><trkpt lat="42.41296196338149" lon="14.23611046303173"><ele>78.0</ele><time>2026-05-01T08:07:48Z</time></trkpt><trkpt lat="42.41301763867923" lon="14.236215648001279"><ele>77.5</ele><time>2026-05-01T08:07:49Z</time></trkpt><trkpt lat="42.41306208788838" lon="14.236306274940546"><ele>77.0</ele><time>2026-05-01T08:07:50Z</time></trkpt><trkpt lat="42.41310861252891" lon="14.236383870433949"><ele>76.5</ele><time>2026-05-01T08:07:51Z</time></trkpt><trkpt lat="42.41315800963432" lon="14.236455330622443"><ele>76.0</ele><time>2026-05-01T08:07:52Z</time></trkpt><trkpt lat="42.413221296788954" lon="14.236528396194414"><ele>76.0</ele><time>2026-05-01T08:07:53Z</time></trkpt><trkpt lat="42.413282675839085" lon="14.236588182416732"><ele>76.0</ele><time>2026-05-01T08:07:54Z</time></trkpt><trkpt lat="42.41333892237237" lon="14.236644535702634"><ele>76.0</ele><time>2026-05-01T08:07:55Z</time></trkpt><trkpt lat="42.413395059680695" lon="14.236724427803786"><ele>76.0</ele><time>2026-05-01T08:07:56Z</time></trkpt><trkpt lat="42.41344623640156" lon="14.236826757283463"><ele>76.0</ele><time>2026-05-01T08:07:57Z</time></trkpt><trkpt lat="42.41350345402198" lon="14.23695216691026"><ele>76.0</ele><time>2026-05-01T08:07:58Z</time></trkpt><trkpt lat="42.4135561079965" lon="14.237064251917833"><ele>76.0</ele><time>2026-05-01T08:07:59Z</time></trkpt><trkpt lat="42.413605467802405" lon="14.237177038496533"><ele>76.0</ele><time>2026-05-01T08:08:00Z</time></trkpt><trkpt lat="42.41365180379951" lon="14.237272928256173"><ele>76.0</ele><time>2026-05-01T08:08:01Z</time></trkpt><trkpt lat="42.41369777523378" lon="14.237383270944505"><ele>76.0</ele><time>2026-05-01T08:08:02Z</time></trkpt><trkpt lat="42.41374200773673" lon="14.237492919448163"><ele>76.0</ele><time>2026-05-01T08:08:03Z</time></trkpt><trkpt lat="42.41377474686948" lon="14.237604820872008"><ele>74.83333333333333</ele><time>2026-05-01T08:08:04Z</time></trkpt><trkpt lat="42.41380100128983" lon="14.23772007004149"><ele>73.66666666666666</ele><time>2026-05-01T08:08:05Z</time></trkpt><trkpt lat="42.41382182572982" lon="14.237823834272895"><ele>72.5</ele><time>2026-05-01T08:08:06Z</time></trkpt><trkpt lat="42.41384095596501" lon="14.237921972407616"><ele>71.33333333333333</ele><time>2026-05-01T08:08:07Z</time></trkpt><trkpt lat="42.41387081897163" lon="14.238020614879481"><ele>70.16666666666667</ele><time>2026-05-01T08:08:08Z</time></trkpt><trkpt lat="42.41390773155946" lon="14.238125738314016"><ele>69.0</ele><time>2026-05-01T08:08:09Z</time></trkpt><trkpt lat="42.4139430656099" lon="14.23824358643117"><ele>71.83333333333333</ele><time>2026-05-01T08:08:10Z</time></trkpt><trkpt lat="42.41396592555939" lon="14.238349013373742"><ele>74.66666666666667</ele><time>2026-05-01T08:08:11Z</time></trkpt><trkpt lat="42.41393110833596" lon="14.2384783728742"><ele>77.5</ele><time>2026-05-01T08:08:13Z</time></trkpt><trkpt lat="42.413926841492085" lon="14.23861205514757"><ele>80.33333333333334</ele><time>2026-05-01T08:08:15Z</time></trkpt><trkpt lat="42.413932398755044" lon="14.238699347444829"><ele>83.16666666666667</ele><time>2026-05-01T08:08:17Z</time></trkpt><trkpt lat="42.41395739671369" lon="14.238806228076177"><ele>86.0</ele><time>2026-05-01T08:08:19Z</time></trkpt><trkpt lat="42.41397986166253" lon="14.238947921011368"><ele>85.0</ele><time>2026-05-01T08:08:21Z</time></trkpt><trkpt lat="42.4139836155584" lon="14.239034851505881"><ele>84.0</ele><time>2026-05-01T08:08:22Z</time></trkpt><trkpt lat="42.413996589167404" lon="14.239149196102066"><ele>83.0</ele><time>2026-05-01T08:08:23Z</time></trkpt><trkpt lat="42.414046603812096" lon="14.239257495439375"><ele>82.0</ele><time>2026-05-01T08:08:24Z</time></trkpt><trkpt lat="42.414142683919664" lon="14.23935836511791"><ele>81.0</ele><time>2026-05-01T08:08:26Z</time></trkpt><trkpt lat="42.414237558283844" lon="14.239464301759824"><ele>81.0</ele><time>2026-05-01T08:08:28Z</time></trkpt><trkpt lat="42.414244541983344" lon="14.239593366098795"><ele>81.0</ele><time>2026-05-01T08:08:30Z</time></trkpt><trkpt lat="42.4142245577611" lon="14.239760734417445"><ele>81.0</ele><time>2026-05-01T08:08:32Z</time></trkpt><trkpt lat="42.41421010283508" lon="14.239865159642829"><ele>81.0</ele><time>2026-05-01T08:08:32.999Z</time></trkpt><trkpt lat="42.414196562705776" lon="14.239975764704067"><ele>81.0</ele><time>2026-05-01T08:08:33.999Z</time></trkpt><trkpt lat="42.414212149995755" lon="14.240060473508493"><ele>81.0</ele><time>2026-05-01T08:08:34.999Z</time></trkpt><trkpt lat="42.414251744021655" lon="14.240132247260387"><ele>79.6</ele><time>2026-05-01T08:08:35.999Z</time></trkpt><trkpt lat="42.414299222671076" lon="14.240214748624112"><ele>78.19999999999999</ele><time>2026-05-01T08:08:36.999Z</time></trkpt><trkpt lat="42.41435645502971" lon="14.24030761182412"><ele>76.80000000000001</ele><time>2026-05-01T08:08:37.999Z</time></trkpt><trkpt lat="42.41442585349939" lon="14.240417934191454"><ele>75.4</ele><time>2026-05-01T08:08:38.999Z</time></trkpt><trkpt lat="42.414489598710894" lon="14.240535783612632"><ele>74.0</ele><time>2026-05-01T08:08:39.999Z</time></trkpt><trkpt lat="42.41454814772955" lon="14.240620777780245"><ele>72.66666666666667</ele><time>2026-05-01T08:08:40.999Z</time></trkpt><trkpt lat="42.41461519687415" lon="14.240741077584095"><ele>71.33333333333334</ele><time>2026-05-01T08:08:42.999Z</time></trkpt><trkpt lat="42.41461457898658" lon="14.240842477587641"><ele>70.0</ele><time>2026-05-01T08:09:04Z</time></trkpt><trkpt lat="42.414628471524225" lon="14.24092849429562"><ele>68.66666666666667</ele><time>2026-05-01T08:09:05Z</time></trkpt><trkpt lat="42.41463474567018" lon="14.241014312372688"><ele>67.33333333333333</ele><time>2026-05-01T08:09:06Z</time></trkpt><trkpt lat="42.41465016937252" lon="14.241120137367226"><ele>66.0</ele><time>2026-05-01T08:09:07Z</time></trkpt><trkpt lat="42.414683414092764" lon="14.241204536701122"><ele>66.2</ele><time>2026-05-01T08:09:08Z</time></trkpt><trkpt lat="42.414726194130964" lon="14.241290168520159"><ele>66.39999999999999</ele><time>2026-05-01T08:09:09Z</time></trkpt><trkpt lat="42.41479020145396" lon="14.24136903499835"><ele>66.6</ele><time>2026-05-01T08:09:10Z</time></trkpt><trkpt lat="42.414847214234655" lon="14.241431230315998"><ele>66.8</ele><time>2026-05-01T08:09:11Z</time></trkpt><trkpt lat="42.41492783669765" lon="14.241506971417612"><ele>67.0</ele><time>2026-05-01T08:09:12Z</time></trkpt><trkpt lat="42.41502788026595" lon="14.241630873162313"><ele>67.0</ele><time>2026-05-01T08:09:13Z</time></trkpt><trkpt lat="42.41512236179348" lon="14.241749797567834"><ele>67.0</ele><time>2026-05-01T08:09:14Z</time></trkpt><trkpt lat="42.41519347301928" lon="14.24183095535538"><ele>67.0</ele><time>2026-05-01T08:09:15Z</time></trkpt><trkpt lat="42.41526329100162" lon="14.241904011301814"><ele>67.0</ele><time>2026-05-01T08:09:16Z</time></trkpt><trkpt lat="42.41532341083678" lon="14.242008383160753"><ele>67.0</ele><time>2026-05-01T08:09:17Z</time></trkpt><trkpt lat="42.41537192115941" lon="14.242136400831358"><ele>67.0</ele><time>2026-05-01T08:09:18Z</time></trkpt><trkpt lat="42.41540150806705" lon="14.242269793502974"><ele>67.0</ele><time>2026-05-01T08:09:19Z</time></trkpt><trkpt lat="42.41543697324152" lon="14.242392938454424"><ele>67.0</ele><time>2026-05-01T08:09:20Z</time></trkpt><trkpt lat="42.415465532744875" lon="14.242514974666"><ele>67.0</ele><time>2026-05-01T08:09:21Z</time></trkpt><trkpt lat="42.41549021573762" lon="14.242645212033086"><ele>67.0</ele><time>2026-05-01T08:09:22Z</time></trkpt><trkpt lat="42.415513843377816" lon="14.242768413808106"><ele>66.0</ele><time>2026-05-01T08:09:23Z</time></trkpt><trkpt lat="42.41555895417883" lon="14.242898877349589"><ele>65.0</ele><time>2026-05-01T08:09:24Z</time></trkpt><trkpt lat="42.41560887718055" lon="14.243029910079626"><ele>64.0</ele><time>2026-05-01T08:09:25Z</time></trkpt><trkpt lat="42.41565693297167" lon="14.243138013324932"><ele>63.0</ele><time>2026-05-01T08:09:26Z</time></trkpt><trkpt lat="42.4156948681801" lon="14.243214698537262"><ele>62.0</ele><time>2026-05-01T08:09:27Z</time></trkpt><trkpt lat="42.415785332356954" lon="14.243245586697153"><ele>62.0</ele><time>2026-05-01T08:09:28.999Z</time></trkpt><trkpt lat="42.415852743153465" lon="14.24316071235514"><ele>62.0</ele><time>2026-05-01T08:09:29.999Z</time></trkpt><trkpt lat="42.415938719659266" lon="14.243138705297174"><ele>62.0</ele><time>2026-05-01T08:09:30.999Z</time></trkpt><trkpt lat="42.41604535559477" lon="14.243185735141882"><ele>62.0</ele><time>2026-05-01T08:09:32.999Z</time></trkpt><trkpt lat="42.416091202897064" lon="14.243247876213761"><ele>62.0</ele><time>2026-05-01T08:09:33.999Z</time></trkpt><trkpt lat="42.41621227159018" lon="14.243322789874709"><ele>62.00000000000001</ele><time>2026-05-01T08:09:35.999Z</time></trkpt><trkpt lat="42.41628458616392" lon="14.243347362069187"><ele>62.0</ele><time>2026-05-01T08:09:36.999Z</time></trkpt><trkpt lat="42.41635466126612" lon="14.243393533067962"><ele>62.0</ele><time>2026-05-01T08:09:37.999Z</time></trkpt><trkpt lat="42.416435558748205" lon="14.243422686041209"><ele>62.0</ele><time>2026-05-01T08:09:38.999Z</time></trkpt><trkpt lat="42.416501902841766" lon="14.243468949538933"><ele>62.00000000000001</ele><time>2026-05-01T08:09:39.999Z</time></trkpt><trkpt lat="42.41655755204532" lon="14.243571019127016"><ele>62.0</ele><time>2026-05-01T08:09:41.999Z</time></trkpt><trkpt lat="42.416703277204576" lon="14.24369630302793"><ele>62.85714285714286</ele><time>2026-05-01T08:09:43.999Z</time></trkpt><trkpt lat="42.41674507773455" lon="14.2437707661797"><ele>63.71428571428572</ele><time>2026-05-01T08:09:44.999Z</time></trkpt><trkpt lat="42.41676632427901" lon="14.243852126703596"><ele>64.57142857142857</ele><time>2026-05-01T08:09:45.999Z</time></trkpt><trkpt lat="42.416804865159214" lon="14.243927911804551"><ele>65.42857142857143</ele><time>2026-05-01T08:09:46.999Z</time></trkpt><trkpt lat="42.416838698459166" lon="14.244031413262192"><ele>66.28571428571428</ele><time>2026-05-01T08:09:47.999Z</time></trkpt><trkpt lat="42.41687103898443" lon="14.244122809409502"><ele>67.14285714285714</ele><time>2026-05-01T08:09:48.999Z</time></trkpt><trkpt lat="42.41691404146229" lon="14.244206718995999"><ele>68.0</ele><time>2026-05-01T08:09:49.999Z</time></trkpt><trkpt lat="42.417088555951864" lon="14.244140555694583"><ele>68.0</ele><time>2026-05-01T08:09:50.999Z</time></trkpt><trkpt lat="42.416964334913025" lon="14.244258207006432"><ele>68.0</ele><time>2026-05-01T08:09:55.999Z</time></trkpt><trkpt lat="42.4170257770792" lon="14.244198171024202"><ele>68.0</ele><time>2026-05-01T08:09:57.999Z</time></trkpt><trkpt lat="42.41707938609522" lon="14.24414242975525"><ele>68.0</ele><time>2026-05-01T08:09:58.999Z</time></trkpt><trkpt lat="42.41721818473166" lon="14.244141043352315"><ele>68.0</ele><time>2026-05-01T08:10:00.999Z</time></trkpt><trkpt lat="42.41729168801206" lon="14.244035536647694"><ele>72.8</ele><time>2026-05-01T08:10:01.999Z</time></trkpt><trkpt lat="42.417340781150536" lon="14.243948908383498"><ele>77.6</ele><time>2026-05-01T08:10:02.999Z</time></trkpt><trkpt lat="42.41741515941148" lon="14.243853929602706"><ele>82.39999999999999</ele><time>2026-05-01T08:10:04.999Z</time></trkpt><trkpt lat="42.41747062905504" lon="14.243772220404646"><ele>87.19999999999999</ele><time>2026-05-01T08:10:06.999Z</time></trkpt><trkpt lat="42.417492068459225" lon="14.243636328442753"><ele>92.0</ele><time>2026-05-01T08:10:09.999Z</time></trkpt><trkpt lat="42.41757282517448" lon="14.243558771888901"><ele>92.0</ele><time>2026-05-01T08:10:11.999Z</time></trkpt><trkpt lat="42.417645576000304" lon="14.243585523065285"><ele>92.0</ele><time>2026-05-01T08:10:12.999Z</time></trkpt><trkpt lat="42.41772748138137" lon="14.243594707196863"><ele>92.0</ele><time>2026-05-01T08:10:13.999Z</time></trkpt><trkpt lat="42.41781642168359" lon="14.243600478670889"><ele>92.0</ele><time>2026-05-01T08:10:14.999Z</time></trkpt><trkpt lat="42.41791185850263" lon="14.24357685734827"><ele>92.0</ele><time>2026-05-01T08:10:15.999Z</time></trkpt><trkpt lat="42.417983585728194" lon="14.243568585675002"><ele>92.0</ele><time>2026-05-01T08:10:16.999Z</time></trkpt><trkpt lat="42.41804641431588" lon="14.243594544254545"><ele>94.19999999999999</ele><time>2026-05-01T08:10:17.999Z</time></trkpt><trkpt lat="42.4181001379423" lon="14.243642054350575"><ele>96.4</ele><time>2026-05-01T08:10:18.999Z</time></trkpt><trkpt lat="42.41816804426963" lon="14.243777186651005"><ele>98.6</ele><time>2026-05-01T08:10:20.999Z</time></trkpt><trkpt lat="42.418234999909295" lon="14.24393025897326"><ele>100.80000000000001</ele><time>2026-05-01T08:10:22.999Z</time></trkpt><trkpt lat="42.418268717668624" lon="14.244004272851468"><ele>103.0</ele><time>2026-05-01T08:10:23.999Z</time></trkpt><trkpt lat="42.41833338678585" lon="14.244107425816964"><ele>103.0</ele><time>2026-05-01T08:10:25.999Z</time></trkpt><trkpt lat="42.41845263642144" lon="14.244150435528452"><ele>103.0</ele><time>2026-05-01T08:10:27.999Z</time></trkpt><trkpt lat="42.41854142061102" lon="14.244190156771063"><ele>103.0</ele><time>2026-05-01T08:10:28.999Z</time></trkpt><trkpt lat="42.41862189753436" lon="14.244230481997823"><ele>103.0</ele><time>2026-05-01T08:10:29.999Z</time></trkpt><trkpt lat="42.41868281374822" lon="14.244262673902211"><ele>103.0</ele><time>2026-05-01T08:10:30.999Z</time></trkpt><trkpt lat="42.41877111452734" lon="14.24429517587344"><ele>102.66666666666667</ele><time>2026-05-01T08:10:32.999Z</time></trkpt><trkpt lat="42.41885259278511" lon="14.244305849062123"><ele>102.33333333333334</ele><time>2026-05-01T08:10:35.999Z</time></trkpt><trkpt lat="42.41891806509285" lon="14.244394417616995"><ele>102.0</ele><time>2026-05-01T08:11:10Z</time></trkpt><trkpt lat="42.4188966220973" lon="14.244504509027957"><ele>101.66666666666666</ele><time>2026-05-01T08:11:11Z</time></trkpt><trkpt lat="42.41891211856671" lon="14.244615651147628"><ele>101.33333333333333</ele><time>2026-05-01T08:11:12Z</time></trkpt><trkpt lat="42.41892860804243" lon="14.244698841399513"><ele>101.0</ele><time>2026-05-01T08:11:13Z</time></trkpt><trkpt lat="42.418980781619176" lon="14.244816042780002"><ele>102.8</ele><time>2026-05-01T08:11:15Z</time></trkpt><trkpt lat="42.41904619731479" lon="14.244751170146953"><ele>104.6</ele><time>2026-05-01T08:11:17Z</time></trkpt><trkpt lat="42.41909297907575" lon="14.244627878181351"><ele>106.4</ele><time>2026-05-01T08:11:18Z</time></trkpt><trkpt lat="42.41915670062991" lon="14.24454447989234"><ele>108.2</ele><time>2026-05-01T08:11:19Z</time></trkpt><trkpt lat="42.41926629108615" lon="14.244516754748574"><ele>110.0</ele><time>2026-05-01T08:11:21Z</time></trkpt><trkpt lat="42.41935033899327" lon="14.24464237387294"><ele>110.0</ele><time>2026-05-01T08:11:23Z</time></trkpt><trkpt lat="42.419361910107575" lon="14.244756144930014"><ele>110.0</ele><time>2026-05-01T08:11:24Z</time></trkpt><trkpt lat="42.41940319407098" lon="14.24490755212017"><ele>110.0</ele><time>2026-05-01T08:11:25Z</time></trkpt><trkpt lat="42.419450329406054" lon="14.245111836290738"><ele>110.0</ele><time>2026-05-01T08:11:26Z</time></trkpt><trkpt lat="42.41951961996693" lon="14.24534446299035"><ele>111.33333333333333</ele><time>2026-05-01T08:11:27Z</time></trkpt><trkpt lat="42.41958897411242" lon="14.24559376718706"><ele>112.66666666666666</ele><time>2026-05-01T08:11:28Z</time></trkpt><trkpt lat="42.41965298512072" lon="14.2458389024427"><ele>114.0</ele><time>2026-05-01T08:11:29Z</time></trkpt><trkpt lat="42.419714737041296" lon="14.246035359009179"><ele>114.0</ele><time>2026-05-01T08:11:30Z</time></trkpt><trkpt lat="42.41976344718376" lon="14.246200448360876"><ele>114.0</ele><time>2026-05-01T08:11:31Z</time></trkpt><trkpt lat="42.419798326780125" lon="14.246355943998196"><ele>114.0</ele><time>2026-05-01T08:11:32Z</time></trkpt><trkpt lat="42.41983513848522" lon="14.246491327860825"><ele>114.0</ele><time>2026-05-01T08:11:33Z</time></trkpt><trkpt lat="42.41986702342943" lon="14.246587790462275"><ele>114.0</ele><time>2026-05-01T08:11:34Z</time></trkpt><trkpt lat="42.41989043372793" lon="14.246675145121763"><ele>114.2</ele><time>2026-05-01T08:11:37Z</time></trkpt><trkpt lat="42.419913324520024" lon="14.246775749625867"><ele>114.4</ele><time>2026-05-01T08:11:41Z</time></trkpt><trkpt lat="42.41989961504911" lon="14.246943348350587"><ele>114.6</ele><time>2026-05-01T08:11:43Z</time></trkpt><trkpt lat="42.41989936080897" lon="14.247062628428766"><ele>114.8</ele><time>2026-05-01T08:11:44Z</time></trkpt><trkpt lat="42.419904899261596" lon="14.247205416651957"><ele>115.0</ele><time>2026-05-01T08:11:45Z</time></trkpt><trkpt lat="42.41991885065847" lon="14.24736313536634"><ele>114.0</ele><time>2026-05-01T08:11:46Z</time></trkpt><trkpt lat="42.41993687990859" lon="14.247527812516452"><ele>113.0</ele><time>2026-05-01T08:11:47Z</time></trkpt><trkpt lat="42.41995875386505" lon="14.247690906863147"><ele>112.0</ele><time>2026-05-01T08:11:48Z</time></trkpt><trkpt lat="42.41998455118612" lon="14.247853971256648"><ele>111.0</ele><time>2026-05-01T08:11:49Z</time></trkpt><trkpt lat="42.420007642559405" lon="14.248001345818981"><ele>109.8</ele><time>2026-05-01T08:11:50Z</time></trkpt><trkpt lat="42.420029429228705" lon="14.248136322769298"><ele>108.6</ele><time>2026-05-01T08:11:50.999Z</time></trkpt><trkpt lat="42.4200511627859" lon="14.248262176504802"><ele>107.4</ele><time>2026-05-01T08:11:51.999Z</time></trkpt><trkpt lat="42.420073414433894" lon="14.248378299018663"><ele>106.2</ele><time>2026-05-01T08:11:52.999Z</time></trkpt><trkpt lat="42.420096911199984" lon="14.248491469167847"><ele>105.0</ele><time>2026-05-01T08:11:53.999Z</time></trkpt><trkpt lat="42.42011358417987" lon="14.248596852275512"><ele>105.0</ele><time>2026-05-01T08:11:54.999Z</time></trkpt><trkpt lat="42.42014184396856" lon="14.248691855050868"><ele>105.0</ele><time>2026-05-01T08:11:55.999Z</time></trkpt><trkpt lat="42.42016018948917" lon="14.248775645656758"><ele>105.0</ele><time>2026-05-01T08:11:56.999Z</time></trkpt><trkpt lat="42.420159454393435" lon="14.248878458211296"><ele>105.0</ele><time>2026-05-01T08:11:58.999Z</time></trkpt><trkpt lat="42.420069838717886" lon="14.248956004475597"><ele>105.0</ele><time>2026-05-01T08:11:59.999Z</time></trkpt><trkpt lat="42.41998663957752" lon="14.24902088419355"><ele>105.0</ele><time>2026-05-01T08:12:00.999Z</time></trkpt><trkpt lat="42.4199060663603" lon="14.249090884123088"><ele>104.0</ele><time>2026-05-01T08:12:01.999Z</time></trkpt><trkpt lat="42.41983249966461" lon="14.249165035452"><ele>103.0</ele><time>2026-05-01T08:12:02.999Z</time></trkpt><trkpt lat="42.419771602755446" lon="14.249227634120812"><ele>102.0</ele><time>2026-05-01T08:12:03.999Z</time></trkpt><trkpt lat="42.4196854407419" lon="14.249321183721657"><ele>101.0</ele><time>2026-05-01T08:12:05.999Z</time></trkpt><trkpt lat="42.419639049845856" lon="14.24941398375193"><ele>100.0</ele><time>2026-05-01T08:12:07.999Z</time></trkpt><trkpt lat="42.41958717387687" lon="14.249471451065626"><ele>99.0</ele><time>2026-05-01T08:12:10.999Z</time></trkpt><trkpt lat="42.41933095625841" lon="14.250070076255072"><ele>95.25</ele><time>2026-05-01T08:12:11.999Z</time></trkpt><trkpt lat="42.41926352306673" lon="14.250018129807374"><ele>91.5</ele><time>2026-05-01T08:12:12.999Z</time></trkpt><trkpt lat="42.41920371785762" lon="14.249965243737456"><ele>87.75</ele><time>2026-05-01T08:12:13.999Z</time></trkpt><trkpt lat="42.41908554393819" lon="14.249863746682795"><ele>84.0</ele><time>2026-05-01T08:12:15.999Z</time></trkpt><trkpt lat="42.418996383321584" lon="14.249130915330756"><ele>84.0</ele><time>2026-05-01T08:12:16.999Z</time></trkpt><trkpt lat="42.41890693497482" lon="14.2491082700229"><ele>84.0</ele><time>2026-05-01T08:12:17.999Z</time></trkpt><trkpt lat="42.4188213238045" lon="14.249084102608983"><ele>84.0</ele><time>2026-05-01T08:12:18.999Z</time></trkpt><trkpt lat="42.41873285541665" lon="14.249062986005274"><ele>84.0</ele><time>2026-05-01T08:12:19.999Z</time></trkpt><trkpt lat="42.41864532424718" lon="14.249043947038668"><ele>84.0</ele><time>2026-05-01T08:12:20.999Z</time></trkpt><trkpt lat="42.41855279699977" lon="14.249020202428131"><ele>81.2</ele><time>2026-05-01T08:12:21.999Z</time></trkpt><trkpt lat="42.41845606655968" lon="14.248993145606788"><ele>78.4</ele><time>2026-05-01T08:12:22.999Z</time></trkpt><trkpt lat="42.41835502751122" lon="14.248963769114829"><ele>75.6</ele><time>2026-05-01T08:12:23.999Z</time></trkpt><trkpt lat="42.418267433202864" lon="14.248935028082762"><ele>72.8</ele><time>2026-05-01T08:12:24.999Z</time></trkpt><trkpt lat="42.41817037773326" lon="14.248904285355726"><ele>70.0</ele><time>2026-05-01T08:12:25.999Z</time></trkpt><trkpt lat="42.418071457120604" lon="14.248879909550869"><ele>67.16666666666666</ele><time>2026-05-01T08:12:26.999Z</time></trkpt><trkpt lat="42.41797989724048" lon="14.248853547545588"><ele>64.33333333333333</ele><time>2026-05-01T08:12:27.999Z</time></trkpt><trkpt lat="42.417913331779125" lon="14.248865544919179"><ele>61.5</ele><time>2026-05-01T08:12:28.999Z</time></trkpt><trkpt lat="42.41783542708629" lon="14.248850810209767"><ele>58.66666666666667</ele><time>2026-05-01T08:12:29.999Z</time></trkpt><trkpt lat="42.4177689004763" lon="14.24875391086854"><ele>55.833333333333336</ele><time>2026-05-01T08:12:31.999Z</time></trkpt><trkpt lat="42.417721320368095" lon="14.24869646853963"><ele>53.0</ele><time>2026-05-01T08:12:33.999Z</time></trkpt><trkpt lat="42.41765866221338" lon="14.24866367049625"><ele>53.00000000000001</ele><time>2026-05-01T08:12:34.999Z</time></trkpt><trkpt lat="42.417575570842764" lon="14.248629307532559"><ele>53.0</ele><time>2026-05-01T08:12:35.999Z</time></trkpt><trkpt lat="42.41749041379789" lon="14.248595909679201"><ele>53.0</ele><time>2026-05-01T08:12:36.999Z</time></trkpt><trkpt lat="42.41741185262871" lon="14.248560169097114"><ele>53.0</ele><time>2026-05-01T08:12:37.999Z</time></trkpt><trkpt lat="42.41735009951971" lon="14.248523662343572"><ele>53.00000000000001</ele><time>2026-05-01T08:12:38.999Z</time></trkpt><trkpt lat="42.417293939035964" lon="14.248464339156305"><ele>53.0</ele><time>2026-05-01T08:12:39.999Z</time></trkpt><trkpt lat="42.41725355501963" lon="14.248380150650064"><ele>53.00000000000001</ele><time>2026-05-01T08:12:40.999Z</time></trkpt><trkpt lat="42.41722127219506" lon="14.248286153663186"><ele>53.0</ele><time>2026-05-01T08:12:41.999Z</time></trkpt><trkpt lat="42.41721654592022" lon="14.248188101315776"><ele>53.0</ele><time>2026-05-01T08:12:42.999Z</time></trkpt><trkpt lat="42.417229737084114" lon="14.248093534082802"><ele>53.0</ele><time>2026-05-01T08:12:43.999Z</time></trkpt><trkpt lat="42.417250522765045" lon="14.248000716520346"><ele>53.00000000000001</ele><time>2026-05-01T08:12:46.999Z</time></trkpt><trkpt lat="42.417161904534325" lon="14.24794653908073"><ele>53.0</ele><time>2026-05-01T08:12:54.999Z</time></trkpt><trkpt lat="42.41708470564331" lon="14.247922608115255"><ele>51.333333333333336</ele><time>2026-05-01T08:12:55.999Z</time></trkpt><trkpt lat="42.41701019208946" lon="14.247908340150929"><ele>49.66666666666667</ele><time>2026-05-01T08:12:56.999Z</time></trkpt><trkpt lat="42.41689335209296" lon="14.247878125619845"><ele>48.0</ele><time>2026-05-01T08:12:58.999Z</time></trkpt><trkpt lat="42.41682614983079" lon="14.247862206526113"><ele>46.333333333333336</ele><time>2026-05-01T08:12:59.999Z</time></trkpt><trkpt lat="42.416716343181484" lon="14.247823385896238"><ele>44.66666666666667</ele><time>2026-05-01T08:13:01.999Z</time></trkpt><trkpt lat="42.41665242761163" lon="14.247804590879957"><ele>43.0</ele><time>2026-05-01T08:13:02.999Z</time></trkpt><trkpt lat="42.41658745208691" lon="14.247792245275908"><ele>43.0</ele><time>2026-05-01T08:13:03.999Z</time></trkpt><trkpt lat="42.416481158017305" lon="14.24781488340435"><ele>43.0</ele><time>2026-05-01T08:13:05.999Z</time></trkpt><trkpt lat="42.416407419265184" lon="14.247912908546589"><ele>43.0</ele><time>2026-05-01T08:13:07.999Z</time></trkpt><trkpt lat="42.416356520677674" lon="14.248003359140496"><ele>43.0</ele><time>2026-05-01T08:13:08.999Z</time></trkpt><trkpt lat="42.41629315552653" lon="14.248094111190571"><ele>43.0</ele><time>2026-05-01T08:13:09.999Z</time></trkpt><trkpt lat="42.416237565088984" lon="14.248171308366208"><ele>45.2</ele><time>2026-05-01T08:13:11Z</time></trkpt><trkpt lat="42.41617563140533" lon="14.248253004593124"><ele>47.4</ele><time>2026-05-01T08:13:12Z</time></trkpt><trkpt lat="42.41611136826998" lon="14.24833556438313"><ele>49.60000000000001</ele><time>2026-05-01T08:13:13Z</time></trkpt><trkpt lat="42.41604695336086" lon="14.2484184025626"><ele>51.800000000000004</ele><time>2026-05-01T08:13:14Z</time></trkpt><trkpt lat="42.41597934686164" lon="14.248502590259585"><ele>54.0</ele><time>2026-05-01T08:13:15Z</time></trkpt><trkpt lat="42.41590240133289" lon="14.248595949608642"><ele>54.0</ele><time>2026-05-01T08:13:16Z</time></trkpt><trkpt lat="42.415833254926966" lon="14.248673130976332"><ele>54.0</ele><time>2026-05-01T08:13:17Z</time></trkpt><trkpt lat="42.41577715533452" lon="14.248726711873955"><ele>54.0</ele><time>2026-05-01T08:13:18Z</time></trkpt><trkpt lat="42.4157156237385" lon="14.248785360162522"><ele>54.0</ele><time>2026-05-01T08:13:19Z</time></trkpt><trkpt lat="42.415654078128085" lon="14.24885178762623"><ele>54.0</ele><time>2026-05-01T08:13:20Z</time></trkpt><trkpt lat="42.415585558929465" lon="14.248919792366735"><ele>54.0</ele><time>2026-05-01T08:13:21Z</time></trkpt><trkpt lat="42.41552151258508" lon="14.248978659453753"><ele>57.666666666666664</ele><time>2026-05-01T08:13:22Z</time></trkpt><trkpt lat="42.41545071820627" lon="14.249058402551526"><ele>61.33333333333333</ele><time>2026-05-01T08:13:23Z</time></trkpt><trkpt lat="42.415378316141506" lon="14.249154132894919"><ele>65.0</ele><time>2026-05-01T08:13:24Z</time></trkpt><trkpt lat="42.4153248839731" lon="14.24925369887867"><ele>68.66666666666666</ele><time>2026-05-01T08:13:25Z</time></trkpt><trkpt lat="42.41528684294368" lon="14.249353613212"><ele>72.33333333333333</ele><time>2026-05-01T08:13:26Z</time></trkpt><trkpt lat="42.415249363268124" lon="14.249428305700505"><ele>76.0</ele><time>2026-05-01T08:13:27Z</time></trkpt><trkpt lat="42.41519555295374" lon="14.249497967881391"><ele>76.0</ele><time>2026-05-01T08:13:28Z</time></trkpt><trkpt lat="42.41512973776307" lon="14.249574569855913"><ele>76.0</ele><time>2026-05-01T08:13:29Z</time></trkpt><trkpt lat="42.415063206029416" lon="14.249649459056306"><ele>76.0</ele><time>2026-05-01T08:13:30Z</time></trkpt><trkpt lat="42.41499719168126" lon="14.249714964376734"><ele>76.0</ele><time>2026-05-01T08:13:31Z</time></trkpt><trkpt lat="42.41491920660404" lon="14.24977102713234"><ele>76.0</ele><time>2026-05-01T08:13:32Z</time></trkpt><trkpt lat="42.41483911356946" lon="14.24981254247244"><ele>76.0</ele><time>2026-05-01T08:13:33Z</time></trkpt><trkpt lat="42.41475424393233" lon="14.249885340167255"><ele>74.2</ele><time>2026-05-01T08:13:34Z</time></trkpt><trkpt lat="42.41466945455502" lon="14.249969210671354"><ele>72.39999999999999</ele><time>2026-05-01T08:13:35Z</time></trkpt><trkpt lat="42.41458248875289" lon="14.250053377176986"><ele>70.6</ele><time>2026-05-01T08:13:36Z</time></trkpt><trkpt lat="42.41449924599078" lon="14.250138812683803"><ele>68.8</ele><time>2026-05-01T08:13:37Z</time></trkpt><trkpt lat="42.4144261239132" lon="14.250213588564044"><ele>67.0</ele><time>2026-05-01T08:13:38Z</time></trkpt><trkpt lat="42.4143648384896" lon="14.250265178381168"><ele>70.8</ele><time>2026-05-01T08:13:39Z</time></trkpt><trkpt lat="42.41426239243978" lon="14.250293630915488"><ele>74.6</ele><time>2026-05-01T08:13:41Z</time></trkpt><trkpt lat="42.4142176982" lon="14.250231662123518"><ele>78.39999999999999</ele><time>2026-05-01T08:13:42Z</time></trkpt><trkpt lat="42.41416726353105" lon="14.250123629514286"><ele>82.2</ele><time>2026-05-01T08:13:43Z</time></trkpt><trkpt lat="42.41410462612497" lon="14.25001631009649"><ele>86.0</ele><time>2026-05-01T08:13:44Z</time></trkpt><trkpt lat="42.414013472922576" lon="14.249909841217123"><ele>86.0</ele><time>2026-05-01T08:13:45Z</time></trkpt><trkpt lat="42.413911537640615" lon="14.249834560254904"><ele>86.0</ele><time>2026-05-01T08:13:46Z</time></trkpt><trkpt lat="42.41382626664514" lon="14.249801650848836"><ele>86.0</ele><time>2026-05-01T08:13:47Z</time></trkpt><trkpt lat="42.41373673144305" lon="14.249781828145515"><ele>86.0</ele><time>2026-05-01T08:13:48Z</time></trkpt><trkpt lat="42.41364405944107" lon="14.249774155320619"><ele>86.0</ele><time>2026-05-01T08:13:49Z</time></trkpt><trkpt lat="42.41354510563235" lon="14.249781553591117"><ele>86.5</ele><time>2026-05-01T08:13:50Z</time></trkpt><trkpt lat="42.413461171587365" lon="14.249799775874248"><ele>87.0</ele><time>2026-05-01T08:13:51Z</time></trkpt><trkpt lat="42.41338767694598" lon="14.24982293456297"><ele>87.5</ele><time>2026-05-01T08:13:52Z</time></trkpt><trkpt lat="42.41332070547079" lon="14.249856479227097"><ele>88.0</ele><time>2026-05-01T08:13:53Z</time></trkpt><trkpt lat="42.413219589414524" lon="14.24989733871992"><ele>88.5</ele><time>2026-05-01T08:13:55Z</time></trkpt><trkpt lat="42.41315035938039" lon="14.249852200933619"><ele>89.0</ele><time>2026-05-01T08:13:57.999Z</time></trkpt><trkpt lat="42.41317320036877" lon="14.24964486672357"><ele>90.25</ele><time>2026-05-01T08:13:59.999Z</time></trkpt><trkpt lat="42.41315288370566" lon="14.249478032062793"><ele>91.5</ele><time>2026-05-01T08:14:00.999Z</time></trkpt><trkpt lat="42.413129507500464" lon="14.249293862255369"><ele>92.75</ele><time>2026-05-01T08:14:01.999Z</time></trkpt><trkpt lat="42.41308520225748" lon="14.249086984442558"><ele>94.0</ele><time>2026-05-01T08:14:02.999Z</time></trkpt><trkpt lat="42.41304928294866" lon="14.248847799171159"><ele>95.0</ele><time>2026-05-01T08:14:03.999Z</time></trkpt><trkpt lat="42.41300869523815" lon="14.248613504069144"><ele>96.0</ele><time>2026-05-01T08:14:04.999Z</time></trkpt><trkpt lat="42.41296403940457" lon="14.24833788626915"><ele>97.0</ele><time>2026-05-01T08:14:05.999Z</time></trkpt><trkpt lat="42.41294585532603" lon="14.248082465595676"><ele>97.0</ele><time>2026-05-01T08:14:06.999Z</time></trkpt><trkpt lat="42.41290830002719" lon="14.247898379918407"><ele>97.0</ele><time>2026-05-01T08:14:07.999Z</time></trkpt><trkpt lat="42.412880713378435" lon="14.247742546299037"><ele>97.0</ele><time>2026-05-01T08:14:08.999Z</time></trkpt><trkpt lat="42.412840405935384" lon="14.24762493061766"><ele>97.0</ele><time>2026-05-01T08:14:09.999Z</time></trkpt><trkpt lat="42.41282646438551" lon="14.247527585514383"><ele>97.0</ele><time>2026-05-01T08:14:10.999Z</time></trkpt><trkpt lat="42.41279167354211" lon="14.24736934700283"><ele>98.50000000000001</ele><time>2026-05-01T08:14:12.999Z</time></trkpt><trkpt lat="42.412765047434675" lon="14.247258757085469"><ele>100.0</ele><time>2026-05-01T08:14:14.999Z</time></trkpt><trkpt lat="42.41279051275929" lon="14.247159052253282"><ele>101.5</ele><time>2026-05-01T08:15:18Z</time></trkpt><trkpt lat="42.4128669097565" lon="14.247169950541167"><ele>103.0</ele><time>2026-05-01T08:15:19Z</time></trkpt><trkpt lat="42.412935800645535" lon="14.247106936309844"><ele>104.50000000000001</ele><time>2026-05-01T08:15:20Z</time></trkpt><trkpt lat="42.41303997848041" lon="14.247070230303914"><ele>106.0</ele><time>2026-05-01T08:15:21Z</time></trkpt><trkpt lat="42.41313628352101" lon="14.246995791463679"><ele>106.50000000000001</ele><time>2026-05-01T08:15:22Z</time></trkpt><trkpt lat="42.413228580361896" lon="14.246943842741445"><ele>107.0</ele><time>2026-05-01T08:15:23Z</time></trkpt><trkpt lat="42.41330792764952" lon="14.246918584501605"><ele>107.5</ele><time>2026-05-01T08:15:24Z</time></trkpt><trkpt lat="42.41337563158096" lon="14.24688187946296"><ele>108.0</ele><time>2026-05-01T08:15:25Z</time></trkpt><trkpt lat="42.413439799351934" lon="14.246847651860513"><ele>108.50000000000001</ele><time>2026-05-01T08:15:26Z</time></trkpt><trkpt lat="42.41350422964157" lon="14.24681328418043"><ele>109.0</ele><time>2026-05-01T08:15:27Z</time></trkpt><trkpt lat="42.413569733620214" lon="14.246778343803843"><ele>109.0</ele><time>2026-05-01T08:15:28Z</time></trkpt><trkpt lat="42.41366731177693" lon="14.246726294424258"><ele>109.0</ele><time>2026-05-01T08:15:30Z</time></trkpt><trkpt lat="42.41374331654856" lon="14.246685752454326"><ele>109.0</ele><time>2026-05-01T08:15:32Z</time></trkpt><trkpt lat="42.413753999023086" lon="14.246347399449384"><ele>109.0</ele><time>2026-05-01T08:15:34Z</time></trkpt><trkpt lat="42.41377512560231" lon="14.246253354116048"><ele>110.4</ele><time>2026-05-01T08:15:35Z</time></trkpt><trkpt lat="42.4137931749367" lon="14.246134631378869"><ele>111.80000000000001</ele><time>2026-05-01T08:15:36Z</time></trkpt><trkpt lat="42.413809295272685" lon="14.24599670537759"><ele>113.19999999999999</ele><time>2026-05-01T08:15:37Z</time></trkpt><trkpt lat="42.41382311503935" lon="14.24586051796084"><ele>114.6</ele><time>2026-05-01T08:15:38Z</time></trkpt><trkpt lat="42.41381965135182" lon="14.245721539172132"><ele>116.0</ele><time>2026-05-01T08:15:39Z</time></trkpt><trkpt lat="42.413795637163936" lon="14.24557371868287"><ele>117.25</ele><time>2026-05-01T08:15:40Z</time></trkpt><trkpt lat="42.41375254040045" lon="14.245415189664346"><ele>118.5</ele><time>2026-05-01T08:15:41Z</time></trkpt><trkpt lat="42.41370815689506" lon="14.245283561533512"><ele>119.75</ele><time>2026-05-01T08:15:42Z</time></trkpt><trkpt lat="42.41364825567067" lon="14.245138261938582"><ele>121.0</ele><time>2026-05-01T08:15:43Z</time></trkpt><trkpt lat="42.41358919646119" lon="14.245033409133848"><ele>121.00000000000001</ele><time>2026-05-01T08:15:44Z</time></trkpt><trkpt lat="42.41354558908679" lon="14.244954270378518"><ele>121.0</ele><time>2026-05-01T08:15:45Z</time></trkpt><trkpt lat="42.41351327246619" lon="14.244810477293736"><ele>121.0</ele><time>2026-05-01T08:15:47Z</time></trkpt><trkpt lat="42.4135431063605" lon="14.244715442422587"><ele>121.0</ele><time>2026-05-01T08:15:48Z</time></trkpt><trkpt lat="42.41352081700626" lon="14.244612248170888"><ele>121.00000000000001</ele><time>2026-05-01T08:15:49Z</time></trkpt><trkpt lat="42.413509263405665" lon="14.244470644945258"><ele>121.0</ele><time>2026-05-01T08:15:50Z</time></trkpt><trkpt lat="42.41344817550413" lon="14.244364883398159"><ele>121.4</ele><time>2026-05-01T08:15:51Z</time></trkpt><trkpt lat="42.41337544766654" lon="14.244296674692603"><ele>121.8</ele><time>2026-05-01T08:15:52Z</time></trkpt><trkpt lat="42.413321900959836" lon="14.244207629961108"><ele>122.20000000000002</ele><time>2026-05-01T08:15:53Z</time></trkpt><trkpt lat="42.41331092477003" lon="14.244049423434294"><ele>122.60000000000001</ele><time>2026-05-01T08:15:54Z</time></trkpt><trkpt lat="42.41324161114117" lon="14.243926314518406"><ele>123.0</ele><time>2026-05-01T08:15:55Z</time></trkpt><trkpt lat="42.413187715326295" lon="14.243809242010292"><ele>121.80000000000001</ele><time>2026-05-01T08:15:56Z</time></trkpt><trkpt lat="42.41312808983855" lon="14.243707558205562"><ele>120.60000000000001</ele><time>2026-05-01T08:15:57Z</time></trkpt><trkpt lat="42.41308561257494" lon="14.243572551689342"><ele>119.39999999999999</ele><time>2026-05-01T08:15:58Z</time></trkpt><trkpt lat="42.41305447342266" lon="14.243414599258816"><ele>118.19999999999999</ele><time>2026-05-01T08:15:59Z</time></trkpt><trkpt lat="42.413035925644046" lon="14.24325106287685"><ele>117.0</ele><time>2026-05-01T08:16:00Z</time></trkpt><trkpt lat="42.41302964426327" lon="14.243101414879511"><ele>116.0</ele><time>2026-05-01T08:16:01Z</time></trkpt><trkpt lat="42.41304029676273" lon="14.2429503250469"><ele>114.99999999999999</ele><time>2026-05-01T08:16:02Z</time></trkpt><trkpt lat="42.413053516066995" lon="14.24279814813528"><ele>113.99999999999999</ele><time>2026-05-01T08:16:03Z</time></trkpt><trkpt lat="42.41306138519402" lon="14.242657870157721"><ele>113.0</ele><time>2026-05-01T08:16:04Z</time></trkpt><trkpt lat="42.413048804814586" lon="14.242517934946122"><ele>112.0</ele><time>2026-05-01T08:16:04.999Z</time></trkpt><trkpt lat="42.41301896948769" lon="14.242380108941326"><ele>116.5</ele><time>2026-05-01T08:16:05.999Z</time></trkpt><trkpt lat="42.41296956351323" lon="14.242250156704062"><ele>121.0</ele><time>2026-05-01T08:16:06.999Z</time></trkpt><trkpt lat="42.412904616122475" lon="14.242110885334046"><ele>125.5</ele><time>2026-05-01T08:16:07.999Z</time></trkpt><trkpt lat="42.41283773831603" lon="14.241964940833709"><ele>130.0</ele><time>2026-05-01T08:16:08.999Z</time></trkpt><trkpt lat="42.412780486674556" lon="14.241812363573606"><ele>130.0</ele><time>2026-05-01T08:16:09.999Z</time></trkpt><trkpt lat="42.41274191992527" lon="14.241660634336371"><ele>130.0</ele><time>2026-05-01T08:16:10.999Z</time></trkpt><trkpt lat="42.41270726443896" lon="14.241517800540135"><ele>130.0</ele><time>2026-05-01T08:16:11.999Z</time></trkpt><trkpt lat="42.412667735077115" lon="14.241378583768837"><ele>130.0</ele><time>2026-05-01T08:16:12.999Z</time></trkpt><trkpt lat="42.4126150691142" lon="14.241246395819283"><ele>127.6</ele><time>2026-05-01T08:16:13.999Z</time></trkpt><trkpt lat="42.412547152967605" lon="14.241108722937664"><ele>125.2</ele><time>2026-05-01T08:16:14.999Z</time></trkpt><trkpt lat="42.41247999896651" lon="14.241007640421872"><ele>122.80000000000001</ele><time>2026-05-01T08:16:15.999Z</time></trkpt><trkpt lat="42.41241752088389" lon="14.240928521887557"><ele>120.4</ele><time>2026-05-01T08:16:16.999Z</time></trkpt><trkpt lat="42.41234442962001" lon="14.240847392466296"><ele>118.0</ele><time>2026-05-01T08:16:17.999Z</time></trkpt><trkpt lat="42.41227513921595" lon="14.240753930694755"><ele>118.0</ele><time>2026-05-01T08:16:18.999Z</time></trkpt><trkpt lat="42.41219272781843" lon="14.240653576522465"><ele>118.00000000000001</ele><time>2026-05-01T08:16:19.999Z</time></trkpt><trkpt lat="42.41212206980399" lon="14.240559204215447"><ele>118.00000000000001</ele><time>2026-05-01T08:16:20.999Z</time></trkpt><trkpt lat="42.41204531222924" lon="14.240476759209711"><ele>118.0</ele><time>2026-05-01T08:16:21.999Z</time></trkpt><trkpt lat="42.411953118725705" lon="14.240399954670062"><ele>118.0</ele><time>2026-05-01T08:16:22.999Z</time></trkpt><trkpt lat="42.41185318869202" lon="14.240372066201383"><ele>117.83333333333334</ele><time>2026-05-01T08:16:24.999Z</time></trkpt><trkpt lat="42.41184617864591" lon="14.24028636852787"><ele>117.66666666666667</ele><time>2026-05-01T08:16:30.999Z</time></trkpt><trkpt lat="42.41179844103408" lon="14.240162037275095"><ele>117.5</ele><time>2026-05-01T08:16:34.999Z</time></trkpt><trkpt lat="42.411745686707846" lon="14.240045015013326"><ele>117.33333333333334</ele><time>2026-05-01T08:16:36.999Z</time></trkpt><trkpt lat="42.411698594501175" lon="14.239942270907317"><ele>117.16666666666667</ele><time>2026-05-01T08:16:38.999Z</time></trkpt><trkpt lat="42.41166159974251" lon="14.239850706038172"><ele>117.0</ele><time>2026-05-01T08:16:39.999Z</time></trkpt><trkpt lat="42.411621293314454" lon="14.23976146287396"><ele>117.0</ele><time>2026-05-01T08:16:40.999Z</time></trkpt><trkpt lat="42.41157637295249" lon="14.23967731329266"><ele>116.99999999999999</ele><time>2026-05-01T08:16:41.999Z</time></trkpt><trkpt lat="42.411548255243446" lon="14.239554013924721"><ele>116.99999999999999</ele><time>2026-05-01T08:16:42.999Z</time></trkpt><trkpt lat="42.41149830771298" lon="14.239397562988762"><ele>117.0</ele><time>2026-05-01T08:16:43.999Z</time></trkpt><trkpt lat="42.411445663652785" lon="14.239240812589571"><ele>117.0</ele><time>2026-05-01T08:16:44.999Z</time></trkpt><trkpt lat="42.41139414973821" lon="14.239106163069446"><ele>115.25</ele><time>2026-05-01T08:16:45.999Z</time></trkpt><trkpt lat="42.411327092985275" lon="14.23896180706168"><ele>113.5</ele><time>2026-05-01T08:16:46.999Z</time></trkpt><trkpt lat="42.411253711725784" lon="14.23878566783213"><ele>111.75</ele><time>2026-05-01T08:16:47.999Z</time></trkpt><trkpt lat="42.41118277603671" lon="14.238622981273235"><ele>110.0</ele><time>2026-05-01T08:16:48.999Z</time></trkpt><trkpt lat="42.41109064102082" lon="14.238447808446345"><ele>118.0</ele><time>2026-05-01T08:16:49.999Z</time></trkpt><trkpt lat="42.410996488672964" lon="14.238263195740759"><ele>126.0</ele><time>2026-05-01T08:16:50.999Z</time></trkpt><trkpt lat="42.410928636299644" lon="14.238085205590778"><ele>134.0</ele><time>2026-05-01T08:16:51.999Z</time></trkpt><trkpt lat="42.41086862157301" lon="14.237946064365843"><ele>142.0</ele><time>2026-05-01T08:16:52.999Z</time></trkpt><trkpt lat="42.41082040423987" lon="14.237789774410453"><ele>142.0</ele><time>2026-05-01T08:16:53.999Z</time></trkpt><trkpt lat="42.41079466270157" lon="14.237669278455307"><ele>142.0</ele><time>2026-05-01T08:16:54.999Z</time></trkpt><trkpt lat="42.41075208160296" lon="14.23755253289303"><ele>142.0</ele><time>2026-05-01T08:16:55.999Z</time></trkpt><trkpt lat="42.410697854443" lon="14.23744768556925"><ele>142.0</ele><time>2026-05-01T08:16:56.999Z</time></trkpt><trkpt lat="42.41063736491064" lon="14.237346146743064"><ele>142.0</ele><time>2026-05-01T08:16:57.999Z</time></trkpt><trkpt lat="42.410564305870594" lon="14.237241942440706"><ele>144.2</ele><time>2026-05-01T08:16:58.999Z</time></trkpt><trkpt lat="42.410498469231634" lon="14.237146195028506"><ele>146.39999999999998</ele><time>2026-05-01T08:16:59.999Z</time></trkpt><trkpt lat="42.41044550456173" lon="14.237062122064996"><ele>148.60000000000002</ele><time>2026-05-01T08:17:00.999Z</time></trkpt><trkpt lat="42.410401201783024" lon="14.236970269382528"><ele>150.8</ele><time>2026-05-01T08:17:01.999Z</time></trkpt><trkpt lat="42.410360001338276" lon="14.236865412372115"><ele>153.0</ele><time>2026-05-01T08:17:02.999Z</time></trkpt><trkpt lat="42.41032433845859" lon="14.236724656920485"><ele>153.0</ele><time>2026-05-01T08:17:03.999Z</time></trkpt><trkpt lat="42.410282654363" lon="14.236577053314186"><ele>153.0</ele><time>2026-05-01T08:17:04.999Z</time></trkpt><trkpt lat="42.410224940740136" lon="14.236438158722498"><ele>153.0</ele><time>2026-05-01T08:17:05.999Z</time></trkpt><trkpt lat="42.410170290503224" lon="14.236337889894884"><ele>153.0</ele><time>2026-05-01T08:17:06.999Z</time></trkpt><trkpt lat="42.41011230250593" lon="14.236249624622566"><ele>153.0</ele><time>2026-05-01T08:17:07.999Z</time></trkpt><trkpt lat="42.410028774660184" lon="14.236150292819785"><ele>153.0</ele><time>2026-05-01T08:17:08.999Z</time></trkpt><trkpt lat="42.409936582290754" lon="14.236050508523267"><ele>153.0</ele><time>2026-05-01T08:17:09.999Z</time></trkpt><trkpt lat="42.40983346671019" lon="14.235945064863824"><ele>153.0</ele><time>2026-05-01T08:17:10.999Z</time></trkpt><trkpt lat="42.40973494412156" lon="14.235835041052821"><ele>153.0</ele><time>2026-05-01T08:17:11.999Z</time></trkpt><trkpt lat="42.40965208971324" lon="14.23572915041576"><ele>152.0</ele><time>2026-05-01T08:17:12.999Z</time></trkpt><trkpt lat="42.40957191735497" lon="14.235624298431881"><ele>151.0</ele><time>2026-05-01T08:17:13.999Z</time></trkpt><trkpt lat="42.40949448991546" lon="14.23553233702386"><ele>150.0</ele><time>2026-05-01T08:17:14.999Z</time></trkpt><trkpt lat="42.40941223944367" lon="14.235426801872842"><ele>149.0</ele><time>2026-05-01T08:17:15.999Z</time></trkpt><trkpt lat="42.40933514787394" lon="14.23532187160096"><ele>148.0</ele><time>2026-05-01T08:17:16.999Z</time></trkpt><trkpt lat="42.40925828516607" lon="14.235232696149357"><ele>148.0</ele><time>2026-05-01T08:17:17.999Z</time></trkpt><trkpt lat="42.4091940831211" lon="14.235149277361895"><ele>148.0</ele><time>2026-05-01T08:17:18.999Z</time></trkpt><trkpt lat="42.409130058768014" lon="14.235084394807378"><ele>148.0</ele><time>2026-05-01T08:17:19.999Z</time></trkpt><trkpt lat="42.40907167397083" lon="14.23502125566705"><ele>148.0</ele><time>2026-05-01T08:17:20.999Z</time></trkpt><trkpt lat="42.409015569378475" lon="14.234942472081057"><ele>148.0</ele><time>2026-05-01T08:17:22Z</time></trkpt><trkpt lat="42.4089840754834" lon="14.234841074332955"><ele>148.0</ele><time>2026-05-01T08:17:23Z</time></trkpt><trkpt lat="42.40898017529628" lon="14.234738767849397"><ele>149.6</ele><time>2026-05-01T08:17:24Z</time></trkpt><trkpt lat="42.40892987768641" lon="14.234643665398645"><ele>151.20000000000002</ele><time>2026-05-01T08:17:26Z</time></trkpt><trkpt lat="42.40884104480084" lon="14.234578510129564"><ele>152.8</ele><time>2026-05-01T08:17:27Z</time></trkpt><trkpt lat="42.40873910322929" lon="14.234486255001132"><ele>154.4</ele><time>2026-05-01T08:17:28Z</time></trkpt><trkpt lat="42.40865647633244" lon="14.234347917539253"><ele>156.0</ele><time>2026-05-01T08:17:29Z</time></trkpt><trkpt lat="42.40854806470762" lon="14.234213523479928"><ele>156.0</ele><time>2026-05-01T08:17:30Z</time></trkpt><trkpt lat="42.40846476428475" lon="14.234071674709599"><ele>156.0</ele><time>2026-05-01T08:17:31Z</time></trkpt><trkpt lat="42.40834954915447" lon="14.23398148634142"><ele>156.0</ele><time>2026-05-01T08:17:32Z</time></trkpt><trkpt lat="42.4082789459888" lon="14.233877731053678"><ele>156.0</ele><time>2026-05-01T08:17:33Z</time></trkpt><trkpt lat="42.408227334262726" lon="14.23375121798838"><ele>154.8</ele><time>2026-05-01T08:17:34Z</time></trkpt><trkpt lat="42.40818565189664" lon="14.233597236570565"><ele>153.6</ele><time>2026-05-01T08:17:35Z</time></trkpt><trkpt lat="42.40813903826841" lon="14.233453215670062"><ele>152.4</ele><time>2026-05-01T08:17:36Z</time></trkpt><trkpt lat="42.40810059342658" lon="14.233311760935557"><ele>151.2</ele><time>2026-05-01T08:17:37Z</time></trkpt><trkpt lat="42.40806018157493" lon="14.233217925949129"><ele>150.0</ele><time>2026-05-01T08:17:38Z</time></trkpt><trkpt lat="42.40802499742303" lon="14.233142433636441"><ele>153.25</ele><time>2026-05-01T08:17:39Z</time></trkpt><trkpt lat="42.40795414622856" lon="14.232984179696668"><ele>156.5</ele><time>2026-05-01T08:17:41Z</time></trkpt><trkpt lat="42.4078819921428" lon="14.232862572367496"><ele>159.75</ele><time>2026-05-01T08:17:42Z</time></trkpt><trkpt lat="42.407783224838404" lon="14.232712890633767"><ele>163.0</ele><time>2026-05-01T08:17:43Z</time></trkpt><trkpt lat="42.407659305897134" lon="14.23256547014731"><ele>163.0</ele><time>2026-05-01T08:17:44Z</time></trkpt><trkpt lat="42.40754878882089" lon="14.232394348701229"><ele>163.0</ele><time>2026-05-01T08:17:45Z</time></trkpt><trkpt lat="42.407442429502424" lon="14.232245993097413"><ele>163.0</ele><time>2026-05-01T08:17:46Z</time></trkpt><trkpt lat="42.407363804700054" lon="14.2321287911493"><ele>163.0</ele><time>2026-05-01T08:17:47Z</time></trkpt><trkpt lat="42.40727953382905" lon="14.231994967332005"><ele>163.60000000000002</ele><time>2026-05-01T08:17:48Z</time></trkpt><trkpt lat="42.40719599346099" lon="14.231876395992932"><ele>164.20000000000002</ele><time>2026-05-01T08:17:49Z</time></trkpt><trkpt lat="42.407139775665314" lon="14.231743451593285"><ele>164.8</ele><time>2026-05-01T08:17:50Z</time></trkpt><trkpt lat="42.40710093337094" lon="14.231629780281274"><ele>165.4</ele><time>2026-05-01T08:17:51Z</time></trkpt><trkpt lat="42.407080895808676" lon="14.231507869413909"><ele>166.0</ele><time>2026-05-01T08:17:52Z</time></trkpt><trkpt lat="42.40706986397899" lon="14.231381196211442"><ele>166.0</ele><time>2026-05-01T08:17:53Z</time></trkpt><trkpt lat="42.40701828356579" lon="14.231256918255987"><ele>166.0</ele><time>2026-05-01T08:17:54Z</time></trkpt><trkpt lat="42.40694993298295" lon="14.23113656822595"><ele>166.0</ele><time>2026-05-01T08:17:55Z</time></trkpt><trkpt lat="42.40684839376821" lon="14.230990216014034"><ele>166.0</ele><time>2026-05-01T08:17:56Z</time></trkpt><trkpt lat="42.406760764004254" lon="14.230833922624802"><ele>166.0</ele><time>2026-05-01T08:17:57Z</time></trkpt><trkpt lat="42.40664456715228" lon="14.230705673211308"><ele>166.0</ele><time>2026-05-01T08:17:58Z</time></trkpt><trkpt lat="42.40652385973402" lon="14.230565406096268"><ele>166.0</ele><time>2026-05-01T08:17:59Z</time></trkpt><trkpt lat="42.40641744970908" lon="14.230421661980616"><ele>167.0</ele><time>2026-05-01T08:18:00Z</time></trkpt><trkpt lat="42.406327506283446" lon="14.230286268707642"><ele>168.0</ele><time>2026-05-01T08:18:01Z</time></trkpt><trkpt lat="42.40624371972606" lon="14.23017279755706"><ele>169.0</ele><time>2026-05-01T08:18:02Z</time></trkpt><trkpt lat="42.406169664182116" lon="14.230065831201493"><ele>170.0</ele><time>2026-05-01T08:18:03Z</time></trkpt><trkpt lat="42.4061070314656" lon="14.22996842150636"><ele>170.0</ele><time>2026-05-01T08:18:04Z</time></trkpt><trkpt lat="42.406051276781355" lon="14.229875701921333"><ele>170.0</ele><time>2026-05-01T08:18:05Z</time></trkpt><trkpt lat="42.40599860112006" lon="14.22979663688094"><ele>170.0</ele><time>2026-05-01T08:18:06Z</time></trkpt><trkpt lat="42.4059373175366" lon="14.229725524057729"><ele>170.0</ele><time>2026-05-01T08:18:07Z</time></trkpt><trkpt lat="42.40586795634463" lon="14.229691884326211"><ele>170.0</ele><time>2026-05-01T08:18:08Z</time></trkpt><trkpt lat="42.40580241285605" lon="14.229687588844854"><ele>170.0</ele><time>2026-05-01T08:18:09Z</time></trkpt><trkpt lat="42.40572162532121" lon="14.22969645161573"><ele>170.6</ele><time>2026-05-01T08:18:10Z</time></trkpt><trkpt lat="42.40561198244414" lon="14.229702445235123"><ele>171.2</ele><time>2026-05-01T08:18:11Z</time></trkpt><trkpt lat="42.4055094613842" lon="14.229738514520415"><ele>171.8</ele><time>2026-05-01T08:18:12Z</time></trkpt><trkpt lat="42.405445586266005" lon="14.229709571301143"><ele>172.4</ele><time>2026-05-01T08:18:13Z</time></trkpt><trkpt lat="42.405369455753025" lon="14.229727037682686"><ele>173.0</ele><time>2026-05-01T08:18:52.999Z</time></trkpt><trkpt lat="42.405190008305745" lon="14.229376935852743"><ele>173.0</ele><time>2026-05-01T08:18:54.999Z</time></trkpt><trkpt lat="42.40511713147624" lon="14.22928001512646"><ele>173.0</ele><time>2026-05-01T08:18:55.999Z</time></trkpt><trkpt lat="42.40505058775729" lon="14.229193003806413"><ele>173.0</ele><time>2026-05-01T08:18:56.999Z</time></trkpt><trkpt lat="42.40499312479162" lon="14.229080379113089"><ele>173.0</ele><time>2026-05-01T08:18:57.999Z</time></trkpt><trkpt lat="42.404923142794615" lon="14.228963722561414"><ele>173.0</ele><time>2026-05-01T08:18:59.999Z</time></trkpt><trkpt lat="42.40488081514109" lon="14.228891756295976"><ele>173.0</ele><time>2026-05-01T08:19:01.999Z</time></trkpt><trkpt lat="42.404824744199956" lon="14.228937485964563"><ele>173.0</ele><time>2026-05-01T08:19:05.999Z</time></trkpt><trkpt lat="42.40490441216143" lon="14.228995701989561"><ele>173.0</ele><time>2026-05-01T08:19:08.999Z</time></trkpt><trkpt lat="42.405005668050926" lon="14.229047702610734"><ele>173.0</ele><time>2026-05-01T08:19:10.999Z</time></trkpt><trkpt lat="42.4050575763288" lon="14.229142136333952"><ele>173.0</ele><time>2026-05-01T08:19:11.999Z</time></trkpt><trkpt lat="42.40511728596243" lon="14.22925656801743"><ele>173.0</ele><time>2026-05-01T08:19:12.999Z</time></trkpt><trkpt lat="42.40517230196125" lon="14.229345451030882"><ele>173.0</ele><time>2026-05-01T08:19:13.999Z</time></trkpt><trkpt lat="42.40523008179726" lon="14.229424449895717"><ele>173.0</ele><time>2026-05-01T08:19:14.999Z</time></trkpt><trkpt lat="42.40528688328108" lon="14.229489855197677"><ele>173.0</ele><time>2026-05-01T08:19:15.999Z</time></trkpt><trkpt lat="42.4053628036846" lon="14.229574007741626"><ele>173.0</ele><time>2026-05-01T08:19:17.999Z</time></trkpt><trkpt lat="42.40544491954959" lon="14.229643278417747"><ele>173.0</ele><time>2026-05-01T08:19:19.999Z</time></trkpt><trkpt lat="42.40553370676523" lon="14.229729775314263"><ele>172.5</ele><time>2026-05-01T08:19:21.999Z</time></trkpt><trkpt lat="42.40566564377083" lon="14.22975331326997"><ele>172.0</ele><time>2026-05-01T08:19:23.999Z</time></trkpt><trkpt lat="42.4057287793123" lon="14.229745267368726"><ele>171.5</ele><time>2026-05-01T08:19:24.999Z</time></trkpt><trkpt lat="42.40579632996975" lon="14.229738466772503"><ele>171.0</ele><time>2026-05-01T08:19:25.999Z</time></trkpt><trkpt lat="42.40589270271626" lon="14.22974530883734"><ele>170.5</ele><time>2026-05-01T08:19:28Z</time></trkpt><trkpt lat="42.40595898035623" lon="14.229774798540669"><ele>170.0</ele><time>2026-05-01T08:19:30Z</time></trkpt><trkpt lat="42.40599714996991" lon="14.229846837725027"><ele>167.2</ele><time>2026-05-01T08:19:32Z</time></trkpt><trkpt lat="42.40589734597458" lon="14.229694829936864"><ele>164.4</ele><time>2026-05-01T08:19:44Z</time></trkpt><trkpt lat="42.405804547427195" lon="14.229702000397289"><ele>161.6</ele><time>2026-05-01T08:19:45Z</time></trkpt><trkpt lat="42.40575089831887" lon="14.22965604751819"><ele>158.8</ele><time>2026-05-01T08:19:49Z</time></trkpt><trkpt lat="42.405686670155525" lon="14.229610845208944"><ele>156.0</ele><time>2026-05-01T08:22:54Z</time></trkpt><trkpt lat="42.40564293261622" lon="14.229698953766428"><ele>156.0</ele><time>2026-05-01T08:22:55Z</time></trkpt><trkpt lat="42.40554278795799" lon="14.229711598618245"><ele>156.0</ele><time>2026-05-01T08:22:57Z</time></trkpt><trkpt lat="42.405453542322384" lon="14.229719493944554"><ele>156.0</ele><time>2026-05-01T08:22:59Z</time></trkpt><trkpt lat="42.405363765578464" lon="14.229272600105977"><ele>157.5</ele><time>2026-05-01T08:23:00Z</time></trkpt><trkpt lat="42.40529796898187" lon="14.229123256059278"><ele>159.0</ele><time>2026-05-01T08:23:01Z</time></trkpt><trkpt lat="42.40522045641924" lon="14.228959140575462"><ele>160.5</ele><time>2026-05-01T08:23:01.999Z</time></trkpt><trkpt lat="42.405132571216406" lon="14.228816514473046"><ele>162.0</ele><time>2026-05-01T08:23:02.999Z</time></trkpt><trkpt lat="42.40503881314033" lon="14.228670913742667"><ele>162.0</ele><time>2026-05-01T08:23:03.999Z</time></trkpt><trkpt lat="42.40495590931495" lon="14.22852400139971"><ele>162.0</ele><time>2026-05-01T08:23:04.999Z</time></trkpt><trkpt lat="42.4048926215494" lon="14.228417786541703"><ele>162.0</ele><time>2026-05-01T08:23:05.999Z</time></trkpt><trkpt lat="42.4048438896762" lon="14.228336223445513"><ele>162.0</ele><time>2026-05-01T08:23:06.999Z</time></trkpt><trkpt lat="42.40480591551929" lon="14.228211731986509"><ele>162.0</ele><time>2026-05-01T08:23:07.999Z</time></trkpt><trkpt lat="42.40477589567685" lon="14.228040929129172"><ele>164.5</ele><time>2026-05-01T08:23:08.999Z</time></trkpt><trkpt lat="42.404734374111655" lon="14.227872133375191"><ele>167.0</ele><time>2026-05-01T08:23:09.999Z</time></trkpt><trkpt lat="42.40468451096329" lon="14.227746726074752"><ele>169.5</ele><time>2026-05-01T08:23:10.999Z</time></trkpt><trkpt lat="42.40464839622966" lon="14.227592064439365"><ele>172.0</ele><time>2026-05-01T08:23:11.999Z</time></trkpt><trkpt lat="42.40460217781924" lon="14.227440384605348"><ele>168.25</ele><time>2026-05-01T08:23:12.999Z</time></trkpt><trkpt lat="42.40452299770847" lon="14.227273091689845"><ele>164.5</ele><time>2026-05-01T08:23:13.999Z</time></trkpt><trkpt lat="42.40444063139753" lon="14.227125186979936"><ele>160.75</ele><time>2026-05-01T08:23:14.999Z</time></trkpt><trkpt lat="42.40437841789189" lon="14.227004689008936"><ele>157.0</ele><time>2026-05-01T08:23:15.999Z</time></trkpt><trkpt lat="42.40433164159451" lon="14.226884040011328"><ele>157.0</ele><time>2026-05-01T08:23:16.999Z</time></trkpt><trkpt lat="42.40432492575049" lon="14.226780020850267"><ele>157.0</ele><time>2026-05-01T08:23:17.999Z</time></trkpt><trkpt lat="42.40431453454409" lon="14.22666314435392"><ele>157.0</ele><time>2026-05-01T08:23:18.999Z</time></trkpt><trkpt lat="42.40429204652579" lon="14.226578419565117"><ele>157.0</ele><time>2026-05-01T08:23:19.999Z</time></trkpt><trkpt lat="42.40427601695927" lon="14.226484686368018"><ele>157.0</ele><time>2026-05-01T08:23:20.999Z</time></trkpt><trkpt lat="42.4042119447768" lon="14.226411465627654"><ele>157.0</ele><time>2026-05-01T08:23:22.999Z</time></trkpt><trkpt lat="42.404111022329054" lon="14.226365178631971"><ele>155.4</ele><time>2026-05-01T08:23:24.999Z</time></trkpt><trkpt lat="42.404033323577245" lon="14.226318720694746"><ele>153.79999999999998</ele><time>2026-05-01T08:23:25.999Z</time></trkpt><trkpt lat="42.40396170580059" lon="14.226249889303912"><ele>152.2</ele><time>2026-05-01T08:23:26.999Z</time></trkpt><trkpt lat="42.40389688251936" lon="14.226175097599357"><ele>150.6</ele><time>2026-05-01T08:23:27.999Z</time></trkpt><trkpt lat="42.40381863834234" lon="14.22605886804989"><ele>149.0</ele><time>2026-05-01T08:23:28.999Z</time></trkpt><trkpt lat="42.40375688999854" lon="14.225960553630259"><ele>153.4</ele><time>2026-05-01T08:23:29.999Z</time></trkpt><trkpt lat="42.40370194587244" lon="14.225871220689069"><ele>157.8</ele><time>2026-05-01T08:23:30.999Z</time></trkpt><trkpt lat="42.40365487641525" lon="14.22576724066228"><ele>162.20000000000002</ele><time>2026-05-01T08:23:31.999Z</time></trkpt><trkpt lat="42.403634000551186" lon="14.225649496768867"><ele>166.60000000000002</ele><time>2026-05-01T08:23:32.999Z</time></trkpt><trkpt lat="42.403606564455764" lon="14.225509289726103"><ele>171.0</ele><time>2026-05-01T08:23:33.999Z</time></trkpt><trkpt lat="42.403557142147065" lon="14.22536535062609"><ele>171.0</ele><time>2026-05-01T08:23:34.999Z</time></trkpt><trkpt lat="42.40352090280479" lon="14.225229886720598"><ele>171.0</ele><time>2026-05-01T08:23:35.999Z</time></trkpt><trkpt lat="42.403503223018966" lon="14.225080161951011"><ele>171.0</ele><time>2026-05-01T08:23:36.999Z</time></trkpt><trkpt lat="42.40350007868918" lon="14.224918773438588"><ele>171.0</ele><time>2026-05-01T08:23:37.999Z</time></trkpt><trkpt lat="42.403499554044146" lon="14.224777294456723"><ele>171.0</ele><time>2026-05-01T08:23:39Z</time></trkpt><trkpt lat="42.403467238813455" lon="14.224672473816982"><ele>169.0</ele><time>2026-05-01T08:23:40Z</time></trkpt><trkpt lat="42.403431927548276" lon="14.224580214056106"><ele>167.0</ele><time>2026-05-01T08:23:41Z</time></trkpt><trkpt lat="42.403368209551324" lon="14.224491336673642"><ele>165.0</ele><time>2026-05-01T08:23:42Z</time></trkpt><trkpt lat="42.40329187789829" lon="14.224379035817677"><ele>163.0</ele><time>2026-05-01T08:23:43Z</time></trkpt><trkpt lat="42.403253456471454" lon="14.224278205229215"><ele>161.0</ele><time>2026-05-01T08:23:44Z</time></trkpt><trkpt lat="42.4032066655191" lon="14.224147340251307"><ele>161.0</ele><time>2026-05-01T08:23:45Z</time></trkpt><trkpt lat="42.40314611286353" lon="14.224036448675214"><ele>161.0</ele><time>2026-05-01T08:23:46Z</time></trkpt><trkpt lat="42.40308685685107" lon="14.223947168838942"><ele>161.0</ele><time>2026-05-01T08:23:47Z</time></trkpt><trkpt lat="42.40302526803933" lon="14.223880538023327"><ele>161.0</ele><time>2026-05-01T08:23:48Z</time></trkpt><trkpt lat="42.40293671338203" lon="14.223841095607103"><ele>161.0</ele><time>2026-05-01T08:23:49Z</time></trkpt><trkpt lat="42.40283260993174" lon="14.223836073648496"><ele>162.20000000000002</ele><time>2026-05-01T08:23:50Z</time></trkpt><trkpt lat="42.402718750264086" lon="14.223822291645606"><ele>163.4</ele><time>2026-05-01T08:23:51Z</time></trkpt><trkpt lat="42.402631419131204" lon="14.223788439198625"><ele>164.6</ele><time>2026-05-01T08:23:52Z</time></trkpt><trkpt lat="42.402550547147634" lon="14.223716007069553"><ele>165.8</ele><time>2026-05-01T08:23:53Z</time></trkpt><trkpt lat="42.40248162726398" lon="14.2236235748551"><ele>167.0</ele><time>2026-05-01T08:23:54Z</time></trkpt><trkpt lat="42.40237755589778" lon="14.223520256108188"><ele>167.0</ele><time>2026-05-01T08:23:55Z</time></trkpt><trkpt lat="42.402283114815184" lon="14.223434114729882"><ele>167.0</ele><time>2026-05-01T08:23:56Z</time></trkpt><trkpt lat="42.40221592277415" lon="14.223385303351135"><ele>167.0</ele><time>2026-05-01T08:23:57Z</time></trkpt><trkpt lat="42.402086248256786" lon="14.223407126100884"><ele>167.0</ele><time>2026-05-01T08:23:59Z</time></trkpt><trkpt lat="42.40199229835981" lon="14.22346933596645"><ele>167.0</ele><time>2026-05-01T08:24:00Z</time></trkpt><trkpt lat="42.40187707512724" lon="14.223545686656303"><ele>170.5</ele><time>2026-05-01T08:24:01Z</time></trkpt><trkpt lat="42.401747955643664" lon="14.223628000550784"><ele>174.0</ele><time>2026-05-01T08:24:02Z</time></trkpt><trkpt lat="42.40161318727567" lon="14.223715402768635"><ele>177.5</ele><time>2026-05-01T08:24:03Z</time></trkpt><trkpt lat="42.40148425402771" lon="14.223790677298396"><ele>181.0</ele><time>2026-05-01T08:24:04Z</time></trkpt><trkpt lat="42.4013834344577" lon="14.223840430030181"><ele>182.60000000000002</ele><time>2026-05-01T08:24:05Z</time></trkpt><trkpt lat="42.401261504762054" lon="14.223909730697454"><ele>184.2</ele><time>2026-05-01T08:24:06Z</time></trkpt><trkpt lat="42.401157402824325" lon="14.22397959824309"><ele>185.8</ele><time>2026-05-01T08:24:07Z</time></trkpt><trkpt lat="42.401080746186786" lon="14.2240413193926"><ele>187.39999999999998</ele><time>2026-05-01T08:24:08Z</time></trkpt><trkpt lat="42.401017661853125" lon="14.22409657794187"><ele>189.0</ele><time>2026-05-01T08:24:09Z</time></trkpt><trkpt lat="42.40095161082653" lon="14.224142321830278"><ele>189.5</ele><time>2026-05-01T08:24:10Z</time></trkpt><trkpt lat="42.40088414528956" lon="14.224192917256303"><ele>190.0</ele><time>2026-05-01T08:24:11Z</time></trkpt><trkpt lat="42.40081756531139" lon="14.224251619721818"><ele>190.5</ele><time>2026-05-01T08:24:12Z</time></trkpt><trkpt lat="42.40075440113551" lon="14.224303188171092"><ele>191.0</ele><time>2026-05-01T08:24:13Z</time></trkpt><trkpt lat="42.40065920219666" lon="14.224399348956682"><ele>191.5</ele><time>2026-05-01T08:24:15Z</time></trkpt><trkpt lat="42.400604962449904" lon="14.224450626498744"><ele>192.0</ele><time>2026-05-01T08:24:17Z</time></trkpt><trkpt lat="42.400560049814395" lon="14.22438730890107"><ele>192.0</ele><time>2026-05-01T08:24:19Z</time></trkpt><trkpt lat="42.400526930091004" lon="14.224295978720429"><ele>192.0</ele><time>2026-05-01T08:24:20Z</time></trkpt><trkpt lat="42.400471717056554" lon="14.224176355418201"><ele>192.0</ele><time>2026-05-01T08:24:21Z</time></trkpt><trkpt lat="42.40041255274307" lon="14.224072614168517"><ele>192.0</ele><time>2026-05-01T08:24:22Z</time></trkpt><trkpt lat="42.400359844516025" lon="14.223964641750733"><ele>192.0</ele><time>2026-05-01T08:24:23Z</time></trkpt><trkpt lat="42.40030138185311" lon="14.22386028475518"><ele>192.39999999999998</ele><time>2026-05-01T08:24:24Z</time></trkpt><trkpt lat="42.40024237031658" lon="14.223765556187473"><ele>192.79999999999998</ele><time>2026-05-01T08:24:25Z</time></trkpt><trkpt lat="42.40017804616389" lon="14.22366684664879"><ele>193.2</ele><time>2026-05-01T08:24:26Z</time></trkpt><trkpt lat="42.40011310630263" lon="14.223563607375258"><ele>193.6</ele><time>2026-05-01T08:24:27Z</time></trkpt><trkpt lat="42.40004234355351" lon="14.223472688976019"><ele>194.0</ele><time>2026-05-01T08:24:28Z</time></trkpt><trkpt lat="42.39996012156214" lon="14.223383972643765"><ele>194.0</ele><time>2026-05-01T08:24:29Z</time></trkpt><trkpt lat="42.399880674667365" lon="14.223289065345577"><ele>194.0</ele><time>2026-05-01T08:24:30Z</time></trkpt><trkpt lat="42.39979529505003" lon="14.223192466641411"><ele>194.0</ele><time>2026-05-01T08:24:31Z</time></trkpt><trkpt lat="42.399704095527014" lon="14.223089262385209"><ele>194.0</ele><time>2026-05-01T08:24:32Z</time></trkpt><trkpt lat="42.39960753989018" lon="14.222973253127572"><ele>194.0</ele><time>2026-05-01T08:24:33Z</time></trkpt><trkpt lat="42.399502235650615" lon="14.222853827702895"><ele>194.0</ele><time>2026-05-01T08:24:34Z</time></trkpt><trkpt lat="42.39939369676668" lon="14.222731967712862"><ele>194.0</ele><time>2026-05-01T08:24:35Z</time></trkpt><trkpt lat="42.39928412684665" lon="14.222607362679907"><ele>194.0</ele><time>2026-05-01T08:24:36Z</time></trkpt><trkpt lat="42.39917914660951" lon="14.222495512030191"><ele>194.0</ele><time>2026-05-01T08:24:37Z</time></trkpt><trkpt lat="42.39907537927437" lon="14.22238988015365"><ele>194.0</ele><time>2026-05-01T08:24:38Z</time></trkpt><trkpt lat="42.39897243687459" lon="14.222270868515157"><ele>194.0</ele><time>2026-05-01T08:24:39Z</time></trkpt><trkpt lat="42.39889314401431" lon="14.22213744436834"><ele>194.0</ele><time>2026-05-01T08:24:40Z</time></trkpt><trkpt lat="42.39880792262527" lon="14.222034365297214"><ele>194.2</ele><time>2026-05-01T08:24:41Z</time></trkpt><trkpt lat="42.39871954355676" lon="14.221951080364677"><ele>194.39999999999998</ele><time>2026-05-01T08:24:42Z</time></trkpt><trkpt lat="42.398648718408914" lon="14.221844821634837"><ele>194.6</ele><time>2026-05-01T08:24:43Z</time></trkpt><trkpt lat="42.398583224037914" lon="14.221730965689833"><ele>194.8</ele><time>2026-05-01T08:24:44Z</time></trkpt><trkpt lat="42.39852067706412" lon="14.221615297070656"><ele>195.0</ele><time>2026-05-01T08:24:45Z</time></trkpt><trkpt lat="42.39847230053382" lon="14.221479360181174"><ele>195.8</ele><time>2026-05-01T08:24:46Z</time></trkpt><trkpt lat="42.398411476669956" lon="14.221351864011021"><ele>196.6</ele><time>2026-05-01T08:24:47Z</time></trkpt><trkpt lat="42.39834832556104" lon="14.221223037921396"><ele>197.39999999999998</ele><time>2026-05-01T08:24:48Z</time></trkpt><trkpt lat="42.39828757074264" lon="14.221099929478983"><ele>198.2</ele><time>2026-05-01T08:24:49Z</time></trkpt><trkpt lat="42.39823641688814" lon="14.22099556753456"><ele>199.0</ele><time>2026-05-01T08:24:50Z</time></trkpt><trkpt lat="42.398190339298225" lon="14.220901472552837"><ele>199.0</ele><time>2026-05-01T08:24:51Z</time></trkpt><trkpt lat="42.39815437759506" lon="14.22082803518552"><ele>199.0</ele><time>2026-05-01T08:24:52Z</time></trkpt><trkpt lat="42.39811046616765" lon="14.220758214748194"><ele>199.0</ele><time>2026-05-01T08:24:54Z</time></trkpt><trkpt lat="42.39796308043144" lon="14.22090146724965"><ele>199.0</ele><time>2026-05-01T08:24:56Z</time></trkpt><trkpt lat="42.39787621117807" lon="14.22100468390488"><ele>199.0</ele><time>2026-05-01T08:24:57Z</time></trkpt><trkpt lat="42.397790780500316" lon="14.221111111903628"><ele>199.0</ele><time>2026-05-01T08:24:58Z</time></trkpt><trkpt lat="42.39769895104124" lon="14.221216761541443"><ele>199.0</ele><time>2026-05-01T08:24:59Z</time></trkpt><trkpt lat="42.397602894416" lon="14.221320963516128"><ele>199.0</ele><time>2026-05-01T08:25:00Z</time></trkpt><trkpt lat="42.39750113850613" lon="14.221425864732606"><ele>199.0</ele><time>2026-05-01T08:25:01Z</time></trkpt><trkpt lat="42.39740136760975" lon="14.221526741340838"><ele>198.2</ele><time>2026-05-01T08:25:02Z</time></trkpt><trkpt lat="42.39730924800607" lon="14.221619121825565"><ele>197.39999999999998</ele><time>2026-05-01T08:25:03Z</time></trkpt><trkpt lat="42.39722798625981" lon="14.221700543317738"><ele>196.6</ele><time>2026-05-01T08:25:04Z</time></trkpt><trkpt lat="42.39716110331896" lon="14.221797602032838"><ele>195.8</ele><time>2026-05-01T08:25:05Z</time></trkpt><trkpt lat="42.39710228398896" lon="14.221883080665945"><ele>195.0</ele><time>2026-05-01T08:25:06Z</time></trkpt><trkpt lat="42.39707215359" lon="14.221982240027307"><ele>195.0</ele><time>2026-05-01T08:25:07Z</time></trkpt><trkpt lat="42.397076003438926" lon="14.22208438490166"><ele>195.0</ele><time>2026-05-01T08:25:08Z</time></trkpt><trkpt lat="42.397113171237436" lon="14.22218612379866"><ele>195.0</ele><time>2026-05-01T08:25:09Z</time></trkpt><trkpt lat="42.39717990619761" lon="14.222292769111325"><ele>195.0</ele><time>2026-05-01T08:25:10Z</time></trkpt><trkpt lat="42.39725143273793" lon="14.222432292874084"><ele>195.0</ele><time>2026-05-01T08:25:11Z</time></trkpt><trkpt lat="42.39733634431272" lon="14.222592657147585"><ele>194.6</ele><time>2026-05-01T08:25:12Z</time></trkpt><trkpt lat="42.39741611444158" lon="14.22274284063498"><ele>194.2</ele><time>2026-05-01T08:25:13Z</time></trkpt><trkpt lat="42.397478706770414" lon="14.222860753068188"><ele>193.8</ele><time>2026-05-01T08:25:14Z</time></trkpt><trkpt lat="42.39753011764292" lon="14.222973884894014"><ele>193.4</ele><time>2026-05-01T08:25:15Z</time></trkpt><trkpt lat="42.39758553698779" lon="14.223087277560426"><ele>193.0</ele><time>2026-05-01T08:25:16Z</time></trkpt><trkpt lat="42.397636549713" lon="14.223207186280455"><ele>192.4</ele><time>2026-05-01T08:25:17Z</time></trkpt><trkpt lat="42.39767132205796" lon="14.223293575160959"><ele>191.8</ele><time>2026-05-01T08:25:18Z</time></trkpt><trkpt lat="42.397681474166276" lon="14.223381610624099"><ele>191.2</ele><time>2026-05-01T08:25:19Z</time></trkpt><trkpt lat="42.397719988951984" lon="14.223527574753408"><ele>190.6</ele><time>2026-05-01T08:25:21Z</time></trkpt><trkpt lat="42.39779107292249" lon="14.223707324566282"><ele>190.0</ele><time>2026-05-01T08:25:23Z</time></trkpt><trkpt lat="42.397823764838954" lon="14.223808915880547"><ele>187.66666666666669</ele><time>2026-05-01T08:25:24Z</time></trkpt><trkpt lat="42.39758785745419" lon="14.224115708579324"><ele>185.33333333333334</ele><time>2026-05-01T08:25:25Z</time></trkpt><trkpt lat="42.39757099677956" lon="14.22426186947991"><ele>183.0</ele><time>2026-05-01T08:25:26Z</time></trkpt><trkpt lat="42.397552000401376" lon="14.224423291727428"><ele>183.0</ele><time>2026-05-01T08:25:27Z</time></trkpt><trkpt lat="42.397523547844294" lon="14.224573989091327"><ele>183.0</ele><time>2026-05-01T08:25:28Z</time></trkpt><trkpt lat="42.39749071731889" lon="14.22472782013323"><ele>183.0</ele><time>2026-05-01T08:25:29Z</time></trkpt><trkpt lat="42.39745719828541" lon="14.224891095827209"><ele>183.0</ele><time>2026-05-01T08:25:30Z</time></trkpt><trkpt lat="42.39746432459516" lon="14.225048543355573"><ele>181.4</ele><time>2026-05-01T08:25:31Z</time></trkpt><trkpt lat="42.3974881242396" lon="14.22520714536312"><ele>179.8</ele><time>2026-05-01T08:25:32Z</time></trkpt><trkpt lat="42.3975204694412" lon="14.225357046098864"><ele>178.2</ele><time>2026-05-01T08:25:33Z</time></trkpt><trkpt lat="42.39754636967607" lon="14.22549479302481"><ele>176.6</ele><time>2026-05-01T08:25:34Z</time></trkpt><trkpt lat="42.39756691977983" lon="14.225621861787207"><ele>175.0</ele><time>2026-05-01T08:25:35Z</time></trkpt><trkpt lat="42.397575740460574" lon="14.22571936096919"><ele>173.16666666666669</ele><time>2026-05-01T08:25:36Z</time></trkpt><trkpt lat="42.397581797585886" lon="14.22581064446685"><ele>171.33333333333334</ele><time>2026-05-01T08:25:37Z</time></trkpt><trkpt lat="42.39753746679674" lon="14.22592609701539"><ele>169.5</ele><time>2026-05-01T08:25:39Z</time></trkpt><trkpt lat="42.39745032813087" lon="14.225959977718023"><ele>167.66666666666666</ele><time>2026-05-01T08:25:41Z</time></trkpt><trkpt lat="42.39738317475676" lon="14.225847290775562"><ele>165.83333333333331</ele><time>2026-05-01T08:25:43Z</time></trkpt><trkpt lat="42.39735453663676" lon="14.225767573449609"><ele>164.0</ele><time>2026-05-01T08:25:44Z</time></trkpt><trkpt lat="42.39732160045683" lon="14.225691065982835"><ele>163.0</ele><time>2026-05-01T08:25:45.001Z</time></trkpt><trkpt lat="42.39723097992728" lon="14.225561237136697"><ele>162.0</ele><time>2026-05-01T08:25:47.001Z</time></trkpt><trkpt lat="42.3971823698535" lon="14.225489933070005"><ele>161.0</ele><time>2026-05-01T08:25:48.001Z</time></trkpt><trkpt lat="42.397138387055776" lon="14.225427365938447"><ele>160.0</ele><time>2026-05-01T08:25:49.001Z</time></trkpt><trkpt lat="42.397074936497745" lon="14.225362958893689"><ele>159.0</ele><time>2026-05-01T08:25:50.001Z</time></trkpt><trkpt lat="42.39701162908726" lon="14.225323513930567"><ele>158.0</ele><time>2026-05-01T08:25:51.001Z</time></trkpt><trkpt lat="42.39694264448657" lon="14.225294523908286"><ele>158.0</ele><time>2026-05-01T08:25:52.001Z</time></trkpt><trkpt lat="42.39686084413419" lon="14.225283652886226"><ele>158.0</ele><time>2026-05-01T08:25:53.001Z</time></trkpt><trkpt lat="42.39677325485625" lon="14.225292835675985"><ele>158.0</ele><time>2026-05-01T08:25:54.001Z</time></trkpt><trkpt lat="42.39667806449028" lon="14.225291706969418"><ele>158.0</ele><time>2026-05-01T08:25:55.001Z</time></trkpt><trkpt lat="42.39657853182951" lon="14.225308962428644"><ele>158.0</ele><time>2026-05-01T08:25:56.001Z</time></trkpt><trkpt lat="42.39649204573544" lon="14.225318356395034"><ele>158.0</ele><time>2026-05-01T08:25:57.001Z</time></trkpt><trkpt lat="42.396417528479425" lon="14.225289859536257"><ele>158.0</ele><time>2026-05-01T08:25:58.001Z</time></trkpt><trkpt lat="42.39633189783951" lon="14.225236635056081"><ele>158.0</ele><time>2026-05-01T08:25:59.001Z</time></trkpt><trkpt lat="42.39625569563256" lon="14.225181642673835"><ele>158.0</ele><time>2026-05-01T08:26:00.001Z</time></trkpt><trkpt lat="42.39616271400245" lon="14.225147012942031"><ele>158.0</ele><time>2026-05-01T08:26:01.001Z</time></trkpt><trkpt lat="42.39606856607217" lon="14.225099790812086"><ele>153.83333333333331</ele><time>2026-05-01T08:26:02.001Z</time></trkpt><trkpt lat="42.395999250369634" lon="14.225056554499295"><ele>149.66666666666666</ele><time>2026-05-01T08:26:03.001Z</time></trkpt><trkpt lat="42.39593973290755" lon="14.225013107279299"><ele>145.5</ele><time>2026-05-01T08:26:04.001Z</time></trkpt><trkpt lat="42.395848579624605" lon="14.225006851842597"><ele>141.33333333333334</ele><time>2026-05-01T08:26:05Z</time></trkpt><trkpt lat="42.39576321381257" lon="14.224974606053745"><ele>137.16666666666669</ele><time>2026-05-01T08:26:06Z</time></trkpt><trkpt lat="42.39567509420415" lon="14.224951991199493"><ele>133.0</ele><time>2026-05-01T08:26:07Z</time></trkpt><trkpt lat="42.39560402487246" lon="14.224898736901581"><ele>133.0</ele><time>2026-05-01T08:26:08Z</time></trkpt><trkpt lat="42.395518998486246" lon="14.224850151465642"><ele>133.0</ele><time>2026-05-01T08:26:09Z</time></trkpt><trkpt lat="42.39544621140609" lon="14.22480769430057"><ele>133.0</ele><time>2026-05-01T08:26:10Z</time></trkpt><trkpt lat="42.395374728451436" lon="14.224769659211836"><ele>133.0</ele><time>2026-05-01T08:26:11Z</time></trkpt><trkpt lat="42.39529631527774" lon="14.224747030689931"><ele>133.0</ele><time>2026-05-01T08:26:12Z</time></trkpt><trkpt lat="42.39521916434409" lon="14.224722913927472"><ele>133.0</ele><time>2026-05-01T08:26:13Z</time></trkpt><trkpt lat="42.39514090491133" lon="14.224696928427894"><ele>130.0</ele><time>2026-05-01T08:26:14Z</time></trkpt><trkpt lat="42.39504139713354" lon="14.224682022561971"><ele>127.00000000000001</ele><time>2026-05-01T08:26:15Z</time></trkpt><trkpt lat="42.3949332429223" lon="14.224684689999636"><ele>124.00000000000001</ele><time>2026-05-01T08:26:16Z</time></trkpt><trkpt lat="42.39484204079982" lon="14.224672228862893"><ele>121.0</ele><time>2026-05-01T08:26:17Z</time></trkpt><trkpt lat="42.394740830228756" lon="14.224649244895915"><ele>118.0</ele><time>2026-05-01T08:26:18Z</time></trkpt><trkpt lat="42.39465334740361" lon="14.224609424797038"><ele>115.16666666666667</ele><time>2026-05-01T08:26:19Z</time></trkpt><trkpt lat="42.394571113301836" lon="14.224563815187445"><ele>112.33333333333334</ele><time>2026-05-01T08:26:20Z</time></trkpt><trkpt lat="42.39449456769512" lon="14.22451038872205"><ele>109.5</ele><time>2026-05-01T08:26:21Z</time></trkpt><trkpt lat="42.39441882165881" lon="14.224441465867406"><ele>106.66666666666666</ele><time>2026-05-01T08:26:22Z</time></trkpt><trkpt lat="42.39435867037443" lon="14.224365732353624"><ele>103.83333333333333</ele><time>2026-05-01T08:26:23Z</time></trkpt><trkpt lat="42.39430481482826" lon="14.22429885620072"><ele>101.0</ele><time>2026-05-01T08:26:24Z</time></trkpt><trkpt lat="42.39423692153468" lon="14.224174439998988"><ele>100.99999999999999</ele><time>2026-05-01T08:26:26Z</time></trkpt><trkpt lat="42.39417263330573" lon="14.22405821921053"><ele>101.0</ele><time>2026-05-01T08:26:28Z</time></trkpt><trkpt lat="42.394104470797295" lon="14.223989920404032"><ele>101.0</ele><time>2026-05-01T08:26:30Z</time></trkpt><trkpt lat="42.39404581416424" lon="14.22391995698654"><ele>101.0</ele><time>2026-05-01T08:26:33Z</time></trkpt><trkpt lat="42.39397522729442" lon="14.223837465626966"><ele>100.99999999999999</ele><time>2026-05-01T08:26:45Z</time></trkpt><trkpt lat="42.39390819745359" lon="14.223802955556023"><ele>101.0</ele><time>2026-05-01T08:26:47Z</time></trkpt><trkpt lat="42.39385039106019" lon="14.223900865111226"><ele>101.33333333333333</ele><time>2026-05-01T08:26:49Z</time></trkpt><trkpt lat="42.39378677660556" lon="14.223938425206565"><ele>101.66666666666666</ele><time>2026-05-01T08:26:50Z</time></trkpt><trkpt lat="42.39371018720331" lon="14.223931397083687"><ele>102.0</ele><time>2026-05-01T08:26:51Z</time></trkpt><trkpt lat="42.39365172273681" lon="14.22388359886676"><ele>102.33333333333334</ele><time>2026-05-01T08:26:52Z</time></trkpt><trkpt lat="42.39356191603224" lon="14.223893932367474"><ele>102.66666666666667</ele><time>2026-05-01T08:26:53Z</time></trkpt><trkpt lat="42.39356097210724" lon="14.224005790564503"><ele>103.0</ele><time>2026-05-01T08:26:59.999Z</time></trkpt><trkpt lat="42.39359965032704" lon="14.224107044684523"><ele>104.0</ele><time>2026-05-01T08:27:00.999Z</time></trkpt><trkpt lat="42.393655656503356" lon="14.224235013905377"><ele>105.0</ele><time>2026-05-01T08:27:01.999Z</time></trkpt><trkpt lat="42.39370211481425" lon="14.224390150817559"><ele>106.0</ele><time>2026-05-01T08:27:02.999Z</time></trkpt><trkpt lat="42.39373601311245" lon="14.224569626244195"><ele>107.0</ele><time>2026-05-01T08:27:03.999Z</time></trkpt><trkpt lat="42.3937735889281" lon="14.224755759202015"><ele>107.66666666666666</ele><time>2026-05-01T08:27:04.999Z</time></trkpt><trkpt lat="42.39381860818905" lon="14.224946458026476"><ele>108.33333333333334</ele><time>2026-05-01T08:27:05.999Z</time></trkpt><trkpt lat="42.393883519037146" lon="14.225151166803185"><ele>109.0</ele><time>2026-05-01T08:27:06.999Z</time></trkpt><trkpt lat="42.39395054613697" lon="14.225384281287733"><ele>105.0</ele><time>2026-05-01T08:27:07.999Z</time></trkpt><trkpt lat="42.39401323972094" lon="14.22561430935952"><ele>101.0</ele><time>2026-05-01T08:27:08.999Z</time></trkpt><trkpt lat="42.39405781203083" lon="14.225823205638939"><ele>97.0</ele><time>2026-05-01T08:27:09.999Z</time></trkpt><trkpt lat="42.3941146968104" lon="14.226009865848317"><ele>97.0</ele><time>2026-05-01T08:27:10.999Z</time></trkpt><trkpt lat="42.39417747331483" lon="14.226197753464538"><ele>97.0</ele><time>2026-05-01T08:27:11.999Z</time></trkpt><trkpt lat="42.39423701034803" lon="14.226372292840555"><ele>97.0</ele><time>2026-05-01T08:27:12.999Z</time></trkpt><trkpt lat="42.39429621718502" lon="14.226542364506976"><ele>97.0</ele><time>2026-05-01T08:27:13.999Z</time></trkpt><trkpt lat="42.39434723554198" lon="14.226685005462054"><ele>97.0</ele><time>2026-05-01T08:27:14.999Z</time></trkpt><trkpt lat="42.39440639120785" lon="14.226865765838738"><ele>97.0</ele><time>2026-05-01T08:27:15.999Z</time></trkpt><trkpt lat="42.39447626497984" lon="14.227091400101237"><ele>97.0</ele><time>2026-05-01T08:27:16.999Z</time></trkpt><trkpt lat="42.39455229605457" lon="14.227340542591627"><ele>97.33333333333334</ele><time>2026-05-01T08:27:17.999Z</time></trkpt><trkpt lat="42.39463193813152" lon="14.227614081562622"><ele>97.66666666666666</ele><time>2026-05-01T08:27:18.999Z</time></trkpt><trkpt lat="42.394716204546846" lon="14.22790350314558"><ele>98.0</ele><time>2026-05-01T08:27:19.999Z</time></trkpt><trkpt lat="42.394791882130825" lon="14.228165404649438"><ele>95.33333333333333</ele><time>2026-05-01T08:27:20.999Z</time></trkpt><trkpt lat="42.3948673975538" lon="14.228387069152927"><ele>92.66666666666666</ele><time>2026-05-01T08:27:21.999Z</time></trkpt><trkpt lat="42.39495457278642" lon="14.228608252646612"><ele>90.0</ele><time>2026-05-01T08:27:22.999Z</time></trkpt><trkpt lat="42.39504450595771" lon="14.228834905024783"><ele>91.33333333333333</ele><time>2026-05-01T08:27:23.999Z</time></trkpt><trkpt lat="42.39513789876215" lon="14.229071848477505"><ele>92.66666666666666</ele><time>2026-05-01T08:27:24.999Z</time></trkpt><trkpt lat="42.395235092497245" lon="14.229323274895442"><ele>94.0</ele><time>2026-05-01T08:27:25.999Z</time></trkpt><trkpt lat="42.395312495042305" lon="14.22955039611753"><ele>94.0</ele><time>2026-05-01T08:27:26.999Z</time></trkpt><trkpt lat="42.39538764590494" lon="14.229775064721567"><ele>94.0</ele><time>2026-05-01T08:27:27.999Z</time></trkpt><trkpt lat="42.395472677740464" lon="14.230028705423065"><ele>94.0</ele><time>2026-05-01T08:27:28.999Z</time></trkpt><trkpt lat="42.39555395304363" lon="14.230271140814457"><ele>90.33333333333333</ele><time>2026-05-01T08:27:29.999Z</time></trkpt><trkpt lat="42.39563945453645" lon="14.230520892391837"><ele>86.66666666666667</ele><time>2026-05-01T08:27:30.999Z</time></trkpt><trkpt lat="42.39573114611737" lon="14.230774508360378"><ele>83.0</ele><time>2026-05-01T08:27:31.999Z</time></trkpt><trkpt lat="42.395809569815555" lon="14.231014648661668"><ele>82.66666666666667</ele><time>2026-05-01T08:27:32.999Z</time></trkpt><trkpt lat="42.39588232877108" lon="14.23124830807991"><ele>82.33333333333333</ele><time>2026-05-01T08:27:33.999Z</time></trkpt><trkpt lat="42.39595058493516" lon="14.231467507091214"><ele>82.0</ele><time>2026-05-01T08:27:34.999Z</time></trkpt><trkpt lat="42.39602317054153" lon="14.231695394249778"><ele>82.0</ele><time>2026-05-01T08:27:35.999Z</time></trkpt><trkpt lat="42.39609307548012" lon="14.23191193669897"><ele>82.0</ele><time>2026-05-01T08:27:36.999Z</time></trkpt><trkpt lat="42.39615475027078" lon="14.232107951957673"><ele>82.0</ele><time>2026-05-01T08:27:37.999Z</time></trkpt><trkpt lat="42.396201992107116" lon="14.23232973953948"><ele>82.25</ele><time>2026-05-01T08:27:38.999Z</time></trkpt><trkpt lat="42.39622751422953" lon="14.232508450362714"><ele>82.5</ele><time>2026-05-01T08:27:39.999Z</time></trkpt><trkpt lat="42.396229373582486" lon="14.232697555251647"><ele>82.75</ele><time>2026-05-01T08:27:40.999Z</time></trkpt><trkpt lat="42.39621781464895" lon="14.23290410600842"><ele>83.0</ele><time>2026-05-01T08:27:41.999Z</time></trkpt><trkpt lat="42.39619425457518" lon="14.23314094215296"><ele>82.0</ele><time>2026-05-01T08:27:42.999Z</time></trkpt><trkpt lat="42.396189011272554" lon="14.233366046870097"><ele>81.0</ele><time>2026-05-01T08:27:43.999Z</time></trkpt><trkpt lat="42.39617884282118" lon="14.233572948524028"><ele>80.0</ele><time>2026-05-01T08:27:44.999Z</time></trkpt><trkpt lat="42.39617061294624" lon="14.233785467084594"><ele>80.0</ele><time>2026-05-01T08:27:45.999Z</time></trkpt><trkpt lat="42.3961558792095" lon="14.233991370050894"><ele>80.0</ele><time>2026-05-01T08:27:46.999Z</time></trkpt><trkpt lat="42.3961357336457" lon="14.234183973815345"><ele>80.0</ele><time>2026-05-01T08:27:47.999Z</time></trkpt><trkpt lat="42.39613135741545" lon="14.23437203962254"><ele>80.0</ele><time>2026-05-01T08:27:48.999Z</time></trkpt><trkpt lat="42.396154743416304" lon="14.234551625805878"><ele>80.0</ele><time>2026-05-01T08:27:49.999Z</time></trkpt><trkpt lat="42.396210698776954" lon="14.234714172715668"><ele>80.0</ele><time>2026-05-01T08:27:51Z</time></trkpt><trkpt lat="42.39628618606497" lon="14.234873287746735"><ele>80.0</ele><time>2026-05-01T08:27:52Z</time></trkpt><trkpt lat="42.396320202572525" lon="14.235054704427876"><ele>80.0</ele><time>2026-05-01T08:27:53Z</time></trkpt><trkpt lat="42.39635909518597" lon="14.235236184684162"><ele>78.75</ele><time>2026-05-01T08:27:54Z</time></trkpt><trkpt lat="42.3963881386353" lon="14.235411690704211"><ele>77.5</ele><time>2026-05-01T08:27:55Z</time></trkpt><trkpt lat="42.39637621946215" lon="14.235585401677488"><ele>76.25</ele><time>2026-05-01T08:27:56Z</time></trkpt><trkpt lat="42.39634604562141" lon="14.235761356863252"><ele>75.0</ele><time>2026-05-01T08:27:57Z</time></trkpt><trkpt lat="42.396299157271535" lon="14.235923211059461"><ele>75.0</ele><time>2026-05-01T08:27:58Z</time></trkpt><trkpt lat="42.396241212750866" lon="14.236083541416331"><ele>75.0</ele><time>2026-05-01T08:27:59Z</time></trkpt><trkpt lat="42.39618841694661" lon="14.236244543744645"><ele>75.0</ele><time>2026-05-01T08:28:00Z</time></trkpt><trkpt lat="42.396160658411134" lon="14.236407522633147"><ele>75.0</ele><time>2026-05-01T08:28:01Z</time></trkpt><trkpt lat="42.396130261350315" lon="14.236583405669561"><ele>74.75</ele><time>2026-05-01T08:28:02Z</time></trkpt><trkpt lat="42.39611214903275" lon="14.236763852286224"><ele>74.5</ele><time>2026-05-01T08:28:03Z</time></trkpt><trkpt lat="42.396104372663416" lon="14.236934418628174"><ele>74.25</ele><time>2026-05-01T08:28:04Z</time></trkpt><trkpt lat="42.39610067070254" lon="14.237085770162606"><ele>74.0</ele><time>2026-05-01T08:28:05Z</time></trkpt><trkpt lat="42.39608939617385" lon="14.237231486018029"><ele>73.25</ele><time>2026-05-01T08:28:06Z</time></trkpt><trkpt lat="42.39613477857559" lon="14.237373695467754"><ele>72.5</ele><time>2026-05-01T08:28:07Z</time></trkpt><trkpt lat="42.39617492227028" lon="14.237521690060165"><ele>71.75</ele><time>2026-05-01T08:28:08Z</time></trkpt><trkpt lat="42.39622552634098" lon="14.237686600914273"><ele>71.0</ele><time>2026-05-01T08:28:09Z</time></trkpt><trkpt lat="42.39624839293501" lon="14.237868016516218"><ele>71.0</ele><time>2026-05-01T08:28:10Z</time></trkpt><trkpt lat="42.396276984246946" lon="14.238055533141928"><ele>71.0</ele><time>2026-05-01T08:28:11Z</time></trkpt><trkpt lat="42.39631250445958" lon="14.23824040482337"><ele>71.0</ele><time>2026-05-01T08:28:12Z</time></trkpt><trkpt lat="42.39636138700898" lon="14.238420091318542"><ele>71.0</ele><time>2026-05-01T08:28:12.999Z</time></trkpt><trkpt lat="42.396410844396264" lon="14.238599216612267"><ele>69.75</ele><time>2026-05-01T08:28:13.999Z</time></trkpt><trkpt lat="42.39644045081958" lon="14.238755179833786"><ele>68.5</ele><time>2026-05-01T08:28:14.999Z</time></trkpt><trkpt lat="42.3964623984373" lon="14.238900078615016"><ele>67.25</ele><time>2026-05-01T08:28:15.999Z</time></trkpt><trkpt lat="42.39645223784553" lon="14.239042450611143"><ele>66.0</ele><time>2026-05-01T08:28:16.999Z</time></trkpt><trkpt lat="42.396444735522095" lon="14.239235229696286"><ele>65.33333333333333</ele><time>2026-05-01T08:28:17.999Z</time></trkpt><trkpt lat="42.39642526389282" lon="14.239452012835702"><ele>64.66666666666666</ele><time>2026-05-01T08:28:18.999Z</time></trkpt><trkpt lat="42.396391764369355" lon="14.239682860053392"><ele>64.0</ele><time>2026-05-01T08:28:19.999Z</time></trkpt><trkpt lat="42.396338014774464" lon="14.23989979028057"><ele>62.33333333333333</ele><time>2026-05-01T08:28:20.999Z</time></trkpt><trkpt lat="42.396296942686895" lon="14.240127060426088"><ele>60.66666666666667</ele><time>2026-05-01T08:28:21.999Z</time></trkpt><trkpt lat="42.39626637078952" lon="14.240331856754327"><ele>59.0</ele><time>2026-05-01T08:28:22.999Z</time></trkpt><trkpt lat="42.39623626522429" lon="14.240544620740685"><ele>58.25</ele><time>2026-05-01T08:28:23.999Z</time></trkpt><trkpt lat="42.39620175897527" lon="14.240748211561785"><ele>57.5</ele><time>2026-05-01T08:28:24.999Z</time></trkpt><trkpt lat="42.396161308775675" lon="14.240939030091615"><ele>56.75</ele><time>2026-05-01T08:28:25.999Z</time></trkpt><trkpt lat="42.39611726158674" lon="14.241125849523769"><ele>56.0</ele><time>2026-05-01T08:28:26.999Z</time></trkpt><trkpt lat="42.396089065250955" lon="14.241302877309932"><ele>56.0</ele><time>2026-05-01T08:28:27.999Z</time></trkpt><trkpt lat="42.39603109820561" lon="14.241456848299647"><ele>55.99999999999999</ele><time>2026-05-01T08:28:28.999Z</time></trkpt><trkpt lat="42.39599430276323" lon="14.241589613141855"><ele>55.99999999999999</ele><time>2026-05-01T08:28:29.999Z</time></trkpt><trkpt lat="42.39595464431292" lon="14.241727011235659"><ele>56.0</ele><time>2026-05-01T08:28:30.999Z</time></trkpt><trkpt lat="42.3959095950257" lon="14.241854589238592"><ele>56.0</ele><time>2026-05-01T08:28:31.999Z</time></trkpt><trkpt lat="42.39584394832002" lon="14.241993096616484"><ele>55.4</ele><time>2026-05-01T08:28:32.999Z</time></trkpt><trkpt lat="42.39577475536616" lon="14.242132920770652"><ele>54.8</ele><time>2026-05-01T08:28:33.999Z</time></trkpt><trkpt lat="42.39572210635233" lon="14.242253074404466"><ele>54.199999999999996</ele><time>2026-05-01T08:28:34.999Z</time></trkpt><trkpt lat="42.39568820767529" lon="14.242384237326512"><ele>53.599999999999994</ele><time>2026-05-01T08:28:35.999Z</time></trkpt><trkpt lat="42.39565672865181" lon="14.24250420731676"><ele>53.0</ele><time>2026-05-01T08:28:36.999Z</time></trkpt><trkpt lat="42.395646919499605" lon="14.242659660847412"><ele>52.25</ele><time>2026-05-01T08:28:37.999Z</time></trkpt><trkpt lat="42.39564500694525" lon="14.242840190351627"><ele>51.5</ele><time>2026-05-01T08:28:38.999Z</time></trkpt><trkpt lat="42.39564179516277" lon="14.243035774990476"><ele>50.75</ele><time>2026-05-01T08:28:39.999Z</time></trkpt><trkpt lat="42.39561870936479" lon="14.243239655150829"><ele>50.0</ele><time>2026-05-01T08:28:40.999Z</time></trkpt><trkpt lat="42.39561648180079" lon="14.243451044962267"><ele>50.0</ele><time>2026-05-01T08:28:41.999Z</time></trkpt><trkpt lat="42.39561271621192" lon="14.243653926819999"><ele>50.0</ele><time>2026-05-01T08:28:42.999Z</time></trkpt><trkpt lat="42.39560794221073" lon="14.243852154798493"><ele>50.0</ele><time>2026-05-01T08:28:43.999Z</time></trkpt><trkpt lat="42.39560299325081" lon="14.24405764815642"><ele>50.0</ele><time>2026-05-01T08:28:44.999Z</time></trkpt><trkpt lat="42.39559854285828" lon="14.244242439348273"><ele>49.75</ele><time>2026-05-01T08:28:45.999Z</time></trkpt><trkpt lat="42.395596007594484" lon="14.244418252225781"><ele>49.5</ele><time>2026-05-01T08:28:46.999Z</time></trkpt><trkpt lat="42.39559376420905" lon="14.244585253939047"><ele>49.25</ele><time>2026-05-01T08:28:47.999Z</time></trkpt><trkpt lat="42.39559161626022" lon="14.244745151119222"><ele>49.0</ele><time>2026-05-01T08:28:48.999Z</time></trkpt><trkpt lat="42.39558949791246" lon="14.244902844962432"><ele>48.75</ele><time>2026-05-01T08:28:49.999Z</time></trkpt><trkpt lat="42.39558758791439" lon="14.245045028630123"><ele>48.5</ele><time>2026-05-01T08:28:50.999Z</time></trkpt><trkpt lat="42.39558554985411" lon="14.24519674582912"><ele>48.25</ele><time>2026-05-01T08:28:51.999Z</time></trkpt><trkpt lat="42.39558333419453" lon="14.24533987266024"><ele>48.0</ele><time>2026-05-01T08:28:52.999Z</time></trkpt><trkpt lat="42.39557964163049" lon="14.24552443501415"><ele>47.75</ele><time>2026-05-01T08:28:53.999Z</time></trkpt><trkpt lat="42.39557436435451" lon="14.245699119508284"><ele>47.5</ele><time>2026-05-01T08:28:54.999Z</time></trkpt><trkpt lat="42.395564200715235" lon="14.2458724961318"><ele>47.25</ele><time>2026-05-01T08:28:55.999Z</time></trkpt><trkpt lat="42.3955459992444" lon="14.246029685039607"><ele>47.0</ele><time>2026-05-01T08:28:56.999Z</time></trkpt><trkpt lat="42.395504057403926" lon="14.24617795199062"><ele>47.0</ele><time>2026-05-01T08:28:57.999Z</time></trkpt><trkpt lat="42.39545546745492" lon="14.246332326450815"><ele>47.0</ele><time>2026-05-01T08:28:58.999Z</time></trkpt><trkpt lat="42.395403753520114" lon="14.24649472400703"><ele>47.0</ele><time>2026-05-01T08:28:59.999Z</time></trkpt><trkpt lat="42.395372586484534" lon="14.246660917240344"><ele>47.0</ele><time>2026-05-01T08:29:00.999Z</time></trkpt><trkpt lat="42.395328414488816" lon="14.246820379929002"><ele>47.0</ele><time>2026-05-01T08:29:01.999Z</time></trkpt><trkpt lat="42.39530273493756" lon="14.246972278904964"><ele>47.0</ele><time>2026-05-01T08:29:02.999Z</time></trkpt><trkpt lat="42.395275165283415" lon="14.247141682786296"><ele>47.0</ele><time>2026-05-01T08:29:03.999Z</time></trkpt><trkpt lat="42.39525015564249" lon="14.247314250496482"><ele>47.0</ele><time>2026-05-01T08:29:04.999Z</time></trkpt><trkpt lat="42.395199394811925" lon="14.247487848967545"><ele>46.25</ele><time>2026-05-01T08:29:05.999Z</time></trkpt><trkpt lat="42.395188977447624" lon="14.247670536921424"><ele>45.5</ele><time>2026-05-01T08:29:06.999Z</time></trkpt><trkpt lat="42.3951741755578" lon="14.247843987015695"><ele>44.75</ele><time>2026-05-01T08:29:07.999Z</time></trkpt><trkpt lat="42.3951719906845" lon="14.248031393825487"><ele>44.0</ele><time>2026-05-01T08:29:08.999Z</time></trkpt><trkpt lat="42.39518991570068" lon="14.248204299069428"><ele>43.25</ele><time>2026-05-01T08:29:09.999Z</time></trkpt><trkpt lat="42.395214729293144" lon="14.248386534310514"><ele>42.5</ele><time>2026-05-01T08:29:10.999Z</time></trkpt><trkpt lat="42.39520463390408" lon="14.248561736494725"><ele>41.75</ele><time>2026-05-01T08:29:11.999Z</time></trkpt><trkpt lat="42.39519053273105" lon="14.248739437808956"><ele>41.0</ele><time>2026-05-01T08:29:12.999Z</time></trkpt><trkpt lat="42.39516065899798" lon="14.248936481410144"><ele>41.0</ele><time>2026-05-01T08:29:13.999Z</time></trkpt><trkpt lat="42.39512578791711" lon="14.249151957423582"><ele>41.0</ele><time>2026-05-01T08:29:14.999Z</time></trkpt><trkpt lat="42.39508577107065" lon="14.24936501880191"><ele>41.0</ele><time>2026-05-01T08:29:15.999Z</time></trkpt><trkpt lat="42.395033049558265" lon="14.249569274240812"><ele>41.0</ele><time>2026-05-01T08:29:16.999Z</time></trkpt><trkpt lat="42.39496896214888" lon="14.249768558664519"><ele>41.0</ele><time>2026-05-01T08:29:17.999Z</time></trkpt><trkpt lat="42.39490252354797" lon="14.249984231382756"><ele>41.0</ele><time>2026-05-01T08:29:18.999Z</time></trkpt><trkpt lat="42.39483517284102" lon="14.250189645640955"><ele>40.0</ele><time>2026-05-01T08:29:19.999Z</time></trkpt><trkpt lat="42.39475538547631" lon="14.250432176869827"><ele>39.0</ele><time>2026-05-01T08:29:20.999Z</time></trkpt><trkpt lat="42.394681845890666" lon="14.250655546532267"><ele>38.0</ele><time>2026-05-01T08:29:21.999Z</time></trkpt><trkpt lat="42.39460390309478" lon="14.250882013112026"><ele>38.25</ele><time>2026-05-01T08:29:22.999Z</time></trkpt><trkpt lat="42.394535330253476" lon="14.251071437019302"><ele>38.5</ele><time>2026-05-01T08:29:23.999Z</time></trkpt><trkpt lat="42.3944778382808" lon="14.251244365331713"><ele>38.75</ele><time>2026-05-01T08:29:24.999Z</time></trkpt><trkpt lat="42.394438948854926" lon="14.251419777185111"><ele>39.0</ele><time>2026-05-01T08:29:25.999Z</time></trkpt><trkpt lat="42.39438664895949" lon="14.25158226660855"><ele>39.0</ele><time>2026-05-01T08:29:26.999Z</time></trkpt><trkpt lat="42.39434424103267" lon="14.251742349408364"><ele>39.0</ele><time>2026-05-01T08:29:27.999Z</time></trkpt><trkpt lat="42.39430151593669" lon="14.251886220184526"><ele>39.0</ele><time>2026-05-01T08:29:28.999Z</time></trkpt><trkpt lat="42.39426936583843" lon="14.252004753323506"><ele>39.0</ele><time>2026-05-01T08:29:29.999Z</time></trkpt><trkpt lat="42.39424263161284" lon="14.252092698092477"><ele>39.0</ele><time>2026-05-01T08:29:30.999Z</time></trkpt><trkpt lat="42.39421221791113" lon="14.252170992349818"><ele>38.4</ele><time>2026-05-01T08:29:32.999Z</time></trkpt><trkpt lat="42.39415283601023" lon="14.252307020880664"><ele>37.8</ele><time>2026-05-01T08:29:36.999Z</time></trkpt><trkpt lat="42.39419157756074" lon="14.25241711709945"><ele>37.2</ele><time>2026-05-01T08:29:37.999Z</time></trkpt><trkpt lat="42.39419457051073" lon="14.252584367375714"><ele>36.6</ele><time>2026-05-01T08:29:39.999Z</time></trkpt><trkpt lat="42.39418232809388" lon="14.252716433884238"><ele>36.0</ele><time>2026-05-01T08:29:41.999Z</time></trkpt><trkpt lat="42.394156713039365" lon="14.252803086912117"><ele>36.0</ele><time>2026-05-01T08:29:43.999Z</time></trkpt><trkpt lat="42.39399203144135" lon="14.252726446851899"><ele>36.0</ele><time>2026-05-01T08:29:46.998Z</time></trkpt><trkpt lat="42.39389032498721" lon="14.252629329032597"><ele>36.0</ele><time>2026-05-01T08:29:47.998Z</time></trkpt><trkpt lat="42.39374615353086" lon="14.252508284471276"><ele>35.333333333333336</ele><time>2026-05-01T08:29:48.998Z</time></trkpt><trkpt lat="42.39357675825408" lon="14.252375595415947"><ele>34.66666666666667</ele><time>2026-05-01T08:29:49.998Z</time></trkpt><trkpt lat="42.39338770909126" lon="14.25222493908273"><ele>34.0</ele><time>2026-05-01T08:29:50.998Z</time></trkpt><trkpt lat="42.3931970754461" lon="14.252069074413393"><ele>34.66666666666667</ele><time>2026-05-01T08:29:51.998Z</time></trkpt><trkpt lat="42.39300966882835" lon="14.25191051013593"><ele>35.333333333333336</ele><time>2026-05-01T08:29:52.998Z</time></trkpt><trkpt lat="42.39282634837047" lon="14.251755024700943"><ele>36.0</ele><time>2026-05-01T08:29:53.998Z</time></trkpt><trkpt lat="42.39267176308297" lon="14.25162392254193"><ele>36.0</ele><time>2026-05-01T08:29:54.998Z</time></trkpt><trkpt lat="42.39254496000335" lon="14.251509444976184"><ele>36.0</ele><time>2026-05-01T08:29:55.998Z</time></trkpt><trkpt lat="42.39242888587215" lon="14.251403780186433"><ele>36.0</ele><time>2026-05-01T08:29:57Z</time></trkpt><trkpt lat="42.39232301064449" lon="14.251310237431769"><ele>36.0</ele><time>2026-05-01T08:29:58Z</time></trkpt><trkpt lat="42.392215071420516" lon="14.251218340352391"><ele>35.8</ele><time>2026-05-01T08:29:59Z</time></trkpt><trkpt lat="42.39210356313052" lon="14.251123484795633"><ele>35.6</ele><time>2026-05-01T08:30:00Z</time></trkpt><trkpt lat="42.39199950801129" lon="14.251037786651988"><ele>35.4</ele><time>2026-05-01T08:30:01Z</time></trkpt><trkpt lat="42.39191226583289" lon="14.250971496587098"><ele>35.2</ele><time>2026-05-01T08:30:02Z</time></trkpt><trkpt lat="42.39183084908342" lon="14.250903312899094"><ele>35.0</ele><time>2026-05-01T08:30:03Z</time></trkpt><trkpt lat="42.39172976416733" lon="14.25082296737995"><ele>35.0</ele><time>2026-05-01T08:30:04Z</time></trkpt><trkpt lat="42.391628527248194" lon="14.250727069085972"><ele>35.0</ele><time>2026-05-01T08:30:05Z</time></trkpt><trkpt lat="42.39152105272879" lon="14.250638729483406"><ele>35.0</ele><time>2026-05-01T08:30:06Z</time></trkpt><trkpt lat="42.39140627287769" lon="14.250544130266263"><ele>35.0</ele><time>2026-05-01T08:30:07Z</time></trkpt><trkpt lat="42.39129078208926" lon="14.250445088486716"><ele>35.666666666666664</ele><time>2026-05-01T08:30:08Z</time></trkpt><trkpt lat="42.391165077892765" lon="14.250336465325484"><ele>36.333333333333336</ele><time>2026-05-01T08:30:09Z</time></trkpt><trkpt lat="42.391034285850495" lon="14.250222288876603"><ele>37.0</ele><time>2026-05-01T08:30:10Z</time></trkpt><trkpt lat="42.39089746482106" lon="14.250096924782968"><ele>37.0</ele><time>2026-05-01T08:30:11Z</time></trkpt><trkpt lat="42.390749202886816" lon="14.249969271795552"><ele>37.0</ele><time>2026-05-01T08:30:12Z</time></trkpt><trkpt lat="42.39059875044166" lon="14.249843598966338"><ele>37.0</ele><time>2026-05-01T08:30:13Z</time></trkpt><trkpt lat="42.390454002809705" lon="14.249720016740628"><ele>38.0</ele><time>2026-05-01T08:30:14Z</time></trkpt><trkpt lat="42.390284240046995" lon="14.249600894999176"><ele>39.0</ele><time>2026-05-01T08:30:15Z</time></trkpt><trkpt lat="42.39013057882732" lon="14.249487502462909"><ele>40.0</ele><time>2026-05-01T08:30:16Z</time></trkpt><trkpt lat="42.38997826603356" lon="14.249390254404753"><ele>40.0</ele><time>2026-05-01T08:30:17Z</time></trkpt><trkpt lat="42.389824643246" lon="14.249306878197622"><ele>40.0</ele><time>2026-05-01T08:30:18Z</time></trkpt><trkpt lat="42.389665429198836" lon="14.249215076724424"><ele>40.0</ele><time>2026-05-01T08:30:19Z</time></trkpt><trkpt lat="42.38950250942786" lon="14.249114827158587"><ele>40.333333333333336</ele><time>2026-05-01T08:30:20Z</time></trkpt><trkpt lat="42.38934145900137" lon="14.249014267974745"><ele>40.666666666666664</ele><time>2026-05-01T08:30:21Z</time></trkpt><trkpt lat="42.389182526605296" lon="14.248909685070943"><ele>41.0</ele><time>2026-05-01T08:30:22Z</time></trkpt><trkpt lat="42.38902591788786" lon="14.2487989679583"><ele>41.0</ele><time>2026-05-01T08:30:23Z</time></trkpt><trkpt lat="42.388870110402536" lon="14.248686671488862"><ele>41.0</ele><time>2026-05-01T08:30:24Z</time></trkpt><trkpt lat="42.38871442528719" lon="14.24855355822736"><ele>41.0</ele><time>2026-05-01T08:30:25Z</time></trkpt><trkpt lat="42.38857582731773" lon="14.248401933791753"><ele>40.0</ele><time>2026-05-01T08:30:26Z</time></trkpt><trkpt lat="42.388439763306536" lon="14.248249440700807"><ele>39.0</ele><time>2026-05-01T08:30:27Z</time></trkpt><trkpt lat="42.38830480395978" lon="14.248083433821565"><ele>38.0</ele><time>2026-05-01T08:30:28Z</time></trkpt><trkpt lat="42.388170636229034" lon="14.24790911770262"><ele>37.33333333333333</ele><time>2026-05-01T08:30:29Z</time></trkpt><trkpt lat="42.38804110478455" lon="14.247718508594994"><ele>36.666666666666664</ele><time>2026-05-01T08:30:30Z</time></trkpt><trkpt lat="42.3879177768154" lon="14.247532433153154"><ele>36.0</ele><time>2026-05-01T08:30:31Z</time></trkpt><trkpt lat="42.38779792947214" lon="14.24735811016742"><ele>37.75</ele><time>2026-05-01T08:30:32Z</time></trkpt><trkpt lat="42.38768474196007" lon="14.24720367281305"><ele>39.5</ele><time>2026-05-01T08:30:33Z</time></trkpt><trkpt lat="42.3875826020209" lon="14.24706003628998"><ele>41.25</ele><time>2026-05-01T08:30:34Z</time></trkpt><trkpt lat="42.387487935825014" lon="14.246924254585371"><ele>43.0</ele><time>2026-05-01T08:30:35Z</time></trkpt><trkpt lat="42.38740052939668" lon="14.246801974508733"><ele>43.0</ele><time>2026-05-01T08:30:36Z</time></trkpt><trkpt lat="42.38732771912052" lon="14.246684962439288"><ele>43.0</ele><time>2026-05-01T08:30:37Z</time></trkpt><trkpt lat="42.38726487553304" lon="14.246591054250862"><ele>43.0</ele><time>2026-05-01T08:30:38Z</time></trkpt><trkpt lat="42.38719618005688" lon="14.246506341255452"><ele>43.0</ele><time>2026-05-01T08:30:39Z</time></trkpt><trkpt lat="42.38713445498083" lon="14.246424909426619"><ele>43.0</ele><time>2026-05-01T08:30:40Z</time></trkpt><trkpt lat="42.387091718165735" lon="14.246343416745095"><ele>42.833333333333336</ele><time>2026-05-01T08:30:41Z</time></trkpt><trkpt lat="42.38704267589714" lon="14.246253269592232"><ele>42.66666666666667</ele><time>2026-05-01T08:30:42Z</time></trkpt><trkpt lat="42.387113879117855" lon="14.246209263314128"><ele>42.5</ele><time>2026-05-01T08:30:43Z</time></trkpt><trkpt lat="42.387049853599244" lon="14.24608188030316"><ele>42.333333333333336</ele><time>2026-05-01T08:30:45Z</time></trkpt><trkpt lat="42.38699268529444" lon="14.246015435838983"><ele>42.166666666666664</ele><time>2026-05-01T08:30:46Z</time></trkpt><trkpt lat="42.38693819514383" lon="14.24593371535867"><ele>42.0</ele><time>2026-05-01T08:30:47Z</time></trkpt><trkpt lat="42.38688265567691" lon="14.245838122684797"><ele>42.0</ele><time>2026-05-01T08:30:48Z</time></trkpt><trkpt lat="42.386811959105906" lon="14.245721962540232"><ele>42.0</ele><time>2026-05-01T08:30:49Z</time></trkpt><trkpt lat="42.38671534286743" lon="14.245574050589516"><ele>42.0</ele><time>2026-05-01T08:30:49.999Z</time></trkpt><trkpt lat="42.38660976817717" lon="14.245428614157513"><ele>42.0</ele><time>2026-05-01T08:30:50.999Z</time></trkpt><trkpt lat="42.3864916741691" lon="14.24528276327661"><ele>42.0</ele><time>2026-05-01T08:30:51.999Z</time></trkpt><trkpt lat="42.38637494062523" lon="14.24515916930137"><ele>42.0</ele><time>2026-05-01T08:30:52.999Z</time></trkpt><trkpt lat="42.38627344840605" lon="14.245062743126628"><ele>42.0</ele><time>2026-05-01T08:30:53.999Z</time></trkpt><trkpt lat="42.38617326946212" lon="14.244975701208176"><ele>42.0</ele><time>2026-05-01T08:30:54.999Z</time></trkpt><trkpt lat="42.38607025484055" lon="14.244877514780237"><ele>43.0</ele><time>2026-05-01T08:30:55.999Z</time></trkpt><trkpt lat="42.38596644491844" lon="14.244779747150059"><ele>44.0</ele><time>2026-05-01T08:30:56.999Z</time></trkpt><trkpt lat="42.38585742649271" lon="14.244686798996907"><ele>45.0</ele><time>2026-05-01T08:30:57.999Z</time></trkpt><trkpt lat="42.38575216428613" lon="14.244585423313866"><ele>46.0</ele><time>2026-05-01T08:30:58.999Z</time></trkpt><trkpt lat="42.38564585518833" lon="14.24448602779221"><ele>46.0</ele><time>2026-05-01T08:30:59.999Z</time></trkpt><trkpt lat="42.38553694033057" lon="14.244392110501606"><ele>46.0</ele><time>2026-05-01T08:31:00.999Z</time></trkpt><trkpt lat="42.385424595324764" lon="14.244298458511706"><ele>46.0</ele><time>2026-05-01T08:31:01.999Z</time></trkpt><trkpt lat="42.38531232104566" lon="14.244198366557066"><ele>46.0</ele><time>2026-05-01T08:31:02.999Z</time></trkpt><trkpt lat="42.38520630242389" lon="14.244102838889715"><ele>46.5</ele><time>2026-05-01T08:31:03.999Z</time></trkpt><trkpt lat="42.385103599464195" lon="14.244008758145327"><ele>47.0</ele><time>2026-05-01T08:31:04.999Z</time></trkpt><trkpt lat="42.38500134610527" lon="14.243900875868885"><ele>47.5</ele><time>2026-05-01T08:31:05.999Z</time></trkpt><trkpt lat="42.3849200979153" lon="14.24376649652673"><ele>48.0</ele><time>2026-05-01T08:31:06.999Z</time></trkpt><trkpt lat="42.3848581445852" lon="14.243620852978161"><ele>48.0</ele><time>2026-05-01T08:31:07.999Z</time></trkpt><trkpt lat="42.38480177882337" lon="14.243495207442775"><ele>48.0</ele><time>2026-05-01T08:31:08.999Z</time></trkpt><trkpt lat="42.38470920265698" lon="14.24340603636515"><ele>48.0</ele><time>2026-05-01T08:31:09.999Z</time></trkpt><trkpt lat="42.38460539838129" lon="14.243346415180147"><ele>48.0</ele><time>2026-05-01T08:31:10.999Z</time></trkpt><trkpt lat="42.384495446556855" lon="14.243293005779817"><ele>47.75</ele><time>2026-05-01T08:31:11.999Z</time></trkpt><trkpt lat="42.384370184635884" lon="14.24324353299442"><ele>47.5</ele><time>2026-05-01T08:31:12.999Z</time></trkpt><trkpt lat="42.3842313986937" lon="14.243176531562987"><ele>47.25</ele><time>2026-05-01T08:31:13.999Z</time></trkpt><trkpt lat="42.384094137407125" lon="14.243083153010398"><ele>47.0</ele><time>2026-05-01T08:31:14.999Z</time></trkpt><trkpt lat="42.383954060743136" lon="14.242961897390755"><ele>45.666666666666664</ele><time>2026-05-01T08:31:15.999Z</time></trkpt><trkpt lat="42.38380403939163" lon="14.242825766098806"><ele>44.333333333333336</ele><time>2026-05-01T08:31:16.999Z</time></trkpt><trkpt lat="42.383660378528035" lon="14.242692567857745"><ele>43.0</ele><time>2026-05-01T08:31:17.999Z</time></trkpt><trkpt lat="42.38352699216634" lon="14.242558669981296"><ele>43.0</ele><time>2026-05-01T08:31:18.999Z</time></trkpt><trkpt lat="42.38340473491989" lon="14.242434945982687"><ele>43.0</ele><time>2026-05-01T08:31:19.999Z</time></trkpt><trkpt lat="42.383286724030626" lon="14.24232365991765"><ele>43.0</ele><time>2026-05-01T08:31:20.999Z</time></trkpt><trkpt lat="42.38318404677334" lon="14.242224908555588"><ele>43.0</ele><time>2026-05-01T08:31:21.999Z</time></trkpt><trkpt lat="42.38308315820325" lon="14.242128906530201"><ele>43.75</ele><time>2026-05-01T08:31:22.999Z</time></trkpt><trkpt lat="42.382988742970745" lon="14.242035765200342"><ele>44.5</ele><time>2026-05-01T08:31:23.999Z</time></trkpt><trkpt lat="42.38289686822412" lon="14.24194649000954"><ele>45.25</ele><time>2026-05-01T08:31:24.999Z</time></trkpt><trkpt lat="42.38280544652862" lon="14.241863290945645"><ele>46.0</ele><time>2026-05-01T08:31:25.999Z</time></trkpt><trkpt lat="42.382712639856756" lon="14.241778551213997"><ele>46.0</ele><time>2026-05-01T08:31:26.999Z</time></trkpt><trkpt lat="42.3826214197281" lon="14.241682932209098"><ele>46.0</ele><time>2026-05-01T08:31:27.999Z</time></trkpt><trkpt lat="42.38253114513822" lon="14.241591439183903"><ele>46.0</ele><time>2026-05-01T08:31:28.999Z</time></trkpt><trkpt lat="42.38243070559258" lon="14.241484994031486"><ele>46.0</ele><time>2026-05-01T08:31:29.999Z</time></trkpt><trkpt lat="42.38232409515538" lon="14.241389758993133"><ele>46.5</ele><time>2026-05-01T08:31:30.999Z</time></trkpt><trkpt lat="42.38222387953432" lon="14.241309266756383"><ele>47.0</ele><time>2026-05-01T08:31:31.999Z</time></trkpt><trkpt lat="42.3821251673084" lon="14.24122952715862"><ele>47.5</ele><time>2026-05-01T08:31:32.999Z</time></trkpt><trkpt lat="42.38201716191327" lon="14.241125675198102"><ele>48.0</ele><time>2026-05-01T08:31:33.999Z</time></trkpt><trkpt lat="42.381894846001195" lon="14.241009146951301"><ele>48.0</ele><time>2026-05-01T08:31:34.999Z</time></trkpt><trkpt lat="42.38177722881194" lon="14.240865226255014"><ele>48.0</ele><time>2026-05-01T08:31:35.999Z</time></trkpt><trkpt lat="42.38163388885506" lon="14.240755874020772"><ele>48.0</ele><time>2026-05-01T08:31:36.999Z</time></trkpt><trkpt lat="42.38149620740134" lon="14.2406343193336"><ele>50.33333333333333</ele><time>2026-05-01T08:31:37.999Z</time></trkpt><trkpt lat="42.38134350564414" lon="14.24051589459408"><ele>52.666666666666664</ele><time>2026-05-01T08:31:38.999Z</time></trkpt><trkpt lat="42.38119209645479" lon="14.240364027285137"><ele>55.0</ele><time>2026-05-01T08:31:39.999Z</time></trkpt><trkpt lat="42.38103395667779" lon="14.240249741945696"><ele>55.0</ele><time>2026-05-01T08:31:40.999Z</time></trkpt><trkpt lat="42.38089536795231" lon="14.24012472718181"><ele>55.0</ele><time>2026-05-01T08:31:41.999Z</time></trkpt><trkpt lat="42.38076823968072" lon="14.239978569692934"><ele>55.0</ele><time>2026-05-01T08:31:42.999Z</time></trkpt><trkpt lat="42.3806367606785" lon="14.239851360161001"><ele>55.5</ele><time>2026-05-01T08:31:43.999Z</time></trkpt><trkpt lat="42.38050956892387" lon="14.239731404744353"><ele>56.0</ele><time>2026-05-01T08:31:44.999Z</time></trkpt><trkpt lat="42.380416329169655" lon="14.239611099346284"><ele>56.5</ele><time>2026-05-01T08:31:45.999Z</time></trkpt><trkpt lat="42.38034178970994" lon="14.23950282257357"><ele>57.0</ele><time>2026-05-01T08:31:46.999Z</time></trkpt><trkpt lat="42.380269431314645" lon="14.239397208313184"><ele>57.0</ele><time>2026-05-01T08:31:47.999Z</time></trkpt><trkpt lat="42.38021215397425" lon="14.239312606008376"><ele>57.0</ele><time>2026-05-01T08:31:48.999Z</time></trkpt><trkpt lat="42.38016623522607" lon="14.239244781337629"><ele>57.0</ele><time>2026-05-01T08:31:49.999Z</time></trkpt><trkpt lat="42.38011199277553" lon="14.23919404320882"><ele>57.0</ele><time>2026-05-01T08:31:50.999Z</time></trkpt><trkpt lat="42.380092239492754" lon="14.239101662951251"><ele>57.0</ele><time>2026-05-01T08:31:51.999Z</time></trkpt><trkpt lat="42.38008073333053" lon="14.23899788356215"><ele>57.0</ele><time>2026-05-01T08:31:53.999Z</time></trkpt><trkpt lat="42.37995692729269" lon="14.239158657806467"><ele>57.0</ele><time>2026-05-01T08:32:01.999Z</time></trkpt><trkpt lat="42.37990463705096" lon="14.23925484350184"><ele>57.0</ele><time>2026-05-01T08:32:03Z</time></trkpt><trkpt lat="42.379836664852" lon="14.23935235511037"><ele>57.0</ele><time>2026-05-01T08:32:04Z</time></trkpt><trkpt lat="42.379743035682644" lon="14.239423300791634"><ele>57.0</ele><time>2026-05-01T08:32:05Z</time></trkpt><trkpt lat="42.37962999983479" lon="14.239492654171682"><ele>57.0</ele><time>2026-05-01T08:32:06Z</time></trkpt><trkpt lat="42.37943809288801" lon="14.239322375010794"><ele>56.2</ele><time>2026-05-01T08:32:07Z</time></trkpt><trkpt lat="42.379336226001584" lon="14.239441702244262"><ele>55.400000000000006</ele><time>2026-05-01T08:32:08Z</time></trkpt><trkpt lat="42.37932385934113" lon="14.239553628631958"><ele>54.599999999999994</ele><time>2026-05-01T08:32:09Z</time></trkpt><trkpt lat="42.37926757341027" lon="14.239627671551007"><ele>53.8</ele><time>2026-05-01T08:32:10Z</time></trkpt><trkpt lat="42.379174946801164" lon="14.239668981608707"><ele>53.0</ele><time>2026-05-01T08:32:11Z</time></trkpt><trkpt lat="42.37909997840105" lon="14.239699749571372"><ele>53.0</ele><time>2026-05-01T08:32:12Z</time></trkpt><trkpt lat="42.37901849255242" lon="14.239781292537396"><ele>53.0</ele><time>2026-05-01T08:32:13Z</time></trkpt><trkpt lat="42.37895675083624" lon="14.23991260179833"><ele>53.0</ele><time>2026-05-01T08:32:14Z</time></trkpt><trkpt lat="42.378909712122955" lon="14.240017491836808"><ele>53.0</ele><time>2026-05-01T08:32:15Z</time></trkpt><trkpt lat="42.378869320732804" lon="14.240104100187471"><ele>53.0</ele><time>2026-05-01T08:32:16Z</time></trkpt><trkpt lat="42.37868624911776" lon="14.240054130646277"><ele>51.5</ele><time>2026-05-01T08:32:17Z</time></trkpt><trkpt lat="42.37855382851721" lon="14.240032637197837"><ele>50.0</ele><time>2026-05-01T08:32:18Z</time></trkpt><trkpt lat="42.37840593680758" lon="14.239979977563864"><ele>48.5</ele><time>2026-05-01T08:32:19Z</time></trkpt><trkpt lat="42.37828392312304" lon="14.23992441043761"><ele>47.0</ele><time>2026-05-01T08:32:20Z</time></trkpt><trkpt lat="42.378184379719514" lon="14.23986265131963"><ele>47.0</ele><time>2026-05-01T08:32:21Z</time></trkpt><trkpt lat="42.378090744910274" lon="14.239783759843055"><ele>47.0</ele><time>2026-05-01T08:32:22Z</time></trkpt><trkpt lat="42.377983296463185" lon="14.239706433668603"><ele>47.0</ele><time>2026-05-01T08:32:23Z</time></trkpt><trkpt lat="42.37785998001669" lon="14.239625930887225"><ele>47.0</ele><time>2026-05-01T08:32:24Z</time></trkpt><trkpt lat="42.37772214547767" lon="14.23953225912822"><ele>47.0</ele><time>2026-05-01T08:32:25Z</time></trkpt><trkpt lat="42.3775748492908" lon="14.239433678566032"><ele>47.0</ele><time>2026-05-01T08:32:26Z</time></trkpt><trkpt lat="42.37742912428814" lon="14.239324713525203"><ele>47.0</ele><time>2026-05-01T08:32:27Z</time></trkpt><trkpt lat="42.377296440296625" lon="14.239218481139755"><ele>46.666666666666664</ele><time>2026-05-01T08:32:28Z</time></trkpt><trkpt lat="42.37717161345041" lon="14.239112304942196"><ele>46.333333333333336</ele><time>2026-05-01T08:32:29Z</time></trkpt><trkpt lat="42.3770399618804" lon="14.238999442418907"><ele>46.0</ele><time>2026-05-01T08:32:30Z</time></trkpt><trkpt lat="42.37691252123329" lon="14.238891268905283"><ele>48.66666666666667</ele><time>2026-05-01T08:32:31Z</time></trkpt><trkpt lat="42.37678392708238" lon="14.238782092644811"><ele>51.333333333333336</ele><time>2026-05-01T08:32:32Z</time></trkpt><trkpt lat="42.37665690565655" lon="14.238664085737673"><ele>54.0</ele><time>2026-05-01T08:32:33Z</time></trkpt><trkpt lat="42.37653257170026" lon="14.238555971512985"><ele>54.0</ele><time>2026-05-01T08:32:34Z</time></trkpt><trkpt lat="42.37642242369612" lon="14.238454470903008"><ele>54.0</ele><time>2026-05-01T08:32:35Z</time></trkpt><trkpt lat="42.37632734668181" lon="14.238362991128906"><ele>54.0</ele><time>2026-05-01T08:32:36Z</time></trkpt><trkpt lat="42.376238285418935" lon="14.238281064444028"><ele>54.0</ele><time>2026-05-01T08:32:37Z</time></trkpt><trkpt lat="42.37615303879179" lon="14.238212362014279"><ele>54.400000000000006</ele><time>2026-05-01T08:32:38Z</time></trkpt><trkpt lat="42.376070550428835" lon="14.23816017532838"><ele>54.800000000000004</ele><time>2026-05-01T08:32:39Z</time></trkpt><trkpt lat="42.37599107215317" lon="14.23811266838206"><ele>55.199999999999996</ele><time>2026-05-01T08:32:40Z</time></trkpt><trkpt lat="42.37590506029573" lon="14.238044559281777"><ele>55.599999999999994</ele><time>2026-05-01T08:32:41Z</time></trkpt><trkpt lat="42.37580933274414" lon="14.23795926713204"><ele>56.0</ele><time>2026-05-01T08:32:42Z</time></trkpt><trkpt lat="42.37572336675948" lon="14.237877093491617"><ele>56.0</ele><time>2026-05-01T08:32:43Z</time></trkpt><trkpt lat="42.37564479804161" lon="14.237799403029793"><ele>55.99999999999999</ele><time>2026-05-01T08:32:44Z</time></trkpt><trkpt lat="42.3755729315505" lon="14.237736947983377"><ele>55.99999999999999</ele><time>2026-05-01T08:32:45Z</time></trkpt><trkpt lat="42.375500366016134" lon="14.237675975642226"><ele>56.0</ele><time>2026-05-01T08:32:46Z</time></trkpt><trkpt lat="42.375422721659554" lon="14.237608265430453"><ele>56.0</ele><time>2026-05-01T08:32:47Z</time></trkpt><trkpt lat="42.37533144000437" lon="14.23753574815042"><ele>56.0</ele><time>2026-05-01T08:32:48Z</time></trkpt><trkpt lat="42.37524596806206" lon="14.237458847847495"><ele>56.0</ele><time>2026-05-01T08:32:49Z</time></trkpt><trkpt lat="42.37513438620896" lon="14.237397394752536"><ele>56.0</ele><time>2026-05-01T08:32:50Z</time></trkpt><trkpt lat="42.37501199121529" lon="14.237321091091642"><ele>56.0</ele><time>2026-05-01T08:32:51Z</time></trkpt><trkpt lat="42.374894586877126" lon="14.237232892577564"><ele>56.0</ele><time>2026-05-01T08:32:52Z</time></trkpt><trkpt lat="42.37478255620784" lon="14.237145399482163"><ele>56.0</ele><time>2026-05-01T08:32:53Z</time></trkpt><trkpt lat="42.37468362077817" lon="14.237084023000726"><ele>56.0</ele><time>2026-05-01T08:32:54Z</time></trkpt><trkpt lat="42.37458543614245" lon="14.237016407470504"><ele>56.0</ele><time>2026-05-01T08:32:55Z</time></trkpt><trkpt lat="42.3744858294926" lon="14.236942669160717"><ele>55.5</ele><time>2026-05-01T08:32:56Z</time></trkpt><trkpt lat="42.37437580946034" lon="14.236857041484578"><ele>55.0</ele><time>2026-05-01T08:32:57Z</time></trkpt><trkpt lat="42.374249257212426" lon="14.236762875678984"><ele>54.5</ele><time>2026-05-01T08:32:58Z</time></trkpt><trkpt lat="42.37410590873189" lon="14.236664053976604"><ele>54.0</ele><time>2026-05-01T08:32:59Z</time></trkpt><trkpt lat="42.373970800039956" lon="14.236564525862077"><ele>56.66666666666667</ele><time>2026-05-01T08:33:00Z</time></trkpt><trkpt lat="42.373836691566844" lon="14.23645245304695"><ele>59.333333333333336</ele><time>2026-05-01T08:33:00.999Z</time></trkpt><trkpt lat="42.37370560834692" lon="14.236349050665698"><ele>62.0</ele><time>2026-05-01T08:33:01.999Z</time></trkpt><trkpt lat="42.37356503496998" lon="14.236241515542039"><ele>62.0</ele><time>2026-05-01T08:33:02.999Z</time></trkpt><trkpt lat="42.37342759293011" lon="14.236143986987031"><ele>62.0</ele><time>2026-05-01T08:33:03.999Z</time></trkpt><trkpt lat="42.37330181125589" lon="14.236055956410588"><ele>62.0</ele><time>2026-05-01T08:33:04.999Z</time></trkpt><trkpt lat="42.37317945026678" lon="14.235970186431443"><ele>62.0</ele><time>2026-05-01T08:33:05.999Z</time></trkpt><trkpt lat="42.37305065781684" lon="14.235882464576473"><ele>61.75</ele><time>2026-05-01T08:33:06.999Z</time></trkpt><trkpt lat="42.37291296511933" lon="14.235797858266274"><ele>61.5</ele><time>2026-05-01T08:33:07.999Z</time></trkpt><trkpt lat="42.3727732573722" lon="14.23570870727355"><ele>61.25</ele><time>2026-05-01T08:33:08.999Z</time></trkpt><trkpt lat="42.37264576877663" lon="14.23562306597347"><ele>61.0</ele><time>2026-05-01T08:33:09.999Z</time></trkpt><trkpt lat="42.37254257701057" lon="14.235548892332394"><ele>61.0</ele><time>2026-05-01T08:33:10.999Z</time></trkpt><trkpt lat="42.372447058421564" lon="14.235485813835913"><ele>60.99999999999999</ele><time>2026-05-01T08:33:11.999Z</time></trkpt><trkpt lat="42.37234744801567" lon="14.235402885781909"><ele>60.99999999999999</ele><time>2026-05-01T08:33:12.999Z</time></trkpt><trkpt lat="42.37227017528397" lon="14.235309584407892"><ele>61.0</ele><time>2026-05-01T08:33:13.999Z</time></trkpt><trkpt lat="42.37221890327292" lon="14.235211191415337"><ele>61.0</ele><time>2026-05-01T08:33:14.999Z</time></trkpt><trkpt lat="42.37221415697507" lon="14.235114295289431"><ele>61.0</ele><time>2026-05-01T08:33:15.999Z</time></trkpt><trkpt lat="42.372281436740245" lon="14.235041072651661"><ele>60.99999999999999</ele><time>2026-05-01T08:33:16.999Z</time></trkpt><trkpt lat="42.37240807369262" lon="14.235002933565621"><ele>60.99999999999999</ele><time>2026-05-01T08:33:18.999Z</time></trkpt><trkpt lat="42.372483383000755" lon="14.235020270376161"><ele>61.0</ele><time>2026-05-01T08:33:19.999Z</time></trkpt><trkpt lat="42.37258233335527" lon="14.235015745256053"><ele>61.0</ele><time>2026-05-01T08:33:21.999Z</time></trkpt><trkpt lat="42.37250945146754" lon="14.234814521356707"><ele>61.0</ele><time>2026-05-01T08:33:24.999Z</time></trkpt><trkpt lat="42.372352187699285" lon="14.234801166965896"><ele>61.0</ele><time>2026-05-01T08:33:25.999Z</time></trkpt><trkpt lat="42.37221177424437" lon="14.23481997473903"><ele>61.0</ele><time>2026-05-01T08:33:26.999Z</time></trkpt><trkpt lat="42.3720707581735" lon="14.234848045182284"><ele>61.0</ele><time>2026-05-01T08:33:27.999Z</time></trkpt><trkpt lat="42.371920694359396" lon="14.234830886498738"><ele>59.75</ele><time>2026-05-01T08:33:28.999Z</time></trkpt><trkpt lat="42.37178177232736" lon="14.23480145843985"><ele>58.5</ele><time>2026-05-01T08:33:29.999Z</time></trkpt><trkpt lat="42.37166898159975" lon="14.234700058773967"><ele>57.25</ele><time>2026-05-01T08:33:30.999Z</time></trkpt><trkpt lat="42.3715500564029" lon="14.23461114427427"><ele>56.0</ele><time>2026-05-01T08:33:31.999Z</time></trkpt><trkpt lat="42.37141664920679" lon="14.234524532166212"><ele>54.75</ele><time>2026-05-01T08:33:32.999Z</time></trkpt><trkpt lat="42.37130665220151" lon="14.234374178758536"><ele>53.5</ele><time>2026-05-01T08:33:33.999Z</time></trkpt><trkpt lat="42.37118801705209" lon="14.234265404826969"><ele>52.25</ele><time>2026-05-01T08:33:34.999Z</time></trkpt><trkpt lat="42.37106372159244" lon="14.234188595073633"><ele>51.0</ele><time>2026-05-01T08:33:35.999Z</time></trkpt><trkpt lat="42.37092410653322" lon="14.234144300325305"><ele>51.0</ele><time>2026-05-01T08:33:36.999Z</time></trkpt><trkpt lat="42.37076362443478" lon="14.234143956828651"><ele>51.0</ele><time>2026-05-01T08:33:37.999Z</time></trkpt><trkpt lat="42.370600238995564" lon="14.23414980365171"><ele>51.0</ele><time>2026-05-01T08:33:38.999Z</time></trkpt><trkpt lat="42.37042637685594" lon="14.234175036534435"><ele>49.333333333333336</ele><time>2026-05-01T08:33:39.999Z</time></trkpt><trkpt lat="42.370252283243715" lon="14.234198532259493"><ele>47.66666666666667</ele><time>2026-05-01T08:33:40.999Z</time></trkpt><trkpt lat="42.370080618530515" lon="14.234220406411303"><ele>46.0</ele><time>2026-05-01T08:33:41.999Z</time></trkpt><trkpt lat="42.369923163889744" lon="14.234239577247779"><ele>46.0</ele><time>2026-05-01T08:33:42.999Z</time></trkpt><trkpt lat="42.36977085524072" lon="14.234260909325108"><ele>46.0</ele><time>2026-05-01T08:33:43.999Z</time></trkpt><trkpt lat="42.369635882397766" lon="14.234281056846985"><ele>46.0</ele><time>2026-05-01T08:33:44.999Z</time></trkpt><trkpt lat="42.36952742051548" lon="14.234296680141341"><ele>46.0</ele><time>2026-05-01T08:33:45.999Z</time></trkpt><trkpt lat="42.369413556223215" lon="14.234312904519731"><ele>46.8</ele><time>2026-05-01T08:33:46.999Z</time></trkpt><trkpt lat="42.36932656986392" lon="14.23432529908759"><ele>47.599999999999994</ele><time>2026-05-01T08:33:47.999Z</time></trkpt><trkpt lat="42.36921439284337" lon="14.234340858936127"><ele>48.4</ele><time>2026-05-01T08:33:48.999Z</time></trkpt><trkpt lat="42.369126234874614" lon="14.234352603610288"><ele>49.2</ele><time>2026-05-01T08:33:49.999Z</time></trkpt><trkpt lat="42.36902818907162" lon="14.234365665565658"><ele>50.0</ele><time>2026-05-01T08:33:51.999Z</time></trkpt><trkpt lat="42.36908833401062" lon="14.234607755330133"><ele>50.0</ele><time>2026-05-01T08:33:54.999Z</time></trkpt><trkpt lat="42.36921413718997" lon="14.234595924213302"><ele>50.0</ele><time>2026-05-01T08:33:55.999Z</time></trkpt><trkpt lat="42.369354721240455" lon="14.23461426963657"><ele>50.0</ele><time>2026-05-01T08:33:56.999Z</time></trkpt><trkpt lat="42.36952579688486" lon="14.234644799197845"><ele>50.0</ele><time>2026-05-01T08:33:57.999Z</time></trkpt><trkpt lat="42.36968115686157" lon="14.234661288648825"><ele>49.333333333333336</ele><time>2026-05-01T08:33:58.999Z</time></trkpt><trkpt lat="42.36978560576982" lon="14.234673176381897"><ele>48.66666666666667</ele><time>2026-05-01T08:33:59.999Z</time></trkpt><trkpt lat="42.36987120193179" lon="14.234691540329983"><ele>48.0</ele><time>2026-05-01T08:34:00.999Z</time></trkpt><trkpt lat="42.36993779165682" lon="14.234721346621576"><ele>47.333333333333336</ele><time>2026-05-01T08:34:01.999Z</time></trkpt><trkpt lat="42.369989198219265" lon="14.234773527358252"><ele>46.66666666666667</ele><time>2026-05-01T08:34:02.999Z</time></trkpt><trkpt lat="42.37003105262031" lon="14.234881533072837"><ele>46.0</ele><time>2026-05-01T08:34:03.999Z</time></trkpt><trkpt lat="42.369978187640655" lon="14.234948948255223"><ele>45.0</ele><time>2026-05-01T08:34:04.999Z</time></trkpt><trkpt lat="42.36996287024517" lon="14.23512236478691"><ele>44.0</ele><time>2026-05-01T08:34:05.999Z</time></trkpt><trkpt lat="42.369996902509996" lon="14.235336912464218"><ele>43.0</ele><time>2026-05-01T08:34:06.999Z</time></trkpt><trkpt lat="42.370044514847706" lon="14.235538901572504"><ele>42.0</ele><time>2026-05-01T08:34:07.999Z</time></trkpt><trkpt lat="42.37006642247476" lon="14.235733696078901"><ele>42.0</ele><time>2026-05-01T08:34:09Z</time></trkpt><trkpt lat="42.37006022599443" lon="14.23591053838571"><ele>42.0</ele><time>2026-05-01T08:34:10Z</time></trkpt><trkpt lat="42.37004198790524" lon="14.236071551651513"><ele>42.0</ele><time>2026-05-01T08:34:11Z</time></trkpt><trkpt lat="42.37002083829779" lon="14.236208488780896"><ele>42.0</ele><time>2026-05-01T08:34:12Z</time></trkpt><trkpt lat="42.36998996891708" lon="14.236388194067425"><ele>42.333333333333336</ele><time>2026-05-01T08:34:13Z</time></trkpt><trkpt lat="42.36994643024576" lon="14.236600052331864"><ele>42.66666666666667</ele><time>2026-05-01T08:34:14Z</time></trkpt><trkpt lat="42.36993857105488" lon="14.236817961956074"><ele>43.0</ele><time>2026-05-01T08:34:15Z</time></trkpt><trkpt lat="42.369949167737495" lon="14.23700051409907"><ele>43.0</ele><time>2026-05-01T08:34:16Z</time></trkpt><trkpt lat="42.36998567900743" lon="14.237164274188785"><ele>43.0</ele><time>2026-05-01T08:34:17Z</time></trkpt><trkpt lat="42.37006357055897" lon="14.237257513984202"><ele>43.0</ele><time>2026-05-01T08:34:18Z</time></trkpt><trkpt lat="42.37015948607707" lon="14.237349675188483"><ele>43.0</ele><time>2026-05-01T08:34:19Z</time></trkpt><trkpt lat="42.37026557500312" lon="14.237468397953066"><ele>42.66666666666667</ele><time>2026-05-01T08:34:20Z</time></trkpt><trkpt lat="42.37041108634437" lon="14.237563749123366"><ele>42.333333333333336</ele><time>2026-05-01T08:34:21Z</time></trkpt><trkpt lat="42.370560628521645" lon="14.237678277427973"><ele>42.0</ele><time>2026-05-01T08:34:22Z</time></trkpt><trkpt lat="42.37070614011613" lon="14.237778929477345"><ele>42.0</ele><time>2026-05-01T08:34:23Z</time></trkpt><trkpt lat="42.370828438996014" lon="14.237879171772864"><ele>42.0</ele><time>2026-05-01T08:34:24Z</time></trkpt><trkpt lat="42.37094891844578" lon="14.237971523441521"><ele>42.0</ele><time>2026-05-01T08:34:25Z</time></trkpt><trkpt lat="42.371084043397545" lon="14.238067609298954"><ele>42.0</ele><time>2026-05-01T08:34:26Z</time></trkpt><trkpt lat="42.37121313252154" lon="14.23817695673274"><ele>42.25</ele><time>2026-05-01T08:34:27Z</time></trkpt><trkpt lat="42.37133472546403" lon="14.238279734553704"><ele>42.5</ele><time>2026-05-01T08:34:28Z</time></trkpt><trkpt lat="42.371456746070166" lon="14.238376464143004"><ele>42.75</ele><time>2026-05-01T08:34:29Z</time></trkpt><trkpt lat="42.37158138521844" lon="14.238482347183922"><ele>43.0</ele><time>2026-05-01T08:34:30Z</time></trkpt><trkpt lat="42.37169617838301" lon="14.238591359461214"><ele>43.0</ele><time>2026-05-01T08:34:31Z</time></trkpt><trkpt lat="42.37179150082789" lon="14.238737486483908"><ele>43.0</ele><time>2026-05-01T08:34:32Z</time></trkpt><trkpt lat="42.371886627793614" lon="14.238880036768055"><ele>43.0</ele><time>2026-05-01T08:34:33Z</time></trkpt><trkpt lat="42.371986709688265" lon="14.239023396416894"><ele>43.0</ele><time>2026-05-01T08:34:34Z</time></trkpt><trkpt lat="42.37207498086295" lon="14.23915225360537"><ele>42.599999999999994</ele><time>2026-05-01T08:34:35Z</time></trkpt><trkpt lat="42.372158348324675" lon="14.23927267894226"><ele>42.199999999999996</ele><time>2026-05-01T08:34:36Z</time></trkpt><trkpt lat="42.372235334922586" lon="14.239387324951934"><ele>41.8</ele><time>2026-05-01T08:34:37Z</time></trkpt><trkpt lat="42.372311091381654" lon="14.23948822023256"><ele>41.4</ele><time>2026-05-01T08:34:38Z</time></trkpt><trkpt lat="42.37237852574297" lon="14.23955680985719"><ele>41.0</ele><time>2026-05-01T08:34:39Z</time></trkpt><trkpt lat="42.37244009135484" lon="14.23961885727665"><ele>41.0</ele><time>2026-05-01T08:34:40Z</time></trkpt><trkpt lat="42.37252280738608" lon="14.239708700915456"><ele>41.0</ele><time>2026-05-01T08:34:42Z</time></trkpt><trkpt lat="42.37257859899792" lon="14.239764791566577"><ele>41.0</ele><time>2026-05-01T08:34:43Z</time></trkpt><trkpt lat="42.37264110375958" lon="14.239823464771304"><ele>41.0</ele><time>2026-05-01T08:34:44Z</time></trkpt><trkpt lat="42.37270493233683" lon="14.239876311967283"><ele>41.0</ele><time>2026-05-01T08:34:45Z</time></trkpt><trkpt lat="42.37277318293725" lon="14.239935461562265"><ele>41.0</ele><time>2026-05-01T08:34:46Z</time></trkpt><trkpt lat="42.372837277604795" lon="14.239977397318965"><ele>41.199999999999996</ele><time>2026-05-01T08:34:47Z</time></trkpt><trkpt lat="42.37292936296539" lon="14.240077273723719"><ele>41.4</ele><time>2026-05-01T08:34:49Z</time></trkpt><trkpt lat="42.372998738317165" lon="14.240141279970796"><ele>41.6</ele><time>2026-05-01T08:34:51Z</time></trkpt><trkpt lat="42.37310681606251" lon="14.24022238353277"><ele>41.8</ele><time>2026-05-01T08:34:53Z</time></trkpt><trkpt lat="42.37317406392852" lon="14.240254784811858"><ele>42.0</ele><time>2026-05-01T08:34:54Z</time></trkpt><trkpt lat="42.37323583866694" lon="14.240320656531892"><ele>42.75</ele><time>2026-05-01T08:34:55Z</time></trkpt><trkpt lat="42.3733176405977" lon="14.240391881977205"><ele>43.5</ele><time>2026-05-01T08:34:56Z</time></trkpt><trkpt lat="42.37341093683425" lon="14.240473115422088"><ele>44.25</ele><time>2026-05-01T08:34:57Z</time></trkpt><trkpt lat="42.37352921604075" lon="14.240583382625994"><ele>45.0</ele><time>2026-05-01T08:34:58Z</time></trkpt><trkpt lat="42.373668934434534" lon="14.240715703824247"><ele>45.0</ele><time>2026-05-01T08:34:59Z</time></trkpt><trkpt lat="42.37379686098809" lon="14.240860527004592"><ele>45.0</ele><time>2026-05-01T08:35:00Z</time></trkpt><trkpt lat="42.373892404937095" lon="14.241010427583868"><ele>45.0</ele><time>2026-05-01T08:35:01Z</time></trkpt><trkpt lat="42.37398670642907" lon="14.241112806389449"><ele>45.0</ele><time>2026-05-01T08:35:02Z</time></trkpt><trkpt lat="42.3740961258004" lon="14.241193397950434"><ele>43.333333333333336</ele><time>2026-05-01T08:35:03Z</time></trkpt><trkpt lat="42.374232027267816" lon="14.241281841652055"><ele>41.66666666666667</ele><time>2026-05-01T08:35:04Z</time></trkpt><trkpt lat="42.374392709300565" lon="14.241362316238455"><ele>40.0</ele><time>2026-05-01T08:35:05Z</time></trkpt><trkpt lat="42.3745330676055" lon="14.241472594079472"><ele>40.0</ele><time>2026-05-01T08:35:06Z</time></trkpt><trkpt lat="42.37464303657866" lon="14.241641394425884"><ele>40.0</ele><time>2026-05-01T08:35:07Z</time></trkpt><trkpt lat="42.37476867083242" lon="14.241811120194011"><ele>40.0</ele><time>2026-05-01T08:35:08Z</time></trkpt><trkpt lat="42.3748982552017" lon="14.24196941238269"><ele>39.75</ele><time>2026-05-01T08:35:08.999Z</time></trkpt><trkpt lat="42.37500081480374" lon="14.242093786428523"><ele>39.5</ele><time>2026-05-01T08:35:09.999Z</time></trkpt><trkpt lat="42.37509291581936" lon="14.24220712668481"><ele>39.25</ele><time>2026-05-01T08:35:10.999Z</time></trkpt><trkpt lat="42.37516685454354" lon="14.242312726556628"><ele>39.0</ele><time>2026-05-01T08:35:11.999Z</time></trkpt><trkpt lat="42.375225143603" lon="14.242411325486843"><ele>39.0</ele><time>2026-05-01T08:35:12.999Z</time></trkpt><trkpt lat="42.37525601347962" lon="14.242516020124885"><ele>39.0</ele><time>2026-05-01T08:35:13.999Z</time></trkpt><trkpt lat="42.37525156293261" lon="14.242626080200576"><ele>39.0</ele><time>2026-05-01T08:35:14.999Z</time></trkpt><trkpt lat="42.37521909718482" lon="14.242760269166238"><ele>39.0</ele><time>2026-05-01T08:35:15.999Z</time></trkpt><trkpt lat="42.375180164983284" lon="14.24293175059295"><ele>39.0</ele><time>2026-05-01T08:35:16.999Z</time></trkpt><trkpt lat="42.375122864783606" lon="14.243119034014791"><ele>41.0</ele><time>2026-05-01T08:35:17.999Z</time></trkpt><trkpt lat="42.375060585679165" lon="14.243314184241433"><ele>43.0</ele><time>2026-05-01T08:35:18.999Z</time></trkpt><trkpt lat="42.374997329047126" lon="14.243518754071891"><ele>45.0</ele><time>2026-05-01T08:35:19.999Z</time></trkpt><trkpt lat="42.3749301534869" lon="14.243727678493723"><ele>45.0</ele><time>2026-05-01T08:35:20.999Z</time></trkpt><trkpt lat="42.37485465232346" lon="14.243955573371993"><ele>45.0</ele><time>2026-05-01T08:35:21.999Z</time></trkpt><trkpt lat="42.37478221851183" lon="14.244169103132732"><ele>45.0</ele><time>2026-05-01T08:35:22.999Z</time></trkpt><trkpt lat="42.37473750576265" lon="14.244349224924582"><ele>51.33333333333333</ele><time>2026-05-01T08:35:23.999Z</time></trkpt><trkpt lat="42.37467595322999" lon="14.244528431450208"><ele>57.666666666666664</ele><time>2026-05-01T08:35:24.999Z</time></trkpt><trkpt lat="42.374613726370924" lon="14.244730337249317"><ele>64.0</ele><time>2026-05-01T08:35:25.999Z</time></trkpt><trkpt lat="42.37456075560303" lon="14.244954770788661"><ele>65.0</ele><time>2026-05-01T08:35:26.999Z</time></trkpt><trkpt lat="42.37450695460175" lon="14.245196051617157"><ele>66.0</ele><time>2026-05-01T08:35:27.999Z</time></trkpt><trkpt lat="42.37445642580932" lon="14.245460761539952"><ele>67.0</ele><time>2026-05-01T08:35:28.999Z</time></trkpt><trkpt lat="42.374406656246904" lon="14.245712614739926"><ele>68.5</ele><time>2026-05-01T08:35:29.999Z</time></trkpt><trkpt lat="42.37436146983994" lon="14.245920067988786"><ele>70.0</ele><time>2026-05-01T08:35:30.999Z</time></trkpt><trkpt lat="42.37431647131884" lon="14.246100610916564"><ele>71.5</ele><time>2026-05-01T08:35:31.999Z</time></trkpt><trkpt lat="42.37424493593842" lon="14.246259525352245"><ele>73.0</ele><time>2026-05-01T08:35:32.999Z</time></trkpt><trkpt lat="42.374171468604644" lon="14.246403553520986"><ele>73.5</ele><time>2026-05-01T08:35:33.999Z</time></trkpt><trkpt lat="42.37409025476059" lon="14.246555403279006"><ele>74.0</ele><time>2026-05-01T08:35:34.999Z</time></trkpt><trkpt lat="42.374030083330005" lon="14.246703416817665"><ele>74.5</ele><time>2026-05-01T08:35:35.999Z</time></trkpt><trkpt lat="42.37398636616797" lon="14.246826759879806"><ele>75.0</ele><time>2026-05-01T08:35:36.999Z</time></trkpt><trkpt lat="42.37397217742258" lon="14.246948451718087"><ele>75.0</ele><time>2026-05-01T08:35:37.999Z</time></trkpt><trkpt lat="42.37399561402527" lon="14.247092020965322"><ele>75.0</ele><time>2026-05-01T08:35:38.999Z</time></trkpt><trkpt lat="42.37399102065488" lon="14.247251770691593"><ele>75.0</ele><time>2026-05-01T08:35:39.999Z</time></trkpt><trkpt lat="42.37396101381797" lon="14.247419597248912"><ele>75.0</ele><time>2026-05-01T08:35:40.999Z</time></trkpt><trkpt lat="42.37391189429314" lon="14.247604496922367"><ele>76.5</ele><time>2026-05-01T08:35:41.999Z</time></trkpt><trkpt lat="42.37386017107147" lon="14.247782417467695"><ele>78.0</ele><time>2026-05-01T08:35:42.999Z</time></trkpt><trkpt lat="42.37383671054025" lon="14.247926392783002"><ele>79.5</ele><time>2026-05-01T08:35:43.999Z</time></trkpt><trkpt lat="42.373825750995216" lon="14.248081045713912"><ele>81.0</ele><time>2026-05-01T08:35:44.999Z</time></trkpt><trkpt lat="42.373823044394165" lon="14.248286553499847"><ele>87.66666666666666</ele><time>2026-05-01T08:35:45.999Z</time></trkpt><trkpt lat="42.373821046380435" lon="14.24853438564357"><ele>94.33333333333333</ele><time>2026-05-01T08:35:46.999Z</time></trkpt><trkpt lat="42.373829667521434" lon="14.248738796600131"><ele>101.0</ele><time>2026-05-01T08:35:47.999Z</time></trkpt><trkpt lat="42.373797149666096" lon="14.248892814606062"><ele>102.5</ele><time>2026-05-01T08:35:48.999Z</time></trkpt><trkpt lat="42.37377941725057" lon="14.249061087538298"><ele>104.0</ele><time>2026-05-01T08:35:49.999Z</time></trkpt><trkpt lat="42.373731269046395" lon="14.249244950578916"><ele>105.5</ele><time>2026-05-01T08:35:50.999Z</time></trkpt><trkpt lat="42.37368284435491" lon="14.249440051280992"><ele>107.0</ele><time>2026-05-01T08:35:51.999Z</time></trkpt><trkpt lat="42.37364830587021" lon="14.249629680845226"><ele>107.75</ele><time>2026-05-01T08:35:52.999Z</time></trkpt><trkpt lat="42.37361768596255" lon="14.249812353915482"><ele>108.5</ele><time>2026-05-01T08:35:53.999Z</time></trkpt><trkpt lat="42.3735816438782" lon="14.24998141180177"><ele>109.25</ele><time>2026-05-01T08:35:54.999Z</time></trkpt><trkpt lat="42.3735200946098" lon="14.250117293354077"><ele>110.0</ele><time>2026-05-01T08:35:55.999Z</time></trkpt><trkpt lat="42.3734900939256" lon="14.250226995231797"><ele>110.0</ele><time>2026-05-01T08:35:56.999Z</time></trkpt><trkpt lat="42.373514639947636" lon="14.250318326349756"><ele>110.0</ele><time>2026-05-01T08:35:57.999Z</time></trkpt><trkpt lat="42.37365195448858" lon="14.250435094694128"><ele>110.0</ele><time>2026-05-01T08:35:59.999Z</time></trkpt><trkpt lat="42.373760957027926" lon="14.250493586094594"><ele>110.0</ele><time>2026-05-01T08:36:00.999Z</time></trkpt><trkpt lat="42.3738561291134" lon="14.250599734575394"><ele>110.0</ele><time>2026-05-01T08:36:01.999Z</time></trkpt><trkpt lat="42.373950801631736" lon="14.250698520557224"><ele>110.0</ele><time>2026-05-01T08:36:02.999Z</time></trkpt><trkpt lat="42.3740233480239" lon="14.25084945079372"><ele>110.0</ele><time>2026-05-01T08:36:03.999Z</time></trkpt><trkpt lat="42.3740616032164" lon="14.250994032192144"><ele>110.0</ele><time>2026-05-01T08:36:04.999Z</time></trkpt><trkpt lat="42.37408388020688" lon="14.251135974511849"><ele>110.0</ele><time>2026-05-01T08:36:05.999Z</time></trkpt><trkpt lat="42.37407808609048" lon="14.251313220648644"><ele>110.0</ele><time>2026-05-01T08:36:06.999Z</time></trkpt><trkpt lat="42.374046338188904" lon="14.251516151930682"><ele>110.0</ele><time>2026-05-01T08:36:07.999Z</time></trkpt><trkpt lat="42.37399835075157" lon="14.251733614365603"><ele>113.0</ele><time>2026-05-01T08:36:08.999Z</time></trkpt><trkpt lat="42.3739423518864" lon="14.25197172288764"><ele>116.0</ele><time>2026-05-01T08:36:09.999Z</time></trkpt><trkpt lat="42.37388955705991" lon="14.252183624806138"><ele>119.0</ele><time>2026-05-01T08:36:10.999Z</time></trkpt><trkpt lat="42.373840527458974" lon="14.252403651382899"><ele>127.0</ele><time>2026-05-01T08:36:11.999Z</time></trkpt><trkpt lat="42.37379609361367" lon="14.252634530556659"><ele>135.0</ele><time>2026-05-01T08:36:12.999Z</time></trkpt><trkpt lat="42.373776580742266" lon="14.252827317989112"><ele>143.0</ele><time>2026-05-01T08:36:13.999Z</time></trkpt><trkpt lat="42.373750477740025" lon="14.253052446506473"><ele>149.0</ele><time>2026-05-01T08:36:15Z</time></trkpt><trkpt lat="42.373765483340875" lon="14.253263286636518"><ele>155.0</ele><time>2026-05-01T08:36:16Z</time></trkpt><trkpt lat="42.37378019354582" lon="14.253476710138711"><ele>161.0</ele><time>2026-05-01T08:36:17Z</time></trkpt><trkpt lat="42.37379309143965" lon="14.253706896309"><ele>161.0</ele><time>2026-05-01T08:36:18Z</time></trkpt><trkpt lat="42.37381688910728" lon="14.253921510419497"><ele>161.0</ele><time>2026-05-01T08:36:19Z</time></trkpt><trkpt lat="42.3738463967749" lon="14.254090250450878"><ele>161.0</ele><time>2026-05-01T08:36:20Z</time></trkpt><trkpt lat="42.373865184647286" lon="14.254255896328239"><ele>161.0</ele><time>2026-05-01T08:36:21Z</time></trkpt><trkpt lat="42.373902542366885" lon="14.254399605964352"><ele>161.75</ele><time>2026-05-01T08:36:22Z</time></trkpt><trkpt lat="42.373980131993754" lon="14.254553120939876"><ele>162.5</ele><time>2026-05-01T08:36:23Z</time></trkpt><trkpt lat="42.374053047612136" lon="14.254715073746734"><ele>163.25</ele><time>2026-05-01T08:36:24Z</time></trkpt><trkpt lat="42.374122031004745" lon="14.25489550862374"><ele>164.0</ele><time>2026-05-01T08:36:25Z</time></trkpt><trkpt lat="42.37421442972057" lon="14.255032758446022"><ele>164.0</ele><time>2026-05-01T08:36:26Z</time></trkpt><trkpt lat="42.37427552025123" lon="14.255182971553541"><ele>164.0</ele><time>2026-05-01T08:36:27Z</time></trkpt><trkpt lat="42.37431728884612" lon="14.255355757420064"><ele>164.0</ele><time>2026-05-01T08:36:28Z</time></trkpt><trkpt lat="42.374363914687216" lon="14.255563337825077"><ele>164.0</ele><time>2026-05-01T08:36:29Z</time></trkpt><trkpt lat="42.37438179737886" lon="14.2557141994455"><ele>164.39999999999998</ele><time>2026-05-01T08:36:30Z</time></trkpt><trkpt lat="42.37438218300515" lon="14.255822596154488"><ele>164.8</ele><time>2026-05-01T08:36:31Z</time></trkpt><trkpt lat="42.37436549205381" lon="14.255949082693625"><ele>165.2</ele><time>2026-05-01T08:36:33Z</time></trkpt><trkpt lat="42.37434940787312" lon="14.25605634276659"><ele>165.60000000000002</ele><time>2026-05-01T08:36:36Z</time></trkpt><trkpt lat="42.374476412736506" lon="14.256161655361165"><ele>166.0</ele><time>2026-05-01T08:36:37Z</time></trkpt><trkpt lat="42.374604881774566" lon="14.256268230408528"><ele>166.5</ele><time>2026-05-01T08:36:38Z</time></trkpt><trkpt lat="42.37472533232102" lon="14.256363584199493"><ele>167.0</ele><time>2026-05-01T08:36:39Z</time></trkpt><trkpt lat="42.374828797818246" lon="14.25647802025562"><ele>167.5</ele><time>2026-05-01T08:36:40Z</time></trkpt><trkpt lat="42.37495669699825" lon="14.256618421456116"><ele>168.0</ele><time>2026-05-01T08:36:41Z</time></trkpt><trkpt lat="42.375104045324875" lon="14.256760955599177"><ele>168.0</ele><time>2026-05-01T08:36:42Z</time></trkpt><trkpt lat="42.3752348755017" lon="14.256920696620156"><ele>168.0</ele><time>2026-05-01T08:36:43Z</time></trkpt><trkpt lat="42.37535680104618" lon="14.257094540073181"><ele>168.0</ele><time>2026-05-01T08:36:44Z</time></trkpt><trkpt lat="42.37547875785296" lon="14.257283725246117"><ele>168.66666666666666</ele><time>2026-05-01T08:36:45Z</time></trkpt><trkpt lat="42.37560732327328" lon="14.257470681982138"><ele>169.33333333333331</ele><time>2026-05-01T08:36:46Z</time></trkpt><trkpt lat="42.375713903545794" lon="14.257664181367613"><ele>170.0</ele><time>2026-05-01T08:36:47Z</time></trkpt><trkpt lat="42.37583027525855" lon="14.257847207443263"><ele>170.0</ele><time>2026-05-01T08:36:48Z</time></trkpt><trkpt lat="42.37594928174525" lon="14.258036684922955"><ele>170.0</ele><time>2026-05-01T08:36:49Z</time></trkpt><trkpt lat="42.37606294418219" lon="14.258234394961976"><ele>170.0</ele><time>2026-05-01T08:36:50Z</time></trkpt><trkpt lat="42.37617786796341" lon="14.258428466446311"><ele>172.0</ele><time>2026-05-01T08:36:51Z</time></trkpt><trkpt lat="42.37628074269605" lon="14.258595942660694"><ele>174.0</ele><time>2026-05-01T08:36:52Z</time></trkpt><trkpt lat="42.37638460261833" lon="14.258758306547596"><ele>176.0</ele><time>2026-05-01T08:36:53Z</time></trkpt><trkpt lat="42.37647753369419" lon="14.258912170454124"><ele>175.60000000000002</ele><time>2026-05-01T08:36:54Z</time></trkpt><trkpt lat="42.376579356124715" lon="14.25907224991535"><ele>175.2</ele><time>2026-05-01T08:36:55Z</time></trkpt><trkpt lat="42.3766573548917" lon="14.259196904999383"><ele>174.8</ele><time>2026-05-01T08:36:56Z</time></trkpt><trkpt lat="42.376714195817044" lon="14.259286579254534"><ele>174.39999999999998</ele><time>2026-05-01T08:36:57Z</time></trkpt><trkpt lat="42.37676363203015" lon="14.259368237199215"><ele>174.0</ele><time>2026-05-01T08:36:58Z</time></trkpt><trkpt lat="42.376800974685686" lon="14.259451020001931"><ele>174.0</ele><time>2026-05-01T08:36:59Z</time></trkpt><trkpt lat="42.37681253523687" lon="14.259536496911"><ele>174.0</ele><time>2026-05-01T08:37:00Z</time></trkpt><trkpt lat="42.37674671565047" lon="14.259637516772948"><ele>174.0</ele><time>2026-05-01T08:37:01Z</time></trkpt><trkpt lat="42.37674726222196" lon="14.25979060089994"><ele>174.0</ele><time>2026-05-01T08:37:02Z</time></trkpt><trkpt lat="42.37675497913786" lon="14.259982602446312"><ele>174.0</ele><time>2026-05-01T08:37:03Z</time></trkpt><trkpt lat="42.37676442468564" lon="14.260208301416853"><ele>172.75</ele><time>2026-05-01T08:37:04Z</time></trkpt><trkpt lat="42.376770145852596" lon="14.260424794571753"><ele>171.5</ele><time>2026-05-01T08:37:05Z</time></trkpt><trkpt lat="42.37676928155132" lon="14.260624192834387"><ele>170.25</ele><time>2026-05-01T08:37:06Z</time></trkpt><trkpt lat="42.37675486544687" lon="14.260803870476805"><ele>169.0</ele><time>2026-05-01T08:37:07Z</time></trkpt><trkpt lat="42.37673212680479" lon="14.260970484937339"><ele>167.75</ele><time>2026-05-01T08:37:08Z</time></trkpt><trkpt lat="42.37670786617292" lon="14.26113595087466"><ele>166.5</ele><time>2026-05-01T08:37:09Z</time></trkpt><trkpt lat="42.376682317643905" lon="14.261295862356723"><ele>165.25</ele><time>2026-05-01T08:37:10Z</time></trkpt><trkpt lat="42.37666148430791" lon="14.261451802613474"><ele>164.0</ele><time>2026-05-01T08:37:11Z</time></trkpt><trkpt lat="42.37666470044601" lon="14.261616952970861"><ele>162.66666666666666</ele><time>2026-05-01T08:37:12Z</time></trkpt><trkpt lat="42.3767013024062" lon="14.261809367619655"><ele>161.33333333333334</ele><time>2026-05-01T08:37:13Z</time></trkpt><trkpt lat="42.37673109120247" lon="14.262039448871365"><ele>160.0</ele><time>2026-05-01T08:37:14Z</time></trkpt><trkpt lat="42.37674447448975" lon="14.262285663200176"><ele>157.5</ele><time>2026-05-01T08:37:15Z</time></trkpt><trkpt lat="42.37678404009178" lon="14.262502429898028"><ele>155.0</ele><time>2026-05-01T08:37:16Z</time></trkpt><trkpt lat="42.376807366596424" lon="14.262701980841815"><ele>152.5</ele><time>2026-05-01T08:37:17Z</time></trkpt><trkpt lat="42.37681848682988" lon="14.262883750089403"><ele>150.0</ele><time>2026-05-01T08:37:18Z</time></trkpt><trkpt lat="42.376890907226596" lon="14.263078743583915"><ele>146.66666666666666</ele><time>2026-05-01T08:37:19Z</time></trkpt><trkpt lat="42.37696974731969" lon="14.26331089205596"><ele>143.33333333333331</ele><time>2026-05-01T08:37:20Z</time></trkpt><trkpt lat="42.37706096109146" lon="14.263559987038551"><ele>140.0</ele><time>2026-05-01T08:37:21Z</time></trkpt><trkpt lat="42.377155203110696" lon="14.263827638704164"><ele>141.0</ele><time>2026-05-01T08:37:22Z</time></trkpt><trkpt lat="42.377227402994485" lon="14.26407053526688"><ele>142.0</ele><time>2026-05-01T08:37:23Z</time></trkpt><trkpt lat="42.377312752936994" lon="14.264286113998233"><ele>143.0</ele><time>2026-05-01T08:37:24Z</time></trkpt><trkpt lat="42.37741776414682" lon="14.264478809126121"><ele>143.0</ele><time>2026-05-01T08:37:25Z</time></trkpt><trkpt lat="42.377505775214125" lon="14.264670005952912"><ele>143.0</ele><time>2026-05-01T08:37:26Z</time></trkpt><trkpt lat="42.377567103761535" lon="14.2648555289952"><ele>143.0</ele><time>2026-05-01T08:37:26.999Z</time></trkpt><trkpt lat="42.37761519735806" lon="14.26501411354624"><ele>143.0</ele><time>2026-05-01T08:37:27.999Z</time></trkpt><trkpt lat="42.377638109565225" lon="14.265165922586455"><ele>141.4</ele><time>2026-05-01T08:37:28.999Z</time></trkpt><trkpt lat="42.37764014577797" lon="14.265311601765154"><ele>139.8</ele><time>2026-05-01T08:37:29.999Z</time></trkpt><trkpt lat="42.37763028843626" lon="14.265463659841839"><ele>138.2</ele><time>2026-05-01T08:37:30.999Z</time></trkpt><trkpt lat="42.377630036502936" lon="14.265612799357497"><ele>136.6</ele><time>2026-05-01T08:37:31.999Z</time></trkpt><trkpt lat="42.37763511007532" lon="14.265769988947072"><ele>135.0</ele><time>2026-05-01T08:37:32.999Z</time></trkpt><trkpt lat="42.377643611389026" lon="14.26593875694991"><ele>133.5</ele><time>2026-05-01T08:37:33.999Z</time></trkpt><trkpt lat="42.37765338641096" lon="14.266104235904963"><ele>132.0</ele><time>2026-05-01T08:37:34.999Z</time></trkpt><trkpt lat="42.37765794576232" lon="14.266265856223852"><ele>130.5</ele><time>2026-05-01T08:37:35.999Z</time></trkpt><trkpt lat="42.37765227023008" lon="14.266417179766812"><ele>129.0</ele><time>2026-05-01T08:37:36.999Z</time></trkpt><trkpt lat="42.37764269830118" lon="14.266579651740948"><ele>127.4</ele><time>2026-05-01T08:37:37.999Z</time></trkpt><trkpt lat="42.37764201355136" lon="14.266725951801286"><ele>125.80000000000001</ele><time>2026-05-01T08:37:38.999Z</time></trkpt><trkpt lat="42.37765221175009" lon="14.266863868419525"><ele>124.19999999999999</ele><time>2026-05-01T08:37:39.999Z</time></trkpt><trkpt lat="42.377676501736104" lon="14.266971596677534"><ele>122.6</ele><time>2026-05-01T08:37:40.999Z</time></trkpt><trkpt lat="42.37766764393781" lon="14.267070072542248"><ele>121.0</ele><time>2026-05-01T08:37:41.999Z</time></trkpt><trkpt lat="42.37766995362105" lon="14.26720962036093"><ele>121.0</ele><time>2026-05-01T08:37:43.999Z</time></trkpt><trkpt lat="42.37756158800313" lon="14.26726172939569"><ele>121.0</ele><time>2026-05-01T08:37:45.999Z</time></trkpt><trkpt lat="42.37744192289466" lon="14.267243189736908"><ele>121.0</ele><time>2026-05-01T08:37:46.999Z</time></trkpt><trkpt lat="42.377307729004905" lon="14.267278076594364"><ele>121.0</ele><time>2026-05-01T08:37:47.999Z</time></trkpt><trkpt lat="42.37714521513131" lon="14.267325277761284"><ele>118.25</ele><time>2026-05-01T08:37:48.999Z</time></trkpt><trkpt lat="42.376989539690015" lon="14.267366103609968"><ele>115.5</ele><time>2026-05-01T08:37:49.999Z</time></trkpt><trkpt lat="42.37685988633657" lon="14.267392861166874"><ele>112.75</ele><time>2026-05-01T08:37:50.999Z</time></trkpt><trkpt lat="42.37673432764995" lon="14.267412244645556"><ele>110.0</ele><time>2026-05-01T08:37:51.999Z</time></trkpt><trkpt lat="42.37661508788542" lon="14.267429005160517"><ele>110.0</ele><time>2026-05-01T08:37:52.999Z</time></trkpt><trkpt lat="42.37650521155408" lon="14.267453754078538"><ele>110.0</ele><time>2026-05-01T08:37:53.999Z</time></trkpt><trkpt lat="42.376430231476476" lon="14.267533185480875"><ele>110.0</ele><time>2026-05-01T08:37:54.999Z</time></trkpt><trkpt lat="42.376365004271086" lon="14.26759854827402"><ele>110.0</ele><time>2026-05-01T08:37:55.999Z</time></trkpt><trkpt lat="42.37631563493765" lon="14.26767795602902"><ele>110.0</ele><time>2026-05-01T08:37:56.999Z</time></trkpt><trkpt lat="42.37627153276345" lon="14.267790801451266"><ele>113.8</ele><time>2026-05-01T08:37:57.999Z</time></trkpt><trkpt lat="42.376234681177586" lon="14.26791400898943"><ele>117.6</ele><time>2026-05-01T08:37:58.999Z</time></trkpt><trkpt lat="42.3762029606195" lon="14.268029876029741"><ele>121.4</ele><time>2026-05-01T08:37:59.999Z</time></trkpt><trkpt lat="42.37614900574844" lon="14.268157026656686"><ele>125.2</ele><time>2026-05-01T08:38:00.999Z</time></trkpt><trkpt lat="42.376111304657066" lon="14.268294194449277"><ele>129.0</ele><time>2026-05-01T08:38:01.999Z</time></trkpt><trkpt lat="42.376074743572005" lon="14.268429787230454"><ele>129.0</ele><time>2026-05-01T08:38:02.999Z</time></trkpt><trkpt lat="42.37603181017007" lon="14.268591596237341"><ele>129.0</ele><time>2026-05-01T08:38:03.999Z</time></trkpt><trkpt lat="42.37598669196297" lon="14.268771529758563"><ele>129.0</ele><time>2026-05-01T08:38:04.999Z</time></trkpt><trkpt lat="42.37595609316112" lon="14.268963376267996"><ele>129.0</ele><time>2026-05-01T08:38:05.999Z</time></trkpt><trkpt lat="42.375893306942125" lon="14.26916001422723"><ele>128.25</ele><time>2026-05-01T08:38:06.999Z</time></trkpt><trkpt lat="42.37582669814326" lon="14.269346029170036"><ele>127.5</ele><time>2026-05-01T08:38:07.999Z</time></trkpt><trkpt lat="42.37576767422697" lon="14.269517657887405"><ele>126.75</ele><time>2026-05-01T08:38:08.999Z</time></trkpt><trkpt lat="42.37570780016061" lon="14.269677097590005"><ele>126.0</ele><time>2026-05-01T08:38:09.999Z</time></trkpt><trkpt lat="42.37564485815517" lon="14.269837115210956"><ele>124.75</ele><time>2026-05-01T08:38:10.999Z</time></trkpt><trkpt lat="42.375584532636594" lon="14.269987313432141"><ele>123.5</ele><time>2026-05-01T08:38:11.999Z</time></trkpt><trkpt lat="42.375542219183096" lon="14.270132330274757"><ele>122.25</ele><time>2026-05-01T08:38:12.999Z</time></trkpt><trkpt lat="42.375471444527626" lon="14.270254411402941"><ele>121.0</ele><time>2026-05-01T08:38:13.999Z</time></trkpt><trkpt lat="42.375412869714886" lon="14.270385073119444"><ele>125.6</ele><time>2026-05-01T08:38:14.999Z</time></trkpt><trkpt lat="42.37535489273636" lon="14.270498412148088"><ele>130.2</ele><time>2026-05-01T08:38:15.999Z</time></trkpt><trkpt lat="42.375288478438286" lon="14.270612553033944"><ele>134.8</ele><time>2026-05-01T08:38:16.999Z</time></trkpt><trkpt lat="42.37522629003127" lon="14.270707088235982"><ele>139.4</ele><time>2026-05-01T08:38:17.999Z</time></trkpt><trkpt lat="42.37517790807682" lon="14.270778559404556"><ele>144.0</ele><time>2026-05-01T08:38:18.999Z</time></trkpt><trkpt lat="42.375101251007045" lon="14.27087486488427"><ele>144.0</ele><time>2026-05-01T08:38:21Z</time></trkpt><trkpt lat="42.37498232793976" lon="14.270924416138051"><ele>144.0</ele><time>2026-05-01T08:38:23Z</time></trkpt><trkpt lat="42.374902792003596" lon="14.27096062351834"><ele>144.0</ele><time>2026-05-01T08:38:24Z</time></trkpt><trkpt lat="42.37481874430567" lon="14.270987696609069"><ele>144.0</ele><time>2026-05-01T08:38:25Z</time></trkpt><trkpt lat="42.37473138443878" lon="14.270887347004827"><ele>144.0</ele><time>2026-05-01T08:38:26Z</time></trkpt><trkpt lat="42.37462758619232" lon="14.270863790866503"><ele>146.0</ele><time>2026-05-01T08:38:27Z</time></trkpt><trkpt lat="42.37453059762816" lon="14.270850972716946"><ele>148.0</ele><time>2026-05-01T08:38:28Z</time></trkpt><trkpt lat="42.37442423151758" lon="14.270851274156312"><ele>150.0</ele><time>2026-05-01T08:38:29Z</time></trkpt><trkpt lat="42.37432658691239" lon="14.27087434170663"><ele>152.0</ele><time>2026-05-01T08:38:31Z</time></trkpt><trkpt lat="42.37423581290797" lon="14.270888358326147"><ele>154.0</ele><time>2026-05-01T08:38:33Z</time></trkpt><trkpt lat="42.37417447863349" lon="14.270988823991921"><ele>154.0</ele><time>2026-05-01T08:38:34Z</time></trkpt><trkpt lat="42.37409587448738" lon="14.271092541989631"><ele>154.0</ele><time>2026-05-01T08:38:35Z</time></trkpt><trkpt lat="42.374038584192824" lon="14.271225606773411"><ele>154.0</ele><time>2026-05-01T08:38:36Z</time></trkpt><trkpt lat="42.374016453375454" lon="14.271346547757716"><ele>154.0</ele><time>2026-05-01T08:38:37Z</time></trkpt><trkpt lat="42.37397557652029" lon="14.271452219250936"><ele>154.0</ele><time>2026-05-01T08:38:38Z</time></trkpt><trkpt lat="42.37391765884345" lon="14.271538872453357"><ele>149.5</ele><time>2026-05-01T08:38:39Z</time></trkpt><trkpt lat="42.37382564704734" lon="14.271628279040891"><ele>145.0</ele><time>2026-05-01T08:38:40Z</time></trkpt><trkpt lat="42.37371171828642" lon="14.271711786575555"><ele>140.5</ele><time>2026-05-01T08:38:41Z</time></trkpt><trkpt lat="42.37358773313083" lon="14.271792963617623"><ele>136.0</ele><time>2026-05-01T08:38:42Z</time></trkpt><trkpt lat="42.37346216045797" lon="14.271869820890466"><ele>136.0</ele><time>2026-05-01T08:38:43Z</time></trkpt><trkpt lat="42.37333288429421" lon="14.27193281422222"><ele>136.0</ele><time>2026-05-01T08:38:44Z</time></trkpt><trkpt lat="42.37320212972679" lon="14.271950295199648"><ele>136.0</ele><time>2026-05-01T08:38:45Z</time></trkpt><trkpt lat="42.37305832201569" lon="14.271951518258845"><ele>136.0</ele><time>2026-05-01T08:38:46Z</time></trkpt><trkpt lat="42.3729007428294" lon="14.271953368901425"><ele>133.5</ele><time>2026-05-01T08:38:47Z</time></trkpt><trkpt lat="42.372766029607924" lon="14.27195861952734"><ele>131.0</ele><time>2026-05-01T08:38:48Z</time></trkpt><trkpt lat="42.372628923560754" lon="14.271970248758802"><ele>128.5</ele><time>2026-05-01T08:38:49Z</time></trkpt><trkpt lat="42.372492919525975" lon="14.271983556835659"><ele>126.0</ele><time>2026-05-01T08:38:50Z</time></trkpt><trkpt lat="42.37236477898892" lon="14.272014154602687"><ele>126.0</ele><time>2026-05-01T08:38:51Z</time></trkpt><trkpt lat="42.37225554047921" lon="14.271990089585627"><ele>126.0</ele><time>2026-05-01T08:38:52Z</time></trkpt><trkpt lat="42.372157771557866" lon="14.271987378775448"><ele>126.0</ele><time>2026-05-01T08:38:53Z</time></trkpt><trkpt lat="42.37206098577905" lon="14.272004068128116"><ele>126.0</ele><time>2026-05-01T08:38:54Z</time></trkpt><trkpt lat="42.37197831075891" lon="14.272145615510924"><ele>126.0</ele><time>2026-05-01T08:38:55Z</time></trkpt><trkpt lat="42.37190050183894" lon="14.27228537573035"><ele>121.0</ele><time>2026-05-01T08:38:56Z</time></trkpt><trkpt lat="42.37182822410135" lon="14.272447734533177"><ele>116.0</ele><time>2026-05-01T08:38:57Z</time></trkpt><trkpt lat="42.37176282058162" lon="14.272627117368522"><ele>111.0</ele><time>2026-05-01T08:38:58Z</time></trkpt><trkpt lat="42.37167865747864" lon="14.272809915964338"><ele>106.0</ele><time>2026-05-01T08:38:59Z</time></trkpt><trkpt lat="42.371626808452014" lon="14.273008279773746"><ele>104.33333333333334</ele><time>2026-05-01T08:39:00Z</time></trkpt><trkpt lat="42.371559023428894" lon="14.273205719956078"><ele>102.66666666666666</ele><time>2026-05-01T08:39:01Z</time></trkpt><trkpt lat="42.371494440052786" lon="14.273395777184431"><ele>101.0</ele><time>2026-05-01T08:39:02Z</time></trkpt><trkpt lat="42.371438215882534" lon="14.273566217764845"><ele>101.0</ele><time>2026-05-01T08:39:03Z</time></trkpt><trkpt lat="42.37138020360307" lon="14.273746243755443"><ele>101.0</ele><time>2026-05-01T08:39:04Z</time></trkpt><trkpt lat="42.37132816149536" lon="14.273931701958414"><ele>101.0</ele><time>2026-05-01T08:39:05Z</time></trkpt><trkpt lat="42.37128576552972" lon="14.274116833441628"><ele>101.0</ele><time>2026-05-01T08:39:06Z</time></trkpt><trkpt lat="42.37125343834571" lon="14.274295882497476"><ele>96.25</ele><time>2026-05-01T08:39:07Z</time></trkpt><trkpt lat="42.371239599303024" lon="14.27446138104657"><ele>91.5</ele><time>2026-05-01T08:39:08Z</time></trkpt><trkpt lat="42.37124072334279" lon="14.27462445400542"><ele>86.75</ele><time>2026-05-01T08:39:09Z</time></trkpt><trkpt lat="42.37126012873419" lon="14.27481772826931"><ele>82.0</ele><time>2026-05-01T08:39:10Z</time></trkpt><trkpt lat="42.37127572952769" lon="14.275040006005236"><ele>81.0</ele><time>2026-05-01T08:39:11Z</time></trkpt><trkpt lat="42.37125545758154" lon="14.27525219692855"><ele>80.0</ele><time>2026-05-01T08:39:12Z</time></trkpt><trkpt lat="42.371228799304966" lon="14.27547030426416"><ele>79.0</ele><time>2026-05-01T08:39:13Z</time></trkpt><trkpt lat="42.37119027710328" lon="14.275698519318574"><ele>79.0</ele><time>2026-05-01T08:39:14Z</time></trkpt><trkpt lat="42.37114557607317" lon="14.275929342698278"><ele>79.0</ele><time>2026-05-01T08:39:15Z</time></trkpt><trkpt lat="42.37108736706701" lon="14.27618058125376"><ele>79.0</ele><time>2026-05-01T08:39:16Z</time></trkpt><trkpt lat="42.371032160693204" lon="14.276405863292121"><ele>78.33333333333333</ele><time>2026-05-01T08:39:17Z</time></trkpt><trkpt lat="42.37099621548523" lon="14.27662288193407"><ele>77.66666666666667</ele><time>2026-05-01T08:39:18Z</time></trkpt><trkpt lat="42.37094728540807" lon="14.276829263171681"><ele>77.0</ele><time>2026-05-01T08:39:19Z</time></trkpt><trkpt lat="42.37090181427918" lon="14.27702950890281"><ele>77.0</ele><time>2026-05-01T08:39:20Z</time></trkpt><trkpt lat="42.370861617640124" lon="14.27720784604928"><ele>77.0</ele><time>2026-05-01T08:39:21Z</time></trkpt><trkpt lat="42.370827111470746" lon="14.277366789588077"><ele>77.0</ele><time>2026-05-01T08:39:22Z</time></trkpt><trkpt lat="42.37079415515124" lon="14.277518330081124"><ele>77.0</ele><time>2026-05-01T08:39:23Z</time></trkpt><trkpt lat="42.3707515885953" lon="14.27766979003057"><ele>77.0</ele><time>2026-05-01T08:39:24Z</time></trkpt><trkpt lat="42.37070073122925" lon="14.277859566111342"><ele>77.0</ele><time>2026-05-01T08:39:25Z</time></trkpt><trkpt lat="42.37064566827492" lon="14.278054865353916"><ele>77.0</ele><time>2026-05-01T08:39:26Z</time></trkpt><trkpt lat="42.370577652255456" lon="14.278250404730148"><ele>75.0</ele><time>2026-05-01T08:39:27Z</time></trkpt><trkpt lat="42.37048560026603" lon="14.278407375643937"><ele>73.0</ele><time>2026-05-01T08:39:28Z</time></trkpt><trkpt lat="42.370410835961145" lon="14.278586133982385"><ele>71.0</ele><time>2026-05-01T08:39:29Z</time></trkpt><trkpt lat="42.37031488257233" lon="14.278732690092793"><ele>69.0</ele><time>2026-05-01T08:39:30Z</time></trkpt><trkpt lat="42.37020110686857" lon="14.27884228845032"><ele>68.5</ele><time>2026-05-01T08:39:31Z</time></trkpt><trkpt lat="42.37008647440144" lon="14.278949261323968"><ele>68.0</ele><time>2026-05-01T08:39:32Z</time></trkpt><trkpt lat="42.36997546903714" lon="14.279037153224595"><ele>67.5</ele><time>2026-05-01T08:39:33Z</time></trkpt><trkpt lat="42.369877402474934" lon="14.279141705875322"><ele>67.0</ele><time>2026-05-01T08:39:34Z</time></trkpt><trkpt lat="42.369781613683585" lon="14.279210656051575"><ele>67.0</ele><time>2026-05-01T08:39:35Z</time></trkpt><trkpt lat="42.36970389412606" lon="14.279303420690539"><ele>67.0</ele><time>2026-05-01T08:39:36Z</time></trkpt><trkpt lat="42.369655275993495" lon="14.279413326878192"><ele>67.0</ele><time>2026-05-01T08:39:37Z</time></trkpt><trkpt lat="42.369635321416716" lon="14.279562021561055"><ele>67.0</ele><time>2026-05-01T08:39:38Z</time></trkpt><trkpt lat="42.36964516013588" lon="14.279733410911025"><ele>67.0</ele><time>2026-05-01T08:39:39Z</time></trkpt><trkpt lat="42.369664566502586" lon="14.279927469603646"><ele>66.66666666666666</ele><time>2026-05-01T08:39:40Z</time></trkpt><trkpt lat="42.36968523989465" lon="14.280132502109861"><ele>66.33333333333333</ele><time>2026-05-01T08:39:41Z</time></trkpt><trkpt lat="42.36969246554379" lon="14.280338271938195"><ele>66.0</ele><time>2026-05-01T08:39:42Z</time></trkpt><trkpt lat="42.36969803351202" lon="14.280550111427914"><ele>65.66666666666667</ele><time>2026-05-01T08:39:43Z</time></trkpt><trkpt lat="42.3696880394169" lon="14.280777426581004"><ele>65.33333333333334</ele><time>2026-05-01T08:39:44Z</time></trkpt><trkpt lat="42.369690254199995" lon="14.281018012748474"><ele>65.0</ele><time>2026-05-01T08:39:45Z</time></trkpt><trkpt lat="42.369705364382654" lon="14.281247784912619"><ele>64.25</ele><time>2026-05-01T08:39:46Z</time></trkpt><trkpt lat="42.36970503569539" lon="14.28145065153328"><ele>63.5</ele><time>2026-05-01T08:39:47Z</time></trkpt><trkpt lat="42.369688607937015" lon="14.281616759244658"><ele>62.75</ele><time>2026-05-01T08:39:48Z</time></trkpt><trkpt lat="42.36970420813269" lon="14.281761739031278"><ele>62.0</ele><time>2026-05-01T08:39:49Z</time></trkpt><trkpt lat="42.36970251039809" lon="14.281897812252199"><ele>62.0</ele><time>2026-05-01T08:39:50Z</time></trkpt><trkpt lat="42.36969711188452" lon="14.282017989066446"><ele>62.0</ele><time>2026-05-01T08:39:51Z</time></trkpt><trkpt lat="42.36968946625071" lon="14.282123028102303"><ele>62.0</ele><time>2026-05-01T08:39:51.999Z</time></trkpt><trkpt lat="42.36964277622929" lon="14.28225741806273"><ele>62.0</ele><time>2026-05-01T08:39:53.999Z</time></trkpt><trkpt lat="42.369541161006964" lon="14.282189385969989"><ele>62.0</ele><time>2026-05-01T08:39:56.999Z</time></trkpt><trkpt lat="42.36948967214684" lon="14.282099293941055"><ele>62.0</ele><time>2026-05-01T08:39:57.999Z</time></trkpt><trkpt lat="42.369420987837046" lon="14.281995524644197"><ele>62.0</ele><time>2026-05-01T08:39:58.999Z</time></trkpt><trkpt lat="42.369360070189686" lon="14.281866400607502"><ele>62.0</ele><time>2026-05-01T08:39:59.999Z</time></trkpt><trkpt lat="42.36927984982063" lon="14.281737498993886"><ele>62.0</ele><time>2026-05-01T08:40:00.999Z</time></trkpt><trkpt lat="42.369191115963424" lon="14.281613386664658"><ele>62.0</ele><time>2026-05-01T08:40:01.999Z</time></trkpt><trkpt lat="42.36911560500197" lon="14.281485783939145"><ele>62.0</ele><time>2026-05-01T08:40:02.999Z</time></trkpt><trkpt lat="42.3690534566589" lon="14.281364992548559"><ele>62.0</ele><time>2026-05-01T08:40:03.999Z</time></trkpt><trkpt lat="42.36898963310682" lon="14.281247172910915"><ele>62.0</ele><time>2026-05-01T08:40:04.999Z</time></trkpt><trkpt lat="42.368920312019874" lon="14.281126341961574"><ele>62.25</ele><time>2026-05-01T08:40:05.999Z</time></trkpt><trkpt lat="42.36884627666761" lon="14.281003805548776"><ele>62.5</ele><time>2026-05-01T08:40:06.999Z</time></trkpt><trkpt lat="42.368773592954646" lon="14.280877781454166"><ele>62.75</ele><time>2026-05-01T08:40:07.999Z</time></trkpt><trkpt lat="42.36870027999124" lon="14.280746607396017"><ele>63.0</ele><time>2026-05-01T08:40:08.999Z</time></trkpt><trkpt lat="42.368626230759524" lon="14.280614870578438"><ele>62.599999999999994</ele><time>2026-05-01T08:40:09.999Z</time></trkpt><trkpt lat="42.36856088175888" lon="14.28050754375434"><ele>62.199999999999996</ele><time>2026-05-01T08:40:10.999Z</time></trkpt><trkpt lat="42.36849608888508" lon="14.280394602829489"><ele>61.8</ele><time>2026-05-01T08:40:11.999Z</time></trkpt><trkpt lat="42.36844032279423" lon="14.280298895826029"><ele>61.4</ele><time>2026-05-01T08:40:12.999Z</time></trkpt><trkpt lat="42.368380616673754" lon="14.280215397150126"><ele>61.0</ele><time>2026-05-01T08:40:13.999Z</time></trkpt><trkpt lat="42.3683264017957" lon="14.280140966051404"><ele>61.0</ele><time>2026-05-01T08:40:14.999Z</time></trkpt><trkpt lat="42.36823064047173" lon="14.280120031797034"><ele>61.0</ele><time>2026-05-01T08:40:15.999Z</time></trkpt><trkpt lat="42.36811696769502" lon="14.280163132577552"><ele>61.0</ele><time>2026-05-01T08:40:16.999Z</time></trkpt><trkpt lat="42.368014572461185" lon="14.280256832569002"><ele>61.0</ele><time>2026-05-01T08:40:17.999Z</time></trkpt><trkpt lat="42.36788244724817" lon="14.280349562263229"><ele>58.0</ele><time>2026-05-01T08:40:18.999Z</time></trkpt><trkpt lat="42.36774101839596" lon="14.280418312479796"><ele>55.0</ele><time>2026-05-01T08:40:19.999Z</time></trkpt><trkpt lat="42.36759955376711" lon="14.280509472251026"><ele>52.0</ele><time>2026-05-01T08:40:20.999Z</time></trkpt><trkpt lat="42.36745804392495" lon="14.28059612128517"><ele>53.0</ele><time>2026-05-01T08:40:21.999Z</time></trkpt><trkpt lat="42.367307975339536" lon="14.280669233914079"><ele>54.0</ele><time>2026-05-01T08:40:22.999Z</time></trkpt><trkpt lat="42.36714905459579" lon="14.280713198587625"><ele>55.0</ele><time>2026-05-01T08:40:23.999Z</time></trkpt><trkpt lat="42.36699166973748" lon="14.28075154232699"><ele>53.0</ele><time>2026-05-01T08:40:24.999Z</time></trkpt><trkpt lat="42.36683442512311" lon="14.2807843992634"><ele>51.0</ele><time>2026-05-01T08:40:25.999Z</time></trkpt><trkpt lat="42.36668548404343" lon="14.28081711977777"><ele>49.0</ele><time>2026-05-01T08:40:27Z</time></trkpt><trkpt lat="42.366539899066936" lon="14.280851438601882"><ele>49.0</ele><time>2026-05-01T08:40:28Z</time></trkpt><trkpt lat="42.36639673284104" lon="14.280884536740514"><ele>49.0</ele><time>2026-05-01T08:40:29Z</time></trkpt><trkpt lat="42.366258872406895" lon="14.280916408240829"><ele>49.0</ele><time>2026-05-01T08:40:30Z</time></trkpt><trkpt lat="42.36612999956338" lon="14.280946201930993"><ele>49.0</ele><time>2026-05-01T08:40:31Z</time></trkpt><trkpt lat="42.36601040760871" lon="14.28097385002042"><ele>48.33333333333333</ele><time>2026-05-01T08:40:32Z</time></trkpt><trkpt lat="42.3658973432435" lon="14.280999988974973"><ele>47.666666666666664</ele><time>2026-05-01T08:40:33Z</time></trkpt><trkpt lat="42.3657977230492" lon="14.281023019851435"><ele>47.0</ele><time>2026-05-01T08:40:34Z</time></trkpt><trkpt lat="42.36571076226401" lon="14.281043124066713"><ele>46.33333333333333</ele><time>2026-05-01T08:40:35Z</time></trkpt><trkpt lat="42.36563418710292" lon="14.281060521385953"><ele>45.666666666666664</ele><time>2026-05-01T08:40:36Z</time></trkpt><trkpt lat="42.36556880826288" lon="14.281075305235529"><ele>45.0</ele><time>2026-05-01T08:40:37Z</time></trkpt><trkpt lat="42.365505705121365" lon="14.281089574460076"><ele>45.0</ele><time>2026-05-01T08:40:39Z</time></trkpt><trkpt lat="42.36542195038749" lon="14.281085741371493"><ele>45.0</ele><time>2026-05-01T08:40:41Z</time></trkpt><trkpt lat="42.36538514514515" lon="14.28085419786922"><ele>45.0</ele><time>2026-05-01T08:40:42Z</time></trkpt><trkpt lat="42.365310570523604" lon="14.280707944162657"><ele>45.0</ele><time>2026-05-01T08:40:43Z</time></trkpt><trkpt lat="42.36523292659704" lon="14.280556252125185"><ele>45.0</ele><time>2026-05-01T08:40:44Z</time></trkpt><trkpt lat="42.36515769177811" lon="14.280410180288657"><ele>45.0</ele><time>2026-05-01T08:40:45Z</time></trkpt><trkpt lat="42.36506903974102" lon="14.280236579525459"><ele>45.0</ele><time>2026-05-01T08:40:46Z</time></trkpt><trkpt lat="42.36497733585635" lon="14.280055845141158"><ele>45.0</ele><time>2026-05-01T08:40:47Z</time></trkpt><trkpt lat="42.36488175873963" lon="14.279864326322397"><ele>45.333333333333336</ele><time>2026-05-01T08:40:48Z</time></trkpt><trkpt lat="42.36478072576108" lon="14.279657697428995"><ele>45.66666666666667</ele><time>2026-05-01T08:40:49Z</time></trkpt><trkpt lat="42.36468126697864" lon="14.279450500428988"><ele>46.0</ele><time>2026-05-01T08:40:50Z</time></trkpt><trkpt lat="42.36457518565381" lon="14.27924545053346"><ele>46.0</ele><time>2026-05-01T08:40:51Z</time></trkpt><trkpt lat="42.36447262186116" lon="14.27906116718982"><ele>46.0</ele><time>2026-05-01T08:40:52Z</time></trkpt><trkpt lat="42.36436462745631" lon="14.278893811308095"><ele>46.0</ele><time>2026-05-01T08:40:53Z</time></trkpt><trkpt lat="42.364230852387905" lon="14.278765556326046"><ele>46.333333333333336</ele><time>2026-05-01T08:40:54Z</time></trkpt><trkpt lat="42.364085675246706" lon="14.278638459791393"><ele>46.666666666666664</ele><time>2026-05-01T08:40:55Z</time></trkpt><trkpt lat="42.363934348100265" lon="14.278496704864441"><ele>47.0</ele><time>2026-05-01T08:40:56Z</time></trkpt><trkpt lat="42.36376664889545" lon="14.278361615878095"><ele>47.0</ele><time>2026-05-01T08:40:57Z</time></trkpt><trkpt lat="42.363592738465165" lon="14.278221523482838"><ele>47.0</ele><time>2026-05-01T08:40:58Z</time></trkpt><trkpt lat="42.36341561136216" lon="14.278110610696032"><ele>47.0</ele><time>2026-05-01T08:40:59Z</time></trkpt><trkpt lat="42.36325703918524" lon="14.277982681507375"><ele>48.0</ele><time>2026-05-01T08:41:00Z</time></trkpt><trkpt lat="42.363116164056116" lon="14.27786775829511"><ele>49.0</ele><time>2026-05-01T08:41:01Z</time></trkpt><trkpt lat="42.36299141885204" lon="14.277779029249023"><ele>50.0</ele><time>2026-05-01T08:41:02Z</time></trkpt><trkpt lat="42.36284491947081" lon="14.27771920685085"><ele>50.0</ele><time>2026-05-01T08:41:03Z</time></trkpt><trkpt lat="42.36268738265543" lon="14.277696719346215"><ele>50.0</ele><time>2026-05-01T08:41:04Z</time></trkpt><trkpt lat="42.36250514892338" lon="14.277696770839984"><ele>50.0</ele><time>2026-05-01T08:41:05Z</time></trkpt><trkpt lat="42.36231375071401" lon="14.277702986898415"><ele>50.0</ele><time>2026-05-01T08:41:06Z</time></trkpt><trkpt lat="42.36210790703039" lon="14.27771263379761"><ele>50.0</ele><time>2026-05-01T08:41:07Z</time></trkpt><trkpt lat="42.361894035628275" lon="14.277739903697894"><ele>50.0</ele><time>2026-05-01T08:41:08Z</time></trkpt><trkpt lat="42.361667170284655" lon="14.277766751343751"><ele>50.0</ele><time>2026-05-01T08:41:09Z</time></trkpt><trkpt lat="42.36144322185374" lon="14.277793307965295"><ele>50.0</ele><time>2026-05-01T08:41:10Z</time></trkpt><trkpt lat="42.361216454553784" lon="14.277816349900473"><ele>50.0</ele><time>2026-05-01T08:41:11Z</time></trkpt><trkpt lat="42.360991229151985" lon="14.277838382248866"><ele>50.0</ele><time>2026-05-01T08:41:12Z</time></trkpt><trkpt lat="42.3607639956598" lon="14.277836007695516"><ele>50.0</ele><time>2026-05-01T08:41:13Z</time></trkpt><trkpt lat="42.36055263571702" lon="14.277872555134179"><ele>50.0</ele><time>2026-05-01T08:41:14Z</time></trkpt><trkpt lat="42.36035605188333" lon="14.277895716060035"><ele>50.0</ele><time>2026-05-01T08:41:15Z</time></trkpt><trkpt lat="42.36019705078637" lon="14.27787889767155"><ele>50.25</ele><time>2026-05-01T08:41:16Z</time></trkpt><trkpt lat="42.36006710694349" lon="14.277834739781783"><ele>50.5</ele><time>2026-05-01T08:41:17Z</time></trkpt><trkpt lat="42.35994746457618" lon="14.277756927142242"><ele>50.75</ele><time>2026-05-01T08:41:18Z</time></trkpt><trkpt lat="42.359865227645095" lon="14.277601817984735"><ele>51.0</ele><time>2026-05-01T08:41:19Z</time></trkpt><trkpt lat="42.35980481302486" lon="14.277448805819308"><ele>51.0</ele><time>2026-05-01T08:41:20Z</time></trkpt><trkpt lat="42.359759896395886" lon="14.277287828040773"><ele>51.0</ele><time>2026-05-01T08:41:21Z</time></trkpt><trkpt lat="42.35972481617073" lon="14.277159168433277"><ele>51.0</ele><time>2026-05-01T08:41:22Z</time></trkpt><trkpt lat="42.35970378436477" lon="14.277073680825335"><ele>51.0</ele><time>2026-05-01T08:41:23Z</time></trkpt><trkpt lat="42.359675910273786" lon="14.276918307263944"><ele>51.0</ele><time>2026-05-01T08:41:25Z</time></trkpt><trkpt lat="42.35964225668347" lon="14.276845816983489"><ele>50.66666666666667</ele><time>2026-05-01T08:41:26Z</time></trkpt><trkpt lat="42.35950572900475" lon="14.277122405527036"><ele>50.333333333333336</ele><time>2026-05-01T08:41:27Z</time></trkpt><trkpt lat="42.35947860169594" lon="14.27727100281373"><ele>50.0</ele><time>2026-05-01T08:41:28Z</time></trkpt><trkpt lat="42.35948116728113" lon="14.27745411821636"><ele>50.0</ele><time>2026-05-01T08:41:29Z</time></trkpt><trkpt lat="42.35950935297939" lon="14.277683602174708"><ele>50.0</ele><time>2026-05-01T08:41:30Z</time></trkpt><trkpt lat="42.359557850835095" lon="14.277917894086906"><ele>50.0</ele><time>2026-05-01T08:41:31Z</time></trkpt><trkpt lat="42.35960259819424" lon="14.278138615638147"><ele>49.0</ele><time>2026-05-01T08:41:32Z</time></trkpt><trkpt lat="42.35962470328834" lon="14.278307043253177"><ele>48.0</ele><time>2026-05-01T08:41:33Z</time></trkpt><trkpt lat="42.35961922702975" lon="14.278474118120677"><ele>47.0</ele><time>2026-05-01T08:41:34Z</time></trkpt><trkpt lat="42.359575672256305" lon="14.278632282636222"><ele>46.0</ele><time>2026-05-01T08:41:35Z</time></trkpt><trkpt lat="42.35952267014458" lon="14.27881410328419"><ele>45.333333333333336</ele><time>2026-05-01T08:41:36Z</time></trkpt><trkpt lat="42.35944829313638" lon="14.27902627622459"><ele>44.666666666666664</ele><time>2026-05-01T08:41:37Z</time></trkpt><trkpt lat="42.3593762067508" lon="14.279226807078112"><ele>44.0</ele><time>2026-05-01T08:41:38Z</time></trkpt><trkpt lat="42.359324813552604" lon="14.279404636407081"><ele>44.0</ele><time>2026-05-01T08:41:39Z</time></trkpt><trkpt lat="42.35926877621057" lon="14.279565549403795"><ele>44.0</ele><time>2026-05-01T08:41:40Z</time></trkpt><trkpt lat="42.35921467760663" lon="14.279713869966534"><ele>44.0</ele><time>2026-05-01T08:41:41Z</time></trkpt><trkpt lat="42.35916351298181" lon="14.279848111506222"><ele>44.0</ele><time>2026-05-01T08:41:42Z</time></trkpt><trkpt lat="42.35910398533745" lon="14.279983921990462"><ele>43.5</ele><time>2026-05-01T08:41:43Z</time></trkpt><trkpt lat="42.359035960593545" lon="14.280126334351706"><ele>43.0</ele><time>2026-05-01T08:41:44Z</time></trkpt><trkpt lat="42.35896231372155" lon="14.280260904243194"><ele>42.5</ele><time>2026-05-01T08:41:45Z</time></trkpt><trkpt lat="42.35887496176782" lon="14.280369000033959"><ele>42.0</ele><time>2026-05-01T08:41:46Z</time></trkpt><trkpt lat="42.358788095766336" lon="14.280470136500064"><ele>42.0</ele><time>2026-05-01T08:41:47Z</time></trkpt><trkpt lat="42.358717233763215" lon="14.280543976686994"><ele>42.0</ele><time>2026-05-01T08:41:48Z</time></trkpt><trkpt lat="42.3586472285246" lon="14.280610661344015"><ele>42.0</ele><time>2026-05-01T08:41:49Z</time></trkpt><trkpt lat="42.35857864196914" lon="14.280664887103988"><ele>42.0</ele><time>2026-05-01T08:41:50Z</time></trkpt><trkpt lat="42.35851834679828" lon="14.280722071143193"><ele>42.0</ele><time>2026-05-01T08:41:51Z</time></trkpt><trkpt lat="42.35842064016197" lon="14.280812886513502"><ele>42.0</ele><time>2026-05-01T08:41:53Z</time></trkpt><trkpt lat="42.358356382903985" lon="14.280876631093403"><ele>41.75</ele><time>2026-05-01T08:41:55Z</time></trkpt><trkpt lat="42.3584187349416" lon="14.280810000019196"><ele>41.5</ele><time>2026-05-01T08:42:01Z</time></trkpt><trkpt lat="42.358620819057634" lon="14.280792799463322"><ele>41.25</ele><time>2026-05-01T08:42:02Z</time></trkpt><trkpt lat="42.3587250880063" lon="14.280719515207041"><ele>41.0</ele><time>2026-05-01T08:42:03Z</time></trkpt><trkpt lat="42.358844498978016" lon="14.280615595991197"><ele>41.33333333333333</ele><time>2026-05-01T08:42:04Z</time></trkpt><trkpt lat="42.35896111715754" lon="14.280492879268202"><ele>41.666666666666664</ele><time>2026-05-01T08:42:05Z</time></trkpt><trkpt lat="42.35907926039212" lon="14.280355454867934"><ele>42.0</ele><time>2026-05-01T08:42:06Z</time></trkpt><trkpt lat="42.35919330698237" lon="14.28021580494142"><ele>42.0</ele><time>2026-05-01T08:42:07Z</time></trkpt><trkpt lat="42.35927816247287" lon="14.280082268154922"><ele>42.0</ele><time>2026-05-01T08:42:08Z</time></trkpt><trkpt lat="42.35935092830905" lon="14.279973048218388"><ele>42.0</ele><time>2026-05-01T08:42:09Z</time></trkpt><trkpt lat="42.35938180235123" lon="14.279881915378931"><ele>42.0</ele><time>2026-05-01T08:42:10Z</time></trkpt><trkpt lat="42.359582234134905" lon="14.279853612072218"><ele>41.75</ele><time>2026-05-01T08:42:13Z</time></trkpt><trkpt lat="42.359716689101845" lon="14.27983392978458"><ele>41.5</ele><time>2026-05-01T08:42:13.999Z</time></trkpt><trkpt lat="42.35984797846369" lon="14.279875981007107"><ele>41.25</ele><time>2026-05-01T08:42:14.999Z</time></trkpt><trkpt lat="42.35993763502596" lon="14.279905557225272"><ele>41.0</ele><time>2026-05-01T08:42:15.999Z</time></trkpt><trkpt lat="42.36006888966308" lon="14.27992856004853"><ele>41.0</ele><time>2026-05-01T08:42:16.999Z</time></trkpt><trkpt lat="42.36022397852426" lon="14.27997280264952"><ele>41.0</ele><time>2026-05-01T08:42:17.999Z</time></trkpt><trkpt lat="42.36038071725847" lon="14.280013199632092"><ele>41.0</ele><time>2026-05-01T08:42:18.999Z</time></trkpt><trkpt lat="42.36050845021798" lon="14.280041872367356"><ele>41.0</ele><time>2026-05-01T08:42:19.999Z</time></trkpt><trkpt lat="42.36062694957076" lon="14.280062743637503"><ele>41.4</ele><time>2026-05-01T08:42:20.999Z</time></trkpt><trkpt lat="42.360750354338826" lon="14.280084176177033"><ele>41.8</ele><time>2026-05-01T08:42:21.999Z</time></trkpt><trkpt lat="42.36087030404097" lon="14.280116484777132"><ele>42.199999999999996</ele><time>2026-05-01T08:42:22.999Z</time></trkpt><trkpt lat="42.36096638356951" lon="14.280149289480415"><ele>42.599999999999994</ele><time>2026-05-01T08:42:23.999Z</time></trkpt><trkpt lat="42.36104816952255" lon="14.280167871809915"><ele>43.0</ele><time>2026-05-01T08:42:24.999Z</time></trkpt><trkpt lat="42.36116384922695" lon="14.280112784067867"><ele>43.0</ele><time>2026-05-01T08:42:26.999Z</time></trkpt><trkpt lat="42.361229351870925" lon="14.280035551125588"><ele>43.0</ele><time>2026-05-01T08:42:27.999Z</time></trkpt><trkpt lat="42.36128531639911" lon="14.279969732355951"><ele>43.0</ele><time>2026-05-01T08:42:28.999Z</time></trkpt><trkpt lat="42.36134148342326" lon="14.279904048017446"><ele>43.0</ele><time>2026-05-01T08:42:29.999Z</time></trkpt><trkpt lat="42.36139945192032" lon="14.279843424843516"><ele>43.0</ele><time>2026-05-01T08:42:30.999Z</time></trkpt><trkpt lat="42.36148274735449" lon="14.27979247069662"><ele>43.0</ele><time>2026-05-01T08:42:31.999Z</time></trkpt><trkpt lat="42.3615540277746" lon="14.279747062725546"><ele>43.0</ele><time>2026-05-01T08:42:33Z</time></trkpt><trkpt lat="42.36163456125337" lon="14.27970902242044"><ele>43.0</ele><time>2026-05-01T08:42:34Z</time></trkpt><trkpt lat="42.36173360636636" lon="14.27967701029124"><ele>43.0</ele><time>2026-05-01T08:42:35Z</time></trkpt><trkpt lat="42.361825567559734" lon="14.279632114305068"><ele>43.0</ele><time>2026-05-01T08:42:36Z</time></trkpt><trkpt lat="42.361941091079" lon="14.279563794207347"><ele>43.0</ele><time>2026-05-01T08:42:37Z</time></trkpt><trkpt lat="42.36204894007344" lon="14.279514393965501"><ele>43.0</ele><time>2026-05-01T08:42:38Z</time></trkpt><trkpt lat="42.36216833354186" lon="14.279459456526181"><ele>43.0</ele><time>2026-05-01T08:42:39Z</time></trkpt><trkpt lat="42.36229022223713" lon="14.279461141678826"><ele>43.0</ele><time>2026-05-01T08:42:40Z</time></trkpt><trkpt lat="42.362385110425095" lon="14.279482568860665"><ele>43.0</ele><time>2026-05-01T08:42:41Z</time></trkpt><trkpt lat="42.3624655416093" lon="14.27953919234755"><ele>43.0</ele><time>2026-05-01T08:42:42Z</time></trkpt><trkpt lat="42.36254462594196" lon="14.279620987429933"><ele>43.0</ele><time>2026-05-01T08:42:43Z</time></trkpt><trkpt lat="42.36267523919966" lon="14.279721646230175"><ele>43.0</ele><time>2026-05-01T08:42:44Z</time></trkpt><trkpt lat="42.36282973695895" lon="14.279824991195996"><ele>43.0</ele><time>2026-05-01T08:42:45Z</time></trkpt><trkpt lat="42.36297232021943" lon="14.279931868837046"><ele>42.66666666666667</ele><time>2026-05-01T08:42:46Z</time></trkpt><trkpt lat="42.36311421561089" lon="14.280028944357351"><ele>42.333333333333336</ele><time>2026-05-01T08:42:47Z</time></trkpt><trkpt lat="42.36328596239401" lon="14.280116470440388"><ele>42.0</ele><time>2026-05-01T08:42:48Z</time></trkpt><trkpt lat="42.363450802228705" lon="14.28019769690663"><ele>42.0</ele><time>2026-05-01T08:42:49Z</time></trkpt><trkpt lat="42.363597427025226" lon="14.280261106734423"><ele>42.0</ele><time>2026-05-01T08:42:50Z</time></trkpt><trkpt lat="42.36372336255369" lon="14.280321542043616"><ele>42.0</ele><time>2026-05-01T08:42:51Z</time></trkpt><trkpt lat="42.36384780282982" lon="14.280387255753224"><ele>42.0</ele><time>2026-05-01T08:42:52Z</time></trkpt><trkpt lat="42.36392613327827" lon="14.280510239876248"><ele>40.666666666666664</ele><time>2026-05-01T08:42:53Z</time></trkpt><trkpt lat="42.36402121661203" lon="14.28065222476482"><ele>39.33333333333333</ele><time>2026-05-01T08:42:54Z</time></trkpt><trkpt lat="42.364097578878365" lon="14.280846179462536"><ele>38.0</ele><time>2026-05-01T08:42:55Z</time></trkpt><trkpt lat="42.364195886397376" lon="14.281038137737575"><ele>38.0</ele><time>2026-05-01T08:42:56Z</time></trkpt><trkpt lat="42.364287022774725" lon="14.281204389090927"><ele>38.0</ele><time>2026-05-01T08:42:57Z</time></trkpt><trkpt lat="42.36433466449463" lon="14.281365770629684"><ele>38.0</ele><time>2026-05-01T08:42:58Z</time></trkpt><trkpt lat="42.36436242644465" lon="14.281522260568149"><ele>38.0</ele><time>2026-05-01T08:42:59Z</time></trkpt><trkpt lat="42.36435523455175" lon="14.281660683356309"><ele>37.5</ele><time>2026-05-01T08:43:00Z</time></trkpt><trkpt lat="42.36433066364692" lon="14.28181667012921"><ele>37.0</ele><time>2026-05-01T08:43:01Z</time></trkpt><trkpt lat="42.364263112668645" lon="14.281966228286366"><ele>36.5</ele><time>2026-05-01T08:43:02Z</time></trkpt><trkpt lat="42.364213331942864" lon="14.282103012547582"><ele>36.0</ele><time>2026-05-01T08:43:03Z</time></trkpt><trkpt lat="42.36416900138544" lon="14.282243015665735"><ele>36.0</ele><time>2026-05-01T08:43:04Z</time></trkpt><trkpt lat="42.36411738901907" lon="14.282352959580061"><ele>36.0</ele><time>2026-05-01T08:43:05Z</time></trkpt><trkpt lat="42.36407870862997" lon="14.28248397491896"><ele>36.0</ele><time>2026-05-01T08:43:06Z</time></trkpt><trkpt lat="42.36408974502596" lon="14.282674892793077"><ele>36.0</ele><time>2026-05-01T08:43:08Z</time></trkpt><trkpt lat="42.36411504113449" lon="14.28281503075818"><ele>36.0</ele><time>2026-05-01T08:43:09Z</time></trkpt><trkpt lat="42.36413979791282" lon="14.282951352697644"><ele>36.0</ele><time>2026-05-01T08:43:10Z</time></trkpt><trkpt lat="42.36418132201414" lon="14.283063370262203"><ele>36.0</ele><time>2026-05-01T08:43:11Z</time></trkpt><trkpt lat="42.364228884137546" lon="14.283173759946402"><ele>36.0</ele><time>2026-05-01T08:43:12Z</time></trkpt><trkpt lat="42.36424630877785" lon="14.283299600241087"><ele>36.0</ele><time>2026-05-01T08:43:13Z</time></trkpt><trkpt lat="42.36425639343411" lon="14.28344117157521"><ele>36.0</ele><time>2026-05-01T08:43:14Z</time></trkpt><trkpt lat="42.36425684128873" lon="14.28359788476639"><ele>35.75</ele><time>2026-05-01T08:43:15Z</time></trkpt><trkpt lat="42.36425750636943" lon="14.28376700733469"><ele>35.5</ele><time>2026-05-01T08:43:16Z</time></trkpt><trkpt lat="42.36425905635964" lon="14.283952317154254"><ele>35.25</ele><time>2026-05-01T08:43:17Z</time></trkpt><trkpt lat="42.364255042862546" lon="14.284159308897348"><ele>35.0</ele><time>2026-05-01T08:43:18Z</time></trkpt><trkpt lat="42.36424352400861" lon="14.284375876328545"><ele>34.5</ele><time>2026-05-01T08:43:19Z</time></trkpt><trkpt lat="42.36421831722421" lon="14.284582358453322"><ele>34.0</ele><time>2026-05-01T08:43:20Z</time></trkpt><trkpt lat="42.36419930027944" lon="14.28475125499043"><ele>33.5</ele><time>2026-05-01T08:43:21Z</time></trkpt><trkpt lat="42.36419224340152" lon="14.284928973582339"><ele>33.0</ele><time>2026-05-01T08:43:22Z</time></trkpt><trkpt lat="42.364173817095065" lon="14.285113452525827"><ele>33.0</ele><time>2026-05-01T08:43:23Z</time></trkpt><trkpt lat="42.36416438585517" lon="14.285283586541075"><ele>33.0</ele><time>2026-05-01T08:43:24Z</time></trkpt><trkpt lat="42.36417657038388" lon="14.28543914612705"><ele>33.0</ele><time>2026-05-01T08:43:25Z</time></trkpt><trkpt lat="42.36420317363871" lon="14.28562579845777"><ele>33.0</ele><time>2026-05-01T08:43:26Z</time></trkpt><trkpt lat="42.364247693420005" lon="14.285828414197638"><ele>33.25</ele><time>2026-05-01T08:43:27Z</time></trkpt><trkpt lat="42.364289673391134" lon="14.285996567501366"><ele>33.5</ele><time>2026-05-01T08:43:28Z</time></trkpt><trkpt lat="42.3643573682244" lon="14.286155949771421"><ele>33.75</ele><time>2026-05-01T08:43:29Z</time></trkpt><trkpt lat="42.364445377085566" lon="14.2863144944971"><ele>34.0</ele><time>2026-05-01T08:43:30Z</time></trkpt><trkpt lat="42.36454194912409" lon="14.286441401156289"><ele>34.0</ele><time>2026-05-01T08:43:31Z</time></trkpt><trkpt lat="42.36463123436839" lon="14.286559225636575"><ele>34.0</ele><time>2026-05-01T08:43:32Z</time></trkpt><trkpt lat="42.36474835362339" lon="14.286667949538241"><ele>34.0</ele><time>2026-05-01T08:43:33Z</time></trkpt><trkpt lat="42.36486738527784" lon="14.286812082747714"><ele>34.0</ele><time>2026-05-01T08:43:34Z</time></trkpt><trkpt lat="42.365018190334354" lon="14.286937534699051"><ele>34.25</ele><time>2026-05-01T08:43:35Z</time></trkpt><trkpt lat="42.36513978374003" lon="14.287068922997992"><ele>34.5</ele><time>2026-05-01T08:43:36Z</time></trkpt><trkpt lat="42.36524380563304" lon="14.287171992307242"><ele>34.75</ele><time>2026-05-01T08:43:37Z</time></trkpt><trkpt lat="42.365345806688964" lon="14.287254037806015"><ele>35.0</ele><time>2026-05-01T08:43:38Z</time></trkpt><trkpt lat="42.36545078174442" lon="14.287313354580983"><ele>34.6</ele><time>2026-05-01T08:43:39Z</time></trkpt><trkpt lat="42.36555091844559" lon="14.287373212282716"><ele>34.2</ele><time>2026-05-01T08:43:40Z</time></trkpt><trkpt lat="42.365663561421876" lon="14.287404691383637"><ele>33.8</ele><time>2026-05-01T08:43:41Z</time></trkpt><trkpt lat="42.36578515723417" lon="14.287423973335105"><ele>33.4</ele><time>2026-05-01T08:43:42Z</time></trkpt><trkpt lat="42.365859531622334" lon="14.287438436719563"><ele>33.0</ele><time>2026-05-01T08:43:43Z</time></trkpt><trkpt lat="42.36595625085224" lon="14.287401021114087"><ele>33.0</ele><time>2026-05-01T08:43:45Z</time></trkpt><trkpt lat="42.366073278218096" lon="14.28733699830957"><ele>33.0</ele><time>2026-05-01T08:43:46Z</time></trkpt><trkpt lat="42.36622848324863" lon="14.287267343057257"><ele>33.0</ele><time>2026-05-01T08:43:47Z</time></trkpt><trkpt lat="42.36636969825119" lon="14.28721480735956"><ele>33.0</ele><time>2026-05-01T08:43:48Z</time></trkpt><trkpt lat="42.366478478538674" lon="14.287233925973979"><ele>33.4</ele><time>2026-05-01T08:43:49Z</time></trkpt><trkpt lat="42.366545516844745" lon="14.287267213428375"><ele>33.8</ele><time>2026-05-01T08:43:50Z</time></trkpt><trkpt lat="42.36654757885345" lon="14.287364493976119"><ele>34.2</ele><time>2026-05-01T08:43:57Z</time></trkpt><trkpt lat="42.366585795187625" lon="14.287505127322083"><ele>34.6</ele><time>2026-05-01T08:43:59Z</time></trkpt><trkpt lat="42.36662889414573" lon="14.287677257965049"><ele>35.0</ele><time>2026-05-01T08:44:00Z</time></trkpt><trkpt lat="42.3666672549575" lon="14.287875983288497"><ele>35.0</ele><time>2026-05-01T08:44:01Z</time></trkpt><trkpt lat="42.366701309814886" lon="14.288083997108242"><ele>35.0</ele><time>2026-05-01T08:44:02Z</time></trkpt><trkpt lat="42.3667349116753" lon="14.28827091679457"><ele>35.0</ele><time>2026-05-01T08:44:03Z</time></trkpt><trkpt lat="42.36676027911112" lon="14.28843796021722"><ele>35.0</ele><time>2026-05-01T08:44:04Z</time></trkpt><trkpt lat="42.366809630268754" lon="14.288567973728812"><ele>34.8</ele><time>2026-05-01T08:44:05Z</time></trkpt><trkpt lat="42.366846298465035" lon="14.288700689925584"><ele>34.6</ele><time>2026-05-01T08:44:06Z</time></trkpt><trkpt lat="42.36688014150936" lon="14.288812584394433"><ele>34.4</ele><time>2026-05-01T08:44:07Z</time></trkpt><trkpt lat="42.36688112189517" lon="14.288938606107196"><ele>34.2</ele><time>2026-05-01T08:44:08Z</time></trkpt><trkpt lat="42.366889240791814" lon="14.289056200488625"><ele>34.0</ele><time>2026-05-01T08:44:09Z</time></trkpt><trkpt lat="42.36691549043452" lon="14.289213526085412"><ele>33.75</ele><time>2026-05-01T08:44:10Z</time></trkpt><trkpt lat="42.36693296682618" lon="14.289373067513015"><ele>33.5</ele><time>2026-05-01T08:44:11Z</time></trkpt><trkpt lat="42.366954982076585" lon="14.289543932171009"><ele>33.25</ele><time>2026-05-01T08:44:12Z</time></trkpt><trkpt lat="42.36697039917806" lon="14.289687334450104"><ele>33.0</ele><time>2026-05-01T08:44:13Z</time></trkpt><trkpt lat="42.36698845763385" lon="14.289832152824873"><ele>33.0</ele><time>2026-05-01T08:44:14Z</time></trkpt><trkpt lat="42.36700952155682" lon="14.289989341677561"><ele>33.0</ele><time>2026-05-01T08:44:15Z</time></trkpt><trkpt lat="42.36702742119014" lon="14.290128364121783"><ele>33.0</ele><time>2026-05-01T08:44:16Z</time></trkpt><trkpt lat="42.36703369569112" lon="14.29028605476225"><ele>33.0</ele><time>2026-05-01T08:44:17Z</time></trkpt><trkpt lat="42.36705784323507" lon="14.290401657530238"><ele>33.0</ele><time>2026-05-01T08:44:18Z</time></trkpt><trkpt lat="42.36707957805083" lon="14.29049549931596"><ele>32.833333333333336</ele><time>2026-05-01T08:44:19Z</time></trkpt><trkpt lat="42.367106576195226" lon="14.290600357472025"><ele>32.666666666666664</ele><time>2026-05-01T08:44:20Z</time></trkpt><trkpt lat="42.36714912747252" lon="14.290688732709302"><ele>32.5</ele><time>2026-05-01T08:44:21Z</time></trkpt><trkpt lat="42.36720350203582" lon="14.290759621664414"><ele>32.33333333333333</ele><time>2026-05-01T08:44:22Z</time></trkpt><trkpt lat="42.36726831222343" lon="14.290849980759871"><ele>32.166666666666664</ele><time>2026-05-01T08:44:23Z</time></trkpt><trkpt lat="42.36734671795395" lon="14.290940345206195"><ele>32.0</ele><time>2026-05-01T08:44:24Z</time></trkpt><trkpt lat="42.36744129974076" lon="14.291035589882036"><ele>32.5</ele><time>2026-05-01T08:44:25Z</time></trkpt><trkpt lat="42.367530387820345" lon="14.291128289381206"><ele>33.0</ele><time>2026-05-01T08:44:25.999Z</time></trkpt><trkpt lat="42.36760163183626" lon="14.291255026198359"><ele>33.5</ele><time>2026-05-01T08:44:26.999Z</time></trkpt><trkpt lat="42.36767285918997" lon="14.291381070637721"><ele>34.0</ele><time>2026-05-01T08:44:27.999Z</time></trkpt><trkpt lat="42.36773229539186" lon="14.291505635893712"><ele>33.2</ele><time>2026-05-01T08:44:28.999Z</time></trkpt><trkpt lat="42.367792071519965" lon="14.291627863985909"><ele>32.4</ele><time>2026-05-01T08:44:29.999Z</time></trkpt><trkpt lat="42.36785188680486" lon="14.291735182329134"><ele>31.6</ele><time>2026-05-01T08:44:30.999Z</time></trkpt><trkpt lat="42.367907953492484" lon="14.291844626060012"><ele>30.8</ele><time>2026-05-01T08:44:31.999Z</time></trkpt><trkpt lat="42.367960654710124" lon="14.291967430900653"><ele>30.0</ele><time>2026-05-01T08:44:32.999Z</time></trkpt><trkpt lat="42.36801005842396" lon="14.292100124393553"><ele>30.0</ele><time>2026-05-01T08:44:33.999Z</time></trkpt><trkpt lat="42.368054387177594" lon="14.29225377659067"><ele>30.0</ele><time>2026-05-01T08:44:34.999Z</time></trkpt><trkpt lat="42.368095711439175" lon="14.292408042302338"><ele>30.0</ele><time>2026-05-01T08:44:35.999Z</time></trkpt><trkpt lat="42.36813351648788" lon="14.292570936980875"><ele>30.0</ele><time>2026-05-01T08:44:36.999Z</time></trkpt><trkpt lat="42.368168631498484" lon="14.292737680748369"><ele>30.0</ele><time>2026-05-01T08:44:37.999Z</time></trkpt><trkpt lat="42.36820426150038" lon="14.292914252020399"><ele>30.0</ele><time>2026-05-01T08:44:39.001Z</time></trkpt><trkpt lat="42.3682432756594" lon="14.293096310129016"><ele>30.0</ele><time>2026-05-01T08:44:40.001Z</time></trkpt><trkpt lat="42.36828562897041" lon="14.29327964623347"><ele>30.0</ele><time>2026-05-01T08:44:41.001Z</time></trkpt><trkpt lat="42.368329876949204" lon="14.29345988072677"><ele>30.0</ele><time>2026-05-01T08:44:42.001Z</time></trkpt><trkpt lat="42.36837235332252" lon="14.293607129397184"><ele>30.0</ele><time>2026-05-01T08:44:43.001Z</time></trkpt><trkpt lat="42.36839862409221" lon="14.293725102522684"><ele>30.0</ele><time>2026-05-01T08:44:44.001Z</time></trkpt><trkpt lat="42.36844456108928" lon="14.2938881391102"><ele>30.0</ele><time>2026-05-01T08:44:46.001Z</time></trkpt><trkpt lat="42.368474606186766" lon="14.293993598737488"><ele>30.0</ele><time>2026-05-01T08:44:47.001Z</time></trkpt><trkpt lat="42.36848450039753" lon="14.294110739303852"><ele>29.75</ele><time>2026-05-01T08:44:48.001Z</time></trkpt><trkpt lat="42.368494349475135" lon="14.294250329770149"><ele>29.5</ele><time>2026-05-01T08:44:49.001Z</time></trkpt><trkpt lat="42.36852558600707" lon="14.294450548436764"><ele>29.25</ele><time>2026-05-01T08:44:50.001Z</time></trkpt><trkpt lat="42.368542713612406" lon="14.294593710872517"><ele>29.0</ele><time>2026-05-01T08:44:51.001Z</time></trkpt><trkpt lat="42.368555545990034" lon="14.294727143482152"><ele>28.999999999999996</ele><time>2026-05-01T08:44:52.001Z</time></trkpt><trkpt lat="42.36855751759874" lon="14.294862648804832"><ele>29.0</ele><time>2026-05-01T08:44:53.001Z</time></trkpt><trkpt lat="42.368544218485056" lon="14.29496785958523"><ele>29.0</ele><time>2026-05-01T08:44:54.001Z</time></trkpt><trkpt lat="42.36852399389572" lon="14.295058921331908"><ele>29.0</ele><time>2026-05-01T08:44:55.001Z</time></trkpt><trkpt lat="42.36851200221386" lon="14.295161405592433"><ele>28.999999999999996</ele><time>2026-05-01T08:44:57.001Z</time></trkpt><trkpt lat="42.3685402249867" lon="14.295255731154123"><ele>29.0</ele><time>2026-05-01T08:45:00.001Z</time></trkpt><trkpt lat="42.368565795751444" lon="14.295357494930801"><ele>29.0</ele><time>2026-05-01T08:45:02Z</time></trkpt><trkpt lat="42.36861774410703" lon="14.29543518706166"><ele>29.0</ele><time>2026-05-01T08:45:03Z</time></trkpt><trkpt lat="42.368671882618344" lon="14.295532849200837"><ele>29.0</ele><time>2026-05-01T08:45:04Z</time></trkpt><trkpt lat="42.36869475497386" lon="14.295642982683372"><ele>29.0</ele><time>2026-05-01T08:45:05Z</time></trkpt><trkpt lat="42.368726812471216" lon="14.295753552820555"><ele>29.0</ele><time>2026-05-01T08:45:06Z</time></trkpt><trkpt lat="42.36878020714413" lon="14.295905709673574"><ele>29.0</ele><time>2026-05-01T08:45:07Z</time></trkpt><trkpt lat="42.368848463671796" lon="14.296076336254457"><ele>29.0</ele><time>2026-05-01T08:45:08Z</time></trkpt><trkpt lat="42.368936983045565" lon="14.296259517323934"><ele>29.0</ele><time>2026-05-01T08:45:09Z</time></trkpt><trkpt lat="42.36902189065503" lon="14.296438933545758"><ele>29.2</ele><time>2026-05-01T08:45:10Z</time></trkpt><trkpt lat="42.36909088201384" lon="14.296572644144852"><ele>29.4</ele><time>2026-05-01T08:45:11Z</time></trkpt><trkpt lat="42.36914453545749" lon="14.296681090117"><ele>29.6</ele><time>2026-05-01T08:45:12Z</time></trkpt><trkpt lat="42.36918821203391" lon="14.296776279520328"><ele>29.8</ele><time>2026-05-01T08:45:13Z</time></trkpt><trkpt lat="42.369219243724835" lon="14.296860689918422"><ele>30.0</ele><time>2026-05-01T08:45:14Z</time></trkpt><trkpt lat="42.369260475064216" lon="14.297007103140032"><ele>30.0</ele><time>2026-05-01T08:45:16Z</time></trkpt><trkpt lat="42.36931539575885" lon="14.297061619596073"><ele>30.0</ele><time>2026-05-01T08:45:35.999Z</time></trkpt><trkpt lat="42.36936327095788" lon="14.297119256858624"><ele>30.0</ele><time>2026-05-01T08:45:36.999Z</time></trkpt><trkpt lat="42.3694127367361" lon="14.297219377147426"><ele>30.0</ele><time>2026-05-01T08:45:37.999Z</time></trkpt><trkpt lat="42.36947004554262" lon="14.2973384746094"><ele>30.0</ele><time>2026-05-01T08:45:38.999Z</time></trkpt><trkpt lat="42.369533829844144" lon="14.297486341269162"><ele>30.0</ele><time>2026-05-01T08:45:39.999Z</time></trkpt><trkpt lat="42.36961067135915" lon="14.297653147535105"><ele>30.0</ele><time>2026-05-01T08:45:40.999Z</time></trkpt><trkpt lat="42.36968281839758" lon="14.297817443712491"><ele>30.0</ele><time>2026-05-01T08:45:41.999Z</time></trkpt><trkpt lat="42.36974109452663" lon="14.297956293666035"><ele>30.0</ele><time>2026-05-01T08:45:42.999Z</time></trkpt><trkpt lat="42.36980505537632" lon="14.298076169553527"><ele>29.8</ele><time>2026-05-01T08:45:43.999Z</time></trkpt><trkpt lat="42.36987524109765" lon="14.298193817154278"><ele>29.6</ele><time>2026-05-01T08:45:44.999Z</time></trkpt><trkpt lat="42.36994628807245" lon="14.298302378953748"><ele>29.4</ele><time>2026-05-01T08:45:45.999Z</time></trkpt><trkpt lat="42.37000582886367" lon="14.298400595386886"><ele>29.2</ele><time>2026-05-01T08:45:46.999Z</time></trkpt><trkpt lat="42.37006597773296" lon="14.29847855791562"><ele>29.0</ele><time>2026-05-01T08:45:47.999Z</time></trkpt><trkpt lat="42.37013053155667" lon="14.298555219561962"><ele>29.0</ele><time>2026-05-01T08:45:48.999Z</time></trkpt><trkpt lat="42.37023753484413" lon="14.298657371868014"><ele>29.0</ele><time>2026-05-01T08:45:49.999Z</time></trkpt><trkpt lat="42.37035024921938" lon="14.29875678966712"><ele>29.0</ele><time>2026-05-01T08:45:50.999Z</time></trkpt><trkpt lat="42.370450619904794" lon="14.29885891858628"><ele>29.0</ele><time>2026-05-01T08:45:51.999Z</time></trkpt><trkpt lat="42.3705523585165" lon="14.29895371926244"><ele>28.6</ele><time>2026-05-01T08:45:52.999Z</time></trkpt><trkpt lat="42.37064806352672" lon="14.299043341415357"><ele>28.2</ele><time>2026-05-01T08:45:53.999Z</time></trkpt><trkpt lat="42.37071844639798" lon="14.299114026249343"><ele>27.800000000000004</ele><time>2026-05-01T08:45:54.999Z</time></trkpt><trkpt lat="42.37078965532473" lon="14.29918232728892"><ele>27.400000000000002</ele><time>2026-05-01T08:45:55.999Z</time></trkpt><trkpt lat="42.370859311681045" lon="14.299257861905259"><ele>27.0</ele><time>2026-05-01T08:45:56.999Z</time></trkpt><trkpt lat="42.37093250558686" lon="14.299326056572532"><ele>27.0</ele><time>2026-05-01T08:45:57.999Z</time></trkpt><trkpt lat="42.37101240521514" lon="14.299380478831495"><ele>27.0</ele><time>2026-05-01T08:45:58.999Z</time></trkpt><trkpt lat="42.3710819363873" lon="14.299424790649134"><ele>27.0</ele><time>2026-05-01T08:45:59.999Z</time></trkpt><trkpt lat="42.371156122127815" lon="14.299453344239648"><ele>27.0</ele><time>2026-05-01T08:46:00.999Z</time></trkpt><trkpt lat="42.37124277121714" lon="14.29947680180158"><ele>27.0</ele><time>2026-05-01T08:46:01.999Z</time></trkpt><trkpt lat="42.371340038784176" lon="14.299477290229795"><ele>27.0</ele><time>2026-05-01T08:46:02.999Z</time></trkpt><trkpt lat="42.37144036738362" lon="14.299475328390871"><ele>26.8</ele><time>2026-05-01T08:46:03.999Z</time></trkpt><trkpt lat="42.37154225130196" lon="14.299456083042061"><ele>26.6</ele><time>2026-05-01T08:46:04.999Z</time></trkpt><trkpt lat="42.371640620818" lon="14.299442429711585"><ele>26.400000000000002</ele><time>2026-05-01T08:46:05.999Z</time></trkpt><trkpt lat="42.37174548182415" lon="14.299441363745178"><ele>26.200000000000003</ele><time>2026-05-01T08:46:06.999Z</time></trkpt><trkpt lat="42.37183876691185" lon="14.299447212252398"><ele>26.0</ele><time>2026-05-01T08:46:07.999Z</time></trkpt><trkpt lat="42.37192321395013" lon="14.299468086032194"><ele>25.999999999999996</ele><time>2026-05-01T08:46:08.999Z</time></trkpt><trkpt lat="42.37198377901441" lon="14.299503674504951"><ele>26.0</ele><time>2026-05-01T08:46:09.999Z</time></trkpt><trkpt lat="42.37210408872951" lon="14.299601168912867"><ele>26.0</ele><time>2026-05-01T08:46:11.999Z</time></trkpt><trkpt lat="42.37216319757681" lon="14.299662836888299"><ele>26.0</ele><time>2026-05-01T08:46:12.999Z</time></trkpt><trkpt lat="42.37219929606472" lon="14.2997349969992"><ele>25.999999999999996</ele><time>2026-05-01T08:46:13.999Z</time></trkpt><trkpt lat="42.37223425802118" lon="14.299828795003505"><ele>26.0</ele><time>2026-05-01T08:46:14.999Z</time></trkpt><trkpt lat="42.37227034295783" lon="14.299916477480467"><ele>25.833333333333332</ele><time>2026-05-01T08:46:15.999Z</time></trkpt><trkpt lat="42.37230179167678" lon="14.300000094975326"><ele>25.666666666666664</ele><time>2026-05-01T08:46:16.999Z</time></trkpt><trkpt lat="42.372351967297945" lon="14.300097357417505"><ele>25.5</ele><time>2026-05-01T08:46:17.999Z</time></trkpt><trkpt lat="42.37239037720288" lon="14.300182225815478"><ele>25.333333333333336</ele><time>2026-05-01T08:46:18.999Z</time></trkpt><trkpt lat="42.37242828318088" lon="14.300274283665823"><ele>25.166666666666668</ele><time>2026-05-01T08:46:19.999Z</time></trkpt><trkpt lat="42.37248147235574" lon="14.300389445759366"><ele>25.0</ele><time>2026-05-01T08:46:20.999Z</time></trkpt><trkpt lat="42.372533258569284" lon="14.300508242159625"><ele>24.6</ele><time>2026-05-01T08:46:21.999Z</time></trkpt><trkpt lat="42.37257771277151" lon="14.30060518831368"><ele>24.2</ele><time>2026-05-01T08:46:22.999Z</time></trkpt><trkpt lat="42.37262175607464" lon="14.30069590338093"><ele>23.799999999999997</ele><time>2026-05-01T08:46:23.999Z</time></trkpt><trkpt lat="42.37267809131279" lon="14.300795917893003"><ele>23.4</ele><time>2026-05-01T08:46:24.999Z</time></trkpt><trkpt lat="42.372753984143245" lon="14.300908066512687"><ele>23.0</ele><time>2026-05-01T08:46:25.999Z</time></trkpt><trkpt lat="42.37283226053032" lon="14.300979546392135"><ele>23.0</ele><time>2026-05-01T08:46:26.999Z</time></trkpt><trkpt lat="42.372927258924115" lon="14.30102425889117"><ele>23.0</ele><time>2026-05-01T08:46:27.999Z</time></trkpt><trkpt lat="42.37301158587714" lon="14.301042537363395"><ele>23.0</ele><time>2026-05-01T08:46:28.999Z</time></trkpt><trkpt lat="42.373080782504665" lon="14.301051213078209"><ele>23.0</ele><time>2026-05-01T08:46:29.999Z</time></trkpt><trkpt lat="42.37316629659996" lon="14.301064042319007"><ele>23.0</ele><time>2026-05-01T08:46:30.999Z</time></trkpt><trkpt lat="42.3732555158363" lon="14.30105658429373"><ele>23.0</ele><time>2026-05-01T08:46:31.999Z</time></trkpt><trkpt lat="42.373353679853125" lon="14.301020693608825"><ele>23.0</ele><time>2026-05-01T08:46:32.999Z</time></trkpt><trkpt lat="42.37344858858098" lon="14.30096613769378"><ele>23.0</ele><time>2026-05-01T08:46:33.999Z</time></trkpt><trkpt lat="42.37354932069699" lon="14.300908652747497"><ele>23.0</ele><time>2026-05-01T08:46:34.999Z</time></trkpt><trkpt lat="42.37365624614498" lon="14.300857323566037"><ele>23.0</ele><time>2026-05-01T08:46:35.999Z</time></trkpt><trkpt lat="42.37373468694672" lon="14.300821205308395"><ele>23.0</ele><time>2026-05-01T08:46:36.999Z</time></trkpt><trkpt lat="42.373803795949264" lon="14.300783941424667"><ele>23.0</ele><time>2026-05-01T08:46:37.999Z</time></trkpt><trkpt lat="42.37388853221629" lon="14.300735258023428"><ele>23.0</ele><time>2026-05-01T08:46:38.999Z</time></trkpt><trkpt lat="42.373989495130495" lon="14.300681971914933"><ele>23.0</ele><time>2026-05-01T08:46:39.999Z</time></trkpt><trkpt lat="42.37408627539352" lon="14.300633243489704"><ele>23.0</ele><time>2026-05-01T08:46:40.999Z</time></trkpt><trkpt lat="42.3741822858854" lon="14.300588211401397"><ele>23.0</ele><time>2026-05-01T08:46:41.999Z</time></trkpt><trkpt lat="42.37428488153736" lon="14.300543974717215"><ele>22.599999999999998</ele><time>2026-05-01T08:46:42.999Z</time></trkpt><trkpt lat="42.374385205342456" lon="14.30049607344764"><ele>22.2</ele><time>2026-05-01T08:46:43.999Z</time></trkpt><trkpt lat="42.37446668525943" lon="14.300466846005111"><ele>21.8</ele><time>2026-05-01T08:46:45Z</time></trkpt><trkpt lat="42.374552299779005" lon="14.30047143019255"><ele>21.4</ele><time>2026-05-01T08:46:46Z</time></trkpt><trkpt lat="42.374646493720384" lon="14.300503791727701"><ele>21.0</ele><time>2026-05-01T08:46:47Z</time></trkpt><trkpt lat="42.37473549023413" lon="14.300562647548286"><ele>21.4</ele><time>2026-05-01T08:46:48Z</time></trkpt><trkpt lat="42.37481086107445" lon="14.300645250678569"><ele>21.8</ele><time>2026-05-01T08:46:49Z</time></trkpt><trkpt lat="42.37487285183774" lon="14.300746213067946"><ele>22.2</ele><time>2026-05-01T08:46:50Z</time></trkpt><trkpt lat="42.374919461191226" lon="14.300864916226669"><ele>22.599999999999998</ele><time>2026-05-01T08:46:51Z</time></trkpt><trkpt lat="42.37494250618073" lon="14.300999595470056"><ele>23.0</ele><time>2026-05-01T08:46:52Z</time></trkpt><trkpt lat="42.37494243258458" lon="14.301161634023012"><ele>23.0</ele><time>2026-05-01T08:46:53Z</time></trkpt><trkpt lat="42.37493001220009" lon="14.301359629582608"><ele>23.0</ele><time>2026-05-01T08:46:54Z</time></trkpt><trkpt lat="42.3749227884413" lon="14.301525615893084"><ele>23.0</ele><time>2026-05-01T08:46:55Z</time></trkpt><trkpt lat="42.37492434141038" lon="14.301646541524502"><ele>23.0</ele><time>2026-05-01T08:46:56Z</time></trkpt><trkpt lat="42.37491983429384" lon="14.301740466992843"><ele>23.0</ele><time>2026-05-01T08:46:57Z</time></trkpt><trkpt lat="42.374910992649234" lon="14.30190946457881"><ele>23.142857142857142</ele><time>2026-05-01T08:46:59Z</time></trkpt><trkpt lat="42.37491312087383" lon="14.30199867120874"><ele>23.285714285714285</ele><time>2026-05-01T08:47:00Z</time></trkpt><trkpt lat="42.3749257632013" lon="14.302105678281123"><ele>23.428571428571427</ele><time>2026-05-01T08:47:01Z</time></trkpt><trkpt lat="42.37493867949222" lon="14.3022189050564"><ele>23.57142857142857</ele><time>2026-05-01T08:47:02Z</time></trkpt><trkpt lat="42.37495289777918" lon="14.302304109678943"><ele>23.714285714285715</ele><time>2026-05-01T08:47:03Z</time></trkpt><trkpt lat="42.374982931348875" lon="14.302393829836246"><ele>23.857142857142854</ele><time>2026-05-01T08:47:04Z</time></trkpt><trkpt lat="42.37502116267124" lon="14.302474957253501"><ele>24.0</ele><time>2026-05-01T08:47:05Z</time></trkpt><trkpt lat="42.37507558649232" lon="14.302560834469665"><ele>24.0</ele><time>2026-05-01T08:47:06Z</time></trkpt><trkpt lat="42.37513272432096" lon="14.302653765748758"><ele>24.0</ele><time>2026-05-01T08:47:07Z</time></trkpt><trkpt lat="42.37519641088254" lon="14.302732020768671"><ele>24.0</ele><time>2026-05-01T08:47:08Z</time></trkpt><trkpt lat="42.37526284044326" lon="14.302801254527461"><ele>24.0</ele><time>2026-05-01T08:47:09Z</time></trkpt><trkpt lat="42.37532664451589" lon="14.302857310429786"><ele>24.0</ele><time>2026-05-01T08:47:10Z</time></trkpt><trkpt lat="42.37540088477892" lon="14.302905024238788"><ele>24.0</ele><time>2026-05-01T08:47:11Z</time></trkpt><trkpt lat="42.37547131736348" lon="14.30294373800037"><ele>23.6</ele><time>2026-05-01T08:47:12Z</time></trkpt><trkpt lat="42.37554395681818" lon="14.302970768281826"><ele>23.2</ele><time>2026-05-01T08:47:13Z</time></trkpt><trkpt lat="42.375645268358184" lon="14.30305244613218"><ele>22.8</ele><time>2026-05-01T08:47:14Z</time></trkpt><trkpt lat="42.37573990342338" lon="14.303116086444211"><ele>22.400000000000002</ele><time>2026-05-01T08:47:15Z</time></trkpt><trkpt lat="42.375831054075064" lon="14.30317827493231"><ele>22.0</ele><time>2026-05-01T08:47:16Z</time></trkpt><trkpt lat="42.37591161190692" lon="14.30323620593798"><ele>22.0</ele><time>2026-05-01T08:47:16.999Z</time></trkpt><trkpt lat="42.3759914474343" lon="14.303303200831559"><ele>22.0</ele><time>2026-05-01T08:47:17.999Z</time></trkpt><trkpt lat="42.376065825368336" lon="14.303375147612371"><ele>22.0</ele><time>2026-05-01T08:47:18.999Z</time></trkpt><trkpt lat="42.37612912814383" lon="14.303430921777874"><ele>22.0</ele><time>2026-05-01T08:47:19.999Z</time></trkpt><trkpt lat="42.37623374708514" lon="14.30338777837749"><ele>22.0</ele><time>2026-05-01T08:47:21.999Z</time></trkpt><trkpt lat="42.37628191938837" lon="14.303225182542633"><ele>22.0</ele><time>2026-05-01T08:47:23.999Z</time></trkpt><trkpt lat="42.376293734031385" lon="14.303102055180602"><ele>22.0</ele><time>2026-05-01T08:47:24.999Z</time></trkpt><trkpt lat="42.37629928102454" lon="14.302980635275338"><ele>22.0</ele><time>2026-05-01T08:47:25.999Z</time></trkpt><trkpt lat="42.376307357331044" lon="14.302876703469105"><ele>22.0</ele><time>2026-05-01T08:47:26.999Z</time></trkpt><trkpt lat="42.37632221673124" lon="14.302746198693706"><ele>22.0</ele><time>2026-05-01T08:47:28.999Z</time></trkpt><trkpt lat="42.37624261870953" lon="14.302665786817085"><ele>21.8</ele><time>2026-05-01T08:47:30.999Z</time></trkpt><trkpt lat="42.37615702655612" lon="14.302656539864316"><ele>21.6</ele><time>2026-05-01T08:47:31.999Z</time></trkpt><trkpt lat="42.37602374104322" lon="14.30265315148525"><ele>21.400000000000002</ele><time>2026-05-01T08:47:32.999Z</time></trkpt><trkpt lat="42.375901442183036" lon="14.302661100917046"><ele>21.200000000000003</ele><time>2026-05-01T08:47:33.999Z</time></trkpt><trkpt lat="42.37582613273751" lon="14.302577420670637"><ele>21.0</ele><time>2026-05-01T08:47:36.999Z</time></trkpt><trkpt lat="42.37584169156844" lon="14.302380183670973"><ele>22.0</ele><time>2026-05-01T08:47:38.999Z</time></trkpt><trkpt lat="42.375871469883265" lon="14.302214191599536"><ele>23.0</ele><time>2026-05-01T08:47:39.999Z</time></trkpt><trkpt lat="42.375906147684745" lon="14.302043697953343"><ele>24.0</ele><time>2026-05-01T08:47:40.999Z</time></trkpt><trkpt lat="42.37590214536789" lon="14.301877413588922"><ele>25.0</ele><time>2026-05-01T08:47:41.999Z</time></trkpt><trkpt lat="42.37596321186097" lon="14.30175514583124"><ele>25.0</ele><time>2026-05-01T08:47:42.999Z</time></trkpt><trkpt lat="42.37601185076859" lon="14.301609194507332"><ele>25.0</ele><time>2026-05-01T08:47:43.999Z</time></trkpt><trkpt lat="42.37607137697759" lon="14.30146147009659"><ele>25.0</ele><time>2026-05-01T08:47:44.999Z</time></trkpt><trkpt lat="42.37612941809159" lon="14.301316297146856"><ele>25.0</ele><time>2026-05-01T08:47:45.999Z</time></trkpt><trkpt lat="42.37618790578239" lon="14.301166234171495"><ele>26.0</ele><time>2026-05-01T08:47:46.999Z</time></trkpt><trkpt lat="42.37624286239445" lon="14.301011065171249"><ele>27.0</ele><time>2026-05-01T08:47:47.999Z</time></trkpt><trkpt lat="42.37629396724469" lon="14.300860735140203"><ele>28.0</ele><time>2026-05-01T08:47:48.999Z</time></trkpt><trkpt lat="42.37634321439141" lon="14.30072365398692"><ele>29.0</ele><time>2026-05-01T08:47:49.999Z</time></trkpt><trkpt lat="42.37639077892422" lon="14.300603599528191"><ele>30.0</ele><time>2026-05-01T08:47:50.999Z</time></trkpt><trkpt lat="42.3764304161121" lon="14.300501903392476"><ele>31.0</ele><time>2026-05-01T08:47:51.999Z</time></trkpt><trkpt lat="42.37646301824625" lon="14.300408961383209"><ele>32.0</ele><time>2026-05-01T08:47:52.999Z</time></trkpt><trkpt lat="42.37649838521355" lon="14.300319877890368"><ele>33.0</ele><time>2026-05-01T08:47:54.999Z</time></trkpt><trkpt lat="42.376701603185516" lon="14.300488057516864"><ele>32.333333333333336</ele><time>2026-05-01T08:47:58.999Z</time></trkpt><trkpt lat="42.376810086191924" lon="14.300641072502374"><ele>31.666666666666668</ele><time>2026-05-01T08:47:59.999Z</time></trkpt><trkpt lat="42.37693351822986" lon="14.300783495799639"><ele>31.0</ele><time>2026-05-01T08:48:00.999Z</time></trkpt><trkpt lat="42.37708804616884" lon="14.300912107225075"><ele>30.666666666666668</ele><time>2026-05-01T08:48:01.999Z</time></trkpt><trkpt lat="42.377264114800035" lon="14.301013857341182"><ele>30.333333333333336</ele><time>2026-05-01T08:48:02.999Z</time></trkpt><trkpt lat="42.37746411320175" lon="14.301108809100667"><ele>30.0</ele><time>2026-05-01T08:48:03.999Z</time></trkpt><trkpt lat="42.37767202718075" lon="14.30117986042036"><ele>30.0</ele><time>2026-05-01T08:48:04.999Z</time></trkpt><trkpt lat="42.37789344270773" lon="14.301236216938511"><ele>30.0</ele><time>2026-05-01T08:48:05.999Z</time></trkpt><trkpt lat="42.37810096551861" lon="14.301299408443285"><ele>30.0</ele><time>2026-05-01T08:48:06.999Z</time></trkpt><trkpt lat="42.37831290819447" lon="14.301367149329156"><ele>29.0</ele><time>2026-05-01T08:48:07.999Z</time></trkpt><trkpt lat="42.37852489145752" lon="14.301429079835868"><ele>28.0</ele><time>2026-05-01T08:48:08.999Z</time></trkpt><trkpt lat="42.37872750686556" lon="14.301491400641835"><ele>27.0</ele><time>2026-05-01T08:48:09.999Z</time></trkpt><trkpt lat="42.37893129901188" lon="14.301550680213248"><ele>26.666666666666664</ele><time>2026-05-01T08:48:10.999Z</time></trkpt><trkpt lat="42.3791401204724" lon="14.301612818687921"><ele>26.333333333333332</ele><time>2026-05-01T08:48:11.999Z</time></trkpt><trkpt lat="42.37935268152768" lon="14.301677393247774"><ele>26.0</ele><time>2026-05-01T08:48:12.999Z</time></trkpt><trkpt lat="42.37955804994678" lon="14.301741105219138"><ele>26.0</ele><time>2026-05-01T08:48:13.999Z</time></trkpt><trkpt lat="42.379749066741326" lon="14.301795473375764"><ele>26.0</ele><time>2026-05-01T08:48:14.999Z</time></trkpt><trkpt lat="42.37992443108527" lon="14.301845476792733"><ele>26.0</ele><time>2026-05-01T08:48:15.999Z</time></trkpt><trkpt lat="42.38010415844249" lon="14.301895053352453"><ele>26.0</ele><time>2026-05-01T08:48:16.999Z</time></trkpt><trkpt lat="42.38029388786242" lon="14.301955469043968"><ele>26.0</ele><time>2026-05-01T08:48:17.999Z</time></trkpt><trkpt lat="42.380486673990795" lon="14.302014491260906"><ele>26.0</ele><time>2026-05-01T08:48:18.999Z</time></trkpt><trkpt lat="42.380676204147775" lon="14.302070631745725"><ele>25.666666666666664</ele><time>2026-05-01T08:48:19.999Z</time></trkpt><trkpt lat="42.38085609203281" lon="14.302127989403507"><ele>25.333333333333336</ele><time>2026-05-01T08:48:20.999Z</time></trkpt><trkpt lat="42.381028179529686" lon="14.302190102421324"><ele>25.0</ele><time>2026-05-01T08:48:21.999Z</time></trkpt><trkpt lat="42.38120231097791" lon="14.302244445345618"><ele>24.0</ele><time>2026-05-01T08:48:22.999Z</time></trkpt><trkpt lat="42.38137860979487" lon="14.302312157926782"><ele>23.0</ele><time>2026-05-01T08:48:23.999Z</time></trkpt><trkpt lat="42.381543691029336" lon="14.30238210365336"><ele>22.0</ele><time>2026-05-01T08:48:24.999Z</time></trkpt><trkpt lat="42.381693589246325" lon="14.302452284925264"><ele>22.0</ele><time>2026-05-01T08:48:25.999Z</time></trkpt><trkpt lat="42.38183305017523" lon="14.302527646689574"><ele>22.0</ele><time>2026-05-01T08:48:26.999Z</time></trkpt><trkpt lat="42.3819525054576" lon="14.302597406604905"><ele>22.0</ele><time>2026-05-01T08:48:27.999Z</time></trkpt><trkpt lat="42.382055772472704" lon="14.302662770668212"><ele>22.0</ele><time>2026-05-01T08:48:28.999Z</time></trkpt><trkpt lat="42.38216309884765" lon="14.302742686705788"><ele>22.0</ele><time>2026-05-01T08:48:29.999Z</time></trkpt><trkpt lat="42.38227653810986" lon="14.302827675095216"><ele>22.0</ele><time>2026-05-01T08:48:30.999Z</time></trkpt><trkpt lat="42.38237658508774" lon="14.302906241494458"><ele>22.0</ele><time>2026-05-01T08:48:31.999Z</time></trkpt><trkpt lat="42.38246556199575" lon="14.302977880125336"><ele>22.0</ele><time>2026-05-01T08:48:32.999Z</time></trkpt><trkpt lat="42.38251047895756" lon="14.303053715858402"><ele>22.0</ele><time>2026-05-01T08:48:33.999Z</time></trkpt><trkpt lat="42.38251238397412" lon="14.303288943264842"><ele>22.0</ele><time>2026-05-01T08:48:35.999Z</time></trkpt><trkpt lat="42.382501492389814" lon="14.303459683725015"><ele>22.0</ele><time>2026-05-01T08:48:36.999Z</time></trkpt><trkpt lat="42.38246419152625" lon="14.303645674539784"><ele>22.0</ele><time>2026-05-01T08:48:37.999Z</time></trkpt><trkpt lat="42.382426321034366" lon="14.303867793923217"><ele>22.0</ele><time>2026-05-01T08:48:38.999Z</time></trkpt><trkpt lat="42.38239226422352" lon="14.304093268463282"><ele>21.666666666666664</ele><time>2026-05-01T08:48:39.999Z</time></trkpt><trkpt lat="42.382364935815495" lon="14.304330479658454"><ele>21.333333333333332</ele><time>2026-05-01T08:48:40.999Z</time></trkpt><trkpt lat="42.38233998241566" lon="14.304586156244167"><ele>21.0</ele><time>2026-05-01T08:48:41.999Z</time></trkpt><trkpt lat="42.382316090815955" lon="14.304843658182229"><ele>20.333333333333332</ele><time>2026-05-01T08:48:42.999Z</time></trkpt><trkpt lat="42.3822882992742" lon="14.305100131419298"><ele>19.666666666666664</ele><time>2026-05-01T08:48:43.999Z</time></trkpt><trkpt lat="42.38226327088185" lon="14.305337545975169"><ele>19.0</ele><time>2026-05-01T08:48:44.999Z</time></trkpt><trkpt lat="42.38222961367817" lon="14.305555206922502"><ele>19.0</ele><time>2026-05-01T08:48:45.999Z</time></trkpt><trkpt lat="42.38219647833976" lon="14.305761699978882"><ele>19.0</ele><time>2026-05-01T08:48:46.999Z</time></trkpt><trkpt lat="42.38216512431135" lon="14.3059459460165"><ele>19.0</ele><time>2026-05-01T08:48:47.999Z</time></trkpt><trkpt lat="42.38213597166165" lon="14.30609305613599"><ele>19.0</ele><time>2026-05-01T08:48:48.999Z</time></trkpt><trkpt lat="42.38210827383987" lon="14.306207658053545"><ele>18.75</ele><time>2026-05-01T08:48:49.999Z</time></trkpt><trkpt lat="42.382078065574646" lon="14.306290332569409"><ele>18.5</ele><time>2026-05-01T08:48:51Z</time></trkpt><trkpt lat="42.38203336212264" lon="14.306395201222768"><ele>18.25</ele><time>2026-05-01T08:48:53Z</time></trkpt><trkpt lat="42.382169492411855" lon="14.306618897528821"><ele>18.0</ele><time>2026-05-01T08:48:55Z</time></trkpt><trkpt lat="42.38227175253285" lon="14.306748011100767"><ele>17.666666666666668</ele><time>2026-05-01T08:48:56Z</time></trkpt><trkpt lat="42.38234608224864" lon="14.306912113815576"><ele>17.333333333333336</ele><time>2026-05-01T08:48:57Z</time></trkpt><trkpt lat="42.3824374315772" lon="14.307084654403733"><ele>17.0</ele><time>2026-05-01T08:48:58Z</time></trkpt><trkpt lat="42.38250966964728" lon="14.30727794168385"><ele>16.666666666666668</ele><time>2026-05-01T08:48:59Z</time></trkpt><trkpt lat="42.38259782137522" lon="14.307492191342254"><ele>16.333333333333332</ele><time>2026-05-01T08:49:00Z</time></trkpt><trkpt lat="42.38269671156684" lon="14.307694688431233"><ele>16.0</ele><time>2026-05-01T08:49:01Z</time></trkpt><trkpt lat="42.38278708159005" lon="14.307898757895867"><ele>16.0</ele><time>2026-05-01T08:49:02Z</time></trkpt><trkpt lat="42.38288112825657" lon="14.308099404994719"><ele>16.0</ele><time>2026-05-01T08:49:03Z</time></trkpt><trkpt lat="42.38297617879456" lon="14.308307564294223"><ele>16.0</ele><time>2026-05-01T08:49:04Z</time></trkpt><trkpt lat="42.383068378586934" lon="14.308510749186683"><ele>16.0</ele><time>2026-05-01T08:49:05Z</time></trkpt><trkpt lat="42.38316239348303" lon="14.308718336554636"><ele>16.0</ele><time>2026-05-01T08:49:06Z</time></trkpt><trkpt lat="42.383254277489655" lon="14.308926513380882"><ele>16.0</ele><time>2026-05-01T08:49:07Z</time></trkpt><trkpt lat="42.38334741766505" lon="14.309129138081484"><ele>15.333333333333332</ele><time>2026-05-01T08:49:08Z</time></trkpt><trkpt lat="42.38343789740391" lon="14.309329426980728"><ele>14.666666666666668</ele><time>2026-05-01T08:49:09Z</time></trkpt><trkpt lat="42.38352725030748" lon="14.309527171388183"><ele>14.0</ele><time>2026-05-01T08:49:10Z</time></trkpt><trkpt lat="42.383609338713036" lon="14.309710403941722"><ele>14.0</ele><time>2026-05-01T08:49:11Z</time></trkpt><trkpt lat="42.38368869444247" lon="14.309891310334157"><ele>14.0</ele><time>2026-05-01T08:49:12Z</time></trkpt><trkpt lat="42.38376789398982" lon="14.310064322016395"><ele>14.0</ele><time>2026-05-01T08:49:13Z</time></trkpt><trkpt lat="42.38385183792745" lon="14.310240914312226"><ele>14.25</ele><time>2026-05-01T08:49:14Z</time></trkpt><trkpt lat="42.38392966567618" lon="14.310415202976314"><ele>14.5</ele><time>2026-05-01T08:49:15Z</time></trkpt><trkpt lat="42.38401892933413" lon="14.310564789817601"><ele>14.75</ele><time>2026-05-01T08:49:16Z</time></trkpt><trkpt lat="42.38412600309813" lon="14.310696451126976"><ele>15.0</ele><time>2026-05-01T08:49:17Z</time></trkpt><trkpt lat="42.38426788925884" lon="14.310813529314665"><ele>15.0</ele><time>2026-05-01T08:49:18Z</time></trkpt><trkpt lat="42.38443621762156" lon="14.310907768990761"><ele>15.0</ele><time>2026-05-01T08:49:19Z</time></trkpt><trkpt lat="42.38461392211886" lon="14.310989713085897"><ele>15.0</ele><time>2026-05-01T08:49:19.999Z</time></trkpt><trkpt lat="42.38477658339755" lon="14.31106293768625"><ele>14.666666666666668</ele><time>2026-05-01T08:49:20.999Z</time></trkpt><trkpt lat="42.384917264292284" lon="14.31113479471814"><ele>14.333333333333334</ele><time>2026-05-01T08:49:21.999Z</time></trkpt><trkpt lat="42.385052714377835" lon="14.31121156112511"><ele>14.0</ele><time>2026-05-01T08:49:22.999Z</time></trkpt><trkpt lat="42.385196991351684" lon="14.311286952868139"><ele>14.0</ele><time>2026-05-01T08:49:23.999Z</time></trkpt><trkpt lat="42.38534959874405" lon="14.311363566329113"><ele>14.0</ele><time>2026-05-01T08:49:24.999Z</time></trkpt><trkpt lat="42.38547716482269" lon="14.311430654975748"><ele>14.0</ele><time>2026-05-01T08:49:25.999Z</time></trkpt><trkpt lat="42.38557035729013" lon="14.311482782676835"><ele>14.0</ele><time>2026-05-01T08:49:26.999Z</time></trkpt><trkpt lat="42.38567791243573" lon="14.31153772615633"><ele>14.0</ele><time>2026-05-01T08:49:28.999Z</time></trkpt><trkpt lat="42.38582456228831" lon="14.311612248107005"><ele>13.999999999999998</ele><time>2026-05-01T08:49:30.999Z</time></trkpt><trkpt lat="42.38592509525968" lon="14.311668925349688"><ele>13.999999999999998</ele><time>2026-05-01T08:49:31.999Z</time></trkpt><trkpt lat="42.38600888382865" lon="14.311714453830389"><ele>14.0</ele><time>2026-05-01T08:49:32.999Z</time></trkpt><trkpt lat="42.386074572913394" lon="14.311749225804805"><ele>14.0</ele><time>2026-05-01T08:49:33.999Z</time></trkpt><trkpt lat="42.38619124993738" lon="14.311810492226439"><ele>14.0</ele><time>2026-05-01T08:49:35.999Z</time></trkpt><trkpt lat="42.38630895672568" lon="14.31187150913616"><ele>13.999999999999998</ele><time>2026-05-01T08:49:37.999Z</time></trkpt><trkpt lat="42.38641194306945" lon="14.31192165737377"><ele>13.999999999999998</ele><time>2026-05-01T08:49:39.999Z</time></trkpt><trkpt lat="42.386462197944255" lon="14.3119745246157"><ele>14.0</ele><time>2026-05-01T08:49:41.999Z</time></trkpt><trkpt lat="42.38643826200418" lon="14.312076998391417"><ele>14.0</ele><time>2026-05-01T08:49:42.999Z</time></trkpt><trkpt lat="42.38640330333154" lon="14.312192445848773"><ele>14.0</ele><time>2026-05-01T08:49:43.999Z</time></trkpt><trkpt lat="42.38636880434938" lon="14.312341441598713"><ele>14.0</ele><time>2026-05-01T08:49:44.999Z</time></trkpt><trkpt lat="42.38633864858264" lon="14.312483807497443"><ele>14.0</ele><time>2026-05-01T08:49:45.999Z</time></trkpt><trkpt lat="42.38631147950467" lon="14.312616133437466"><ele>14.0</ele><time>2026-05-01T08:49:46.999Z</time></trkpt><trkpt lat="42.38627375991652" lon="14.312777010575733"><ele>13.666666666666668</ele><time>2026-05-01T08:49:47.999Z</time></trkpt><trkpt lat="42.38622545723563" lon="14.312979544822067"><ele>13.333333333333332</ele><time>2026-05-01T08:49:48.999Z</time></trkpt><trkpt lat="42.386167922538746" lon="14.313213171379553"><ele>13.0</ele><time>2026-05-01T08:49:49.999Z</time></trkpt><trkpt lat="42.38611095074708" lon="14.313446589218586"><ele>13.0</ele><time>2026-05-01T08:49:50.999Z</time></trkpt><trkpt lat="42.38605434788677" lon="14.313688884572874"><ele>13.0</ele><time>2026-05-01T08:49:51.999Z</time></trkpt><trkpt lat="42.38600150251167" lon="14.313927342274102"><ele>13.0</ele><time>2026-05-01T08:49:52.999Z</time></trkpt><trkpt lat="42.385950246403404" lon="14.314150571661369"><ele>13.0</ele><time>2026-05-01T08:49:53.999Z</time></trkpt><trkpt lat="42.38590718849412" lon="14.31433436409259"><ele>13.0</ele><time>2026-05-01T08:49:54.999Z</time></trkpt><trkpt lat="42.385865628750075" lon="14.314516048189091"><ele>13.0</ele><time>2026-05-01T08:49:55.999Z</time></trkpt><trkpt lat="42.385820060363535" lon="14.314712085924894"><ele>13.0</ele><time>2026-05-01T08:49:56.999Z</time></trkpt><trkpt lat="42.385768500237674" lon="14.31494343272838"><ele>12.0</ele><time>2026-05-01T08:49:57.999Z</time></trkpt><trkpt lat="42.38571312689659" lon="14.315180963118669"><ele>11.0</ele><time>2026-05-01T08:49:58.999Z</time></trkpt><trkpt lat="42.38566357263759" lon="14.31538593917974"><ele>10.0</ele><time>2026-05-01T08:49:59.999Z</time></trkpt><trkpt lat="42.385622830744026" lon="14.315571256337233"><ele>9.6</ele><time>2026-05-01T08:50:00.999Z</time></trkpt><trkpt lat="42.38559075528104" lon="14.315716041652161"><ele>9.2</ele><time>2026-05-01T08:50:01.999Z</time></trkpt><trkpt lat="42.38555654000164" lon="14.315836563247975"><ele>8.8</ele><time>2026-05-01T08:50:02.999Z</time></trkpt><trkpt lat="42.38554436271072" lon="14.315948176685728"><ele>8.4</ele><time>2026-05-01T08:50:03.999Z</time></trkpt><trkpt lat="42.38556686835877" lon="14.316067234689283"><ele>8.0</ele><time>2026-05-01T08:50:06.999Z</time></trkpt><trkpt lat="42.38564762281801" lon="14.316151469877884"><ele>7.999999999999999</ele><time>2026-05-01T08:50:09.999Z</time></trkpt><trkpt lat="42.38574271419622" lon="14.316191120215228"><ele>8.0</ele><time>2026-05-01T08:50:10.999Z</time></trkpt><trkpt lat="42.3858658826895" lon="14.316259311250407"><ele>8.0</ele><time>2026-05-01T08:50:11.999Z</time></trkpt><trkpt lat="42.3859454776502" lon="14.316300787671883"><ele>8.0</ele><time>2026-05-01T08:50:12.999Z</time></trkpt><trkpt lat="42.38596733471846" lon="14.316385053200646"><ele>7.999999999999999</ele><time>2026-05-01T08:50:14.999Z</time></trkpt><trkpt lat="42.385936324569364" lon="14.31646011031316"><ele>8.0</ele><time>2026-05-01T08:50:15.999Z</time></trkpt><trkpt lat="42.38588145554453" lon="14.316595073556424"><ele>7.666666666666666</ele><time>2026-05-01T08:50:16.999Z</time></trkpt><trkpt lat="42.385821754289864" lon="14.316781169769282"><ele>7.333333333333334</ele><time>2026-05-01T08:50:17.999Z</time></trkpt><trkpt lat="42.385759979016925" lon="14.316984497977089"><ele>7.0</ele><time>2026-05-01T08:50:18.999Z</time></trkpt><trkpt lat="42.38569807554109" lon="14.317166637977927"><ele>7.199999999999999</ele><time>2026-05-01T08:50:19.999Z</time></trkpt><trkpt lat="42.38564728933024" lon="14.317317995862172"><ele>7.3999999999999995</ele><time>2026-05-01T08:50:20.999Z</time></trkpt><trkpt lat="42.38559810499624" lon="14.317446564155833"><ele>7.6000000000000005</ele><time>2026-05-01T08:50:21.999Z</time></trkpt><trkpt lat="42.38555210930505" lon="14.31755974646661"><ele>7.800000000000001</ele><time>2026-05-01T08:50:22.999Z</time></trkpt><trkpt lat="42.385519756817246" lon="14.317667578635279"><ele>8.0</ele><time>2026-05-01T08:50:23.999Z</time></trkpt><trkpt lat="42.385496019552775" lon="14.317784124253167"><ele>7.999999999999999</ele><time>2026-05-01T08:50:24.999Z</time></trkpt><trkpt lat="42.385448511398785" lon="14.317902455565996"><ele>8.0</ele><time>2026-05-01T08:50:25.999Z</time></trkpt><trkpt lat="42.38540537653023" lon="14.317997180022875"><ele>8.0</ele><time>2026-05-01T08:50:26.999Z</time></trkpt><trkpt lat="42.38537794140355" lon="14.318077122321927"><ele>8.0</ele><time>2026-05-01T08:50:27.999Z</time></trkpt><trkpt lat="42.38535278710241" lon="14.31819212616684"><ele>7.999999999999999</ele><time>2026-05-01T08:50:28.999Z</time></trkpt><trkpt lat="42.3853192165137" lon="14.31829317840345"><ele>8.0</ele><time>2026-05-01T08:50:29.999Z</time></trkpt><trkpt lat="42.385337151222416" lon="14.318396771655651"><ele>8.4</ele><time>2026-05-01T08:50:31.999Z</time></trkpt><trkpt lat="42.385423041559804" lon="14.318401258298813"><ele>8.8</ele><time>2026-05-01T08:50:33.999Z</time></trkpt><trkpt lat="42.38551456790057" lon="14.318389191313255"><ele>9.2</ele><time>2026-05-01T08:50:34.999Z</time></trkpt><trkpt lat="42.38562857712035" lon="14.318346138659768"><ele>9.6</ele><time>2026-05-01T08:50:35.999Z</time></trkpt><trkpt lat="42.385760543380265" lon="14.318267126887482"><ele>10.0</ele><time>2026-05-01T08:50:36.999Z</time></trkpt><trkpt lat="42.385899139402646" lon="14.3181781997119"><ele>10.0</ele><time>2026-05-01T08:50:37.999Z</time></trkpt><trkpt lat="42.38601844484313" lon="14.318158318678723"><ele>10.0</ele><time>2026-05-01T08:50:38.999Z</time></trkpt><trkpt lat="42.38613753624431" lon="14.318132532170265"><ele>10.0</ele><time>2026-05-01T08:50:39.999Z</time></trkpt><trkpt lat="42.38626448024383" lon="14.318121568091453"><ele>10.0</ele><time>2026-05-01T08:50:40.999Z</time></trkpt><trkpt lat="42.386428291090176" lon="14.318073888018617"><ele>9.6</ele><time>2026-05-01T08:50:41.999Z</time></trkpt><trkpt lat="42.38658642623495" lon="14.318016002586926"><ele>9.2</ele><time>2026-05-01T08:50:42.999Z</time></trkpt><trkpt lat="42.386696544681634" lon="14.317968875854453"><ele>8.8</ele><time>2026-05-01T08:50:43.999Z</time></trkpt><trkpt lat="42.386782291842906" lon="14.317967412340078"><ele>8.4</ele><time>2026-05-01T08:50:44.999Z</time></trkpt><trkpt lat="42.38684815467732" lon="14.318007358208655"><ele>8.0</ele><time>2026-05-01T08:50:45.999Z</time></trkpt><trkpt lat="42.386931392054244" lon="14.318055996513209"><ele>8.666666666666666</ele><time>2026-05-01T08:50:47.999Z</time></trkpt><trkpt lat="42.38682613929758" lon="14.318301802444966"><ele>9.333333333333334</ele><time>2026-05-01T08:50:50.999Z</time></trkpt><trkpt lat="42.38678425237013" lon="14.318474063690283"><ele>10.0</ele><time>2026-05-01T08:50:51.999Z</time></trkpt><trkpt lat="42.38673596514092" lon="14.318659655191253"><ele>10.0</ele><time>2026-05-01T08:50:52.999Z</time></trkpt><trkpt lat="42.386704213799916" lon="14.318779484121118"><ele>10.0</ele><time>2026-05-01T08:50:53.999Z</time></trkpt><trkpt lat="42.38667980554423" lon="14.318870682602098"><ele>10.0</ele><time>2026-05-01T08:50:54.999Z</time></trkpt><trkpt lat="42.38663461080301" lon="14.319039330818873"><ele>10.0</ele><time>2026-05-01T08:50:57Z</time></trkpt><trkpt lat="42.38660911748861" lon="14.319134462592412"><ele>10.0</ele><time>2026-05-01T08:50:58Z</time></trkpt><trkpt lat="42.386602119948904" lon="14.318854990142038"><ele>10.0</ele><time>2026-05-01T08:51:02Z</time></trkpt><trkpt lat="42.38639607541571" lon="14.318694960741635"><ele>10.0</ele><time>2026-05-01T08:51:03Z</time></trkpt><trkpt lat="42.38619562626747" lon="14.318682230045649"><ele>10.0</ele><time>2026-05-01T08:51:04Z</time></trkpt><trkpt lat="42.386040287009024" lon="14.318719663389992"><ele>10.0</ele><time>2026-05-01T08:51:05Z</time></trkpt><trkpt lat="42.385888813083334" lon="14.318797443780758"><ele>10.0</ele><time>2026-05-01T08:51:06Z</time></trkpt><trkpt lat="42.385758018405774" lon="14.318853183466246"><ele>10.0</ele><time>2026-05-01T08:51:07Z</time></trkpt><trkpt lat="42.38561764910843" lon="14.31889925031278"><ele>10.0</ele><time>2026-05-01T08:51:08Z</time></trkpt><trkpt lat="42.385476583926696" lon="14.31893219860066"><ele>10.0</ele><time>2026-05-01T08:51:09Z</time></trkpt><trkpt lat="42.38535222441427" lon="14.318942364706201"><ele>10.0</ele><time>2026-05-01T08:51:10Z</time></trkpt><trkpt lat="42.385226021106824" lon="14.31893188444297"><ele>10.0</ele><time>2026-05-01T08:51:11Z</time></trkpt><trkpt lat="42.38511667680031" lon="14.318907557038452"><ele>10.0</ele><time>2026-05-01T08:51:12Z</time></trkpt><trkpt lat="42.384995242050664" lon="14.318864494502785"><ele>10.0</ele><time>2026-05-01T08:51:13Z</time></trkpt><trkpt lat="42.38487965924736" lon="14.318803109825563"><ele>10.0</ele><time>2026-05-01T08:51:14Z</time></trkpt><trkpt lat="42.38476353318435" lon="14.318727933946034"><ele>10.0</ele><time>2026-05-01T08:51:15Z</time></trkpt><trkpt lat="42.38465909650225" lon="14.318644241105106"><ele>10.0</ele><time>2026-05-01T08:51:16Z</time></trkpt><trkpt lat="42.38457727023822" lon="14.318567170184723"><ele>10.0</ele><time>2026-05-01T08:51:17Z</time></trkpt><trkpt lat="42.384498838890835" lon="14.31848208623061"><ele>10.0</ele><time>2026-05-01T08:51:18Z</time></trkpt><trkpt lat="42.384435751670246" lon="14.318388232546846"><ele>10.0</ele><time>2026-05-01T08:51:19Z</time></trkpt><trkpt lat="42.38434925743225" lon="14.318239697021493"><ele>10.0</ele><time>2026-05-01T08:51:20Z</time></trkpt><trkpt lat="42.384267341581506" lon="14.318067780493502"><ele>10.0</ele><time>2026-05-01T08:51:21Z</time></trkpt><trkpt lat="42.3841968555702" lon="14.317888576450587"><ele>10.0</ele><time>2026-05-01T08:51:22Z</time></trkpt><trkpt lat="42.38415011968147" lon="14.317732181432033"><ele>10.0</ele><time>2026-05-01T08:51:23Z</time></trkpt><trkpt lat="42.38412411083295" lon="14.317599334127625"><ele>10.0</ele><time>2026-05-01T08:51:24Z</time></trkpt><trkpt lat="42.384102276014566" lon="14.317437175704823"><ele>10.0</ele><time>2026-05-01T08:51:25Z</time></trkpt><trkpt lat="42.384094509926435" lon="14.317262227411735"><ele>10.0</ele><time>2026-05-01T08:51:26Z</time></trkpt><trkpt lat="42.38410289683764" lon="14.31706844098986"><ele>10.0</ele><time>2026-05-01T08:51:27Z</time></trkpt><trkpt lat="42.38411610842544" lon="14.316855024937908"><ele>10.0</ele><time>2026-05-01T08:51:28Z</time></trkpt><trkpt lat="42.38412536076248" lon="14.316673500685226"><ele>10.0</ele><time>2026-05-01T08:51:29Z</time></trkpt><trkpt lat="42.38411749519147" lon="14.316481215776149"><ele>10.0</ele><time>2026-05-01T08:51:30Z</time></trkpt><trkpt lat="42.38409834837373" lon="14.316331948392003"><ele>10.0</ele><time>2026-05-01T08:51:31Z</time></trkpt><trkpt lat="42.38407300476326" lon="14.316197434330595"><ele>10.0</ele><time>2026-05-01T08:51:31.999Z</time></trkpt><trkpt lat="42.38401925890464" lon="14.31601927730811"><ele>10.0</ele><time>2026-05-01T08:51:32.999Z</time></trkpt><trkpt lat="42.38396584614542" lon="14.315876035378816"><ele>10.0</ele><time>2026-05-01T08:51:33.999Z</time></trkpt><trkpt lat="42.383873330579036" lon="14.315706974104714"><ele>10.0</ele><time>2026-05-01T08:51:34.999Z</time></trkpt><trkpt lat="42.38378876178807" lon="14.315578747046121"><ele>10.0</ele><time>2026-05-01T08:51:35.999Z</time></trkpt><trkpt lat="42.38370818036899" lon="14.315457604038306"><ele>10.0</ele><time>2026-05-01T08:51:36.999Z</time></trkpt><trkpt lat="42.38362438904627" lon="14.315335311116657"><ele>10.0</ele><time>2026-05-01T08:51:37.999Z</time></trkpt><trkpt lat="42.38354514209753" lon="14.31522396868248"><ele>10.0</ele><time>2026-05-01T08:51:38.999Z</time></trkpt><trkpt lat="42.383471313319724" lon="14.315122153764637"><ele>10.0</ele><time>2026-05-01T08:51:39.999Z</time></trkpt><trkpt lat="42.38339442030192" lon="14.315017477054393"><ele>10.0</ele><time>2026-05-01T08:51:40.999Z</time></trkpt><trkpt lat="42.38330940095204" lon="14.314900827937416"><ele>10.0</ele><time>2026-05-01T08:51:41.999Z</time></trkpt><trkpt lat="42.38322028783968" lon="14.314772867425892"><ele>10.0</ele><time>2026-05-01T08:51:42.999Z</time></trkpt><trkpt lat="42.38314373278196" lon="14.314657880323583"><ele>10.0</ele><time>2026-05-01T08:51:43.999Z</time></trkpt><trkpt lat="42.38306308154499" lon="14.314532995133318"><ele>10.0</ele><time>2026-05-01T08:51:44.999Z</time></trkpt><trkpt lat="42.38299932864945" lon="14.31442411228211"><ele>10.0</ele><time>2026-05-01T08:51:45.999Z</time></trkpt><trkpt lat="42.382942894191544" lon="14.314313145202913"><ele>10.0</ele><time>2026-05-01T08:51:46.999Z</time></trkpt><trkpt lat="42.382905324566586" lon="14.314199043464333"><ele>10.0</ele><time>2026-05-01T08:51:47.999Z</time></trkpt><trkpt lat="42.38288089107492" lon="14.31406527613175"><ele>10.0</ele><time>2026-05-01T08:51:48.999Z</time></trkpt><trkpt lat="42.38287149053345" lon="14.313941949958176"><ele>10.25</ele><time>2026-05-01T08:51:49.999Z</time></trkpt><trkpt lat="42.382864695906406" lon="14.313779458559472"><ele>10.5</ele><time>2026-05-01T08:51:50.999Z</time></trkpt><trkpt lat="42.38285843713306" lon="14.313629781630038"><ele>10.75</ele><time>2026-05-01T08:51:51.999Z</time></trkpt><trkpt lat="42.382852179131355" lon="14.313480123133875"><ele>11.0</ele><time>2026-05-01T08:51:52.999Z</time></trkpt><trkpt lat="42.382845846293186" lon="14.313328675056507"><ele>11.0</ele><time>2026-05-01T08:51:53.999Z</time></trkpt><trkpt lat="42.3828392444325" lon="14.31317079328074"><ele>11.0</ele><time>2026-05-01T08:51:54.999Z</time></trkpt><trkpt lat="42.3828327567391" lon="14.313015641878199"><ele>11.0</ele><time>2026-05-01T08:51:55.999Z</time></trkpt><trkpt lat="42.38282604669104" lon="14.312855172945273"><ele>11.0</ele><time>2026-05-01T08:51:56.999Z</time></trkpt><trkpt lat="42.38281980891505" lon="14.31269551652466"><ele>11.0</ele><time>2026-05-01T08:51:57.999Z</time></trkpt><trkpt lat="42.38281442502116" lon="14.312545247018894"><ele>11.0</ele><time>2026-05-01T08:51:58.999Z</time></trkpt><trkpt lat="42.38280990445531" lon="14.312419073701227"><ele>11.0</ele><time>2026-05-01T08:51:59.999Z</time></trkpt><trkpt lat="42.3828053740244" lon="14.312292625179532"><ele>11.0</ele><time>2026-05-01T08:52:00.999Z</time></trkpt><trkpt lat="42.38280083568569" lon="14.312165955899603"><ele>11.0</ele><time>2026-05-01T08:52:01.999Z</time></trkpt><trkpt lat="42.38279614938176" lon="14.312044939692031"><ele>11.166666666666666</ele><time>2026-05-01T08:52:02.999Z</time></trkpt><trkpt lat="42.38278984130058" lon="14.311922815630439"><ele>11.333333333333332</ele><time>2026-05-01T08:52:03.999Z</time></trkpt><trkpt lat="42.38278338517411" lon="14.311816064125656"><ele>11.5</ele><time>2026-05-01T08:52:04.999Z</time></trkpt><trkpt lat="42.382777952953646" lon="14.31171593554166"><ele>11.666666666666666</ele><time>2026-05-01T08:52:05.999Z</time></trkpt><trkpt lat="42.382773873222476" lon="14.311625871529461"><ele>11.833333333333334</ele><time>2026-05-01T08:52:06.999Z</time></trkpt><trkpt lat="42.38277234374515" lon="14.311452933190163"><ele>12.0</ele><time>2026-05-01T08:52:07.999Z</time></trkpt><trkpt lat="42.382736918001044" lon="14.311338374938515"><ele>12.333333333333332</ele><time>2026-05-01T08:52:08.999Z</time></trkpt><trkpt lat="42.38261566517803" lon="14.311173163865995"><ele>12.666666666666666</ele><time>2026-05-01T08:52:09.999Z</time></trkpt><trkpt lat="42.38238551464358" lon="14.311145085960515"><ele>13.0</ele><time>2026-05-01T08:52:10.999Z</time></trkpt><trkpt lat="42.382262437579506" lon="14.311215829221263"><ele>13.0</ele><time>2026-05-01T08:52:11.999Z</time></trkpt><trkpt lat="42.38217227255313" lon="14.311387030187161"><ele>13.0</ele><time>2026-05-01T08:52:12.999Z</time></trkpt><trkpt lat="42.38212630021592" lon="14.311533062085557"><ele>13.0</ele><time>2026-05-01T08:52:14.999Z</time></trkpt><trkpt lat="42.38204330164418" lon="14.311704152018823"><ele>13.0</ele><time>2026-05-01T08:52:16.999Z</time></trkpt><trkpt lat="42.38199231441042" lon="14.311827837403618"><ele>13.0</ele><time>2026-05-01T08:52:17.999Z</time></trkpt><trkpt lat="42.38191960081872" lon="14.311929823438717"><ele>13.0</ele><time>2026-05-01T08:52:18.999Z</time></trkpt><trkpt lat="42.38183605822946" lon="14.312073496468221"><ele>13.0</ele><time>2026-05-01T08:52:19.999Z</time></trkpt><trkpt lat="42.381737591677826" lon="14.312181955759824"><ele>13.0</ele><time>2026-05-01T08:52:20.999Z</time></trkpt><trkpt lat="42.38165799160135" lon="14.312278344889824"><ele>12.8</ele><time>2026-05-01T08:52:21.999Z</time></trkpt><trkpt lat="42.38159973106368" lon="14.312353169391947"><ele>12.600000000000001</ele><time>2026-05-01T08:52:22.999Z</time></trkpt><trkpt lat="42.38149685746306" lon="14.31245617000023"><ele>12.399999999999999</ele><time>2026-05-01T08:52:24.999Z</time></trkpt><trkpt lat="42.381423292966424" lon="14.312448089484976"><ele>12.2</ele><time>2026-05-01T08:52:25.999Z</time></trkpt><trkpt lat="42.38135242843095" lon="14.312385255713638"><ele>12.0</ele><time>2026-05-01T08:52:26.999Z</time></trkpt><trkpt lat="42.38126886385198" lon="14.312344122230543"><ele>12.399999999999999</ele><time>2026-05-01T08:52:27.999Z</time></trkpt><trkpt lat="42.38118158736836" lon="14.312307062603908"><ele>12.799999999999999</ele><time>2026-05-01T08:52:28.999Z</time></trkpt><trkpt lat="42.3810874928459" lon="14.312262573734353"><ele>13.2</ele><time>2026-05-01T08:52:29.999Z</time></trkpt><trkpt lat="42.38097585110087" lon="14.312188799754939"><ele>13.6</ele><time>2026-05-01T08:52:30.999Z</time></trkpt><trkpt lat="42.38085912169212" lon="14.312146820573227"><ele>14.0</ele><time>2026-05-01T08:52:31.999Z</time></trkpt><trkpt lat="42.38076486277534" lon="14.31213896669715"><ele>14.0</ele><time>2026-05-01T08:52:32.999Z</time></trkpt><trkpt lat="42.380680041978444" lon="14.312134219925193"><ele>14.0</ele><time>2026-05-01T08:52:33.999Z</time></trkpt><trkpt lat="42.38059303971708" lon="14.31212391722633"><ele>14.0</ele><time>2026-05-01T08:52:34.999Z</time></trkpt><trkpt lat="42.38052615471422" lon="14.312086986636407"><ele>14.0</ele><time>2026-05-01T08:52:35.999Z</time></trkpt><trkpt lat="42.38047694909369" lon="14.31202399657316"><ele>14.0</ele><time>2026-05-01T08:52:36.999Z</time></trkpt><trkpt lat="42.38041827089792" lon="14.311979061698949"><ele>14.0</ele><time>2026-05-01T08:52:37.999Z</time></trkpt><trkpt lat="42.38035778993923" lon="14.311932746393841"><ele>14.0</ele><time>2026-05-01T08:52:38.999Z</time></trkpt><trkpt lat="42.38037344508047" lon="14.311816022518922"><ele>14.0</ele><time>2026-05-01T08:52:39.999Z</time></trkpt><trkpt lat="42.38020082293503" lon="14.311901129573034"><ele>13.999999999999998</ele><time>2026-05-01T08:52:40.999Z</time></trkpt><trkpt lat="42.38012681790724" lon="14.311845856396927"><ele>13.999999999999998</ele><time>2026-05-01T08:52:41.999Z</time></trkpt><trkpt lat="42.380043373894225" lon="14.311764674213405"><ele>14.0</ele><time>2026-05-01T08:52:42.999Z</time></trkpt><trkpt lat="42.37999464342465" lon="14.31169903023142"><ele>14.0</ele><time>2026-05-01T08:52:43.999Z</time></trkpt><trkpt lat="42.37990703998053" lon="14.311609965441683"><ele>14.000000000000002</ele><time>2026-05-01T08:52:45.999Z</time></trkpt><trkpt lat="42.379846698726894" lon="14.311575128701582"><ele>14.0</ele><time>2026-05-01T08:52:46.999Z</time></trkpt><trkpt lat="42.37977310531786" lon="14.311547160542494"><ele>14.0</ele><time>2026-05-01T08:52:47.999Z</time></trkpt><trkpt lat="42.37967697894431" lon="14.31151697332014"><ele>14.0</ele><time>2026-05-01T08:52:48.999Z</time></trkpt><trkpt lat="42.37958569486647" lon="14.311485828477224"><ele>14.000000000000002</ele><time>2026-05-01T08:52:49.999Z</time></trkpt><trkpt lat="42.37950120175911" lon="14.31148559289529"><ele>14.0</ele><time>2026-05-01T08:52:50.999Z</time></trkpt><trkpt lat="42.37941886682074" lon="14.311507170036688"><ele>14.0</ele><time>2026-05-01T08:52:51.999Z</time></trkpt><trkpt lat="42.37932620624629" lon="14.311534582362713"><ele>13.999999999999998</ele><time>2026-05-01T08:52:52.999Z</time></trkpt><trkpt lat="42.3792207696131" lon="14.311519920647092"><ele>13.999999999999998</ele><time>2026-05-01T08:52:53.999Z</time></trkpt><trkpt lat="42.37910551913775" lon="14.311501270497134"><ele>14.0</ele><time>2026-05-01T08:52:54.999Z</time></trkpt><trkpt lat="42.37897901416565" lon="14.311501893770242"><ele>14.0</ele><time>2026-05-01T08:52:55.999Z</time></trkpt><trkpt lat="42.378869796879115" lon="14.311514530756545"><ele>14.2</ele><time>2026-05-01T08:52:56.999Z</time></trkpt><trkpt lat="42.37876349570527" lon="14.311526757457688"><ele>14.399999999999999</ele><time>2026-05-01T08:52:57.999Z</time></trkpt><trkpt lat="42.37866260608481" lon="14.3115166465148"><ele>14.6</ele><time>2026-05-01T08:52:58.999Z</time></trkpt><trkpt lat="42.37856174875198" lon="14.31149387842715"><ele>14.8</ele><time>2026-05-01T08:52:59.999Z</time></trkpt><trkpt lat="42.37846532480567" lon="14.311442105113622"><ele>15.0</ele><time>2026-05-01T08:53:00.999Z</time></trkpt><trkpt lat="42.37833850292854" lon="14.311358279434705"><ele>15.0</ele><time>2026-05-01T08:53:01.999Z</time></trkpt><trkpt lat="42.37820164136705" lon="14.311285753807594"><ele>15.0</ele><time>2026-05-01T08:53:03Z</time></trkpt><trkpt lat="42.378063543076195" lon="14.31122998950267"><ele>15.0</ele><time>2026-05-01T08:53:04Z</time></trkpt><trkpt lat="42.3779438831903" lon="14.311178478694917"><ele>15.0</ele><time>2026-05-01T08:53:05Z</time></trkpt><trkpt lat="42.3778326824532" lon="14.311108425686363"><ele>15.2</ele><time>2026-05-01T08:53:06Z</time></trkpt><trkpt lat="42.37773248541951" lon="14.31103523594674"><ele>15.4</ele><time>2026-05-01T08:53:07Z</time></trkpt><trkpt lat="42.37762994975967" lon="14.310954971926156"><ele>15.600000000000001</ele><time>2026-05-01T08:53:08Z</time></trkpt><trkpt lat="42.3775286564643" lon="14.310880669624488"><ele>15.8</ele><time>2026-05-01T08:53:09Z</time></trkpt><trkpt lat="42.37743370940815" lon="14.310830220191198"><ele>16.0</ele><time>2026-05-01T08:53:10Z</time></trkpt><trkpt lat="42.37733658429485" lon="14.310795473147822"><ele>16.0</ele><time>2026-05-01T08:53:11Z</time></trkpt><trkpt lat="42.37723368180008" lon="14.310778794585609"><ele>16.0</ele><time>2026-05-01T08:53:12Z</time></trkpt><trkpt lat="42.37711392509436" lon="14.310759753406618"><ele>16.0</ele><time>2026-05-01T08:53:13Z</time></trkpt><trkpt lat="42.377010859328664" lon="14.310728552372128"><ele>16.0</ele><time>2026-05-01T08:53:14Z</time></trkpt><trkpt lat="42.37690516945439" lon="14.31069769475879"><ele>16.0</ele><time>2026-05-01T08:53:15Z</time></trkpt><trkpt lat="42.37679655210409" lon="14.310679876642721"><ele>16.5</ele><time>2026-05-01T08:53:15.999Z</time></trkpt><trkpt lat="42.376680934779024" lon="14.310692378486225"><ele>17.0</ele><time>2026-05-01T08:53:16.999Z</time></trkpt><trkpt lat="42.3765594268161" lon="14.310702096818185"><ele>17.5</ele><time>2026-05-01T08:53:17.999Z</time></trkpt><trkpt lat="42.37642613206259" lon="14.310683078824043"><ele>18.0</ele><time>2026-05-01T08:53:18.999Z</time></trkpt><trkpt lat="42.37629876549512" lon="14.310666333985393"><ele>17.6</ele><time>2026-05-01T08:53:19.999Z</time></trkpt><trkpt lat="42.376184685541055" lon="14.31063931618481"><ele>17.200000000000003</ele><time>2026-05-01T08:53:20.999Z</time></trkpt><trkpt lat="42.37609083035333" lon="14.310610935311239"><ele>16.8</ele><time>2026-05-01T08:53:21.999Z</time></trkpt><trkpt lat="42.37598889483859" lon="14.310577228024764"><ele>16.400000000000002</ele><time>2026-05-01T08:53:22.999Z</time></trkpt><trkpt lat="42.375876011554546" lon="14.310558920476009"><ele>16.0</ele><time>2026-05-01T08:53:23.999Z</time></trkpt><trkpt lat="42.37575150013997" lon="14.310550280672794"><ele>16.0</ele><time>2026-05-01T08:53:24.999Z</time></trkpt><trkpt lat="42.375630555157386" lon="14.31051718376225"><ele>16.0</ele><time>2026-05-01T08:53:25.999Z</time></trkpt><trkpt lat="42.37550965782047" lon="14.310459279802101"><ele>16.0</ele><time>2026-05-01T08:53:26.999Z</time></trkpt><trkpt lat="42.37540010901989" lon="14.310394597248097"><ele>16.0</ele><time>2026-05-01T08:53:27.999Z</time></trkpt><trkpt lat="42.37529605969831" lon="14.31032622084455"><ele>17.25</ele><time>2026-05-01T08:53:28.999Z</time></trkpt><trkpt lat="42.37518803542409" lon="14.310241915801637"><ele>18.5</ele><time>2026-05-01T08:53:29.999Z</time></trkpt><trkpt lat="42.375083652054784" lon="14.31015566835686"><ele>19.75</ele><time>2026-05-01T08:53:30.999Z</time></trkpt><trkpt lat="42.37497807527407" lon="14.310052484847892"><ele>21.0</ele><time>2026-05-01T08:53:31.999Z</time></trkpt><trkpt lat="42.37490482855085" lon="14.30999174070905"><ele>21.0</ele><time>2026-05-01T08:53:32.999Z</time></trkpt><trkpt lat="42.374833727911" lon="14.309943447968983"><ele>21.0</ele><time>2026-05-01T08:53:34.999Z</time></trkpt><trkpt lat="42.37476788788459" lon="14.309952041320495"><ele>21.0</ele><time>2026-05-01T08:53:36.999Z</time></trkpt><trkpt lat="42.374629270854896" lon="14.310037847511461"><ele>21.0</ele><time>2026-05-01T08:53:38.999Z</time></trkpt><trkpt lat="42.3745352667677" lon="14.31009130925442"><ele>21.0</ele><time>2026-05-01T08:53:39.999Z</time></trkpt><trkpt lat="42.3744683747753" lon="14.31012380228619"><ele>21.200000000000003</ele><time>2026-05-01T08:53:40.999Z</time></trkpt><trkpt lat="42.37440538910778" lon="14.3101397259044"><ele>21.400000000000002</ele><time>2026-05-01T08:53:42.999Z</time></trkpt><trkpt lat="42.37430754109564" lon="14.310122091794213"><ele>21.6</ele><time>2026-05-01T08:53:44.999Z</time></trkpt><trkpt lat="42.37418538168249" lon="14.310040974793214"><ele>21.8</ele><time>2026-05-01T08:53:46.999Z</time></trkpt><trkpt lat="42.37407524340274" lon="14.309948898547821"><ele>22.0</ele><time>2026-05-01T08:53:47.999Z</time></trkpt><trkpt lat="42.37395473849557" lon="14.309845025366357"><ele>21.25</ele><time>2026-05-01T08:53:48.999Z</time></trkpt><trkpt lat="42.37386731870801" lon="14.309714479010998"><ele>20.5</ele><time>2026-05-01T08:53:49.999Z</time></trkpt><trkpt lat="42.37376644843913" lon="14.309625341179935"><ele>19.75</ele><time>2026-05-01T08:53:50.999Z</time></trkpt><trkpt lat="42.37365062575326" lon="14.30952868218454"><ele>19.0</ele><time>2026-05-01T08:53:51.999Z</time></trkpt><trkpt lat="42.37350311855009" lon="14.309417837490647"><ele>22.0</ele><time>2026-05-01T08:53:52.999Z</time></trkpt><trkpt lat="42.373347975478964" lon="14.309304369907744"><ele>25.0</ele><time>2026-05-01T08:53:53.999Z</time></trkpt><trkpt lat="42.37321818556537" lon="14.309221570087773"><ele>28.0</ele><time>2026-05-01T08:53:54.999Z</time></trkpt><trkpt lat="42.373111953395934" lon="14.309140882214708"><ele>31.0</ele><time>2026-05-01T08:53:55.999Z</time></trkpt><trkpt lat="42.37303309154559" lon="14.309067008531875"><ele>31.75</ele><time>2026-05-01T08:53:56.999Z</time></trkpt><trkpt lat="42.37294026908493" lon="14.309019281856296"><ele>32.5</ele><time>2026-05-01T08:53:57.999Z</time></trkpt><trkpt lat="42.37281790452003" lon="14.309004400912569"><ele>33.25</ele><time>2026-05-01T08:53:58.999Z</time></trkpt><trkpt lat="42.37268622107113" lon="14.308988535974022"><ele>34.0</ele><time>2026-05-01T08:53:59.999Z</time></trkpt><trkpt lat="42.3725654617992" lon="14.308945834046964"><ele>33.5</ele><time>2026-05-01T08:54:00.999Z</time></trkpt><trkpt lat="42.372445753977324" lon="14.30887710195404"><ele>33.0</ele><time>2026-05-01T08:54:01.999Z</time></trkpt><trkpt lat="42.37231208612714" lon="14.308780701053433"><ele>32.5</ele><time>2026-05-01T08:54:02.999Z</time></trkpt><trkpt lat="42.37217103029062" lon="14.30867185361892"><ele>32.0</ele><time>2026-05-01T08:54:03.999Z</time></trkpt><trkpt lat="42.372034923441454" lon="14.30856558790854"><ele>32.0</ele><time>2026-05-01T08:54:04.999Z</time></trkpt><trkpt lat="42.37190762669426" lon="14.308466200710475"><ele>32.0</ele><time>2026-05-01T08:54:05.999Z</time></trkpt><trkpt lat="42.371791556070406" lon="14.30837557834936"><ele>32.0</ele><time>2026-05-01T08:54:06.999Z</time></trkpt><trkpt lat="42.37166446348825" lon="14.308277053972882"><ele>32.0</ele><time>2026-05-01T08:54:07.999Z</time></trkpt><trkpt lat="42.3715175699141" lon="14.308185490955788"><ele>31.333333333333332</ele><time>2026-05-01T08:54:08.999Z</time></trkpt><trkpt lat="42.37136183444135" lon="14.308063837512423"><ele>30.666666666666664</ele><time>2026-05-01T08:54:09.999Z</time></trkpt><trkpt lat="42.371206288629935" lon="14.307947093054125"><ele>30.0</ele><time>2026-05-01T08:54:10.999Z</time></trkpt><trkpt lat="42.371075977648864" lon="14.307841048818018"><ele>30.0</ele><time>2026-05-01T08:54:11.999Z</time></trkpt><trkpt lat="42.37096054614528" lon="14.30774577744862"><ele>30.0</ele><time>2026-05-01T08:54:12.999Z</time></trkpt><trkpt lat="42.37084953305362" lon="14.307655234833701"><ele>30.0</ele><time>2026-05-01T08:54:13.999Z</time></trkpt><trkpt lat="42.370725826304046" lon="14.307560302223425"><ele>30.0</ele><time>2026-05-01T08:54:14.999Z</time></trkpt><trkpt lat="42.3705820824115" lon="14.307458423298572"><ele>29.333333333333336</ele><time>2026-05-01T08:54:15.999Z</time></trkpt><trkpt lat="42.37041758345838" lon="14.307345952020214"><ele>28.666666666666668</ele><time>2026-05-01T08:54:16.999Z</time></trkpt><trkpt lat="42.37026033891528" lon="14.307230609096726"><ele>28.0</ele><time>2026-05-01T08:54:17.999Z</time></trkpt><trkpt lat="42.37011295423865" lon="14.307140964006825"><ele>28.0</ele><time>2026-05-01T08:54:18.999Z</time></trkpt><trkpt lat="42.369972583103845" lon="14.30705558483889"><ele>28.0</ele><time>2026-05-01T08:54:19.999Z</time></trkpt><trkpt lat="42.369833105426274" lon="14.306994013701436"><ele>28.0</ele><time>2026-05-01T08:54:20.999Z</time></trkpt><trkpt lat="42.36970786861843" lon="14.306922319838906"><ele>28.0</ele><time>2026-05-01T08:54:21.999Z</time></trkpt><trkpt lat="42.3696000862737" lon="14.3068357315558"><ele>27.833333333333336</ele><time>2026-05-01T08:54:22.999Z</time></trkpt><trkpt lat="42.36950851301347" lon="14.306767582989801"><ele>27.666666666666668</ele><time>2026-05-01T08:54:23.999Z</time></trkpt><trkpt lat="42.369448084202496" lon="14.306690250884632"><ele>27.5</ele><time>2026-05-01T08:54:24.999Z</time></trkpt><trkpt lat="42.36940877896621" lon="14.306597522818103"><ele>27.333333333333336</ele><time>2026-05-01T08:54:25.999Z</time></trkpt><trkpt lat="42.36939611162106" lon="14.306502710984384"><ele>27.166666666666668</ele><time>2026-05-01T08:54:26.999Z</time></trkpt><trkpt lat="42.369390973594456" lon="14.30637273650007"><ele>27.0</ele><time>2026-05-01T08:54:28.999Z</time></trkpt><trkpt lat="42.3692464958074" lon="14.306293800722782"><ele>27.0</ele><time>2026-05-01T08:54:34.999Z</time></trkpt><trkpt lat="42.369163855483706" lon="14.306217441661078"><ele>27.0</ele><time>2026-05-01T08:54:35.999Z</time></trkpt><trkpt lat="42.3690611746629" lon="14.306149147334253"><ele>27.0</ele><time>2026-05-01T08:54:36.999Z</time></trkpt><trkpt lat="42.3689667362897" lon="14.306037834644146"><ele>27.0</ele><time>2026-05-01T08:54:37.999Z</time></trkpt><trkpt lat="42.36884897881829" lon="14.305945099822397"><ele>27.25</ele><time>2026-05-01T08:54:38.999Z</time></trkpt><trkpt lat="42.368728066716514" lon="14.305834675200135"><ele>27.5</ele><time>2026-05-01T08:54:39.999Z</time></trkpt><trkpt lat="42.368623740019814" lon="14.305724442426312"><ele>27.75</ele><time>2026-05-01T08:54:40.999Z</time></trkpt><trkpt lat="42.36852799276124" lon="14.305633804480149"><ele>28.0</ele><time>2026-05-01T08:54:41.999Z</time></trkpt><trkpt lat="42.368456946604496" lon="14.305552072091121"><ele>28.000000000000004</ele><time>2026-05-01T08:54:42.999Z</time></trkpt><trkpt lat="42.36839927483691" lon="14.305484411114282"><ele>28.0</ele><time>2026-05-01T08:54:43.999Z</time></trkpt><trkpt lat="42.368339855981375" lon="14.305454878478693"><ele>28.0</ele><time>2026-05-01T08:54:45.999Z</time></trkpt><trkpt lat="42.36826031943755" lon="14.305498563371868"><ele>28.0</ele><time>2026-05-01T08:54:47.999Z</time></trkpt><trkpt lat="42.36821168273258" lon="14.305580790521521"><ele>28.000000000000004</ele><time>2026-05-01T08:54:48.999Z</time></trkpt><trkpt lat="42.36814390497494" lon="14.305682315009161"><ele>28.0</ele><time>2026-05-01T08:54:49.999Z</time></trkpt><trkpt lat="42.36805638329742" lon="14.305807886727687"><ele>28.2</ele><time>2026-05-01T08:54:50.999Z</time></trkpt><trkpt lat="42.36796166699682" lon="14.305935981056386"><ele>28.4</ele><time>2026-05-01T08:54:51.999Z</time></trkpt><trkpt lat="42.36787341087528" lon="14.306034060637797"><ele>28.599999999999998</ele><time>2026-05-01T08:54:52.999Z</time></trkpt><trkpt lat="42.367791951778514" lon="14.306079382663706"><ele>28.799999999999997</ele><time>2026-05-01T08:54:53.999Z</time></trkpt><trkpt lat="42.36769663546983" lon="14.306078513119624"><ele>29.0</ele><time>2026-05-01T08:54:54.999Z</time></trkpt><trkpt lat="42.36758564192885" lon="14.306097051760993"><ele>29.0</ele><time>2026-05-01T08:54:55.999Z</time></trkpt><trkpt lat="42.36747349089808" lon="14.3061252793648"><ele>29.0</ele><time>2026-05-01T08:54:56.999Z</time></trkpt><trkpt lat="42.36734282707856" lon="14.30610703681022"><ele>29.0</ele><time>2026-05-01T08:54:57.999Z</time></trkpt><trkpt lat="42.367208273481815" lon="14.306082045046761"><ele>29.0</ele><time>2026-05-01T08:54:58.999Z</time></trkpt><trkpt lat="42.36709370364188" lon="14.306030237199336"><ele>31.0</ele><time>2026-05-01T08:54:59.999Z</time></trkpt><trkpt lat="42.366962381666816" lon="14.30593898402283"><ele>33.0</ele><time>2026-05-01T08:55:00.999Z</time></trkpt><trkpt lat="42.36686112310003" lon="14.3059164152732"><ele>35.0</ele><time>2026-05-01T08:55:01.999Z</time></trkpt><trkpt lat="42.366760405777235" lon="14.305907618283888"><ele>37.0</ele><time>2026-05-01T08:55:02.999Z</time></trkpt><trkpt lat="42.36663757873134" lon="14.305947104989675"><ele>37.0</ele><time>2026-05-01T08:55:03.999Z</time></trkpt><trkpt lat="42.366492235508304" lon="14.306001769092285"><ele>37.0</ele><time>2026-05-01T08:55:04.999Z</time></trkpt><trkpt lat="42.36637169582893" lon="14.306006153340897"><ele>37.0</ele><time>2026-05-01T08:55:05.999Z</time></trkpt><trkpt lat="42.366279818292455" lon="14.306045649453944"><ele>37.0</ele><time>2026-05-01T08:55:06.999Z</time></trkpt><trkpt lat="42.36618810460792" lon="14.30606870514061"><ele>37.0</ele><time>2026-05-01T08:55:07.999Z</time></trkpt><trkpt lat="42.36609884229541" lon="14.306132149378367"><ele>37.0</ele><time>2026-05-01T08:55:09Z</time></trkpt><trkpt lat="42.36599971561294" lon="14.306187033966149"><ele>37.0</ele><time>2026-05-01T08:55:10Z</time></trkpt><trkpt lat="42.365911460511896" lon="14.30621118944219"><ele>37.0</ele><time>2026-05-01T08:55:11Z</time></trkpt><trkpt lat="42.36581827219392" lon="14.306206698419631"><ele>37.0</ele><time>2026-05-01T08:55:12Z</time></trkpt><trkpt lat="42.365679123294214" lon="14.306212984568681"><ele>37.0</ele><time>2026-05-01T08:55:13Z</time></trkpt><trkpt lat="42.36557404098093" lon="14.306206480846829"><ele>37.0</ele><time>2026-05-01T08:55:14Z</time></trkpt><trkpt lat="42.36548489945344" lon="14.306223060290373"><ele>37.0</ele><time>2026-05-01T08:55:15Z</time></trkpt><trkpt lat="42.36540578113546" lon="14.306223423404845"><ele>37.0</ele><time>2026-05-01T08:55:16Z</time></trkpt><trkpt lat="42.365314261119586" lon="14.306184400340895"><ele>37.0</ele><time>2026-05-01T08:55:17Z</time></trkpt><trkpt lat="42.36520976035321" lon="14.306145311289553"><ele>37.4</ele><time>2026-05-01T08:55:18Z</time></trkpt><trkpt lat="42.36510538218111" lon="14.30613607373642"><ele>37.800000000000004</ele><time>2026-05-01T08:55:19Z</time></trkpt><trkpt lat="42.36501032774694" lon="14.306135582800938"><ele>38.2</ele><time>2026-05-01T08:55:20Z</time></trkpt><trkpt lat="42.364902690515486" lon="14.30614639248306"><ele>38.6</ele><time>2026-05-01T08:55:21Z</time></trkpt><trkpt lat="42.364812377029565" lon="14.3061825999429"><ele>39.0</ele><time>2026-05-01T08:55:22Z</time></trkpt><trkpt lat="42.364712129203276" lon="14.306230319798276"><ele>38.8</ele><time>2026-05-01T08:55:23Z</time></trkpt><trkpt lat="42.36461006367151" lon="14.30628841653041"><ele>38.599999999999994</ele><time>2026-05-01T08:55:24Z</time></trkpt><trkpt lat="42.3645206036" lon="14.306352470928719"><ele>38.4</ele><time>2026-05-01T08:55:25Z</time></trkpt><trkpt lat="42.36442176060473" lon="14.306417098554586"><ele>38.199999999999996</ele><time>2026-05-01T08:55:26Z</time></trkpt><trkpt lat="42.36432719212067" lon="14.30649673103134"><ele>38.0</ele><time>2026-05-01T08:55:27Z</time></trkpt><trkpt lat="42.364235623614555" lon="14.306601800284273"><ele>38.199999999999996</ele><time>2026-05-01T08:55:28Z</time></trkpt><trkpt lat="42.36413403993028" lon="14.306674334030737"><ele>38.4</ele><time>2026-05-01T08:55:29Z</time></trkpt><trkpt lat="42.3640434312569" lon="14.306768168581476"><ele>38.599999999999994</ele><time>2026-05-01T08:55:30Z</time></trkpt><trkpt lat="42.363959090493736" lon="14.30683038973449"><ele>38.8</ele><time>2026-05-01T08:55:31Z</time></trkpt><trkpt lat="42.36388403904472" lon="14.306879979510784"><ele>39.0</ele><time>2026-05-01T08:55:32Z</time></trkpt><trkpt lat="42.36381302431274" lon="14.30691874159729"><ele>39.0</ele><time>2026-05-01T08:55:33Z</time></trkpt><trkpt lat="42.363729442411675" lon="14.30693567377809"><ele>39.0</ele><time>2026-05-01T08:55:34Z</time></trkpt><trkpt lat="42.363632955499575" lon="14.306982747896052"><ele>39.0</ele><time>2026-05-01T08:55:35Z</time></trkpt><trkpt lat="42.363507679691836" lon="14.307024130981533"><ele>39.0</ele><time>2026-05-01T08:55:36Z</time></trkpt><trkpt lat="42.36337894831064" lon="14.307028891885238"><ele>39.0</ele><time>2026-05-01T08:55:37Z</time></trkpt><trkpt lat="42.36325048971777" lon="14.307034147851935"><ele>39.0</ele><time>2026-05-01T08:55:38Z</time></trkpt><trkpt lat="42.36313086589085" lon="14.307027221003443"><ele>39.0</ele><time>2026-05-01T08:55:39Z</time></trkpt><trkpt lat="42.363009633385445" lon="14.307014729025822"><ele>39.0</ele><time>2026-05-01T08:55:40Z</time></trkpt><trkpt lat="42.362894146483086" lon="14.306996396017286"><ele>39.0</ele><time>2026-05-01T08:55:41Z</time></trkpt><trkpt lat="42.362769035499376" lon="14.306976115015406"><ele>38.75</ele><time>2026-05-01T08:55:42Z</time></trkpt><trkpt lat="42.362634844022686" lon="14.306965818157003"><ele>38.5</ele><time>2026-05-01T08:55:43Z</time></trkpt><trkpt lat="42.362517231857936" lon="14.306955352210498"><ele>38.25</ele><time>2026-05-01T08:55:44Z</time></trkpt><trkpt lat="42.362380247367106" lon="14.306943641371621"><ele>38.0</ele><time>2026-05-01T08:55:45Z</time></trkpt><trkpt lat="42.36223865001046" lon="14.306941410725047"><ele>37.75</ele><time>2026-05-01T08:55:46Z</time></trkpt><trkpt lat="42.362105604110866" lon="14.306932532185328"><ele>37.5</ele><time>2026-05-01T08:55:47Z</time></trkpt><trkpt lat="42.36198058502756" lon="14.306931592275921"><ele>37.25</ele><time>2026-05-01T08:55:48Z</time></trkpt><trkpt lat="42.361864813662805" lon="14.306935151044318"><ele>37.0</ele><time>2026-05-01T08:55:49Z</time></trkpt><trkpt lat="42.36176879954579" lon="14.30690792847424"><ele>37.0</ele><time>2026-05-01T08:55:50Z</time></trkpt><trkpt lat="42.36167036442609" lon="14.30688877759921"><ele>37.0</ele><time>2026-05-01T08:55:51Z</time></trkpt><trkpt lat="42.361582906292696" lon="14.306857231628292"><ele>37.0</ele><time>2026-05-01T08:55:52Z</time></trkpt><trkpt lat="42.361500351941274" lon="14.306794259265024"><ele>37.0</ele><time>2026-05-01T08:55:53Z</time></trkpt><trkpt lat="42.3614204272355" lon="14.306713473879485"><ele>37.0</ele><time>2026-05-01T08:55:54Z</time></trkpt><trkpt lat="42.36134377799853" lon="14.306649167280266"><ele>37.0</ele><time>2026-05-01T08:55:55Z</time></trkpt><trkpt lat="42.36126715916717" lon="14.306561059101789"><ele>37.0</ele><time>2026-05-01T08:55:56Z</time></trkpt><trkpt lat="42.36117272322586" lon="14.306497342116247"><ele>37.0</ele><time>2026-05-01T08:55:57Z</time></trkpt><trkpt lat="42.36105004290055" lon="14.306458074293872"><ele>37.0</ele><time>2026-05-01T08:55:58Z</time></trkpt><trkpt lat="42.360896978391644" lon="14.306441609803981"><ele>34.66666666666667</ele><time>2026-05-01T08:55:59Z</time></trkpt><trkpt lat="42.36072522992636" lon="14.306409825098982"><ele>32.333333333333336</ele><time>2026-05-01T08:56:00Z</time></trkpt><trkpt lat="42.360557440207344" lon="14.306322561105135"><ele>30.0</ele><time>2026-05-01T08:56:01Z</time></trkpt><trkpt lat="42.360412287547064" lon="14.306241813234212"><ele>29.25</ele><time>2026-05-01T08:56:02Z</time></trkpt><trkpt lat="42.360282442705376" lon="14.306198670636896"><ele>28.5</ele><time>2026-05-01T08:56:03Z</time></trkpt><trkpt lat="42.36016185456201" lon="14.306140347840524"><ele>27.75</ele><time>2026-05-01T08:56:04Z</time></trkpt><trkpt lat="42.36004509517399" lon="14.306115937083407"><ele>27.0</ele><time>2026-05-01T08:56:05Z</time></trkpt><trkpt lat="42.3599356155314" lon="14.30612218839765"><ele>27.0</ele><time>2026-05-01T08:56:06Z</time></trkpt><trkpt lat="42.359829377836945" lon="14.306156379002248"><ele>27.0</ele><time>2026-05-01T08:56:07Z</time></trkpt><trkpt lat="42.35973169162273" lon="14.306221675244664"><ele>27.0</ele><time>2026-05-01T08:56:08Z</time></trkpt><trkpt lat="42.35958508076647" lon="14.306260299310011"><ele>27.0</ele><time>2026-05-01T08:56:09Z</time></trkpt><trkpt lat="42.35943320872297" lon="14.306314642187283"><ele>28.0</ele><time>2026-05-01T08:56:10Z</time></trkpt><trkpt lat="42.35927875223497" lon="14.306361309406828"><ele>29.000000000000004</ele><time>2026-05-01T08:56:11Z</time></trkpt><trkpt lat="42.359193059993764" lon="14.306418005820026"><ele>30.000000000000004</ele><time>2026-05-01T08:56:12Z</time></trkpt><trkpt lat="42.35912803377996" lon="14.30645730173412"><ele>31.0</ele><time>2026-05-01T08:56:13Z</time></trkpt><trkpt lat="42.35907000799651" lon="14.306530141190578"><ele>32.0</ele><time>2026-05-01T08:56:13.999Z</time></trkpt><trkpt lat="42.35900162817488" lon="14.30663301504607"><ele>32.25</ele><time>2026-05-01T08:56:14.999Z</time></trkpt><trkpt lat="42.358923347365476" lon="14.306774335901292"><ele>32.5</ele><time>2026-05-01T08:56:15.999Z</time></trkpt><trkpt lat="42.35882216040373" lon="14.306939476994417"><ele>32.75</ele><time>2026-05-01T08:56:16.999Z</time></trkpt><trkpt lat="42.35872244047472" lon="14.307066739492711"><ele>33.0</ele><time>2026-05-01T08:56:17.999Z</time></trkpt><trkpt lat="42.35862499354012" lon="14.307097304716027"><ele>32.5</ele><time>2026-05-01T08:56:18.999Z</time></trkpt><trkpt lat="42.35853829212455" lon="14.307120597331908"><ele>32.0</ele><time>2026-05-01T08:56:19.999Z</time></trkpt><trkpt lat="42.358440972532506" lon="14.30711831414822"><ele>31.5</ele><time>2026-05-01T08:56:20.999Z</time></trkpt><trkpt lat="42.35831813114488" lon="14.307107290321062"><ele>31.0</ele><time>2026-05-01T08:56:21.999Z</time></trkpt><trkpt lat="42.35817582094607" lon="14.307032237435047"><ele>31.333333333333336</ele><time>2026-05-01T08:56:22.999Z</time></trkpt><trkpt lat="42.3580192310168" lon="14.306940499353844"><ele>31.666666666666664</ele><time>2026-05-01T08:56:23.999Z</time></trkpt><trkpt lat="42.35784695560764" lon="14.30685366217429"><ele>32.0</ele><time>2026-05-01T08:56:24.999Z</time></trkpt><trkpt lat="42.3576868496731" lon="14.306753314021373"><ele>32.0</ele><time>2026-05-01T08:56:25.999Z</time></trkpt><trkpt lat="42.35753057507148" lon="14.306691318205274"><ele>32.0</ele><time>2026-05-01T08:56:26.999Z</time></trkpt><trkpt lat="42.35737642719439" lon="14.306592054699303"><ele>32.0</ele><time>2026-05-01T08:56:27.999Z</time></trkpt><trkpt lat="42.35722459734834" lon="14.306517347513362"><ele>32.25</ele><time>2026-05-01T08:56:28.999Z</time></trkpt><trkpt lat="42.35708216446848" lon="14.306454161175408"><ele>32.5</ele><time>2026-05-01T08:56:29.999Z</time></trkpt><trkpt lat="42.3569546458973" lon="14.306402148580728"><ele>32.75</ele><time>2026-05-01T08:56:30.999Z</time></trkpt><trkpt lat="42.35682587904678" lon="14.306382310970287"><ele>33.0</ele><time>2026-05-01T08:56:31.999Z</time></trkpt><trkpt lat="42.35669211104436" lon="14.30635677301456"><ele>33.0</ele><time>2026-05-01T08:56:32.999Z</time></trkpt><trkpt lat="42.356557287558026" lon="14.306348335115473"><ele>33.0</ele><time>2026-05-01T08:56:33.999Z</time></trkpt><trkpt lat="42.35642464000737" lon="14.306353041970425"><ele>33.0</ele><time>2026-05-01T08:56:34.999Z</time></trkpt><trkpt lat="42.35629354504783" lon="14.30637843566987"><ele>33.0</ele><time>2026-05-01T08:56:35.999Z</time></trkpt><trkpt lat="42.35615375394027" lon="14.306405513758271"><ele>34.333333333333336</ele><time>2026-05-01T08:56:36.999Z</time></trkpt><trkpt lat="42.35599817510634" lon="14.306428035421925"><ele>35.66666666666667</ele><time>2026-05-01T08:56:37.999Z</time></trkpt><trkpt lat="42.35582319849601" lon="14.306480372190041"><ele>37.0</ele><time>2026-05-01T08:56:38.999Z</time></trkpt><trkpt lat="42.355649175034706" lon="14.30655483297184"><ele>36.333333333333336</ele><time>2026-05-01T08:56:39.999Z</time></trkpt><trkpt lat="42.355469741458286" lon="14.306616044951053"><ele>35.666666666666664</ele><time>2026-05-01T08:56:40.999Z</time></trkpt><trkpt lat="42.35529483836446" lon="14.306689738619863"><ele>35.0</ele><time>2026-05-01T08:56:41.999Z</time></trkpt><trkpt lat="42.35511933248134" lon="14.30678285923441"><ele>35.0</ele><time>2026-05-01T08:56:42.999Z</time></trkpt><trkpt lat="42.354943755595244" lon="14.30684469313821"><ele>35.0</ele><time>2026-05-01T08:56:43.999Z</time></trkpt><trkpt lat="42.3547776890412" lon="14.306910978853912"><ele>35.0</ele><time>2026-05-01T08:56:44.999Z</time></trkpt><trkpt lat="42.35461029026557" lon="14.306971635922013"><ele>35.0</ele><time>2026-05-01T08:56:45.999Z</time></trkpt><trkpt lat="42.35444752686228" lon="14.307031461664337"><ele>35.0</ele><time>2026-05-01T08:56:46.999Z</time></trkpt><trkpt lat="42.354299498109526" lon="14.307096203902654"><ele>35.0</ele><time>2026-05-01T08:56:47.999Z</time></trkpt><trkpt lat="42.35416476956238" lon="14.307179288077345"><ele>36.25</ele><time>2026-05-01T08:56:48.999Z</time></trkpt><trkpt lat="42.354041539560754" lon="14.307286726986977"><ele>37.5</ele><time>2026-05-01T08:56:49.999Z</time></trkpt><trkpt lat="42.3539063454618" lon="14.307333529575873"><ele>38.75</ele><time>2026-05-01T08:56:50.999Z</time></trkpt><trkpt lat="42.3537905020216" lon="14.307351777779724"><ele>40.0</ele><time>2026-05-01T08:56:51.999Z</time></trkpt><trkpt lat="42.35368903533226" lon="14.30735963401426"><ele>40.0</ele><time>2026-05-01T08:56:52.999Z</time></trkpt><trkpt lat="42.35357297597332" lon="14.307369872567874"><ele>40.0</ele><time>2026-05-01T08:56:53.999Z</time></trkpt><trkpt lat="42.353438562089096" lon="14.307392189606517"><ele>40.0</ele><time>2026-05-01T08:56:54.999Z</time></trkpt><trkpt lat="42.353353359418165" lon="14.307439778343413"><ele>40.0</ele><time>2026-05-01T08:56:55.999Z</time></trkpt><trkpt lat="42.35327943074784" lon="14.30750434414847"><ele>40.0</ele><time>2026-05-01T08:56:56.999Z</time></trkpt><trkpt lat="42.35317972473344" lon="14.307635707970539"><ele>40.0</ele><time>2026-05-01T08:56:57.999Z</time></trkpt><trkpt lat="42.353053264253106" lon="14.30770118038969"><ele>40.0</ele><time>2026-05-01T08:56:58.999Z</time></trkpt><trkpt lat="42.35292111823026" lon="14.307782637164712"><ele>40.0</ele><time>2026-05-01T08:56:59.999Z</time></trkpt><trkpt lat="42.35280571368208" lon="14.307753945355506"><ele>40.0</ele><time>2026-05-01T08:57:00.999Z</time></trkpt><trkpt lat="42.352722220698084" lon="14.307686554732827"><ele>39.5</ele><time>2026-05-01T08:57:01.999Z</time></trkpt><trkpt lat="42.35260939913849" lon="14.307624641953337"><ele>39.0</ele><time>2026-05-01T08:57:02.999Z</time></trkpt><trkpt lat="42.35248304493766" lon="14.30758023278445"><ele>38.5</ele><time>2026-05-01T08:57:03.999Z</time></trkpt><trkpt lat="42.35236910171893" lon="14.307567409522745"><ele>38.0</ele><time>2026-05-01T08:57:04.999Z</time></trkpt><trkpt lat="42.35223236632438" lon="14.307596707108587"><ele>38.33333333333333</ele><time>2026-05-01T08:57:05.999Z</time></trkpt><trkpt lat="42.35207134127563" lon="14.307635160972781"><ele>38.666666666666664</ele><time>2026-05-01T08:57:06.999Z</time></trkpt><trkpt lat="42.351892011553296" lon="14.307677427421869"><ele>39.0</ele><time>2026-05-01T08:57:07.999Z</time></trkpt><trkpt lat="42.35168966244134" lon="14.307715960035711"><ele>39.0</ele><time>2026-05-01T08:57:08.999Z</time></trkpt><trkpt lat="42.35147983249285" lon="14.307732128104933"><ele>39.0</ele><time>2026-05-01T08:57:09.999Z</time></trkpt><trkpt lat="42.35129024595417" lon="14.307760236767797"><ele>39.0</ele><time>2026-05-01T08:57:10.999Z</time></trkpt><trkpt lat="42.351096027164154" lon="14.307788262646264"><ele>40.333333333333336</ele><time>2026-05-01T08:57:11.999Z</time></trkpt><trkpt lat="42.35092087614606" lon="14.307810118781198"><ele>41.66666666666667</ele><time>2026-05-01T08:57:12.999Z</time></trkpt><trkpt lat="42.35076437385798" lon="14.307840467487045"><ele>43.0</ele><time>2026-05-01T08:57:13.999Z</time></trkpt><trkpt lat="42.35061128420668" lon="14.307819412503532"><ele>43.333333333333336</ele><time>2026-05-01T08:57:15Z</time></trkpt><trkpt lat="42.35046749802942" lon="14.3078417932965"><ele>43.666666666666664</ele><time>2026-05-01T08:57:16Z</time></trkpt><trkpt lat="42.350313136716146" lon="14.307906789862779"><ele>44.0</ele><time>2026-05-01T08:57:17Z</time></trkpt><trkpt lat="42.350136645554116" lon="14.307993961194427"><ele>44.0</ele><time>2026-05-01T08:57:18Z</time></trkpt><trkpt lat="42.34995547092481" lon="14.308091265202032"><ele>44.0</ele><time>2026-05-01T08:57:19Z</time></trkpt><trkpt lat="42.349771977971926" lon="14.308165962807754"><ele>44.0</ele><time>2026-05-01T08:57:20Z</time></trkpt><trkpt lat="42.349619034700495" lon="14.308249022913747"><ele>43.800000000000004</ele><time>2026-05-01T08:57:21Z</time></trkpt><trkpt lat="42.34949592046304" lon="14.308334366612275"><ele>43.6</ele><time>2026-05-01T08:57:22Z</time></trkpt><trkpt lat="42.34939406003986" lon="14.30837318713767"><ele>43.4</ele><time>2026-05-01T08:57:23Z</time></trkpt><trkpt lat="42.34932234593104" lon="14.308384267749394"><ele>43.2</ele><time>2026-05-01T08:57:24Z</time></trkpt><trkpt lat="42.34926078423036" lon="14.308333770348902"><ele>43.0</ele><time>2026-05-01T08:57:25Z</time></trkpt><trkpt lat="42.34924549881548" lon="14.30818839279161"><ele>42.8</ele><time>2026-05-01T08:57:27Z</time></trkpt><trkpt lat="42.34925181617163" lon="14.3079938915869"><ele>42.599999999999994</ele><time>2026-05-01T08:57:29Z</time></trkpt><trkpt lat="42.349214570591045" lon="14.307892511652312"><ele>42.400000000000006</ele><time>2026-05-01T08:57:30Z</time></trkpt><trkpt lat="42.34915554430649" lon="14.307823513253643"><ele>42.2</ele><time>2026-05-01T08:57:31Z</time></trkpt><trkpt lat="42.349053433266974" lon="14.307862540651332"><ele>42.0</ele><time>2026-05-01T08:57:32Z</time></trkpt><trkpt lat="42.34896930291601" lon="14.307822488399198"><ele>42.0</ele><time>2026-05-01T08:57:33Z</time></trkpt><trkpt lat="42.34891551234195" lon="14.307777900374472"><ele>42.0</ele><time>2026-05-01T08:57:34Z</time></trkpt><trkpt lat="42.34890055946929" lon="14.307689909040837"><ele>42.0</ele><time>2026-05-01T08:57:35Z</time></trkpt><trkpt lat="42.34888489280646" lon="14.307537866986149"><ele>42.0</ele><time>2026-05-01T08:57:36Z</time></trkpt><trkpt lat="42.348847140224315" lon="14.307325745128463"><ele>42.0</ele><time>2026-05-01T08:57:37Z</time></trkpt><trkpt lat="42.34879727757992" lon="14.30707749981715"><ele>42.0</ele><time>2026-05-01T08:57:38Z</time></trkpt><trkpt lat="42.348734648803905" lon="14.306847425421392"><ele>42.0</ele><time>2026-05-01T08:57:39Z</time></trkpt><trkpt lat="42.34866185692916" lon="14.306677520704632"><ele>42.0</ele><time>2026-05-01T08:57:40Z</time></trkpt><trkpt lat="42.348612131929904" lon="14.306551568412408"><ele>42.0</ele><time>2026-05-01T08:57:41Z</time></trkpt><trkpt lat="42.34858387092683" lon="14.30644346417368"><ele>43.5</ele><time>2026-05-01T08:57:42Z</time></trkpt><trkpt lat="42.348617008249924" lon="14.306271981549065"><ele>45.0</ele><time>2026-05-01T08:57:44Z</time></trkpt><trkpt lat="42.34870256084464" lon="14.306163262616055"><ele>46.5</ele><time>2026-05-01T08:57:45Z</time></trkpt><trkpt lat="42.34878999189699" lon="14.305997092391348"><ele>48.0</ele><time>2026-05-01T08:57:46Z</time></trkpt><trkpt lat="42.348875452747166" lon="14.30585026884979"><ele>46.8</ele><time>2026-05-01T08:57:47Z</time></trkpt><trkpt lat="42.348918216179406" lon="14.305726540513685"><ele>45.599999999999994</ele><time>2026-05-01T08:57:48Z</time></trkpt><trkpt lat="42.348905178218914" lon="14.305619369962876"><ele>44.400000000000006</ele><time>2026-05-01T08:57:49Z</time></trkpt><trkpt lat="42.34882249602393" lon="14.305535023373869"><ele>43.2</ele><time>2026-05-01T08:57:50Z</time></trkpt><trkpt lat="42.348735930220194" lon="14.30546147958992"><ele>42.0</ele><time>2026-05-01T08:57:51Z</time></trkpt><trkpt lat="42.34863781304068" lon="14.305419533528985"><ele>43.0</ele><time>2026-05-01T08:57:52Z</time></trkpt><trkpt lat="42.34855516511137" lon="14.305406628302384"><ele>44.0</ele><time>2026-05-01T08:57:53Z</time></trkpt><trkpt lat="42.34849654149505" lon="14.305374101919787"><ele>45.0</ele><time>2026-05-01T08:57:57Z</time></trkpt><trkpt lat="42.34841511568558" lon="14.30543751600221"><ele>46.0</ele><time>2026-05-01T08:57:59Z</time></trkpt><trkpt lat="42.34836902706449" lon="14.30551243346307"><ele>47.0</ele><time>2026-05-01T08:58:00Z</time></trkpt><trkpt lat="42.34826115151265" lon="14.305585561897223"><ele>48.0</ele><time>2026-05-01T08:58:01Z</time></trkpt><trkpt lat="42.34813910412785" lon="14.305723399950022"><ele>49.75</ele><time>2026-05-01T08:58:02Z</time></trkpt><trkpt lat="42.348020723330244" lon="14.305851446826209"><ele>51.5</ele><time>2026-05-01T08:58:03Z</time></trkpt><trkpt lat="42.34793182811483" lon="14.305950409332992"><ele>53.25</ele><time>2026-05-01T08:58:04Z</time></trkpt><trkpt lat="42.34783387871775" lon="14.30603940598031"><ele>55.0</ele><time>2026-05-01T08:58:05Z</time></trkpt><trkpt lat="42.347714548750574" lon="14.306179023667335"><ele>55.0</ele><time>2026-05-01T08:58:06Z</time></trkpt><trkpt lat="42.347589863621046" lon="14.306312598857572"><ele>55.0</ele><time>2026-05-01T08:58:07Z</time></trkpt><trkpt lat="42.34748067705428" lon="14.306417940626282"><ele>55.0</ele><time>2026-05-01T08:58:08Z</time></trkpt><trkpt lat="42.34738494070138" lon="14.30648610859046"><ele>55.0</ele><time>2026-05-01T08:58:09Z</time></trkpt><trkpt lat="42.34726218132385" lon="14.306566451425342"><ele>54.25</ele><time>2026-05-01T08:58:10Z</time></trkpt><trkpt lat="42.34713516920817" lon="14.30662725326803"><ele>53.5</ele><time>2026-05-01T08:58:11Z</time></trkpt><trkpt lat="42.347011827897205" lon="14.30668416191774"><ele>52.75</ele><time>2026-05-01T08:58:12Z</time></trkpt><trkpt lat="42.34687989660925" lon="14.306746192077686"><ele>52.0</ele><time>2026-05-01T08:58:13Z</time></trkpt><trkpt lat="42.34673781448368" lon="14.306812369100122"><ele>52.0</ele><time>2026-05-01T08:58:14Z</time></trkpt><trkpt lat="42.34659396636857" lon="14.306887387954255"><ele>52.0</ele><time>2026-05-01T08:58:15Z</time></trkpt><trkpt lat="42.34645553274561" lon="14.30695900094354"><ele>52.0</ele><time>2026-05-01T08:58:16Z</time></trkpt><trkpt lat="42.34631492444871" lon="14.307029572060868"><ele>52.25</ele><time>2026-05-01T08:58:17Z</time></trkpt><trkpt lat="42.34617333425739" lon="14.307096812590007"><ele>52.5</ele><time>2026-05-01T08:58:18Z</time></trkpt><trkpt lat="42.34603243137109" lon="14.307171738447813"><ele>52.75</ele><time>2026-05-01T08:58:19Z</time></trkpt><trkpt lat="42.345896800868765" lon="14.307241116951577"><ele>53.0</ele><time>2026-05-01T08:58:20Z</time></trkpt><trkpt lat="42.345769408300654" lon="14.307308528609855"><ele>51.333333333333336</ele><time>2026-05-01T08:58:21Z</time></trkpt><trkpt lat="42.34562955065887" lon="14.307381822738135"><ele>49.66666666666667</ele><time>2026-05-01T08:58:22Z</time></trkpt><trkpt lat="42.345470391019546" lon="14.307468813825393"><ele>48.0</ele><time>2026-05-01T08:58:23Z</time></trkpt><trkpt lat="42.34530499540822" lon="14.307572497825765"><ele>48.0</ele><time>2026-05-01T08:58:24Z</time></trkpt><trkpt lat="42.345125736918796" lon="14.307688950446051"><ele>48.0</ele><time>2026-05-01T08:58:25Z</time></trkpt><trkpt lat="42.344933433932525" lon="14.307810287869941"><ele>48.0</ele><time>2026-05-01T08:58:26Z</time></trkpt><trkpt lat="42.3447496757905" lon="14.307923227135568"><ele>48.33333333333333</ele><time>2026-05-01T08:58:27Z</time></trkpt><trkpt lat="42.34458832075451" lon="14.308022215136543"><ele>48.666666666666664</ele><time>2026-05-01T08:58:28Z</time></trkpt><trkpt lat="42.3444472855039" lon="14.308108069583197"><ele>49.0</ele><time>2026-05-01T08:58:29Z</time></trkpt><trkpt lat="42.34430975572145" lon="14.308195376795537"><ele>47.5</ele><time>2026-05-01T08:58:30Z</time></trkpt><trkpt lat="42.34418064393169" lon="14.308273889282404"><ele>46.0</ele><time>2026-05-01T08:58:31Z</time></trkpt><trkpt lat="42.34406082979642" lon="14.308347097883368"><ele>44.5</ele><time>2026-05-01T08:58:32Z</time></trkpt><trkpt lat="42.34394799540091" lon="14.308420716822852"><ele>43.0</ele><time>2026-05-01T08:58:33Z</time></trkpt><trkpt lat="42.34384179014207" lon="14.308481124958107"><ele>43.0</ele><time>2026-05-01T08:58:34Z</time></trkpt><trkpt lat="42.34373234042562" lon="14.308520428495337"><ele>43.0</ele><time>2026-05-01T08:58:35Z</time></trkpt><trkpt lat="42.34361417529558" lon="14.308504933598455"><ele>43.0</ele><time>2026-05-01T08:58:36Z</time></trkpt><trkpt lat="42.34353138546844" lon="14.308558478326736"><ele>43.0</ele><time>2026-05-01T08:58:37Z</time></trkpt><trkpt lat="42.34342898953598" lon="14.308570992961776"><ele>43.0</ele><time>2026-05-01T08:58:38Z</time></trkpt><trkpt lat="42.34333664638944" lon="14.30855360444269"><ele>43.0</ele><time>2026-05-01T08:58:39Z</time></trkpt><trkpt lat="42.343249142339175" lon="14.308493474593538"><ele>43.0</ele><time>2026-05-01T08:58:40Z</time></trkpt><trkpt lat="42.343175937572205" lon="14.30842066552459"><ele>43.0</ele><time>2026-05-01T08:58:41Z</time></trkpt><trkpt lat="42.34309237059604" lon="14.3083440983474"><ele>43.0</ele><time>2026-05-01T08:58:42Z</time></trkpt><trkpt lat="42.34298411199884" lon="14.308239286411693"><ele>43.0</ele><time>2026-05-01T08:58:42.999Z</time></trkpt><trkpt lat="42.3428858069725" lon="14.308142940395575"><ele>44.0</ele><time>2026-05-01T08:58:43.999Z</time></trkpt><trkpt lat="42.342782819790656" lon="14.308066718849428"><ele>45.0</ele><time>2026-05-01T08:58:44.999Z</time></trkpt><trkpt lat="42.342694462421285" lon="14.307970860444465"><ele>46.0</ele><time>2026-05-01T08:58:45.999Z</time></trkpt><trkpt lat="42.342598880524015" lon="14.307892297284164"><ele>47.0</ele><time>2026-05-01T08:58:46.999Z</time></trkpt><trkpt lat="42.34251176906265" lon="14.307838094634471"><ele>48.0</ele><time>2026-05-01T08:58:47.999Z</time></trkpt><trkpt lat="42.34242308770972" lon="14.307795638186398"><ele>48.0</ele><time>2026-05-01T08:58:48.999Z</time></trkpt><trkpt lat="42.34230466386724" lon="14.307830231091687"><ele>48.0</ele><time>2026-05-01T08:58:49.999Z</time></trkpt><trkpt lat="42.34218565744203" lon="14.307870897218843"><ele>48.0</ele><time>2026-05-01T08:58:50.999Z</time></trkpt><trkpt lat="42.342048148456634" lon="14.307942352710581"><ele>48.0</ele><time>2026-05-01T08:58:51.999Z</time></trkpt><trkpt lat="42.341897249215414" lon="14.308025893097401"><ele>47.5</ele><time>2026-05-01T08:58:52.999Z</time></trkpt><trkpt lat="42.34176369961174" lon="14.308119418991373"><ele>47.0</ele><time>2026-05-01T08:58:53.999Z</time></trkpt><trkpt lat="42.34165315590147" lon="14.308158014767733"><ele>46.5</ele><time>2026-05-01T08:58:54.999Z</time></trkpt><trkpt lat="42.34154592740777" lon="14.30824003879467"><ele>46.0</ele><time>2026-05-01T08:58:55.999Z</time></trkpt><trkpt lat="42.34141860637225" lon="14.308303009674304"><ele>45.5</ele><time>2026-05-01T08:58:56.999Z</time></trkpt><trkpt lat="42.3412913162889" lon="14.308336662665623"><ele>45.0</ele><time>2026-05-01T08:58:57.999Z</time></trkpt><trkpt lat="42.34116792333378" lon="14.30838230744473"><ele>44.5</ele><time>2026-05-01T08:58:58.999Z</time></trkpt><trkpt lat="42.3410476570422" lon="14.308426647253109"><ele>44.0</ele><time>2026-05-01T08:58:59.999Z</time></trkpt><trkpt lat="42.34092644748432" lon="14.308471334885784"><ele>44.0</ele><time>2026-05-01T08:59:00.999Z</time></trkpt><trkpt lat="42.34082416958975" lon="14.30853187533137"><ele>44.0</ele><time>2026-05-01T08:59:01.999Z</time></trkpt><trkpt lat="42.34072936913055" lon="14.30855610614661"><ele>44.0</ele><time>2026-05-01T08:59:02.999Z</time></trkpt><trkpt lat="42.34062991045372" lon="14.30856587212831"><ele>44.0</ele><time>2026-05-01T08:59:03.999Z</time></trkpt><trkpt lat="42.340533355104554" lon="14.3085719438941"><ele>44.0</ele><time>2026-05-01T08:59:04.999Z</time></trkpt><trkpt lat="42.34044017088275" lon="14.308582554258576"><ele>44.400000000000006</ele><time>2026-05-01T08:59:05.999Z</time></trkpt><trkpt lat="42.34033996444608" lon="14.308620997510017"><ele>44.8</ele><time>2026-05-01T08:59:06.999Z</time></trkpt><trkpt lat="42.340262773512244" lon="14.308629941676276"><ele>45.2</ele><time>2026-05-01T08:59:07.999Z</time></trkpt><trkpt lat="42.340151824751096" lon="14.308688338203718"><ele>45.599999999999994</ele><time>2026-05-01T08:59:09.999Z</time></trkpt><trkpt lat="42.3400970480427" lon="14.308870308609015"><ele>46.0</ele><time>2026-05-01T08:59:10.999Z</time></trkpt><trkpt lat="42.33999344573187" lon="14.30888865057599"><ele>46.0</ele><time>2026-05-01T08:59:11.999Z</time></trkpt><trkpt lat="42.33990190711929" lon="14.308878278091184"><ele>46.0</ele><time>2026-05-01T08:59:12.999Z</time></trkpt><trkpt lat="42.339816511549316" lon="14.308853196307854"><ele>46.0</ele><time>2026-05-01T08:59:13.999Z</time></trkpt><trkpt lat="42.339696660859566" lon="14.308781909469177"><ele>46.0</ele><time>2026-05-01T08:59:14.999Z</time></trkpt><trkpt lat="42.3396062313402" lon="14.308719566417096"><ele>46.0</ele><time>2026-05-01T08:59:15.999Z</time></trkpt><trkpt lat="42.33947896907443" lon="14.308632371110727"><ele>45.75</ele><time>2026-05-01T08:59:16.999Z</time></trkpt><trkpt lat="42.339365667087456" lon="14.308551007275483"><ele>45.5</ele><time>2026-05-01T08:59:17.999Z</time></trkpt><trkpt lat="42.33924906301505" lon="14.308455053647029"><ele>45.25</ele><time>2026-05-01T08:59:18.999Z</time></trkpt><trkpt lat="42.33915649665044" lon="14.308361507399852"><ele>45.0</ele><time>2026-05-01T08:59:19.999Z</time></trkpt><trkpt lat="42.33905393380078" lon="14.308245437392483"><ele>45.0</ele><time>2026-05-01T08:59:21Z</time></trkpt><trkpt lat="42.338935854440955" lon="14.308100143351714"><ele>45.0</ele><time>2026-05-01T08:59:22Z</time></trkpt><trkpt lat="42.33882337514029" lon="14.30797546601559"><ele>45.0</ele><time>2026-05-01T08:59:23Z</time></trkpt><trkpt lat="42.33872714767261" lon="14.307872755486661"><ele>45.0</ele><time>2026-05-01T08:59:24Z</time></trkpt><trkpt lat="42.33864990815275" lon="14.307801178212081"><ele>45.4</ele><time>2026-05-01T08:59:25Z</time></trkpt><trkpt lat="42.33857860817408" lon="14.307740134142984"><ele>45.8</ele><time>2026-05-01T08:59:26Z</time></trkpt><trkpt lat="42.33851548389377" lon="14.307686282753753"><ele>46.2</ele><time>2026-05-01T08:59:27Z</time></trkpt><trkpt lat="42.338404680685564" lon="14.30764430840169"><ele>46.6</ele><time>2026-05-01T08:59:29Z</time></trkpt><trkpt lat="42.33833082081114" lon="14.307619512066447"><ele>47.0</ele><time>2026-05-01T08:59:30Z</time></trkpt><trkpt lat="42.33822050868309" lon="14.307572504364252"><ele>47.0</ele><time>2026-05-01T08:59:31Z</time></trkpt><trkpt lat="42.33811934072228" lon="14.307530360012267"><ele>47.0</ele><time>2026-05-01T08:59:32Z</time></trkpt><trkpt lat="42.33802173323707" lon="14.30748969714215"><ele>47.0</ele><time>2026-05-01T08:59:33Z</time></trkpt><trkpt lat="42.337941498334615" lon="14.30745726585688"><ele>47.0</ele><time>2026-05-01T08:59:34Z</time></trkpt><trkpt lat="42.33788729618555" lon="14.30739681041838"><ele>47.0</ele><time>2026-05-01T08:59:35Z</time></trkpt><trkpt lat="42.33781764901687" lon="14.307388369162195"><ele>47.0</ele><time>2026-05-01T08:59:36Z</time></trkpt><trkpt lat="42.33771313015965" lon="14.307368651001852"><ele>47.33333333333333</ele><time>2026-05-01T08:59:38Z</time></trkpt><trkpt lat="42.33763713633855" lon="14.30733960481576"><ele>47.666666666666664</ele><time>2026-05-01T08:59:39Z</time></trkpt><trkpt lat="42.33756317535993" lon="14.307311335539307"><ele>48.0</ele><time>2026-05-01T08:59:40Z</time></trkpt><trkpt lat="42.337489886508536" lon="14.307281791109203"><ele>48.33333333333333</ele><time>2026-05-01T08:59:41Z</time></trkpt><trkpt lat="42.33742031661258" lon="14.307238199794204"><ele>48.666666666666664</ele><time>2026-05-01T08:59:42Z</time></trkpt><trkpt lat="42.337341467627375" lon="14.307219469374258"><ele>49.0</ele><time>2026-05-01T08:59:43Z</time></trkpt><trkpt lat="42.337271651611054" lon="14.307189488888218"><ele>49.33333333333333</ele><time>2026-05-01T08:59:44Z</time></trkpt><trkpt lat="42.33720322497163" lon="14.30716404169533"><ele>49.666666666666664</ele><time>2026-05-01T08:59:45Z</time></trkpt><trkpt lat="42.33714027044507" lon="14.307140629739"><ele>50.0</ele><time>2026-05-01T08:59:46Z</time></trkpt><trkpt lat="42.337039049000744" lon="14.307102986646662"><ele>50.33333333333333</ele><time>2026-05-01T08:59:48Z</time></trkpt><trkpt lat="42.33697538705454" lon="14.307079311543571"><ele>50.666666666666664</ele><time>2026-05-01T08:59:49Z</time></trkpt><trkpt lat="42.336901184520684" lon="14.307049817104032"><ele>51.0</ele><time>2026-05-01T08:59:50Z</time></trkpt><trkpt lat="42.336820009897984" lon="14.307016139359849"><ele>51.0</ele><time>2026-05-01T08:59:52Z</time></trkpt><trkpt lat="42.336671214989366" lon="14.306953390544855"><ele>51.0</ele><time>2026-05-01T08:59:54Z</time></trkpt><trkpt lat="42.33659801094397" lon="14.306924132494343"><ele>51.0</ele><time>2026-05-01T08:59:55Z</time></trkpt><trkpt lat="42.33651270587798" lon="14.306891723321861"><ele>51.0</ele><time>2026-05-01T08:59:56Z</time></trkpt><trkpt lat="42.33644189641511" lon="14.306864821408368"><ele>51.0</ele><time>2026-05-01T08:59:57Z</time></trkpt><trkpt lat="42.33636286072569" lon="14.306833559367558"><ele>51.166666666666664</ele><time>2026-05-01T08:59:58Z</time></trkpt><trkpt lat="42.3362975395346" lon="14.306807099782155"><ele>51.33333333333333</ele><time>2026-05-01T08:59:59Z</time></trkpt><trkpt lat="42.336210441628324" lon="14.306771719425862"><ele>51.5</ele><time>2026-05-01T09:00:01Z</time></trkpt><trkpt lat="42.33612098651609" lon="14.306734120198076"><ele>51.666666666666664</ele><time>2026-05-01T09:00:03Z</time></trkpt><trkpt lat="42.336057037022385" lon="14.306702420010339"><ele>51.83333333333333</ele><time>2026-05-01T09:00:04Z</time></trkpt><trkpt lat="42.33596291261657" lon="14.306647108434822"><ele>52.0</ele><time>2026-05-01T09:00:07Z</time></trkpt><trkpt lat="42.33590322520244" lon="14.306611248290103"><ele>52.0</ele><time>2026-05-01T09:00:08Z</time></trkpt><trkpt lat="42.33583376990384" lon="14.306569521005686"><ele>52.0</ele><time>2026-05-01T09:00:09Z</time></trkpt><trkpt lat="42.335770935814125" lon="14.306528663732836"><ele>52.0</ele><time>2026-05-01T09:00:10Z</time></trkpt><trkpt lat="42.3356457978311" lon="14.306442200675043"><ele>52.0</ele><time>2026-05-01T09:00:12Z</time></trkpt><trkpt lat="42.33553299144346" lon="14.306460207147811"><ele>52.0</ele><time>2026-05-01T09:00:15Z</time></trkpt><trkpt lat="42.33558768316837" lon="14.305795159938443"><ele>52.8</ele><time>2026-05-01T09:00:18Z</time></trkpt><trkpt lat="42.335614650541984" lon="14.305646900582992"><ele>53.6</ele><time>2026-05-01T09:00:37Z</time></trkpt><trkpt lat="42.33567948043376" lon="14.305482850787524"><ele>54.39999999999999</ele><time>2026-05-01T09:00:39Z</time></trkpt><trkpt lat="42.33571549390579" lon="14.305387965560513"><ele>55.199999999999996</ele><time>2026-05-01T09:00:40Z</time></trkpt><trkpt lat="42.33576482085687" lon="14.305259950642995"><ele>56.0</ele><time>2026-05-01T09:00:41Z</time></trkpt><trkpt lat="42.335805534144534" lon="14.305145332607816"><ele>57.16666666666667</ele><time>2026-05-01T09:00:42Z</time></trkpt><trkpt lat="42.33583411772671" lon="14.30506775625964"><ele>58.333333333333336</ele><time>2026-05-01T09:00:43Z</time></trkpt><trkpt lat="42.33585748261853" lon="14.304957917873823"><ele>59.5</ele><time>2026-05-01T09:00:45Z</time></trkpt><trkpt lat="42.3358323108275" lon="14.304812032610092"><ele>60.66666666666667</ele><time>2026-05-01T09:00:47Z</time></trkpt><trkpt lat="42.335801514271736" lon="14.304725817224533"><ele>61.833333333333336</ele><time>2026-05-01T09:00:48Z</time></trkpt><trkpt lat="42.3357678866461" lon="14.304646583299363"><ele>63.0</ele><time>2026-05-01T09:00:49Z</time></trkpt><trkpt lat="42.33572858867608" lon="14.30456556947389"><ele>64.16666666666667</ele><time>2026-05-01T09:00:50Z</time></trkpt><trkpt lat="42.33569053983908" lon="14.30448631306641"><ele>65.33333333333333</ele><time>2026-05-01T09:00:51Z</time></trkpt><trkpt lat="42.33564804267308" lon="14.30441595097846"><ele>66.5</ele><time>2026-05-01T09:00:52Z</time></trkpt><trkpt lat="42.33558268480593" lon="14.304365920815792"><ele>67.66666666666666</ele><time>2026-05-01T09:00:53Z</time></trkpt><trkpt lat="42.335531986474756" lon="14.304293205618073"><ele>68.83333333333333</ele><time>2026-05-01T09:00:54Z</time></trkpt><trkpt lat="42.33544771084377" lon="14.30422077146363"><ele>70.0</ele><time>2026-05-01T09:00:56Z</time></trkpt><trkpt lat="42.33538106402198" lon="14.304154472293217"><ele>70.0</ele><time>2026-05-01T09:00:58Z</time></trkpt><trkpt lat="42.3353889771426" lon="14.304061089635631"><ele>70.0</ele><time>2026-05-01T09:00:59Z</time></trkpt><trkpt lat="42.33536380075662" lon="14.303953764190936"><ele>70.0</ele><time>2026-05-01T09:01:00Z</time></trkpt><trkpt lat="42.33533579182664" lon="14.303857805644697"><ele>70.0</ele><time>2026-05-01T09:01:01Z</time></trkpt><trkpt lat="42.33528849240199" lon="14.303796505876642"><ele>70.0</ele><time>2026-05-01T09:01:02Z</time></trkpt><trkpt lat="42.3352143344072" lon="14.30376607051231"><ele>70.0</ele><time>2026-05-01T09:01:03Z</time></trkpt><trkpt lat="42.335218202029694" lon="14.303661819985315"><ele>70.0</ele><time>2026-05-01T09:01:05Z</time></trkpt><trkpt lat="42.33522962766316" lon="14.303544216809756"><ele>72.8</ele><time>2026-05-01T09:01:44.001Z</time></trkpt><trkpt lat="42.33515589946686" lon="14.303530053800083"><ele>75.6</ele><time>2026-05-01T09:01:46.001Z</time></trkpt><trkpt lat="42.3350872984243" lon="14.303551343101377"><ele>78.4</ele><time>2026-05-01T09:01:47.001Z</time></trkpt><trkpt lat="42.33500250292826" lon="14.303540636456383"><ele>81.2</ele><time>2026-05-01T09:01:48.001Z</time></trkpt><trkpt lat="42.33490728136589" lon="14.303467006302988"><ele>84.0</ele><time>2026-05-01T09:01:49.001Z</time></trkpt><trkpt lat="42.33479019471625" lon="14.303400733936506"><ele>82.8</ele><time>2026-05-01T09:01:50.001Z</time></trkpt><trkpt lat="42.334691639945824" lon="14.303320574856071"><ele>81.60000000000001</ele><time>2026-05-01T09:01:51.001Z</time></trkpt><trkpt lat="42.33460105030636" lon="14.303251329393838"><ele>80.4</ele><time>2026-05-01T09:01:52.001Z</time></trkpt><trkpt lat="42.3345124286478" lon="14.303171653671033"><ele>79.2</ele><time>2026-05-01T09:01:53Z</time></trkpt><trkpt lat="42.334440612164336" lon="14.303063044355943"><ele>78.0</ele><time>2026-05-01T09:01:54Z</time></trkpt><trkpt lat="42.33436543234569" lon="14.302965365006342"><ele>78.0</ele><time>2026-05-01T09:01:55Z</time></trkpt><trkpt lat="42.334311752249256" lon="14.302842426246032"><ele>78.0</ele><time>2026-05-01T09:01:56Z</time></trkpt><trkpt lat="42.33426238188113" lon="14.302731100746241"><ele>78.0</ele><time>2026-05-01T09:01:57Z</time></trkpt><trkpt lat="42.33421140961915" lon="14.302627809583532"><ele>78.0</ele><time>2026-05-01T09:01:58Z</time></trkpt><trkpt lat="42.3341595949224" lon="14.302532099033403"><ele>78.0</ele><time>2026-05-01T09:01:59Z</time></trkpt><trkpt lat="42.334106304674144" lon="14.30243311958955"><ele>78.0</ele><time>2026-05-01T09:02:00Z</time></trkpt><trkpt lat="42.334036298139836" lon="14.302355236006866"><ele>78.0</ele><time>2026-05-01T09:02:01Z</time></trkpt><trkpt lat="42.33397146574108" lon="14.30226430954163"><ele>78.0</ele><time>2026-05-01T09:02:02Z</time></trkpt><trkpt lat="42.333904253222826" lon="14.302179944411781"><ele>78.0</ele><time>2026-05-01T09:02:03Z</time></trkpt><trkpt lat="42.333836854315365" lon="14.302089614226865"><ele>78.0</ele><time>2026-05-01T09:02:04Z</time></trkpt><trkpt lat="42.3337694349558" lon="14.302011607773133"><ele>76.6</ele><time>2026-05-01T09:02:05Z</time></trkpt><trkpt lat="42.333718192082806" lon="14.301919075514233"><ele>75.19999999999999</ele><time>2026-05-01T09:02:06Z</time></trkpt><trkpt lat="42.333665762911856" lon="14.301813984841997"><ele>73.8</ele><time>2026-05-01T09:02:07Z</time></trkpt><trkpt lat="42.33360573096095" lon="14.301726180814802"><ele>72.39999999999999</ele><time>2026-05-01T09:02:08Z</time></trkpt><trkpt lat="42.33354352301279" lon="14.301643121457321"><ele>71.0</ele><time>2026-05-01T09:02:09Z</time></trkpt><trkpt lat="42.333465429217355" lon="14.301568040983364"><ele>71.0</ele><time>2026-05-01T09:02:10Z</time></trkpt><trkpt lat="42.333382978333574" lon="14.30152920605834"><ele>71.0</ele><time>2026-05-01T09:02:11Z</time></trkpt><trkpt lat="42.33330569907587" lon="14.301535263108105"><ele>71.0</ele><time>2026-05-01T09:02:12Z</time></trkpt><trkpt lat="42.333229539506064" lon="14.301550285096443"><ele>71.0</ele><time>2026-05-01T09:02:13Z</time></trkpt><trkpt lat="42.333137909026696" lon="14.301645629628103"><ele>71.0</ele><time>2026-05-01T09:02:14Z</time></trkpt><trkpt lat="42.3330356906817" lon="14.301739574828511"><ele>70.0</ele><time>2026-05-01T09:02:15Z</time></trkpt><trkpt lat="42.332926572379705" lon="14.301796410148565"><ele>69.0</ele><time>2026-05-01T09:02:16Z</time></trkpt><trkpt lat="42.33281736718848" lon="14.301834032246056"><ele>68.0</ele><time>2026-05-01T09:02:17Z</time></trkpt><trkpt lat="42.33270346236813" lon="14.301813828739341"><ele>67.0</ele><time>2026-05-01T09:02:18Z</time></trkpt><trkpt lat="42.33256172632525" lon="14.301769349834805"><ele>67.0</ele><time>2026-05-01T09:02:19Z</time></trkpt><trkpt lat="42.33240255783887" lon="14.301702205765038"><ele>67.0</ele><time>2026-05-01T09:02:20Z</time></trkpt><trkpt lat="42.332230905982776" lon="14.30161881041401"><ele>67.0</ele><time>2026-05-01T09:02:21Z</time></trkpt><trkpt lat="42.33207234044427" lon="14.301535904783576"><ele>64.0</ele><time>2026-05-01T09:02:22Z</time></trkpt><trkpt lat="42.331908621222105" lon="14.301445899795196"><ele>61.0</ele><time>2026-05-01T09:02:23Z</time></trkpt><trkpt lat="42.33173940816027" lon="14.301345225061516"><ele>58.0</ele><time>2026-05-01T09:02:24Z</time></trkpt><trkpt lat="42.33158703350304" lon="14.30125051510288"><ele>60.33333333333333</ele><time>2026-05-01T09:02:25Z</time></trkpt><trkpt lat="42.3314318178442" lon="14.301152310499715"><ele>62.66666666666667</ele><time>2026-05-01T09:02:26Z</time></trkpt><trkpt lat="42.3312744577999" lon="14.30105145110523"><ele>65.0</ele><time>2026-05-01T09:02:27Z</time></trkpt><trkpt lat="42.33111033540745" lon="14.300939197542617"><ele>65.0</ele><time>2026-05-01T09:02:28Z</time></trkpt><trkpt lat="42.33095220707771" lon="14.300829653387582"><ele>65.0</ele><time>2026-05-01T09:02:29Z</time></trkpt><trkpt lat="42.33079501740357" lon="14.300735356753023"><ele>65.0</ele><time>2026-05-01T09:02:30Z</time></trkpt><trkpt lat="42.33063341063928" lon="14.300656355451583"><ele>64.66666666666667</ele><time>2026-05-01T09:02:31Z</time></trkpt><trkpt lat="42.33046159604459" lon="14.300569190435061"><ele>64.33333333333333</ele><time>2026-05-01T09:02:32Z</time></trkpt><trkpt lat="42.33026982516734" lon="14.300502060999293"><ele>64.0</ele><time>2026-05-01T09:02:33Z</time></trkpt><trkpt lat="42.33009385818437" lon="14.300421613310778"><ele>64.0</ele><time>2026-05-01T09:02:34Z</time></trkpt><trkpt lat="42.32992243348321" lon="14.300373456704156"><ele>64.0</ele><time>2026-05-01T09:02:35Z</time></trkpt><trkpt lat="42.329736139309674" lon="14.300330608551764"><ele>64.0</ele><time>2026-05-01T09:02:36Z</time></trkpt><trkpt lat="42.3295480046589" lon="14.30028525573136"><ele>64.0</ele><time>2026-05-01T09:02:37Z</time></trkpt><trkpt lat="42.32934597093999" lon="14.300232762610232"><ele>64.0</ele><time>2026-05-01T09:02:38Z</time></trkpt><trkpt lat="42.32915904074165" lon="14.300183144532575"><ele>64.0</ele><time>2026-05-01T09:02:39Z</time></trkpt><trkpt lat="42.328967847189524" lon="14.300153211161371"><ele>63.33333333333333</ele><time>2026-05-01T09:02:40Z</time></trkpt><trkpt lat="42.32877602872825" lon="14.300080205237482"><ele>62.66666666666667</ele><time>2026-05-01T09:02:41Z</time></trkpt><trkpt lat="42.32859951440584" lon="14.300027274266974"><ele>62.0</ele><time>2026-05-01T09:02:42Z</time></trkpt><trkpt lat="42.32843873892041" lon="14.299972463028464"><ele>62.0</ele><time>2026-05-01T09:02:43Z</time></trkpt><trkpt lat="42.32826928400905" lon="14.299902676496721"><ele>62.0</ele><time>2026-05-01T09:02:44Z</time></trkpt><trkpt lat="42.32810196307082" lon="14.299813980275113"><ele>62.0</ele><time>2026-05-01T09:02:45Z</time></trkpt><trkpt lat="42.327919242845304" lon="14.299712740286635"><ele>63.66666666666667</ele><time>2026-05-01T09:02:46Z</time></trkpt><trkpt lat="42.32774977618916" lon="14.29961358661987"><ele>65.33333333333333</ele><time>2026-05-01T09:02:47Z</time></trkpt><trkpt lat="42.32757197304646" lon="14.299505711852417"><ele>67.0</ele><time>2026-05-01T09:02:48Z</time></trkpt><trkpt lat="42.32740022895567" lon="14.299400447048813"><ele>66.33333333333333</ele><time>2026-05-01T09:02:49Z</time></trkpt><trkpt lat="42.32721574511415" lon="14.299287373848612"><ele>65.66666666666667</ele><time>2026-05-01T09:02:50Z</time></trkpt><trkpt lat="42.32704334369002" lon="14.299181210082667"><ele>65.0</ele><time>2026-05-01T09:02:51Z</time></trkpt><trkpt lat="42.326870910334264" lon="14.29907466433811"><ele>65.0</ele><time>2026-05-01T09:02:52Z</time></trkpt><trkpt lat="42.32670764670677" lon="14.29897378464856"><ele>65.0</ele><time>2026-05-01T09:02:53Z</time></trkpt><trkpt lat="42.326546447489044" lon="14.298874180540167"><ele>65.0</ele><time>2026-05-01T09:02:54Z</time></trkpt><trkpt lat="42.32639885714222" lon="14.298784070469114"><ele>66.2</ele><time>2026-05-01T09:02:55Z</time></trkpt><trkpt lat="42.326272505505706" lon="14.298736114406095"><ele>67.4</ele><time>2026-05-01T09:02:56Z</time></trkpt><trkpt lat="42.32618442952503" lon="14.298677132441211"><ele>68.6</ele><time>2026-05-01T09:02:57Z</time></trkpt><trkpt lat="42.32611218585104" lon="14.298609491320093"><ele>69.8</ele><time>2026-05-01T09:02:58Z</time></trkpt><trkpt lat="42.32605178500612" lon="14.29852363162325"><ele>71.0</ele><time>2026-05-01T09:02:59Z</time></trkpt><trkpt lat="42.326012078507354" lon="14.298404478981864"><ele>71.0</ele><time>2026-05-01T09:03:00Z</time></trkpt><trkpt lat="42.325986488060224" lon="14.298265544587094"><ele>71.0</ele><time>2026-05-01T09:03:01Z</time></trkpt><trkpt lat="42.32595793361973" lon="14.298132309517445"><ele>71.0</ele><time>2026-05-01T09:03:02Z</time></trkpt><trkpt lat="42.325897052118606" lon="14.29803482027573"><ele>71.0</ele><time>2026-05-01T09:03:03Z</time></trkpt><trkpt lat="42.32580446045311" lon="14.297977306871413"><ele>71.0</ele><time>2026-05-01T09:03:04Z</time></trkpt><trkpt lat="42.325699686140744" lon="14.297975462219911"><ele>72.25</ele><time>2026-05-01T09:03:05Z</time></trkpt><trkpt lat="42.32558320553352" lon="14.298010593317851"><ele>73.5</ele><time>2026-05-01T09:03:06Z</time></trkpt><trkpt lat="42.32545665798671" lon="14.298077007108516"><ele>74.75</ele><time>2026-05-01T09:03:07Z</time></trkpt><trkpt lat="42.32531659363642" lon="14.298126496360712"><ele>76.0</ele><time>2026-05-01T09:03:08Z</time></trkpt><trkpt lat="42.32516650003661" lon="14.298204599519602"><ele>76.0</ele><time>2026-05-01T09:03:09Z</time></trkpt><trkpt lat="42.32501244387785" lon="14.298286888199657"><ele>76.0</ele><time>2026-05-01T09:03:10Z</time></trkpt><trkpt lat="42.3248789979287" lon="14.298355567763595"><ele>76.0</ele><time>2026-05-01T09:03:11Z</time></trkpt><trkpt lat="42.324787563874324" lon="14.298384559025916"><ele>76.0</ele><time>2026-05-01T09:03:12Z</time></trkpt><trkpt lat="42.32469588445459" lon="14.298389343901745"><ele>77.0</ele><time>2026-05-01T09:03:13Z</time></trkpt><trkpt lat="42.32460223841634" lon="14.298340739894117"><ele>78.0</ele><time>2026-05-01T09:03:14Z</time></trkpt><trkpt lat="42.324468871211145" lon="14.298253885020422"><ele>79.0</ele><time>2026-05-01T09:03:15Z</time></trkpt><trkpt lat="42.324356824013734" lon="14.298174145598102"><ele>80.0</ele><time>2026-05-01T09:03:16Z</time></trkpt><trkpt lat="42.32424185248367" lon="14.298089575464996"><ele>82.0</ele><time>2026-05-01T09:03:17Z</time></trkpt><trkpt lat="42.3241209677727" lon="14.297990923761038"><ele>84.0</ele><time>2026-05-01T09:03:18Z</time></trkpt><trkpt lat="42.32400130399448" lon="14.297877453850509"><ele>86.0</ele><time>2026-05-01T09:03:19Z</time></trkpt><trkpt lat="42.32386931680213" lon="14.297763737126209"><ele>88.0</ele><time>2026-05-01T09:03:20Z</time></trkpt><trkpt lat="42.323741942656014" lon="14.297634270031857"><ele>88.0</ele><time>2026-05-01T09:03:21Z</time></trkpt><trkpt lat="42.323605895367706" lon="14.29753583767903"><ele>88.0</ele><time>2026-05-01T09:03:22Z</time></trkpt><trkpt lat="42.323454063680046" lon="14.29742289229165"><ele>88.0</ele><time>2026-05-01T09:03:23Z</time></trkpt><trkpt lat="42.32329899847308" lon="14.29733674482101"><ele>93.0</ele><time>2026-05-01T09:03:24Z</time></trkpt><trkpt lat="42.323150515075085" lon="14.297240545995692"><ele>98.0</ele><time>2026-05-01T09:03:25Z</time></trkpt><trkpt lat="42.32300167999698" lon="14.297154738605768"><ele>103.0</ele><time>2026-05-01T09:03:26Z</time></trkpt><trkpt lat="42.32284565712258" lon="14.297075944626734"><ele>103.0</ele><time>2026-05-01T09:03:27Z</time></trkpt><trkpt lat="42.32269023925376" lon="14.297008904870708"><ele>103.0</ele><time>2026-05-01T09:03:28Z</time></trkpt><trkpt lat="42.32251560896821" lon="14.29693900450031"><ele>103.0</ele><time>2026-05-01T09:03:29Z</time></trkpt><trkpt lat="42.322336352032785" lon="14.29689023441183"><ele>102.0</ele><time>2026-05-01T09:03:30Z</time></trkpt><trkpt lat="42.32216904202729" lon="14.296829144011957"><ele>101.0</ele><time>2026-05-01T09:03:31Z</time></trkpt><trkpt lat="42.32198825655903" lon="14.296750373959128"><ele>100.0</ele><time>2026-05-01T09:03:32Z</time></trkpt><trkpt lat="42.32181976894393" lon="14.296688280167423"><ele>100.0</ele><time>2026-05-01T09:03:33.001Z</time></trkpt><trkpt lat="42.32165316012254" lon="14.296624953146619"><ele>100.0</ele><time>2026-05-01T09:03:34.001Z</time></trkpt><trkpt lat="42.32150138514295" lon="14.296542508405127"><ele>100.0</ele><time>2026-05-01T09:03:35.001Z</time></trkpt><trkpt lat="42.32136973512291" lon="14.296416108626985"><ele>100.5</ele><time>2026-05-01T09:03:36.001Z</time></trkpt><trkpt lat="42.321264544356694" lon="14.296292671303256"><ele>101.0</ele><time>2026-05-01T09:03:37.001Z</time></trkpt><trkpt lat="42.321167623418475" lon="14.296141444735822"><ele>101.5</ele><time>2026-05-01T09:03:38.001Z</time></trkpt><trkpt lat="42.32104691667679" lon="14.296021065052752"><ele>102.0</ele><time>2026-05-01T09:03:39.001Z</time></trkpt><trkpt lat="42.32092414369839" lon="14.29590449682642"><ele>102.0</ele><time>2026-05-01T09:03:40.001Z</time></trkpt><trkpt lat="42.32076678148219" lon="14.29580790899407"><ele>102.0</ele><time>2026-05-01T09:03:41.001Z</time></trkpt><trkpt lat="42.320589836979735" lon="14.29568398151288"><ele>102.0</ele><time>2026-05-01T09:03:42Z</time></trkpt><trkpt lat="42.32039537562419" lon="14.295579219301114"><ele>104.66666666666666</ele><time>2026-05-01T09:03:43Z</time></trkpt><trkpt lat="42.320194735771615" lon="14.295511918499503"><ele>107.33333333333333</ele><time>2026-05-01T09:03:44Z</time></trkpt><trkpt lat="42.32003463509872" lon="14.295436518536784"><ele>110.0</ele><time>2026-05-01T09:03:45Z</time></trkpt><trkpt lat="42.31992753507357" lon="14.295355067498106"><ele>110.0</ele><time>2026-05-01T09:03:46Z</time></trkpt><trkpt lat="42.319845754301" lon="14.295297290057634"><ele>110.0</ele><time>2026-05-01T09:03:47Z</time></trkpt><trkpt lat="42.31978907138101" lon="14.295242682299234"><ele>110.0</ele><time>2026-05-01T09:03:48Z</time></trkpt><trkpt lat="42.31979128150671" lon="14.295054499876805"><ele>110.0</ele><time>2026-05-01T09:03:50Z</time></trkpt><trkpt lat="42.319804975977604" lon="14.294927240008711"><ele>110.0</ele><time>2026-05-01T09:03:51Z</time></trkpt><trkpt lat="42.319801024162985" lon="14.294799268782178"><ele>109.99999999999999</ele><time>2026-05-01T09:03:52Z</time></trkpt><trkpt lat="42.31976331539681" lon="14.294710825486955"><ele>110.0</ele><time>2026-05-01T09:03:53Z</time></trkpt><trkpt lat="42.31969908653362" lon="14.294664425034687"><ele>110.0</ele><time>2026-05-01T09:03:54Z</time></trkpt><trkpt lat="42.31962078414478" lon="14.294750922103121"><ele>110.0</ele><time>2026-05-01T09:03:55Z</time></trkpt><trkpt lat="42.3195551603839" lon="14.294805527856344"><ele>109.99999999999999</ele><time>2026-05-01T09:03:56Z</time></trkpt><trkpt lat="42.31948454283463" lon="14.294867051146468"><ele>110.0</ele><time>2026-05-01T09:03:57Z</time></trkpt><trkpt lat="42.31940627882842" lon="14.294852899358236"><ele>110.0</ele><time>2026-05-01T09:03:59Z</time></trkpt><trkpt lat="42.31933566502176" lon="14.294793591231228"><ele>110.0</ele><time>2026-05-01T09:04:00Z</time></trkpt><trkpt lat="42.31928376468657" lon="14.294663501948286"><ele>110.0</ele><time>2026-05-01T09:04:01Z</time></trkpt><trkpt lat="42.3192009590018" lon="14.294518816110626"><ele>110.0</ele><time>2026-05-01T09:04:02Z</time></trkpt><trkpt lat="42.31910880715536" lon="14.29439593332271"><ele>110.0</ele><time>2026-05-01T09:04:02.999Z</time></trkpt><trkpt lat="42.31899253206081" lon="14.29427524673261"><ele>110.0</ele><time>2026-05-01T09:04:03.999Z</time></trkpt><trkpt lat="42.31889781016514" lon="14.294147791715105"><ele>110.0</ele><time>2026-05-01T09:04:04.999Z</time></trkpt><trkpt lat="42.31881815132725" lon="14.29399898398144"><ele>110.0</ele><time>2026-05-01T09:04:05.999Z</time></trkpt><trkpt lat="42.318738608073076" lon="14.293818695691174"><ele>109.5</ele><time>2026-05-01T09:04:06.999Z</time></trkpt><trkpt lat="42.31866155657324" lon="14.293638043989512"><ele>109.0</ele><time>2026-05-01T09:04:07.999Z</time></trkpt><trkpt lat="42.31859907645858" lon="14.2934829363339"><ele>108.5</ele><time>2026-05-01T09:04:08.999Z</time></trkpt><trkpt lat="42.31853390368682" lon="14.293337252128882"><ele>108.0</ele><time>2026-05-01T09:04:09.999Z</time></trkpt><trkpt lat="42.318426166980785" lon="14.293226799070538"><ele>108.0</ele><time>2026-05-01T09:04:10.999Z</time></trkpt><trkpt lat="42.3183004198812" lon="14.293148661736753"><ele>108.0</ele><time>2026-05-01T09:04:11.999Z</time></trkpt><trkpt lat="42.31815985625274" lon="14.293061561080924"><ele>108.0</ele><time>2026-05-01T09:04:12.999Z</time></trkpt><trkpt lat="42.317995320592814" lon="14.29296959771794"><ele>108.5</ele><time>2026-05-01T09:04:13.999Z</time></trkpt><trkpt lat="42.31785038675912" lon="14.292888075595723"><ele>109.0</ele><time>2026-05-01T09:04:14.999Z</time></trkpt><trkpt lat="42.31772551784036" lon="14.292813885444126"><ele>109.5</ele><time>2026-05-01T09:04:15.999Z</time></trkpt><trkpt lat="42.31761949143863" lon="14.29274728475746"><ele>110.0</ele><time>2026-05-01T09:04:16.999Z</time></trkpt><trkpt lat="42.31752666190167" lon="14.292688975475986"><ele>110.0</ele><time>2026-05-01T09:04:17.999Z</time></trkpt><trkpt lat="42.31742848089244" lon="14.292627302961202"><ele>110.0</ele><time>2026-05-01T09:04:18.999Z</time></trkpt><trkpt lat="42.31733289272963" lon="14.292588869260697"><ele>110.0</ele><time>2026-05-01T09:04:19.999Z</time></trkpt><trkpt lat="42.317234468090305" lon="14.292587726934748"><ele>110.0</ele><time>2026-05-01T09:04:20.999Z</time></trkpt><trkpt lat="42.31710543284034" lon="14.292599989831853"><ele>110.0</ele><time>2026-05-01T09:04:21.999Z</time></trkpt><trkpt lat="42.31695242867378" lon="14.292651697924125"><ele>106.66666666666666</ele><time>2026-05-01T09:04:22.999Z</time></trkpt><trkpt lat="42.316790606399735" lon="14.292637887330503"><ele>103.33333333333334</ele><time>2026-05-01T09:04:23.999Z</time></trkpt><trkpt lat="42.316626061881756" lon="14.292620131515605"><ele>100.0</ele><time>2026-05-01T09:04:24.999Z</time></trkpt><trkpt lat="42.31647864175202" lon="14.292587640316045"><ele>100.5</ele><time>2026-05-01T09:04:25.999Z</time></trkpt><trkpt lat="42.316351775935736" lon="14.292536118995347"><ele>101.0</ele><time>2026-05-01T09:04:26.999Z</time></trkpt><trkpt lat="42.31623388110504" lon="14.292441183953615"><ele>101.5</ele><time>2026-05-01T09:04:27.999Z</time></trkpt><trkpt lat="42.316103887972105" lon="14.292319823092363"><ele>102.0</ele><time>2026-05-01T09:04:28.999Z</time></trkpt><trkpt lat="42.31596843605591" lon="14.292203624753569"><ele>102.0</ele><time>2026-05-01T09:04:29.999Z</time></trkpt><trkpt lat="42.3158161797725" lon="14.29214304776669"><ele>102.0</ele><time>2026-05-01T09:04:30.999Z</time></trkpt><trkpt lat="42.315668506122904" lon="14.292055446736187"><ele>102.0</ele><time>2026-05-01T09:04:31.999Z</time></trkpt><trkpt lat="42.3155073576985" lon="14.291997215361235"><ele>97.33333333333333</ele><time>2026-05-01T09:04:32.999Z</time></trkpt><trkpt lat="42.31532503762577" lon="14.291979354653618"><ele>92.66666666666666</ele><time>2026-05-01T09:04:33.999Z</time></trkpt><trkpt lat="42.31513912809936" lon="14.291910425781442"><ele>88.0</ele><time>2026-05-01T09:04:34.999Z</time></trkpt><trkpt lat="42.31494087522531" lon="14.291844911860924"><ele>88.0</ele><time>2026-05-01T09:04:35.999Z</time></trkpt><trkpt lat="42.314740431491614" lon="14.291801367025515"><ele>88.0</ele><time>2026-05-01T09:04:36.999Z</time></trkpt><trkpt lat="42.3145559654959" lon="14.29176964361045"><ele>88.0</ele><time>2026-05-01T09:04:37.999Z</time></trkpt><trkpt lat="42.314384472429246" lon="14.291740721457558"><ele>87.75</ele><time>2026-05-01T09:04:38.999Z</time></trkpt><trkpt lat="42.31422483448744" lon="14.291711258510299"><ele>87.5</ele><time>2026-05-01T09:04:39.999Z</time></trkpt><trkpt lat="42.31407667586555" lon="14.291692073944175"><ele>87.25</ele><time>2026-05-01T09:04:40.999Z</time></trkpt><trkpt lat="42.31394685382024" lon="14.291687506020512"><ele>87.0</ele><time>2026-05-01T09:04:41.999Z</time></trkpt><trkpt lat="42.31383608700547" lon="14.291683993921795"><ele>87.0</ele><time>2026-05-01T09:04:42.999Z</time></trkpt><trkpt lat="42.3137531393665" lon="14.291674766269699"><ele>87.0</ele><time>2026-05-01T09:04:43.999Z</time></trkpt><trkpt lat="42.31365695875772" lon="14.291651977273245"><ele>87.0</ele><time>2026-05-01T09:04:45.999Z</time></trkpt><trkpt lat="42.31354769166203" lon="14.291598484161298"><ele>87.0</ele><time>2026-05-01T09:04:47.999Z</time></trkpt><trkpt lat="42.31348069395931" lon="14.291550750773293"><ele>87.0</ele><time>2026-05-01T09:04:48.999Z</time></trkpt><trkpt lat="42.31339722570236" lon="14.291462593233291"><ele>88.0</ele><time>2026-05-01T09:04:50.999Z</time></trkpt><trkpt lat="42.31303839576923" lon="14.291837454223932"><ele>88.0</ele><time>2026-05-01T09:04:52.999Z</time></trkpt><trkpt lat="42.31292460988766" lon="14.291803141234501"><ele>88.0</ele><time>2026-05-01T09:04:54.999Z</time></trkpt><trkpt lat="42.312870132397336" lon="14.291738551142627"><ele>88.0</ele><time>2026-05-01T09:04:55.999Z</time></trkpt><trkpt lat="42.31283035018005" lon="14.291659531477437"><ele>88.0</ele><time>2026-05-01T09:04:56.999Z</time></trkpt><trkpt lat="42.31281814050426" lon="14.291554494148178"><ele>88.0</ele><time>2026-05-01T09:04:57.999Z</time></trkpt><trkpt lat="42.31281799089299" lon="14.291433819148187"><ele>88.0</ele><time>2026-05-01T09:04:58.999Z</time></trkpt><trkpt lat="42.31280515552452" lon="14.291309513899568"><ele>89.0</ele><time>2026-05-01T09:04:59.999Z</time></trkpt><trkpt lat="42.3127551836871" lon="14.291230502297546"><ele>90.0</ele><time>2026-05-01T09:05:00.999Z</time></trkpt><trkpt lat="42.312687046358995" lon="14.291143525084484"><ele>91.0</ele><time>2026-05-01T09:05:01.999Z</time></trkpt><trkpt lat="42.31260258495071" lon="14.291071148779753"><ele>92.0</ele><time>2026-05-01T09:05:02.999Z</time></trkpt><trkpt lat="42.31251581672096" lon="14.29102187501579"><ele>93.0</ele><time>2026-05-01T09:05:03.999Z</time></trkpt><trkpt lat="42.31244318124234" lon="14.291010019167768"><ele>94.0</ele><time>2026-05-01T09:05:04.999Z</time></trkpt><trkpt lat="42.3123583004938" lon="14.291041193772982"><ele>94.0</ele><time>2026-05-01T09:05:05.999Z</time></trkpt><trkpt lat="42.31226009770748" lon="14.291100240954716"><ele>94.0</ele><time>2026-05-01T09:05:06.999Z</time></trkpt><trkpt lat="42.312172538344335" lon="14.291148389045617"><ele>94.0</ele><time>2026-05-01T09:05:07.999Z</time></trkpt><trkpt lat="42.31211049268458" lon="14.29117674545792"><ele>94.0</ele><time>2026-05-01T09:05:08.999Z</time></trkpt><trkpt lat="42.31204205705318" lon="14.291226078105076"><ele>94.0</ele><time>2026-05-01T09:05:10.999Z</time></trkpt><trkpt lat="42.31191527625552" lon="14.291270597054247"><ele>94.2</ele><time>2026-05-01T09:05:12.999Z</time></trkpt><trkpt lat="42.31185204188156" lon="14.291274906204125"><ele>94.4</ele><time>2026-05-01T09:05:13.999Z</time></trkpt><trkpt lat="42.311745855180085" lon="14.29127197782665"><ele>94.6</ele><time>2026-05-01T09:05:15.999Z</time></trkpt><trkpt lat="42.31166770517588" lon="14.291260369081012"><ele>94.8</ele><time>2026-05-01T09:05:17.999Z</time></trkpt><trkpt lat="42.31160064450975" lon="14.29128753939968"><ele>95.0</ele><time>2026-05-01T09:05:18.999Z</time></trkpt><trkpt lat="42.31148550523306" lon="14.291388573101846"><ele>94.4</ele><time>2026-05-01T09:05:20.999Z</time></trkpt><trkpt lat="42.31140600059911" lon="14.291440028689617"><ele>93.8</ele><time>2026-05-01T09:05:21.999Z</time></trkpt><trkpt lat="42.31130315400303" lon="14.291459492523334"><ele>93.19999999999999</ele><time>2026-05-01T09:05:22.999Z</time></trkpt><trkpt lat="42.31120909390835" lon="14.291436356139252"><ele>92.6</ele><time>2026-05-01T09:05:23.999Z</time></trkpt><trkpt lat="42.31112386807326" lon="14.291365435405062"><ele>92.0</ele><time>2026-05-01T09:05:24.999Z</time></trkpt><trkpt lat="42.31103702341456" lon="14.291239466841917"><ele>93.19999999999999</ele><time>2026-05-01T09:05:25.999Z</time></trkpt><trkpt lat="42.310965707572024" lon="14.291096681556725"><ele>94.4</ele><time>2026-05-01T09:05:26.999Z</time></trkpt><trkpt lat="42.310915555660806" lon="14.290990982294987"><ele>95.6</ele><time>2026-05-01T09:05:27.999Z</time></trkpt><trkpt lat="42.310845956924354" lon="14.29092042844944"><ele>96.80000000000001</ele><time>2026-05-01T09:05:28.999Z</time></trkpt><trkpt lat="42.310756953257794" lon="14.290858164290016"><ele>98.0</ele><time>2026-05-01T09:05:29.999Z</time></trkpt><trkpt lat="42.310655702484716" lon="14.290808543440823"><ele>100.0</ele><time>2026-05-01T09:05:30.999Z</time></trkpt><trkpt lat="42.31054831936995" lon="14.290764843939307"><ele>102.0</ele><time>2026-05-01T09:05:31.999Z</time></trkpt><trkpt lat="42.31045016179742" lon="14.29072661307657"><ele>104.00000000000001</ele><time>2026-05-01T09:05:32.999Z</time></trkpt><trkpt lat="42.310345683814916" lon="14.290698152763994"><ele>106.0</ele><time>2026-05-01T09:05:33.999Z</time></trkpt><trkpt lat="42.310239094633324" lon="14.290688214309158"><ele>108.0</ele><time>2026-05-01T09:05:34.999Z</time></trkpt><trkpt lat="42.31012104218984" lon="14.290694366597094"><ele>108.0</ele><time>2026-05-01T09:05:35.999Z</time></trkpt><trkpt lat="42.309991725685855" lon="14.290706206010636"><ele>108.00000000000001</ele><time>2026-05-01T09:05:36.999Z</time></trkpt><trkpt lat="42.30988912071844" lon="14.2907034810778"><ele>108.00000000000001</ele><time>2026-05-01T09:05:37.999Z</time></trkpt><trkpt lat="42.309797316052155" lon="14.290682869476939"><ele>108.0</ele><time>2026-05-01T09:05:39Z</time></trkpt><trkpt lat="42.30971222348354" lon="14.290649982974825"><ele>108.0</ele><time>2026-05-01T09:05:40Z</time></trkpt><trkpt lat="42.30964619288661" lon="14.290620171653229"><ele>109.4</ele><time>2026-05-01T09:05:41Z</time></trkpt><trkpt lat="42.30958070472837" lon="14.290584369019031"><ele>110.80000000000001</ele><time>2026-05-01T09:05:43Z</time></trkpt><trkpt lat="42.30950799789935" lon="14.290680711783427"><ele>112.2</ele><time>2026-05-01T09:05:45Z</time></trkpt><trkpt lat="42.3094385834256" lon="14.290784349236372"><ele>113.6</ele><time>2026-05-01T09:05:46Z</time></trkpt><trkpt lat="42.30934488437671" lon="14.290917293341408"><ele>115.0</ele><time>2026-05-01T09:05:47Z</time></trkpt><trkpt lat="42.3092143095672" lon="14.291015117657627"><ele>115.0</ele><time>2026-05-01T09:05:48Z</time></trkpt><trkpt lat="42.30910084038979" lon="14.29111003261595"><ele>115.0</ele><time>2026-05-01T09:05:49Z</time></trkpt><trkpt lat="42.308974876678626" lon="14.291191705007023"><ele>115.0</ele><time>2026-05-01T09:05:50Z</time></trkpt><trkpt lat="42.30886814162039" lon="14.291245574924483"><ele>115.0</ele><time>2026-05-01T09:05:51Z</time></trkpt><trkpt lat="42.308767379486504" lon="14.29129222932905"><ele>114.6</ele><time>2026-05-01T09:05:52Z</time></trkpt><trkpt lat="42.30867153966103" lon="14.291337001047646"><ele>114.2</ele><time>2026-05-01T09:05:53Z</time></trkpt><trkpt lat="42.30858144480472" lon="14.291381300371695"><ele>113.80000000000001</ele><time>2026-05-01T09:05:54Z</time></trkpt><trkpt lat="42.30849577415723" lon="14.291460242347279"><ele>113.4</ele><time>2026-05-01T09:05:55Z</time></trkpt><trkpt lat="42.30842312342985" lon="14.29158157985998"><ele>113.0</ele><time>2026-05-01T09:05:56Z</time></trkpt><trkpt lat="42.30831977071664" lon="14.291708891107241"><ele>113.0</ele><time>2026-05-01T09:05:57Z</time></trkpt><trkpt lat="42.308199746490466" lon="14.291864139675903"><ele>113.0</ele><time>2026-05-01T09:05:58Z</time></trkpt><trkpt lat="42.308071260455726" lon="14.291957993203065"><ele>113.0</ele><time>2026-05-01T09:05:59Z</time></trkpt><trkpt lat="42.30795203246546" lon="14.292013270290415"><ele>113.0</ele><time>2026-05-01T09:06:00Z</time></trkpt><trkpt lat="42.30781768229872" lon="14.292057272266755"><ele>112.66666666666666</ele><time>2026-05-01T09:06:01Z</time></trkpt><trkpt lat="42.30767731551533" lon="14.292117829783423"><ele>112.33333333333334</ele><time>2026-05-01T09:06:02Z</time></trkpt><trkpt lat="42.30753991302145" lon="14.292184070937738"><ele>112.0</ele><time>2026-05-01T09:06:03Z</time></trkpt><trkpt lat="42.30739931316493" lon="14.292278243869083"><ele>112.0</ele><time>2026-05-01T09:06:04Z</time></trkpt><trkpt lat="42.30726363890774" lon="14.292332791791617"><ele>112.0</ele><time>2026-05-01T09:06:05Z</time></trkpt><trkpt lat="42.307115215256864" lon="14.292342207499697"><ele>112.0</ele><time>2026-05-01T09:06:06Z</time></trkpt><trkpt lat="42.30696793827824" lon="14.292346431090465"><ele>112.0</ele><time>2026-05-01T09:06:07Z</time></trkpt><trkpt lat="42.30682211261319" lon="14.29237445032379"><ele>113.0</ele><time>2026-05-01T09:06:08Z</time></trkpt><trkpt lat="42.30668324974501" lon="14.292447305703732"><ele>114.0</ele><time>2026-05-01T09:06:09Z</time></trkpt><trkpt lat="42.30653489983023" lon="14.292524194510362"><ele>115.0</ele><time>2026-05-01T09:06:10Z</time></trkpt><trkpt lat="42.30637933109551" lon="14.292594994969248"><ele>116.0</ele><time>2026-05-01T09:06:10.999Z</time></trkpt><trkpt lat="42.30622349438609" lon="14.292605873964384"><ele>117.0</ele><time>2026-05-01T09:06:11.999Z</time></trkpt><trkpt lat="42.30607757270287" lon="14.292599023147748"><ele>118.0</ele><time>2026-05-01T09:06:12.999Z</time></trkpt><trkpt lat="42.305934372504176" lon="14.292584733123114"><ele>119.0</ele><time>2026-05-01T09:06:13.999Z</time></trkpt><trkpt lat="42.30579395271114" lon="14.292570689369612"><ele>119.0</ele><time>2026-05-01T09:06:14.999Z</time></trkpt><trkpt lat="42.30565738013642" lon="14.292558280164483"><ele>119.0</ele><time>2026-05-01T09:06:15.999Z</time></trkpt><trkpt lat="42.30551732047095" lon="14.29254122296276"><ele>119.0</ele><time>2026-05-01T09:06:16.999Z</time></trkpt><trkpt lat="42.30538412732281" lon="14.29251824361593"><ele>119.0</ele><time>2026-05-01T09:06:17.999Z</time></trkpt><trkpt lat="42.30524787530692" lon="14.292517529089153"><ele>119.6</ele><time>2026-05-01T09:06:18.999Z</time></trkpt><trkpt lat="42.30512252986022" lon="14.292496749449091"><ele>120.2</ele><time>2026-05-01T09:06:19.999Z</time></trkpt><trkpt lat="42.30500751945193" lon="14.292494843196096"><ele>120.79999999999998</ele><time>2026-05-01T09:06:20.999Z</time></trkpt><trkpt lat="42.30492377435675" lon="14.292520956171435"><ele>121.39999999999999</ele><time>2026-05-01T09:06:21.999Z</time></trkpt><trkpt lat="42.3048576543275" lon="14.292562084433602"><ele>122.0</ele><time>2026-05-01T09:06:22.999Z</time></trkpt><trkpt lat="42.30477221392502" lon="14.292638304049994"><ele>121.75</ele><time>2026-05-01T09:06:23.999Z</time></trkpt><trkpt lat="42.30467792369405" lon="14.29276405815299"><ele>121.5</ele><time>2026-05-01T09:06:24.999Z</time></trkpt><trkpt lat="42.304547628830484" lon="14.292853406893704"><ele>121.25</ele><time>2026-05-01T09:06:25.999Z</time></trkpt><trkpt lat="42.30443337850496" lon="14.29290541033257"><ele>121.0</ele><time>2026-05-01T09:06:26.999Z</time></trkpt><trkpt lat="42.304295170639264" lon="14.29295203177249"><ele>121.0</ele><time>2026-05-01T09:06:27.999Z</time></trkpt><trkpt lat="42.304131987763036" lon="14.292994291375933"><ele>121.0</ele><time>2026-05-01T09:06:28.999Z</time></trkpt><trkpt lat="42.3039666538568" lon="14.293037438073315"><ele>121.0</ele><time>2026-05-01T09:06:29.999Z</time></trkpt><trkpt lat="42.30381564654062" lon="14.29301884613447"><ele>119.33333333333334</ele><time>2026-05-01T09:06:30.999Z</time></trkpt><trkpt lat="42.30366167840358" lon="14.293012739631523"><ele>117.66666666666666</ele><time>2026-05-01T09:06:31.999Z</time></trkpt><trkpt lat="42.30349831760972" lon="14.293000415440051"><ele>116.0</ele><time>2026-05-01T09:06:32.999Z</time></trkpt><trkpt lat="42.30334398225943" lon="14.292984351173153"><ele>116.0</ele><time>2026-05-01T09:06:33.999Z</time></trkpt><trkpt lat="42.30319118849266" lon="14.292966189778845"><ele>116.0</ele><time>2026-05-01T09:06:34.999Z</time></trkpt><trkpt lat="42.303038452235015" lon="14.292946251538748"><ele>116.0</ele><time>2026-05-01T09:06:35.999Z</time></trkpt><trkpt lat="42.30287605403937" lon="14.292925053661541"><ele>116.0</ele><time>2026-05-01T09:06:36.999Z</time></trkpt><trkpt lat="42.30270844245161" lon="14.292899771576746"><ele>116.0</ele><time>2026-05-01T09:06:37.999Z</time></trkpt><trkpt lat="42.302541617019656" lon="14.292873692629485"><ele>116.0</ele><time>2026-05-01T09:06:38.999Z</time></trkpt><trkpt lat="42.30237494748162" lon="14.292847021172253"><ele>116.33333333333333</ele><time>2026-05-01T09:06:39.999Z</time></trkpt><trkpt lat="42.302199293289526" lon="14.292817520054586"><ele>116.66666666666666</ele><time>2026-05-01T09:06:40.999Z</time></trkpt><trkpt lat="42.302021314871354" lon="14.29278762860859"><ele>117.0</ele><time>2026-05-01T09:06:41.999Z</time></trkpt><trkpt lat="42.30184494186946" lon="14.292763983734815"><ele>117.0</ele><time>2026-05-01T09:06:42.999Z</time></trkpt><trkpt lat="42.301684630891444" lon="14.292743102336342"><ele>117.0</ele><time>2026-05-01T09:06:43.999Z</time></trkpt><trkpt lat="42.301512738041886" lon="14.292712216774257"><ele>117.0</ele><time>2026-05-01T09:06:44.999Z</time></trkpt><trkpt lat="42.301331456777746" lon="14.292660084465998"><ele>118.0</ele><time>2026-05-01T09:06:45.999Z</time></trkpt><trkpt lat="42.30114880362034" lon="14.292612755880363"><ele>119.0</ele><time>2026-05-01T09:06:46.999Z</time></trkpt><trkpt lat="42.300978670198944" lon="14.292574659104657"><ele>120.0</ele><time>2026-05-01T09:06:47.999Z</time></trkpt><trkpt lat="42.30082545069297" lon="14.29257081972934"><ele>120.0</ele><time>2026-05-01T09:06:48.999Z</time></trkpt><trkpt lat="42.30067997932102" lon="14.292560442422829"><ele>120.0</ele><time>2026-05-01T09:06:49.999Z</time></trkpt><trkpt lat="42.30052114644951" lon="14.292545104628369"><ele>120.0</ele><time>2026-05-01T09:06:50.999Z</time></trkpt><trkpt lat="42.30038286681437" lon="14.292537605298023"><ele>120.0</ele><time>2026-05-01T09:06:51.999Z</time></trkpt><trkpt lat="42.30026842232245" lon="14.29251043852152"><ele>120.25</ele><time>2026-05-01T09:06:52.999Z</time></trkpt><trkpt lat="42.30019376742275" lon="14.292422998629384"><ele>120.5</ele><time>2026-05-01T09:06:53.999Z</time></trkpt><trkpt lat="42.300091905130365" lon="14.29233684582972"><ele>120.75</ele><time>2026-05-01T09:06:54.999Z</time></trkpt><trkpt lat="42.29997798431326" lon="14.292236366506005"><ele>121.0</ele><time>2026-05-01T09:06:55.999Z</time></trkpt><trkpt lat="42.29988287836756" lon="14.29214640550288"><ele>123.75</ele><time>2026-05-01T09:06:56.999Z</time></trkpt><trkpt lat="42.299822142956856" lon="14.29208344307756"><ele>126.5</ele><time>2026-05-01T09:06:57.999Z</time></trkpt><trkpt lat="42.299696135754935" lon="14.292110770346417"><ele>129.25</ele><time>2026-05-01T09:06:59.999Z</time></trkpt><trkpt lat="42.29958988071343" lon="14.292155358930536"><ele>132.0</ele><time>2026-05-01T09:07:00.999Z</time></trkpt><trkpt lat="42.299448309460196" lon="14.292187440749785"><ele>132.33333333333334</ele><time>2026-05-01T09:07:01.999Z</time></trkpt><trkpt lat="42.29928873245707" lon="14.292157849183427"><ele>132.66666666666669</ele><time>2026-05-01T09:07:02.999Z</time></trkpt><trkpt lat="42.29911545780202" lon="14.29212662507643"><ele>133.0</ele><time>2026-05-01T09:07:03.999Z</time></trkpt><trkpt lat="42.29894034908872" lon="14.292130113546525"><ele>133.33333333333334</ele><time>2026-05-01T09:07:04.999Z</time></trkpt><trkpt lat="42.298750570330796" lon="14.292129041896297"><ele>133.66666666666666</ele><time>2026-05-01T09:07:05.999Z</time></trkpt><trkpt lat="42.298560403006526" lon="14.292155291929339"><ele>134.0</ele><time>2026-05-01T09:07:06.999Z</time></trkpt><trkpt lat="42.29838617314218" lon="14.292150627776596"><ele>134.0</ele><time>2026-05-01T09:07:07.999Z</time></trkpt><trkpt lat="42.298241367372704" lon="14.292161559894115"><ele>134.0</ele><time>2026-05-01T09:07:08.999Z</time></trkpt><trkpt lat="42.29812272933074" lon="14.292194304939914"><ele>134.0</ele><time>2026-05-01T09:07:09.999Z</time></trkpt><trkpt lat="42.29803515735976" lon="14.292210057088875"><ele>134.0</ele><time>2026-05-01T09:07:10.999Z</time></trkpt><trkpt lat="42.297968821004076" lon="14.292256542209195"><ele>134.0</ele><time>2026-05-01T09:07:11.999Z</time></trkpt><trkpt lat="42.297928511923246" lon="14.292357984884275"><ele>131.2</ele><time>2026-05-01T09:07:12.999Z</time></trkpt><trkpt lat="42.29791161403913" lon="14.292516840780916"><ele>128.4</ele><time>2026-05-01T09:07:13.999Z</time></trkpt><trkpt lat="42.29790722663662" lon="14.29270482024939"><ele>125.6</ele><time>2026-05-01T09:07:14.999Z</time></trkpt><trkpt lat="42.29790803907431" lon="14.292855508089014"><ele>122.8</ele><time>2026-05-01T09:07:15.999Z</time></trkpt><trkpt lat="42.2979141236473" lon="14.29295067984033"><ele>120.0</ele><time>2026-05-01T09:07:16.999Z</time></trkpt><trkpt lat="42.297921462026075" lon="14.29305308876814"><ele>120.0</ele><time>2026-05-01T09:07:18.999Z</time></trkpt><trkpt lat="42.29785723799969" lon="14.293013163820463"><ele>120.0</ele><time>2026-05-01T09:07:21.999Z</time></trkpt><trkpt lat="42.297752720649164" lon="14.292908477588604"><ele>120.0</ele><time>2026-05-01T09:07:23.999Z</time></trkpt><trkpt lat="42.29767519071863" lon="14.29284910474998"><ele>120.0</ele><time>2026-05-01T09:07:24.999Z</time></trkpt><trkpt lat="42.29760579156796" lon="14.292775425389015"><ele>120.0</ele><time>2026-05-01T09:07:25.999Z</time></trkpt><trkpt lat="42.297535797606656" lon="14.29270183964653"><ele>120.0</ele><time>2026-05-01T09:07:26.999Z</time></trkpt><trkpt lat="42.29747202455778" lon="14.292637300899052"><ele>120.0</ele><time>2026-05-01T09:07:27.999Z</time></trkpt><trkpt lat="42.29739673604531" lon="14.292561644635901"><ele>120.0</ele><time>2026-05-01T09:07:28.999Z</time></trkpt><trkpt lat="42.297320736615085" lon="14.292467077601694"><ele>120.0</ele><time>2026-05-01T09:07:29.999Z</time></trkpt><trkpt lat="42.297228302673375" lon="14.292378211878216"><ele>120.0</ele><time>2026-05-01T09:07:30.999Z</time></trkpt><trkpt lat="42.29713201937169" lon="14.292285645470924"><ele>123.75</ele><time>2026-05-01T09:07:31.999Z</time></trkpt><trkpt lat="42.297034007299246" lon="14.292190299373447"><ele>127.5</ele><time>2026-05-01T09:07:32.999Z</time></trkpt><trkpt lat="42.29692926469865" lon="14.292114753867592"><ele>131.25</ele><time>2026-05-01T09:07:33.999Z</time></trkpt><trkpt lat="42.29681070653382" lon="14.291990491040485"><ele>135.0</ele><time>2026-05-01T09:07:34.999Z</time></trkpt><trkpt lat="42.296682596400366" lon="14.291898562249665"><ele>135.0</ele><time>2026-05-01T09:07:35.999Z</time></trkpt><trkpt lat="42.296546995207194" lon="14.291818944529526"><ele>135.0</ele><time>2026-05-01T09:07:36.999Z</time></trkpt><trkpt lat="42.29643394330848" lon="14.29171485585203"><ele>135.0</ele><time>2026-05-01T09:07:37.999Z</time></trkpt><trkpt lat="42.29633615340967" lon="14.291677763255086"><ele>135.0</ele><time>2026-05-01T09:07:38.999Z</time></trkpt><trkpt lat="42.29626834786378" lon="14.291633621275576"><ele>134.6</ele><time>2026-05-01T09:07:39.999Z</time></trkpt><trkpt lat="42.29621761253414" lon="14.291558267146124"><ele>134.2</ele><time>2026-05-01T09:07:41.999Z</time></trkpt><trkpt lat="42.29623021744911" lon="14.291459025426974"><ele>133.8</ele><time>2026-05-01T09:07:43.999Z</time></trkpt><trkpt lat="42.296267497567264" lon="14.291340004527465"><ele>133.4</ele><time>2026-05-01T09:07:45Z</time></trkpt><trkpt lat="42.296311870394774" lon="14.291202655026396"><ele>133.0</ele><time>2026-05-01T09:07:46Z</time></trkpt><trkpt lat="42.296355380434996" lon="14.291024657857019"><ele>133.0</ele><time>2026-05-01T09:07:47Z</time></trkpt><trkpt lat="42.29640848809514" lon="14.290901837207054"><ele>133.0</ele><time>2026-05-01T09:07:48Z</time></trkpt><trkpt lat="42.29645489511768" lon="14.290766269066921"><ele>133.0</ele><time>2026-05-01T09:07:49Z</time></trkpt><trkpt lat="42.296502430630966" lon="14.290637058930344"><ele>133.0</ele><time>2026-05-01T09:07:50Z</time></trkpt><trkpt lat="42.296564171560235" lon="14.290514376548069"><ele>133.0</ele><time>2026-05-01T09:07:51Z</time></trkpt><trkpt lat="42.29662236070758" lon="14.290409274654667"><ele>139.0</ele><time>2026-05-01T09:07:52Z</time></trkpt><trkpt lat="42.29668063378629" lon="14.29029308076688"><ele>145.0</ele><time>2026-05-01T09:07:53Z</time></trkpt><trkpt lat="42.29673270524926" lon="14.290188821333249"><ele>151.0</ele><time>2026-05-01T09:07:54Z</time></trkpt><trkpt lat="42.296767255863486" lon="14.290088021655093"><ele>157.0</ele><time>2026-05-01T09:07:55Z</time></trkpt><trkpt lat="42.296801466466526" lon="14.289964778942265"><ele>163.0</ele><time>2026-05-01T09:07:56Z</time></trkpt><trkpt lat="42.29687687972946" lon="14.289875604053423"><ele>163.0</ele><time>2026-05-01T09:07:57Z</time></trkpt><trkpt lat="42.29693273367639" lon="14.289777911416435"><ele>163.0</ele><time>2026-05-01T09:07:58Z</time></trkpt><trkpt lat="42.296982036641786" lon="14.289666626025816"><ele>163.0</ele><time>2026-05-01T09:07:59Z</time></trkpt><trkpt lat="42.297043556476766" lon="14.289565970153552"><ele>163.0</ele><time>2026-05-01T09:08:00Z</time></trkpt><trkpt lat="42.29709086229684" lon="14.289463759500109"><ele>163.0</ele><time>2026-05-01T09:08:01Z</time></trkpt><trkpt lat="42.297131401631134" lon="14.289357605836988"><ele>165.60000000000002</ele><time>2026-05-01T09:08:02Z</time></trkpt><trkpt lat="42.29717902621685" lon="14.289268978944385"><ele>168.20000000000002</ele><time>2026-05-01T09:08:03Z</time></trkpt><trkpt lat="42.29722530500309" lon="14.289185799915732"><ele>170.8</ele><time>2026-05-01T09:08:04Z</time></trkpt><trkpt lat="42.29731719846081" lon="14.289084896689785"><ele>173.4</ele><time>2026-05-01T09:08:07Z</time></trkpt><trkpt lat="42.29743000318913" lon="14.28911698829553"><ele>176.0</ele><time>2026-05-01T09:08:09Z</time></trkpt><trkpt lat="42.29749347525294" lon="14.289111203895251"><ele>178.0</ele><time>2026-05-01T09:08:11Z</time></trkpt><trkpt lat="42.297463463523584" lon="14.289033681749212"><ele>180.0</ele><time>2026-05-01T09:08:13Z</time></trkpt><trkpt lat="42.297320163033795" lon="14.288995612805294"><ele>182.0</ele><time>2026-05-01T09:08:15Z</time></trkpt><trkpt lat="42.29720624631414" lon="14.288923923816713"><ele>184.0</ele><time>2026-05-01T09:08:16Z</time></trkpt><trkpt lat="42.29708341704812" lon="14.288842494883365"><ele>185.66666666666669</ele><time>2026-05-01T09:08:17Z</time></trkpt><trkpt lat="42.29693308229534" lon="14.288797374136115"><ele>187.33333333333334</ele><time>2026-05-01T09:08:18Z</time></trkpt><trkpt lat="42.29677374813181" lon="14.288760596698113"><ele>189.0</ele><time>2026-05-01T09:08:19Z</time></trkpt><trkpt lat="42.29663101963664" lon="14.288729100023417"><ele>189.0</ele><time>2026-05-01T09:08:20Z</time></trkpt><trkpt lat="42.29649844504458" lon="14.28870361285398"><ele>189.0</ele><time>2026-05-01T09:08:20.999Z</time></trkpt><trkpt lat="42.29636571641636" lon="14.288674556789063"><ele>189.0</ele><time>2026-05-01T09:08:21.999Z</time></trkpt><trkpt lat="42.296236234064004" lon="14.288652135462234"><ele>189.0</ele><time>2026-05-01T09:08:22.999Z</time></trkpt><trkpt lat="42.296108294691024" lon="14.288627452679954"><ele>184.25</ele><time>2026-05-01T09:08:23.999Z</time></trkpt><trkpt lat="42.29600319620299" lon="14.288579698398383"><ele>179.5</ele><time>2026-05-01T09:08:24.999Z</time></trkpt><trkpt lat="42.295924976637444" lon="14.288449683932102"><ele>174.75</ele><time>2026-05-01T09:08:25.999Z</time></trkpt><trkpt lat="42.295839024206266" lon="14.288333420045635"><ele>170.0</ele><time>2026-05-01T09:08:26.999Z</time></trkpt><trkpt lat="42.29577779977458" lon="14.288197316281805"><ele>172.75</ele><time>2026-05-01T09:08:27.999Z</time></trkpt><trkpt lat="42.29571198522698" lon="14.288055355980976"><ele>175.5</ele><time>2026-05-01T09:08:28.999Z</time></trkpt><trkpt lat="42.295633257132046" lon="14.28793400589798"><ele>178.25</ele><time>2026-05-01T09:08:29.999Z</time></trkpt><trkpt lat="42.29555037314135" lon="14.287831604388026"><ele>181.0</ele><time>2026-05-01T09:08:30.999Z</time></trkpt><trkpt lat="42.29544018706691" lon="14.287768668371736"><ele>174.25</ele><time>2026-05-01T09:08:31.999Z</time></trkpt><trkpt lat="42.29534078548491" lon="14.28769743534112"><ele>167.5</ele><time>2026-05-01T09:08:32.999Z</time></trkpt><trkpt lat="42.295262437780714" lon="14.287600845978465"><ele>160.75</ele><time>2026-05-01T09:08:33.999Z</time></trkpt><trkpt lat="42.29518070140039" lon="14.287451572009038"><ele>154.0</ele><time>2026-05-01T09:08:34.999Z</time></trkpt><trkpt lat="42.295077007549324" lon="14.287323593342368"><ele>156.5</ele><time>2026-05-01T09:08:35.999Z</time></trkpt><trkpt lat="42.29498347793491" lon="14.287202861374066"><ele>159.0</ele><time>2026-05-01T09:08:36.999Z</time></trkpt><trkpt lat="42.29490772856804" lon="14.287066019198225"><ele>161.5</ele><time>2026-05-01T09:08:37.999Z</time></trkpt><trkpt lat="42.29484126747731" lon="14.286896931038232"><ele>164.0</ele><time>2026-05-01T09:08:38.999Z</time></trkpt><trkpt lat="42.29479222754011" lon="14.286711038395094"><ele>160.25</ele><time>2026-05-01T09:08:39.999Z</time></trkpt><trkpt lat="42.29471032797886" lon="14.2865537051944"><ele>156.5</ele><time>2026-05-01T09:08:40.999Z</time></trkpt><trkpt lat="42.29462842369227" lon="14.286399511128758"><ele>152.75</ele><time>2026-05-01T09:08:41.999Z</time></trkpt><trkpt lat="42.2945420405527" lon="14.28624957781274"><ele>149.0</ele><time>2026-05-01T09:08:42.999Z</time></trkpt><trkpt lat="42.29445738478533" lon="14.286116782182633"><ele>149.0</ele><time>2026-05-01T09:08:43.999Z</time></trkpt><trkpt lat="42.29434961666062" lon="14.286004811294712"><ele>149.0</ele><time>2026-05-01T09:08:44.999Z</time></trkpt><trkpt lat="42.29421609308691" lon="14.285910871531025"><ele>149.0</ele><time>2026-05-01T09:08:45.999Z</time></trkpt><trkpt lat="42.294089550477985" lon="14.285830401390466"><ele>149.0</ele><time>2026-05-01T09:08:46.999Z</time></trkpt><trkpt lat="42.293975829690844" lon="14.285770252582891"><ele>147.5</ele><time>2026-05-01T09:08:47.999Z</time></trkpt><trkpt lat="42.29386714823807" lon="14.28569568924795"><ele>146.0</ele><time>2026-05-01T09:08:48.999Z</time></trkpt><trkpt lat="42.29374732555007" lon="14.285601773364016"><ele>144.5</ele><time>2026-05-01T09:08:49.999Z</time></trkpt><trkpt lat="42.29361962380759" lon="14.285459795899218"><ele>143.0</ele><time>2026-05-01T09:08:50.999Z</time></trkpt><trkpt lat="42.29349780706559" lon="14.285340824517785"><ele>143.0</ele><time>2026-05-01T09:08:51.999Z</time></trkpt><trkpt lat="42.293395143689715" lon="14.285225940734348"><ele>143.0</ele><time>2026-05-01T09:08:52.999Z</time></trkpt><trkpt lat="42.29331908295273" lon="14.2851231612356"><ele>143.0</ele><time>2026-05-01T09:08:53.999Z</time></trkpt><trkpt lat="42.293260829864764" lon="14.285025376103844"><ele>143.0</ele><time>2026-05-01T09:08:54.999Z</time></trkpt><trkpt lat="42.29317506230125" lon="14.284964768543963"><ele>143.0</ele><time>2026-05-01T09:08:55.999Z</time></trkpt><trkpt lat="42.29305047166317" lon="14.284903754399178"><ele>141.0</ele><time>2026-05-01T09:08:56.999Z</time></trkpt><trkpt lat="42.29291867851952" lon="14.284838552847694"><ele>139.0</ele><time>2026-05-01T09:08:57.999Z</time></trkpt><trkpt lat="42.292797906799436" lon="14.284759313023885"><ele>137.0</ele><time>2026-05-01T09:08:58.999Z</time></trkpt><trkpt lat="42.29268694048725" lon="14.284691848699534"><ele>135.0</ele><time>2026-05-01T09:08:59.999Z</time></trkpt><trkpt lat="42.29259044090424" lon="14.284625586973744"><ele>135.0</ele><time>2026-05-01T09:09:00.999Z</time></trkpt><trkpt lat="42.292506004131106" lon="14.284527555679196"><ele>135.0</ele><time>2026-05-01T09:09:01.999Z</time></trkpt><trkpt lat="42.292421639067264" lon="14.284397628555054"><ele>135.0</ele><time>2026-05-01T09:09:02.999Z</time></trkpt><trkpt lat="42.292317436144145" lon="14.284255182357212"><ele>135.0</ele><time>2026-05-01T09:09:03.999Z</time></trkpt><trkpt lat="42.29221969022987" lon="14.28411636820524"><ele>134.5</ele><time>2026-05-01T09:09:04.999Z</time></trkpt><trkpt lat="42.292133956814894" lon="14.283976630893866"><ele>134.0</ele><time>2026-05-01T09:09:05.999Z</time></trkpt><trkpt lat="42.29205365481869" lon="14.28385050733432"><ele>133.5</ele><time>2026-05-01T09:09:06.999Z</time></trkpt><trkpt lat="42.291971750708875" lon="14.283755834653995"><ele>133.0</ele><time>2026-05-01T09:09:07.999Z</time></trkpt><trkpt lat="42.29186265069447" lon="14.283653782736646"><ele>137.33333333333334</ele><time>2026-05-01T09:09:08.999Z</time></trkpt><trkpt lat="42.29173783191384" lon="14.283528135224032"><ele>141.66666666666666</ele><time>2026-05-01T09:09:09.999Z</time></trkpt><trkpt lat="42.291604491760616" lon="14.283394642857312"><ele>146.0</ele><time>2026-05-01T09:09:10.999Z</time></trkpt><trkpt lat="42.291465937232886" lon="14.283271254563555"><ele>145.0</ele><time>2026-05-01T09:09:11.999Z</time></trkpt><trkpt lat="42.29133945057493" lon="14.283175869236478"><ele>144.0</ele><time>2026-05-01T09:09:12.999Z</time></trkpt><trkpt lat="42.29125618908234" lon="14.28307677064259"><ele>143.0</ele><time>2026-05-01T09:09:13.999Z</time></trkpt><trkpt lat="42.2911904395532" lon="14.282956094583877"><ele>142.0</ele><time>2026-05-01T09:09:14.999Z</time></trkpt><trkpt lat="42.29114038402093" lon="14.282810328012129"><ele>143.6</ele><time>2026-05-01T09:09:15.999Z</time></trkpt><trkpt lat="42.29111043536094" lon="14.282658474976852"><ele>145.2</ele><time>2026-05-01T09:09:16.999Z</time></trkpt><trkpt lat="42.29110276179937" lon="14.282492362030904"><ele>146.8</ele><time>2026-05-01T09:09:17.999Z</time></trkpt><trkpt lat="42.29109753590207" lon="14.282343065416711"><ele>148.4</ele><time>2026-05-01T09:09:18.999Z</time></trkpt><trkpt lat="42.29106741550668" lon="14.282242235408726"><ele>150.0</ele><time>2026-05-01T09:09:19.999Z</time></trkpt><trkpt lat="42.29101343210051" lon="14.282167434798538"><ele>153.2</ele><time>2026-05-01T09:09:20.999Z</time></trkpt><trkpt lat="42.290952527474346" lon="14.282096178857783"><ele>156.4</ele><time>2026-05-01T09:09:21.999Z</time></trkpt><trkpt lat="42.29088202424623" lon="14.281977098487696"><ele>159.60000000000002</ele><time>2026-05-01T09:09:22.999Z</time></trkpt><trkpt lat="42.29082734215056" lon="14.281830095271859"><ele>162.8</ele><time>2026-05-01T09:09:23.999Z</time></trkpt><trkpt lat="42.290789907764996" lon="14.281666084457722"><ele>166.0</ele><time>2026-05-01T09:09:24.999Z</time></trkpt><trkpt lat="42.290786174181136" lon="14.28149605056157"><ele>169.25</ele><time>2026-05-01T09:09:25.999Z</time></trkpt><trkpt lat="42.2908056629915" lon="14.281313502380419"><ele>172.5</ele><time>2026-05-01T09:09:26.999Z</time></trkpt><trkpt lat="42.29082746753367" lon="14.281122818602118"><ele>175.75</ele><time>2026-05-01T09:09:27.999Z</time></trkpt><trkpt lat="42.290831582815116" lon="14.280930869551536"><ele>179.0</ele><time>2026-05-01T09:09:28.999Z</time></trkpt><trkpt lat="42.29082035343948" lon="14.280736877596176"><ele>181.79999999999998</ele><time>2026-05-01T09:09:29.999Z</time></trkpt><trkpt lat="42.290809746509616" lon="14.280560583095234"><ele>184.6</ele><time>2026-05-01T09:09:30.999Z</time></trkpt><trkpt lat="42.29079075202172" lon="14.280435109781664"><ele>187.4</ele><time>2026-05-01T09:09:31.999Z</time></trkpt><trkpt lat="42.29075976136583" lon="14.2803239386257"><ele>190.2</ele><time>2026-05-01T09:09:32.999Z</time></trkpt><trkpt lat="42.29070215443091" lon="14.28021246352232"><ele>193.0</ele><time>2026-05-01T09:09:33.999Z</time></trkpt><trkpt lat="42.290624361471885" lon="14.280074352277468"><ele>193.0</ele><time>2026-05-01T09:09:34.999Z</time></trkpt><trkpt lat="42.29053433263409" lon="14.27991824592134"><ele>193.0</ele><time>2026-05-01T09:09:35.999Z</time></trkpt><trkpt lat="42.29048539814" lon="14.279792652011812"><ele>193.0</ele><time>2026-05-01T09:09:36.999Z</time></trkpt><trkpt lat="42.290470838151975" lon="14.27967980303207"><ele>193.0</ele><time>2026-05-01T09:09:37.999Z</time></trkpt><trkpt lat="42.290455801774954" lon="14.27953627080818"><ele>193.0</ele><time>2026-05-01T09:09:38.999Z</time></trkpt><trkpt lat="42.29043727538182" lon="14.279405487881984"><ele>193.0</ele><time>2026-05-01T09:09:39.999Z</time></trkpt><trkpt lat="42.290414127411296" lon="14.279317078645963"><ele>193.0</ele><time>2026-05-01T09:09:40.999Z</time></trkpt><trkpt lat="42.29037546786516" lon="14.279245911008655"><ele>193.0</ele><time>2026-05-01T09:09:41.999Z</time></trkpt><trkpt lat="42.29030821807006" lon="14.279171606504532"><ele>193.0</ele><time>2026-05-01T09:09:42.999Z</time></trkpt><trkpt lat="42.29019743447474" lon="14.27909182711079"><ele>193.0</ele><time>2026-05-01T09:09:43.999Z</time></trkpt><trkpt lat="42.290080179541185" lon="14.27902428001476"><ele>193.0</ele><time>2026-05-01T09:09:44.999Z</time></trkpt><trkpt lat="42.28998901007117" lon="14.278947900390365"><ele>193.0</ele><time>2026-05-01T09:09:45.999Z</time></trkpt><trkpt lat="42.28993607672835" lon="14.278834655610796"><ele>193.0</ele><time>2026-05-01T09:09:46.999Z</time></trkpt><trkpt lat="42.28989360196919" lon="14.278688501123476"><ele>193.0</ele><time>2026-05-01T09:09:47.999Z</time></trkpt><trkpt lat="42.28985550090851" lon="14.278488561092496"><ele>195.66666666666666</ele><time>2026-05-01T09:09:48.999Z</time></trkpt><trkpt lat="42.28995738403369" lon="14.278181859641425"><ele>198.33333333333331</ele><time>2026-05-01T09:09:49.999Z</time></trkpt><trkpt lat="42.289895336938294" lon="14.277996871230561"><ele>201.0</ele><time>2026-05-01T09:09:51Z</time></trkpt><trkpt lat="42.28985258709955" lon="14.277840203659443"><ele>200.33333333333331</ele><time>2026-05-01T09:09:52Z</time></trkpt><trkpt lat="42.289679324353024" lon="14.277674393736214"><ele>199.66666666666666</ele><time>2026-05-01T09:09:53Z</time></trkpt><trkpt lat="42.28965342248355" lon="14.277490046666884"><ele>199.0</ele><time>2026-05-01T09:09:54Z</time></trkpt><trkpt lat="42.28958981276591" lon="14.277223253510833"><ele>202.0</ele><time>2026-05-01T09:09:55Z</time></trkpt><trkpt lat="42.28954955644599" lon="14.27698222709295"><ele>205.0</ele><time>2026-05-01T09:09:56Z</time></trkpt><trkpt lat="42.289558636488465" lon="14.276751820388169"><ele>208.0</ele><time>2026-05-01T09:09:57Z</time></trkpt><trkpt lat="42.28953450604924" lon="14.276529157514057"><ele>209.2</ele><time>2026-05-01T09:09:58Z</time></trkpt><trkpt lat="42.289518228750005" lon="14.276335211378386"><ele>210.4</ele><time>2026-05-01T09:09:59Z</time></trkpt><trkpt lat="42.28948535197553" lon="14.276210186930712"><ele>211.59999999999997</ele><time>2026-05-01T09:10:00Z</time></trkpt><trkpt lat="42.28946244640181" lon="14.276091516830853"><ele>212.79999999999998</ele><time>2026-05-01T09:10:01Z</time></trkpt><trkpt lat="42.28946441078457" lon="14.275995579757899"><ele>214.0</ele><time>2026-05-01T09:10:02Z</time></trkpt><trkpt lat="42.28946437149743" lon="14.275882054760745"><ele>214.0</ele><time>2026-05-01T09:10:04Z</time></trkpt><trkpt lat="42.28929459772434" lon="14.275895626478212"><ele>214.0</ele><time>2026-05-01T09:10:06Z</time></trkpt><trkpt lat="42.289177373984295" lon="14.275872560589615"><ele>214.0</ele><time>2026-05-01T09:10:07Z</time></trkpt><trkpt lat="42.28907071207494" lon="14.275870455617044"><ele>214.0</ele><time>2026-05-01T09:10:08Z</time></trkpt><trkpt lat="42.28899716956198" lon="14.275887587062247"><ele>214.0</ele><time>2026-05-01T09:10:09Z</time></trkpt><trkpt lat="42.28892947086189" lon="14.27588361833482"><ele>213.99999999999997</ele><time>2026-05-01T09:10:10Z</time></trkpt><trkpt lat="42.28886374830344" lon="14.275841851800838"><ele>213.99999999999997</ele><time>2026-05-01T09:10:11Z</time></trkpt><trkpt lat="42.288781505005375" lon="14.27578532927068"><ele>214.0</ele><time>2026-05-01T09:10:12Z</time></trkpt><trkpt lat="42.28867576560493" lon="14.275733338892126"><ele>214.0</ele><time>2026-05-01T09:10:13Z</time></trkpt><trkpt lat="42.28857211226314" lon="14.275636207902366"><ele>214.39999999999998</ele><time>2026-05-01T09:10:14Z</time></trkpt><trkpt lat="42.288468043495776" lon="14.27553044020167"><ele>214.79999999999998</ele><time>2026-05-01T09:10:15Z</time></trkpt><trkpt lat="42.28837077410126" lon="14.275469877106588"><ele>215.20000000000002</ele><time>2026-05-01T09:10:16Z</time></trkpt><trkpt lat="42.288294894377316" lon="14.275411701230443"><ele>215.60000000000002</ele><time>2026-05-01T09:10:17Z</time></trkpt><trkpt lat="42.28820384313518" lon="14.275418508052544"><ele>216.0</ele><time>2026-05-01T09:10:18Z</time></trkpt><trkpt lat="42.28809502578255" lon="14.275438245683457"><ele>213.60000000000002</ele><time>2026-05-01T09:10:19Z</time></trkpt><trkpt lat="42.287976457406295" lon="14.275471518558033"><ele>211.20000000000002</ele><time>2026-05-01T09:10:20Z</time></trkpt><trkpt lat="42.287859143906246" lon="14.275503919734815"><ele>208.8</ele><time>2026-05-01T09:10:21Z</time></trkpt><trkpt lat="42.287752786967765" lon="14.27552440828252"><ele>206.39999999999998</ele><time>2026-05-01T09:10:22Z</time></trkpt><trkpt lat="42.28765601223135" lon="14.27551612740182"><ele>204.0</ele><time>2026-05-01T09:10:23Z</time></trkpt><trkpt lat="42.287588240509066" lon="14.27544785517237"><ele>204.0</ele><time>2026-05-01T09:10:24Z</time></trkpt><trkpt lat="42.28753386993253" lon="14.275377001868709"><ele>204.0</ele><time>2026-05-01T09:10:25Z</time></trkpt><trkpt lat="42.28749155813119" lon="14.275264483775079"><ele>204.0</ele><time>2026-05-01T09:10:26Z</time></trkpt><trkpt lat="42.28744179786916" lon="14.275124463816535"><ele>204.0</ele><time>2026-05-01T09:10:27Z</time></trkpt><trkpt lat="42.28737549164578" lon="14.27495529299152"><ele>204.0</ele><time>2026-05-01T09:10:28Z</time></trkpt><trkpt lat="42.28733541649619" lon="14.274791638445588"><ele>204.2</ele><time>2026-05-01T09:10:29Z</time></trkpt><trkpt lat="42.2872331999825" lon="14.274714286696984"><ele>204.39999999999998</ele><time>2026-05-01T09:10:30Z</time></trkpt><trkpt lat="42.287210728611406" lon="14.274611857108804"><ele>204.6</ele><time>2026-05-01T09:10:32Z</time></trkpt><trkpt lat="42.28711298884837" lon="14.274592907884143"><ele>204.8</ele><time>2026-05-01T09:10:33Z</time></trkpt><trkpt lat="42.287028229275556" lon="14.274635867859697"><ele>205.0</ele><time>2026-05-01T09:10:34Z</time></trkpt><trkpt lat="42.28693514212171" lon="14.2746873402979"><ele>205.0</ele><time>2026-05-01T09:10:35Z</time></trkpt><trkpt lat="42.28682506312929" lon="14.274734089761381"><ele>205.0</ele><time>2026-05-01T09:10:36Z</time></trkpt><trkpt lat="42.2867091705198" lon="14.27478626006814"><ele>205.0</ele><time>2026-05-01T09:10:37Z</time></trkpt><trkpt lat="42.286605454710084" lon="14.274840139426352"><ele>205.0</ele><time>2026-05-01T09:10:38Z</time></trkpt><trkpt lat="42.286531729092694" lon="14.274875767497777"><ele>205.0</ele><time>2026-05-01T09:10:38.999Z</time></trkpt><trkpt lat="42.286465266272884" lon="14.27487025987541"><ele>204.2</ele><time>2026-05-01T09:10:39.999Z</time></trkpt><trkpt lat="42.28639837909949" lon="14.274806864190888"><ele>203.4</ele><time>2026-05-01T09:10:41.999Z</time></trkpt><trkpt lat="42.286319096569216" lon="14.27472247193303"><ele>202.60000000000002</ele><time>2026-05-01T09:10:42.999Z</time></trkpt><trkpt lat="42.28624640392709" lon="14.274619443771908"><ele>201.8</ele><time>2026-05-01T09:10:43.999Z</time></trkpt><trkpt lat="42.28617826479108" lon="14.274525030532441"><ele>201.0</ele><time>2026-05-01T09:10:44.999Z</time></trkpt><trkpt lat="42.286125460162935" lon="14.274412553858808"><ele>201.0</ele><time>2026-05-01T09:10:45.999Z</time></trkpt><trkpt lat="42.286071589858494" lon="14.274277410962343"><ele>201.0</ele><time>2026-05-01T09:10:46.999Z</time></trkpt><trkpt lat="42.28603537067579" lon="14.274167488674232"><ele>201.0</ele><time>2026-05-01T09:10:47.999Z</time></trkpt><trkpt lat="42.28603019964154" lon="14.274078725595913"><ele>201.0</ele><time>2026-05-01T09:10:48.999Z</time></trkpt><trkpt lat="42.28605379474366" lon="14.273949353078116"><ele>201.0</ele><time>2026-05-01T09:10:49.999Z</time></trkpt><trkpt lat="42.28609654421138" lon="14.273818224586474"><ele>203.60000000000002</ele><time>2026-05-01T09:10:50.999Z</time></trkpt><trkpt lat="42.28615376477935" lon="14.273686115557433"><ele>206.2</ele><time>2026-05-01T09:10:51.999Z</time></trkpt><trkpt lat="42.286160230973465" lon="14.2735693834895"><ele>208.79999999999998</ele><time>2026-05-01T09:10:53.999Z</time></trkpt><trkpt lat="42.286139188245066" lon="14.273439983222495"><ele>211.39999999999998</ele><time>2026-05-01T09:10:54.999Z</time></trkpt><trkpt lat="42.28608887258901" lon="14.273301802285243"><ele>214.0</ele><time>2026-05-01T09:10:55.999Z</time></trkpt><trkpt lat="42.28600189364405" lon="14.27320541742053"><ele>217.66666666666666</ele><time>2026-05-01T09:10:56.999Z</time></trkpt><trkpt lat="42.28587835044486" lon="14.273048797201833"><ele>221.33333333333331</ele><time>2026-05-01T09:10:57.999Z</time></trkpt><trkpt lat="42.285773298789394" lon="14.272905891371858"><ele>225.0</ele><time>2026-05-01T09:10:58.999Z</time></trkpt><trkpt lat="42.285676327497434" lon="14.272768270582185"><ele>225.0</ele><time>2026-05-01T09:10:59.999Z</time></trkpt><trkpt lat="42.285599350676186" lon="14.272687252484234"><ele>225.0</ele><time>2026-05-01T09:11:00.999Z</time></trkpt><trkpt lat="42.28550576321335" lon="14.272603876265421"><ele>225.0</ele><time>2026-05-01T09:11:01.999Z</time></trkpt><trkpt lat="42.28544442461645" lon="14.272526913255211"><ele>225.0</ele><time>2026-05-01T09:11:02.999Z</time></trkpt><trkpt lat="42.28540834460377" lon="14.272427034176205"><ele>225.0</ele><time>2026-05-01T09:11:03.999Z</time></trkpt><trkpt lat="42.28538150300309" lon="14.272278851441017"><ele>224.5</ele><time>2026-05-01T09:11:04.999Z</time></trkpt><trkpt lat="42.28534773123308" lon="14.272098064846645"><ele>224.0</ele><time>2026-05-01T09:11:05.999Z</time></trkpt><trkpt lat="42.285307007649195" lon="14.271922831516614"><ele>223.5</ele><time>2026-05-01T09:11:06.999Z</time></trkpt><trkpt lat="42.285294883767584" lon="14.271758418467275"><ele>223.0</ele><time>2026-05-01T09:11:07.999Z</time></trkpt><trkpt lat="42.285300347785785" lon="14.271565008227004"><ele>225.75</ele><time>2026-05-01T09:11:08.999Z</time></trkpt><trkpt lat="42.285307652246594" lon="14.271358937644214"><ele>228.5</ele><time>2026-05-01T09:11:09.999Z</time></trkpt><trkpt lat="42.28530031464246" lon="14.271169756154023"><ele>231.25</ele><time>2026-05-01T09:11:10.999Z</time></trkpt><trkpt lat="42.285298257764524" lon="14.270990071753925"><ele>234.0</ele><time>2026-05-01T09:11:11.999Z</time></trkpt><trkpt lat="42.285307676037405" lon="14.270809435051417"><ele>234.0</ele><time>2026-05-01T09:11:12.999Z</time></trkpt><trkpt lat="42.28532566238686" lon="14.270622592852499"><ele>234.0</ele><time>2026-05-01T09:11:13.999Z</time></trkpt><trkpt lat="42.28534578513072" lon="14.270437713478229"><ele>234.0</ele><time>2026-05-01T09:11:14.999Z</time></trkpt><trkpt lat="42.2853567585165" lon="14.27025322464928"><ele>234.0</ele><time>2026-05-01T09:11:15.999Z</time></trkpt><trkpt lat="42.285369046103206" lon="14.27008562501889"><ele>236.25</ele><time>2026-05-01T09:11:16.999Z</time></trkpt><trkpt lat="42.28537917296955" lon="14.269915468650456"><ele>238.5</ele><time>2026-05-01T09:11:17.999Z</time></trkpt><trkpt lat="42.285412208051206" lon="14.26976964159147"><ele>240.75</ele><time>2026-05-01T09:11:18.999Z</time></trkpt><trkpt lat="42.28544026612584" lon="14.269617354087814"><ele>243.0</ele><time>2026-05-01T09:11:19.999Z</time></trkpt><trkpt lat="42.2854701156526" lon="14.269469157017436"><ele>244.60000000000002</ele><time>2026-05-01T09:11:20.999Z</time></trkpt><trkpt lat="42.28549429371512" lon="14.269337452006031"><ele>246.20000000000002</ele><time>2026-05-01T09:11:21.999Z</time></trkpt><trkpt lat="42.28553095701969" lon="14.269199351669133"><ele>247.8</ele><time>2026-05-01T09:11:22.999Z</time></trkpt><trkpt lat="42.285572981688965" lon="14.269042184331747"><ele>249.4</ele><time>2026-05-01T09:11:23.999Z</time></trkpt><trkpt lat="42.28560574285583" lon="14.268892300903731"><ele>251.0</ele><time>2026-05-01T09:11:24.999Z</time></trkpt><trkpt lat="42.285620715990554" lon="14.268736743028095"><ele>258.5</ele><time>2026-05-01T09:11:25.999Z</time></trkpt><trkpt lat="42.285629526675805" lon="14.268573298776463"><ele>266.0</ele><time>2026-05-01T09:11:26.999Z</time></trkpt><trkpt lat="42.28563991208398" lon="14.268405352865567"><ele>273.5</ele><time>2026-05-01T09:11:27.999Z</time></trkpt><trkpt lat="42.28566244665474" lon="14.268262243874123"><ele>281.0</ele><time>2026-05-01T09:11:28.999Z</time></trkpt><trkpt lat="42.28570745351781" lon="14.268129478746022"><ele>280.6</ele><time>2026-05-01T09:11:29.999Z</time></trkpt><trkpt lat="42.28564183097225" lon="14.268047687509451"><ele>280.20000000000005</ele><time>2026-05-01T09:11:32.999Z</time></trkpt><trkpt lat="42.28563196185414" lon="14.267948971732888"><ele>279.79999999999995</ele><time>2026-05-01T09:11:34.999Z</time></trkpt><trkpt lat="42.285569636263055" lon="14.267827893193164"><ele>279.4</ele><time>2026-05-01T09:11:35.999Z</time></trkpt><trkpt lat="42.28551180631165" lon="14.267716654675636"><ele>279.0</ele><time>2026-05-01T09:11:36.999Z</time></trkpt><trkpt lat="42.28545547563659" lon="14.267637869010551"><ele>279.0</ele><time>2026-05-01T09:11:37.999Z</time></trkpt><trkpt lat="42.285385169532354" lon="14.267548973096627"><ele>279.0</ele><time>2026-05-01T09:11:38.999Z</time></trkpt><trkpt lat="42.28533086894939" lon="14.267437052966327"><ele>279.0</ele><time>2026-05-01T09:11:39.999Z</time></trkpt><trkpt lat="42.28527196033546" lon="14.267327814087318"><ele>279.0</ele><time>2026-05-01T09:11:40.999Z</time></trkpt><trkpt lat="42.28520168090069" lon="14.26722135597894"><ele>279.0</ele><time>2026-05-01T09:11:41.999Z</time></trkpt><trkpt lat="42.285134172610356" lon="14.267123412009592"><ele>280.0</ele><time>2026-05-01T09:11:42.999Z</time></trkpt><trkpt lat="42.28507432417405" lon="14.267041852432069"><ele>281.0</ele><time>2026-05-01T09:11:43.999Z</time></trkpt><trkpt lat="42.28501036752937" lon="14.266990936956983"><ele>282.0</ele><time>2026-05-01T09:11:44.999Z</time></trkpt><trkpt lat="42.28490684510793" lon="14.266916717759548"><ele>283.0</ele><time>2026-05-01T09:11:46.999Z</time></trkpt><trkpt lat="42.284833981340135" lon="14.266881348319432"><ele>284.0</ele><time>2026-05-01T09:11:48.999Z</time></trkpt><trkpt lat="42.2847706858259" lon="14.266864334969608"><ele>285.0</ele><time>2026-05-01T09:11:50.999Z</time></trkpt><trkpt lat="42.284745077992646" lon="14.266648328774659"><ele>285.0</ele><time>2026-05-01T09:11:53.999Z</time></trkpt><trkpt lat="42.284781720755" lon="14.266536640878346"><ele>285.0</ele><time>2026-05-01T09:11:58Z</time></trkpt><trkpt lat="42.28483397458641" lon="14.26642937749928"><ele>285.0</ele><time>2026-05-01T09:12:00Z</time></trkpt><trkpt lat="42.28489289155573" lon="14.266280179758905"><ele>285.0</ele><time>2026-05-01T09:12:02Z</time></trkpt><trkpt lat="42.28493715807642" lon="14.266203076259528"><ele>285.0</ele><time>2026-05-01T09:12:03Z</time></trkpt><trkpt lat="42.284983010424334" lon="14.266108798788782"><ele>284.8333333333333</ele><time>2026-05-01T09:12:04Z</time></trkpt><trkpt lat="42.28502177124184" lon="14.2660245833851"><ele>284.6666666666667</ele><time>2026-05-01T09:12:05Z</time></trkpt><trkpt lat="42.28506781914676" lon="14.265934331850362"><ele>284.5</ele><time>2026-05-01T09:12:06Z</time></trkpt><trkpt lat="42.28511116606319" lon="14.265834037910537"><ele>284.33333333333337</ele><time>2026-05-01T09:12:07Z</time></trkpt><trkpt lat="42.28515668562896" lon="14.265758329245372"><ele>284.1666666666667</ele><time>2026-05-01T09:12:08Z</time></trkpt><trkpt lat="42.28520312163778" lon="14.26569236920145"><ele>284.0</ele><time>2026-05-01T09:12:09Z</time></trkpt><trkpt lat="42.28525050057153" lon="14.265619925433066"><ele>282.6666666666667</ele><time>2026-05-01T09:12:10Z</time></trkpt><trkpt lat="42.28530125557313" lon="14.265543313028504"><ele>281.33333333333337</ele><time>2026-05-01T09:12:11Z</time></trkpt><trkpt lat="42.285347080910924" lon="14.265463464118874"><ele>280.0</ele><time>2026-05-01T09:12:12Z</time></trkpt><trkpt lat="42.28539392105072" lon="14.26537428462212"><ele>278.6666666666667</ele><time>2026-05-01T09:12:13Z</time></trkpt><trkpt lat="42.2854447459796" lon="14.265293647922988"><ele>277.3333333333333</ele><time>2026-05-01T09:12:14Z</time></trkpt><trkpt lat="42.28554498122468" lon="14.265167986540677"><ele>276.0</ele><time>2026-05-01T09:12:16Z</time></trkpt><trkpt lat="42.28562082505795" lon="14.265120236625382"><ele>274.2</ele><time>2026-05-01T09:12:17Z</time></trkpt><trkpt lat="42.2856935602536" lon="14.26507905146889"><ele>272.40000000000003</ele><time>2026-05-01T09:12:18Z</time></trkpt><trkpt lat="42.285782234408885" lon="14.264974094841804"><ele>270.6</ele><time>2026-05-01T09:12:20Z</time></trkpt><trkpt lat="42.285777141343175" lon="14.264884985411587"><ele>268.8</ele><time>2026-05-01T09:12:21Z</time></trkpt><trkpt lat="42.285729052504834" lon="14.264790424165557"><ele>267.0</ele><time>2026-05-01T09:12:22Z</time></trkpt><trkpt lat="42.28570338907533" lon="14.26465034087265"><ele>265.5</ele><time>2026-05-01T09:12:23Z</time></trkpt><trkpt lat="42.285623918715046" lon="14.26449144219462"><ele>264.0</ele><time>2026-05-01T09:12:24Z</time></trkpt><trkpt lat="42.28555255227814" lon="14.264348012663739"><ele>262.5</ele><time>2026-05-01T09:12:25Z</time></trkpt><trkpt lat="42.285487615961024" lon="14.264228423111954"><ele>261.0</ele><time>2026-05-01T09:12:26Z</time></trkpt><trkpt lat="42.28543217655725" lon="14.264108968404827"><ele>261.0</ele><time>2026-05-01T09:12:27Z</time></trkpt><trkpt lat="42.28538156699508" lon="14.26398664003739"><ele>261.0</ele><time>2026-05-01T09:12:28Z</time></trkpt><trkpt lat="42.28532807097736" lon="14.263875437750912"><ele>261.0</ele><time>2026-05-01T09:12:29Z</time></trkpt><trkpt lat="42.28528046728959" lon="14.263759037916332"><ele>261.0</ele><time>2026-05-01T09:12:30Z</time></trkpt><trkpt lat="42.28524170833294" lon="14.263635927991368"><ele>261.0</ele><time>2026-05-01T09:12:31Z</time></trkpt><trkpt lat="42.285212301940135" lon="14.263515291652912"><ele>260.6</ele><time>2026-05-01T09:12:32Z</time></trkpt><trkpt lat="42.285201162592855" lon="14.263387882116445"><ele>260.20000000000005</ele><time>2026-05-01T09:12:33Z</time></trkpt><trkpt lat="42.28522461792067" lon="14.263242166179486"><ele>259.79999999999995</ele><time>2026-05-01T09:12:34Z</time></trkpt><trkpt lat="42.28527275854104" lon="14.263081456813794"><ele>259.4</ele><time>2026-05-01T09:12:35Z</time></trkpt><trkpt lat="42.28531746837334" lon="14.262938783991341"><ele>259.0</ele><time>2026-05-01T09:12:36Z</time></trkpt><trkpt lat="42.28532747970863" lon="14.262805753270328"><ele>258.0</ele><time>2026-05-01T09:12:37Z</time></trkpt><trkpt lat="42.28528971758469" lon="14.262667703332243"><ele>257.0</ele><time>2026-05-01T09:12:38Z</time></trkpt><trkpt lat="42.28521573390136" lon="14.2625155211807"><ele>256.0</ele><time>2026-05-01T09:12:39Z</time></trkpt><trkpt lat="42.28512660754626" lon="14.262358279091847"><ele>255.0</ele><time>2026-05-01T09:12:40Z</time></trkpt><trkpt lat="42.28503969824486" lon="14.262188173267266"><ele>256.75</ele><time>2026-05-01T09:12:41Z</time></trkpt><trkpt lat="42.284950730657414" lon="14.262027944568636"><ele>258.5</ele><time>2026-05-01T09:12:42Z</time></trkpt><trkpt lat="42.28486460615032" lon="14.261873961578118"><ele>260.25</ele><time>2026-05-01T09:12:43Z</time></trkpt><trkpt lat="42.28478791611493" lon="14.261724637389685"><ele>262.0</ele><time>2026-05-01T09:12:44Z</time></trkpt><trkpt lat="42.28470622199956" lon="14.261567119211204"><ele>259.0</ele><time>2026-05-01T09:12:45Z</time></trkpt><trkpt lat="42.284624136223776" lon="14.2614049052472"><ele>256.0</ele><time>2026-05-01T09:12:46Z</time></trkpt><trkpt lat="42.28455870880873" lon="14.261250578713463"><ele>253.0</ele><time>2026-05-01T09:12:47Z</time></trkpt><trkpt lat="42.28452769733719" lon="14.261098549941526"><ele>250.0</ele><time>2026-05-01T09:12:48Z</time></trkpt><trkpt lat="42.28451399154365" lon="14.260961378673096"><ele>250.0</ele><time>2026-05-01T09:12:49Z</time></trkpt><trkpt lat="42.28453910290902" lon="14.260827754757743"><ele>250.0</ele><time>2026-05-01T09:12:50Z</time></trkpt><trkpt lat="42.284596325564785" lon="14.260740585278848"><ele>250.0</ele><time>2026-05-01T09:12:51Z</time></trkpt><trkpt lat="42.284683071409496" lon="14.260668403862784"><ele>250.0</ele><time>2026-05-01T09:12:52Z</time></trkpt><trkpt lat="42.28481243245093" lon="14.26066757702386"><ele>250.0</ele><time>2026-05-01T09:12:53Z</time></trkpt><trkpt lat="42.28497342810555" lon="14.260630865407697"><ele>248.33333333333331</ele><time>2026-05-01T09:12:54Z</time></trkpt><trkpt lat="42.28514805998719" lon="14.260613915502557"><ele>246.66666666666669</ele><time>2026-05-01T09:12:55Z</time></trkpt><trkpt lat="42.28532183767281" lon="14.26057902335866"><ele>245.0</ele><time>2026-05-01T09:12:56Z</time></trkpt><trkpt lat="42.28546452622914" lon="14.260553412212573"><ele>244.75</ele><time>2026-05-01T09:12:57Z</time></trkpt><trkpt lat="42.28561391480553" lon="14.260550399354596"><ele>244.5</ele><time>2026-05-01T09:12:58Z</time></trkpt><trkpt lat="42.28575095998279" lon="14.260540099074014"><ele>244.25</ele><time>2026-05-01T09:12:59Z</time></trkpt><trkpt lat="42.28590124050542" lon="14.260579014919871"><ele>244.0</ele><time>2026-05-01T09:13:00Z</time></trkpt><trkpt lat="42.28602197538279" lon="14.260644400472698"><ele>244.0</ele><time>2026-05-01T09:13:01Z</time></trkpt><trkpt lat="42.2861724912561" lon="14.260686657562832"><ele>244.0</ele><time>2026-05-01T09:13:02Z</time></trkpt><trkpt lat="42.28631751863798" lon="14.260749847065666"><ele>244.0</ele><time>2026-05-01T09:13:03Z</time></trkpt><trkpt lat="42.28647415130207" lon="14.260769449328333"><ele>245.0</ele><time>2026-05-01T09:13:04Z</time></trkpt><trkpt lat="42.286614283412106" lon="14.260753953748582"><ele>246.0</ele><time>2026-05-01T09:13:05Z</time></trkpt><trkpt lat="42.28673470990855" lon="14.260724215831344"><ele>247.0</ele><time>2026-05-01T09:13:06Z</time></trkpt><trkpt lat="42.28682548919866" lon="14.26064251763382"><ele>248.0</ele><time>2026-05-01T09:13:07Z</time></trkpt><trkpt lat="42.28690272802702" lon="14.260571763514191"><ele>251.75</ele><time>2026-05-01T09:13:08Z</time></trkpt><trkpt lat="42.286946663353746" lon="14.260435962758812"><ele>255.5</ele><time>2026-05-01T09:13:09Z</time></trkpt><trkpt lat="42.28695513227534" lon="14.260272222003195"><ele>259.25</ele><time>2026-05-01T09:13:10Z</time></trkpt><trkpt lat="42.286899883090776" lon="14.26011433298544"><ele>263.0</ele><time>2026-05-01T09:13:11Z</time></trkpt><trkpt lat="42.286845115668875" lon="14.25994318763656"><ele>263.0</ele><time>2026-05-01T09:13:12Z</time></trkpt><trkpt lat="42.28676146472262" lon="14.259788775964854"><ele>263.0</ele><time>2026-05-01T09:13:13Z</time></trkpt><trkpt lat="42.28665777605279" lon="14.259650409162813"><ele>263.0</ele><time>2026-05-01T09:13:14Z</time></trkpt><trkpt lat="42.28652625466975" lon="14.259525129633632"><ele>263.0</ele><time>2026-05-01T09:13:15Z</time></trkpt><trkpt lat="42.28638191293642" lon="14.259422370289954"><ele>264.25</ele><time>2026-05-01T09:13:16Z</time></trkpt><trkpt lat="42.28622822322641" lon="14.259358076934843"><ele>265.5</ele><time>2026-05-01T09:13:17Z</time></trkpt><trkpt lat="42.28609193428844" lon="14.259295206769439"><ele>266.75</ele><time>2026-05-01T09:13:18Z</time></trkpt><trkpt lat="42.28597100684427" lon="14.259209444579067"><ele>268.0</ele><time>2026-05-01T09:13:19Z</time></trkpt><trkpt lat="42.28585554401692" lon="14.259106542070013"><ele>268.0</ele><time>2026-05-01T09:13:20Z</time></trkpt><trkpt lat="42.285769869663625" lon="14.258973353046528"><ele>268.0</ele><time>2026-05-01T09:13:21Z</time></trkpt><trkpt lat="42.28570097640482" lon="14.258849834160634"><ele>268.0</ele><time>2026-05-01T09:13:22Z</time></trkpt><trkpt lat="42.28564265742866" lon="14.258719780371838"><ele>268.0</ele><time>2026-05-01T09:13:23Z</time></trkpt><trkpt lat="42.28561765702857" lon="14.25861196335034"><ele>268.0</ele><time>2026-05-01T09:13:24Z</time></trkpt><trkpt lat="42.28560572533858" lon="14.25851554076515"><ele>271.2</ele><time>2026-05-01T09:13:25Z</time></trkpt><trkpt lat="42.285662124333086" lon="14.2584150830579"><ele>274.4</ele><time>2026-05-01T09:13:26Z</time></trkpt><trkpt lat="42.28575767811959" lon="14.258350090913165"><ele>277.59999999999997</ele><time>2026-05-01T09:13:27Z</time></trkpt><trkpt lat="42.285877674780515" lon="14.25835617101759"><ele>280.8</ele><time>2026-05-01T09:13:28Z</time></trkpt><trkpt lat="42.28599884373853" lon="14.258389469555853"><ele>284.0</ele><time>2026-05-01T09:13:29Z</time></trkpt><trkpt lat="42.28611946261729" lon="14.258487027498546"><ele>284.0</ele><time>2026-05-01T09:13:30Z</time></trkpt><trkpt lat="42.28625622952772" lon="14.258580124011884"><ele>284.0</ele><time>2026-05-01T09:13:31Z</time></trkpt><trkpt lat="42.28638919218779" lon="14.258705022725149"><ele>284.0</ele><time>2026-05-01T09:13:32Z</time></trkpt><trkpt lat="42.286534381018676" lon="14.258827785080381"><ele>285.33333333333337</ele><time>2026-05-01T09:13:33Z</time></trkpt><trkpt lat="42.286694495124884" lon="14.258936924472096"><ele>286.6666666666667</ele><time>2026-05-01T09:13:34Z</time></trkpt><trkpt lat="42.28686249919724" lon="14.259031318483961"><ele>288.0</ele><time>2026-05-01T09:13:34.999Z</time></trkpt><trkpt lat="42.28702304487911" lon="14.259128837014538"><ele>287.75</ele><time>2026-05-01T09:13:35.999Z</time></trkpt><trkpt lat="42.28716885650632" lon="14.259213333951235"><ele>287.5</ele><time>2026-05-01T09:13:36.999Z</time></trkpt><trkpt lat="42.287301545845494" lon="14.259279751787176"><ele>287.25</ele><time>2026-05-01T09:13:37.999Z</time></trkpt><trkpt lat="42.28741722271917" lon="14.259342855977643"><ele>287.0</ele><time>2026-05-01T09:13:38.999Z</time></trkpt><trkpt lat="42.28752649408779" lon="14.259409391616552"><ele>287.0</ele><time>2026-05-01T09:13:39.999Z</time></trkpt><trkpt lat="42.287648018080986" lon="14.2594321625982"><ele>287.0</ele><time>2026-05-01T09:13:40.999Z</time></trkpt><trkpt lat="42.28778764765148" lon="14.259415847752043"><ele>287.0</ele><time>2026-05-01T09:13:41.999Z</time></trkpt><trkpt lat="42.28792580834122" lon="14.259346918611424"><ele>287.0</ele><time>2026-05-01T09:13:42.999Z</time></trkpt><trkpt lat="42.28806664387763" lon="14.259287709922035"><ele>288.25</ele><time>2026-05-01T09:13:43.999Z</time></trkpt><trkpt lat="42.28819488966271" lon="14.259194837038862"><ele>289.5</ele><time>2026-05-01T09:13:44.999Z</time></trkpt><trkpt lat="42.28831355555121" lon="14.259093685596433"><ele>290.75</ele><time>2026-05-01T09:13:45.999Z</time></trkpt><trkpt lat="42.28841521429047" lon="14.258981315123213"><ele>292.0</ele><time>2026-05-01T09:13:46.999Z</time></trkpt><trkpt lat="42.28850296305057" lon="14.258847379355604"><ele>293.4</ele><time>2026-05-01T09:13:47.999Z</time></trkpt><trkpt lat="42.288589234723815" lon="14.258744360235914"><ele>294.79999999999995</ele><time>2026-05-01T09:13:48.999Z</time></trkpt><trkpt lat="42.288663706503534" lon="14.258643224437268"><ele>296.2</ele><time>2026-05-01T09:13:49.999Z</time></trkpt><trkpt lat="42.28874040550669" lon="14.258555647330732"><ele>297.59999999999997</ele><time>2026-05-01T09:13:50.999Z</time></trkpt><trkpt lat="42.28880668638207" lon="14.258467065842309"><ele>299.0</ele><time>2026-05-01T09:13:51.999Z</time></trkpt><trkpt lat="42.288873123904246" lon="14.2583988791904"><ele>298.6666666666667</ele><time>2026-05-01T09:13:52.999Z</time></trkpt><trkpt lat="42.28893042774618" lon="14.258310602772646"><ele>298.33333333333337</ele><time>2026-05-01T09:13:53.999Z</time></trkpt><trkpt lat="42.28897507629642" lon="14.258223316330964"><ele>298.0</ele><time>2026-05-01T09:13:54.999Z</time></trkpt><trkpt lat="42.28901010780432" lon="14.25814493823356"><ele>297.6666666666667</ele><time>2026-05-01T09:13:55.999Z</time></trkpt><trkpt lat="42.289085483824074" lon="14.258043909274472"><ele>297.3333333333333</ele><time>2026-05-01T09:13:57.999Z</time></trkpt><trkpt lat="42.289160063654776" lon="14.258002606946153"><ele>297.0</ele><time>2026-05-01T09:13:59.999Z</time></trkpt><trkpt lat="42.289104180968266" lon="14.257873002620762"><ele>296.8333333333333</ele><time>2026-05-01T09:14:21Z</time></trkpt><trkpt lat="42.28905596691534" lon="14.25780633941699"><ele>296.6666666666667</ele><time>2026-05-01T09:14:22Z</time></trkpt><trkpt lat="42.28898949029724" lon="14.257731478278286"><ele>296.5</ele><time>2026-05-01T09:14:23Z</time></trkpt><trkpt lat="42.28892500490037" lon="14.25766168470336"><ele>296.33333333333337</ele><time>2026-05-01T09:14:24Z</time></trkpt><trkpt lat="42.28885810472209" lon="14.257589277670583"><ele>296.1666666666667</ele><time>2026-05-01T09:14:25Z</time></trkpt><trkpt lat="42.28878617310867" lon="14.257511425079588"><ele>296.0</ele><time>2026-05-01T09:14:26Z</time></trkpt><trkpt lat="42.28871302246533" lon="14.257432252968917"><ele>297.2</ele><time>2026-05-01T09:14:27Z</time></trkpt><trkpt lat="42.28862895861838" lon="14.257359611711145"><ele>298.40000000000003</ele><time>2026-05-01T09:14:28Z</time></trkpt><trkpt lat="42.2885469065829" lon="14.257268457922326"><ele>299.6</ele><time>2026-05-01T09:14:29Z</time></trkpt><trkpt lat="42.28845568704576" lon="14.25717472976403"><ele>300.8</ele><time>2026-05-01T09:14:30Z</time></trkpt><trkpt lat="42.2883514138078" lon="14.257079156480014"><ele>302.0</ele><time>2026-05-01T09:14:31Z</time></trkpt><trkpt lat="42.28823060719494" lon="14.257011304497313"><ele>302.0</ele><time>2026-05-01T09:14:32Z</time></trkpt><trkpt lat="42.2881077242348" lon="14.256960482664374"><ele>302.0</ele><time>2026-05-01T09:14:33Z</time></trkpt><trkpt lat="42.28799042325025" lon="14.256902962618746"><ele>302.0</ele><time>2026-05-01T09:14:34Z</time></trkpt><trkpt lat="42.28788216207979" lon="14.256833753250431"><ele>302.0</ele><time>2026-05-01T09:14:35Z</time></trkpt><trkpt lat="42.28776233029441" lon="14.25677637637427"><ele>302.75</ele><time>2026-05-01T09:14:36Z</time></trkpt><trkpt lat="42.28764288813389" lon="14.25671888701579"><ele>303.5</ele><time>2026-05-01T09:14:37Z</time></trkpt><trkpt lat="42.287525963499135" lon="14.25665423430685"><ele>304.25</ele><time>2026-05-01T09:14:38Z</time></trkpt><trkpt lat="42.28740497063715" lon="14.256584526397875"><ele>305.0</ele><time>2026-05-01T09:14:39Z</time></trkpt><trkpt lat="42.287290862312794" lon="14.256495988377061"><ele>306.25</ele><time>2026-05-01T09:14:40Z</time></trkpt><trkpt lat="42.28717411839223" lon="14.256385635895903"><ele>307.5</ele><time>2026-05-01T09:14:41Z</time></trkpt><trkpt lat="42.28705966245001" lon="14.256262332771303"><ele>308.75</ele><time>2026-05-01T09:14:42Z</time></trkpt><trkpt lat="42.28693723842445" lon="14.256140269817326"><ele>310.0</ele><time>2026-05-01T09:14:43Z</time></trkpt><trkpt lat="42.28681256438056" lon="14.256021167960201"><ele>310.0</ele><time>2026-05-01T09:14:44Z</time></trkpt><trkpt lat="42.286690963976866" lon="14.25590336517408"><ele>310.0</ele><time>2026-05-01T09:14:45Z</time></trkpt><trkpt lat="42.286569735498496" lon="14.255783991107863"><ele>310.0</ele><time>2026-05-01T09:14:46Z</time></trkpt><trkpt lat="42.286449458075445" lon="14.255664729158122"><ele>310.0</ele><time>2026-05-01T09:14:47Z</time></trkpt><trkpt lat="42.28632838751121" lon="14.255549854806926"><ele>310.75</ele><time>2026-05-01T09:14:48Z</time></trkpt><trkpt lat="42.2862165864295" lon="14.255424689103476"><ele>311.5</ele><time>2026-05-01T09:14:49Z</time></trkpt><trkpt lat="42.286080749390344" lon="14.25533710851199"><ele>312.25</ele><time>2026-05-01T09:14:50Z</time></trkpt><trkpt lat="42.28595626005306" lon="14.255242437571242"><ele>313.0</ele><time>2026-05-01T09:14:51Z</time></trkpt><trkpt lat="42.285824970965066" lon="14.255155443581977"><ele>313.0</ele><time>2026-05-01T09:14:52Z</time></trkpt><trkpt lat="42.2857086801428" lon="14.255055048183538"><ele>313.0</ele><time>2026-05-01T09:14:53Z</time></trkpt><trkpt lat="42.28557958564687" lon="14.254979523886833"><ele>313.0</ele><time>2026-05-01T09:14:54Z</time></trkpt><trkpt lat="42.285458426377566" lon="14.254895141982034"><ele>313.0</ele><time>2026-05-01T09:14:55Z</time></trkpt><trkpt lat="42.2853412716881" lon="14.254811261731414"><ele>313.25</ele><time>2026-05-01T09:14:56Z</time></trkpt><trkpt lat="42.28521838757098" lon="14.254724944998314"><ele>313.5</ele><time>2026-05-01T09:14:57Z</time></trkpt><trkpt lat="42.28509730198079" lon="14.25463642141616"><ele>313.75</ele><time>2026-05-01T09:14:58Z</time></trkpt><trkpt lat="42.28497427902425" lon="14.254547530824164"><ele>314.0</ele><time>2026-05-01T09:14:59Z</time></trkpt><trkpt lat="42.284842285698964" lon="14.254465098212071"><ele>314.0</ele><time>2026-05-01T09:15:00Z</time></trkpt><trkpt lat="42.284720549824634" lon="14.254380267292303"><ele>314.0</ele><time>2026-05-01T09:15:01Z</time></trkpt><trkpt lat="42.2845996361525" lon="14.25430406212751"><ele>314.0</ele><time>2026-05-01T09:15:02Z</time></trkpt><trkpt lat="42.284481672846546" lon="14.25422536126447"><ele>314.0</ele><time>2026-05-01T09:15:03Z</time></trkpt><trkpt lat="42.284369574768405" lon="14.254157585574793"><ele>314.0</ele><time>2026-05-01T09:15:04Z</time></trkpt><trkpt lat="42.28425083579757" lon="14.254095690762236"><ele>314.0</ele><time>2026-05-01T09:15:05Z</time></trkpt><trkpt lat="42.28412486771562" lon="14.254039320728314"><ele>314.0</ele><time>2026-05-01T09:15:06Z</time></trkpt><trkpt lat="42.284004651068855" lon="14.253979069754937"><ele>314.0</ele><time>2026-05-01T09:15:07Z</time></trkpt><trkpt lat="42.28388526599707" lon="14.25392001957072"><ele>314.0</ele><time>2026-05-01T09:15:08Z</time></trkpt><trkpt lat="42.28376844219585" lon="14.253849841547561"><ele>314.0</ele><time>2026-05-01T09:15:09Z</time></trkpt><trkpt lat="42.28365056870725" lon="14.253775244892209"><ele>314.0</ele><time>2026-05-01T09:15:10Z</time></trkpt><trkpt lat="42.283528644928204" lon="14.253701179578353"><ele>314.0</ele><time>2026-05-01T09:15:11Z</time></trkpt><trkpt lat="42.28340456225884" lon="14.253623918558048"><ele>314.0</ele><time>2026-05-01T09:15:12Z</time></trkpt><trkpt lat="42.28327576394623" lon="14.253538454815915"><ele>314.0</ele><time>2026-05-01T09:15:13Z</time></trkpt><trkpt lat="42.28315204546038" lon="14.253465036890598"><ele>314.0</ele><time>2026-05-01T09:15:14Z</time></trkpt><trkpt lat="42.28303516768759" lon="14.253394767775353"><ele>314.0</ele><time>2026-05-01T09:15:15Z</time></trkpt><trkpt lat="42.28291207751083" lon="14.25333607651465"><ele>313.5</ele><time>2026-05-01T09:15:16Z</time></trkpt><trkpt lat="42.28279378814199" lon="14.253248720811413"><ele>313.0</ele><time>2026-05-01T09:15:17Z</time></trkpt><trkpt lat="42.28265954954374" lon="14.253176541598489"><ele>312.5</ele><time>2026-05-01T09:15:18Z</time></trkpt><trkpt lat="42.282515498234744" lon="14.253124518229244"><ele>312.0</ele><time>2026-05-01T09:15:19Z</time></trkpt><trkpt lat="42.2823667030619" lon="14.253050161747442"><ele>312.3333333333333</ele><time>2026-05-01T09:15:20Z</time></trkpt><trkpt lat="42.282218835199295" lon="14.252986438737288"><ele>312.66666666666663</ele><time>2026-05-01T09:15:21Z</time></trkpt><trkpt lat="42.2820691309371" lon="14.252929050577077"><ele>313.0</ele><time>2026-05-01T09:15:22Z</time></trkpt><trkpt lat="42.28192642618746" lon="14.25287700068647"><ele>313.0</ele><time>2026-05-01T09:15:23Z</time></trkpt><trkpt lat="42.28177866777781" lon="14.252819805956879"><ele>313.0</ele><time>2026-05-01T09:15:24Z</time></trkpt><trkpt lat="42.28163739767302" lon="14.252754691604371"><ele>313.0</ele><time>2026-05-01T09:15:25Z</time></trkpt><trkpt lat="42.281495377922084" lon="14.252694862926944"><ele>313.75</ele><time>2026-05-01T09:15:26Z</time></trkpt><trkpt lat="42.2813553657585" lon="14.252642766845575"><ele>314.5</ele><time>2026-05-01T09:15:27Z</time></trkpt><trkpt lat="42.281215599929034" lon="14.252591010766986"><ele>315.25</ele><time>2026-05-01T09:15:28Z</time></trkpt><trkpt lat="42.2810795377145" lon="14.25253630949706"><ele>316.0</ele><time>2026-05-01T09:15:29Z</time></trkpt><trkpt lat="42.280942690306695" lon="14.252481835387373"><ele>316.0</ele><time>2026-05-01T09:15:30Z</time></trkpt><trkpt lat="42.28080369403329" lon="14.252423910503447"><ele>316.0</ele><time>2026-05-01T09:15:31Z</time></trkpt><trkpt lat="42.280667592103256" lon="14.252368919085965"><ele>316.0</ele><time>2026-05-01T09:15:32Z</time></trkpt><trkpt lat="42.280529464313204" lon="14.25231091171896"><ele>316.0</ele><time>2026-05-01T09:15:33Z</time></trkpt><trkpt lat="42.280391210175615" lon="14.252256717384007"><ele>316.0</ele><time>2026-05-01T09:15:34Z</time></trkpt><trkpt lat="42.28025301647544" lon="14.252202934174688"><ele>316.0</ele><time>2026-05-01T09:15:35Z</time></trkpt><trkpt lat="42.28011388930203" lon="14.25213830799396"><ele>316.0</ele><time>2026-05-01T09:15:36Z</time></trkpt><trkpt lat="42.27997741458205" lon="14.252074299262357"><ele>316.0</ele><time>2026-05-01T09:15:37Z</time></trkpt><trkpt lat="42.279840585647" lon="14.252002889242917"><ele>316.75</ele><time>2026-05-01T09:15:38Z</time></trkpt><trkpt lat="42.27970257626324" lon="14.251925696074883"><ele>317.5</ele><time>2026-05-01T09:15:39Z</time></trkpt><trkpt lat="42.27956522588276" lon="14.251848232264052"><ele>318.25</ele><time>2026-05-01T09:15:40Z</time></trkpt><trkpt lat="42.27942875157103" lon="14.25177750180513"><ele>319.0</ele><time>2026-05-01T09:15:41Z</time></trkpt><trkpt lat="42.27929385237395" lon="14.251709504048415"><ele>319.0</ele><time>2026-05-01T09:15:42Z</time></trkpt><trkpt lat="42.27915202405945" lon="14.251633967133415"><ele>319.0</ele><time>2026-05-01T09:15:43Z</time></trkpt><trkpt lat="42.27900832057384" lon="14.251560240121535"><ele>319.0</ele><time>2026-05-01T09:15:43.999Z</time></trkpt><trkpt lat="42.278860639025226" lon="14.251484290938642"><ele>320.3333333333333</ele><time>2026-05-01T09:15:44.999Z</time></trkpt><trkpt lat="42.278691276680796" lon="14.251427539378163"><ele>321.6666666666667</ele><time>2026-05-01T09:15:45.999Z</time></trkpt><trkpt lat="42.27853090660745" lon="14.251348809065357"><ele>323.0</ele><time>2026-05-01T09:15:46.999Z</time></trkpt><trkpt lat="42.278356680707574" lon="14.251282147911073"><ele>323.0</ele><time>2026-05-01T09:15:47.999Z</time></trkpt><trkpt lat="42.278195783831244" lon="14.251239422321543"><ele>323.0</ele><time>2026-05-01T09:15:48.999Z</time></trkpt><trkpt lat="42.278045267137266" lon="14.251180338460957"><ele>323.0</ele><time>2026-05-01T09:15:49.999Z</time></trkpt><trkpt lat="42.277894819582905" lon="14.25112125608425"><ele>324.33333333333337</ele><time>2026-05-01T09:15:50.999Z</time></trkpt><trkpt lat="42.27774055365169" lon="14.251063508995413"><ele>325.6666666666667</ele><time>2026-05-01T09:15:51.999Z</time></trkpt><trkpt lat="42.277588119783815" lon="14.251010794460576"><ele>327.0</ele><time>2026-05-01T09:15:52.999Z</time></trkpt><trkpt lat="42.277445631894985" lon="14.250963341170754"><ele>327.0</ele><time>2026-05-01T09:15:53.999Z</time></trkpt><trkpt lat="42.2773139878116" lon="14.250920330704915"><ele>327.0</ele><time>2026-05-01T09:15:54.999Z</time></trkpt><trkpt lat="42.27719885482059" lon="14.250894236366554"><ele>327.0</ele><time>2026-05-01T09:15:55.999Z</time></trkpt><trkpt lat="42.27709602633906" lon="14.250878195429562"><ele>327.0</ele><time>2026-05-01T09:15:56.999Z</time></trkpt><trkpt lat="42.27699943285814" lon="14.250874210324922"><ele>327.8</ele><time>2026-05-01T09:15:57.999Z</time></trkpt><trkpt lat="42.27691217362994" lon="14.250870372263964"><ele>328.6</ele><time>2026-05-01T09:15:58.999Z</time></trkpt><trkpt lat="42.27684470293924" lon="14.250860618861584"><ele>329.40000000000003</ele><time>2026-05-01T09:15:59.999Z</time></trkpt><trkpt lat="42.27673140693505" lon="14.250844567504583"><ele>330.20000000000005</ele><time>2026-05-01T09:16:01.999Z</time></trkpt><trkpt lat="42.276681918120666" lon="14.250682579479983"><ele>331.0</ele><time>2026-05-01T09:16:02.999Z</time></trkpt><trkpt lat="42.27658705312974" lon="14.250614298186118"><ele>330.6</ele><time>2026-05-01T09:16:03.999Z</time></trkpt><trkpt lat="42.27651768530995" lon="14.250537783236664"><ele>330.20000000000005</ele><time>2026-05-01T09:16:04.999Z</time></trkpt><trkpt lat="42.27644907949745" lon="14.250456954585013"><ele>329.79999999999995</ele><time>2026-05-01T09:16:05.999Z</time></trkpt><trkpt lat="42.276385270165385" lon="14.250361099878441"><ele>329.4</ele><time>2026-05-01T09:16:06.999Z</time></trkpt><trkpt lat="42.276315364425535" lon="14.250261848524282"><ele>329.0</ele><time>2026-05-01T09:16:07.999Z</time></trkpt><trkpt lat="42.27626458917469" lon="14.250135716367508"><ele>329.0</ele><time>2026-05-01T09:16:09Z</time></trkpt><trkpt lat="42.27619339298723" lon="14.25002200040719"><ele>329.0</ele><time>2026-05-01T09:16:10Z</time></trkpt><trkpt lat="42.27615084823896" lon="14.249909692203316"><ele>329.0</ele><time>2026-05-01T09:16:11Z</time></trkpt><trkpt lat="42.27609440022538" lon="14.249812523384568"><ele>329.0</ele><time>2026-05-01T09:16:12Z</time></trkpt><trkpt lat="42.27602471509123" lon="14.249740999021048"><ele>329.0</ele><time>2026-05-01T09:16:13Z</time></trkpt><trkpt lat="42.27594014559735" lon="14.249686645579803"><ele>327.4</ele><time>2026-05-01T09:16:14Z</time></trkpt><trkpt lat="42.275864184531954" lon="14.24962231129841"><ele>325.79999999999995</ele><time>2026-05-01T09:16:15Z</time></trkpt><trkpt lat="42.2757728430636" lon="14.249606743275985"><ele>324.20000000000005</ele><time>2026-05-01T09:16:16Z</time></trkpt><trkpt lat="42.27568477063694" lon="14.249556156438558"><ele>322.6</ele><time>2026-05-01T09:16:17Z</time></trkpt><trkpt lat="42.27559516028498" lon="14.249504175465306"><ele>321.0</ele><time>2026-05-01T09:16:18Z</time></trkpt><trkpt lat="42.27550538210372" lon="14.24945006315926"><ele>321.0</ele><time>2026-05-01T09:16:19Z</time></trkpt><trkpt lat="42.27541849981206" lon="14.249388894018685"><ele>321.0</ele><time>2026-05-01T09:16:20Z</time></trkpt><trkpt lat="42.275338907503986" lon="14.249320744828966"><ele>321.0</ele><time>2026-05-01T09:16:21Z</time></trkpt><trkpt lat="42.275254271042265" lon="14.249242505802087"><ele>321.0</ele><time>2026-05-01T09:16:22Z</time></trkpt><trkpt lat="42.275175942773615" lon="14.24915542648906"><ele>321.0</ele><time>2026-05-01T09:16:23Z</time></trkpt><trkpt lat="42.27506730674095" lon="14.24907934149845"><ele>321.0</ele><time>2026-05-01T09:16:24Z</time></trkpt><trkpt lat="42.274940271734344" lon="14.249013879537141"><ele>321.0</ele><time>2026-05-01T09:16:25Z</time></trkpt><trkpt lat="42.274803802355144" lon="14.24896656250817"><ele>321.0</ele><time>2026-05-01T09:16:26Z</time></trkpt><trkpt lat="42.2746736876155" lon="14.248911915174991"><ele>321.0</ele><time>2026-05-01T09:16:27Z</time></trkpt><trkpt lat="42.27454290010895" lon="14.248855895754968"><ele>314.75</ele><time>2026-05-01T09:16:28Z</time></trkpt><trkpt lat="42.27442124259467" lon="14.248775020677154"><ele>308.5</ele><time>2026-05-01T09:16:29Z</time></trkpt><trkpt lat="42.27429566428199" lon="14.248722446172279"><ele>302.25</ele><time>2026-05-01T09:16:30Z</time></trkpt><trkpt lat="42.274167487813166" lon="14.248688623631855"><ele>296.0</ele><time>2026-05-01T09:16:31Z</time></trkpt><trkpt lat="42.27404941007045" lon="14.248628099198989"><ele>299.0</ele><time>2026-05-01T09:16:32Z</time></trkpt><trkpt lat="42.273933705134695" lon="14.248556861550641"><ele>302.0</ele><time>2026-05-01T09:16:33Z</time></trkpt><trkpt lat="42.27381938850578" lon="14.248483436306989"><ele>305.0</ele><time>2026-05-01T09:16:34Z</time></trkpt><trkpt lat="42.27370943740654" lon="14.248402226754093"><ele>308.0</ele><time>2026-05-01T09:16:35Z</time></trkpt><trkpt lat="42.27360470638662" lon="14.248310381568071"><ele>308.0</ele><time>2026-05-01T09:16:36Z</time></trkpt><trkpt lat="42.27350267034273" lon="14.248225948446857"><ele>308.0</ele><time>2026-05-01T09:16:37Z</time></trkpt><trkpt lat="42.27340233170375" lon="14.248145003598003"><ele>308.0</ele><time>2026-05-01T09:16:38Z</time></trkpt><trkpt lat="42.27330915409211" lon="14.248053158042255"><ele>308.0</ele><time>2026-05-01T09:16:39Z</time></trkpt><trkpt lat="42.27321811934037" lon="14.247930725079984"><ele>307.25</ele><time>2026-05-01T09:16:40Z</time></trkpt><trkpt lat="42.27316930227576" lon="14.247792692349144"><ele>306.5</ele><time>2026-05-01T09:16:41Z</time></trkpt><trkpt lat="42.27312240317994" lon="14.247640559301095"><ele>305.75</ele><time>2026-05-01T09:16:42Z</time></trkpt><trkpt lat="42.27308039000815" lon="14.247476099259714"><ele>305.0</ele><time>2026-05-01T09:16:43Z</time></trkpt><trkpt lat="42.273048167172135" lon="14.247309940354747"><ele>299.5</ele><time>2026-05-01T09:16:44Z</time></trkpt><trkpt lat="42.27302039522047" lon="14.24713510647699"><ele>294.0</ele><time>2026-05-01T09:16:45Z</time></trkpt><trkpt lat="42.27299308978228" lon="14.24695901390527"><ele>288.5</ele><time>2026-05-01T09:16:46Z</time></trkpt><trkpt lat="42.27296617667494" lon="14.246785451451755"><ele>283.0</ele><time>2026-05-01T09:16:47Z</time></trkpt><trkpt lat="42.27293646449306" lon="14.246620041058858"><ele>283.0</ele><time>2026-05-01T09:16:48Z</time></trkpt><trkpt lat="42.272895192365326" lon="14.246472479142582"><ele>283.0</ele><time>2026-05-01T09:16:49Z</time></trkpt><trkpt lat="42.27287554248782" lon="14.246320736506654"><ele>283.0</ele><time>2026-05-01T09:16:50Z</time></trkpt><trkpt lat="42.2728787996293" lon="14.246181357403719"><ele>283.0</ele><time>2026-05-01T09:16:51Z</time></trkpt><trkpt lat="42.27287593911479" lon="14.246058636705461"><ele>283.0</ele><time>2026-05-01T09:16:52Z</time></trkpt><trkpt lat="42.27279451262217" lon="14.2459310375759"><ele>281.0</ele><time>2026-05-01T09:16:53Z</time></trkpt><trkpt lat="42.27272613872571" lon="14.245791861879814"><ele>279.0</ele><time>2026-05-01T09:16:54Z</time></trkpt><trkpt lat="42.27262996677418" lon="14.245634370683357"><ele>277.0</ele><time>2026-05-01T09:16:55Z</time></trkpt><trkpt lat="42.272525624763084" lon="14.245483864978384"><ele>275.0</ele><time>2026-05-01T09:16:56Z</time></trkpt><trkpt lat="42.27244856952048" lon="14.245303011460615"><ele>275.0</ele><time>2026-05-01T09:16:57Z</time></trkpt><trkpt lat="42.272366357315775" lon="14.245130588743708"><ele>275.0</ele><time>2026-05-01T09:16:58Z</time></trkpt><trkpt lat="42.272282781447124" lon="14.244961347042423"><ele>275.0</ele><time>2026-05-01T09:16:59Z</time></trkpt><trkpt lat="42.27218954131544" lon="14.24481382911612"><ele>275.0</ele><time>2026-05-01T09:17:00Z</time></trkpt><trkpt lat="42.272108944166966" lon="14.244665946195813"><ele>277.5</ele><time>2026-05-01T09:17:01Z</time></trkpt><trkpt lat="42.272017097704136" lon="14.244538376259703"><ele>280.0</ele><time>2026-05-01T09:17:02Z</time></trkpt><trkpt lat="42.271913849664195" lon="14.24443459431309"><ele>282.5</ele><time>2026-05-01T09:17:03Z</time></trkpt><trkpt lat="42.27181211485544" lon="14.24436316855067"><ele>285.0</ele><time>2026-05-01T09:17:04Z</time></trkpt><trkpt lat="42.271732595828524" lon="14.244329352665694"><ele>285.0</ele><time>2026-05-01T09:17:05Z</time></trkpt><trkpt lat="42.271645097800935" lon="14.244311623057058"><ele>285.0</ele><time>2026-05-01T09:17:06Z</time></trkpt><trkpt lat="42.271526822817236" lon="14.244296029875311"><ele>285.0</ele><time>2026-05-01T09:17:07Z</time></trkpt><trkpt lat="42.271407262869225" lon="14.244285805796283"><ele>285.0</ele><time>2026-05-01T09:17:08Z</time></trkpt><trkpt lat="42.271308114228916" lon="14.24423573082749"><ele>285.0</ele><time>2026-05-01T09:17:09Z</time></trkpt><trkpt lat="42.27122136594047" lon="14.24418152212655"><ele>284.0</ele><time>2026-05-01T09:17:10Z</time></trkpt><trkpt lat="42.27111948255437" lon="14.24410517974025"><ele>283.0</ele><time>2026-05-01T09:17:11Z</time></trkpt><trkpt lat="42.271010643650655" lon="14.244030280210042"><ele>282.0</ele><time>2026-05-01T09:17:12Z</time></trkpt><trkpt lat="42.27090488526806" lon="14.243947301729001"><ele>281.0</ele><time>2026-05-01T09:17:13Z</time></trkpt><trkpt lat="42.27078916347459" lon="14.243851038708966"><ele>282.75</ele><time>2026-05-01T09:17:14Z</time></trkpt><trkpt lat="42.270662328426994" lon="14.243760793523027"><ele>284.5</ele><time>2026-05-01T09:17:15Z</time></trkpt><trkpt lat="42.2705445944121" lon="14.243652929132772"><ele>286.25</ele><time>2026-05-01T09:17:16Z</time></trkpt><trkpt lat="42.27044510481095" lon="14.243524650171272"><ele>288.0</ele><time>2026-05-01T09:17:17Z</time></trkpt><trkpt lat="42.270343159177344" lon="14.24339558520405"><ele>288.0</ele><time>2026-05-01T09:17:18Z</time></trkpt><trkpt lat="42.27022848459547" lon="14.243251553724223"><ele>288.0</ele><time>2026-05-01T09:17:19Z</time></trkpt><trkpt lat="42.27009632397136" lon="14.243124538756149"><ele>288.0</ele><time>2026-05-01T09:17:20Z</time></trkpt><trkpt lat="42.2699730975738" lon="14.24300285949226"><ele>289.25</ele><time>2026-05-01T09:17:21Z</time></trkpt><trkpt lat="42.269868041027735" lon="14.242873428944147"><ele>290.5</ele><time>2026-05-01T09:17:22Z</time></trkpt><trkpt lat="42.269754724424104" lon="14.242761605548866"><ele>291.75</ele><time>2026-05-01T09:17:23Z</time></trkpt><trkpt lat="42.26962456826735" lon="14.242662128687956"><ele>293.0</ele><time>2026-05-01T09:17:24Z</time></trkpt><trkpt lat="42.2695086720101" lon="14.242524052330657"><ele>293.0</ele><time>2026-05-01T09:17:25Z</time></trkpt><trkpt lat="42.269385751890646" lon="14.242408341525199"><ele>293.0</ele><time>2026-05-01T09:17:26Z</time></trkpt><trkpt lat="42.26927035019958" lon="14.242305876894452"><ele>293.0</ele><time>2026-05-01T09:17:27Z</time></trkpt><trkpt lat="42.26917391160994" lon="14.242204713097605"><ele>293.0</ele><time>2026-05-01T09:17:28Z</time></trkpt><trkpt lat="42.26910033786575" lon="14.242066879324343"><ele>295.0</ele><time>2026-05-01T09:17:29Z</time></trkpt><trkpt lat="42.26901817981621" lon="14.241899260050813"><ele>297.0</ele><time>2026-05-01T09:17:30Z</time></trkpt><trkpt lat="42.26893620415172" lon="14.241749880941478"><ele>299.0</ele><time>2026-05-01T09:17:31Z</time></trkpt><trkpt lat="42.26888915061511" lon="14.241608946554841"><ele>301.0</ele><time>2026-05-01T09:17:32Z</time></trkpt><trkpt lat="42.26885702558116" lon="14.241526613674754"><ele>304.0</ele><time>2026-05-01T09:17:33Z</time></trkpt><trkpt lat="42.26881198055925" lon="14.241449237339818"><ele>307.0</ele><time>2026-05-01T09:17:38Z</time></trkpt><trkpt lat="42.26877208418139" lon="14.24136851051957"><ele>310.0</ele><time>2026-05-01T09:17:40Z</time></trkpt><trkpt lat="42.26851679626959" lon="14.241457387691558"><ele>313.0</ele><time>2026-05-01T09:17:41Z</time></trkpt><trkpt lat="42.26842250378136" lon="14.241426474039613"><ele>313.0</ele><time>2026-05-01T09:17:42Z</time></trkpt><trkpt lat="42.26833105121162" lon="14.241395581648419"><ele>313.0</ele><time>2026-05-01T09:17:43Z</time></trkpt><trkpt lat="42.26822412853569" lon="14.241353808899891"><ele>313.0</ele><time>2026-05-01T09:17:44Z</time></trkpt><trkpt lat="42.268125479096504" lon="14.241309049226812"><ele>313.0</ele><time>2026-05-01T09:17:45Z</time></trkpt><trkpt lat="42.26801838854608" lon="14.241239832882986"><ele>313.0</ele><time>2026-05-01T09:17:46Z</time></trkpt><trkpt lat="42.26793303112959" lon="14.241169156221083"><ele>313.4</ele><time>2026-05-01T09:17:47Z</time></trkpt><trkpt lat="42.26785871165041" lon="14.241097883122722"><ele>313.8</ele><time>2026-05-01T09:17:48Z</time></trkpt><trkpt lat="42.267782166171656" lon="14.241010836653341"><ele>314.2</ele><time>2026-05-01T09:17:48.999Z</time></trkpt><trkpt lat="42.2677011235876" lon="14.240896020503536"><ele>314.6</ele><time>2026-05-01T09:17:49.999Z</time></trkpt><trkpt lat="42.26761042269484" lon="14.240757227915587"><ele>315.0</ele><time>2026-05-01T09:17:50.999Z</time></trkpt><trkpt lat="42.26754526430387" lon="14.240629216162047"><ele>315.0</ele><time>2026-05-01T09:17:51.999Z</time></trkpt><trkpt lat="42.26749185178695" lon="14.24048162817122"><ele>315.0</ele><time>2026-05-01T09:17:52.999Z</time></trkpt><trkpt lat="42.26744505805939" lon="14.240317806965114"><ele>315.0</ele><time>2026-05-01T09:17:53.999Z</time></trkpt><trkpt lat="42.26738311576132" lon="14.240172476922384"><ele>315.0</ele><time>2026-05-01T09:17:54.999Z</time></trkpt><trkpt lat="42.26731099403134" lon="14.240068924493105"><ele>318.0</ele><time>2026-05-01T09:17:55.999Z</time></trkpt><trkpt lat="42.26725025633907" lon="14.239974406574243"><ele>321.0</ele><time>2026-05-01T09:17:56.999Z</time></trkpt><trkpt lat="42.267219075224055" lon="14.239855517999946"><ele>324.0</ele><time>2026-05-01T09:17:57.999Z</time></trkpt><trkpt lat="42.267187103667005" lon="14.239724758059603"><ele>327.0</ele><time>2026-05-01T09:17:58.999Z</time></trkpt><trkpt lat="42.26718684051596" lon="14.239579295584507"><ele>330.0</ele><time>2026-05-01T09:17:59.999Z</time></trkpt><trkpt lat="42.267166433810694" lon="14.239419115554325"><ele>330.2</ele><time>2026-05-01T09:18:00.999Z</time></trkpt><trkpt lat="42.26713830812466" lon="14.239286326891817"><ele>330.4</ele><time>2026-05-01T09:18:01.999Z</time></trkpt><trkpt lat="42.26709802749376" lon="14.23915007318584"><ele>330.6</ele><time>2026-05-01T09:18:02.999Z</time></trkpt><trkpt lat="42.267049888723825" lon="14.239039863153925"><ele>330.8</ele><time>2026-05-01T09:18:03.999Z</time></trkpt><trkpt lat="42.266990962001735" lon="14.23895427873497"><ele>331.0</ele><time>2026-05-01T09:18:05.999Z</time></trkpt><trkpt lat="42.266932881614714" lon="14.238912560108"><ele>331.16666666666663</ele><time>2026-05-01T09:18:15.001Z</time></trkpt><trkpt lat="42.26688826801907" lon="14.238851360921885"><ele>331.3333333333333</ele><time>2026-05-01T09:18:17.001Z</time></trkpt><trkpt lat="42.266823962171" lon="14.238819464657922"><ele>331.5</ele><time>2026-05-01T09:18:19Z</time></trkpt><trkpt lat="42.26675436521419" lon="14.238754944106686"><ele>331.6666666666667</ele><time>2026-05-01T09:18:22Z</time></trkpt><trkpt lat="42.26668649242357" lon="14.238669478754884"><ele>331.83333333333337</ele><time>2026-05-01T09:18:24Z</time></trkpt><trkpt lat="42.26660919622815" lon="14.23853892646111"><ele>332.0</ele><time>2026-05-01T09:18:26Z</time></trkpt><trkpt lat="42.26653142199553" lon="14.23845483458936"><ele>332.0</ele><time>2026-05-01T09:18:28Z</time></trkpt><trkpt lat="42.266455639176314" lon="14.238352687751524"><ele>332.0</ele><time>2026-05-01T09:18:30Z</time></trkpt><trkpt lat="42.26637835769123" lon="14.238270766145346"><ele>332.0</ele><time>2026-05-01T09:18:32Z</time></trkpt><trkpt lat="42.266301834917215" lon="14.238154639805158"><ele>332.0</ele><time>2026-05-01T09:18:34Z</time></trkpt><trkpt lat="42.26624660610682" lon="14.238097515173402"><ele>332.0</ele><time>2026-05-01T09:18:35Z</time></trkpt><trkpt lat="42.26617160112281" lon="14.238034620020358"><ele>332.83333333333337</ele><time>2026-05-01T09:18:36Z</time></trkpt><trkpt lat="42.26610767086137" lon="14.237972913960952"><ele>333.6666666666667</ele><time>2026-05-01T09:18:37Z</time></trkpt><trkpt lat="42.2660363402721" lon="14.237926264138123"><ele>334.5</ele><time>2026-05-01T09:18:38Z</time></trkpt><trkpt lat="42.26595117240477" lon="14.237869962933663"><ele>335.3333333333333</ele><time>2026-05-01T09:18:39Z</time></trkpt><trkpt lat="42.265857037810484" lon="14.237820028228986"><ele>336.16666666666663</ele><time>2026-05-01T09:18:40Z</time></trkpt><trkpt lat="42.265775474798325" lon="14.237753955789994"><ele>337.0</ele><time>2026-05-01T09:18:41Z</time></trkpt><trkpt lat="42.265712660674346" lon="14.23768260624416"><ele>337.0</ele><time>2026-05-01T09:18:42Z</time></trkpt><trkpt lat="42.2656318557016" lon="14.237594694038608"><ele>337.0</ele><time>2026-05-01T09:18:43Z</time></trkpt><trkpt lat="42.265575570663" lon="14.237507608191025"><ele>337.0</ele><time>2026-05-01T09:18:44Z</time></trkpt><trkpt lat="42.265528046904144" lon="14.237408133520422"><ele>337.0</ele><time>2026-05-01T09:18:45Z</time></trkpt><trkpt lat="42.265466458068914" lon="14.237270580115924"><ele>337.0</ele><time>2026-05-01T09:18:46Z</time></trkpt><trkpt lat="42.26541602527499" lon="14.23714914350594"><ele>339.0</ele><time>2026-05-01T09:18:47Z</time></trkpt><trkpt lat="42.265363612732436" lon="14.237015218590027"><ele>341.0</ele><time>2026-05-01T09:18:48Z</time></trkpt><trkpt lat="42.265313845163206" lon="14.236877456888294"><ele>343.0</ele><time>2026-05-01T09:18:49Z</time></trkpt><trkpt lat="42.26526373389077" lon="14.236758467375292"><ele>345.0</ele><time>2026-05-01T09:18:50Z</time></trkpt><trkpt lat="42.265225940375046" lon="14.236664615280253"><ele>347.0</ele><time>2026-05-01T09:18:51Z</time></trkpt><trkpt lat="42.26519231561805" lon="14.23658486159835"><ele>347.0</ele><time>2026-05-01T09:18:52Z</time></trkpt><trkpt lat="42.26515306950818" lon="14.236512686045016"><ele>347.0</ele><time>2026-05-01T09:18:53Z</time></trkpt><trkpt lat="42.26509380425109" lon="14.236431961386803"><ele>347.0</ele><time>2026-05-01T09:18:54Z</time></trkpt><trkpt lat="42.26505962048819" lon="14.236324845087799"><ele>347.0</ele><time>2026-05-01T09:18:55Z</time></trkpt><trkpt lat="42.26501433771829" lon="14.236230259239768"><ele>347.0</ele><time>2026-05-01T09:18:56Z</time></trkpt><trkpt lat="42.264969316084276" lon="14.23616928309046"><ele>347.0</ele><time>2026-05-01T09:18:57Z</time></trkpt><trkpt lat="42.26488487940242" lon="14.23607889741294"><ele>346.33333333333337</ele><time>2026-05-01T09:18:59Z</time></trkpt><trkpt lat="42.26481659052643" lon="14.236033683822205"><ele>345.6666666666667</ele><time>2026-05-01T09:19:01Z</time></trkpt><trkpt lat="42.26473731664015" lon="14.236019239159415"><ele>345.0</ele><time>2026-05-01T09:19:04Z</time></trkpt><trkpt lat="42.2646619692845" lon="14.236092710871816"><ele>344.3333333333333</ele><time>2026-05-01T09:19:12Z</time></trkpt><trkpt lat="42.264601160915056" lon="14.236164374891075"><ele>343.66666666666663</ele><time>2026-05-01T09:19:13Z</time></trkpt><trkpt lat="42.26451002780948" lon="14.236221816139212"><ele>343.0</ele><time>2026-05-01T09:19:14Z</time></trkpt><trkpt lat="42.26441260736069" lon="14.236326990722747"><ele>344.5</ele><time>2026-05-01T09:19:15Z</time></trkpt><trkpt lat="42.2643241857669" lon="14.23642009873067"><ele>346.0</ele><time>2026-05-01T09:19:16Z</time></trkpt><trkpt lat="42.26422140244994" lon="14.236506972833867"><ele>347.5</ele><time>2026-05-01T09:19:17Z</time></trkpt><trkpt lat="42.26410580021529" lon="14.23654810902614"><ele>349.0</ele><time>2026-05-01T09:19:18Z</time></trkpt><trkpt lat="42.26400143324951" lon="14.236603528401726"><ele>348.2</ele><time>2026-05-01T09:19:19Z</time></trkpt><trkpt lat="42.26389963901391" lon="14.236698728432616"><ele>347.4</ele><time>2026-05-01T09:19:20Z</time></trkpt><trkpt lat="42.263800232213804" lon="14.236778549149523"><ele>346.6</ele><time>2026-05-01T09:19:21Z</time></trkpt><trkpt lat="42.26370365437083" lon="14.23679341739154"><ele>345.8</ele><time>2026-05-01T09:19:22Z</time></trkpt><trkpt lat="42.26362360945076" lon="14.236758032149284"><ele>345.0</ele><time>2026-05-01T09:19:23Z</time></trkpt><trkpt lat="42.26351715346099" lon="14.236725369437698"><ele>345.0</ele><time>2026-05-01T09:19:24Z</time></trkpt><trkpt lat="42.2633955843022" lon="14.236701396680717"><ele>345.0</ele><time>2026-05-01T09:19:25Z</time></trkpt><trkpt lat="42.26327284118669" lon="14.236699982356145"><ele>345.0</ele><time>2026-05-01T09:19:26Z</time></trkpt><trkpt lat="42.26316808127967" lon="14.236759975828921"><ele>345.0</ele><time>2026-05-01T09:19:27Z</time></trkpt><trkpt lat="42.263047924544765" lon="14.23684389848211"><ele>344.3333333333333</ele><time>2026-05-01T09:19:28Z</time></trkpt><trkpt lat="42.262875927449684" lon="14.23693452865302"><ele>343.66666666666663</ele><time>2026-05-01T09:19:29Z</time></trkpt><trkpt lat="42.26270325105788" lon="14.237006098566642"><ele>343.0</ele><time>2026-05-01T09:19:30Z</time></trkpt><trkpt lat="42.262532131081166" lon="14.237080356013903"><ele>343.0</ele><time>2026-05-01T09:19:31Z</time></trkpt><trkpt lat="42.26238883143844" lon="14.23712675918043"><ele>343.0</ele><time>2026-05-01T09:19:32Z</time></trkpt><trkpt lat="42.26225684191406" lon="14.23714616912015"><ele>343.0</ele><time>2026-05-01T09:19:33Z</time></trkpt><trkpt lat="42.26212438769452" lon="14.237154695811713"><ele>343.0</ele><time>2026-05-01T09:19:34Z</time></trkpt><trkpt lat="42.26199667838367" lon="14.237163889482234"><ele>341.0</ele><time>2026-05-01T09:19:35Z</time></trkpt><trkpt lat="42.26186805596595" lon="14.237177653144434"><ele>339.0</ele><time>2026-05-01T09:19:36Z</time></trkpt><trkpt lat="42.26173633441017" lon="14.23720712782619"><ele>337.0</ele><time>2026-05-01T09:19:37Z</time></trkpt><trkpt lat="42.26162196318476" lon="14.237282159092688"><ele>335.0</ele><time>2026-05-01T09:19:38Z</time></trkpt><trkpt lat="42.26152242804802" lon="14.237326765112716"><ele>337.8</ele><time>2026-05-01T09:19:39Z</time></trkpt><trkpt lat="42.26142883376663" lon="14.237384966152622"><ele>340.6</ele><time>2026-05-01T09:19:40Z</time></trkpt><trkpt lat="42.26133319046131" lon="14.237454470162888"><ele>343.4</ele><time>2026-05-01T09:19:41Z</time></trkpt><trkpt lat="42.26123821154686" lon="14.237488250093882"><ele>346.2</ele><time>2026-05-01T09:19:42Z</time></trkpt><trkpt lat="42.261146951684225" lon="14.23751943734428"><ele>349.0</ele><time>2026-05-01T09:19:43Z</time></trkpt><trkpt lat="42.261069273322235" lon="14.23756840227832"><ele>349.0</ele><time>2026-05-01T09:19:44Z</time></trkpt><trkpt lat="42.26099643261854" lon="14.237646258887194"><ele>349.0</ele><time>2026-05-01T09:19:45Z</time></trkpt><trkpt lat="42.26093920909261" lon="14.237796209959074"><ele>349.0</ele><time>2026-05-01T09:19:46Z</time></trkpt><trkpt lat="42.26086576176052" lon="14.237960332312941"><ele>349.0</ele><time>2026-05-01T09:19:47Z</time></trkpt><trkpt lat="42.26078700327711" lon="14.238138913281903"><ele>349.3333333333333</ele><time>2026-05-01T09:19:48Z</time></trkpt><trkpt lat="42.26070397061259" lon="14.238329204259058"><ele>349.6666666666667</ele><time>2026-05-01T09:19:49Z</time></trkpt><trkpt lat="42.260632159440014" lon="14.238506098381377"><ele>350.0</ele><time>2026-05-01T09:19:50Z</time></trkpt><trkpt lat="42.26057125881462" lon="14.238686528079775"><ele>350.0</ele><time>2026-05-01T09:19:51Z</time></trkpt><trkpt lat="42.26050534275745" lon="14.238810329463288"><ele>350.0</ele><time>2026-05-01T09:19:52Z</time></trkpt><trkpt lat="42.260451278875784" lon="14.23890956935282"><ele>350.0</ele><time>2026-05-01T09:19:53Z</time></trkpt><trkpt lat="42.26038564899674" lon="14.238974540933754"><ele>350.0</ele><time>2026-05-01T09:19:54Z</time></trkpt><trkpt lat="42.260312973084275" lon="14.239051025949271"><ele>350.0</ele><time>2026-05-01T09:19:55Z</time></trkpt><trkpt lat="42.26021665395757" lon="14.239128339564555"><ele>351.0</ele><time>2026-05-01T09:19:56Z</time></trkpt><trkpt lat="42.26011205534669" lon="14.2392183872151"><ele>352.0</ele><time>2026-05-01T09:19:56.999Z</time></trkpt><trkpt lat="42.26001139727384" lon="14.239235812423827"><ele>353.0</ele><time>2026-05-01T09:19:57.999Z</time></trkpt><trkpt lat="42.259943914269684" lon="14.23923716262415"><ele>354.0</ele><time>2026-05-01T09:19:58.999Z</time></trkpt><trkpt lat="42.259870567734964" lon="14.239217365379611"><ele>355.0</ele><time>2026-05-01T09:19:59.999Z</time></trkpt><trkpt lat="42.25979375219725" lon="14.23918519383341"><ele>356.0</ele><time>2026-05-01T09:20:00.999Z</time></trkpt><trkpt lat="42.25970058437284" lon="14.239174725390706"><ele>357.0</ele><time>2026-05-01T09:20:01.999Z</time></trkpt><trkpt lat="42.2596039850047" lon="14.239129410027273"><ele>358.0</ele><time>2026-05-01T09:20:02.999Z</time></trkpt><trkpt lat="42.25948798717196" lon="14.23910985353687"><ele>359.0</ele><time>2026-05-01T09:20:03.999Z</time></trkpt><trkpt lat="42.25936602124683" lon="14.23906886155817"><ele>360.0</ele><time>2026-05-01T09:20:04.999Z</time></trkpt><trkpt lat="42.25926488462442" lon="14.239074585397953"><ele>361.0</ele><time>2026-05-01T09:20:05.999Z</time></trkpt><trkpt lat="42.259192659809536" lon="14.239127869133073"><ele>361.0</ele><time>2026-05-01T09:20:06.999Z</time></trkpt><trkpt lat="42.25911508471752" lon="14.239199827274648"><ele>361.0</ele><time>2026-05-01T09:20:07.999Z</time></trkpt><trkpt lat="42.25901694779164" lon="14.239224643183093"><ele>361.0</ele><time>2026-05-01T09:20:08.999Z</time></trkpt><trkpt lat="42.25890812324052" lon="14.23921613640429"><ele>361.0</ele><time>2026-05-01T09:20:09.999Z</time></trkpt><trkpt lat="42.25878493592818" lon="14.239162029948698"><ele>361.0</ele><time>2026-05-01T09:20:10.999Z</time></trkpt><trkpt lat="42.25868038843767" lon="14.239146776373932"><ele>362.3333333333333</ele><time>2026-05-01T09:20:11.999Z</time></trkpt><trkpt lat="42.25857776213008" lon="14.239183855728838"><ele>363.66666666666663</ele><time>2026-05-01T09:20:12.999Z</time></trkpt><trkpt lat="42.25851056069839" lon="14.239202996626096"><ele>365.0</ele><time>2026-05-01T09:20:14.999Z</time></trkpt><trkpt lat="42.258435270222925" lon="14.239278526328853"><ele>366.3333333333333</ele><time>2026-05-01T09:20:45Z</time></trkpt><trkpt lat="42.2583663171514" lon="14.239324525115459"><ele>367.6666666666667</ele><time>2026-05-01T09:20:46Z</time></trkpt><trkpt lat="42.25830968426368" lon="14.23936371255042"><ele>369.0</ele><time>2026-05-01T09:20:47Z</time></trkpt><trkpt lat="42.258252154185996" lon="14.239405003826096"><ele>369.0</ele><time>2026-05-01T09:20:48Z</time></trkpt><trkpt lat="42.25818999653007" lon="14.239452883430431"><ele>369.0</ele><time>2026-05-01T09:20:49Z</time></trkpt><trkpt lat="42.25813937629999" lon="14.239520284559818"><ele>369.0</ele><time>2026-05-01T09:20:50Z</time></trkpt><trkpt lat="42.258078131298674" lon="14.239566337472187"><ele>369.0</ele><time>2026-05-01T09:20:51Z</time></trkpt><trkpt lat="42.257991166873225" lon="14.239668936684692"><ele>369.0</ele><time>2026-05-01T09:20:53Z</time></trkpt><trkpt lat="42.257936354946644" lon="14.239726258635491"><ele>369.0</ele><time>2026-05-01T09:20:54Z</time></trkpt><trkpt lat="42.257878780698796" lon="14.239785529431314"><ele>367.8333333333333</ele><time>2026-05-01T09:20:55Z</time></trkpt><trkpt lat="42.257831934669206" lon="14.239853461377654"><ele>366.6666666666667</ele><time>2026-05-01T09:20:56Z</time></trkpt><trkpt lat="42.25773870127262" lon="14.239957201557438"><ele>365.5</ele><time>2026-05-01T09:20:58Z</time></trkpt><trkpt lat="42.25765138914269" lon="14.240011910308887"><ele>364.33333333333337</ele><time>2026-05-01T09:21:00Z</time></trkpt><trkpt lat="42.25757564304453" lon="14.240041792894539"><ele>363.1666666666667</ele><time>2026-05-01T09:21:03Z</time></trkpt><trkpt lat="42.25750819740026" lon="14.240066707263109"><ele>362.0</ele><time>2026-05-01T09:21:07Z</time></trkpt><trkpt lat="42.25738681177983" lon="14.240045707275168"><ele>362.0</ele><time>2026-05-01T09:21:09Z</time></trkpt><trkpt lat="42.25729702353982" lon="14.240001365495402"><ele>362.0</ele><time>2026-05-01T09:21:10Z</time></trkpt><trkpt lat="42.25721848531935" lon="14.239932345116248"><ele>362.0</ele><time>2026-05-01T09:21:11Z</time></trkpt><trkpt lat="42.257151587016914" lon="14.239865012397333"><ele>362.0</ele><time>2026-05-01T09:21:12Z</time></trkpt><trkpt lat="42.25708311797741" lon="14.239772475281255"><ele>362.0</ele><time>2026-05-01T09:21:13Z</time></trkpt><trkpt lat="42.25700653927553" lon="14.239702877856937"><ele>361.2857142857143</ele><time>2026-05-01T09:21:14Z</time></trkpt><trkpt lat="42.25692970456473" lon="14.239653861364467"><ele>360.57142857142856</ele><time>2026-05-01T09:21:15Z</time></trkpt><trkpt lat="42.25686517363598" lon="14.23959865940147"><ele>359.8571428571429</ele><time>2026-05-01T09:21:16Z</time></trkpt><trkpt lat="42.256800502020035" lon="14.239559579936088"><ele>359.1428571428571</ele><time>2026-05-01T09:21:17Z</time></trkpt><trkpt lat="42.2567333516836" lon="14.239540041064794"><ele>358.42857142857144</ele><time>2026-05-01T09:21:18Z</time></trkpt><trkpt lat="42.256663860962696" lon="14.239516234161107"><ele>357.7142857142857</ele><time>2026-05-01T09:21:19Z</time></trkpt><trkpt lat="42.256610639540895" lon="14.239449532573307"><ele>357.0</ele><time>2026-05-01T09:21:20Z</time></trkpt><trkpt lat="42.256529420876056" lon="14.239368418226116"><ele>354.0</ele><time>2026-05-01T09:21:21Z</time></trkpt><trkpt lat="42.256425525118026" lon="14.239274810872844"><ele>351.0</ele><time>2026-05-01T09:21:22Z</time></trkpt><trkpt lat="42.25631452686811" lon="14.239189302464002"><ele>348.0</ele><time>2026-05-01T09:21:23Z</time></trkpt><trkpt lat="42.25621542639059" lon="14.239113022188054"><ele>345.0</ele><time>2026-05-01T09:21:24Z</time></trkpt><trkpt lat="42.25612120429791" lon="14.239030410733559"><ele>344.8333333333333</ele><time>2026-05-01T09:21:25Z</time></trkpt><trkpt lat="42.25603461296939" lon="14.238951122942323"><ele>344.6666666666667</ele><time>2026-05-01T09:21:26Z</time></trkpt><trkpt lat="42.25595851148959" lon="14.238881440258897"><ele>344.5</ele><time>2026-05-01T09:21:27Z</time></trkpt><trkpt lat="42.25589419719851" lon="14.23882255056786"><ele>344.33333333333337</ele><time>2026-05-01T09:21:28Z</time></trkpt><trkpt lat="42.255830198583524" lon="14.238763949832302"><ele>344.1666666666667</ele><time>2026-05-01T09:21:29Z</time></trkpt><trkpt lat="42.25576702197204" lon="14.238700583428704"><ele>344.0</ele><time>2026-05-01T09:21:30Z</time></trkpt><trkpt lat="42.255698607344506" lon="14.238657560663055"><ele>344.0</ele><time>2026-05-01T09:21:31Z</time></trkpt><trkpt lat="42.25562204167453" lon="14.238660632859473"><ele>344.0</ele><time>2026-05-01T09:21:32Z</time></trkpt><trkpt lat="42.25553085391371" lon="14.238642690085971"><ele>344.0</ele><time>2026-05-01T09:21:34Z</time></trkpt><trkpt lat="42.255508566478035" lon="14.238496809814457"><ele>344.0</ele><time>2026-05-01T09:21:36Z</time></trkpt><trkpt lat="42.25546098537024" lon="14.23838391166963"><ele>344.0</ele><time>2026-05-01T09:21:37Z</time></trkpt><trkpt lat="42.25541145422248" lon="14.23827906056069"><ele>344.25</ele><time>2026-05-01T09:21:38Z</time></trkpt><trkpt lat="42.25532713245296" lon="14.238202197426492"><ele>344.5</ele><time>2026-05-01T09:21:39Z</time></trkpt><trkpt lat="42.25522112199509" lon="14.23814477463503"><ele>344.75</ele><time>2026-05-01T09:21:40Z</time></trkpt><trkpt lat="42.255102129881" lon="14.238118247193913"><ele>345.0</ele><time>2026-05-01T09:21:41Z</time></trkpt><trkpt lat="42.25498235575163" lon="14.238103833161727"><ele>340.5</ele><time>2026-05-01T09:21:42Z</time></trkpt><trkpt lat="42.254856734992075" lon="14.238086711945302"><ele>336.0</ele><time>2026-05-01T09:21:43Z</time></trkpt><trkpt lat="42.25473788839105" lon="14.238065287550342"><ele>331.5</ele><time>2026-05-01T09:21:44Z</time></trkpt><trkpt lat="42.25462535381162" lon="14.23803937374049"><ele>327.0</ele><time>2026-05-01T09:21:45Z</time></trkpt><trkpt lat="42.25451128941864" lon="14.238015678177248"><ele>327.0</ele><time>2026-05-01T09:21:46Z</time></trkpt><trkpt lat="42.25439830220429" lon="14.23798759357929"><ele>327.0</ele><time>2026-05-01T09:21:47Z</time></trkpt><trkpt lat="42.25428761008896" lon="14.237948240969192"><ele>327.0</ele><time>2026-05-01T09:21:48Z</time></trkpt><trkpt lat="42.25416748426304" lon="14.237881991503329"><ele>327.0</ele><time>2026-05-01T09:21:49Z</time></trkpt><trkpt lat="42.25405358021784" lon="14.23777970888717"><ele>327.75</ele><time>2026-05-01T09:21:50Z</time></trkpt><trkpt lat="42.253933836653886" lon="14.237660519505706"><ele>328.5</ele><time>2026-05-01T09:21:51Z</time></trkpt><trkpt lat="42.25381333517589" lon="14.237535094013094"><ele>329.25</ele><time>2026-05-01T09:21:52Z</time></trkpt><trkpt lat="42.253701232600626" lon="14.237413391092145"><ele>330.0</ele><time>2026-05-01T09:21:53Z</time></trkpt><trkpt lat="42.25359982316664" lon="14.237288880425533"><ele>330.0</ele><time>2026-05-01T09:21:54Z</time></trkpt><trkpt lat="42.25351362818002" lon="14.237141630256758"><ele>330.0</ele><time>2026-05-01T09:21:55Z</time></trkpt><trkpt lat="42.25344175000572" lon="14.236970466784838"><ele>330.0</ele><time>2026-05-01T09:21:56Z</time></trkpt><trkpt lat="42.253382934291054" lon="14.236786672222177"><ele>330.0</ele><time>2026-05-01T09:21:57Z</time></trkpt><trkpt lat="42.2533272474825" lon="14.236592219676572"><ele>330.5</ele><time>2026-05-01T09:21:58Z</time></trkpt><trkpt lat="42.25326954961741" lon="14.236395300411662"><ele>331.0</ele><time>2026-05-01T09:21:59Z</time></trkpt><trkpt lat="42.25320900971275" lon="14.236211938705624"><ele>331.5</ele><time>2026-05-01T09:22:00Z</time></trkpt><trkpt lat="42.25315407480939" lon="14.236042029019968"><ele>332.0</ele><time>2026-05-01T09:22:01Z</time></trkpt><trkpt lat="42.25310041346302" lon="14.235867930611601"><ele>332.0</ele><time>2026-05-01T09:22:02Z</time></trkpt><trkpt lat="42.25304281477004" lon="14.235702911627408"><ele>332.0</ele><time>2026-05-01T09:22:03Z</time></trkpt><trkpt lat="42.25299203823426" lon="14.235543913064216"><ele>332.0</ele><time>2026-05-01T09:22:04Z</time></trkpt><trkpt lat="42.252933316068706" lon="14.235400927946774"><ele>332.0</ele><time>2026-05-01T09:22:05Z</time></trkpt><trkpt lat="42.25285368888199" lon="14.235274880789607"><ele>327.5</ele><time>2026-05-01T09:22:06Z</time></trkpt><trkpt lat="42.25273901017168" lon="14.235178784995679"><ele>323.0</ele><time>2026-05-01T09:22:07Z</time></trkpt><trkpt lat="42.25259979088508" lon="14.235106528199063"><ele>318.5</ele><time>2026-05-01T09:22:08Z</time></trkpt><trkpt lat="42.25245169566281" lon="14.235038144255135"><ele>314.0</ele><time>2026-05-01T09:22:08.998Z</time></trkpt><trkpt lat="42.252311269235165" lon="14.234933251981325"><ele>315.33333333333337</ele><time>2026-05-01T09:22:09.998Z</time></trkpt><trkpt lat="42.25219111992715" lon="14.234793287184777"><ele>316.6666666666667</ele><time>2026-05-01T09:22:10.998Z</time></trkpt><trkpt lat="42.252084906306244" lon="14.234627737712458"><ele>318.0</ele><time>2026-05-01T09:22:11.998Z</time></trkpt><trkpt lat="42.2519914996022" lon="14.234460972673226"><ele>318.0</ele><time>2026-05-01T09:22:12.998Z</time></trkpt><trkpt lat="42.25191365678642" lon="14.234297162146005"><ele>318.0</ele><time>2026-05-01T09:22:13.998Z</time></trkpt><trkpt lat="42.251839987571465" lon="14.234141965852956"><ele>318.0</ele><time>2026-05-01T09:22:14.998Z</time></trkpt><trkpt lat="42.251779265154155" lon="14.233998721563038"><ele>318.0</ele><time>2026-05-01T09:22:15.998Z</time></trkpt><trkpt lat="42.251747062111534" lon="14.233856534851817"><ele>314.6</ele><time>2026-05-01T09:22:16.998Z</time></trkpt><trkpt lat="42.25176211956213" lon="14.233708287900265"><ele>311.20000000000005</ele><time>2026-05-01T09:22:17.998Z</time></trkpt><trkpt lat="42.251827024872675" lon="14.233589750811758"><ele>307.8</ele><time>2026-05-01T09:22:18.998Z</time></trkpt><trkpt lat="42.251918859643325" lon="14.233540116212012"><ele>304.40000000000003</ele><time>2026-05-01T09:22:19.998Z</time></trkpt><trkpt lat="42.252010478181575" lon="14.23360395959551"><ele>301.0</ele><time>2026-05-01T09:22:20.998Z</time></trkpt><trkpt lat="42.25209047642458" lon="14.233681908872947"><ele>301.0</ele><time>2026-05-01T09:22:21.998Z</time></trkpt><trkpt lat="42.25214261498614" lon="14.233833676096143"><ele>301.0</ele><time>2026-05-01T09:22:22.998Z</time></trkpt><trkpt lat="42.252207671522996" lon="14.233979004581764"><ele>301.0</ele><time>2026-05-01T09:22:23.998Z</time></trkpt><trkpt lat="42.25227971772696" lon="14.234136472887153"><ele>301.0</ele><time>2026-05-01T09:22:24.998Z</time></trkpt><trkpt lat="42.25237480511526" lon="14.234263343721645"><ele>299.75</ele><time>2026-05-01T09:22:26Z</time></trkpt><trkpt lat="42.25248923758985" lon="14.234369960007005"><ele>298.5</ele><time>2026-05-01T09:22:27Z</time></trkpt><trkpt lat="42.25262079443228" lon="14.23441652775042"><ele>297.25</ele><time>2026-05-01T09:22:28Z</time></trkpt><trkpt lat="42.252793475484374" lon="14.234447506818636"><ele>296.0</ele><time>2026-05-01T09:22:29Z</time></trkpt><trkpt lat="42.25298464556095" lon="14.23444738038175"><ele>293.6666666666667</ele><time>2026-05-01T09:22:30Z</time></trkpt><trkpt lat="42.25317283977209" lon="14.234440395964821"><ele>291.3333333333333</ele><time>2026-05-01T09:22:31Z</time></trkpt><trkpt lat="42.25336716775571" lon="14.234460295892415"><ele>289.0</ele><time>2026-05-01T09:22:32Z</time></trkpt><trkpt lat="42.25353988845422" lon="14.234455086528587"><ele>289.0</ele><time>2026-05-01T09:22:33Z</time></trkpt><trkpt lat="42.253695132418656" lon="14.234514925660262"><ele>289.0</ele><time>2026-05-01T09:22:34Z</time></trkpt><trkpt lat="42.25384234068457" lon="14.234603725061588"><ele>289.0</ele><time>2026-05-01T09:22:35Z</time></trkpt><trkpt lat="42.25401215802457" lon="14.234704234754675"><ele>290.3333333333333</ele><time>2026-05-01T09:22:36Z</time></trkpt><trkpt lat="42.25419543311948" lon="14.234800735840897"><ele>291.6666666666667</ele><time>2026-05-01T09:22:37Z</time></trkpt><trkpt lat="42.25436872409198" lon="14.234914185537068"><ele>293.0</ele><time>2026-05-01T09:22:38Z</time></trkpt><trkpt lat="42.25452566339166" lon="14.235015890794951"><ele>293.0</ele><time>2026-05-01T09:22:39Z</time></trkpt><trkpt lat="42.25467096127461" lon="14.235106713007529"><ele>293.0</ele><time>2026-05-01T09:22:40Z</time></trkpt><trkpt lat="42.254814857543344" lon="14.235190020893324"><ele>293.0</ele><time>2026-05-01T09:22:41Z</time></trkpt><trkpt lat="42.254977983971905" lon="14.23525891006248"><ele>290.0</ele><time>2026-05-01T09:22:42Z</time></trkpt><trkpt lat="42.25515569007833" lon="14.235294275020964"><ele>287.0</ele><time>2026-05-01T09:22:43Z</time></trkpt><trkpt lat="42.25533801041387" lon="14.235303653380466"><ele>284.0</ele><time>2026-05-01T09:22:43.999Z</time></trkpt><trkpt lat="42.25550592802025" lon="14.235306173422371"><ele>282.0</ele><time>2026-05-01T09:22:44.999Z</time></trkpt><trkpt lat="42.25565937223119" lon="14.235313881339495"><ele>280.0</ele><time>2026-05-01T09:22:45.999Z</time></trkpt><trkpt lat="42.255809674513465" lon="14.23531272146759"><ele>278.0</ele><time>2026-05-01T09:22:46.999Z</time></trkpt><trkpt lat="42.2559542086654" lon="14.235294043334704"><ele>276.0</ele><time>2026-05-01T09:22:47.999Z</time></trkpt><trkpt lat="42.25608809513974" lon="14.23523440679258"><ele>276.0</ele><time>2026-05-01T09:22:48.999Z</time></trkpt><trkpt lat="42.256204535331804" lon="14.235139833712228"><ele>276.0</ele><time>2026-05-01T09:22:49.999Z</time></trkpt><trkpt lat="42.25631207987455" lon="14.23502223429564"><ele>276.0</ele><time>2026-05-01T09:22:50.999Z</time></trkpt><trkpt lat="42.256431013908355" lon="14.234892424080977"><ele>276.0</ele><time>2026-05-01T09:22:51.999Z</time></trkpt><trkpt lat="42.256540290450324" lon="14.234783083248644"><ele>274.0</ele><time>2026-05-01T09:22:52.999Z</time></trkpt><trkpt lat="42.25664145844566" lon="14.234684814738483"><ele>272.0</ele><time>2026-05-01T09:22:53.999Z</time></trkpt><trkpt lat="42.25674113530091" lon="14.234596570448394"><ele>270.0</ele><time>2026-05-01T09:22:54.999Z</time></trkpt><trkpt lat="42.256825336287875" lon="14.234526846044867"><ele>268.0</ele><time>2026-05-01T09:22:55.999Z</time></trkpt><trkpt lat="42.25688566032521" lon="14.234469093328146"><ele>266.0</ele><time>2026-05-01T09:22:56.999Z</time></trkpt><trkpt lat="42.25697280187904" lon="14.234397284389743"><ele>266.0</ele><time>2026-05-01T09:22:58.999Z</time></trkpt><trkpt lat="42.25688987082472" lon="14.234266155194788"><ele>266.0</ele><time>2026-05-01T09:23:00.999Z</time></trkpt><trkpt lat="42.256748508959994" lon="14.234266149726983"><ele>266.0</ele><time>2026-05-01T09:23:02.999Z</time></trkpt><trkpt lat="42.25663229811877" lon="14.234272320726973"><ele>266.0</ele><time>2026-05-01T09:23:03.999Z</time></trkpt><trkpt lat="42.25650322204028" lon="14.234299596033008"><ele>266.0</ele><time>2026-05-01T09:23:04.999Z</time></trkpt><trkpt lat="42.2563762911205" lon="14.234310994059765"><ele>266.0</ele><time>2026-05-01T09:23:05.999Z</time></trkpt><trkpt lat="42.25624993651202" lon="14.234318047889667"><ele>266.0</ele><time>2026-05-01T09:23:06.999Z</time></trkpt><trkpt lat="42.25611683492839" lon="14.23433384731556"><ele>266.0</ele><time>2026-05-01T09:23:07.999Z</time></trkpt><trkpt lat="42.25599920021725" lon="14.234318003453506"><ele>266.0</ele><time>2026-05-01T09:23:08.999Z</time></trkpt><trkpt lat="42.255889676258136" lon="14.234274370616959"><ele>266.0</ele><time>2026-05-01T09:23:09.999Z</time></trkpt><trkpt lat="42.255782256317794" lon="14.234169297099871"><ele>266.0</ele><time>2026-05-01T09:23:10.999Z</time></trkpt><trkpt lat="42.25569328451502" lon="14.23402997074305"><ele>266.0</ele><time>2026-05-01T09:23:11.999Z</time></trkpt><trkpt lat="42.255635735854334" lon="14.233862545995063"><ele>263.5</ele><time>2026-05-01T09:23:12.999Z</time></trkpt><trkpt lat="42.25560390060622" lon="14.233674264441436"><ele>261.0</ele><time>2026-05-01T09:23:13.999Z</time></trkpt><trkpt lat="42.25558830507791" lon="14.233487332607792"><ele>258.5</ele><time>2026-05-01T09:23:14.999Z</time></trkpt><trkpt lat="42.25557261675852" lon="14.23330752608097"><ele>256.0</ele><time>2026-05-01T09:23:15.999Z</time></trkpt><trkpt lat="42.255570587796015" lon="14.233132731398639"><ele>254.75</ele><time>2026-05-01T09:23:16.999Z</time></trkpt><trkpt lat="42.25559860407985" lon="14.23297044655369"><ele>253.5</ele><time>2026-05-01T09:23:17.999Z</time></trkpt><trkpt lat="42.25565884888741" lon="14.232814658793682"><ele>252.25</ele><time>2026-05-01T09:23:18.999Z</time></trkpt><trkpt lat="42.25575345984369" lon="14.232690449969121"><ele>251.0</ele><time>2026-05-01T09:23:19.999Z</time></trkpt><trkpt lat="42.25588408737871" lon="14.232614712680654"><ele>251.0</ele><time>2026-05-01T09:23:20.999Z</time></trkpt><trkpt lat="42.25601032950652" lon="14.232514895974179"><ele>251.0</ele><time>2026-05-01T09:23:21.999Z</time></trkpt><trkpt lat="42.25615396195542" lon="14.232441673546429"><ele>251.0</ele><time>2026-05-01T09:23:22.999Z</time></trkpt><trkpt lat="42.25628948400428" lon="14.232363673124338"><ele>251.0</ele><time>2026-05-01T09:23:23.999Z</time></trkpt><trkpt lat="42.25642117417742" lon="14.232298211061401"><ele>249.25</ele><time>2026-05-01T09:23:24.999Z</time></trkpt><trkpt lat="42.25654945458001" lon="14.232253439925323"><ele>247.5</ele><time>2026-05-01T09:23:25.999Z</time></trkpt><trkpt lat="42.25668762625069" lon="14.232260293978163"><ele>245.75</ele><time>2026-05-01T09:23:26.999Z</time></trkpt><trkpt lat="42.25682500217148" lon="14.232232466749316"><ele>244.0</ele><time>2026-05-01T09:23:27.999Z</time></trkpt><trkpt lat="42.25695935187588" lon="14.23221821528467"><ele>244.0</ele><time>2026-05-01T09:23:28.999Z</time></trkpt><trkpt lat="42.25707630303962" lon="14.232174037296142"><ele>244.0</ele><time>2026-05-01T09:23:29.999Z</time></trkpt><trkpt lat="42.257191732308655" lon="14.232089295408004"><ele>244.0</ele><time>2026-05-01T09:23:30.999Z</time></trkpt><trkpt lat="42.257289976531155" lon="14.231941914643901"><ele>244.0</ele><time>2026-05-01T09:23:31.999Z</time></trkpt><trkpt lat="42.257390397278094" lon="14.231773362785761"><ele>241.66666666666666</ele><time>2026-05-01T09:23:32.999Z</time></trkpt><trkpt lat="42.25750654210434" lon="14.231600785309706"><ele>239.33333333333331</ele><time>2026-05-01T09:23:33.999Z</time></trkpt><trkpt lat="42.25762800585292" lon="14.231436109422853"><ele>237.0</ele><time>2026-05-01T09:23:34.999Z</time></trkpt><trkpt lat="42.25774332710691" lon="14.231286302734764"><ele>236.25</ele><time>2026-05-01T09:23:35.999Z</time></trkpt><trkpt lat="42.25785027833237" lon="14.231141840563875"><ele>235.5</ele><time>2026-05-01T09:23:36.999Z</time></trkpt><trkpt lat="42.25796132427103" lon="14.23100776119597"><ele>234.75</ele><time>2026-05-01T09:23:37.999Z</time></trkpt><trkpt lat="42.25806283496896" lon="14.230878857699995"><ele>234.0</ele><time>2026-05-01T09:23:38.999Z</time></trkpt><trkpt lat="42.25814996422847" lon="14.230734310412519"><ele>229.66666666666669</ele><time>2026-05-01T09:23:39.999Z</time></trkpt><trkpt lat="42.25821590516472" lon="14.230572467840657"><ele>225.33333333333334</ele><time>2026-05-01T09:23:40.999Z</time></trkpt><trkpt lat="42.25826670687789" lon="14.230382251137119"><ele>221.0</ele><time>2026-05-01T09:23:41.999Z</time></trkpt><trkpt lat="42.25830411658672" lon="14.230167075924907"><ele>221.0</ele><time>2026-05-01T09:23:42.999Z</time></trkpt><trkpt lat="42.25833293061322" lon="14.229930712631708"><ele>221.0</ele><time>2026-05-01T09:23:43.999Z</time></trkpt><trkpt lat="42.25836818508733" lon="14.229718425980757"><ele>221.0</ele><time>2026-05-01T09:23:44.999Z</time></trkpt><trkpt lat="42.25841289371845" lon="14.229530181802277"><ele>220.25</ele><time>2026-05-01T09:23:45.999Z</time></trkpt><trkpt lat="42.25844367099328" lon="14.229351734868263"><ele>219.5</ele><time>2026-05-01T09:23:46.999Z</time></trkpt><trkpt lat="42.25844592594156" lon="14.229183659793227"><ele>218.75</ele><time>2026-05-01T09:23:47.999Z</time></trkpt><trkpt lat="42.25840689943973" lon="14.229032187513374"><ele>218.0</ele><time>2026-05-01T09:23:48.999Z</time></trkpt><trkpt lat="42.25832243979946" lon="14.228913854764043"><ele>215.75</ele><time>2026-05-01T09:23:49.999Z</time></trkpt><trkpt lat="42.258208612747964" lon="14.22883029952537"><ele>213.5</ele><time>2026-05-01T09:23:50.999Z</time></trkpt><trkpt lat="42.25807920577919" lon="14.228807428766459"><ele>211.25</ele><time>2026-05-01T09:23:51.999Z</time></trkpt><trkpt lat="42.25794265354734" lon="14.22883603413185"><ele>209.0</ele><time>2026-05-01T09:23:52.999Z</time></trkpt><trkpt lat="42.257794194636055" lon="14.228926056684838"><ele>209.66666666666669</ele><time>2026-05-01T09:23:53.999Z</time></trkpt><trkpt lat="42.25764080798227" lon="14.229044119880061"><ele>210.33333333333331</ele><time>2026-05-01T09:23:54.999Z</time></trkpt><trkpt lat="42.25750820458994" lon="14.229154478643192"><ele>211.0</ele><time>2026-05-01T09:23:55.999Z</time></trkpt><trkpt lat="42.25738743669269" lon="14.229258752309784"><ele>210.75</ele><time>2026-05-01T09:23:56.999Z</time></trkpt><trkpt lat="42.25726881763543" lon="14.229346361723762"><ele>210.5</ele><time>2026-05-01T09:23:57.999Z</time></trkpt><trkpt lat="42.25714222114508" lon="14.229401115046022"><ele>210.25</ele><time>2026-05-01T09:23:58.999Z</time></trkpt><trkpt lat="42.25701276845749" lon="14.229402299065166"><ele>210.0</ele><time>2026-05-01T09:23:59.999Z</time></trkpt><trkpt lat="42.25689757870443" lon="14.229317777048147"><ele>210.0</ele><time>2026-05-01T09:24:00.999Z</time></trkpt><trkpt lat="42.25681366656809" lon="14.229197222855447"><ele>210.0</ele><time>2026-05-01T09:24:01.999Z</time></trkpt><trkpt lat="42.25676226311229" lon="14.229050422596023"><ele>210.0</ele><time>2026-05-01T09:24:02.999Z</time></trkpt><trkpt lat="42.25673512287476" lon="14.228866370117597"><ele>210.0</ele><time>2026-05-01T09:24:03.999Z</time></trkpt><trkpt lat="42.2567566535542" lon="14.228669840682201"><ele>209.75</ele><time>2026-05-01T09:24:04.999Z</time></trkpt><trkpt lat="42.25680069622077" lon="14.228550390751206"><ele>209.5</ele><time>2026-05-01T09:24:05.999Z</time></trkpt><trkpt lat="42.25687541876376" lon="14.228401142606119"><ele>209.25</ele><time>2026-05-01T09:24:06.999Z</time></trkpt><trkpt lat="42.25697411003652" lon="14.22825710701613"><ele>209.0</ele><time>2026-05-01T09:24:07.999Z</time></trkpt><trkpt lat="42.25708363836345" lon="14.228108502604451"><ele>209.0</ele><time>2026-05-01T09:24:08.999Z</time></trkpt><trkpt lat="42.25719101531847" lon="14.227946937408404"><ele>209.0</ele><time>2026-05-01T09:24:09.999Z</time></trkpt><trkpt lat="42.25728545175219" lon="14.22776452593252"><ele>209.0</ele><time>2026-05-01T09:24:10.999Z</time></trkpt><trkpt lat="42.25736170811604" lon="14.227573685052"><ele>207.0</ele><time>2026-05-01T09:24:11.999Z</time></trkpt><trkpt lat="42.25740878494942" lon="14.227378228946732"><ele>205.0</ele><time>2026-05-01T09:24:12.999Z</time></trkpt><trkpt lat="42.257435566861496" lon="14.22717919283243"><ele>203.0</ele><time>2026-05-01T09:24:13.999Z</time></trkpt><trkpt lat="42.25744292583487" lon="14.226990599057494"><ele>201.0</ele><time>2026-05-01T09:24:14.999Z</time></trkpt><trkpt lat="42.25744858471801" lon="14.226834546799079"><ele>198.75</ele><time>2026-05-01T09:24:15.999Z</time></trkpt><trkpt lat="42.257421063964" lon="14.226690616894624"><ele>196.5</ele><time>2026-05-01T09:24:16.999Z</time></trkpt><trkpt lat="42.25735412189785" lon="14.226555284181554"><ele>194.25</ele><time>2026-05-01T09:24:17.999Z</time></trkpt><trkpt lat="42.25725248196922" lon="14.226433464602284"><ele>192.0</ele><time>2026-05-01T09:24:18.999Z</time></trkpt><trkpt lat="42.25711994305223" lon="14.226337786637998"><ele>189.75</ele><time>2026-05-01T09:24:19.999Z</time></trkpt><trkpt lat="42.25696726609682" lon="14.226271235065003"><ele>187.5</ele><time>2026-05-01T09:24:20.998Z</time></trkpt><trkpt lat="42.256822506558116" lon="14.22621401282071"><ele>185.25</ele><time>2026-05-01T09:24:21.998Z</time></trkpt><trkpt lat="42.256718972365675" lon="14.226122614256445"><ele>183.0</ele><time>2026-05-01T09:24:22.998Z</time></trkpt><trkpt lat="42.256633271975375" lon="14.226059277839598"><ele>183.0</ele><time>2026-05-01T09:24:23.998Z</time></trkpt><trkpt lat="42.25659136800831" lon="14.2259379426546"><ele>183.0</ele><time>2026-05-01T09:24:24.998Z</time></trkpt><trkpt lat="42.256597883004495" lon="14.225794073583442"><ele>183.0</ele><time>2026-05-01T09:24:25.998Z</time></trkpt><trkpt lat="42.25664945847873" lon="14.225656074969454"><ele>183.0</ele><time>2026-05-01T09:24:26.998Z</time></trkpt><trkpt lat="42.256755182632965" lon="14.225568207096808"><ele>183.0</ele><time>2026-05-01T09:24:27.998Z</time></trkpt><trkpt lat="42.25687819785143" lon="14.225538382013056"><ele>179.66666666666666</ele><time>2026-05-01T09:24:28.998Z</time></trkpt><trkpt lat="42.257023519078565" lon="14.22554143171646"><ele>176.33333333333331</ele><time>2026-05-01T09:24:29.998Z</time></trkpt><trkpt lat="42.25719393540926" lon="14.225537517150105"><ele>173.0</ele><time>2026-05-01T09:24:30.998Z</time></trkpt><trkpt lat="42.257355133547065" lon="14.225568923243198"><ele>173.0</ele><time>2026-05-01T09:24:32Z</time></trkpt><trkpt lat="42.25749815823603" lon="14.225568916886152"><ele>173.0</ele><time>2026-05-01T09:24:33Z</time></trkpt><trkpt lat="42.25764065138273" lon="14.22556672186201"><ele>173.0</ele><time>2026-05-01T09:24:34Z</time></trkpt><trkpt lat="42.257773945075854" lon="14.225578254933438"><ele>173.0</ele><time>2026-05-01T09:24:35Z</time></trkpt><trkpt lat="42.25789334481247" lon="14.225570423628099"><ele>173.0</ele><time>2026-05-01T09:24:36Z</time></trkpt><trkpt lat="42.257984519061964" lon="14.22550237186474"><ele>173.0</ele><time>2026-05-01T09:24:37Z</time></trkpt><trkpt lat="42.25803284002157" lon="14.225386421898175"><ele>173.0</ele><time>2026-05-01T09:24:38Z</time></trkpt><trkpt lat="42.25804889289386" lon="14.225235405635303"><ele>173.0</ele><time>2026-05-01T09:24:39Z</time></trkpt><trkpt lat="42.258028943166345" lon="14.225073323601107"><ele>173.0</ele><time>2026-05-01T09:24:40Z</time></trkpt><trkpt lat="42.257982433024985" lon="14.22496618952793"><ele>173.0</ele><time>2026-05-01T09:24:41Z</time></trkpt><trkpt lat="42.2579225724355" lon="14.224876874416475"><ele>173.0</ele><time>2026-05-01T09:24:42Z</time></trkpt><trkpt lat="42.25774265925179" lon="14.224814130681255"><ele>173.0</ele><time>2026-05-01T09:24:43Z</time></trkpt><trkpt lat="42.257583499676336" lon="14.224756837153478"><ele>173.0</ele><time>2026-05-01T09:24:44Z</time></trkpt><trkpt lat="42.25740936440463" lon="14.224693364039245"><ele>170.5</ele><time>2026-05-01T09:24:45Z</time></trkpt><trkpt lat="42.257254951610015" lon="14.22463840557784"><ele>168.0</ele><time>2026-05-01T09:24:46Z</time></trkpt><trkpt lat="42.2571347970184" lon="14.224557510897794"><ele>165.5</ele><time>2026-05-01T09:24:47Z</time></trkpt><trkpt lat="42.257031070212435" lon="14.224490301210153"><ele>163.0</ele><time>2026-05-01T09:24:48Z</time></trkpt><trkpt lat="42.25694697995238" lon="14.224399480482184"><ele>163.0</ele><time>2026-05-01T09:24:49Z</time></trkpt><trkpt lat="42.25691536878455" lon="14.224279546326105"><ele>163.0</ele><time>2026-05-01T09:24:50Z</time></trkpt><trkpt lat="42.256905319565725" lon="14.224156989505815"><ele>163.0</ele><time>2026-05-01T09:24:51Z</time></trkpt><trkpt lat="42.25696019445526" lon="14.224068307843591"><ele>163.0</ele><time>2026-05-01T09:24:52Z</time></trkpt><trkpt lat="42.25704851270466" lon="14.22398805926377"><ele>163.0</ele><time>2026-05-01T09:24:53Z</time></trkpt><trkpt lat="42.257182072811986" lon="14.22392841135321"><ele>162.0</ele><time>2026-05-01T09:24:54Z</time></trkpt><trkpt lat="42.257330732604366" lon="14.223838932310812"><ele>161.0</ele><time>2026-05-01T09:24:55Z</time></trkpt><trkpt lat="42.25746561367751" lon="14.223762515224834"><ele>160.0</ele><time>2026-05-01T09:24:55.999Z</time></trkpt><trkpt lat="42.25758851784379" lon="14.223686711413636"><ele>159.0</ele><time>2026-05-01T09:24:56.999Z</time></trkpt><trkpt lat="42.25769343751825" lon="14.223586057927553"><ele>159.0</ele><time>2026-05-01T09:24:57.999Z</time></trkpt><trkpt lat="42.25776729876496" lon="14.223507386873763"><ele>159.0</ele><time>2026-05-01T09:24:58.999Z</time></trkpt><trkpt lat="42.257798817779054" lon="14.223389178502469"><ele>159.0</ele><time>2026-05-01T09:24:59.999Z</time></trkpt><trkpt lat="42.25776861321789" lon="14.223247003165913"><ele>159.0</ele><time>2026-05-01T09:25:00.999Z</time></trkpt><trkpt lat="42.2577167770877" lon="14.223089774516515"><ele>159.0</ele><time>2026-05-01T09:25:01.999Z</time></trkpt><trkpt lat="42.25764757733105" lon="14.222888330213559"><ele>158.33333333333334</ele><time>2026-05-01T09:25:02.999Z</time></trkpt><trkpt lat="42.257558835641404" lon="14.22267750772188"><ele>157.66666666666669</ele><time>2026-05-01T09:25:03.999Z</time></trkpt><trkpt lat="42.25747813049032" lon="14.222466760070262"><ele>157.0</ele><time>2026-05-01T09:25:04.999Z</time></trkpt><trkpt lat="42.257397854874505" lon="14.222269396319156"><ele>158.33333333333334</ele><time>2026-05-01T09:25:05.999Z</time></trkpt><trkpt lat="42.25733072957644" lon="14.222059007297204"><ele>159.66666666666666</ele><time>2026-05-01T09:25:06.999Z</time></trkpt><trkpt lat="42.257261798677405" lon="14.221880070109943"><ele>161.0</ele><time>2026-05-01T09:25:07.999Z</time></trkpt><trkpt lat="42.257194361150574" lon="14.221688194306694"><ele>161.0</ele><time>2026-05-01T09:25:08.999Z</time></trkpt><trkpt lat="42.25716532013432" lon="14.221505296563885"><ele>161.0</ele><time>2026-05-01T09:25:09.999Z</time></trkpt><trkpt lat="42.257155412447666" lon="14.221357949725286"><ele>161.0</ele><time>2026-05-01T09:25:10.999Z</time></trkpt><trkpt lat="42.25717135907494" lon="14.221224547222848"><ele>161.0</ele><time>2026-05-01T09:25:11.999Z</time></trkpt><trkpt lat="42.25724782375638" lon="14.221117815010267"><ele>162.25</ele><time>2026-05-01T09:25:12.999Z</time></trkpt><trkpt lat="42.25734403743406" lon="14.221005791597165"><ele>163.5</ele><time>2026-05-01T09:25:13.999Z</time></trkpt><trkpt lat="42.25746590211848" lon="14.220929901560039"><ele>164.75</ele><time>2026-05-01T09:25:14.999Z</time></trkpt><trkpt lat="42.25761171707641" lon="14.220853652903877"><ele>166.0</ele><time>2026-05-01T09:25:15.999Z</time></trkpt><trkpt lat="42.257754521480095" lon="14.220778724989096"><ele>166.0</ele><time>2026-05-01T09:25:16.999Z</time></trkpt><trkpt lat="42.25787571627372" lon="14.22071210857705"><ele>166.0</ele><time>2026-05-01T09:25:17.999Z</time></trkpt><trkpt lat="42.25798432475327" lon="14.220661633247122"><ele>166.0</ele><time>2026-05-01T09:25:18.999Z</time></trkpt><trkpt lat="42.25806923131059" lon="14.220584609076488"><ele>166.0</ele><time>2026-05-01T09:25:19.999Z</time></trkpt><trkpt lat="42.25812086219657" lon="14.220472003753526"><ele>166.0</ele><time>2026-05-01T09:25:20.999Z</time></trkpt><trkpt lat="42.25811374371319" lon="14.220345268982843"><ele>169.5</ele><time>2026-05-01T09:25:21.999Z</time></trkpt><trkpt lat="42.25803748005198" lon="14.220212587404005"><ele>173.0</ele><time>2026-05-01T09:25:22.999Z</time></trkpt><trkpt lat="42.25792232269939" lon="14.220131674213095"><ele>176.5</ele><time>2026-05-01T09:25:23.999Z</time></trkpt><trkpt lat="42.257783511598284" lon="14.220088941999396"><ele>180.0</ele><time>2026-05-01T09:25:24.999Z</time></trkpt><trkpt lat="42.25762327458522" lon="14.220076450701287"><ele>180.0</ele><time>2026-05-01T09:25:25.999Z</time></trkpt><trkpt lat="42.25745430638108" lon="14.220054251533215"><ele>180.0</ele><time>2026-05-01T09:25:26.999Z</time></trkpt><trkpt lat="42.25729887290855" lon="14.220026062724521"><ele>180.0</ele><time>2026-05-01T09:25:27.999Z</time></trkpt><trkpt lat="42.25714055553716" lon="14.219991190309784"><ele>179.5</ele><time>2026-05-01T09:25:28.999Z</time></trkpt><trkpt lat="42.25699795809756" lon="14.219954212703133"><ele>179.0</ele><time>2026-05-01T09:25:29.999Z</time></trkpt><trkpt lat="42.25688009710485" lon="14.219905102171287"><ele>178.5</ele><time>2026-05-01T09:25:30.999Z</time></trkpt><trkpt lat="42.25679817452085" lon="14.219809149937406"><ele>178.0</ele><time>2026-05-01T09:25:31.999Z</time></trkpt><trkpt lat="42.25673473891252" lon="14.219736958409863"><ele>180.4</ele><time>2026-05-01T09:25:32.999Z</time></trkpt><trkpt lat="42.256740048759426" lon="14.219629676693222"><ele>182.8</ele><time>2026-05-01T09:25:33.999Z</time></trkpt><trkpt lat="42.25671245078491" lon="14.219544112204469"><ele>185.2</ele><time>2026-05-01T09:25:35.999Z</time></trkpt><trkpt lat="42.2565466286183" lon="14.219615326795923"><ele>187.6</ele><time>2026-05-01T09:25:36.999Z</time></trkpt><trkpt lat="42.25645015233873" lon="14.21961943128904"><ele>190.0</ele><time>2026-05-01T09:25:37.999Z</time></trkpt><trkpt lat="42.25635972180296" lon="14.219620582021554"><ele>190.0</ele><time>2026-05-01T09:25:38.999Z</time></trkpt><trkpt lat="42.25628124333593" lon="14.219568531944498"><ele>190.0</ele><time>2026-05-01T09:25:39.999Z</time></trkpt><trkpt lat="42.25620290463695" lon="14.21950579877775"><ele>190.0</ele><time>2026-05-01T09:25:40.999Z</time></trkpt><trkpt lat="42.25615768706478" lon="14.219405575819309"><ele>190.0</ele><time>2026-05-01T09:25:41.999Z</time></trkpt><trkpt lat="42.256106819307874" lon="14.219347219728457"><ele>190.0</ele><time>2026-05-01T09:25:42.999Z</time></trkpt><trkpt lat="42.2560181916202" lon="14.219369574448189"><ele>190.0</ele><time>2026-05-01T09:25:43.999Z</time></trkpt><trkpt lat="42.25593588338437" lon="14.219417602514506"><ele>190.0</ele><time>2026-05-01T09:25:44.999Z</time></trkpt><trkpt lat="42.255880866088134" lon="14.219496519439438"><ele>190.0</ele><time>2026-05-01T09:25:45.999Z</time></trkpt><trkpt lat="42.255880679980415" lon="14.219603514365318"><ele>190.0</ele><time>2026-05-01T09:25:46.999Z</time></trkpt><trkpt lat="42.255904659494064" lon="14.219710522945837"><ele>190.0</ele><time>2026-05-01T09:25:47.999Z</time></trkpt><trkpt lat="42.25594042315203" lon="14.21984566153195"><ele>190.0</ele><time>2026-05-01T09:25:48.999Z</time></trkpt><trkpt lat="42.255926108433734" lon="14.220009928465748"><ele>187.25</ele><time>2026-05-01T09:25:49.999Z</time></trkpt><trkpt lat="42.25589927542892" lon="14.22018900971819"><ele>184.5</ele><time>2026-05-01T09:25:50.999Z</time></trkpt><trkpt lat="42.25589276603803" lon="14.220361356219861"><ele>181.75</ele><time>2026-05-01T09:25:51.999Z</time></trkpt><trkpt lat="42.25585273123645" lon="14.220525127221968"><ele>179.0</ele><time>2026-05-01T09:25:52.999Z</time></trkpt><trkpt lat="42.25581966482435" lon="14.220683300330515"><ele>178.5</ele><time>2026-05-01T09:25:53.999Z</time></trkpt><trkpt lat="42.255791078534635" lon="14.220837539632951"><ele>178.0</ele><time>2026-05-01T09:25:54.999Z</time></trkpt><trkpt lat="42.25573035853028" lon="14.220946534496218"><ele>177.5</ele><time>2026-05-01T09:25:55.999Z</time></trkpt><trkpt lat="42.25563390532059" lon="14.220992507004198"><ele>177.0</ele><time>2026-05-01T09:25:56.999Z</time></trkpt><trkpt lat="42.255514739143635" lon="14.221064151538497"><ele>177.0</ele><time>2026-05-01T09:25:57.999Z</time></trkpt><trkpt lat="42.25536820143635" lon="14.221136815921556"><ele>177.0</ele><time>2026-05-01T09:25:58.999Z</time></trkpt><trkpt lat="42.25524037359058" lon="14.221238836742462"><ele>177.0</ele><time>2026-05-01T09:25:59.999Z</time></trkpt><trkpt lat="42.255127856632505" lon="14.221313599905443"><ele>177.0</ele><time>2026-05-01T09:26:00.999Z</time></trkpt><trkpt lat="42.25502049195933" lon="14.221365832232028"><ele>177.0</ele><time>2026-05-01T09:26:01.999Z</time></trkpt><trkpt lat="42.25491192148601" lon="14.221439515035605"><ele>177.0</ele><time>2026-05-01T09:26:02.999Z</time></trkpt><trkpt lat="42.25480251750689" lon="14.221515011871794"><ele>177.0</ele><time>2026-05-01T09:26:03.999Z</time></trkpt><trkpt lat="42.254709809898266" lon="14.221574038602236"><ele>177.0</ele><time>2026-05-01T09:26:04.999Z</time></trkpt><trkpt lat="42.25460383970465" lon="14.221590444843347"><ele>175.39999999999998</ele><time>2026-05-01T09:26:05.999Z</time></trkpt><trkpt lat="42.25451180808633" lon="14.221502861510197"><ele>173.79999999999998</ele><time>2026-05-01T09:26:06.999Z</time></trkpt><trkpt lat="42.25442933831579" lon="14.221402419125484"><ele>172.2</ele><time>2026-05-01T09:26:07.999Z</time></trkpt><trkpt lat="42.25436887187058" lon="14.221271761542674"><ele>170.6</ele><time>2026-05-01T09:26:08.999Z</time></trkpt><trkpt lat="42.25431800127021" lon="14.22118199028045"><ele>169.0</ele><time>2026-05-01T09:26:09.999Z</time></trkpt><trkpt lat="42.2542236073973" lon="14.221073522619772"><ele>169.0</ele><time>2026-05-01T09:26:11.999Z</time></trkpt><trkpt lat="42.25410830575604" lon="14.221109381954275"><ele>169.0</ele><time>2026-05-01T09:26:12.999Z</time></trkpt><trkpt lat="42.25400458031105" lon="14.221147112908803"><ele>169.0</ele><time>2026-05-01T09:26:13.999Z</time></trkpt><trkpt lat="42.25391521169385" lon="14.221132883836264"><ele>169.0</ele><time>2026-05-01T09:26:14.999Z</time></trkpt><trkpt lat="42.25384871246871" lon="14.221002207309"><ele>169.0</ele><time>2026-05-01T09:26:16.999Z</time></trkpt><trkpt lat="42.25378493095017" lon="14.220876512995043"><ele>169.2</ele><time>2026-05-01T09:26:17.999Z</time></trkpt><trkpt lat="42.25371208885494" lon="14.22075805026707"><ele>169.39999999999998</ele><time>2026-05-01T09:26:18.999Z</time></trkpt><trkpt lat="42.25364346099767" lon="14.220651712043614"><ele>169.6</ele><time>2026-05-01T09:26:19.999Z</time></trkpt><trkpt lat="42.25356439445177" lon="14.220571287332946"><ele>169.8</ele><time>2026-05-01T09:26:20.999Z</time></trkpt><trkpt lat="42.253449795452326" lon="14.220583042718577"><ele>170.0</ele><time>2026-05-01T09:26:21.999Z</time></trkpt><trkpt lat="42.25332787220351" lon="14.220591948940019"><ele>170.25</ele><time>2026-05-01T09:26:22.999Z</time></trkpt><trkpt lat="42.25320180083924" lon="14.220577033226494"><ele>170.5</ele><time>2026-05-01T09:26:23.999Z</time></trkpt><trkpt lat="42.25306673042735" lon="14.220575057795989"><ele>170.75</ele><time>2026-05-01T09:26:24.999Z</time></trkpt><trkpt lat="42.25293115637283" lon="14.220573074999182"><ele>171.0</ele><time>2026-05-01T09:26:25.999Z</time></trkpt><trkpt lat="42.25278992823764" lon="14.220567756220117"><ele>172.5</ele><time>2026-05-01T09:26:26.999Z</time></trkpt><trkpt lat="42.252646888382586" lon="14.220551422684888"><ele>174.0</ele><time>2026-05-01T09:26:27.999Z</time></trkpt><trkpt lat="42.25249995240819" lon="14.220525230568848"><ele>175.5</ele><time>2026-05-01T09:26:28.999Z</time></trkpt><trkpt lat="42.252360884026906" lon="14.22048521675206"><ele>177.0</ele><time>2026-05-01T09:26:29.999Z</time></trkpt><trkpt lat="42.25220772790035" lon="14.220427378133081"><ele>179.66666666666666</ele><time>2026-05-01T09:26:30.999Z</time></trkpt><trkpt lat="42.25205460320277" lon="14.220358716484196"><ele>182.33333333333331</ele><time>2026-05-01T09:26:31.999Z</time></trkpt><trkpt lat="42.25189179626353" lon="14.220285541832846"><ele>185.0</ele><time>2026-05-01T09:26:32.999Z</time></trkpt><trkpt lat="42.251728850501806" lon="14.22021230479398"><ele>185.0</ele><time>2026-05-01T09:26:33.998Z</time></trkpt><trkpt lat="42.251547755093476" lon="14.220142479937364"><ele>185.0</ele><time>2026-05-01T09:26:34.998Z</time></trkpt><trkpt lat="42.25136658207647" lon="14.220131826914558"><ele>185.0</ele><time>2026-05-01T09:26:35.998Z</time></trkpt><trkpt lat="42.25119810619233" lon="14.220091908138391"><ele>187.0</ele><time>2026-05-01T09:26:36.998Z</time></trkpt><trkpt lat="42.25103390595606" lon="14.220074939181613"><ele>189.0</ele><time>2026-05-01T09:26:38Z</time></trkpt><trkpt lat="42.25088432799251" lon="14.220068857163728"><ele>191.0</ele><time>2026-05-01T09:26:39Z</time></trkpt><trkpt lat="42.25075053626658" lon="14.220084282339352"><ele>193.0</ele><time>2026-05-01T09:26:40Z</time></trkpt><trkpt lat="42.25064272656889" lon="14.220143347611971"><ele>194.25</ele><time>2026-05-01T09:26:41Z</time></trkpt><trkpt lat="42.25052981233061" lon="14.220125706874379"><ele>195.5</ele><time>2026-05-01T09:26:42Z</time></trkpt><trkpt lat="42.25040873362799" lon="14.220073686689313"><ele>196.75</ele><time>2026-05-01T09:26:43Z</time></trkpt><trkpt lat="42.25026640543958" lon="14.219992882876216"><ele>198.0</ele><time>2026-05-01T09:26:44Z</time></trkpt><trkpt lat="42.2501339042058" lon="14.219904675261006"><ele>198.0</ele><time>2026-05-01T09:26:45Z</time></trkpt><trkpt lat="42.250016118390555" lon="14.219839786295932"><ele>198.0</ele><time>2026-05-01T09:26:46Z</time></trkpt><trkpt lat="42.24990230685914" lon="14.219835275290645"><ele>198.0</ele><time>2026-05-01T09:26:47Z</time></trkpt><trkpt lat="42.24980596606255" lon="14.219826519473484"><ele>198.0</ele><time>2026-05-01T09:26:48Z</time></trkpt><trkpt lat="42.2497358590808" lon="14.219790413599473"><ele>198.0</ele><time>2026-05-01T09:26:49Z</time></trkpt><trkpt lat="42.249745650666235" lon="14.219666129357673"><ele>202.0</ele><time>2026-05-01T09:26:50Z</time></trkpt><trkpt lat="42.249701309491975" lon="14.219528577483942"><ele>206.0</ele><time>2026-05-01T09:26:51Z</time></trkpt><trkpt lat="42.2496437450918" lon="14.21939442713609"><ele>210.0</ele><time>2026-05-01T09:26:52Z</time></trkpt><trkpt lat="42.24960498525282" lon="14.219277381327801"><ele>214.0</ele><time>2026-05-01T09:26:53Z</time></trkpt><trkpt lat="42.24958536956858" lon="14.219195757654127"><ele>218.0</ele><time>2026-05-01T09:26:54Z</time></trkpt><trkpt lat="42.24944122960085" lon="14.219398727667615"><ele>218.00000000000003</ele><time>2026-05-01T09:26:58Z</time></trkpt><trkpt lat="42.24942520441091" lon="14.219489217379788"><ele>218.0</ele><time>2026-05-01T09:26:59Z</time></trkpt><trkpt lat="42.249337921436535" lon="14.21951094042814"><ele>218.0</ele><time>2026-05-01T09:27:28.999Z</time></trkpt><trkpt lat="42.24924008491253" lon="14.219434916750114"><ele>218.0</ele><time>2026-05-01T09:27:30.999Z</time></trkpt><trkpt lat="42.249168139446304" lon="14.219389759413803"><ele>218.00000000000003</ele><time>2026-05-01T09:27:31.999Z</time></trkpt><trkpt lat="42.24907611996249" lon="14.21937761764211"><ele>218.0</ele><time>2026-05-01T09:27:32.999Z</time></trkpt><trkpt lat="42.24900181910946" lon="14.21937437381519"><ele>218.2</ele><time>2026-05-01T09:27:33.999Z</time></trkpt><trkpt lat="42.248921493450844" lon="14.219243983705022"><ele>218.4</ele><time>2026-05-01T09:27:35.999Z</time></trkpt><trkpt lat="42.24887368667193" lon="14.219147873273386"><ele>218.59999999999997</ele><time>2026-05-01T09:27:36.999Z</time></trkpt><trkpt lat="42.24883409906114" lon="14.219052979727046"><ele>218.79999999999998</ele><time>2026-05-01T09:27:37.999Z</time></trkpt><trkpt lat="42.248821700231446" lon="14.218942377400094"><ele>219.0</ele><time>2026-05-01T09:27:38.999Z</time></trkpt><trkpt lat="42.24883221080914" lon="14.218816223637916"><ele>219.0</ele><time>2026-05-01T09:27:39.999Z</time></trkpt><trkpt lat="42.24886535690361" lon="14.21871030013347"><ele>218.99999999999997</ele><time>2026-05-01T09:27:40.999Z</time></trkpt><trkpt lat="42.24888185702514" lon="14.218588199563746"><ele>218.99999999999997</ele><time>2026-05-01T09:27:41.999Z</time></trkpt><trkpt lat="42.248867360639274" lon="14.218457624673132"><ele>219.0</ele><time>2026-05-01T09:27:42.999Z</time></trkpt><trkpt lat="42.24883502894408" lon="14.218330772391724"><ele>219.0</ele><time>2026-05-01T09:27:43.999Z</time></trkpt><trkpt lat="42.24878541754512" lon="14.218187592275942"><ele>223.0</ele><time>2026-05-01T09:27:44.999Z</time></trkpt><trkpt lat="42.248744436967435" lon="14.218049930395727"><ele>227.0</ele><time>2026-05-01T09:27:45.999Z</time></trkpt><trkpt lat="42.248729411004426" lon="14.217910518396975"><ele>231.0</ele><time>2026-05-01T09:27:46.999Z</time></trkpt><trkpt lat="42.248704638400966" lon="14.217728279568442"><ele>235.0</ele><time>2026-05-01T09:27:47.999Z</time></trkpt><trkpt lat="42.248675189371255" lon="14.217548240237127"><ele>235.0</ele><time>2026-05-01T09:27:48.999Z</time></trkpt><trkpt lat="42.248642034401485" lon="14.21736830444861"><ele>235.0</ele><time>2026-05-01T09:27:49.999Z</time></trkpt><trkpt lat="42.24861314813429" lon="14.217194271030476"><ele>235.0</ele><time>2026-05-01T09:27:50.999Z</time></trkpt><trkpt lat="42.248589541000705" lon="14.21704677977521"><ele>235.0</ele><time>2026-05-01T09:27:51.999Z</time></trkpt><trkpt lat="42.24852919444292" lon="14.21690592745094"><ele>238.75</ele><time>2026-05-01T09:27:52.999Z</time></trkpt><trkpt lat="42.24844997140424" lon="14.216754804123092"><ele>242.5</ele><time>2026-05-01T09:27:53.999Z</time></trkpt><trkpt lat="42.24840560857568" lon="14.216602402819571"><ele>246.25</ele><time>2026-05-01T09:27:54.999Z</time></trkpt><trkpt lat="42.24836731058865" lon="14.216451879207643"><ele>250.0</ele><time>2026-05-01T09:27:55.999Z</time></trkpt><trkpt lat="42.24832568655906" lon="14.216285389927679"><ele>252.75</ele><time>2026-05-01T09:27:56.999Z</time></trkpt><trkpt lat="42.24827959663252" lon="14.216118659899596"><ele>255.5</ele><time>2026-05-01T09:27:57.999Z</time></trkpt><trkpt lat="42.24824470253923" lon="14.215942315243096"><ele>258.25</ele><time>2026-05-01T09:27:58.999Z</time></trkpt><trkpt lat="42.24820324624896" lon="14.215775643718603"><ele>261.0</ele><time>2026-05-01T09:27:59.999Z</time></trkpt><trkpt lat="42.248136934529626" lon="14.215623242147396"><ele>259.0</ele><time>2026-05-01T09:28:00.999Z</time></trkpt><trkpt lat="42.248045188565975" lon="14.215475074564209"><ele>257.0</ele><time>2026-05-01T09:28:01.999Z</time></trkpt><trkpt lat="42.247970848799866" lon="14.215330843650573"><ele>255.0</ele><time>2026-05-01T09:28:02.999Z</time></trkpt><trkpt lat="42.247931448547035" lon="14.215186634348154"><ele>253.0</ele><time>2026-05-01T09:28:03.999Z</time></trkpt><trkpt lat="42.24789004636914" lon="14.215051201577282"><ele>253.0</ele><time>2026-05-01T09:28:04.999Z</time></trkpt><trkpt lat="42.247861577740636" lon="14.214957711096751"><ele>253.0</ele><time>2026-05-01T09:28:05.999Z</time></trkpt><trkpt lat="42.24786063064989" lon="14.214844668597511"><ele>253.0</ele><time>2026-05-01T09:28:06.999Z</time></trkpt><trkpt lat="42.24788876529012" lon="14.214723821546533"><ele>253.0</ele><time>2026-05-01T09:28:07.999Z</time></trkpt><trkpt lat="42.24790973362154" lon="14.214589849804392"><ele>253.0</ele><time>2026-05-01T09:28:08.999Z</time></trkpt><trkpt lat="42.24790384345423" lon="14.214442452495769"><ele>255.75</ele><time>2026-05-01T09:28:09.999Z</time></trkpt><trkpt lat="42.24787110754265" lon="14.214273965818217"><ele>258.5</ele><time>2026-05-01T09:28:10.999Z</time></trkpt><trkpt lat="42.2478208441105" lon="14.21411835616741"><ele>261.25</ele><time>2026-05-01T09:28:11.999Z</time></trkpt><trkpt lat="42.247774088544695" lon="14.213975295228247"><ele>264.0</ele><time>2026-05-01T09:28:12.999Z</time></trkpt><trkpt lat="42.247725955681034" lon="14.213837684253148"><ele>266.0</ele><time>2026-05-01T09:28:13.999Z</time></trkpt><trkpt lat="42.247676574007095" lon="14.213743893420743"><ele>268.0</ele><time>2026-05-01T09:28:14.999Z</time></trkpt><trkpt lat="42.24762346611116" lon="14.21368440679899"><ele>270.0</ele><time>2026-05-01T09:28:15.999Z</time></trkpt><trkpt lat="42.247575830057" lon="14.213622767480443"><ele>272.0</ele><time>2026-05-01T09:28:16.999Z</time></trkpt><trkpt lat="42.24755942935547" lon="14.213462991285185"><ele>274.0</ele><time>2026-05-01T09:28:18.999Z</time></trkpt><trkpt lat="42.247543032169354" lon="14.21330342159835"><ele>274.5</ele><time>2026-05-01T09:28:19.999Z</time></trkpt><trkpt lat="42.24751147484522" lon="14.213135833392355"><ele>275.0</ele><time>2026-05-01T09:28:20.999Z</time></trkpt><trkpt lat="42.24749374782635" lon="14.212983166593324"><ele>275.5</ele><time>2026-05-01T09:28:21.999Z</time></trkpt><trkpt lat="42.247482694449666" lon="14.212848461862642"><ele>276.0</ele><time>2026-05-01T09:28:22.999Z</time></trkpt><trkpt lat="42.247479748595495" lon="14.212697083774287"><ele>276.0</ele><time>2026-05-01T09:28:23.999Z</time></trkpt><trkpt lat="42.247474917528706" lon="14.212551487356818"><ele>276.0</ele><time>2026-05-01T09:28:24.999Z</time></trkpt><trkpt lat="42.247455376571835" lon="14.212386385303303"><ele>276.0</ele><time>2026-05-01T09:28:25.999Z</time></trkpt><trkpt lat="42.247429290887474" lon="14.212219704324985"><ele>276.0</ele><time>2026-05-01T09:28:26.999Z</time></trkpt><trkpt lat="42.24740417105989" lon="14.212061889128023"><ele>276.8</ele><time>2026-05-01T09:28:27.999Z</time></trkpt><trkpt lat="42.24737123030095" lon="14.211902339193793"><ele>277.6</ele><time>2026-05-01T09:28:28.999Z</time></trkpt><trkpt lat="42.247322418671914" lon="14.211754991296205"><ele>278.4</ele><time>2026-05-01T09:28:29.999Z</time></trkpt><trkpt lat="42.247277289816026" lon="14.211641618194081"><ele>279.2</ele><time>2026-05-01T09:28:30.999Z</time></trkpt><trkpt lat="42.24722870218775" lon="14.21155817141682"><ele>280.0</ele><time>2026-05-01T09:28:31.999Z</time></trkpt><trkpt lat="42.24722199406559" lon="14.21145732569418"><ele>280.0</ele><time>2026-05-01T09:28:33.999Z</time></trkpt><trkpt lat="42.24727920513099" lon="14.211353668492277"><ele>280.0</ele><time>2026-05-01T09:28:34.999Z</time></trkpt><trkpt lat="42.24733015367923" lon="14.211220395388684"><ele>280.0</ele><time>2026-05-01T09:28:35.999Z</time></trkpt><trkpt lat="42.2473568246211" lon="14.211076331528627"><ele>280.0</ele><time>2026-05-01T09:28:36.999Z</time></trkpt><trkpt lat="42.24735156423852" lon="14.210922161138637"><ele>280.0</ele><time>2026-05-01T09:28:37.999Z</time></trkpt><trkpt lat="42.24734437923133" lon="14.210764576424676"><ele>285.0</ele><time>2026-05-01T09:28:38.999Z</time></trkpt><trkpt lat="42.24732260730597" lon="14.210605426594332"><ele>290.0</ele><time>2026-05-01T09:28:39.999Z</time></trkpt><trkpt lat="42.24730072355526" lon="14.210473359595868"><ele>295.0</ele><time>2026-05-01T09:28:40.999Z</time></trkpt><trkpt lat="42.24730049750325" lon="14.210359915980462"><ele>300.0</ele><time>2026-05-01T09:28:41.999Z</time></trkpt><trkpt lat="42.24731968542433" lon="14.210268249630206"><ele>305.0</ele><time>2026-05-01T09:28:42.999Z</time></trkpt><trkpt lat="42.2473471336065" lon="14.21016684020384"><ele>305.0</ele><time>2026-05-01T09:28:44Z</time></trkpt><trkpt lat="42.24736933503076" lon="14.210042873918312"><ele>305.0</ele><time>2026-05-01T09:28:45Z</time></trkpt><trkpt lat="42.24737682055438" lon="14.209873300866919"><ele>305.0</ele><time>2026-05-01T09:28:46Z</time></trkpt><trkpt lat="42.24736692595323" lon="14.209692153698912"><ele>305.0</ele><time>2026-05-01T09:28:47Z</time></trkpt><trkpt lat="42.24737097868827" lon="14.20954098056138"><ele>306.6666666666667</ele><time>2026-05-01T09:28:48Z</time></trkpt><trkpt lat="42.24734040432535" lon="14.209416163794792"><ele>308.33333333333337</ele><time>2026-05-01T09:28:49Z</time></trkpt><trkpt lat="42.247298588163744" lon="14.209311814340792"><ele>310.0</ele><time>2026-05-01T09:28:50Z</time></trkpt><trkpt lat="42.24728367212917" lon="14.209198851278169"><ele>311.6666666666667</ele><time>2026-05-01T09:28:51Z</time></trkpt><trkpt lat="42.247276495776106" lon="14.209096471488445"><ele>313.3333333333333</ele><time>2026-05-01T09:28:52Z</time></trkpt><trkpt lat="42.2472223957856" lon="14.2089839772164"><ele>315.0</ele><time>2026-05-01T09:28:54Z</time></trkpt><trkpt lat="42.247162026328894" lon="14.20895211059878"><ele>317.6666666666667</ele><time>2026-05-01T09:28:55Z</time></trkpt><trkpt lat="42.24708257185958" lon="14.20894485428468"><ele>320.3333333333333</ele><time>2026-05-01T09:28:56Z</time></trkpt><trkpt lat="42.24699353102281" lon="14.208947631749524"><ele>323.0</ele><time>2026-05-01T09:28:57Z</time></trkpt><trkpt lat="42.24690523232411" lon="14.208944300983491"><ele>325.66666666666663</ele><time>2026-05-01T09:28:58Z</time></trkpt><trkpt lat="42.246845327448504" lon="14.208907400566112"><ele>328.3333333333333</ele><time>2026-05-01T09:28:59Z</time></trkpt><trkpt lat="42.24679705430402" lon="14.208841436295632"><ele>331.0</ele><time>2026-05-01T09:29:01Z</time></trkpt><trkpt lat="42.246747879038644" lon="14.208703045463345"><ele>331.0</ele><time>2026-05-01T09:29:03Z</time></trkpt><trkpt lat="42.24669096637283" lon="14.208584920368851"><ele>331.0</ele><time>2026-05-01T09:29:04Z</time></trkpt><trkpt lat="42.2466366347546" lon="14.208482333790958"><ele>331.0</ele><time>2026-05-01T09:29:05Z</time></trkpt><trkpt lat="42.246557484832366" lon="14.208377705047882"><ele>331.0</ele><time>2026-05-01T09:29:06Z</time></trkpt><trkpt lat="42.24646304770807" lon="14.20824248195799"><ele>331.0</ele><time>2026-05-01T09:29:07Z</time></trkpt><trkpt lat="42.24639642529935" lon="14.208135786367997"><ele>330.8</ele><time>2026-05-01T09:29:08Z</time></trkpt><trkpt lat="42.24635761347687" lon="14.208052720787837"><ele>330.6</ele><time>2026-05-01T09:29:09Z</time></trkpt><trkpt lat="42.24633367939928" lon="14.207950102221695"><ele>330.4</ele><time>2026-05-01T09:29:10Z</time></trkpt><trkpt lat="42.24630719290344" lon="14.207842374395204"><ele>330.2</ele><time>2026-05-01T09:29:11Z</time></trkpt><trkpt lat="42.24629411375395" lon="14.207743844267808"><ele>330.0</ele><time>2026-05-01T09:29:12Z</time></trkpt><trkpt lat="42.24626794460972" lon="14.20753662902577"><ele>330.0</ele><time>2026-05-01T09:29:14Z</time></trkpt><trkpt lat="42.24627716804986" lon="14.207384532231993"><ele>330.0</ele><time>2026-05-01T09:29:15Z</time></trkpt><trkpt lat="42.2462765708932" lon="14.207288521561702"><ele>330.0</ele><time>2026-05-01T09:29:16Z</time></trkpt><trkpt lat="42.24627559366585" lon="14.207198558293326"><ele>330.0</ele><time>2026-05-01T09:29:17Z</time></trkpt><trkpt lat="42.24626025570706" lon="14.207075864200979"><ele>330.0</ele><time>2026-05-01T09:29:18Z</time></trkpt><trkpt lat="42.24623890762171" lon="14.20691629737783"><ele>332.8</ele><time>2026-05-01T09:29:19Z</time></trkpt><trkpt lat="42.246236993129195" lon="14.206755164208777"><ele>335.6</ele><time>2026-05-01T09:29:20Z</time></trkpt><trkpt lat="42.24623700190998" lon="14.20661086062341"><ele>338.4</ele><time>2026-05-01T09:29:21Z</time></trkpt><trkpt lat="42.24625038614861" lon="14.206497038366912"><ele>341.2</ele><time>2026-05-01T09:29:22Z</time></trkpt><trkpt lat="42.24628960830556" lon="14.206365721410268"><ele>344.0</ele><time>2026-05-01T09:29:23Z</time></trkpt><trkpt lat="42.24632122965998" lon="14.206267090199743"><ele>346.0</ele><time>2026-05-01T09:29:24Z</time></trkpt><trkpt lat="42.246375280156485" lon="14.20613782536625"><ele>348.0</ele><time>2026-05-01T09:29:25Z</time></trkpt><trkpt lat="42.24642022199148" lon="14.20603738827931"><ele>350.0</ele><time>2026-05-01T09:29:26Z</time></trkpt><trkpt lat="42.24647677687114" lon="14.205925625177814"><ele>352.0</ele><time>2026-05-01T09:29:27Z</time></trkpt><trkpt lat="42.24650992513513" lon="14.205829743544097"><ele>354.0</ele><time>2026-05-01T09:29:28Z</time></trkpt><trkpt lat="42.246464699407795" lon="14.205688916901858"><ele>359.75</ele><time>2026-05-01T09:29:30Z</time></trkpt><trkpt lat="42.246379791768106" lon="14.205604993841463"><ele>365.5</ele><time>2026-05-01T09:29:31Z</time></trkpt><trkpt lat="42.24630563219972" lon="14.205480403868"><ele>371.25</ele><time>2026-05-01T09:29:32Z</time></trkpt><trkpt lat="42.24622104004151" lon="14.205362510916633"><ele>377.0</ele><time>2026-05-01T09:29:33Z</time></trkpt><trkpt lat="42.246127257736546" lon="14.20522092481854"><ele>377.0</ele><time>2026-05-01T09:29:34Z</time></trkpt><trkpt lat="42.24602659639969" lon="14.205084044694956"><ele>377.0</ele><time>2026-05-01T09:29:35Z</time></trkpt><trkpt lat="42.24596531106121" lon="14.204989411173804"><ele>377.0</ele><time>2026-05-01T09:29:36Z</time></trkpt><trkpt lat="42.24592079537997" lon="14.204906860721243"><ele>377.0</ele><time>2026-05-01T09:29:37Z</time></trkpt><trkpt lat="42.245900949591594" lon="14.20479796299302"><ele>377.0</ele><time>2026-05-01T09:29:39Z</time></trkpt><trkpt lat="42.24585085136652" lon="14.204685974281514"><ele>377.8</ele><time>2026-05-01T09:30:24.999Z</time></trkpt><trkpt lat="42.24585763558804" lon="14.204558645637443"><ele>378.6</ele><time>2026-05-01T09:30:26.999Z</time></trkpt><trkpt lat="42.2459066213695" lon="14.204402062073507"><ele>379.40000000000003</ele><time>2026-05-01T09:30:28.999Z</time></trkpt><trkpt lat="42.245946494263684" lon="14.204310574778631"><ele>380.20000000000005</ele><time>2026-05-01T09:30:29.999Z</time></trkpt><trkpt lat="42.24598783380885" lon="14.204211809469076"><ele>381.0</ele><time>2026-05-01T09:30:30.999Z</time></trkpt><trkpt lat="42.24601889911559" lon="14.204109390620143"><ele>381.0</ele><time>2026-05-01T09:30:31.999Z</time></trkpt><trkpt lat="42.24605953646317" lon="14.204006565544415"><ele>381.0</ele><time>2026-05-01T09:30:32.999Z</time></trkpt><trkpt lat="42.24607228825117" lon="14.203883263102183"><ele>381.0</ele><time>2026-05-01T09:30:33.999Z</time></trkpt><trkpt lat="42.24607234920716" lon="14.203729251774694"><ele>381.0</ele><time>2026-05-01T09:30:34.999Z</time></trkpt><trkpt lat="42.246062670158196" lon="14.203571380755257"><ele>381.0</ele><time>2026-05-01T09:30:35.999Z</time></trkpt><trkpt lat="42.246042080603914" lon="14.203418787527667"><ele>382.4</ele><time>2026-05-01T09:30:36.999Z</time></trkpt><trkpt lat="42.24601610370043" lon="14.203274725771605"><ele>383.8</ele><time>2026-05-01T09:30:37.999Z</time></trkpt><trkpt lat="42.2459763453686" lon="14.203137050374831"><ele>385.2</ele><time>2026-05-01T09:30:38.999Z</time></trkpt><trkpt lat="42.24590639642495" lon="14.203007152750043"><ele>386.59999999999997</ele><time>2026-05-01T09:30:39.999Z</time></trkpt><trkpt lat="42.24586264425391" lon="14.202899440240651"><ele>388.0</ele><time>2026-05-01T09:30:40.999Z</time></trkpt><trkpt lat="42.245840598087824" lon="14.202817941757083"><ele>389.00000000000006</ele><time>2026-05-01T09:30:41.999Z</time></trkpt><trkpt lat="42.24578502931152" lon="14.202751436372028"><ele>390.0</ele><time>2026-05-01T09:30:42.999Z</time></trkpt><trkpt lat="42.245688498375266" lon="14.202738774752662"><ele>391.0</ele><time>2026-05-01T09:30:43.999Z</time></trkpt><trkpt lat="42.24561287042739" lon="14.202696246227863"><ele>392.0</ele><time>2026-05-01T09:30:44.999Z</time></trkpt><trkpt lat="42.24555960120458" lon="14.202609467639776"><ele>393.00000000000006</ele><time>2026-05-01T09:30:45.999Z</time></trkpt><trkpt lat="42.245508036987204" lon="14.202495718791774"><ele>394.0</ele><time>2026-05-01T09:30:46.999Z</time></trkpt><trkpt lat="42.24545752015696" lon="14.202429647009309"><ele>396.0</ele><time>2026-05-01T09:30:47.999Z</time></trkpt><trkpt lat="42.245458586554015" lon="14.202303419801162"><ele>398.0</ele><time>2026-05-01T09:30:50Z</time></trkpt><trkpt lat="42.24535240431927" lon="14.202400116792793"><ele>400.0</ele><time>2026-05-01T09:30:54Z</time></trkpt><trkpt lat="42.24531951759834" lon="14.20257068671175"><ele>402.0</ele><time>2026-05-01T09:30:55Z</time></trkpt><trkpt lat="42.24526981589895" lon="14.202717562714001"><ele>402.0</ele><time>2026-05-01T09:30:56Z</time></trkpt><trkpt lat="42.24517904302979" lon="14.202838879920076"><ele>402.0</ele><time>2026-05-01T09:30:57Z</time></trkpt><trkpt lat="42.245052184711014" lon="14.20289071272834"><ele>402.0</ele><time>2026-05-01T09:30:58Z</time></trkpt><trkpt lat="42.24491555800562" lon="14.202949692317844"><ele>402.0</ele><time>2026-05-01T09:30:59Z</time></trkpt><trkpt lat="42.244782498269046" lon="14.203011675542948"><ele>401.5</ele><time>2026-05-01T09:31:00Z</time></trkpt><trkpt lat="42.24465676936091" lon="14.203058504172496"><ele>401.0</ele><time>2026-05-01T09:31:01Z</time></trkpt><trkpt lat="42.244551811277255" lon="14.203152302014443"><ele>400.5</ele><time>2026-05-01T09:31:02Z</time></trkpt><trkpt lat="42.24448047204172" lon="14.203289891624872"><ele>400.0</ele><time>2026-05-01T09:31:03Z</time></trkpt><trkpt lat="42.244431252949404" lon="14.203457245658283"><ele>400.0</ele><time>2026-05-01T09:31:04Z</time></trkpt><trkpt lat="42.244396228936466" lon="14.203649111149527"><ele>400.0</ele><time>2026-05-01T09:31:05Z</time></trkpt><trkpt lat="42.24437630669458" lon="14.20385315930498"><ele>400.0</ele><time>2026-05-01T09:31:06Z</time></trkpt><trkpt lat="42.244345145633844" lon="14.204038051969905"><ele>400.0</ele><time>2026-05-01T09:31:07Z</time></trkpt><trkpt lat="42.24433376733857" lon="14.204202721009409"><ele>398.0</ele><time>2026-05-01T09:31:08Z</time></trkpt><trkpt lat="42.24428085387557" lon="14.204344700933543"><ele>396.0</ele><time>2026-05-01T09:31:09Z</time></trkpt><trkpt lat="42.24419621716205" lon="14.204478537706938"><ele>394.0</ele><time>2026-05-01T09:31:10Z</time></trkpt><trkpt lat="42.24409531382355" lon="14.204612604624444"><ele>392.0</ele><time>2026-05-01T09:31:11Z</time></trkpt><trkpt lat="42.24398540774772" lon="14.204733917091652"><ele>392.75</ele><time>2026-05-01T09:31:12Z</time></trkpt><trkpt lat="42.24388120919642" lon="14.20484750912364"><ele>393.5</ele><time>2026-05-01T09:31:13Z</time></trkpt><trkpt lat="42.243781904807975" lon="14.204963907805144"><ele>394.25</ele><time>2026-05-01T09:31:14Z</time></trkpt><trkpt lat="42.24368652745186" lon="14.205118444275524"><ele>395.0</ele><time>2026-05-01T09:31:15Z</time></trkpt><trkpt lat="42.2436098125334" lon="14.20530863286224"><ele>395.0</ele><time>2026-05-01T09:31:16Z</time></trkpt><trkpt lat="42.243552505173184" lon="14.205523760572826"><ele>395.0</ele><time>2026-05-01T09:31:17Z</time></trkpt><trkpt lat="42.24350498250848" lon="14.205703232431377"><ele>395.0</ele><time>2026-05-01T09:31:18Z</time></trkpt><trkpt lat="42.2434447298974" lon="14.205851634653383"><ele>395.0</ele><time>2026-05-01T09:31:19Z</time></trkpt><trkpt lat="42.24334866444536" lon="14.205982205020529"><ele>396.3333333333333</ele><time>2026-05-01T09:31:20Z</time></trkpt><trkpt lat="42.24320438648525" lon="14.206078471761503"><ele>397.66666666666663</ele><time>2026-05-01T09:31:21Z</time></trkpt><trkpt lat="42.243068062800994" lon="14.206188676744215"><ele>399.0</ele><time>2026-05-01T09:31:22Z</time></trkpt><trkpt lat="42.242930622957154" lon="14.20630330447029"><ele>399.0</ele><time>2026-05-01T09:31:23Z</time></trkpt><trkpt lat="42.24281057308775" lon="14.206424581949529"><ele>399.0</ele><time>2026-05-01T09:31:24Z</time></trkpt><trkpt lat="42.242685894305254" lon="14.206526555798515"><ele>399.0</ele><time>2026-05-01T09:31:25Z</time></trkpt><trkpt lat="42.24256532450248" lon="14.206630666898423"><ele>399.0</ele><time>2026-05-01T09:31:26Z</time></trkpt><trkpt lat="42.24245107433481" lon="14.206721658930427"><ele>393.75</ele><time>2026-05-01T09:31:27Z</time></trkpt><trkpt lat="42.24233649043478" lon="14.206800256045108"><ele>388.5</ele><time>2026-05-01T09:31:28Z</time></trkpt><trkpt lat="42.24221176012806" lon="14.20685920484999"><ele>383.25</ele><time>2026-05-01T09:31:29Z</time></trkpt><trkpt lat="42.242069309582234" lon="14.206901067121997"><ele>378.0</ele><time>2026-05-01T09:31:30Z</time></trkpt><trkpt lat="42.241913444024156" lon="14.20690173805881"><ele>378.0</ele><time>2026-05-01T09:31:31Z</time></trkpt><trkpt lat="42.24177399180862" lon="14.206930850394764"><ele>378.0</ele><time>2026-05-01T09:31:32Z</time></trkpt><trkpt lat="42.24163176296501" lon="14.206936923607984"><ele>378.0</ele><time>2026-05-01T09:31:33Z</time></trkpt><trkpt lat="42.24148624370846" lon="14.206947622217031"><ele>378.0</ele><time>2026-05-01T09:31:34Z</time></trkpt><trkpt lat="42.24132961244718" lon="14.206954210492805"><ele>375.75</ele><time>2026-05-01T09:31:35Z</time></trkpt><trkpt lat="42.2411726043596" lon="14.206909364874008"><ele>373.5</ele><time>2026-05-01T09:31:36Z</time></trkpt><trkpt lat="42.24103210600245" lon="14.206863244416382"><ele>371.25</ele><time>2026-05-01T09:31:37Z</time></trkpt><trkpt lat="42.2409149138834" lon="14.206812628362421"><ele>369.0</ele><time>2026-05-01T09:31:38Z</time></trkpt><trkpt lat="42.240800514127855" lon="14.2067787130933"><ele>369.0</ele><time>2026-05-01T09:31:39Z</time></trkpt><trkpt lat="42.24068123407369" lon="14.206762874846364"><ele>369.0</ele><time>2026-05-01T09:31:40Z</time></trkpt><trkpt lat="42.24056330879012" lon="14.206797345034866"><ele>369.0</ele><time>2026-05-01T09:31:41Z</time></trkpt><trkpt lat="42.240451871636004" lon="14.206867986280917"><ele>369.0</ele><time>2026-05-01T09:31:42Z</time></trkpt><trkpt lat="42.24035734228097" lon="14.206941284635953"><ele>367.2</ele><time>2026-05-01T09:31:43Z</time></trkpt><trkpt lat="42.24026543248832" lon="14.206973090814762"><ele>365.4</ele><time>2026-05-01T09:31:44Z</time></trkpt><trkpt lat="42.240172800740254" lon="14.206932869887325"><ele>363.6</ele><time>2026-05-01T09:31:45Z</time></trkpt><trkpt lat="42.24009076052215" lon="14.206872354860906"><ele>361.8</ele><time>2026-05-01T09:31:46Z</time></trkpt><trkpt lat="42.23999610183643" lon="14.20682510829388"><ele>360.0</ele><time>2026-05-01T09:31:48Z</time></trkpt><trkpt lat="42.23991941385748" lon="14.206851495325303"><ele>360.0</ele><time>2026-05-01T09:31:50Z</time></trkpt><trkpt lat="42.239838376892685" lon="14.206750984914976"><ele>360.0</ele><time>2026-05-01T09:31:52.999Z</time></trkpt><trkpt lat="42.239783895740466" lon="14.206699096320916"><ele>360.0</ele><time>2026-05-01T09:31:53.999Z</time></trkpt><trkpt lat="42.239676318451046" lon="14.206596637975672"><ele>360.0</ele><time>2026-05-01T09:31:55.999Z</time></trkpt><trkpt lat="42.23961439585605" lon="14.206534897088678"><ele>360.0</ele><time>2026-05-01T09:31:56.999Z</time></trkpt><trkpt lat="42.2395446428375" lon="14.206463247385804"><ele>359.2</ele><time>2026-05-01T09:31:57.999Z</time></trkpt><trkpt lat="42.23947191957364" lon="14.206388154588835"><ele>358.4</ele><time>2026-05-01T09:31:58.999Z</time></trkpt><trkpt lat="42.239389822903135" lon="14.206299037038509"><ele>357.6</ele><time>2026-05-01T09:31:59.999Z</time></trkpt><trkpt lat="42.239299667430465" lon="14.20618700550591"><ele>356.8</ele><time>2026-05-01T09:32:00.999Z</time></trkpt><trkpt lat="42.23922745433229" lon="14.206065512548689"><ele>356.0</ele><time>2026-05-01T09:32:01.999Z</time></trkpt><trkpt lat="42.239163627970186" lon="14.205938038978056"><ele>356.0</ele><time>2026-05-01T09:32:02.999Z</time></trkpt><trkpt lat="42.23907799406413" lon="14.205787442599872"><ele>356.0</ele><time>2026-05-01T09:32:03.999Z</time></trkpt><trkpt lat="42.23900821303341" lon="14.205613668351457"><ele>356.0</ele><time>2026-05-01T09:32:04.999Z</time></trkpt><trkpt lat="42.23894155601974" lon="14.205468205005475"><ele>356.0</ele><time>2026-05-01T09:32:05.999Z</time></trkpt><trkpt lat="42.238867737813024" lon="14.205340363088768"><ele>353.8</ele><time>2026-05-01T09:32:06.999Z</time></trkpt><trkpt lat="42.238793736241675" lon="14.205228679553986"><ele>351.6</ele><time>2026-05-01T09:32:07.999Z</time></trkpt><trkpt lat="42.23873184131823" lon="14.205123345008056"><ele>349.4</ele><time>2026-05-01T09:32:08.999Z</time></trkpt><trkpt lat="42.23865517999705" lon="14.205047461354614"><ele>347.2</ele><time>2026-05-01T09:32:09.999Z</time></trkpt><trkpt lat="42.23859869879031" lon="14.204955386049582"><ele>345.0</ele><time>2026-05-01T09:32:10.999Z</time></trkpt><trkpt lat="42.238539993340844" lon="14.204879663491756"><ele>346.3333333333333</ele><time>2026-05-01T09:32:11.999Z</time></trkpt><trkpt lat="42.238488981588176" lon="14.204793032715662"><ele>347.6666666666667</ele><time>2026-05-01T09:32:12.999Z</time></trkpt><trkpt lat="42.238434319856076" lon="14.204699185567353"><ele>349.0</ele><time>2026-05-01T09:32:13.999Z</time></trkpt><trkpt lat="42.23838211087186" lon="14.204599853759799"><ele>350.33333333333337</ele><time>2026-05-01T09:32:14.999Z</time></trkpt><trkpt lat="42.23833590333293" lon="14.204503683205703"><ele>351.6666666666667</ele><time>2026-05-01T09:32:15.999Z</time></trkpt><trkpt lat="42.23829174604722" lon="14.204389065488588"><ele>353.0</ele><time>2026-05-01T09:32:16.999Z</time></trkpt><trkpt lat="42.23825599068985" lon="14.204272302124318"><ele>353.0</ele><time>2026-05-01T09:32:17.999Z</time></trkpt><trkpt lat="42.23821568251933" lon="14.204152874373873"><ele>353.0</ele><time>2026-05-01T09:32:18.999Z</time></trkpt><trkpt lat="42.23817218693037" lon="14.204030993380757"><ele>353.0</ele><time>2026-05-01T09:32:19.999Z</time></trkpt><trkpt lat="42.238115458187615" lon="14.203930565440112"><ele>353.0</ele><time>2026-05-01T09:32:20.999Z</time></trkpt><trkpt lat="42.238062061291444" lon="14.203843836132751"><ele>353.0</ele><time>2026-05-01T09:32:21.999Z</time></trkpt><trkpt lat="42.238065621733604" lon="14.203650596439752"><ele>349.4</ele><time>2026-05-01T09:32:23.999Z</time></trkpt><trkpt lat="42.238076180755336" lon="14.203547399924"><ele>345.79999999999995</ele><time>2026-05-01T09:32:24.999Z</time></trkpt><trkpt lat="42.23809492494641" lon="14.203459251624697"><ele>342.2</ele><time>2026-05-01T09:32:25.999Z</time></trkpt><trkpt lat="42.23804174937871" lon="14.203296759938098"><ele>338.6</ele><time>2026-05-01T09:32:27.999Z</time></trkpt><trkpt lat="42.23797911994473" lon="14.203216247859032"><ele>335.0</ele><time>2026-05-01T09:32:28.999Z</time></trkpt><trkpt lat="42.2378981309539" lon="14.203150772588819"><ele>335.0</ele><time>2026-05-01T09:32:29.999Z</time></trkpt><trkpt lat="42.237837011123" lon="14.203099842117151"><ele>335.0</ele><time>2026-05-01T09:32:30.999Z</time></trkpt><trkpt lat="42.23778565030509" lon="14.203008103035785"><ele>335.0</ele><time>2026-05-01T09:32:31.999Z</time></trkpt><trkpt lat="42.23775433726353" lon="14.202897123241652"><ele>335.0</ele><time>2026-05-01T09:32:32.999Z</time></trkpt><trkpt lat="42.23771200341203" lon="14.202787397596207"><ele>335.0</ele><time>2026-05-01T09:32:33.999Z</time></trkpt><trkpt lat="42.23764431788935" lon="14.202686698185252"><ele>335.0</ele><time>2026-05-01T09:32:34.999Z</time></trkpt><trkpt lat="42.23757792293927" lon="14.202594299334278"><ele>335.0</ele><time>2026-05-01T09:32:35.999Z</time></trkpt><trkpt lat="42.23753216227697" lon="14.202478374195582"><ele>335.0</ele><time>2026-05-01T09:32:36.999Z</time></trkpt><trkpt lat="42.237496967888404" lon="14.202367224270024"><ele>335.0</ele><time>2026-05-01T09:32:37.999Z</time></trkpt><trkpt lat="42.237462810367454" lon="14.202247617010094"><ele>335.0</ele><time>2026-05-01T09:32:38.999Z</time></trkpt><trkpt lat="42.23743555103461" lon="14.202115452707485"><ele>335.0</ele><time>2026-05-01T09:32:39.999Z</time></trkpt><trkpt lat="42.23740961660794" lon="14.201954639049077"><ele>336.5</ele><time>2026-05-01T09:32:40.999Z</time></trkpt><trkpt lat="42.23738226410993" lon="14.201781368078988"><ele>338.0</ele><time>2026-05-01T09:32:41.999Z</time></trkpt><trkpt lat="42.23734545382296" lon="14.201602335940532"><ele>339.5</ele><time>2026-05-01T09:32:42.999Z</time></trkpt><trkpt lat="42.237318873698406" lon="14.201449770136703"><ele>341.0</ele><time>2026-05-01T09:32:43.999Z</time></trkpt><trkpt lat="42.2373003293644" lon="14.201306612591477"><ele>341.6</ele><time>2026-05-01T09:32:44.999Z</time></trkpt><trkpt lat="42.23728889766007" lon="14.201179422318965"><ele>342.20000000000005</ele><time>2026-05-01T09:32:45.999Z</time></trkpt><trkpt lat="42.2372833828473" lon="14.20108086131959"><ele>342.79999999999995</ele><time>2026-05-01T09:32:46.999Z</time></trkpt><trkpt lat="42.23729354179139" lon="14.200987320811306"><ele>343.4</ele><time>2026-05-01T09:32:47.999Z</time></trkpt><trkpt lat="42.23732155240919" lon="14.200846025818471"><ele>344.0</ele><time>2026-05-01T09:32:48.999Z</time></trkpt><trkpt lat="42.23732965709993" lon="14.200703342248456"><ele>344.79999999999995</ele><time>2026-05-01T09:32:49.999Z</time></trkpt><trkpt lat="42.237351665975865" lon="14.20056124616809"><ele>345.59999999999997</ele><time>2026-05-01T09:32:50.999Z</time></trkpt><trkpt lat="42.2373614479922" lon="14.200436420744817"><ele>346.4</ele><time>2026-05-01T09:32:51.999Z</time></trkpt><trkpt lat="42.23737612255837" lon="14.200282340947433"><ele>347.2</ele><time>2026-05-01T09:32:52.999Z</time></trkpt><trkpt lat="42.23740275169467" lon="14.200150704637803"><ele>348.0</ele><time>2026-05-01T09:32:53.999Z</time></trkpt><trkpt lat="42.237427130108564" lon="14.200024187845097"><ele>348.0</ele><time>2026-05-01T09:32:54.999Z</time></trkpt><trkpt lat="42.23744597776394" lon="14.199928891423571"><ele>348.0</ele><time>2026-05-01T09:32:56Z</time></trkpt><trkpt lat="42.237468953760114" lon="14.199801541354175"><ele>348.0</ele><time>2026-05-01T09:32:58Z</time></trkpt><trkpt lat="42.23740327605482" lon="14.19968244577418"><ele>348.0</ele><time>2026-05-01T09:33:04Z</time></trkpt><trkpt lat="42.23730840277052" lon="14.199657962271608"><ele>348.0</ele><time>2026-05-01T09:33:05Z</time></trkpt><trkpt lat="42.23722060749065" lon="14.199633853672136"><ele>344.5</ele><time>2026-05-01T09:33:06Z</time></trkpt><trkpt lat="42.23714403069088" lon="14.199610992092298"><ele>341.0</ele><time>2026-05-01T09:33:07Z</time></trkpt><trkpt lat="42.23706430294822" lon="14.199573880901621"><ele>337.5</ele><time>2026-05-01T09:33:08Z</time></trkpt><trkpt lat="42.23697572415431" lon="14.199535056991843"><ele>334.0</ele><time>2026-05-01T09:33:09Z</time></trkpt><trkpt lat="42.23688968821411" lon="14.199500921048596"><ele>330.5</ele><time>2026-05-01T09:33:10Z</time></trkpt><trkpt lat="42.236814717184764" lon="14.199472274435506"><ele>327.0</ele><time>2026-05-01T09:33:11Z</time></trkpt><trkpt lat="42.23673807139678" lon="14.199438665405673"><ele>327.0</ele><time>2026-05-01T09:33:12Z</time></trkpt><trkpt lat="42.23665768587482" lon="14.199404754978202"><ele>327.0</ele><time>2026-05-01T09:33:13Z</time></trkpt><trkpt lat="42.23658287269304" lon="14.19937772265041"><ele>327.0</ele><time>2026-05-01T09:33:14Z</time></trkpt><trkpt lat="42.236506177177866" lon="14.199350673667007"><ele>327.0</ele><time>2026-05-01T09:33:15Z</time></trkpt><trkpt lat="42.23643275255323" lon="14.199333757855372"><ele>327.0</ele><time>2026-05-01T09:33:16Z</time></trkpt><trkpt lat="42.23636515084419" lon="14.19930450471332"><ele>327.0</ele><time>2026-05-01T09:33:17Z</time></trkpt><trkpt lat="42.23630199492325" lon="14.199272332297411"><ele>322.20000000000005</ele><time>2026-05-01T09:33:18Z</time></trkpt><trkpt lat="42.23623878333656" lon="14.199244287303173"><ele>317.40000000000003</ele><time>2026-05-01T09:33:19Z</time></trkpt><trkpt lat="42.236174097405986" lon="14.199243872744747"><ele>312.6</ele><time>2026-05-01T09:33:20Z</time></trkpt><trkpt lat="42.23608949483117" lon="14.199293597122923"><ele>307.8</ele><time>2026-05-01T09:33:22Z</time></trkpt><trkpt lat="42.23605420296934" lon="14.199519105365958"><ele>303.0</ele><time>2026-05-01T09:33:24Z</time></trkpt><trkpt lat="42.23602374127436" lon="14.199669635031752"><ele>303.0</ele><time>2026-05-01T09:33:25Z</time></trkpt><trkpt lat="42.23598891460826" lon="14.19978655568705"><ele>303.0</ele><time>2026-05-01T09:33:26Z</time></trkpt><trkpt lat="42.23596824447036" lon="14.199872091681277"><ele>303.0</ele><time>2026-05-01T09:33:27Z</time></trkpt><trkpt lat="42.23593717872341" lon="14.200015156143357"><ele>303.0</ele><time>2026-05-01T09:33:29Z</time></trkpt><trkpt lat="42.23590774349124" lon="14.200094416690401"><ele>303.0</ele><time>2026-05-01T09:33:30Z</time></trkpt><trkpt lat="42.23585541662658" lon="14.200147456713799"><ele>303.0</ele><time>2026-05-01T09:33:31Z</time></trkpt><trkpt lat="42.235788312650286" lon="14.200148592965768"><ele>303.2</ele><time>2026-05-01T09:33:32Z</time></trkpt><trkpt lat="42.23570737796713" lon="14.200109728678026"><ele>303.4</ele><time>2026-05-01T09:33:33Z</time></trkpt><trkpt lat="42.23560520022773" lon="14.20005157895061"><ele>303.59999999999997</ele><time>2026-05-01T09:33:34Z</time></trkpt><trkpt lat="42.23550731660645" lon="14.200001854286354"><ele>303.8</ele><time>2026-05-01T09:33:35Z</time></trkpt><trkpt lat="42.23542087232721" lon="14.199946768922112"><ele>304.0</ele><time>2026-05-01T09:33:36Z</time></trkpt><trkpt lat="42.23532413302429" lon="14.199901033359298"><ele>300.8</ele><time>2026-05-01T09:33:37Z</time></trkpt><trkpt lat="42.2352357989516" lon="14.1998576200494"><ele>297.59999999999997</ele><time>2026-05-01T09:33:38Z</time></trkpt><trkpt lat="42.235153586557956" lon="14.199803251099434"><ele>294.4</ele><time>2026-05-01T09:33:39Z</time></trkpt><trkpt lat="42.235078785411446" lon="14.199733528216477"><ele>291.2</ele><time>2026-05-01T09:33:40Z</time></trkpt><trkpt lat="42.2350002172011" lon="14.199643629475142"><ele>288.0</ele><time>2026-05-01T09:33:41Z</time></trkpt><trkpt lat="42.23490563999082" lon="14.199527848656981"><ele>287.8</ele><time>2026-05-01T09:33:42Z</time></trkpt><trkpt lat="42.23480727530265" lon="14.199427229159394"><ele>287.6</ele><time>2026-05-01T09:33:43Z</time></trkpt><trkpt lat="42.234722197295355" lon="14.199343196739784"><ele>287.4</ele><time>2026-05-01T09:33:44Z</time></trkpt><trkpt lat="42.234643384934586" lon="14.1992619173845"><ele>287.2</ele><time>2026-05-01T09:33:45Z</time></trkpt><trkpt lat="42.23457502029218" lon="14.199172703900011"><ele>287.0</ele><time>2026-05-01T09:33:46Z</time></trkpt><trkpt lat="42.234518819908416" lon="14.199076631701569"><ele>285.0</ele><time>2026-05-01T09:33:47Z</time></trkpt><trkpt lat="42.234468612156434" lon="14.198975102816465"><ele>283.0</ele><time>2026-05-01T09:33:48Z</time></trkpt><trkpt lat="42.23439699368255" lon="14.198902332758733"><ele>281.0</ele><time>2026-05-01T09:33:49Z</time></trkpt><trkpt lat="42.23433548662282" lon="14.19885447830915"><ele>279.0</ele><time>2026-05-01T09:33:50Z</time></trkpt><trkpt lat="42.234267368586764" lon="14.198767230647773"><ele>277.0</ele><time>2026-05-01T09:33:51Z</time></trkpt><trkpt lat="42.23419190083855" lon="14.198702336725706"><ele>275.0</ele><time>2026-05-01T09:33:52Z</time></trkpt><trkpt lat="42.23410395131213" lon="14.198623855335565"><ele>275.0</ele><time>2026-05-01T09:33:53Z</time></trkpt><trkpt lat="42.23404451047253" lon="14.19854588580858"><ele>275.0</ele><time>2026-05-01T09:33:54Z</time></trkpt><trkpt lat="42.23398378814914" lon="14.198480174616222"><ele>275.0</ele><time>2026-05-01T09:33:55Z</time></trkpt><trkpt lat="42.233894745142855" lon="14.198398428773457"><ele>275.0</ele><time>2026-05-01T09:33:57Z</time></trkpt><trkpt lat="42.23382846594348" lon="14.198432407398974"><ele>275.0</ele><time>2026-05-01T09:33:58Z</time></trkpt><trkpt lat="42.233768787742136" lon="14.19854380967347"><ele>275.0</ele><time>2026-05-01T09:33:59Z</time></trkpt><trkpt lat="42.2337015690434" lon="14.198609488031144"><ele>274.0</ele><time>2026-05-01T09:34:00Z</time></trkpt><trkpt lat="42.2335911616664" lon="14.19856797898243"><ele>273.0</ele><time>2026-05-01T09:34:01.999Z</time></trkpt><trkpt lat="42.23354458675948" lon="14.198469350451072"><ele>272.0</ele><time>2026-05-01T09:34:02.999Z</time></trkpt><trkpt lat="42.2334614487557" lon="14.19837521815215"><ele>271.0</ele><time>2026-05-01T09:34:03.999Z</time></trkpt><trkpt lat="42.23336638614631" lon="14.198275373832027"><ele>270.0</ele><time>2026-05-01T09:34:04.999Z</time></trkpt><trkpt lat="42.233275795137644" lon="14.198184167010945"><ele>269.5</ele><time>2026-05-01T09:34:05.999Z</time></trkpt><trkpt lat="42.23322465293388" lon="14.198094761349912"><ele>269.0</ele><time>2026-05-01T09:34:06.999Z</time></trkpt><trkpt lat="42.233166996731796" lon="14.197987651582237"><ele>268.5</ele><time>2026-05-01T09:34:07.999Z</time></trkpt><trkpt lat="42.23313186647024" lon="14.197898657915442"><ele>268.0</ele><time>2026-05-01T09:34:08.999Z</time></trkpt><trkpt lat="42.233098327573046" lon="14.197784690978287"><ele>267.5</ele><time>2026-05-01T09:34:10.999Z</time></trkpt><trkpt lat="42.23301194526519" lon="14.197768973187378"><ele>267.0</ele><time>2026-05-01T09:34:12.999Z</time></trkpt><trkpt lat="42.232913600290026" lon="14.197769970521318"><ele>267.0</ele><time>2026-05-01T09:34:14.999Z</time></trkpt><trkpt lat="42.23291616549499" lon="14.197662094522983"><ele>267.0</ele><time>2026-05-01T09:34:16.999Z</time></trkpt><trkpt lat="42.23296500736427" lon="14.197546395167365"><ele>267.0</ele><time>2026-05-01T09:34:17.999Z</time></trkpt><trkpt lat="42.23297386780853" lon="14.197413789174206"><ele>267.0</ele><time>2026-05-01T09:34:18.999Z</time></trkpt><trkpt lat="42.23295899523919" lon="14.197313569671794"><ele>267.0</ele><time>2026-05-01T09:34:19.999Z</time></trkpt><trkpt lat="42.23296548007592" lon="14.197215437588003"><ele>267.0</ele><time>2026-05-01T09:34:20.999Z</time></trkpt><trkpt lat="42.23295477532323" lon="14.197096071714258"><ele>267.5</ele><time>2026-05-01T09:34:21.999Z</time></trkpt><trkpt lat="42.23293995017614" lon="14.196995098628213"><ele>268.0</ele><time>2026-05-01T09:34:22.999Z</time></trkpt><trkpt lat="42.232908184241865" lon="14.196841249218354"><ele>268.5</ele><time>2026-05-01T09:34:24.999Z</time></trkpt><trkpt lat="42.23288148457611" lon="14.196753523255055"><ele>269.0</ele><time>2026-05-01T09:34:25.999Z</time></trkpt><trkpt lat="42.23284039476291" lon="14.196664248066096"><ele>269.5</ele><time>2026-05-01T09:34:26.999Z</time></trkpt><trkpt lat="42.23282236746325" lon="14.1965540783055"><ele>270.0</ele><time>2026-05-01T09:34:27.999Z</time></trkpt><trkpt lat="42.232808174433444" lon="14.19640961684785"><ele>270.2</ele><time>2026-05-01T09:34:28.999Z</time></trkpt><trkpt lat="42.23279585656567" lon="14.196252219100273"><ele>270.4</ele><time>2026-05-01T09:34:29.999Z</time></trkpt><trkpt lat="42.23275293108558" lon="14.196113186722435"><ele>270.6</ele><time>2026-05-01T09:34:30.999Z</time></trkpt><trkpt lat="42.232693822837106" lon="14.19601814291515"><ele>270.8</ele><time>2026-05-01T09:34:31.999Z</time></trkpt><trkpt lat="42.2326228407391" lon="14.195972585644439"><ele>271.0</ele><time>2026-05-01T09:34:32.999Z</time></trkpt><trkpt lat="42.232533593827824" lon="14.19597012174701"><ele>271.0</ele><time>2026-05-01T09:34:33.999Z</time></trkpt><trkpt lat="42.23240888004887" lon="14.195984834054505"><ele>271.0</ele><time>2026-05-01T09:34:34.999Z</time></trkpt><trkpt lat="42.232262258994126" lon="14.196017339544031"><ele>271.0</ele><time>2026-05-01T09:34:35.999Z</time></trkpt><trkpt lat="42.23212888826784" lon="14.196056930918473"><ele>271.0</ele><time>2026-05-01T09:34:36.999Z</time></trkpt><trkpt lat="42.231971216873376" lon="14.196093922243284"><ele>272.0</ele><time>2026-05-01T09:34:37.999Z</time></trkpt><trkpt lat="42.231813360578606" lon="14.1961214161086"><ele>273.0</ele><time>2026-05-01T09:34:38.999Z</time></trkpt><trkpt lat="42.23165353409017" lon="14.19613817270977"><ele>274.0</ele><time>2026-05-01T09:34:39.999Z</time></trkpt><trkpt lat="42.231499028530564" lon="14.19614713738684"><ele>274.5</ele><time>2026-05-01T09:34:40.999Z</time></trkpt><trkpt lat="42.23134978626126" lon="14.196133911724672"><ele>275.0</ele><time>2026-05-01T09:34:41.999Z</time></trkpt><trkpt lat="42.23122530973666" lon="14.196149348998723"><ele>275.5</ele><time>2026-05-01T09:34:42.999Z</time></trkpt><trkpt lat="42.23107794037001" lon="14.19610999546558"><ele>276.0</ele><time>2026-05-01T09:34:43.999Z</time></trkpt><trkpt lat="42.230918673130724" lon="14.196092852643115"><ele>276.0</ele><time>2026-05-01T09:34:44.999Z</time></trkpt><trkpt lat="42.23077333400922" lon="14.196037372462179"><ele>276.0</ele><time>2026-05-01T09:34:45.999Z</time></trkpt><trkpt lat="42.23064817540558" lon="14.195956029946894"><ele>276.0</ele><time>2026-05-01T09:34:46.999Z</time></trkpt><trkpt lat="42.23054830255284" lon="14.195881120294596"><ele>276.0</ele><time>2026-05-01T09:34:47.999Z</time></trkpt><trkpt lat="42.23045387754304" lon="14.195781640912438"><ele>277.75</ele><time>2026-05-01T09:34:48.999Z</time></trkpt><trkpt lat="42.23034896910991" lon="14.195637381152435"><ele>279.5</ele><time>2026-05-01T09:34:49.999Z</time></trkpt><trkpt lat="42.23024416197072" lon="14.195546664367876"><ele>281.25</ele><time>2026-05-01T09:34:50.999Z</time></trkpt><trkpt lat="42.230111252166225" lon="14.195528598460081"><ele>283.0</ele><time>2026-05-01T09:34:51.999Z</time></trkpt><trkpt lat="42.22996933312054" lon="14.195484247518793"><ele>283.0</ele><time>2026-05-01T09:34:52.999Z</time></trkpt><trkpt lat="42.229860129609065" lon="14.195431670976294"><ele>283.0</ele><time>2026-05-01T09:34:53.999Z</time></trkpt><trkpt lat="42.2297807698786" lon="14.195362964199479"><ele>283.0</ele><time>2026-05-01T09:34:54.999Z</time></trkpt><trkpt lat="42.22973124576745" lon="14.195258830111399"><ele>283.0</ele><time>2026-05-01T09:34:55.999Z</time></trkpt><trkpt lat="42.22971611576929" lon="14.195100051907572"><ele>283.0</ele><time>2026-05-01T09:34:56.999Z</time></trkpt><trkpt lat="42.22962109577905" lon="14.194897165082978"><ele>284.3333333333333</ele><time>2026-05-01T09:34:57.999Z</time></trkpt><trkpt lat="42.22947810808078" lon="14.194759194476218"><ele>285.6666666666667</ele><time>2026-05-01T09:34:58.999Z</time></trkpt><trkpt lat="42.22935655158536" lon="14.194556135164673"><ele>287.0</ele><time>2026-05-01T09:34:59.999Z</time></trkpt><trkpt lat="42.22923044058632" lon="14.194344446999837"><ele>287.0</ele><time>2026-05-01T09:35:00.999Z</time></trkpt><trkpt lat="42.22909146073827" lon="14.194148632430878"><ele>287.0</ele><time>2026-05-01T09:35:02Z</time></trkpt><trkpt lat="42.22897124978214" lon="14.19399356040048"><ele>287.0</ele><time>2026-05-01T09:35:03Z</time></trkpt><trkpt lat="42.2288628877721" lon="14.193878947370196"><ele>288.8</ele><time>2026-05-01T09:35:04Z</time></trkpt><trkpt lat="42.22875844652278" lon="14.193796335434028"><ele>290.6</ele><time>2026-05-01T09:35:05Z</time></trkpt><trkpt lat="42.22866948048" lon="14.193740606355293"><ele>292.40000000000003</ele><time>2026-05-01T09:35:06Z</time></trkpt><trkpt lat="42.22855909449323" lon="14.19372877768706"><ele>294.2</ele><time>2026-05-01T09:35:07Z</time></trkpt><trkpt lat="42.228453912416086" lon="14.193698871380967"><ele>296.0</ele><time>2026-05-01T09:35:08Z</time></trkpt><trkpt lat="42.22832599476964" lon="14.193674544227665"><ele>296.0</ele><time>2026-05-01T09:35:09Z</time></trkpt><trkpt lat="42.22821121787837" lon="14.193596434622943"><ele>296.0</ele><time>2026-05-01T09:35:10Z</time></trkpt><trkpt lat="42.22815620625953" lon="14.193479612431371"><ele>296.0</ele><time>2026-05-01T09:35:11Z</time></trkpt><trkpt lat="42.2280652596027" lon="14.193372491313704"><ele>296.0</ele><time>2026-05-01T09:35:12Z</time></trkpt><trkpt lat="42.22794562333271" lon="14.19325521735547"><ele>297.6666666666667</ele><time>2026-05-01T09:35:13Z</time></trkpt><trkpt lat="42.22783868909873" lon="14.193161216502615"><ele>299.3333333333333</ele><time>2026-05-01T09:35:14Z</time></trkpt><trkpt lat="42.22763894703718" lon="14.192993998418698"><ele>301.0</ele><time>2026-05-01T09:35:15Z</time></trkpt><trkpt lat="42.22749617020205" lon="14.192878670833968"><ele>301.0</ele><time>2026-05-01T09:35:16Z</time></trkpt><trkpt lat="42.22734806824072" lon="14.192782051248269"><ele>301.0</ele><time>2026-05-01T09:35:17Z</time></trkpt><trkpt lat="42.22721961933106" lon="14.192673708210283"><ele>301.0</ele><time>2026-05-01T09:35:18Z</time></trkpt><trkpt lat="42.227098916970505" lon="14.192575067976648"><ele>300.75</ele><time>2026-05-01T09:35:19Z</time></trkpt><trkpt lat="42.226990955705276" lon="14.192526466921963"><ele>300.5</ele><time>2026-05-01T09:35:20Z</time></trkpt><trkpt lat="42.22687065921776" lon="14.19251467777261"><ele>300.25</ele><time>2026-05-01T09:35:21Z</time></trkpt><trkpt lat="42.22673146586137" lon="14.19249856257853"><ele>300.0</ele><time>2026-05-01T09:35:22Z</time></trkpt><trkpt lat="42.22656444133905" lon="14.192484752181201"><ele>300.6666666666667</ele><time>2026-05-01T09:35:23Z</time></trkpt><trkpt lat="42.22639668602131" lon="14.19248089408398"><ele>301.33333333333337</ele><time>2026-05-01T09:35:24Z</time></trkpt><trkpt lat="42.22625225171901" lon="14.192508388923995"><ele>302.0</ele><time>2026-05-01T09:35:25Z</time></trkpt><trkpt lat="42.22611005461975" lon="14.192546378346481"><ele>302.0</ele><time>2026-05-01T09:35:26Z</time></trkpt><trkpt lat="42.22596680482746" lon="14.192614372820312"><ele>302.0</ele><time>2026-05-01T09:35:27Z</time></trkpt><trkpt lat="42.22579939845436" lon="14.192698825329558"><ele>302.0</ele><time>2026-05-01T09:35:28Z</time></trkpt><trkpt lat="42.22563575433606" lon="14.192771344465314"><ele>303.0</ele><time>2026-05-01T09:35:29Z</time></trkpt><trkpt lat="42.22547656600907" lon="14.19280361538616"><ele>304.0</ele><time>2026-05-01T09:35:30Z</time></trkpt><trkpt lat="42.22530712872144" lon="14.192822616652768"><ele>305.0</ele><time>2026-05-01T09:35:31Z</time></trkpt><trkpt lat="42.22515653625173" lon="14.192835680848958"><ele>305.0</ele><time>2026-05-01T09:35:32Z</time></trkpt><trkpt lat="42.22500651330844" lon="14.192837148151439"><ele>305.0</ele><time>2026-05-01T09:35:33Z</time></trkpt><trkpt lat="42.2248549291319" lon="14.192849281688074"><ele>305.0</ele><time>2026-05-01T09:35:34Z</time></trkpt><trkpt lat="42.22470591832945" lon="14.192870071182885"><ele>305.5</ele><time>2026-05-01T09:35:35Z</time></trkpt><trkpt lat="42.22456053220302" lon="14.192882418962432"><ele>306.0</ele><time>2026-05-01T09:35:36Z</time></trkpt><trkpt lat="42.224406641039316" lon="14.19290908645359"><ele>306.5</ele><time>2026-05-01T09:35:37Z</time></trkpt><trkpt lat="42.22426554097402" lon="14.192874768736434"><ele>307.0</ele><time>2026-05-01T09:35:38Z</time></trkpt><trkpt lat="42.2241437996474" lon="14.192820193930753"><ele>307.0</ele><time>2026-05-01T09:35:39Z</time></trkpt><trkpt lat="42.22406870975503" lon="14.192723247382817"><ele>307.0</ele><time>2026-05-01T09:35:40Z</time></trkpt><trkpt lat="42.223973458789146" lon="14.192619252270857"><ele>307.0</ele><time>2026-05-01T09:35:41Z</time></trkpt><trkpt lat="42.223860996668485" lon="14.192512200042678"><ele>307.0</ele><time>2026-05-01T09:35:42Z</time></trkpt><trkpt lat="42.22374675979944" lon="14.192440937105063"><ele>308.0</ele><time>2026-05-01T09:35:43Z</time></trkpt><trkpt lat="42.223674411900774" lon="14.192376181612463"><ele>309.0</ele><time>2026-05-01T09:35:44Z</time></trkpt><trkpt lat="42.223588366267855" lon="14.192402950010292"><ele>310.0</ele><time>2026-05-01T09:35:45Z</time></trkpt><trkpt lat="42.22351686084115" lon="14.192444317028095"><ele>311.0</ele><time>2026-05-01T09:35:46Z</time></trkpt><trkpt lat="42.22343171181504" lon="14.192518261873877"><ele>312.0</ele><time>2026-05-01T09:35:47Z</time></trkpt><trkpt lat="42.2233218471305" lon="14.192599387995879"><ele>312.0</ele><time>2026-05-01T09:35:48Z</time></trkpt><trkpt lat="42.223173468074656" lon="14.19265584020882"><ele>312.0</ele><time>2026-05-01T09:35:49Z</time></trkpt><trkpt lat="42.2229893069403" lon="14.192627976958267"><ele>312.0</ele><time>2026-05-01T09:35:50Z</time></trkpt><trkpt lat="42.22279909942186" lon="14.19266896200897"><ele>312.6666666666667</ele><time>2026-05-01T09:35:51Z</time></trkpt><trkpt lat="42.222609519297265" lon="14.192684072905237"><ele>313.33333333333337</ele><time>2026-05-01T09:35:52Z</time></trkpt><trkpt lat="42.22246483087813" lon="14.192680831279619"><ele>314.0</ele><time>2026-05-01T09:35:53Z</time></trkpt><trkpt lat="42.222347615776265" lon="14.192664819148545"><ele>314.6666666666667</ele><time>2026-05-01T09:35:54Z</time></trkpt><trkpt lat="42.222250966847014" lon="14.192639062410695"><ele>315.33333333333337</ele><time>2026-05-01T09:35:55Z</time></trkpt><trkpt lat="42.222177221295496" lon="14.192609095959432"><ele>316.0</ele><time>2026-05-01T09:35:56Z</time></trkpt><trkpt lat="42.22209485118115" lon="14.192586297524723"><ele>316.6666666666667</ele><time>2026-05-01T09:35:58Z</time></trkpt><trkpt lat="42.2220249374561" lon="14.192571520251649"><ele>317.3333333333333</ele><time>2026-05-01T09:36:01Z</time></trkpt><trkpt lat="42.221935909623916" lon="14.192553329911764"><ele>318.0</ele><time>2026-05-01T09:36:04Z</time></trkpt><trkpt lat="42.22186737458034" lon="14.192538409847465"><ele>318.0</ele><time>2026-05-01T09:36:06Z</time></trkpt><trkpt lat="42.22180321328722" lon="14.192518951790506"><ele>318.0</ele><time>2026-05-01T09:36:09Z</time></trkpt><trkpt lat="42.221730584157314" lon="14.192486432532919"><ele>318.0</ele><time>2026-05-01T09:36:12Z</time></trkpt><trkpt lat="42.22167003887289" lon="14.19245279950813"><ele>318.0</ele><time>2026-05-01T09:36:30.999Z</time></trkpt><trkpt lat="42.22157938835786" lon="14.192391301960848"><ele>318.0</ele><time>2026-05-01T09:36:33.999Z</time></trkpt><trkpt lat="42.22150928098189" lon="14.192337636201529"><ele>318.0</ele><time>2026-05-01T09:36:35.999Z</time></trkpt><trkpt lat="42.22144736022627" lon="14.192286608339783"><ele>319.4</ele><time>2026-05-01T09:36:37.999Z</time></trkpt><trkpt lat="42.22136684636686" lon="14.192219012975032"><ele>320.8</ele><time>2026-05-01T09:36:40.999Z</time></trkpt><trkpt lat="42.22129711304624" lon="14.192162964867489"><ele>322.2</ele><time>2026-05-01T09:36:42.999Z</time></trkpt><trkpt lat="42.22123311424221" lon="14.192129739659137"><ele>323.6</ele><time>2026-05-01T09:36:44.999Z</time></trkpt><trkpt lat="42.22117200385384" lon="14.192090814937936"><ele>325.0</ele><time>2026-05-01T09:36:47.999Z</time></trkpt><trkpt lat="42.22122232596078" lon="14.192278002743318"><ele>325.0</ele><time>2026-05-01T09:36:49.999Z</time></trkpt><trkpt lat="42.2213071567568" lon="14.192338680177034"><ele>325.0</ele><time>2026-05-01T09:36:50.999Z</time></trkpt><trkpt lat="42.221379092983526" lon="14.192418400695463"><ele>325.0</ele><time>2026-05-01T09:36:51.999Z</time></trkpt><trkpt lat="42.221456602951115" lon="14.192507045378369"><ele>325.0</ele><time>2026-05-01T09:36:52.999Z</time></trkpt><trkpt lat="42.221538654090914" lon="14.192600189665045"><ele>325.0</ele><time>2026-05-01T09:36:53.999Z</time></trkpt><trkpt lat="42.22163013150185" lon="14.192695351030936"><ele>323.25</ele><time>2026-05-01T09:36:54.999Z</time></trkpt><trkpt lat="42.2217246621016" lon="14.192793092884848"><ele>321.5</ele><time>2026-05-01T09:36:55.999Z</time></trkpt><trkpt lat="42.22181440947139" lon="14.192894177705703"><ele>319.75</ele><time>2026-05-01T09:36:56.999Z</time></trkpt><trkpt lat="42.22190771748245" lon="14.192996265490454"><ele>318.0</ele><time>2026-05-01T09:36:57.999Z</time></trkpt><trkpt lat="42.22199282203712" lon="14.193077898292161"><ele>318.0</ele><time>2026-05-01T09:36:58.999Z</time></trkpt><trkpt lat="42.22207069210256" lon="14.19314996492947"><ele>318.0</ele><time>2026-05-01T09:36:59.999Z</time></trkpt><trkpt lat="42.222146357529645" lon="14.193220881729948"><ele>318.0</ele><time>2026-05-01T09:37:00.999Z</time></trkpt><trkpt lat="42.222219909725624" lon="14.193281514706673"><ele>318.0</ele><time>2026-05-01T09:37:01.999Z</time></trkpt><trkpt lat="42.222295554562145" lon="14.193337361590283"><ele>318.0</ele><time>2026-05-01T09:37:02.999Z</time></trkpt><trkpt lat="42.22237689848024" lon="14.193396061577438"><ele>316.4</ele><time>2026-05-01T09:37:03.999Z</time></trkpt><trkpt lat="42.222460537119375" lon="14.193460495442531"><ele>314.8</ele><time>2026-05-01T09:37:04.999Z</time></trkpt><trkpt lat="42.222548390731426" lon="14.193528314566244"><ele>313.2</ele><time>2026-05-01T09:37:05.999Z</time></trkpt><trkpt lat="42.22264559358141" lon="14.19357386167121"><ele>311.6</ele><time>2026-05-01T09:37:06.999Z</time></trkpt><trkpt lat="42.222739139074335" lon="14.193640982439355"><ele>310.0</ele><time>2026-05-01T09:37:08Z</time></trkpt><trkpt lat="42.222831094487034" lon="14.193698080177075"><ele>310.0</ele><time>2026-05-01T09:37:09Z</time></trkpt><trkpt lat="42.222914456831546" lon="14.193746124724827"><ele>310.0</ele><time>2026-05-01T09:37:10Z</time></trkpt><trkpt lat="42.22298288463875" lon="14.193800225966953"><ele>310.0</ele><time>2026-05-01T09:37:11Z</time></trkpt><trkpt lat="42.22306749669737" lon="14.19386583319508"><ele>310.0</ele><time>2026-05-01T09:37:12Z</time></trkpt><trkpt lat="42.223141997238045" lon="14.193912451305877"><ele>310.0</ele><time>2026-05-01T09:37:13Z</time></trkpt><trkpt lat="42.22321150684461" lon="14.193942394378738"><ele>310.0</ele><time>2026-05-01T09:37:14Z</time></trkpt><trkpt lat="42.223270574191815" lon="14.1939804249843"><ele>308.8</ele><time>2026-05-01T09:37:15Z</time></trkpt><trkpt lat="42.22333651790527" lon="14.194017048051778"><ele>307.6</ele><time>2026-05-01T09:37:16Z</time></trkpt><trkpt lat="42.22341033222595" lon="14.194062016366532"><ele>306.4</ele><time>2026-05-01T09:37:17Z</time></trkpt><trkpt lat="42.2235035468288" lon="14.194109342780548"><ele>305.2</ele><time>2026-05-01T09:37:18Z</time></trkpt><trkpt lat="42.22362076519056" lon="14.194174094236908"><ele>304.0</ele><time>2026-05-01T09:37:19Z</time></trkpt><trkpt lat="42.2237387026831" lon="14.19426661646971"><ele>304.0</ele><time>2026-05-01T09:37:20Z</time></trkpt><trkpt lat="42.223854691760025" lon="14.194378873231518"><ele>304.0</ele><time>2026-05-01T09:37:21Z</time></trkpt><trkpt lat="42.223950920607" lon="14.194493484970279"><ele>304.0</ele><time>2026-05-01T09:37:22Z</time></trkpt><trkpt lat="42.22404969900941" lon="14.19458463521069"><ele>304.0</ele><time>2026-05-01T09:37:23Z</time></trkpt><trkpt lat="42.22415053451917" lon="14.19466952990483"><ele>303.5</ele><time>2026-05-01T09:37:24Z</time></trkpt><trkpt lat="42.22425146233605" lon="14.19473759762798"><ele>303.0</ele><time>2026-05-01T09:37:25Z</time></trkpt><trkpt lat="42.22435712584795" lon="14.194808452416321"><ele>302.5</ele><time>2026-05-01T09:37:26Z</time></trkpt><trkpt lat="42.22447516668963" lon="14.194862639334689"><ele>302.0</ele><time>2026-05-01T09:37:27Z</time></trkpt><trkpt lat="42.224598988350394" lon="14.194913717554627"><ele>301.5</ele><time>2026-05-01T09:37:28Z</time></trkpt><trkpt lat="42.22471937771823" lon="14.194928850588619"><ele>301.0</ele><time>2026-05-01T09:37:29Z</time></trkpt><trkpt lat="42.22483348489492" lon="14.194932901454404"><ele>300.5</ele><time>2026-05-01T09:37:30Z</time></trkpt><trkpt lat="42.224952938440744" lon="14.194933113804126"><ele>300.0</ele><time>2026-05-01T09:37:31Z</time></trkpt><trkpt lat="42.22507483172548" lon="14.194955269065384"><ele>298.8333333333333</ele><time>2026-05-01T09:37:32Z</time></trkpt><trkpt lat="42.225177214339624" lon="14.19498079147357"><ele>297.6666666666667</ele><time>2026-05-01T09:37:33Z</time></trkpt><trkpt lat="42.225251896783185" lon="14.195017094373975"><ele>296.5</ele><time>2026-05-01T09:37:34Z</time></trkpt><trkpt lat="42.22530456202176" lon="14.19508591785618"><ele>295.33333333333337</ele><time>2026-05-01T09:37:35Z</time></trkpt><trkpt lat="42.225357605136416" lon="14.195157513282574"><ele>294.1666666666667</ele><time>2026-05-01T09:37:36Z</time></trkpt><trkpt lat="42.22536159117284" lon="14.195276251133372"><ele>293.0</ele><time>2026-05-01T09:37:37Z</time></trkpt><trkpt lat="42.22538572694003" lon="14.195398072267796"><ele>293.0</ele><time>2026-05-01T09:37:38Z</time></trkpt><trkpt lat="42.22542237936294" lon="14.195539724330345"><ele>293.0</ele><time>2026-05-01T09:37:39Z</time></trkpt><trkpt lat="42.22547850250804" lon="14.195622816638394"><ele>293.0</ele><time>2026-05-01T09:37:40Z</time></trkpt><trkpt lat="42.225543155110486" lon="14.1956505233299"><ele>293.0</ele><time>2026-05-01T09:37:41Z</time></trkpt><trkpt lat="42.225626876451805" lon="14.195641571243696"><ele>293.0</ele><time>2026-05-01T09:37:42Z</time></trkpt><trkpt lat="42.225732985686825" lon="14.195663664522343"><ele>294.75</ele><time>2026-05-01T09:37:43Z</time></trkpt><trkpt lat="42.22580818802536" lon="14.195744237299408"><ele>296.5</ele><time>2026-05-01T09:37:44Z</time></trkpt><trkpt lat="42.2258719171243" lon="14.195847804422097"><ele>298.25</ele><time>2026-05-01T09:37:46Z</time></trkpt><trkpt lat="42.225896831044366" lon="14.196036373098554"><ele>300.0</ele><time>2026-05-01T09:37:48Z</time></trkpt><trkpt lat="42.22595076173595" lon="14.196193054488969"><ele>300.0</ele><time>2026-05-01T09:37:49Z</time></trkpt><trkpt lat="42.225977011397646" lon="14.196340554615814"><ele>300.0</ele><time>2026-05-01T09:37:50Z</time></trkpt><trkpt lat="42.22601142810172" lon="14.196492434704107"><ele>300.0</ele><time>2026-05-01T09:37:51Z</time></trkpt><trkpt lat="42.22604422126589" lon="14.196628130114542"><ele>300.0</ele><time>2026-05-01T09:37:52Z</time></trkpt><trkpt lat="42.226074725127965" lon="14.196731432914131"><ele>300.0</ele><time>2026-05-01T09:37:53Z</time></trkpt><trkpt lat="42.226126783535136" lon="14.19679975051201"><ele>301.0</ele><time>2026-05-01T09:37:54Z</time></trkpt><trkpt lat="42.22619531206032" lon="14.196851007713724"><ele>302.0</ele><time>2026-05-01T09:37:56Z</time></trkpt><trkpt lat="42.22625922960464" lon="14.196937736706337"><ele>303.0</ele><time>2026-05-01T09:38:15Z</time></trkpt><trkpt lat="42.22637510429923" lon="14.197015796332686"><ele>304.0</ele><time>2026-05-01T09:38:17Z</time></trkpt><trkpt lat="42.22645476631624" lon="14.197061616047902"><ele>305.0</ele><time>2026-05-01T09:38:18Z</time></trkpt><trkpt lat="42.22654593336257" lon="14.197152217651409"><ele>305.0</ele><time>2026-05-01T09:38:19Z</time></trkpt><trkpt lat="42.2266107076171" lon="14.197263945138104"><ele>305.0</ele><time>2026-05-01T09:38:20Z</time></trkpt><trkpt lat="42.22667774872895" lon="14.19736985945342"><ele>305.0</ele><time>2026-05-01T09:38:21Z</time></trkpt><trkpt lat="42.226752135001824" lon="14.197456475507849"><ele>305.0</ele><time>2026-05-01T09:38:22Z</time></trkpt><trkpt lat="42.22683381852394" lon="14.197524789017754"><ele>305.0</ele><time>2026-05-01T09:38:23Z</time></trkpt><trkpt lat="42.22693285809704" lon="14.197607918787625"><ele>307.2</ele><time>2026-05-01T09:38:24Z</time></trkpt><trkpt lat="42.22703408983142" lon="14.197682854473095"><ele>309.4</ele><time>2026-05-01T09:38:25Z</time></trkpt><trkpt lat="42.22713729899058" lon="14.19778838686006"><ele>311.6</ele><time>2026-05-01T09:38:26Z</time></trkpt><trkpt lat="42.22721629298227" lon="14.19789842538722"><ele>313.8</ele><time>2026-05-01T09:38:27Z</time></trkpt><trkpt lat="42.22726254140676" lon="14.197990493055135"><ele>316.0</ele><time>2026-05-01T09:38:28Z</time></trkpt><trkpt lat="42.227300139988046" lon="14.198109776940198"><ele>315.8</ele><time>2026-05-01T09:38:29Z</time></trkpt><trkpt lat="42.22732777367325" lon="14.198240746417946"><ele>315.6</ele><time>2026-05-01T09:38:30Z</time></trkpt><trkpt lat="42.22735394018321" lon="14.198396884912276"><ele>315.4</ele><time>2026-05-01T09:38:31Z</time></trkpt><trkpt lat="42.22737523784347" lon="14.198527259881908"><ele>315.2</ele><time>2026-05-01T09:38:32Z</time></trkpt><trkpt lat="42.22739499739167" lon="14.198657181831413"><ele>315.0</ele><time>2026-05-01T09:38:33Z</time></trkpt><trkpt lat="42.22743053357064" lon="14.198797310645638"><ele>315.0</ele><time>2026-05-01T09:38:34Z</time></trkpt><trkpt lat="42.227439914006126" lon="14.198961429865818"><ele>315.0</ele><time>2026-05-01T09:38:35Z</time></trkpt><trkpt lat="42.2274621346696" lon="14.199106428878386"><ele>315.0</ele><time>2026-05-01T09:38:36Z</time></trkpt><trkpt lat="42.22748240370552" lon="14.199242054889384"><ele>315.0</ele><time>2026-05-01T09:38:37Z</time></trkpt><trkpt lat="42.22751033296476" lon="14.199433821882723"><ele>314.2</ele><time>2026-05-01T09:38:39Z</time></trkpt><trkpt lat="42.227568939552384" lon="14.199534261778284"><ele>313.4</ele><time>2026-05-01T09:38:40Z</time></trkpt><trkpt lat="42.227595072709654" lon="14.199636029885209"><ele>312.6</ele><time>2026-05-01T09:38:41Z</time></trkpt><trkpt lat="42.227647247681894" lon="14.199721680280641"><ele>311.8</ele><time>2026-05-01T09:38:42Z</time></trkpt><trkpt lat="42.227681616167445" lon="14.199817040137901"><ele>311.0</ele><time>2026-05-01T09:38:43Z</time></trkpt><trkpt lat="42.22766924468227" lon="14.199976554366481"><ele>310.6</ele><time>2026-05-01T09:38:45Z</time></trkpt><trkpt lat="42.22766171328473" lon="14.200124474344088"><ele>310.20000000000005</ele><time>2026-05-01T09:38:46Z</time></trkpt><trkpt lat="42.22760927569443" lon="14.200261374963226"><ele>309.79999999999995</ele><time>2026-05-01T09:38:46.999Z</time></trkpt><trkpt lat="42.227565217817975" lon="14.200372596672763"><ele>309.4</ele><time>2026-05-01T09:38:47.999Z</time></trkpt><trkpt lat="42.22751619891981" lon="14.20049144340981"><ele>309.0</ele><time>2026-05-01T09:38:48.999Z</time></trkpt><trkpt lat="42.22746525656456" lon="14.200606296755222"><ele>308.3333333333333</ele><time>2026-05-01T09:38:49.999Z</time></trkpt><trkpt lat="42.22741863366461" lon="14.200711522289062"><ele>307.6666666666667</ele><time>2026-05-01T09:38:50.999Z</time></trkpt><trkpt lat="42.22737905124358" lon="14.200799607055421"><ele>307.0</ele><time>2026-05-01T09:38:51.999Z</time></trkpt><trkpt lat="42.22734592086904" lon="14.200873334387849"><ele>306.33333333333337</ele><time>2026-05-01T09:38:52.999Z</time></trkpt><trkpt lat="42.22729565720293" lon="14.20098518876084"><ele>305.6666666666667</ele><time>2026-05-01T09:38:54.999Z</time></trkpt><trkpt lat="42.22731716298391" lon="14.201076272068859"><ele>305.0</ele><time>2026-05-01T09:38:57.999Z</time></trkpt><trkpt lat="42.2275175710812" lon="14.201216232906757"><ele>305.0</ele><time>2026-05-01T09:39:00.999Z</time></trkpt><trkpt lat="42.22758872700682" lon="14.20128482577557"><ele>305.0</ele><time>2026-05-01T09:39:02.999Z</time></trkpt><trkpt lat="42.22752619363365" lon="14.201382016332595"><ele>305.0</ele><time>2026-05-01T09:39:03.999Z</time></trkpt><trkpt lat="42.227256998975705" lon="14.201293613902232"><ele>303.6666666666667</ele><time>2026-05-01T09:39:04.999Z</time></trkpt><trkpt lat="42.227376269624145" lon="14.201591424607834"><ele>302.3333333333333</ele><time>2026-05-01T09:39:05.999Z</time></trkpt><trkpt lat="42.22727662828908" lon="14.201724552362494"><ele>301.0</ele><time>2026-05-01T09:39:06.999Z</time></trkpt><trkpt lat="42.22717898113459" lon="14.201879733573884"><ele>302.6</ele><time>2026-05-01T09:39:07.999Z</time></trkpt><trkpt lat="42.22712236718914" lon="14.202025988697423"><ele>304.20000000000005</ele><time>2026-05-01T09:39:08.999Z</time></trkpt><trkpt lat="42.22703692959436" lon="14.2021226045226"><ele>305.79999999999995</ele><time>2026-05-01T09:39:09.999Z</time></trkpt><trkpt lat="42.2269557308377" lon="14.202205749783495"><ele>307.4</ele><time>2026-05-01T09:39:10.999Z</time></trkpt><trkpt lat="42.22689536379203" lon="14.202323516893054"><ele>309.0</ele><time>2026-05-01T09:39:11.999Z</time></trkpt><trkpt lat="42.226824090374315" lon="14.202462695613209"><ele>309.0</ele><time>2026-05-01T09:39:12.999Z</time></trkpt><trkpt lat="42.22675003419571" lon="14.202571665372304"><ele>309.0</ele><time>2026-05-01T09:39:14Z</time></trkpt><trkpt lat="42.226659335699125" lon="14.202660124341575"><ele>309.0</ele><time>2026-05-01T09:39:15Z</time></trkpt><trkpt lat="42.2265905693422" lon="14.202745226514383"><ele>309.0</ele><time>2026-05-01T09:39:16Z</time></trkpt><trkpt lat="42.22656418057878" lon="14.20286900487158"><ele>309.0</ele><time>2026-05-01T09:39:17Z</time></trkpt><trkpt lat="42.226524494171784" lon="14.202953220793805"><ele>309.2</ele><time>2026-05-01T09:39:18Z</time></trkpt><trkpt lat="42.22645523706102" lon="14.20299956974597"><ele>309.4</ele><time>2026-05-01T09:39:19Z</time></trkpt><trkpt lat="42.2263606340835" lon="14.203079467214488"><ele>309.6</ele><time>2026-05-01T09:39:20Z</time></trkpt><trkpt lat="42.22627588906602" lon="14.20315156666214"><ele>309.8</ele><time>2026-05-01T09:39:21Z</time></trkpt><trkpt lat="42.226201338825064" lon="14.203265188336477"><ele>310.0</ele><time>2026-05-01T09:39:23Z</time></trkpt><trkpt lat="42.22616246209416" lon="14.203363400066458"><ele>310.0</ele><time>2026-05-01T09:39:24Z</time></trkpt><trkpt lat="42.226000614852474" lon="14.203327557503474"><ele>310.0</ele><time>2026-05-01T09:39:25Z</time></trkpt><trkpt lat="42.225933134347" lon="14.203412512632644"><ele>310.0</ele><time>2026-05-01T09:39:26Z</time></trkpt><trkpt lat="42.22587068764398" lon="14.203491284823585"><ele>310.0</ele><time>2026-05-01T09:39:27Z</time></trkpt><trkpt lat="42.225810628142" lon="14.203565591920093"><ele>310.0</ele><time>2026-05-01T09:39:28Z</time></trkpt><trkpt lat="42.225754977777825" lon="14.203634435587889"><ele>310.0</ele><time>2026-05-01T09:39:29Z</time></trkpt><trkpt lat="42.22568893610637" lon="14.203711853413633"><ele>310.0</ele><time>2026-05-01T09:39:30Z</time></trkpt><trkpt lat="42.225630705372595" lon="14.20377797884273"><ele>310.0</ele><time>2026-05-01T09:39:31Z</time></trkpt><trkpt lat="42.2255726979317" lon="14.203843851057023"><ele>310.0</ele><time>2026-05-01T09:39:32Z</time></trkpt><trkpt lat="42.22551629531873" lon="14.203908037896996"><ele>310.0</ele><time>2026-05-01T09:39:33Z</time></trkpt><trkpt lat="42.225460758481994" lon="14.203970272228018"><ele>310.0</ele><time>2026-05-01T09:39:34Z</time></trkpt><trkpt lat="42.22539502666153" lon="14.204043546518976"><ele>309.66666666666663</ele><time>2026-05-01T09:39:35Z</time></trkpt><trkpt lat="42.22532890591953" lon="14.204114036907324"><ele>309.3333333333333</ele><time>2026-05-01T09:39:36Z</time></trkpt><trkpt lat="42.22526575352932" lon="14.204181100583172"><ele>309.0</ele><time>2026-05-01T09:39:37Z</time></trkpt><trkpt lat="42.22519881424748" lon="14.204250611407282"><ele>308.6666666666667</ele><time>2026-05-01T09:39:38Z</time></trkpt><trkpt lat="42.225128719564616" lon="14.204331070763786"><ele>308.33333333333337</ele><time>2026-05-01T09:39:39Z</time></trkpt><trkpt lat="42.22505295935653" lon="14.204404422864753"><ele>308.0</ele><time>2026-05-01T09:39:40Z</time></trkpt><trkpt lat="42.22495283900379" lon="14.204451329991507"><ele>308.0</ele><time>2026-05-01T09:39:41Z</time></trkpt><trkpt lat="42.22483291688981" lon="14.204534574797664"><ele>308.0</ele><time>2026-05-01T09:39:42Z</time></trkpt><trkpt lat="42.22471448198439" lon="14.20464296111882"><ele>308.0</ele><time>2026-05-01T09:39:43Z</time></trkpt><trkpt lat="42.22459245604445" lon="14.20475661269136"><ele>308.0</ele><time>2026-05-01T09:39:44Z</time></trkpt><trkpt lat="42.22450731629699" lon="14.204777440496954"><ele>308.6666666666667</ele><time>2026-05-01T09:39:47Z</time></trkpt><trkpt lat="42.22444137939331" lon="14.20481841418263"><ele>309.33333333333337</ele><time>2026-05-01T09:39:48Z</time></trkpt><trkpt lat="42.22436345394954" lon="14.204845609486528"><ele>310.0</ele><time>2026-05-01T09:39:49Z</time></trkpt><trkpt lat="42.22430216117428" lon="14.204921470998682"><ele>310.6666666666667</ele><time>2026-05-01T09:39:50Z</time></trkpt><trkpt lat="42.22420951944277" lon="14.204998987433303"><ele>311.3333333333333</ele><time>2026-05-01T09:39:51Z</time></trkpt><trkpt lat="42.22414146964249" lon="14.20508229295819"><ele>312.0</ele><time>2026-05-01T09:39:53Z</time></trkpt><trkpt lat="42.22402795557121" lon="14.205181099667788"><ele>313.1666666666667</ele><time>2026-05-01T09:39:55Z</time></trkpt><trkpt lat="42.22394461085175" lon="14.205215071391581"><ele>314.3333333333333</ele><time>2026-05-01T09:39:56Z</time></trkpt><trkpt lat="42.2238885672843" lon="14.205267288619114"><ele>315.5</ele><time>2026-05-01T09:39:57Z</time></trkpt><trkpt lat="42.22378625512277" lon="14.20535258536063"><ele>316.66666666666663</ele><time>2026-05-01T09:39:59Z</time></trkpt><trkpt lat="42.223722007331894" lon="14.205406148195332"><ele>317.8333333333333</ele><time>2026-05-01T09:40:00Z</time></trkpt><trkpt lat="42.22365153990098" lon="14.205464896282704"><ele>319.0</ele><time>2026-05-01T09:40:01Z</time></trkpt><trkpt lat="42.22356891002937" lon="14.205533784101588"><ele>319.0</ele><time>2026-05-01T09:40:02Z</time></trkpt><trkpt lat="42.223457567258265" lon="14.20562660960992"><ele>319.0</ele><time>2026-05-01T09:40:03Z</time></trkpt><trkpt lat="42.22334568205408" lon="14.205720251150893"><ele>319.0</ele><time>2026-05-01T09:40:04Z</time></trkpt><trkpt lat="42.22326208498924" lon="14.205791461863669"><ele>319.0</ele><time>2026-05-01T09:40:05Z</time></trkpt><trkpt lat="42.22319577383153" lon="14.20584794787732"><ele>319.0</ele><time>2026-05-01T09:40:06Z</time></trkpt><trkpt lat="42.22311694971986" lon="14.205914096621662"><ele>320.25</ele><time>2026-05-01T09:40:07Z</time></trkpt><trkpt lat="42.22300534706595" lon="14.206007144899909"><ele>321.5</ele><time>2026-05-01T09:40:08Z</time></trkpt><trkpt lat="42.22288447391473" lon="14.20610792237525"><ele>322.75</ele><time>2026-05-01T09:40:09Z</time></trkpt><trkpt lat="42.2227722694422" lon="14.20620147245679"><ele>324.0</ele><time>2026-05-01T09:40:10Z</time></trkpt><trkpt lat="42.222671670628806" lon="14.20629330092998"><ele>324.0</ele><time>2026-05-01T09:40:11Z</time></trkpt><trkpt lat="42.222586168162934" lon="14.206356331936849"><ele>324.0</ele><time>2026-05-01T09:40:12Z</time></trkpt><trkpt lat="42.222518140362155" lon="14.206417894103295"><ele>324.0</ele><time>2026-05-01T09:40:13Z</time></trkpt><trkpt lat="42.222426855919714" lon="14.206471032970338"><ele>324.0</ele><time>2026-05-01T09:40:14Z</time></trkpt><trkpt lat="42.22233196751306" lon="14.206546342795331"><ele>324.0</ele><time>2026-05-01T09:40:15Z</time></trkpt><trkpt lat="42.22225394178613" lon="14.206635035772884"><ele>323.79999999999995</ele><time>2026-05-01T09:40:16Z</time></trkpt><trkpt lat="42.22216433571829" lon="14.206710209285164"><ele>323.59999999999997</ele><time>2026-05-01T09:40:17Z</time></trkpt><trkpt lat="42.22206779551141" lon="14.206791200192137"><ele>323.4</ele><time>2026-05-01T09:40:18Z</time></trkpt><trkpt lat="42.22198123008459" lon="14.20686382266533"><ele>323.2</ele><time>2026-05-01T09:40:19Z</time></trkpt><trkpt lat="42.22191920324088" lon="14.206915859139688"><ele>323.0</ele><time>2026-05-01T09:40:20Z</time></trkpt><trkpt lat="42.221845694528454" lon="14.2069775280403"><ele>323.0</ele><time>2026-05-01T09:40:21Z</time></trkpt><trkpt lat="42.221768742506214" lon="14.207042085544424"><ele>323.0</ele><time>2026-05-01T09:40:22Z</time></trkpt><trkpt lat="42.22169960727518" lon="14.207100085419725"><ele>323.0</ele><time>2026-05-01T09:40:23Z</time></trkpt><trkpt lat="42.22162034876648" lon="14.207166630657051"><ele>323.0</ele><time>2026-05-01T09:40:24Z</time></trkpt><trkpt lat="42.22153064019038" lon="14.207242085164765"><ele>323.0</ele><time>2026-05-01T09:40:25Z</time></trkpt><trkpt lat="42.22144064676563" lon="14.207317779262887"><ele>324.4</ele><time>2026-05-01T09:40:26Z</time></trkpt><trkpt lat="42.22134436517295" lon="14.207380665121242"><ele>325.79999999999995</ele><time>2026-05-01T09:40:27Z</time></trkpt><trkpt lat="42.221259246297684" lon="14.207461338408521"><ele>327.2</ele><time>2026-05-01T09:40:28Z</time></trkpt><trkpt lat="42.221176241770515" lon="14.207534120168472"><ele>328.6</ele><time>2026-05-01T09:40:29Z</time></trkpt><trkpt lat="42.22107671555069" lon="14.207608987761493"><ele>330.0</ele><time>2026-05-01T09:40:30Z</time></trkpt><trkpt lat="42.22099574744828" lon="14.20768711939839"><ele>330.0</ele><time>2026-05-01T09:40:31Z</time></trkpt><trkpt lat="42.22093899361301" lon="14.207748594979769"><ele>330.0</ele><time>2026-05-01T09:40:32Z</time></trkpt><trkpt lat="42.2208814054019" lon="14.20779978915167"><ele>330.0</ele><time>2026-05-01T09:40:33Z</time></trkpt><trkpt lat="42.220810222166975" lon="14.207847510180605"><ele>330.0</ele><time>2026-05-01T09:40:34Z</time></trkpt><trkpt lat="42.22070147399343" lon="14.207916281110872"><ele>330.0</ele><time>2026-05-01T09:40:35Z</time></trkpt><trkpt lat="42.22059437333073" lon="14.208029785996429"><ele>330.6</ele><time>2026-05-01T09:40:36Z</time></trkpt><trkpt lat="42.220486896588596" lon="14.208120406576406"><ele>331.2</ele><time>2026-05-01T09:40:37Z</time></trkpt><trkpt lat="42.2203894459862" lon="14.208202573546163"><ele>331.79999999999995</ele><time>2026-05-01T09:40:38Z</time></trkpt><trkpt lat="42.2203090630956" lon="14.208269003870582"><ele>332.4</ele><time>2026-05-01T09:40:39Z</time></trkpt><trkpt lat="42.220238857253484" lon="14.208324609886775"><ele>333.0</ele><time>2026-05-01T09:40:40Z</time></trkpt><trkpt lat="42.220156085251254" lon="14.208370426354032"><ele>333.0</ele><time>2026-05-01T09:40:41Z</time></trkpt><trkpt lat="42.22005578224859" lon="14.20846048458476"><ele>333.0</ele><time>2026-05-01T09:40:42Z</time></trkpt><trkpt lat="42.219963226757265" lon="14.208533094493022"><ele>333.0</ele><time>2026-05-01T09:40:43Z</time></trkpt><trkpt lat="42.21990011406978" lon="14.208652728834108"><ele>333.0</ele><time>2026-05-01T09:40:44Z</time></trkpt><trkpt lat="42.219814392541934" lon="14.208706526717751"><ele>333.0</ele><time>2026-05-01T09:40:45Z</time></trkpt><trkpt lat="42.21970714850738" lon="14.208768500728745"><ele>335.0</ele><time>2026-05-01T09:40:46Z</time></trkpt><trkpt lat="42.21959114689925" lon="14.208833890381321"><ele>337.0</ele><time>2026-05-01T09:40:47Z</time></trkpt><trkpt lat="42.21948064950657" lon="14.20888374804756"><ele>339.0</ele><time>2026-05-01T09:40:47.999Z</time></trkpt><trkpt lat="42.21936924122465" lon="14.20890655428576"><ele>341.0</ele><time>2026-05-01T09:40:48.998Z</time></trkpt><trkpt lat="42.21926878804603" lon="14.208957365899218"><ele>341.0</ele><time>2026-05-01T09:40:49.998Z</time></trkpt><trkpt lat="42.21916248236037" lon="14.208983611890574"><ele>341.0</ele><time>2026-05-01T09:40:50.998Z</time></trkpt><trkpt lat="42.21906283945072" lon="14.208999381084942"><ele>341.0</ele><time>2026-05-01T09:40:51.998Z</time></trkpt><trkpt lat="42.218957443506575" lon="14.209010266060286"><ele>341.0</ele><time>2026-05-01T09:40:52.998Z</time></trkpt><trkpt lat="42.21886326521348" lon="14.209015948235626"><ele>341.0</ele><time>2026-05-01T09:40:53.998Z</time></trkpt><trkpt lat="42.21877603682494" lon="14.20901722256704"><ele>339.8</ele><time>2026-05-01T09:40:54.998Z</time></trkpt><trkpt lat="42.21870331521653" lon="14.209012034613595"><ele>338.6</ele><time>2026-05-01T09:40:55.998Z</time></trkpt><trkpt lat="42.218599030849546" lon="14.208998065453269"><ele>337.4</ele><time>2026-05-01T09:40:56.998Z</time></trkpt><trkpt lat="42.21851291344229" lon="14.208978488905338"><ele>336.2</ele><time>2026-05-01T09:40:57.998Z</time></trkpt><trkpt lat="42.21839225558433" lon="14.208951060473842"><ele>335.0</ele><time>2026-05-01T09:40:58.998Z</time></trkpt><trkpt lat="42.21827355399186" lon="14.20892407673277"><ele>335.6666666666667</ele><time>2026-05-01T09:40:59.998Z</time></trkpt><trkpt lat="42.218109177997775" lon="14.208887122691726"><ele>336.3333333333333</ele><time>2026-05-01T09:41:00.998Z</time></trkpt><trkpt lat="42.21795465163468" lon="14.208835283410147"><ele>337.0</ele><time>2026-05-01T09:41:01.998Z</time></trkpt><trkpt lat="42.21777493820521" lon="14.208691357758491"><ele>337.0</ele><time>2026-05-01T09:41:02.998Z</time></trkpt><trkpt lat="42.21770326096002" lon="14.20865587485141"><ele>337.0</ele><time>2026-05-01T09:41:03.998Z</time></trkpt><trkpt lat="42.217624232711394" lon="14.208650118623037"><ele>337.0</ele><time>2026-05-01T09:41:04.998Z</time></trkpt><trkpt lat="42.217374493510405" lon="14.208373548632458"><ele>338.25</ele><time>2026-05-01T09:41:05.998Z</time></trkpt><trkpt lat="42.21729104195813" lon="14.208288255932072"><ele>339.5</ele><time>2026-05-01T09:41:06.998Z</time></trkpt><trkpt lat="42.2172533082579" lon="14.208114468131754"><ele>340.75</ele><time>2026-05-01T09:41:07.998Z</time></trkpt><trkpt lat="42.21717126809241" lon="14.208007866915713"><ele>342.0</ele><time>2026-05-01T09:41:08.998Z</time></trkpt><trkpt lat="42.21707518589966" lon="14.207888756965906"><ele>343.0</ele><time>2026-05-01T09:41:09.998Z</time></trkpt><trkpt lat="42.216979783042376" lon="14.207771718200078"><ele>344.0</ele><time>2026-05-01T09:41:10.998Z</time></trkpt><trkpt lat="42.21689346523722" lon="14.207669801684048"><ele>345.0</ele><time>2026-05-01T09:41:11.998Z</time></trkpt><trkpt lat="42.2167989167388" lon="14.207567158575815"><ele>346.0</ele><time>2026-05-01T09:41:12.998Z</time></trkpt><trkpt lat="42.21669364216861" lon="14.207462076698576"><ele>346.0</ele><time>2026-05-01T09:41:13.998Z</time></trkpt><trkpt lat="42.216579757796914" lon="14.207362991811113"><ele>346.0</ele><time>2026-05-01T09:41:14.998Z</time></trkpt><trkpt lat="42.2164564490324" lon="14.207270150964929"><ele>346.0</ele><time>2026-05-01T09:41:15.998Z</time></trkpt><trkpt lat="42.21632912005218" lon="14.207189881140884"><ele>346.0</ele><time>2026-05-01T09:41:16.998Z</time></trkpt><trkpt lat="42.21620172592758" lon="14.207123496649084"><ele>347.25</ele><time>2026-05-01T09:41:17.998Z</time></trkpt><trkpt lat="42.21607940780955" lon="14.207069753630028"><ele>348.5</ele><time>2026-05-01T09:41:18.998Z</time></trkpt><trkpt lat="42.215940453223396" lon="14.207019188088088"><ele>349.75</ele><time>2026-05-01T09:41:19.999Z</time></trkpt><trkpt lat="42.21581132347465" lon="14.20695542637295"><ele>351.0</ele><time>2026-05-01T09:41:20.999Z</time></trkpt><trkpt lat="42.21567250584884" lon="14.206936157101461"><ele>352.0</ele><time>2026-05-01T09:41:21.999Z</time></trkpt><trkpt lat="42.215531701298985" lon="14.206876880143342"><ele>353.0</ele><time>2026-05-01T09:41:22.999Z</time></trkpt><trkpt lat="42.21539889250235" lon="14.206859267063528"><ele>354.0</ele><time>2026-05-01T09:41:23.999Z</time></trkpt><trkpt lat="42.215274384854524" lon="14.20682427373648"><ele>355.0</ele><time>2026-05-01T09:41:24.999Z</time></trkpt><trkpt lat="42.21516333932285" lon="14.206792575684297"><ele>355.0</ele><time>2026-05-01T09:41:25.999Z</time></trkpt><trkpt lat="42.21505107008465" lon="14.206760528292449"><ele>355.0</ele><time>2026-05-01T09:41:26.999Z</time></trkpt><trkpt lat="42.214927024495815" lon="14.206725119374564"><ele>355.0</ele><time>2026-05-01T09:41:27.999Z</time></trkpt><trkpt lat="42.21480214396699" lon="14.206689472785492"><ele>355.0</ele><time>2026-05-01T09:41:28.999Z</time></trkpt><trkpt lat="42.21467575852005" lon="14.206653426090702"><ele>356.25</ele><time>2026-05-01T09:41:29.999Z</time></trkpt><trkpt lat="42.21456465376878" lon="14.206615350629106"><ele>357.5</ele><time>2026-05-01T09:41:30.999Z</time></trkpt><trkpt lat="42.2144576932779" lon="14.206584766693199"><ele>358.75</ele><time>2026-05-01T09:41:31.999Z</time></trkpt><trkpt lat="42.21432623702625" lon="14.206553738125013"><ele>360.0</ele><time>2026-05-01T09:41:32.999Z</time></trkpt><trkpt lat="42.21419446684888" lon="14.206516803442916"><ele>361.25</ele><time>2026-05-01T09:41:33.999Z</time></trkpt><trkpt lat="42.21407147596197" lon="14.206482540095463"><ele>362.5</ele><time>2026-05-01T09:41:34.999Z</time></trkpt><trkpt lat="42.21393763901503" lon="14.20644525526636"><ele>363.75</ele><time>2026-05-01T09:41:35.999Z</time></trkpt><trkpt lat="42.21380162677022" lon="14.206407364402242"><ele>365.0</ele><time>2026-05-01T09:41:36.999Z</time></trkpt><trkpt lat="42.213662353986884" lon="14.206368569326479"><ele>365.75</ele><time>2026-05-01T09:41:37.999Z</time></trkpt><trkpt lat="42.21352467686369" lon="14.206330214681616"><ele>366.5</ele><time>2026-05-01T09:41:38.999Z</time></trkpt><trkpt lat="42.21338123753724" lon="14.206290254753863"><ele>367.25</ele><time>2026-05-01T09:41:39.999Z</time></trkpt><trkpt lat="42.21323224105425" lon="14.206247589255842"><ele>368.0</ele><time>2026-05-01T09:41:40.999Z</time></trkpt><trkpt lat="42.21309212297861" lon="14.206207160974204"><ele>368.79999999999995</ele><time>2026-05-01T09:41:41.999Z</time></trkpt><trkpt lat="42.2129644880396" lon="14.206170452439219"><ele>369.6</ele><time>2026-05-01T09:41:42.999Z</time></trkpt><trkpt lat="42.21286027688189" lon="14.206140632416256"><ele>370.4</ele><time>2026-05-01T09:41:43.999Z</time></trkpt><trkpt lat="42.21277357597157" lon="14.20611582296407"><ele>371.20000000000005</ele><time>2026-05-01T09:41:44.999Z</time></trkpt><trkpt lat="42.2126989876722" lon="14.206094479537978"><ele>372.0</ele><time>2026-05-01T09:41:45.999Z</time></trkpt><trkpt lat="42.21260079307577" lon="14.20606586312235"><ele>372.0</ele><time>2026-05-01T09:41:47.999Z</time></trkpt><trkpt lat="42.21252308679639" lon="14.206043271587712"><ele>372.0</ele><time>2026-05-01T09:41:59.999Z</time></trkpt><trkpt lat="42.212379338536905" lon="14.206002748187275"><ele>372.0</ele><time>2026-05-01T09:42:01.999Z</time></trkpt><trkpt lat="42.21225757545152" lon="14.205948475719415"><ele>372.0</ele><time>2026-05-01T09:42:02.999Z</time></trkpt><trkpt lat="42.21212418237951" lon="14.205922737353353"><ele>373.0</ele><time>2026-05-01T09:42:03.999Z</time></trkpt><trkpt lat="42.21197886527724" lon="14.205876160192743"><ele>374.0</ele><time>2026-05-01T09:42:04.999Z</time></trkpt><trkpt lat="42.211870277861614" lon="14.20587026760476"><ele>375.0</ele><time>2026-05-01T09:42:05.999Z</time></trkpt><trkpt lat="42.21176098991726" lon="14.205846837347641"><ele>376.0</ele><time>2026-05-01T09:42:06.999Z</time></trkpt><trkpt lat="42.21159449938321" lon="14.205793071876771"><ele>377.0</ele><time>2026-05-01T09:42:07.999Z</time></trkpt><trkpt lat="42.21144321194787" lon="14.205738470610576"><ele>378.0</ele><time>2026-05-01T09:42:08.999Z</time></trkpt><trkpt lat="42.21131749090678" lon="14.205684367295598"><ele>379.0</ele><time>2026-05-01T09:42:09.999Z</time></trkpt><trkpt lat="42.21120259623835" lon="14.205644180376234"><ele>380.0</ele><time>2026-05-01T09:42:10.999Z</time></trkpt><trkpt lat="42.21108611037376" lon="14.20563229217432"><ele>381.75</ele><time>2026-05-01T09:42:11.999Z</time></trkpt><trkpt lat="42.21096282757177" lon="14.205597445062278"><ele>383.5</ele><time>2026-05-01T09:42:12.999Z</time></trkpt><trkpt lat="42.210846510761655" lon="14.205564567034218"><ele>385.25</ele><time>2026-05-01T09:42:13.999Z</time></trkpt><trkpt lat="42.21074009589404" lon="14.205518107927475"><ele>387.0</ele><time>2026-05-01T09:42:14.999Z</time></trkpt><trkpt lat="42.210616031001756" lon="14.20548479136371"><ele>387.25</ele><time>2026-05-01T09:42:15.999Z</time></trkpt><trkpt lat="42.21049228624774" lon="14.205448435605586"><ele>387.5</ele><time>2026-05-01T09:42:16.999Z</time></trkpt><trkpt lat="42.21037079275504" lon="14.205428431745293"><ele>387.75</ele><time>2026-05-01T09:42:17.999Z</time></trkpt><trkpt lat="42.21025723146145" lon="14.205380727333118"><ele>388.0</ele><time>2026-05-01T09:42:18.999Z</time></trkpt><trkpt lat="42.21014466338474" lon="14.205349547315183"><ele>388.0</ele><time>2026-05-01T09:42:19.999Z</time></trkpt><trkpt lat="42.210045756680564" lon="14.205324284680204"><ele>388.0</ele><time>2026-05-01T09:42:20.999Z</time></trkpt><trkpt lat="42.20994409772417" lon="14.205294117299415"><ele>388.0</ele><time>2026-05-01T09:42:21.999Z</time></trkpt><trkpt lat="42.209846331618266" lon="14.205272074375902"><ele>388.0</ele><time>2026-05-01T09:42:22.999Z</time></trkpt><trkpt lat="42.209746486575746" lon="14.20524260160085"><ele>388.0</ele><time>2026-05-01T09:42:23.999Z</time></trkpt><trkpt lat="42.20964783802754" lon="14.205209708325226"><ele>388.59999999999997</ele><time>2026-05-01T09:42:24.999Z</time></trkpt><trkpt lat="42.20955432065209" lon="14.205174181973629"><ele>389.2</ele><time>2026-05-01T09:42:25.999Z</time></trkpt><trkpt lat="42.20945895387471" lon="14.20514422957933"><ele>389.8</ele><time>2026-05-01T09:42:26.999Z</time></trkpt><trkpt lat="42.209362799797525" lon="14.205111355995545"><ele>390.4</ele><time>2026-05-01T09:42:27.999Z</time></trkpt><trkpt lat="42.20926201699755" lon="14.205079212519673"><ele>391.0</ele><time>2026-05-01T09:42:28.999Z</time></trkpt><trkpt lat="42.20916647592372" lon="14.205046717573339"><ele>391.00000000000006</ele><time>2026-05-01T09:42:29.999Z</time></trkpt><trkpt lat="42.20907732348267" lon="14.204998181260086"><ele>391.0</ele><time>2026-05-01T09:42:30.999Z</time></trkpt><trkpt lat="42.209002727004375" lon="14.204966866598724"><ele>391.0</ele><time>2026-05-01T09:42:31.999Z</time></trkpt><trkpt lat="42.20893255046342" lon="14.204936822023951"><ele>391.0</ele><time>2026-05-01T09:42:32.999Z</time></trkpt><trkpt lat="42.208854634585535" lon="14.204900473369456"><ele>391.00000000000006</ele><time>2026-05-01T09:42:33.999Z</time></trkpt><trkpt lat="42.20876740838025" lon="14.20485750373445"><ele>391.0</ele><time>2026-05-01T09:42:34.999Z</time></trkpt><trkpt lat="42.208693186725704" lon="14.204816626027636"><ele>393.6</ele><time>2026-05-01T09:42:35.999Z</time></trkpt><trkpt lat="42.20859863797918" lon="14.204761693029955"><ele>396.20000000000005</ele><time>2026-05-01T09:42:36.999Z</time></trkpt><trkpt lat="42.20851485263005" lon="14.204720651552377"><ele>398.79999999999995</ele><time>2026-05-01T09:42:37.999Z</time></trkpt><trkpt lat="42.20843296265692" lon="14.2046859341718"><ele>401.4</ele><time>2026-05-01T09:42:38.999Z</time></trkpt><trkpt lat="42.20834894561125" lon="14.20464840558958"><ele>404.0</ele><time>2026-05-01T09:42:39.999Z</time></trkpt><trkpt lat="42.208254965283054" lon="14.204597126164535"><ele>403.8333333333333</ele><time>2026-05-01T09:42:40.999Z</time></trkpt><trkpt lat="42.208158342259864" lon="14.204542043339037"><ele>403.66666666666663</ele><time>2026-05-01T09:42:41.999Z</time></trkpt><trkpt lat="42.20807462398675" lon="14.204484029269599"><ele>403.5</ele><time>2026-05-01T09:42:42.999Z</time></trkpt><trkpt lat="42.20799725676257" lon="14.204425334519053"><ele>403.33333333333337</ele><time>2026-05-01T09:42:43.999Z</time></trkpt><trkpt lat="42.20793582396912" lon="14.204380815489626"><ele>403.1666666666667</ele><time>2026-05-01T09:42:44.999Z</time></trkpt><trkpt lat="42.20786990417583" lon="14.204335451799045"><ele>403.0</ele><time>2026-05-01T09:42:45.999Z</time></trkpt><trkpt lat="42.20779581095689" lon="14.20430288228721"><ele>403.0</ele><time>2026-05-01T09:42:46.999Z</time></trkpt><trkpt lat="42.207719167716064" lon="14.204251946160257"><ele>403.0</ele><time>2026-05-01T09:42:47.999Z</time></trkpt><trkpt lat="42.207642310269385" lon="14.20420030191611"><ele>403.0</ele><time>2026-05-01T09:42:48.999Z</time></trkpt><trkpt lat="42.20756039769907" lon="14.204145260888208"><ele>403.0</ele><time>2026-05-01T09:42:49.999Z</time></trkpt><trkpt lat="42.20747589180524" lon="14.204088477273137"><ele>403.0</ele><time>2026-05-01T09:42:50.999Z</time></trkpt><trkpt lat="42.20738901700296" lon="14.204030101891819"><ele>404.4</ele><time>2026-05-01T09:42:51.999Z</time></trkpt><trkpt lat="42.2072992354917" lon="14.203969773346586"><ele>405.79999999999995</ele><time>2026-05-01T09:42:52.999Z</time></trkpt><trkpt lat="42.20721756504273" lon="14.203915436985394"><ele>407.2</ele><time>2026-05-01T09:42:53.999Z</time></trkpt><trkpt lat="42.20713620572197" lon="14.203861468069322"><ele>408.6</ele><time>2026-05-01T09:42:54.999Z</time></trkpt><trkpt lat="42.207044668503585" lon="14.2038007477134"><ele>410.0</ele><time>2026-05-01T09:42:55.999Z</time></trkpt><trkpt lat="42.206963588877414" lon="14.20374696431875"><ele>410.0</ele><time>2026-05-01T09:42:56.999Z</time></trkpt><trkpt lat="42.206884990540324" lon="14.203694836024868"><ele>410.0</ele><time>2026-05-01T09:42:57.999Z</time></trkpt><trkpt lat="42.20679263925307" lon="14.203632960623814"><ele>410.0</ele><time>2026-05-01T09:42:58.999Z</time></trkpt><trkpt lat="42.20670976479903" lon="14.203576116847254"><ele>410.0</ele><time>2026-05-01T09:42:59.999Z</time></trkpt><trkpt lat="42.20663257235302" lon="14.203523170395071"><ele>410.0</ele><time>2026-05-01T09:43:00.999Z</time></trkpt><trkpt lat="42.206557944296684" lon="14.20347198285711"><ele>409.66666666666663</ele><time>2026-05-01T09:43:01.999Z</time></trkpt><trkpt lat="42.2064847655056" lon="14.203421789393605"><ele>409.3333333333333</ele><time>2026-05-01T09:43:02.999Z</time></trkpt><trkpt lat="42.206405922206805" lon="14.203367710612332"><ele>409.0</ele><time>2026-05-01T09:43:03.999Z</time></trkpt><trkpt lat="42.20633131618212" lon="14.203316538191379"><ele>408.66666666666663</ele><time>2026-05-01T09:43:04.999Z</time></trkpt><trkpt lat="42.20624092494783" lon="14.203254538683113"><ele>408.3333333333333</ele><time>2026-05-01T09:43:05.999Z</time></trkpt><trkpt lat="42.20615722489104" lon="14.203197128644698"><ele>408.0</ele><time>2026-05-01T09:43:06.999Z</time></trkpt><trkpt lat="42.206067678278416" lon="14.203137806380278"><ele>409.79999999999995</ele><time>2026-05-01T09:43:07.999Z</time></trkpt><trkpt lat="42.205986135226254" lon="14.2030844105606"><ele>411.6</ele><time>2026-05-01T09:43:08.999Z</time></trkpt><trkpt lat="42.205925486422494" lon="14.203044696648284"><ele>413.4</ele><time>2026-05-01T09:43:09.999Z</time></trkpt><trkpt lat="42.20580503048327" lon="14.20296484183453"><ele>415.20000000000005</ele><time>2026-05-01T09:43:11.999Z</time></trkpt><trkpt lat="42.205712141589586" lon="14.202903070934754"><ele>417.0</ele><time>2026-05-01T09:43:12.998Z</time></trkpt><trkpt lat="42.2055895202921" lon="14.202818744470038"><ele>417.0</ele><time>2026-05-01T09:43:13.998Z</time></trkpt><trkpt lat="42.205470794879425" lon="14.202737005965831"><ele>417.0</ele><time>2026-05-01T09:43:14.998Z</time></trkpt><trkpt lat="42.2053542081942" lon="14.202661144293726"><ele>417.0</ele><time>2026-05-01T09:43:15.998Z</time></trkpt><trkpt lat="42.20523174580451" lon="14.202583124722748"><ele>417.0</ele><time>2026-05-01T09:43:16.998Z</time></trkpt><trkpt lat="42.20511331779082" lon="14.202504776274203"><ele>417.0</ele><time>2026-05-01T09:43:17.998Z</time></trkpt><trkpt lat="42.20501186622033" lon="14.20244140660666"><ele>417.0</ele><time>2026-05-01T09:43:18.998Z</time></trkpt><trkpt lat="42.20491232819353" lon="14.202382922295092"><ele>417.0</ele><time>2026-05-01T09:43:19.998Z</time></trkpt><trkpt lat="42.204822218969966" lon="14.20233128487499"><ele>417.0</ele><time>2026-05-01T09:43:20.998Z</time></trkpt><trkpt lat="42.20474251258113" lon="14.202285625122867"><ele>417.0</ele><time>2026-05-01T09:43:21.998Z</time></trkpt><trkpt lat="42.20467212970556" lon="14.202246845580166"><ele>419.0</ele><time>2026-05-01T09:43:22.998Z</time></trkpt><trkpt lat="42.20461318291367" lon="14.202214433097394"><ele>421.0</ele><time>2026-05-01T09:43:23.998Z</time></trkpt><trkpt lat="42.204530115406754" lon="14.202168757592084"><ele>423.0</ele><time>2026-05-01T09:43:24.998Z</time></trkpt><trkpt lat="42.204441553187145" lon="14.202121350586216"><ele>425.0</ele><time>2026-05-01T09:43:26Z</time></trkpt><trkpt lat="42.204351819959044" lon="14.20207457910981"><ele>427.0</ele><time>2026-05-01T09:43:27Z</time></trkpt><trkpt lat="42.204270176764375" lon="14.202032974051484"><ele>429.0</ele><time>2026-05-01T09:43:28Z</time></trkpt><trkpt lat="42.20417639983596" lon="14.201985185654221"><ele>429.0</ele><time>2026-05-01T09:43:29Z</time></trkpt><trkpt lat="42.20408849702682" lon="14.201941707078051"><ele>429.0</ele><time>2026-05-01T09:43:30Z</time></trkpt><trkpt lat="42.203990601676395" lon="14.201894713751344"><ele>429.0</ele><time>2026-05-01T09:43:31Z</time></trkpt><trkpt lat="42.203896768008846" lon="14.201851212152077"><ele>429.0</ele><time>2026-05-01T09:43:32Z</time></trkpt><trkpt lat="42.2038064023192" lon="14.201809757446265"><ele>429.0</ele><time>2026-05-01T09:43:33Z</time></trkpt><trkpt lat="42.20369737428663" lon="14.201763570842687"><ele>427.79999999999995</ele><time>2026-05-01T09:43:34Z</time></trkpt><trkpt lat="42.203597544750615" lon="14.201721860761365"><ele>426.59999999999997</ele><time>2026-05-01T09:43:35Z</time></trkpt><trkpt lat="42.2034916809577" lon="14.201680348398018"><ele>425.4</ele><time>2026-05-01T09:43:36Z</time></trkpt><trkpt lat="42.203385503779145" lon="14.201639053373984"><ele>424.2</ele><time>2026-05-01T09:43:37Z</time></trkpt><trkpt lat="42.203286215549596" lon="14.201600437658007"><ele>423.0</ele><time>2026-05-01T09:43:38Z</time></trkpt><trkpt lat="42.203201616033326" lon="14.20156753474788"><ele>423.5</ele><time>2026-05-01T09:43:39Z</time></trkpt><trkpt lat="42.203115806717385" lon="14.201534710296766"><ele>424.0</ele><time>2026-05-01T09:43:40Z</time></trkpt><trkpt lat="42.203025256726335" lon="14.201503485985123"><ele>424.5</ele><time>2026-05-01T09:43:41Z</time></trkpt><trkpt lat="42.20295276999353" lon="14.201478706149103"><ele>425.0</ele><time>2026-05-01T09:43:42Z</time></trkpt><trkpt lat="42.20286657814749" lon="14.201452091840222"><ele>425.5</ele><time>2026-05-01T09:43:43Z</time></trkpt><trkpt lat="42.20277592406772" lon="14.201423710193433"><ele>426.0</ele><time>2026-05-01T09:43:44Z</time></trkpt><trkpt lat="42.20267854733096" lon="14.201396597105347"><ele>426.0</ele><time>2026-05-01T09:43:45Z</time></trkpt><trkpt lat="42.202570964774104" lon="14.201365884022529"><ele>426.0</ele><time>2026-05-01T09:43:46Z</time></trkpt><trkpt lat="42.20245364517959" lon="14.201334360211565"><ele>426.0</ele><time>2026-05-01T09:43:47Z</time></trkpt><trkpt lat="42.202327015890845" lon="14.201304926060903"><ele>426.0</ele><time>2026-05-01T09:43:48Z</time></trkpt><trkpt lat="42.2022454805297" lon="14.201285730185395"><ele>426.0</ele><time>2026-05-01T09:43:49Z</time></trkpt><trkpt lat="42.20214627753837" lon="14.201262384713514"><ele>426.8333333333333</ele><time>2026-05-01T09:43:51Z</time></trkpt><trkpt lat="42.202056168636204" lon="14.201241357998791"><ele>427.66666666666663</ele><time>2026-05-01T09:43:52.999Z</time></trkpt><trkpt lat="42.20193645421451" lon="14.201213667432539"><ele>428.5</ele><time>2026-05-01T09:43:54.999Z</time></trkpt><trkpt lat="42.20187075074085" lon="14.201198469786032"><ele>429.3333333333333</ele><time>2026-05-01T09:43:55.999Z</time></trkpt><trkpt lat="42.2017691511808" lon="14.201176651271952"><ele>430.16666666666663</ele><time>2026-05-01T09:43:57.999Z</time></trkpt><trkpt lat="42.20170474609338" lon="14.201162980805139"><ele>431.0</ele><time>2026-05-01T09:43:59.999Z</time></trkpt><trkpt lat="42.2016273861773" lon="14.20114656061918"><ele>431.0</ele><time>2026-05-01T09:44:55.999Z</time></trkpt><trkpt lat="42.20154780567565" lon="14.20112966904268"><ele>431.0</ele><time>2026-05-01T09:44:58.999Z</time></trkpt><trkpt lat="42.2014703122041" lon="14.20111325489573"><ele>431.0</ele><time>2026-05-01T09:45:00.999Z</time></trkpt><trkpt lat="42.201401046984344" lon="14.200882304675147"><ele>431.0</ele><time>2026-05-01T09:45:02.999Z</time></trkpt><trkpt lat="42.201324377553426" lon="14.200818157004845"><ele>431.0</ele><time>2026-05-01T09:45:04.999Z</time></trkpt><trkpt lat="42.20122949680457" lon="14.200738876089153"><ele>432.3333333333333</ele><time>2026-05-01T09:45:06.999Z</time></trkpt><trkpt lat="42.20116424467845" lon="14.200703415328169"><ele>433.66666666666663</ele><time>2026-05-01T09:45:07.999Z</time></trkpt><trkpt lat="42.20109610726098" lon="14.200672455488206"><ele>435.0</ele><time>2026-05-01T09:45:08.999Z</time></trkpt><trkpt lat="42.20102171959186" lon="14.200666287794869"><ele>436.33333333333337</ele><time>2026-05-01T09:45:09.999Z</time></trkpt><trkpt lat="42.20095625282113" lon="14.200659495910504"><ele>437.6666666666667</ele><time>2026-05-01T09:45:10.999Z</time></trkpt><trkpt lat="42.20088223939511" lon="14.200644160759532"><ele>439.0</ele><time>2026-05-01T09:45:11.999Z</time></trkpt><trkpt lat="42.20079064334119" lon="14.2005286341766"><ele>440.0</ele><time>2026-05-01T09:45:13.999Z</time></trkpt><trkpt lat="42.20067769557199" lon="14.200484236837275"><ele>441.0</ele><time>2026-05-01T09:45:15.999Z</time></trkpt><trkpt lat="42.200575524507705" lon="14.20042054411499"><ele>442.0</ele><time>2026-05-01T09:45:17.999Z</time></trkpt><trkpt lat="42.2005083468241" lon="14.200432833104239"><ele>443.0</ele><time>2026-05-01T09:45:18.999Z</time></trkpt><trkpt lat="42.20044352943485" lon="14.20042556798273"><ele>444.0</ele><time>2026-05-01T09:45:19.999Z</time></trkpt><trkpt lat="42.20031697545876" lon="14.200441233985517"><ele>445.3333333333333</ele><time>2026-05-01T09:45:21.999Z</time></trkpt><trkpt lat="42.20024387739687" lon="14.20042121192191"><ele>446.66666666666663</ele><time>2026-05-01T09:45:22.999Z</time></trkpt><trkpt lat="42.20017374740786" lon="14.200387835429689"><ele>448.0</ele><time>2026-05-01T09:45:23.999Z</time></trkpt><trkpt lat="42.20011439132114" lon="14.200353846135062"><ele>449.3333333333333</ele><time>2026-05-01T09:45:24.999Z</time></trkpt><trkpt lat="42.200017035793714" lon="14.200275076362026"><ele>450.66666666666663</ele><time>2026-05-01T09:45:26.999Z</time></trkpt><trkpt lat="42.1999569505551" lon="14.200249499200181"><ele>452.0</ele><time>2026-05-01T09:45:27.999Z</time></trkpt><trkpt lat="42.19989796131633" lon="14.200193898855815"><ele>451.99999999999994</ele><time>2026-05-01T09:45:28.999Z</time></trkpt><trkpt lat="42.19983656372812" lon="14.200133780186563"><ele>452.0</ele><time>2026-05-01T09:45:29.999Z</time></trkpt><trkpt lat="42.19976785812783" lon="14.200079695939685"><ele>452.0</ele><time>2026-05-01T09:45:30.999Z</time></trkpt><trkpt lat="42.199683953957575" lon="14.20002740174202"><ele>452.0</ele><time>2026-05-01T09:45:32Z</time></trkpt><trkpt lat="42.19962160092858" lon="14.200012534145163"><ele>451.99999999999994</ele><time>2026-05-01T09:45:33Z</time></trkpt><trkpt lat="42.199551662474924" lon="14.19998354647159"><ele>452.0</ele><time>2026-05-01T09:45:34Z</time></trkpt><trkpt lat="42.19948333597566" lon="14.19994562476522"><ele>453.6</ele><time>2026-05-01T09:45:35Z</time></trkpt><trkpt lat="42.19940389443944" lon="14.199949799241836"><ele>455.20000000000005</ele><time>2026-05-01T09:45:36Z</time></trkpt><trkpt lat="42.19932778169903" lon="14.19992761878459"><ele>456.8</ele><time>2026-05-01T09:45:37Z</time></trkpt><trkpt lat="42.199226686786716" lon="14.199924127996605"><ele>458.4</ele><time>2026-05-01T09:45:38Z</time></trkpt><trkpt lat="42.19911487131999" lon="14.19994526651716"><ele>460.0</ele><time>2026-05-01T09:45:39Z</time></trkpt><trkpt lat="42.199011596946846" lon="14.199933521338968"><ele>461.6</ele><time>2026-05-01T09:45:40Z</time></trkpt><trkpt lat="42.19890105990873" lon="14.199931450137463"><ele>463.2</ele><time>2026-05-01T09:45:41Z</time></trkpt><trkpt lat="42.19881253877613" lon="14.199949844549185"><ele>464.79999999999995</ele><time>2026-05-01T09:45:42Z</time></trkpt><trkpt lat="42.198735513390815" lon="14.199936669626455"><ele>466.4</ele><time>2026-05-01T09:45:43Z</time></trkpt><trkpt lat="42.19863648734986" lon="14.19993648735888"><ele>468.0</ele><time>2026-05-01T09:45:44Z</time></trkpt><trkpt lat="42.19851972638485" lon="14.199962590117389"><ele>468.0</ele><time>2026-05-01T09:45:45Z</time></trkpt><trkpt lat="42.19843280160168" lon="14.199987704334935"><ele>468.00000000000006</ele><time>2026-05-01T09:45:46Z</time></trkpt><trkpt lat="42.19836763814707" lon="14.200003601438787"><ele>468.0</ele><time>2026-05-01T09:45:47Z</time></trkpt><trkpt lat="42.198303710954946" lon="14.200026077273181"><ele>468.0</ele><time>2026-05-01T09:46:18.999Z</time></trkpt><trkpt lat="42.198226870668684" lon="14.20002453147697"><ele>468.00000000000006</ele><time>2026-05-01T09:46:20.999Z</time></trkpt><trkpt lat="42.19816094263074" lon="14.200037902892621"><ele>468.0</ele><time>2026-05-01T09:46:21.999Z</time></trkpt><trkpt lat="42.19808094181301" lon="14.200046863162143"><ele>468.0</ele><time>2026-05-01T09:46:22.999Z</time></trkpt><trkpt lat="42.19800833447248" lon="14.200038815266463"><ele>468.7142857142857</ele><time>2026-05-01T09:46:23.999Z</time></trkpt><trkpt lat="42.19793878512985" lon="14.200025046898128"><ele>469.42857142857144</ele><time>2026-05-01T09:46:24.999Z</time></trkpt><trkpt lat="42.19787087008567" lon="14.20003340993501"><ele>470.14285714285717</ele><time>2026-05-01T09:46:25.999Z</time></trkpt><trkpt lat="42.19780284936214" lon="14.200018654077873"><ele>470.8571428571429</ele><time>2026-05-01T09:46:26.999Z</time></trkpt><trkpt lat="42.1977378672009" lon="14.199989319163038"><ele>471.57142857142856</ele><time>2026-05-01T09:46:27.999Z</time></trkpt><trkpt lat="42.197661785584266" lon="14.199984365563354"><ele>472.28571428571433</ele><time>2026-05-01T09:46:28.999Z</time></trkpt><trkpt lat="42.19757827751362" lon="14.19999690535836"><ele>473.0</ele><time>2026-05-01T09:46:29.999Z</time></trkpt><trkpt lat="42.19751082207141" lon="14.200009296494045"><ele>473.0</ele><time>2026-05-01T09:46:30.999Z</time></trkpt><trkpt lat="42.19744703532994" lon="14.200017967538894"><ele>473.0</ele><time>2026-05-01T09:46:32.999Z</time></trkpt><trkpt lat="42.197170950698364" lon="14.199660890391732"><ele>473.0</ele><time>2026-05-01T09:46:36.999Z</time></trkpt><trkpt lat="42.19720579834836" lon="14.199572209427888"><ele>473.99999999999994</ele><time>2026-05-01T09:46:37.999Z</time></trkpt><trkpt lat="42.19723162232569" lon="14.199484955946746"><ele>475.0</ele><time>2026-05-01T09:46:38.999Z</time></trkpt><trkpt lat="42.19726468450456" lon="14.199380083403868"><ele>476.0</ele><time>2026-05-01T09:46:39.999Z</time></trkpt><trkpt lat="42.197305090358626" lon="14.199272080661629"><ele>477.0</ele><time>2026-05-01T09:46:40.999Z</time></trkpt><trkpt lat="42.19735506439661" lon="14.199152300607299"><ele>477.99999999999994</ele><time>2026-05-01T09:46:42.999Z</time></trkpt><trkpt lat="42.197377559543156" lon="14.199046949367787"><ele>479.0</ele><time>2026-05-01T09:46:45.999Z</time></trkpt><trkpt lat="42.19735249498072" lon="14.198968673649395"><ele>480.2</ele><time>2026-05-01T09:46:46.999Z</time></trkpt><trkpt lat="42.1973114642069" lon="14.198889598550243"><ele>481.4</ele><time>2026-05-01T09:46:47.999Z</time></trkpt><trkpt lat="42.19722311218298" lon="14.198760342888185"><ele>482.6</ele><time>2026-05-01T09:46:49.999Z</time></trkpt><trkpt lat="42.19714595710793" lon="14.198650766056726"><ele>483.8</ele><time>2026-05-01T09:46:51.999Z</time></trkpt><trkpt lat="42.19711030074953" lon="14.198550626735983"><ele>485.0</ele><time>2026-05-01T09:46:53.999Z</time></trkpt><trkpt lat="42.19717448548276" lon="14.198414363118696"><ele>485.0</ele><time>2026-05-01T09:46:55.999Z</time></trkpt><trkpt lat="42.19724839115875" lon="14.198310393489153"><ele>485.0</ele><time>2026-05-01T09:46:58.999Z</time></trkpt><trkpt lat="42.197324402596884" lon="14.198203462190168"><ele>485.0</ele><time>2026-05-01T09:47:00.999Z</time></trkpt><trkpt lat="42.19748272060631" lon="14.198244383372487"><ele>485.0</ele><time>2026-05-01T09:47:01.999Z</time></trkpt><trkpt lat="42.19753558280777" lon="14.198155646141542"><ele>484.66666666666663</ele><time>2026-05-01T09:47:02.999Z</time></trkpt><trkpt lat="42.197588714404404" lon="14.198059128922685"><ele>484.3333333333333</ele><time>2026-05-01T09:47:03.999Z</time></trkpt><trkpt lat="42.197637647185815" lon="14.197951932004639"><ele>484.0</ele><time>2026-05-01T09:47:04.999Z</time></trkpt><trkpt lat="42.19767952817161" lon="14.197864805945938"><ele>483.66666666666663</ele><time>2026-05-01T09:47:05.999Z</time></trkpt><trkpt lat="42.197729619753574" lon="14.19778188228085"><ele>483.3333333333333</ele><time>2026-05-01T09:47:07.999Z</time></trkpt><trkpt lat="42.197678509258" lon="14.197683751178728"><ele>483.0</ele><time>2026-05-01T09:47:10.999Z</time></trkpt><trkpt lat="42.197629490281" lon="14.19762456527125"><ele>483.0</ele><time>2026-05-01T09:47:11.999Z</time></trkpt><trkpt lat="42.19752918191053" lon="14.19748155772194"><ele>483.0</ele><time>2026-05-01T09:47:13.999Z</time></trkpt><trkpt lat="42.19745523997177" lon="14.197381677210927"><ele>483.0</ele><time>2026-05-01T09:47:14.999Z</time></trkpt><trkpt lat="42.19734939402677" lon="14.197273835725426"><ele>483.0</ele><time>2026-05-01T09:47:15.999Z</time></trkpt><trkpt lat="42.197265226484944" lon="14.197141734537492"><ele>485.0</ele><time>2026-05-01T09:47:16.999Z</time></trkpt><trkpt lat="42.19716928119596" lon="14.197099519815232"><ele>486.99999999999994</ele><time>2026-05-01T09:47:17.999Z</time></trkpt><trkpt lat="42.19704226216651" lon="14.197018048230108"><ele>488.99999999999994</ele><time>2026-05-01T09:47:18.999Z</time></trkpt><trkpt lat="42.196989259229724" lon="14.196970548012564"><ele>491.0</ele><time>2026-05-01T09:47:19.999Z</time></trkpt><trkpt lat="42.196932242246255" lon="14.196915044500415"><ele>493.0</ele><time>2026-05-01T09:47:20.999Z</time></trkpt><trkpt lat="42.196953912634314" lon="14.196765097903683"><ele>493.00000000000006</ele><time>2026-05-01T09:47:22.999Z</time></trkpt><trkpt lat="42.19695857089936" lon="14.19667220883091"><ele>493.0</ele><time>2026-05-01T09:47:23.999Z</time></trkpt><trkpt lat="42.196920486846366" lon="14.196583561825562"><ele>493.0</ele><time>2026-05-01T09:47:24.999Z</time></trkpt><trkpt lat="42.196849146768166" lon="14.196503515770914"><ele>493.0</ele><time>2026-05-01T09:47:25.999Z</time></trkpt><trkpt lat="42.19676710792873" lon="14.196401817307532"><ele>493.00000000000006</ele><time>2026-05-01T09:47:26.999Z</time></trkpt><trkpt lat="42.19670348260076" lon="14.196308256493328"><ele>493.0</ele><time>2026-05-01T09:47:27.999Z</time></trkpt><trkpt lat="42.196670381167046" lon="14.196206858376256"><ele>493.4</ele><time>2026-05-01T09:47:28.999Z</time></trkpt><trkpt lat="42.19665935821924" lon="14.19610036080875"><ele>493.79999999999995</ele><time>2026-05-01T09:47:29.999Z</time></trkpt><trkpt lat="42.19659953479327" lon="14.195965134749631"><ele>494.2</ele><time>2026-05-01T09:47:31.999Z</time></trkpt><trkpt lat="42.196496057926716" lon="14.19589620299425"><ele>494.6</ele><time>2026-05-01T09:47:32.999Z</time></trkpt><trkpt lat="42.196393463771386" lon="14.195781670418985"><ele>495.0</ele><time>2026-05-01T09:47:33.999Z</time></trkpt><trkpt lat="42.196310316575286" lon="14.1956458766587"><ele>496.2</ele><time>2026-05-01T09:47:34.999Z</time></trkpt><trkpt lat="42.19623533679004" lon="14.195541922550941"><ele>497.4</ele><time>2026-05-01T09:47:35.999Z</time></trkpt><trkpt lat="42.19617292587729" lon="14.19545100502002"><ele>498.6</ele><time>2026-05-01T09:47:36.999Z</time></trkpt><trkpt lat="42.196111476399224" lon="14.195387079438749"><ele>499.8</ele><time>2026-05-01T09:47:38Z</time></trkpt><trkpt lat="42.196028965834614" lon="14.19530465169841"><ele>501.0</ele><time>2026-05-01T09:47:39Z</time></trkpt><trkpt lat="42.19592916309413" lon="14.195225414452107"><ele>501.0</ele><time>2026-05-01T09:47:40Z</time></trkpt><trkpt lat="42.19583817376625" lon="14.195169969208294"><ele>501.0</ele><time>2026-05-01T09:47:41Z</time></trkpt><trkpt lat="42.19578532731589" lon="14.19511607204711"><ele>501.0</ele><time>2026-05-01T09:47:42Z</time></trkpt><trkpt lat="42.19570546137262" lon="14.195028079925953"><ele>501.0</ele><time>2026-05-01T09:47:44Z</time></trkpt><trkpt lat="42.19562353020083" lon="14.194967467327265"><ele>501.0</ele><time>2026-05-01T09:47:46Z</time></trkpt><trkpt lat="42.195513765984145" lon="14.194876746360087"><ele>503.20000000000005</ele><time>2026-05-01T09:47:47Z</time></trkpt><trkpt lat="42.195459802672566" lon="14.194734077041122"><ele>505.40000000000003</ele><time>2026-05-01T09:47:48Z</time></trkpt><trkpt lat="42.195385774287566" lon="14.194649532241797"><ele>507.6</ele><time>2026-05-01T09:47:49Z</time></trkpt><trkpt lat="42.19532966075089" lon="14.194596315186054"><ele>509.8</ele><time>2026-05-01T09:47:50Z</time></trkpt><trkpt lat="42.195303309109406" lon="14.194481179712517"><ele>512.0</ele><time>2026-05-01T09:47:52Z</time></trkpt><trkpt lat="42.19528360473161" lon="14.194336540744887"><ele>511.99999999999994</ele><time>2026-05-01T09:47:54Z</time></trkpt><trkpt lat="42.19520912979093" lon="14.19426599360024"><ele>512.0</ele><time>2026-05-01T09:47:55Z</time></trkpt><trkpt lat="42.19513511889345" lon="14.194205328644856"><ele>512.0</ele><time>2026-05-01T09:47:56Z</time></trkpt><trkpt lat="42.195052697687984" lon="14.19417771945891"><ele>512.0</ele><time>2026-05-01T09:47:57Z</time></trkpt><trkpt lat="42.19497339300518" lon="14.194174280651874"><ele>511.99999999999994</ele><time>2026-05-01T09:47:58Z</time></trkpt><trkpt lat="42.19489862483597" lon="14.194204127630309"><ele>512.0</ele><time>2026-05-01T09:47:59Z</time></trkpt><trkpt lat="42.194781726053606" lon="14.194127139335972"><ele>512.8000000000001</ele><time>2026-05-01T09:48:01Z</time></trkpt><trkpt lat="42.194726904885584" lon="14.194056696008651"><ele>513.6</ele><time>2026-05-01T09:48:02Z</time></trkpt><trkpt lat="42.19467307913719" lon="14.193988604933962"><ele>514.4000000000001</ele><time>2026-05-01T09:48:03Z</time></trkpt><trkpt lat="42.19466077328444" lon="14.19385403540436"><ele>515.2</ele><time>2026-05-01T09:48:04Z</time></trkpt><trkpt lat="42.19470800978646" lon="14.193730596210289"><ele>516.0</ele><time>2026-05-01T09:48:05Z</time></trkpt><trkpt lat="42.19476784578426" lon="14.193617033331188"><ele>516.8</ele><time>2026-05-01T09:48:06Z</time></trkpt><trkpt lat="42.194830237216365" lon="14.193484471871315"><ele>517.6</ele><time>2026-05-01T09:48:07Z</time></trkpt><trkpt lat="42.19486088094428" lon="14.193389843079004"><ele>518.4</ele><time>2026-05-01T09:48:08Z</time></trkpt><trkpt lat="42.19483803106047" lon="14.193226897415085"><ele>519.2</ele><time>2026-05-01T09:48:10Z</time></trkpt><trkpt lat="42.19480116677986" lon="14.193076908850717"><ele>520.0</ele><time>2026-05-01T09:48:11Z</time></trkpt><trkpt lat="42.19474875137281" lon="14.192937473133632"><ele>521.0</ele><time>2026-05-01T09:48:12Z</time></trkpt><trkpt lat="42.19470964305553" lon="14.192835726596153"><ele>522.0</ele><time>2026-05-01T09:48:13Z</time></trkpt><trkpt lat="42.1946855326626" lon="14.192745733715157"><ele>523.0</ele><time>2026-05-01T09:48:14Z</time></trkpt><trkpt lat="42.194677415557656" lon="14.192645423405164"><ele>524.0</ele><time>2026-05-01T09:48:15Z</time></trkpt><trkpt lat="42.19468455480486" lon="14.192517958146592"><ele>525.0</ele><time>2026-05-01T09:48:16Z</time></trkpt><trkpt lat="42.1946298010554" lon="14.192431812861969"><ele>526.0</ele><time>2026-05-01T09:48:17Z</time></trkpt><trkpt lat="42.19455997989265" lon="14.192353164851811"><ele>524.8</ele><time>2026-05-01T09:48:18Z</time></trkpt><trkpt lat="42.194471273903986" lon="14.192264684595921"><ele>523.6</ele><time>2026-05-01T09:48:19Z</time></trkpt><trkpt lat="42.19439182389952" lon="14.192193260359062"><ele>522.4</ele><time>2026-05-01T09:48:20Z</time></trkpt><trkpt lat="42.19430439399947" lon="14.19213528464975"><ele>521.2</ele><time>2026-05-01T09:48:21Z</time></trkpt><trkpt lat="42.19420836478019" lon="14.1921100478844"><ele>520.0</ele><time>2026-05-01T09:48:22Z</time></trkpt><trkpt lat="42.19413004391646" lon="14.192141389309736"><ele>520.0</ele><time>2026-05-01T09:48:23Z</time></trkpt><trkpt lat="42.194038635123306" lon="14.19213090217983"><ele>520.0</ele><time>2026-05-01T09:48:25Z</time></trkpt><trkpt lat="42.1940252437907" lon="14.192017496399306"><ele>520.0</ele><time>2026-05-01T09:48:26Z</time></trkpt><trkpt lat="42.19397239362305" lon="14.19193758359353"><ele>520.0</ele><time>2026-05-01T09:48:27Z</time></trkpt><trkpt lat="42.19390800607014" lon="14.191944390220067"><ele>520.0</ele><time>2026-05-01T09:48:28Z</time></trkpt><trkpt lat="42.19380508174638" lon="14.191972559093632"><ele>520.0</ele><time>2026-05-01T09:48:29Z</time></trkpt><trkpt lat="42.19370362324278" lon="14.192022506793439"><ele>522.0</ele><time>2026-05-01T09:48:30Z</time></trkpt><trkpt lat="42.19362008510611" lon="14.19202673913875"><ele>524.0</ele><time>2026-05-01T09:48:31.999Z</time></trkpt><trkpt lat="42.193568909795204" lon="14.191877769146028"><ele>526.0</ele><time>2026-05-01T09:48:33.999Z</time></trkpt><trkpt lat="42.19353683137956" lon="14.191771470395691"><ele>528.0</ele><time>2026-05-01T09:48:34.999Z</time></trkpt><trkpt lat="42.1934851901235" lon="14.191669986799592"><ele>530.0</ele><time>2026-05-01T09:48:35.999Z</time></trkpt><trkpt lat="42.19340520028795" lon="14.191563452383829"><ele>529.2</ele><time>2026-05-01T09:48:36.999Z</time></trkpt><trkpt lat="42.19333808658331" lon="14.191429868895115"><ele>528.4</ele><time>2026-05-01T09:48:37.999Z</time></trkpt><trkpt lat="42.19327882063023" lon="14.191308526053751"><ele>527.6</ele><time>2026-05-01T09:48:38.999Z</time></trkpt><trkpt lat="42.19320408711529" lon="14.191252850075088"><ele>526.8</ele><time>2026-05-01T09:48:39.999Z</time></trkpt><trkpt lat="42.19311448994754" lon="14.191223086358344"><ele>526.0</ele><time>2026-05-01T09:48:40.999Z</time></trkpt><trkpt lat="42.19300598489461" lon="14.191196343562295"><ele>528.0</ele><time>2026-05-01T09:48:41.999Z</time></trkpt><trkpt lat="42.19290368555666" lon="14.191148237102068"><ele>530.0</ele><time>2026-05-01T09:48:42.999Z</time></trkpt><trkpt lat="42.192810559367445" lon="14.191095623061281"><ele>532.0</ele><time>2026-05-01T09:48:43.999Z</time></trkpt><trkpt lat="42.192700963692836" lon="14.191065000000094"><ele>534.0</ele><time>2026-05-01T09:48:44.999Z</time></trkpt><trkpt lat="42.1926164715647" lon="14.191027654775077"><ele>536.0</ele><time>2026-05-01T09:48:45.999Z</time></trkpt><trkpt lat="42.19251081771869" lon="14.190973035474181"><ele>536.0</ele><time>2026-05-01T09:48:46.999Z</time></trkpt><trkpt lat="42.192413335321014" lon="14.190923388326533"><ele>536.0</ele><time>2026-05-01T09:48:47.999Z</time></trkpt><trkpt lat="42.192345879058266" lon="14.19089389361721"><ele>536.0</ele><time>2026-05-01T09:48:48.999Z</time></trkpt><trkpt lat="42.19227191689105" lon="14.190864637139804"><ele>536.0</ele><time>2026-05-01T09:48:49.999Z</time></trkpt><trkpt lat="42.19219088365782" lon="14.190846713295013"><ele>536.0</ele><time>2026-05-01T09:48:50.999Z</time></trkpt><trkpt lat="42.19210364709518" lon="14.190824257169991"><ele>536.0</ele><time>2026-05-01T09:48:51.999Z</time></trkpt><trkpt lat="42.1919899607435" lon="14.190800604818401"><ele>537.4</ele><time>2026-05-01T09:48:52.999Z</time></trkpt><trkpt lat="42.19190446850469" lon="14.190792549121984"><ele>538.8</ele><time>2026-05-01T09:48:53.999Z</time></trkpt><trkpt lat="42.191819277457085" lon="14.190795827795323"><ele>540.1999999999999</ele><time>2026-05-01T09:48:54.999Z</time></trkpt><trkpt lat="42.19173953895098" lon="14.190782618940895"><ele>541.6</ele><time>2026-05-01T09:48:55.999Z</time></trkpt><trkpt lat="42.19165240681183" lon="14.190709740803788"><ele>543.0</ele><time>2026-05-01T09:48:56.999Z</time></trkpt><trkpt lat="42.19156185464967" lon="14.19062119983682"><ele>545.0</ele><time>2026-05-01T09:48:57.999Z</time></trkpt><trkpt lat="42.19145744688646" lon="14.190521037416099"><ele>547.0</ele><time>2026-05-01T09:48:58.999Z</time></trkpt><trkpt lat="42.19137534671195" lon="14.190407106574233"><ele>549.0</ele><time>2026-05-01T09:48:59.999Z</time></trkpt><trkpt lat="42.191300664200845" lon="14.190315822434101"><ele>551.0</ele><time>2026-05-01T09:49:00.999Z</time></trkpt><trkpt lat="42.19123989620849" lon="14.190209499973003"><ele>553.0</ele><time>2026-05-01T09:49:01.999Z</time></trkpt><trkpt lat="42.19118272413479" lon="14.190106769277056"><ele>553.0</ele><time>2026-05-01T09:49:02.999Z</time></trkpt><trkpt lat="42.19113876419073" lon="14.190035697367323"><ele>553.0</ele><time>2026-05-01T09:49:03.999Z</time></trkpt><trkpt lat="42.191081614910495" lon="14.189975559293327"><ele>553.0</ele><time>2026-05-01T09:49:04.999Z</time></trkpt><trkpt lat="42.191004544716435" lon="14.189935043473477"><ele>553.0</ele><time>2026-05-01T09:49:05.999Z</time></trkpt><trkpt lat="42.19094602684945" lon="14.189880764399877"><ele>553.0</ele><time>2026-05-01T09:49:06.999Z</time></trkpt><trkpt lat="42.19087051439349" lon="14.189774984963849"><ele>553.0</ele><time>2026-05-01T09:49:07.999Z</time></trkpt><trkpt lat="42.1907772266779" lon="14.189665335543564"><ele>552.6666666666667</ele><time>2026-05-01T09:49:08.999Z</time></trkpt><trkpt lat="42.19069940096543" lon="14.189581133569725"><ele>552.3333333333334</ele><time>2026-05-01T09:49:09.999Z</time></trkpt><trkpt lat="42.1906356437704" lon="14.189477236752905"><ele>552.0</ele><time>2026-05-01T09:49:10.999Z</time></trkpt><trkpt lat="42.19058195019608" lon="14.189411723011276"><ele>551.6666666666666</ele><time>2026-05-01T09:49:11.999Z</time></trkpt><trkpt lat="42.190516178189206" lon="14.189382124745912"><ele>551.3333333333333</ele><time>2026-05-01T09:49:12.999Z</time></trkpt><trkpt lat="42.19041614450829" lon="14.18936896596565"><ele>551.0</ele><time>2026-05-01T09:49:13.999Z</time></trkpt><trkpt lat="42.190354777281016" lon="14.189320680434184"><ele>553.0</ele><time>2026-05-01T09:49:14.999Z</time></trkpt><trkpt lat="42.1903063169199" lon="14.189235385372303"><ele>555.0</ele><time>2026-05-01T09:49:15.999Z</time></trkpt><trkpt lat="42.190270086465084" lon="14.18911495058472"><ele>557.0</ele><time>2026-05-01T09:49:16.999Z</time></trkpt><trkpt lat="42.19023345235819" lon="14.188973938469532"><ele>559.0</ele><time>2026-05-01T09:49:17.999Z</time></trkpt><trkpt lat="42.190176821627894" lon="14.188827863457881"><ele>561.0</ele><time>2026-05-01T09:49:18.999Z</time></trkpt><trkpt lat="42.190102149236495" lon="14.188691551438257"><ele>561.4</ele><time>2026-05-01T09:49:19.999Z</time></trkpt><trkpt lat="42.19003448082329" lon="14.18857467157575"><ele>561.8</ele><time>2026-05-01T09:49:20.999Z</time></trkpt><trkpt lat="42.189971487494674" lon="14.188470398665167"><ele>562.1999999999999</ele><time>2026-05-01T09:49:21.999Z</time></trkpt><trkpt lat="42.18993166198577" lon="14.188395604271651"><ele>562.6</ele><time>2026-05-01T09:49:22.999Z</time></trkpt><trkpt lat="42.189932903118866" lon="14.188294364329955"><ele>563.0</ele><time>2026-05-01T09:49:23.999Z</time></trkpt><trkpt lat="42.18992976006741" lon="14.188126374826005"><ele>564.0</ele><time>2026-05-01T09:49:24.999Z</time></trkpt><trkpt lat="42.18988326908186" lon="14.187947780804112"><ele>565.0</ele><time>2026-05-01T09:49:25.999Z</time></trkpt><trkpt lat="42.189805807744285" lon="14.187798838200642"><ele>566.0</ele><time>2026-05-01T09:49:26.999Z</time></trkpt><trkpt lat="42.189755452603514" lon="14.18770547839624"><ele>567.0</ele><time>2026-05-01T09:49:27.999Z</time></trkpt><trkpt lat="42.18967458298672" lon="14.187592302187035"><ele>569.2</ele><time>2026-05-01T09:49:29.999Z</time></trkpt><trkpt lat="42.1896140606893" lon="14.187448742591778"><ele>571.4000000000001</ele><time>2026-05-01T09:49:30.999Z</time></trkpt><trkpt lat="42.18957474653922" lon="14.187300833713469"><ele>573.5999999999999</ele><time>2026-05-01T09:49:31.999Z</time></trkpt><trkpt lat="42.189545065700955" lon="14.187172755256094"><ele>575.8</ele><time>2026-05-01T09:49:32.999Z</time></trkpt><trkpt lat="42.189516378457114" lon="14.187045498029946"><ele>578.0</ele><time>2026-05-01T09:49:33.999Z</time></trkpt><trkpt lat="42.18948354508769" lon="14.186950497100643"><ele>578.0</ele><time>2026-05-01T09:49:34.999Z</time></trkpt><trkpt lat="42.189397850953675" lon="14.186844670349448"><ele>578.0</ele><time>2026-05-01T09:49:36.999Z</time></trkpt><trkpt lat="42.189331428526216" lon="14.186818141111836"><ele>578.0</ele><time>2026-05-01T09:49:37.999Z</time></trkpt><trkpt lat="42.18918904257288" lon="14.18690659332897"><ele>578.0</ele><time>2026-05-01T09:49:39.999Z</time></trkpt><trkpt lat="42.18907827181203" lon="14.186970914561925"><ele>579.3333333333333</ele><time>2026-05-01T09:49:40.999Z</time></trkpt><trkpt lat="42.18897861587326" lon="14.18699455318673"><ele>580.6666666666666</ele><time>2026-05-01T09:49:41.999Z</time></trkpt><trkpt lat="42.188891626452126" lon="14.186982602098682"><ele>582.0</ele><time>2026-05-01T09:49:42.999Z</time></trkpt><trkpt lat="42.18880310632702" lon="14.186940780271602"><ele>583.3333333333334</ele><time>2026-05-01T09:49:44Z</time></trkpt><trkpt lat="42.188728163342816" lon="14.186900379800672"><ele>584.6666666666667</ele><time>2026-05-01T09:49:45Z</time></trkpt><trkpt lat="42.188666289079436" lon="14.186855993236946"><ele>586.0</ele><time>2026-05-01T09:49:46Z</time></trkpt><trkpt lat="42.18855356135387" lon="14.186837173111314"><ele>586.0</ele><time>2026-05-01T09:49:48Z</time></trkpt><trkpt lat="42.18846244444374" lon="14.18691439201664"><ele>586.0</ele><time>2026-05-01T09:49:51Z</time></trkpt><trkpt lat="42.188358444274655" lon="14.186933419255178"><ele>586.0</ele><time>2026-05-01T09:49:55Z</time></trkpt><trkpt lat="42.18829660600697" lon="14.186969327496605"><ele>586.0</ele><time>2026-05-01T09:49:56Z</time></trkpt><trkpt lat="42.18824119481516" lon="14.187010284319083"><ele>586.0</ele><time>2026-05-01T09:49:57Z</time></trkpt><trkpt lat="42.18816249467621" lon="14.187052303356213"><ele>586.0</ele><time>2026-05-01T09:49:59Z</time></trkpt><trkpt lat="42.18804885991953" lon="14.18713562979555"><ele>588.6666666666667</ele><time>2026-05-01T09:50:01Z</time></trkpt><trkpt lat="42.18787097576209" lon="14.18684581247054"><ele>591.3333333333334</ele><time>2026-05-01T09:50:07Z</time></trkpt><trkpt lat="42.18778667126349" lon="14.186734533664493"><ele>594.0</ele><time>2026-05-01T09:50:08Z</time></trkpt><trkpt lat="42.18770811508293" lon="14.186643323079057"><ele>594.0</ele><time>2026-05-01T09:50:09Z</time></trkpt><trkpt lat="42.18765524070477" lon="14.186553969091717"><ele>594.0</ele><time>2026-05-01T09:50:10Z</time></trkpt><trkpt lat="42.18761571100393" lon="14.186451859367923"><ele>594.0</ele><time>2026-05-01T09:50:11Z</time></trkpt><trkpt lat="42.18759030780458" lon="14.186351944788147"><ele>594.0</ele><time>2026-05-01T09:50:12Z</time></trkpt><trkpt lat="42.1875417808931" lon="14.18625559464246"><ele>594.0</ele><time>2026-05-01T09:50:13Z</time></trkpt><trkpt lat="42.18747688454353" lon="14.1861601029785"><ele>594.0</ele><time>2026-05-01T09:50:14Z</time></trkpt><trkpt lat="42.18739327435297" lon="14.186075430636567"><ele>596.2</ele><time>2026-05-01T09:50:15Z</time></trkpt><trkpt lat="42.18731130722879" lon="14.185984213183232"><ele>598.4</ele><time>2026-05-01T09:50:16Z</time></trkpt><trkpt lat="42.187244632204276" lon="14.185889077281518"><ele>600.6</ele><time>2026-05-01T09:50:17Z</time></trkpt><trkpt lat="42.18717112552534" lon="14.18582152159024"><ele>602.8</ele><time>2026-05-01T09:50:18Z</time></trkpt><trkpt lat="42.187093774936294" lon="14.185753202107472"><ele>605.0</ele><time>2026-05-01T09:50:19Z</time></trkpt><trkpt lat="42.18702803801897" lon="14.185650262324371"><ele>605.0</ele><time>2026-05-01T09:50:20Z</time></trkpt><trkpt lat="42.18693788809927" lon="14.185529869649288"><ele>605.0</ele><time>2026-05-01T09:50:21Z</time></trkpt><trkpt lat="42.186847904372584" lon="14.185411982440547"><ele>605.0</ele><time>2026-05-01T09:50:22Z</time></trkpt><trkpt lat="42.18677821537267" lon="14.185313343956663"><ele>605.0</ele><time>2026-05-01T09:50:23Z</time></trkpt><trkpt lat="42.186716220561635" lon="14.185221229376465"><ele>605.0</ele><time>2026-05-01T09:50:24Z</time></trkpt><trkpt lat="42.18665248059766" lon="14.185112642190756"><ele>605.0</ele><time>2026-05-01T09:50:25Z</time></trkpt><trkpt lat="42.18658074502414" lon="14.184979479608485"><ele>605.0</ele><time>2026-05-01T09:50:26Z</time></trkpt><trkpt lat="42.18649730744488" lon="14.184855028388347"><ele>605.0</ele><time>2026-05-01T09:50:27Z</time></trkpt><trkpt lat="42.186402753739344" lon="14.184713857159931"><ele>605.0</ele><time>2026-05-01T09:50:28Z</time></trkpt><trkpt lat="42.18632259042722" lon="14.18457635143254"><ele>607.3333333333333</ele><time>2026-05-01T09:50:29Z</time></trkpt><trkpt lat="42.18626694988413" lon="14.184494571185954"><ele>609.6666666666666</ele><time>2026-05-01T09:50:30Z</time></trkpt><trkpt lat="42.18619722354518" lon="14.184389689872578"><ele>612.0</ele><time>2026-05-01T09:50:32Z</time></trkpt><trkpt lat="42.18614736159797" lon="14.184310217831653"><ele>614.3333333333334</ele><time>2026-05-01T09:50:34Z</time></trkpt><trkpt lat="42.186118528736216" lon="14.184217389327223"><ele>616.6666666666667</ele><time>2026-05-01T09:50:35Z</time></trkpt><trkpt lat="42.186069153972575" lon="14.18412301873109"><ele>619.0</ele><time>2026-05-01T09:50:36Z</time></trkpt><trkpt lat="42.18599657352871" lon="14.184052310169733"><ele>619.1666666666667</ele><time>2026-05-01T09:50:37Z</time></trkpt><trkpt lat="42.18593470126241" lon="14.183976877628536"><ele>619.3333333333334</ele><time>2026-05-01T09:50:38Z</time></trkpt><trkpt lat="42.18588366460871" lon="14.183906655036228"><ele>619.5</ele><time>2026-05-01T09:50:39Z</time></trkpt><trkpt lat="42.18577695739204" lon="14.183911551069603"><ele>619.6666666666666</ele><time>2026-05-01T09:50:41Z</time></trkpt><trkpt lat="42.185723631368184" lon="14.18396995285382"><ele>619.8333333333333</ele><time>2026-05-01T09:50:42Z</time></trkpt><trkpt lat="42.18565984184691" lon="14.184035135616783"><ele>620.0</ele><time>2026-05-01T09:50:43Z</time></trkpt><trkpt lat="42.18557241002996" lon="14.184086940248974"><ele>621.2</ele><time>2026-05-01T09:50:44Z</time></trkpt><trkpt lat="42.18550911351088" lon="14.18408198910603"><ele>622.4</ele><time>2026-05-01T09:50:45Z</time></trkpt><trkpt lat="42.185434975952454" lon="14.183940566487104"><ele>623.6</ele><time>2026-05-01T09:50:46.999Z</time></trkpt><trkpt lat="42.18534646638647" lon="14.183822192078624"><ele>624.8</ele><time>2026-05-01T09:50:48.999Z</time></trkpt><trkpt lat="42.18525155067064" lon="14.18376659637138"><ele>626.0</ele><time>2026-05-01T09:50:49.999Z</time></trkpt><trkpt lat="42.185190174004795" lon="14.183729069073193"><ele>626.5</ele><time>2026-05-01T09:50:50.999Z</time></trkpt><trkpt lat="42.18516678624417" lon="14.18349769374344"><ele>627.0</ele><time>2026-05-01T09:50:52.999Z</time></trkpt><trkpt lat="42.18514505421067" lon="14.183364071112747"><ele>627.5</ele><time>2026-05-01T09:50:53.999Z</time></trkpt><trkpt lat="42.18519628370132" lon="14.183270923795321"><ele>628.0</ele><time>2026-05-01T09:50:54.999Z</time></trkpt><trkpt lat="42.18526382975782" lon="14.183101715714175"><ele>628.25</ele><time>2026-05-01T09:50:55.999Z</time></trkpt><trkpt lat="42.18530601477108" lon="14.182907548327858"><ele>628.5</ele><time>2026-05-01T09:50:56.999Z</time></trkpt><trkpt lat="42.185324940099065" lon="14.182713274102804"><ele>628.75</ele><time>2026-05-01T09:50:57.999Z</time></trkpt><trkpt lat="42.185339567260606" lon="14.182519868953602"><ele>629.0</ele><time>2026-05-01T09:50:58.999Z</time></trkpt><trkpt lat="42.18537023612905" lon="14.182349248886055"><ele>629.4</ele><time>2026-05-01T09:50:59.999Z</time></trkpt><trkpt lat="42.1853828898937" lon="14.182191845402219"><ele>629.8</ele><time>2026-05-01T09:51:00.999Z</time></trkpt><trkpt lat="42.185389083396124" lon="14.182051909720455"><ele>630.2</ele><time>2026-05-01T09:51:01.999Z</time></trkpt><trkpt lat="42.18538422314679" lon="14.181931097560966"><ele>630.6</ele><time>2026-05-01T09:51:02.999Z</time></trkpt><trkpt lat="42.185359959345654" lon="14.181851379251524"><ele>631.0</ele><time>2026-05-01T09:51:03.999Z</time></trkpt><trkpt lat="42.18527228795637" lon="14.18185404249619"><ele>631.0</ele><time>2026-05-01T09:51:05.999Z</time></trkpt><trkpt lat="42.18519085180167" lon="14.181846778460816"><ele>631.0</ele><time>2026-05-01T09:51:06.999Z</time></trkpt><trkpt lat="42.185086554597326" lon="14.181827732096957"><ele>631.0</ele><time>2026-05-01T09:51:07.999Z</time></trkpt><trkpt lat="42.18499498904078" lon="14.181818549928545"><ele>631.0</ele><time>2026-05-01T09:51:08.999Z</time></trkpt><trkpt lat="42.18491978297985" lon="14.18178081487905"><ele>631.0</ele><time>2026-05-01T09:51:09.999Z</time></trkpt><trkpt lat="42.18494901297286" lon="14.18161430379734"><ele>632.2</ele><time>2026-05-01T09:51:13.999Z</time></trkpt><trkpt lat="42.18497741867744" lon="14.181480674291137"><ele>633.4000000000001</ele><time>2026-05-01T09:51:14.999Z</time></trkpt><trkpt lat="42.18499251226918" lon="14.181324980758273"><ele>634.6</ele><time>2026-05-01T09:51:15.999Z</time></trkpt><trkpt lat="42.18498515227988" lon="14.18120495282262"><ele>635.8000000000001</ele><time>2026-05-01T09:51:16.999Z</time></trkpt><trkpt lat="42.18495305561342" lon="14.181114849496838"><ele>637.0</ele><time>2026-05-01T09:51:17.999Z</time></trkpt><trkpt lat="42.18490192055819" lon="14.181033059049826"><ele>637.0</ele><time>2026-05-01T09:51:18.999Z</time></trkpt><trkpt lat="42.184849868953485" lon="14.180951926634684"><ele>637.0</ele><time>2026-05-01T09:51:19.999Z</time></trkpt><trkpt lat="42.18480662377719" lon="14.180882382662647"><ele>637.0</ele><time>2026-05-01T09:51:20.999Z</time></trkpt><trkpt lat="42.184721799040226" lon="14.180801947571943"><ele>637.0</ele><time>2026-05-01T09:51:22.999Z</time></trkpt><trkpt lat="42.18466306258374" lon="14.1807531698186"><ele>637.0</ele><time>2026-05-01T09:51:23.999Z</time></trkpt><trkpt lat="42.18459619351909" lon="14.180701253222376"><ele>637.0</ele><time>2026-05-01T09:51:24.999Z</time></trkpt><trkpt lat="42.18453033965753" lon="14.180653817453173"><ele>637.8</ele><time>2026-05-01T09:51:26.999Z</time></trkpt><trkpt lat="42.18446265905746" lon="14.180654152606646"><ele>638.6</ele><time>2026-05-01T09:51:27.999Z</time></trkpt><trkpt lat="42.184373958661446" lon="14.18070076954239"><ele>639.4</ele><time>2026-05-01T09:51:28.999Z</time></trkpt><trkpt lat="42.18426986131963" lon="14.180765272592424"><ele>640.1999999999999</ele><time>2026-05-01T09:51:29.999Z</time></trkpt><trkpt lat="42.18417827256223" lon="14.180836060003184"><ele>641.0</ele><time>2026-05-01T09:51:30.999Z</time></trkpt><trkpt lat="42.18411252926173" lon="14.180911507652803"><ele>641.0</ele><time>2026-05-01T09:51:31.999Z</time></trkpt><trkpt lat="42.18406708964913" lon="14.180972254680801"><ele>641.0</ele><time>2026-05-01T09:51:32.999Z</time></trkpt><trkpt lat="42.18400476303981" lon="14.181013017096824"><ele>641.0</ele><time>2026-05-01T09:51:34.999Z</time></trkpt><trkpt lat="42.183942770524375" lon="14.180924872680453"><ele>641.0</ele><time>2026-05-01T09:51:36.999Z</time></trkpt><trkpt lat="42.183939454665776" lon="14.18083214235946"><ele>641.0</ele><time>2026-05-01T09:51:37.999Z</time></trkpt><trkpt lat="42.18393633772087" lon="14.180729836604614"><ele>641.0</ele><time>2026-05-01T09:51:38.999Z</time></trkpt><trkpt lat="42.18377965226957" lon="14.180721413091158"><ele>645.0</ele><time>2026-05-01T09:51:42.999Z</time></trkpt><trkpt lat="42.18368486025514" lon="14.180819712614767"><ele>645.0</ele><time>2026-05-01T09:51:44.999Z</time></trkpt><trkpt lat="42.18359580559287" lon="14.18090060248018"><ele>645.0</ele><time>2026-05-01T09:51:46.999Z</time></trkpt><trkpt lat="42.183539165129375" lon="14.180946608045232"><ele>645.0</ele><time>2026-05-01T09:51:50Z</time></trkpt></trkseg><trkseg><trkpt lat="42.183566257272915" lon="14.180980134100876"><ele>645.0</ele><time>2026-05-01T11:13:36Z</time></trkpt><trkpt lat="42.18361815805918" lon="14.180919128116667"><ele>645.0</ele><time>2026-05-01T11:13:40.999Z</time></trkpt><trkpt lat="42.18366924258825" lon="14.180854254181764"><ele>645.0</ele><time>2026-05-01T11:13:47.999Z</time></trkpt><trkpt lat="42.18374929025971" lon="14.180767597293064"><ele>645.0</ele><time>2026-05-01T11:13:50.999Z</time></trkpt><trkpt lat="42.183819458432396" lon="14.180697935911024"><ele>645.0</ele><time>2026-05-01T11:13:53.999Z</time></trkpt><trkpt lat="42.18387988555884" lon="14.180658545968377"><ele>645.0</ele><time>2026-05-01T11:14:11.999Z</time></trkpt><trkpt lat="42.18392516734545" lon="14.180728339105217"><ele>645.0</ele><time>2026-05-01T11:14:14.999Z</time></trkpt><trkpt lat="42.1839179096014" lon="14.180896238628812"><ele>645.0</ele><time>2026-05-01T11:14:16.999Z</time></trkpt><trkpt lat="42.18393838600014" lon="14.181046766055237"><ele>645.0</ele><time>2026-05-01T11:14:18.999Z</time></trkpt><trkpt lat="42.18397403553831" lon="14.18115912861395"><ele>645.0</ele><time>2026-05-01T11:14:20.999Z</time></trkpt><trkpt lat="42.18391236597151" lon="14.181252588705132"><ele>645.0</ele><time>2026-05-01T11:14:21.999Z</time></trkpt><trkpt lat="42.183866131363686" lon="14.18140012307816"><ele>644.5</ele><time>2026-05-01T11:14:23.999Z</time></trkpt><trkpt lat="42.18379978316699" lon="14.181537284359699"><ele>644.0</ele><time>2026-05-01T11:14:25.999Z</time></trkpt><trkpt lat="42.18374227665565" lon="14.181671591642917"><ele>643.5</ele><time>2026-05-01T11:14:27.999Z</time></trkpt><trkpt lat="42.183680309384386" lon="14.181803656269684"><ele>643.0</ele><time>2026-05-01T11:14:29.999Z</time></trkpt><trkpt lat="42.18362328086613" lon="14.181911451416788"><ele>643.0</ele><time>2026-05-01T11:14:31.999Z</time></trkpt><trkpt lat="42.1835609818408" lon="14.18199216958061"><ele>643.0</ele><time>2026-05-01T11:14:33.999Z</time></trkpt><trkpt lat="42.18350079626195" lon="14.18205132652938"><ele>643.0</ele><time>2026-05-01T11:14:35.999Z</time></trkpt><trkpt lat="42.183427293247895" lon="14.182099129452263"><ele>643.0</ele><time>2026-05-01T11:14:38.999Z</time></trkpt><trkpt lat="42.18334656273718" lon="14.18205745321769"><ele>643.0</ele><time>2026-05-01T11:14:41.999Z</time></trkpt><trkpt lat="42.18334528571036" lon="14.182210288510063"><ele>643.0</ele><time>2026-05-01T11:14:46Z</time></trkpt><trkpt lat="42.183418496578106" lon="14.182313080437517"><ele>641.1666666666667</ele><time>2026-05-01T11:14:48Z</time></trkpt><trkpt lat="42.18346569861168" lon="14.182373747551301"><ele>639.3333333333334</ele><time>2026-05-01T11:14:49Z</time></trkpt><trkpt lat="42.183548662791274" lon="14.182489952916313"><ele>637.5</ele><time>2026-05-01T11:14:51Z</time></trkpt><trkpt lat="42.18359276423174" lon="14.182552356500397"><ele>635.6666666666666</ele><time>2026-05-01T11:14:52Z</time></trkpt><trkpt lat="42.18362960680471" lon="14.182629468761448"><ele>633.8333333333333</ele><time>2026-05-01T11:14:53Z</time></trkpt><trkpt lat="42.18367159314259" lon="14.182706940933153"><ele>632.0</ele><time>2026-05-01T11:14:54Z</time></trkpt><trkpt lat="42.183712302479584" lon="14.182795169274389"><ele>632.0</ele><time>2026-05-01T11:14:55Z</time></trkpt><trkpt lat="42.18372868737618" lon="14.182895337615879"><ele>632.0</ele><time>2026-05-01T11:14:56Z</time></trkpt><trkpt lat="42.18375731176678" lon="14.18299197853738"><ele>632.0</ele><time>2026-05-01T11:14:57Z</time></trkpt><trkpt lat="42.18378407107327" lon="14.183101123643308"><ele>632.0</ele><time>2026-05-01T11:14:58Z</time></trkpt><trkpt lat="42.18381296576705" lon="14.183215518685035"><ele>632.0</ele><time>2026-05-01T11:14:59Z</time></trkpt><trkpt lat="42.18386478471522" lon="14.183318167790915"><ele>632.0</ele><time>2026-05-01T11:15:00Z</time></trkpt><trkpt lat="42.18390667383489" lon="14.1834235994312"><ele>631.8333333333333</ele><time>2026-05-01T11:15:01Z</time></trkpt><trkpt lat="42.1839363225673" lon="14.183531704678755"><ele>631.6666666666666</ele><time>2026-05-01T11:15:02Z</time></trkpt><trkpt lat="42.18397854497848" lon="14.183624048258716"><ele>631.5</ele><time>2026-05-01T11:15:03Z</time></trkpt><trkpt lat="42.18402163295591" lon="14.183710171709055"><ele>631.3333333333334</ele><time>2026-05-01T11:15:04Z</time></trkpt><trkpt lat="42.184063357324504" lon="14.183796358090607"><ele>631.1666666666667</ele><time>2026-05-01T11:15:05Z</time></trkpt><trkpt lat="42.184105755226255" lon="14.183882276179858"><ele>631.0</ele><time>2026-05-01T11:15:06Z</time></trkpt><trkpt lat="42.1841458590348" lon="14.183965352094976"><ele>629.5</ele><time>2026-05-01T11:15:07Z</time></trkpt><trkpt lat="42.184180795684355" lon="14.184050401500587"><ele>628.0</ele><time>2026-05-01T11:15:08Z</time></trkpt><trkpt lat="42.184216466709344" lon="14.184149584735804"><ele>626.5</ele><time>2026-05-01T11:15:09Z</time></trkpt><trkpt lat="42.18425333716662" lon="14.184260867323035"><ele>625.0</ele><time>2026-05-01T11:15:10Z</time></trkpt><trkpt lat="42.184288690407755" lon="14.184375345509535"><ele>623.5</ele><time>2026-05-01T11:15:11Z</time></trkpt><trkpt lat="42.18432803532368" lon="14.184491399778723"><ele>622.0</ele><time>2026-05-01T11:15:12Z</time></trkpt><trkpt lat="42.184369640162764" lon="14.184605735429884"><ele>622.0</ele><time>2026-05-01T11:15:13Z</time></trkpt><trkpt lat="42.18441052850303" lon="14.184717429100903"><ele>622.0</ele><time>2026-05-01T11:15:14Z</time></trkpt><trkpt lat="42.18444866857621" lon="14.184821097756627"><ele>622.0</ele><time>2026-05-01T11:15:15Z</time></trkpt><trkpt lat="42.18449091342546" lon="14.184935607780842"><ele>622.0</ele><time>2026-05-01T11:15:16Z</time></trkpt><trkpt lat="42.184529467745826" lon="14.185040120363277"><ele>622.0</ele><time>2026-05-01T11:15:17Z</time></trkpt><trkpt lat="42.18457128747145" lon="14.185149578197626"><ele>619.2</ele><time>2026-05-01T11:15:18Z</time></trkpt><trkpt lat="42.184627376844325" lon="14.185247163142794"><ele>616.4000000000001</ele><time>2026-05-01T11:15:19Z</time></trkpt><trkpt lat="42.18467025579443" lon="14.185356476673448"><ele>613.5999999999999</ele><time>2026-05-01T11:15:20Z</time></trkpt><trkpt lat="42.184719305570894" lon="14.18545912619311"><ele>610.8</ele><time>2026-05-01T11:15:21Z</time></trkpt><trkpt lat="42.184774102880276" lon="14.18555404580751"><ele>608.0</ele><time>2026-05-01T11:15:22Z</time></trkpt><trkpt lat="42.18483436830937" lon="14.185638288041114"><ele>608.3333333333333</ele><time>2026-05-01T11:15:23Z</time></trkpt><trkpt lat="42.1848852831507" lon="14.185748425888866"><ele>608.6666666666666</ele><time>2026-05-01T11:15:24Z</time></trkpt><trkpt lat="42.184957477705204" lon="14.185819171144214"><ele>609.0</ele><time>2026-05-01T11:15:25Z</time></trkpt><trkpt lat="42.18502069583083" lon="14.185909091965442"><ele>609.3333333333334</ele><time>2026-05-01T11:15:26Z</time></trkpt><trkpt lat="42.18507769788069" lon="14.185990278182881"><ele>609.6666666666667</ele><time>2026-05-01T11:15:27Z</time></trkpt><trkpt lat="42.185134230649375" lon="14.186070135347434"><ele>610.0</ele><time>2026-05-01T11:15:28Z</time></trkpt><trkpt lat="42.18518603390347" lon="14.1861508612459"><ele>610.0</ele><time>2026-05-01T11:15:29Z</time></trkpt><trkpt lat="42.1852488093988" lon="14.186225925105894"><ele>610.0</ele><time>2026-05-01T11:15:30Z</time></trkpt><trkpt lat="42.18530495032116" lon="14.186312778091004"><ele>610.0</ele><time>2026-05-01T11:15:31Z</time></trkpt><trkpt lat="42.1853557156367" lon="14.186392317161296"><ele>610.0</ele><time>2026-05-01T11:15:32Z</time></trkpt><trkpt lat="42.18540182546584" lon="14.186474633724586"><ele>610.0</ele><time>2026-05-01T11:15:33Z</time></trkpt><trkpt lat="42.18544861467298" lon="14.186553774063372"><ele>610.0</ele><time>2026-05-01T11:15:34Z</time></trkpt><trkpt lat="42.18549137897972" lon="14.186642391564401"><ele>607.0</ele><time>2026-05-01T11:15:35Z</time></trkpt><trkpt lat="42.18552408574888" lon="14.186734374380057"><ele>604.0</ele><time>2026-05-01T11:15:36Z</time></trkpt><trkpt lat="42.18554813336218" lon="14.186826656499749"><ele>601.0</ele><time>2026-05-01T11:15:37Z</time></trkpt><trkpt lat="42.18558823856495" lon="14.18691701425704"><ele>598.0</ele><time>2026-05-01T11:15:38Z</time></trkpt><trkpt lat="42.185617284603204" lon="14.18701874188892"><ele>595.0</ele><time>2026-05-01T11:15:39Z</time></trkpt><trkpt lat="42.18564943993845" lon="14.187121437216517"><ele>592.0</ele><time>2026-05-01T11:15:40Z</time></trkpt><trkpt lat="42.185678197966034" lon="14.187210459709181"><ele>591.8333333333334</ele><time>2026-05-01T11:15:41Z</time></trkpt><trkpt lat="42.185710642978435" lon="14.187303132914854"><ele>591.6666666666667</ele><time>2026-05-01T11:15:41.999Z</time></trkpt><trkpt lat="42.185737936247676" lon="14.18739300315676"><ele>591.5</ele><time>2026-05-01T11:15:42.999Z</time></trkpt><trkpt lat="42.1857673872412" lon="14.18748862061575"><ele>591.3333333333334</ele><time>2026-05-01T11:15:43.999Z</time></trkpt><trkpt lat="42.18579332761909" lon="14.187579604204524"><ele>591.1666666666666</ele><time>2026-05-01T11:15:44.999Z</time></trkpt><trkpt lat="42.1858360522569" lon="14.187735069206484"><ele>591.0</ele><time>2026-05-01T11:15:46.999Z</time></trkpt><trkpt lat="42.185853919181596" lon="14.187816727479179"><ele>591.0</ele><time>2026-05-01T11:15:47.999Z</time></trkpt><trkpt lat="42.18588197674897" lon="14.187898891352102"><ele>591.0</ele><time>2026-05-01T11:15:48.999Z</time></trkpt><trkpt lat="42.18590010921237" lon="14.188005784797724"><ele>591.0</ele><time>2026-05-01T11:15:50.999Z</time></trkpt><trkpt lat="42.18582255297779" lon="14.187960254450116"><ele>591.0</ele><time>2026-05-01T11:15:55.999Z</time></trkpt><trkpt lat="42.18578102346109" lon="14.18784682408507"><ele>591.0</ele><time>2026-05-01T11:15:56.999Z</time></trkpt><trkpt lat="42.18574087454406" lon="14.187720330561506"><ele>591.0</ele><time>2026-05-01T11:15:57.999Z</time></trkpt><trkpt lat="42.18570988116368" lon="14.187615100113037"><ele>591.0</ele><time>2026-05-01T11:15:58.999Z</time></trkpt><trkpt lat="42.18567975380972" lon="14.187504982440506"><ele>591.0</ele><time>2026-05-01T11:15:59.999Z</time></trkpt><trkpt lat="42.18564828800249" lon="14.187389971075111"><ele>591.0</ele><time>2026-05-01T11:16:00.999Z</time></trkpt><trkpt lat="42.18561234292991" lon="14.187270550076818"><ele>591.0</ele><time>2026-05-01T11:16:01.999Z</time></trkpt><trkpt lat="42.185578413736906" lon="14.18715126597623"><ele>591.0</ele><time>2026-05-01T11:16:02.999Z</time></trkpt><trkpt lat="42.1854422726568" lon="14.187087907589213"><ele>591.1666666666666</ele><time>2026-05-01T11:16:03.999Z</time></trkpt><trkpt lat="42.18538557375191" lon="14.187001524193944"><ele>591.3333333333334</ele><time>2026-05-01T11:16:04.999Z</time></trkpt><trkpt lat="42.1853299410988" lon="14.186917926766595"><ele>591.5</ele><time>2026-05-01T11:16:05.999Z</time></trkpt><trkpt lat="42.18527874521456" lon="14.186840489430583"><ele>591.6666666666667</ele><time>2026-05-01T11:16:06.999Z</time></trkpt><trkpt lat="42.18522705632616" lon="14.186766801270622"><ele>591.8333333333334</ele><time>2026-05-01T11:16:07.999Z</time></trkpt><trkpt lat="42.18516654955957" lon="14.18670083173049"><ele>592.0</ele><time>2026-05-01T11:16:08.999Z</time></trkpt><trkpt lat="42.18508967892878" lon="14.186645135130394"><ele>592.0</ele><time>2026-05-01T11:16:09.999Z</time></trkpt><trkpt lat="42.18502078438989" lon="14.186580789477128"><ele>592.0</ele><time>2026-05-01T11:16:10.999Z</time></trkpt><trkpt lat="42.1849363002276" lon="14.186522832259694"><ele>592.0</ele><time>2026-05-01T11:16:11.999Z</time></trkpt><trkpt lat="42.18485141565305" lon="14.186470824151234"><ele>592.0</ele><time>2026-05-01T11:16:12.999Z</time></trkpt><trkpt lat="42.18477703924917" lon="14.186438086089243"><ele>592.0</ele><time>2026-05-01T11:16:13.999Z</time></trkpt><trkpt lat="42.18470010154925" lon="14.18640927034764"><ele>592.0</ele><time>2026-05-01T11:16:14.999Z</time></trkpt><trkpt lat="42.18461568815458" lon="14.186411705680609"><ele>592.0</ele><time>2026-05-01T11:16:15.999Z</time></trkpt><trkpt lat="42.18453458626043" lon="14.186439868207158"><ele>592.0</ele><time>2026-05-01T11:16:16.999Z</time></trkpt><trkpt lat="42.18443355036182" lon="14.186470355792602"><ele>592.0</ele><time>2026-05-01T11:16:17.999Z</time></trkpt><trkpt lat="42.18433775417734" lon="14.186496272795726"><ele>592.0</ele><time>2026-05-01T11:16:18.999Z</time></trkpt><trkpt lat="42.18424513573856" lon="14.186512331679815"><ele>592.0</ele><time>2026-05-01T11:16:19.999Z</time></trkpt><trkpt lat="42.184164633949344" lon="14.18649008375082"><ele>592.0</ele><time>2026-05-01T11:16:20.999Z</time></trkpt><trkpt lat="42.184079770084395" lon="14.186455229610234"><ele>592.0</ele><time>2026-05-01T11:16:21.999Z</time></trkpt><trkpt lat="42.18398100109011" lon="14.186447769940093"><ele>592.0</ele><time>2026-05-01T11:16:22.999Z</time></trkpt><trkpt lat="42.18388594613808" lon="14.186460334844666"><ele>592.0</ele><time>2026-05-01T11:16:23.999Z</time></trkpt><trkpt lat="42.183792798982054" lon="14.186481482179227"><ele>592.0</ele><time>2026-05-01T11:16:24.999Z</time></trkpt><trkpt lat="42.18370304477728" lon="14.186502130594073"><ele>590.0</ele><time>2026-05-01T11:16:25.999Z</time></trkpt><trkpt lat="42.18361724117956" lon="14.186519921589547"><ele>588.0</ele><time>2026-05-01T11:16:26.999Z</time></trkpt><trkpt lat="42.18352671588898" lon="14.186555851723034"><ele>586.0</ele><time>2026-05-01T11:16:27.999Z</time></trkpt><trkpt lat="42.183435160033206" lon="14.186617525357857"><ele>584.0</ele><time>2026-05-01T11:16:28.999Z</time></trkpt><trkpt lat="42.18334850591162" lon="14.186679167230215"><ele>582.0</ele><time>2026-05-01T11:16:29.999Z</time></trkpt><trkpt lat="42.18324964088374" lon="14.186745608874931"><ele>582.0</ele><time>2026-05-01T11:16:30.999Z</time></trkpt><trkpt lat="42.183144783910954" lon="14.186780710185213"><ele>582.0</ele><time>2026-05-01T11:16:31.999Z</time></trkpt><trkpt lat="42.18304215465101" lon="14.186843055130854"><ele>582.0</ele><time>2026-05-01T11:16:32.999Z</time></trkpt><trkpt lat="42.18295122340591" lon="14.186890330018263"><ele>582.0</ele><time>2026-05-01T11:16:33.999Z</time></trkpt><trkpt lat="42.1828486733221" lon="14.18692927113156"><ele>582.0</ele><time>2026-05-01T11:16:34.999Z</time></trkpt><trkpt lat="42.18274867547997" lon="14.18695414133156"><ele>582.0</ele><time>2026-05-01T11:16:35.999Z</time></trkpt><trkpt lat="42.18266953934343" lon="14.186998562332864"><ele>582.0</ele><time>2026-05-01T11:16:36.999Z</time></trkpt><trkpt lat="42.18260381480847" lon="14.187015341701965"><ele>582.0</ele><time>2026-05-01T11:16:37.999Z</time></trkpt><trkpt lat="42.18253513665415" lon="14.187049759870357"><ele>582.0</ele><time>2026-05-01T11:16:39.999Z</time></trkpt><trkpt lat="42.18265299006344" lon="14.187296920432699"><ele>582.0</ele><time>2026-05-01T11:16:44.999Z</time></trkpt><trkpt lat="42.18273018878101" lon="14.187394268425258"><ele>579.75</ele><time>2026-05-01T11:16:45.999Z</time></trkpt><trkpt lat="42.182800445526475" lon="14.187504095567117"><ele>577.5</ele><time>2026-05-01T11:16:46.999Z</time></trkpt><trkpt lat="42.18287890389027" lon="14.18761763663355"><ele>575.25</ele><time>2026-05-01T11:16:47.999Z</time></trkpt><trkpt lat="42.18297437897487" lon="14.187722911109477"><ele>573.0</ele><time>2026-05-01T11:16:48.999Z</time></trkpt><trkpt lat="42.183085802761966" lon="14.187831783327093"><ele>573.5</ele><time>2026-05-01T11:16:50Z</time></trkpt><trkpt lat="42.18319583789214" lon="14.187949242240734"><ele>574.0</ele><time>2026-05-01T11:16:51Z</time></trkpt><trkpt lat="42.18329613999434" lon="14.188071966353773"><ele>574.5</ele><time>2026-05-01T11:16:52Z</time></trkpt><trkpt lat="42.1833788780673" lon="14.188201509900027"><ele>575.0</ele><time>2026-05-01T11:16:53Z</time></trkpt><trkpt lat="42.18344906434306" lon="14.188336550180706"><ele>575.0</ele><time>2026-05-01T11:16:54Z</time></trkpt><trkpt lat="42.18351352474447" lon="14.188482232635767"><ele>575.0</ele><time>2026-05-01T11:16:55Z</time></trkpt><trkpt lat="42.183579245191495" lon="14.188634332598822"><ele>575.0</ele><time>2026-05-01T11:16:56Z</time></trkpt><trkpt lat="42.18365400401286" lon="14.188798632011801"><ele>575.0</ele><time>2026-05-01T11:16:57Z</time></trkpt><trkpt lat="42.18373437626504" lon="14.188967044136307"><ele>573.5</ele><time>2026-05-01T11:16:58Z</time></trkpt><trkpt lat="42.18380980741895" lon="14.189129714368596"><ele>572.0</ele><time>2026-05-01T11:16:59Z</time></trkpt><trkpt lat="42.183870390874844" lon="14.189284247061625"><ele>570.5</ele><time>2026-05-01T11:17:00Z</time></trkpt><trkpt lat="42.18390780538972" lon="14.189457100182075"><ele>569.0</ele><time>2026-05-01T11:17:01Z</time></trkpt><trkpt lat="42.18393832286215" lon="14.189627655440276"><ele>569.0</ele><time>2026-05-01T11:17:02Z</time></trkpt><trkpt lat="42.18395058836349" lon="14.189800052256375"><ele>569.0</ele><time>2026-05-01T11:17:03Z</time></trkpt><trkpt lat="42.18395161408679" lon="14.189980067664491"><ele>569.0</ele><time>2026-05-01T11:17:04Z</time></trkpt><trkpt lat="42.18394834633616" lon="14.190170711867543"><ele>569.0</ele><time>2026-05-01T11:17:05Z</time></trkpt><trkpt lat="42.18396872241402" lon="14.190371428234926"><ele>568.0</ele><time>2026-05-01T11:17:06Z</time></trkpt><trkpt lat="42.18397263496988" lon="14.190572293833126"><ele>567.0</ele><time>2026-05-01T11:17:07Z</time></trkpt><trkpt lat="42.18398550038627" lon="14.190759839751466"><ele>566.0</ele><time>2026-05-01T11:17:08Z</time></trkpt><trkpt lat="42.18399563481305" lon="14.190936887796564"><ele>565.0</ele><time>2026-05-01T11:17:09Z</time></trkpt><trkpt lat="42.183993046322385" lon="14.191104088437932"><ele>563.8</ele><time>2026-05-01T11:17:10Z</time></trkpt><trkpt lat="42.18400557837859" lon="14.191255325114698"><ele>562.6</ele><time>2026-05-01T11:17:11Z</time></trkpt><trkpt lat="42.18399952714876" lon="14.191398785027912"><ele>561.4</ele><time>2026-05-01T11:17:12Z</time></trkpt><trkpt lat="42.18398551826391" lon="14.191537091435839"><ele>560.2</ele><time>2026-05-01T11:17:13Z</time></trkpt><trkpt lat="42.183970693398464" lon="14.19167988221167"><ele>559.0</ele><time>2026-05-01T11:17:14Z</time></trkpt><trkpt lat="42.183987319681215" lon="14.191822580763331"><ele>558.2</ele><time>2026-05-01T11:17:15Z</time></trkpt><trkpt lat="42.18401072823947" lon="14.191962241248756"><ele>557.4</ele><time>2026-05-01T11:17:16Z</time></trkpt><trkpt lat="42.184043799350476" lon="14.192076033930372"><ele>556.6</ele><time>2026-05-01T11:17:17Z</time></trkpt><trkpt lat="42.18410237163551" lon="14.192191604816708"><ele>555.8</ele><time>2026-05-01T11:17:18Z</time></trkpt><trkpt lat="42.184183315052735" lon="14.19230454235379"><ele>555.0</ele><time>2026-05-01T11:17:19Z</time></trkpt><trkpt lat="42.18423215358107" lon="14.19244147641359"><ele>553.2</ele><time>2026-05-01T11:17:20Z</time></trkpt><trkpt lat="42.18427527178994" lon="14.192575485283287"><ele>551.4</ele><time>2026-05-01T11:17:21Z</time></trkpt><trkpt lat="42.184309219267526" lon="14.192717459100175"><ele>549.6</ele><time>2026-05-01T11:17:22Z</time></trkpt><trkpt lat="42.18433708511042" lon="14.192856049023973"><ele>547.8</ele><time>2026-05-01T11:17:23Z</time></trkpt><trkpt lat="42.184363423616816" lon="14.192978925031307"><ele>546.0</ele><time>2026-05-01T11:17:24Z</time></trkpt><trkpt lat="42.184374177215375" lon="14.193075211735824"><ele>545.1666666666666</ele><time>2026-05-01T11:17:25Z</time></trkpt><trkpt lat="42.1843192406789" lon="14.193196011219094"><ele>544.3333333333334</ele><time>2026-05-01T11:17:27Z</time></trkpt><trkpt lat="42.18430119656925" lon="14.193291476874972"><ele>543.5</ele><time>2026-05-01T11:17:28Z</time></trkpt><trkpt lat="42.184271191675116" lon="14.193372144037717"><ele>542.6666666666667</ele><time>2026-05-01T11:17:29Z</time></trkpt><trkpt lat="42.184219598978764" lon="14.193468488180216"><ele>541.8333333333334</ele><time>2026-05-01T11:17:31Z</time></trkpt><trkpt lat="42.18420546550541" lon="14.193555290222463"><ele>541.0</ele><time>2026-05-01T11:17:34Z</time></trkpt><trkpt lat="42.184173909899584" lon="14.193635035253795"><ele>541.0</ele><time>2026-05-01T11:17:36Z</time></trkpt><trkpt lat="42.18414209027138" lon="14.193715613384251"><ele>541.0</ele><time>2026-05-01T11:17:38Z</time></trkpt><trkpt lat="42.184171201520044" lon="14.193803535776736"><ele>541.0</ele><time>2026-05-01T11:17:39Z</time></trkpt><trkpt lat="42.18417513346817" lon="14.193898488565933"><ele>541.0</ele><time>2026-05-01T11:17:40Z</time></trkpt><trkpt lat="42.18422034703131" lon="14.194026218130706"><ele>541.0</ele><time>2026-05-01T11:17:42Z</time></trkpt><trkpt lat="42.18425495147974" lon="14.194140826302615"><ele>541.0</ele><time>2026-05-01T11:17:44Z</time></trkpt><trkpt lat="42.184281695834756" lon="14.194241466892114"><ele>540.0</ele><time>2026-05-01T11:17:46Z</time></trkpt><trkpt lat="42.18433123733435" lon="14.194347172147257"><ele>539.0</ele><time>2026-05-01T11:17:49Z</time></trkpt><trkpt lat="42.184270261100224" lon="14.194671586363853"><ele>538.0</ele><time>2026-05-01T11:17:52Z</time></trkpt><trkpt lat="42.18432742447265" lon="14.194723944222384"><ele>537.0</ele><time>2026-05-01T11:17:55Z</time></trkpt><trkpt lat="42.18428025844895" lon="14.194780365811306"><ele>537.0</ele><time>2026-05-01T11:17:58Z</time></trkpt><trkpt lat="42.184214243084064" lon="14.194732897977364"><ele>537.0</ele><time>2026-05-01T11:17:59.999Z</time></trkpt><trkpt lat="42.18414769411192" lon="14.194739422865542"><ele>537.0</ele><time>2026-05-01T11:18:02.999Z</time></trkpt><trkpt lat="42.18416671718976" lon="14.194862241817649"><ele>537.0</ele><time>2026-05-01T11:18:05.999Z</time></trkpt><trkpt lat="42.184271883393016" lon="14.194939741813176"><ele>537.0</ele><time>2026-05-01T11:18:07.999Z</time></trkpt><trkpt lat="42.18429717135709" lon="14.195018367804712"><ele>537.0</ele><time>2026-05-01T11:18:09.999Z</time></trkpt><trkpt lat="42.18426863623212" lon="14.195128042741295"><ele>535.0</ele><time>2026-05-01T11:18:11.999Z</time></trkpt><trkpt lat="42.18431113672886" lon="14.19519144029622"><ele>533.0</ele><time>2026-05-01T11:18:13.999Z</time></trkpt><trkpt lat="42.18443801130387" lon="14.195242967207365"><ele>531.0</ele><time>2026-05-01T11:18:15.999Z</time></trkpt><trkpt lat="42.184532120737295" lon="14.195288815086863"><ele>529.0</ele><time>2026-05-01T11:18:16.999Z</time></trkpt><trkpt lat="42.18461972273777" lon="14.19535353043367"><ele>527.0</ele><time>2026-05-01T11:18:17.999Z</time></trkpt><trkpt lat="42.18468585514143" lon="14.195414611324136"><ele>527.0</ele><time>2026-05-01T11:18:18.999Z</time></trkpt><trkpt lat="42.184746750951895" lon="14.195502035459072"><ele>527.0</ele><time>2026-05-01T11:18:19.999Z</time></trkpt><trkpt lat="42.18480889307414" lon="14.195594178461915"><ele>527.0</ele><time>2026-05-01T11:18:20.999Z</time></trkpt><trkpt lat="42.18488119292185" lon="14.19570701572363"><ele>527.0</ele><time>2026-05-01T11:18:21.999Z</time></trkpt><trkpt lat="42.1849367925672" lon="14.195785810758064"><ele>527.0</ele><time>2026-05-01T11:18:22.999Z</time></trkpt><trkpt lat="42.184998927051275" lon="14.19585333062378"><ele>526.1666666666666</ele><time>2026-05-01T11:18:23.999Z</time></trkpt><trkpt lat="42.18506023660558" lon="14.195926113168785"><ele>525.3333333333333</ele><time>2026-05-01T11:18:24.999Z</time></trkpt><trkpt lat="42.185101141091344" lon="14.196014592163941"><ele>524.5</ele><time>2026-05-01T11:18:25.999Z</time></trkpt><trkpt lat="42.18513071500534" lon="14.196113617713506"><ele>523.6666666666666</ele><time>2026-05-01T11:18:26.999Z</time></trkpt><trkpt lat="42.185144511407664" lon="14.196216419302699"><ele>522.8333333333334</ele><time>2026-05-01T11:18:27.999Z</time></trkpt><trkpt lat="42.18517785988427" lon="14.196317111843598"><ele>522.0</ele><time>2026-05-01T11:18:29.999Z</time></trkpt><trkpt lat="42.18527640613351" lon="14.196297500792209"><ele>522.0</ele><time>2026-05-01T11:18:31.999Z</time></trkpt><trkpt lat="42.18538814255144" lon="14.196342410619723"><ele>522.0</ele><time>2026-05-01T11:18:33.999Z</time></trkpt><trkpt lat="42.18543069039589" lon="14.196414074397351"><ele>522.0</ele><time>2026-05-01T11:18:35.999Z</time></trkpt><trkpt lat="42.18548761761304" lon="14.196361537625638"><ele>522.0</ele><time>2026-05-01T11:18:37.999Z</time></trkpt><trkpt lat="42.18553823321918" lon="14.196440971569297"><ele>522.0</ele><time>2026-05-01T11:18:39.999Z</time></trkpt><trkpt lat="42.185592351010506" lon="14.196523520945917"><ele>522.0</ele><time>2026-05-01T11:18:41.999Z</time></trkpt><trkpt lat="42.18567761105835" lon="14.196590965052488"><ele>521.6</ele><time>2026-05-01T11:18:43.999Z</time></trkpt><trkpt lat="42.18576160806118" lon="14.196682970046673"><ele>521.2</ele><time>2026-05-01T11:18:45.999Z</time></trkpt><trkpt lat="42.18583999061983" lon="14.196768005997551"><ele>520.8</ele><time>2026-05-01T11:18:47.999Z</time></trkpt><trkpt lat="42.18594208245823" lon="14.1968162215924"><ele>520.4</ele><time>2026-05-01T11:18:49.999Z</time></trkpt><trkpt lat="42.18600333069375" lon="14.196836809130026"><ele>520.0</ele><time>2026-05-01T11:18:50.999Z</time></trkpt><trkpt lat="42.18612140272096" lon="14.196865088747282"><ele>520.0</ele><time>2026-05-01T11:18:52.999Z</time></trkpt><trkpt lat="42.18622314962679" lon="14.196885455713213"><ele>520.0</ele><time>2026-05-01T11:18:54.999Z</time></trkpt><trkpt lat="42.18633797695811" lon="14.196838388263156"><ele>520.0</ele><time>2026-05-01T11:18:57Z</time></trkpt><trkpt lat="42.186397596281004" lon="14.19680238583023"><ele>520.0</ele><time>2026-05-01T11:18:58Z</time></trkpt><trkpt lat="42.18647193135" lon="14.196788432277854"><ele>520.0</ele><time>2026-05-01T11:18:59Z</time></trkpt><trkpt lat="42.186556336101376" lon="14.19679742400284"><ele>520.0</ele><time>2026-05-01T11:19:00Z</time></trkpt><trkpt lat="42.186635839966975" lon="14.196783845537448"><ele>518.0</ele><time>2026-05-01T11:19:01Z</time></trkpt><trkpt lat="42.18671331619158" lon="14.196768564566641"><ele>516.0</ele><time>2026-05-01T11:19:02Z</time></trkpt><trkpt lat="42.18677873747577" lon="14.196770108119479"><ele>514.0</ele><time>2026-05-01T11:19:04Z</time></trkpt><trkpt lat="42.18686546258116" lon="14.19690970643067"><ele>512.0</ele><time>2026-05-01T11:19:06Z</time></trkpt><trkpt lat="42.186936650549804" lon="14.197007230752618"><ele>510.0</ele><time>2026-05-01T11:19:07Z</time></trkpt><trkpt lat="42.1869968687031" lon="14.197082260244029"><ele>510.0</ele><time>2026-05-01T11:19:08Z</time></trkpt><trkpt lat="42.187045593279436" lon="14.19716377611881"><ele>510.0</ele><time>2026-05-01T11:19:09Z</time></trkpt><trkpt lat="42.18709021458427" lon="14.197256234624884"><ele>510.0</ele><time>2026-05-01T11:19:10Z</time></trkpt><trkpt lat="42.187141783448425" lon="14.19735652526963"><ele>510.0</ele><time>2026-05-01T11:19:11Z</time></trkpt><trkpt lat="42.187228166805575" lon="14.197447149649586"><ele>510.0</ele><time>2026-05-01T11:19:12Z</time></trkpt><trkpt lat="42.1873059110703" lon="14.197543189226673"><ele>509.8</ele><time>2026-05-01T11:19:13Z</time></trkpt><trkpt lat="42.187347263557264" lon="14.197636557267018"><ele>509.6</ele><time>2026-05-01T11:19:14Z</time></trkpt><trkpt lat="42.187357511348544" lon="14.197733138935327"><ele>509.4</ele><time>2026-05-01T11:19:16Z</time></trkpt><trkpt lat="42.18733243877272" lon="14.197903974139154"><ele>509.2</ele><time>2026-05-01T11:19:18Z</time></trkpt><trkpt lat="42.18733966680991" lon="14.198042824051042"><ele>509.0</ele><time>2026-05-01T11:19:19Z</time></trkpt><trkpt lat="42.18736676572416" lon="14.198195619102448"><ele>509.0</ele><time>2026-05-01T11:19:20Z</time></trkpt><trkpt lat="42.18739463273114" lon="14.198360760485283"><ele>509.0</ele><time>2026-05-01T11:19:21Z</time></trkpt><trkpt lat="42.18739439372526" lon="14.198524147241368"><ele>509.0</ele><time>2026-05-01T11:19:22Z</time></trkpt><trkpt lat="42.187407372051304" lon="14.198683882779418"><ele>509.0</ele><time>2026-05-01T11:19:23Z</time></trkpt><trkpt lat="42.18743148818319" lon="14.198830267326265"><ele>509.0</ele><time>2026-05-01T11:19:24Z</time></trkpt><trkpt lat="42.1874613446663" lon="14.198964972865966"><ele>509.0</ele><time>2026-05-01T11:19:25Z</time></trkpt><trkpt lat="42.18749777997162" lon="14.199094426478258"><ele>509.0</ele><time>2026-05-01T11:19:26Z</time></trkpt><trkpt lat="42.187543576372" lon="14.199213730735016"><ele>509.0</ele><time>2026-05-01T11:19:27Z</time></trkpt><trkpt lat="42.18759373733949" lon="14.199337778489964"><ele>509.0</ele><time>2026-05-01T11:19:28Z</time></trkpt><trkpt lat="42.18764001543351" lon="14.199467631711116"><ele>510.5</ele><time>2026-05-01T11:19:29Z</time></trkpt><trkpt lat="42.18764513705265" lon="14.199615042092795"><ele>512.0</ele><time>2026-05-01T11:19:30Z</time></trkpt><trkpt lat="42.18766612575127" lon="14.199760086656187"><ele>513.5</ele><time>2026-05-01T11:19:31Z</time></trkpt><trkpt lat="42.18765516713408" lon="14.199911926671644"><ele>515.0</ele><time>2026-05-01T11:19:32Z</time></trkpt><trkpt lat="42.18765366488658" lon="14.200071875420768"><ele>515.75</ele><time>2026-05-01T11:19:33Z</time></trkpt><trkpt lat="42.18766923975311" lon="14.200233678956614"><ele>516.5</ele><time>2026-05-01T11:19:34Z</time></trkpt><trkpt lat="42.18769849726932" lon="14.20039383242433"><ele>517.25</ele><time>2026-05-01T11:19:35Z</time></trkpt><trkpt lat="42.18775312079663" lon="14.200552529868043"><ele>518.0</ele><time>2026-05-01T11:19:36Z</time></trkpt><trkpt lat="42.187820541416876" lon="14.200709833511297"><ele>519.5</ele><time>2026-05-01T11:19:37Z</time></trkpt><trkpt lat="42.18788740474424" lon="14.200871927306157"><ele>521.0</ele><time>2026-05-01T11:19:38Z</time></trkpt><trkpt lat="42.1879537152074" lon="14.20104791742336"><ele>522.5</ele><time>2026-05-01T11:19:39Z</time></trkpt><trkpt lat="42.188018002996145" lon="14.20122026388667"><ele>524.0</ele><time>2026-05-01T11:19:40Z</time></trkpt><trkpt lat="42.18808261108239" lon="14.201392351296978"><ele>523.25</ele><time>2026-05-01T11:19:41Z</time></trkpt><trkpt lat="42.188147310233234" lon="14.201563402973488"><ele>522.5</ele><time>2026-05-01T11:19:42Z</time></trkpt><trkpt lat="42.188214955626385" lon="14.201732625213998"><ele>521.75</ele><time>2026-05-01T11:19:43Z</time></trkpt><trkpt lat="42.188294973325306" lon="14.201900648125546"><ele>521.0</ele><time>2026-05-01T11:19:44Z</time></trkpt><trkpt lat="42.18839328140036" lon="14.202060700949602"><ele>521.0</ele><time>2026-05-01T11:19:45Z</time></trkpt><trkpt lat="42.18849062558565" lon="14.202203885747984"><ele>521.0</ele><time>2026-05-01T11:19:46Z</time></trkpt><trkpt lat="42.18859542475488" lon="14.202350754985115"><ele>521.0</ele><time>2026-05-01T11:19:47Z</time></trkpt><trkpt lat="42.1886974404527" lon="14.202508423617207"><ele>526.25</ele><time>2026-05-01T11:19:48Z</time></trkpt><trkpt lat="42.18878167532817" lon="14.202675699765415"><ele>531.5</ele><time>2026-05-01T11:19:49Z</time></trkpt><trkpt lat="42.188852266260035" lon="14.20285031203032"><ele>536.75</ele><time>2026-05-01T11:19:50Z</time></trkpt><trkpt lat="42.18890036172117" lon="14.203029701968838"><ele>542.0</ele><time>2026-05-01T11:19:51Z</time></trkpt><trkpt lat="42.18893937644292" lon="14.203227311474778"><ele>539.5</ele><time>2026-05-01T11:19:52Z</time></trkpt><trkpt lat="42.18897766077956" lon="14.203415982372782"><ele>537.0</ele><time>2026-05-01T11:19:53Z</time></trkpt><trkpt lat="42.1890209182701" lon="14.203605492792594"><ele>534.5</ele><time>2026-05-01T11:19:54Z</time></trkpt><trkpt lat="42.18906863962896" lon="14.203775921466798"><ele>532.0</ele><time>2026-05-01T11:19:55Z</time></trkpt><trkpt lat="42.18911506710937" lon="14.203962044528668"><ele>534.75</ele><time>2026-05-01T11:19:56Z</time></trkpt><trkpt lat="42.18915781543028" lon="14.204161935864699"><ele>537.5</ele><time>2026-05-01T11:19:57Z</time></trkpt><trkpt lat="42.189194227691615" lon="14.20434988080581"><ele>540.25</ele><time>2026-05-01T11:19:58Z</time></trkpt><trkpt lat="42.18923968545063" lon="14.204543877991169"><ele>543.0</ele><time>2026-05-01T11:19:59Z</time></trkpt><trkpt lat="42.18925915408768" lon="14.204742865704073"><ele>545.0</ele><time>2026-05-01T11:20:00Z</time></trkpt><trkpt lat="42.18927054191087" lon="14.204938018051815"><ele>547.0</ele><time>2026-05-01T11:20:01Z</time></trkpt><trkpt lat="42.1892919749264" lon="14.20515900394162"><ele>549.0</ele><time>2026-05-01T11:20:02Z</time></trkpt><trkpt lat="42.18934646227565" lon="14.205349078302362"><ele>549.0</ele><time>2026-05-01T11:20:03Z</time></trkpt><trkpt lat="42.18943205855383" lon="14.205520205155507"><ele>549.0</ele><time>2026-05-01T11:20:04Z</time></trkpt><trkpt lat="42.18950967034225" lon="14.205606446376684"><ele>549.0</ele><time>2026-05-01T11:20:05Z</time></trkpt><trkpt lat="42.18954001380157" lon="14.205693901724635"><ele>549.0</ele><time>2026-05-01T11:20:06Z</time></trkpt><trkpt lat="42.1897102807775" lon="14.205663644345632"><ele>549.0</ele><time>2026-05-01T11:20:08Z</time></trkpt><trkpt lat="42.18982698035792" lon="14.205658243408033"><ele>549.0</ele><time>2026-05-01T11:20:09Z</time></trkpt><trkpt lat="42.18995904142623" lon="14.205710904910303"><ele>549.0</ele><time>2026-05-01T11:20:10Z</time></trkpt><trkpt lat="42.190076289541224" lon="14.205791702571846"><ele>549.0</ele><time>2026-05-01T11:20:11Z</time></trkpt><trkpt lat="42.19017949002452" lon="14.20588815894793"><ele>547.5</ele><time>2026-05-01T11:20:12Z</time></trkpt><trkpt lat="42.1902602629528" lon="14.206040170278309"><ele>546.0</ele><time>2026-05-01T11:20:13Z</time></trkpt><trkpt lat="42.19032904055594" lon="14.206197193388128"><ele>544.5</ele><time>2026-05-01T11:20:14Z</time></trkpt><trkpt lat="42.190399151662746" lon="14.20638490461866"><ele>543.0</ele><time>2026-05-01T11:20:15Z</time></trkpt><trkpt lat="42.190451617278846" lon="14.206588311645282"><ele>546.0</ele><time>2026-05-01T11:20:16Z</time></trkpt><trkpt lat="42.19048389074854" lon="14.206764878541449"><ele>549.0</ele><time>2026-05-01T11:20:17Z</time></trkpt><trkpt lat="42.190511713108066" lon="14.2069493653167"><ele>552.0</ele><time>2026-05-01T11:20:18Z</time></trkpt><trkpt lat="42.190535618281245" lon="14.207128825770452"><ele>555.0</ele><time>2026-05-01T11:20:19Z</time></trkpt><trkpt lat="42.19055003899805" lon="14.207297110908652"><ele>556.0</ele><time>2026-05-01T11:20:20Z</time></trkpt><trkpt lat="42.190560419852424" lon="14.207442882014279"><ele>557.0</ele><time>2026-05-01T11:20:21Z</time></trkpt><trkpt lat="42.19056633006109" lon="14.207573332654542"><ele>558.0</ele><time>2026-05-01T11:20:22Z</time></trkpt><trkpt lat="42.19056367723434" lon="14.207698405755554"><ele>559.0</ele><time>2026-05-01T11:20:23Z</time></trkpt><trkpt lat="42.19055672532668" lon="14.207821548090632"><ele>560.0</ele><time>2026-05-01T11:20:24Z</time></trkpt><trkpt lat="42.19056406030314" lon="14.207929693091396"><ele>560.0</ele><time>2026-05-01T11:20:25Z</time></trkpt><trkpt lat="42.19054378293343" lon="14.208012035598541"><ele>560.0</ele><time>2026-05-01T11:20:26Z</time></trkpt><trkpt lat="42.190536885331596" lon="14.208116750648108"><ele>560.0</ele><time>2026-05-01T11:20:28Z</time></trkpt><trkpt lat="42.190686971108" lon="14.20812750349266"><ele>560.0</ele><time>2026-05-01T11:20:29Z</time></trkpt><trkpt lat="42.19074641585953" lon="14.20809466388322"><ele>560.0</ele><time>2026-05-01T11:20:30Z</time></trkpt><trkpt lat="42.19082945902893" lon="14.208100415947056"><ele>560.0</ele><time>2026-05-01T11:20:31Z</time></trkpt><trkpt lat="42.190932444356484" lon="14.208105636394961"><ele>553.5</ele><time>2026-05-01T11:20:32Z</time></trkpt><trkpt lat="42.191061435385826" lon="14.208144139729473"><ele>547.0</ele><time>2026-05-01T11:20:33Z</time></trkpt><trkpt lat="42.19120832749076" lon="14.208171046375579"><ele>540.5</ele><time>2026-05-01T11:20:34Z</time></trkpt><trkpt lat="42.191357871207686" lon="14.208179756266853"><ele>534.0</ele><time>2026-05-01T11:20:34.999Z</time></trkpt><trkpt lat="42.19149932055835" lon="14.208181631794243"><ele>531.75</ele><time>2026-05-01T11:20:35.999Z</time></trkpt><trkpt lat="42.19163342921226" lon="14.20818545173757"><ele>529.5</ele><time>2026-05-01T11:20:36.999Z</time></trkpt><trkpt lat="42.191755383486374" lon="14.208190420677504"><ele>527.25</ele><time>2026-05-01T11:20:37.999Z</time></trkpt><trkpt lat="42.19184868265009" lon="14.208191372892937"><ele>525.0</ele><time>2026-05-01T11:20:38.999Z</time></trkpt><trkpt lat="42.1919574560944" lon="14.208191491664772"><ele>525.0</ele><time>2026-05-01T11:20:39.999Z</time></trkpt><trkpt lat="42.1920446843421" lon="14.208193549322365"><ele>525.0</ele><time>2026-05-01T11:20:40.999Z</time></trkpt><trkpt lat="42.19214049719803" lon="14.208199646076572"><ele>525.0</ele><time>2026-05-01T11:20:41.999Z</time></trkpt><trkpt lat="42.192238353579" lon="14.208185184838683"><ele>525.0</ele><time>2026-05-01T11:20:42.999Z</time></trkpt><trkpt lat="42.19234386459454" lon="14.20816978985556"><ele>525.0</ele><time>2026-05-01T11:20:43.999Z</time></trkpt><trkpt lat="42.19243699775146" lon="14.208143733670937"><ele>522.4</ele><time>2026-05-01T11:20:44.999Z</time></trkpt><trkpt lat="42.19252840517735" lon="14.208124192517753"><ele>519.8</ele><time>2026-05-01T11:20:45.999Z</time></trkpt><trkpt lat="42.19262152624767" lon="14.208108267892305"><ele>517.2</ele><time>2026-05-01T11:20:46.999Z</time></trkpt><trkpt lat="42.192708303131276" lon="14.208081088743503"><ele>514.6</ele><time>2026-05-01T11:20:47.999Z</time></trkpt><trkpt lat="42.19278929066154" lon="14.208057730199574"><ele>512.0</ele><time>2026-05-01T11:20:48.999Z</time></trkpt><trkpt lat="42.192880571953694" lon="14.208041126304991"><ele>512.0</ele><time>2026-05-01T11:20:49.999Z</time></trkpt><trkpt lat="42.19297203506377" lon="14.208038498984816"><ele>512.0</ele><time>2026-05-01T11:20:50.999Z</time></trkpt><trkpt lat="42.1930650566251" lon="14.20802522834691"><ele>512.0</ele><time>2026-05-01T11:20:51.999Z</time></trkpt><trkpt lat="42.19315984835029" lon="14.20801544310314"><ele>512.0</ele><time>2026-05-01T11:20:52.999Z</time></trkpt><trkpt lat="42.19326225537651" lon="14.208008339771153"><ele>512.0</ele><time>2026-05-01T11:20:53.999Z</time></trkpt><trkpt lat="42.19337991780595" lon="14.208005382825238"><ele>510.0</ele><time>2026-05-01T11:20:54.999Z</time></trkpt><trkpt lat="42.19351531343332" lon="14.20803019564088"><ele>508.0</ele><time>2026-05-01T11:20:55.999Z</time></trkpt><trkpt lat="42.19364588127845" lon="14.208054564438322"><ele>506.0</ele><time>2026-05-01T11:20:56.999Z</time></trkpt><trkpt lat="42.19377612337359" lon="14.208078546466753"><ele>504.0</ele><time>2026-05-01T11:20:57.999Z</time></trkpt><trkpt lat="42.19389822539613" lon="14.208095799184074"><ele>501.75</ele><time>2026-05-01T11:20:58.999Z</time></trkpt><trkpt lat="42.1940216517042" lon="14.208123810956984"><ele>499.5</ele><time>2026-05-01T11:20:59.999Z</time></trkpt><trkpt lat="42.194145491753" lon="14.208162850938177"><ele>497.25</ele><time>2026-05-01T11:21:01Z</time></trkpt><trkpt lat="42.19426705955296" lon="14.208215333023913"><ele>495.0</ele><time>2026-05-01T11:21:02Z</time></trkpt><trkpt lat="42.194376629873574" lon="14.208279538281053"><ele>495.0</ele><time>2026-05-01T11:21:03Z</time></trkpt><trkpt lat="42.19448264157283" lon="14.208368242342642"><ele>495.0</ele><time>2026-05-01T11:21:04Z</time></trkpt><trkpt lat="42.1945864844157" lon="14.208482950082361"><ele>495.0</ele><time>2026-05-01T11:21:05Z</time></trkpt><trkpt lat="42.194689758393096" lon="14.208605930359967"><ele>495.0</ele><time>2026-05-01T11:21:06Z</time></trkpt><trkpt lat="42.19477624479448" lon="14.208719321173342"><ele>493.0</ele><time>2026-05-01T11:21:07Z</time></trkpt><trkpt lat="42.19485162412626" lon="14.20881643699006"><ele>491.0</ele><time>2026-05-01T11:21:08Z</time></trkpt><trkpt lat="42.194920430236905" lon="14.208901235123882"><ele>489.0</ele><time>2026-05-01T11:21:09Z</time></trkpt><trkpt lat="42.19497843416409" lon="14.20896675510113"><ele>487.0</ele><time>2026-05-01T11:21:10Z</time></trkpt><trkpt lat="42.195043847680815" lon="14.209003640727142"><ele>485.0</ele><time>2026-05-01T11:21:11Z</time></trkpt><trkpt lat="42.1951205982229" lon="14.208995122988915"><ele>483.0</ele><time>2026-05-01T11:21:12Z</time></trkpt><trkpt lat="42.19521003016761" lon="14.20894755935411"><ele>482.25</ele><time>2026-05-01T11:21:13Z</time></trkpt><trkpt lat="42.19530906146059" lon="14.208863266923789"><ele>481.5</ele><time>2026-05-01T11:21:14Z</time></trkpt><trkpt lat="42.1954217636288" lon="14.208788635492764"><ele>480.75</ele><time>2026-05-01T11:21:15Z</time></trkpt><trkpt lat="42.19552974029209" lon="14.208711170225342"><ele>480.0</ele><time>2026-05-01T11:21:16Z</time></trkpt><trkpt lat="42.19562237129595" lon="14.208629491580384"><ele>478.8</ele><time>2026-05-01T11:21:17Z</time></trkpt><trkpt lat="42.19570079527059" lon="14.208540757048949"><ele>477.6</ele><time>2026-05-01T11:21:18Z</time></trkpt><trkpt lat="42.195763385458314" lon="14.208470730841947"><ele>476.4</ele><time>2026-05-01T11:21:19Z</time></trkpt><trkpt lat="42.19584156227113" lon="14.208382739414347"><ele>475.2</ele><time>2026-05-01T11:21:20Z</time></trkpt><trkpt lat="42.195938408073935" lon="14.208312843258255"><ele>474.0</ele><time>2026-05-01T11:21:21Z</time></trkpt><trkpt lat="42.19604048258513" lon="14.20832128050706"><ele>474.0</ele><time>2026-05-01T11:21:22Z</time></trkpt><trkpt lat="42.19613886423192" lon="14.208324174392034"><ele>474.0</ele><time>2026-05-01T11:21:23Z</time></trkpt><trkpt lat="42.19624060926302" lon="14.208356469757494"><ele>474.0</ele><time>2026-05-01T11:21:24Z</time></trkpt><trkpt lat="42.19634715743679" lon="14.208345103873135"><ele>474.0</ele><time>2026-05-01T11:21:25Z</time></trkpt><trkpt lat="42.19646724787972" lon="14.20830524820755"><ele>474.0</ele><time>2026-05-01T11:21:26Z</time></trkpt><trkpt lat="42.19658061885432" lon="14.208254785432942"><ele>470.75</ele><time>2026-05-01T11:21:27Z</time></trkpt><trkpt lat="42.19669467696957" lon="14.208210247535154"><ele>467.5</ele><time>2026-05-01T11:21:28Z</time></trkpt><trkpt lat="42.196812537675605" lon="14.208188439473464"><ele>464.25</ele><time>2026-05-01T11:21:29Z</time></trkpt><trkpt lat="42.196920924424695" lon="14.208139880781006"><ele>461.0</ele><time>2026-05-01T11:21:30Z</time></trkpt><trkpt lat="42.19701977612013" lon="14.208091230325895"><ele>459.4</ele><time>2026-05-01T11:21:31Z</time></trkpt><trkpt lat="42.19713151367021" lon="14.20803466062408"><ele>457.8</ele><time>2026-05-01T11:21:32Z</time></trkpt><trkpt lat="42.19723663116367" lon="14.208017991159977"><ele>456.19999999999993</ele><time>2026-05-01T11:21:33Z</time></trkpt><trkpt lat="42.197347712366536" lon="14.208030973277292"><ele>454.59999999999997</ele><time>2026-05-01T11:21:34Z</time></trkpt><trkpt lat="42.19743645032619" lon="14.208072814349546"><ele>453.0</ele><time>2026-05-01T11:21:35Z</time></trkpt><trkpt lat="42.19753767700009" lon="14.20812189587614"><ele>452.2</ele><time>2026-05-01T11:21:36Z</time></trkpt><trkpt lat="42.19763121046497" lon="14.208190708924128"><ele>451.4</ele><time>2026-05-01T11:21:37Z</time></trkpt><trkpt lat="42.197727497073046" lon="14.208241712643966"><ele>450.59999999999997</ele><time>2026-05-01T11:21:38Z</time></trkpt><trkpt lat="42.19783728722975" lon="14.208271370499407"><ele>449.79999999999995</ele><time>2026-05-01T11:21:39Z</time></trkpt><trkpt lat="42.197952404552986" lon="14.2083011260435"><ele>449.0</ele><time>2026-05-01T11:21:40Z</time></trkpt><trkpt lat="42.19805850035487" lon="14.208330169222583"><ele>445.25</ele><time>2026-05-01T11:21:41Z</time></trkpt><trkpt lat="42.19816995385239" lon="14.208359426794484"><ele>441.5</ele><time>2026-05-01T11:21:41.999Z</time></trkpt><trkpt lat="42.19827695231394" lon="14.208384409873343"><ele>437.75</ele><time>2026-05-01T11:21:42.999Z</time></trkpt><trkpt lat="42.198397862866905" lon="14.208413804986144"><ele>434.0</ele><time>2026-05-01T11:21:43.999Z</time></trkpt><trkpt lat="42.19851939116292" lon="14.2084360132586"><ele>434.0</ele><time>2026-05-01T11:21:44.999Z</time></trkpt><trkpt lat="42.19863663633473" lon="14.208448710214618"><ele>434.0</ele><time>2026-05-01T11:21:45.999Z</time></trkpt><trkpt lat="42.198746064759625" lon="14.208437550204668"><ele>434.0</ele><time>2026-05-01T11:21:46.999Z</time></trkpt><trkpt lat="42.19885166742126" lon="14.208471506154119"><ele>434.0</ele><time>2026-05-01T11:21:47.999Z</time></trkpt><trkpt lat="42.19892693391114" lon="14.20848230467109"><ele>434.0</ele><time>2026-05-01T11:21:48.999Z</time></trkpt><trkpt lat="42.199040873831" lon="14.208473847063178"><ele>431.6</ele><time>2026-05-01T11:21:50.999Z</time></trkpt><trkpt lat="42.199108904106744" lon="14.208324641175121"><ele>429.2</ele><time>2026-05-01T11:21:52.999Z</time></trkpt><trkpt lat="42.19906922166501" lon="14.208195470158904"><ele>426.8</ele><time>2026-05-01T11:21:53.999Z</time></trkpt><trkpt lat="42.19902640078121" lon="14.208078859715274"><ele>424.40000000000003</ele><time>2026-05-01T11:21:54.999Z</time></trkpt><trkpt lat="42.19900192741786" lon="14.207947464327695"><ele>422.0</ele><time>2026-05-01T11:21:55.999Z</time></trkpt><trkpt lat="42.19898293275901" lon="14.207824200638608"><ele>422.0</ele><time>2026-05-01T11:21:56.999Z</time></trkpt><trkpt lat="42.19897742892298" lon="14.207706237098371"><ele>422.0</ele><time>2026-05-01T11:21:57.999Z</time></trkpt><trkpt lat="42.19896945118732" lon="14.207576767828009"><ele>422.0</ele><time>2026-05-01T11:21:58.999Z</time></trkpt><trkpt lat="42.19902967331473" lon="14.207465721902764"><ele>422.0</ele><time>2026-05-01T11:21:59.999Z</time></trkpt><trkpt lat="42.19909287052693" lon="14.207327873045848"><ele>422.0</ele><time>2026-05-01T11:22:00.999Z</time></trkpt><trkpt lat="42.19917143991358" lon="14.207179222859095"><ele>421.6</ele><time>2026-05-01T11:22:01.999Z</time></trkpt><trkpt lat="42.19924670004172" lon="14.207063480093373"><ele>421.20000000000005</ele><time>2026-05-01T11:22:02.999Z</time></trkpt><trkpt lat="42.199297992614895" lon="14.206973646515811"><ele>420.8</ele><time>2026-05-01T11:22:03.999Z</time></trkpt><trkpt lat="42.19935917549945" lon="14.206924108177825"><ele>420.4</ele><time>2026-05-01T11:22:04.999Z</time></trkpt><trkpt lat="42.19942071487942" lon="14.206945528773282"><ele>420.0</ele><time>2026-05-01T11:22:05.999Z</time></trkpt><trkpt lat="42.199546787499784" lon="14.206949313334793"><ele>420.0</ele><time>2026-05-01T11:22:07.999Z</time></trkpt><trkpt lat="42.19961794149341" lon="14.2069617630855"><ele>420.0</ele><time>2026-05-01T11:22:08.999Z</time></trkpt><trkpt lat="42.19969352805314" lon="14.206988581074098"><ele>420.0</ele><time>2026-05-01T11:22:09.999Z</time></trkpt><trkpt lat="42.19976365791467" lon="14.207036320509422"><ele>420.0</ele><time>2026-05-01T11:22:10.999Z</time></trkpt><trkpt lat="42.19984214687895" lon="14.207077287081255"><ele>420.0</ele><time>2026-05-01T11:22:11.999Z</time></trkpt><trkpt lat="42.199924475260175" lon="14.207142576106943"><ele>420.0</ele><time>2026-05-01T11:22:12.999Z</time></trkpt><trkpt lat="42.199990156918744" lon="14.207237417344054"><ele>419.8333333333333</ele><time>2026-05-01T11:22:13.999Z</time></trkpt><trkpt lat="42.20006987148134" lon="14.207268754193574"><ele>419.66666666666663</ele><time>2026-05-01T11:22:14.999Z</time></trkpt><trkpt lat="42.20012838128134" lon="14.207308443681413"><ele>419.5</ele><time>2026-05-01T11:22:15.999Z</time></trkpt><trkpt lat="42.20019201251326" lon="14.207270084840514"><ele>419.3333333333333</ele><time>2026-05-01T11:22:16.999Z</time></trkpt><trkpt lat="42.2002820756155" lon="14.207308419046521"><ele>419.16666666666663</ele><time>2026-05-01T11:22:18.999Z</time></trkpt><trkpt lat="42.20035918170909" lon="14.20733606227357"><ele>419.0</ele><time>2026-05-01T11:22:19.999Z</time></trkpt><trkpt lat="42.20043824351807" lon="14.207355819116511"><ele>419.0</ele><time>2026-05-01T11:22:20.999Z</time></trkpt><trkpt lat="42.200508872952945" lon="14.207357082279007"><ele>419.0</ele><time>2026-05-01T11:22:21.999Z</time></trkpt><trkpt lat="42.200604631355155" lon="14.20738398402703"><ele>419.0</ele><time>2026-05-01T11:22:23.999Z</time></trkpt><trkpt lat="42.20054764220755" lon="14.207487309387217"><ele>419.0</ele><time>2026-05-01T11:22:26.999Z</time></trkpt><trkpt lat="42.20055391133971" lon="14.20758851549518"><ele>419.0</ele><time>2026-05-01T11:22:27.999Z</time></trkpt><trkpt lat="42.20065388112001" lon="14.207678689563313"><ele>419.0</ele><time>2026-05-01T11:22:28.999Z</time></trkpt><trkpt lat="42.20068278680113" lon="14.207788147908"><ele>419.0</ele><time>2026-05-01T11:22:30.999Z</time></trkpt><trkpt lat="42.20053593536871" lon="14.2078318991814"><ele>419.0</ele><time>2026-05-01T11:22:32.999Z</time></trkpt><trkpt lat="42.20049969288812" lon="14.207956927619787"><ele>419.0</ele><time>2026-05-01T11:22:35.999Z</time></trkpt><trkpt lat="42.20053296906067" lon="14.208123060502238"><ele>417.2</ele><time>2026-05-01T11:22:37.999Z</time></trkpt><trkpt lat="42.200569039650176" lon="14.208230236323443"><ele>415.4</ele><time>2026-05-01T11:22:38.999Z</time></trkpt><trkpt lat="42.200592719484334" lon="14.208317795446112"><ele>413.6</ele><time>2026-05-01T11:22:39.999Z</time></trkpt><trkpt lat="42.20058037348417" lon="14.20849301311449"><ele>411.8</ele><time>2026-05-01T11:22:41.999Z</time></trkpt><trkpt lat="42.20057662110294" lon="14.208611277573905"><ele>410.0</ele><time>2026-05-01T11:22:42.999Z</time></trkpt><trkpt lat="42.20059718658167" lon="14.208729791634635"><ele>410.0</ele><time>2026-05-01T11:22:43.999Z</time></trkpt><trkpt lat="42.20061320987947" lon="14.20883180176847"><ele>410.0</ele><time>2026-05-01T11:22:44.999Z</time></trkpt><trkpt lat="42.20062211489318" lon="14.20892761829725"><ele>410.0</ele><time>2026-05-01T11:22:45.999Z</time></trkpt><trkpt lat="42.20065453744278" lon="14.209082464492443"><ele>410.0</ele><time>2026-05-01T11:22:47.999Z</time></trkpt><trkpt lat="42.20066446879701" lon="14.209245961379352"><ele>410.0</ele><time>2026-05-01T11:22:49.999Z</time></trkpt><trkpt lat="42.20069950396448" lon="14.209318895804765"><ele>411.2</ele><time>2026-05-01T11:22:50.999Z</time></trkpt><trkpt lat="42.2007257509565" lon="14.20944873254841"><ele>412.4</ele><time>2026-05-01T11:22:52.999Z</time></trkpt><trkpt lat="42.200828049999" lon="14.209499544228908"><ele>413.6</ele><time>2026-05-01T11:22:54.999Z</time></trkpt><trkpt lat="42.2009118088513" lon="14.209485650284744"><ele>414.8</ele><time>2026-05-01T11:22:55.999Z</time></trkpt><trkpt lat="42.20100389760028" lon="14.209457652634253"><ele>416.0</ele><time>2026-05-01T11:22:56.998Z</time></trkpt><trkpt lat="42.201095545524396" lon="14.209434398216517"><ele>415.99999999999994</ele><time>2026-05-01T11:22:57.998Z</time></trkpt><trkpt lat="42.20117994027881" lon="14.209410025942445"><ele>416.0</ele><time>2026-05-01T11:22:58.998Z</time></trkpt><trkpt lat="42.20127107663542" lon="14.209411023695598"><ele>416.0</ele><time>2026-05-01T11:22:59.998Z</time></trkpt><trkpt lat="42.20135091668692" lon="14.209421323313297"><ele>416.0</ele><time>2026-05-01T11:23:00.998Z</time></trkpt><trkpt lat="42.201434211232" lon="14.209441435497121"><ele>415.99999999999994</ele><time>2026-05-01T11:23:01.998Z</time></trkpt><trkpt lat="42.20151628861904" lon="14.209469968852048"><ele>416.0</ele><time>2026-05-01T11:23:02.998Z</time></trkpt><trkpt lat="42.2015990047108" lon="14.209474779888156"><ele>415.6</ele><time>2026-05-01T11:23:03.998Z</time></trkpt><trkpt lat="42.20169139190219" lon="14.209449087367869"><ele>415.20000000000005</ele><time>2026-05-01T11:23:04.998Z</time></trkpt><trkpt lat="42.20180627268353" lon="14.209419282356084"><ele>414.79999999999995</ele><time>2026-05-01T11:23:05.998Z</time></trkpt><trkpt lat="42.20189998758771" lon="14.209396836601545"><ele>414.4</ele><time>2026-05-01T11:23:07Z</time></trkpt><trkpt lat="42.20199244519142" lon="14.20941390250364"><ele>414.0</ele><time>2026-05-01T11:23:08Z</time></trkpt><trkpt lat="42.202064211803425" lon="14.20940837690604"><ele>414.0</ele><time>2026-05-01T11:23:09Z</time></trkpt><trkpt lat="42.20212935180949" lon="14.209407066332853"><ele>414.0</ele><time>2026-05-01T11:23:10Z</time></trkpt><trkpt lat="42.20219679032515" lon="14.209397500421879"><ele>414.0</ele><time>2026-05-01T11:23:11Z</time></trkpt><trkpt lat="42.202268829236885" lon="14.209434410230662"><ele>414.0</ele><time>2026-05-01T11:23:12Z</time></trkpt><trkpt lat="42.2023491820628" lon="14.209451534512752"><ele>414.0</ele><time>2026-05-01T11:23:13Z</time></trkpt><trkpt lat="42.20243839465374" lon="14.2094830566321"><ele>414.0</ele><time>2026-05-01T11:23:14Z</time></trkpt><trkpt lat="42.20251335252215" lon="14.209514361393037"><ele>413.5</ele><time>2026-05-01T11:23:15Z</time></trkpt><trkpt lat="42.20258654877218" lon="14.209539334633059"><ele>413.0</ele><time>2026-05-01T11:23:16Z</time></trkpt><trkpt lat="42.20265097491448" lon="14.20955589047258"><ele>412.5</ele><time>2026-05-01T11:23:17Z</time></trkpt><trkpt lat="42.20277583063446" lon="14.20957459000943"><ele>412.0</ele><time>2026-05-01T11:23:19Z</time></trkpt><trkpt lat="42.20284108082158" lon="14.209565581645418"><ele>411.5</ele><time>2026-05-01T11:23:20Z</time></trkpt><trkpt lat="42.20290948383884" lon="14.209549535508017"><ele>411.0</ele><time>2026-05-01T11:23:21Z</time></trkpt><trkpt lat="42.202986904882586" lon="14.209538416446751"><ele>411.0</ele><time>2026-05-01T11:23:22Z</time></trkpt><trkpt lat="42.203052373854725" lon="14.209535088001344"><ele>411.0</ele><time>2026-05-01T11:23:23Z</time></trkpt><trkpt lat="42.20313099467364" lon="14.209789728902349"><ele>411.0</ele><time>2026-05-01T11:23:24Z</time></trkpt><trkpt lat="42.203214344643506" lon="14.209799361819217"><ele>411.0</ele><time>2026-05-01T11:23:25Z</time></trkpt><trkpt lat="42.203321227105874" lon="14.209805997949015"><ele>410.6666666666667</ele><time>2026-05-01T11:23:26Z</time></trkpt><trkpt lat="42.20340583906176" lon="14.20982491585477"><ele>410.33333333333337</ele><time>2026-05-01T11:23:26.999Z</time></trkpt><trkpt lat="42.20349538192195" lon="14.209837064509669"><ele>410.0</ele><time>2026-05-01T11:23:27.999Z</time></trkpt><trkpt lat="42.20357838185776" lon="14.20983405917884"><ele>409.6666666666667</ele><time>2026-05-01T11:23:28.999Z</time></trkpt><trkpt lat="42.20365521823374" lon="14.209841999940245"><ele>409.33333333333337</ele><time>2026-05-01T11:23:29.999Z</time></trkpt><trkpt lat="42.20376135579427" lon="14.209836946948545"><ele>409.0</ele><time>2026-05-01T11:23:31.999Z</time></trkpt><trkpt lat="42.20382348559441" lon="14.209791963109183"><ele>409.0</ele><time>2026-05-01T11:23:32.999Z</time></trkpt><trkpt lat="42.20388244393529" lon="14.209743182963098"><ele>409.0</ele><time>2026-05-01T11:23:33.999Z</time></trkpt><trkpt lat="42.203937862035396" lon="14.209673925227616"><ele>409.0</ele><time>2026-05-01T11:23:34.999Z</time></trkpt><trkpt lat="42.20397924616764" lon="14.20960373730877"><ele>409.0</ele><time>2026-05-01T11:23:35.999Z</time></trkpt><trkpt lat="42.20403311909617" lon="14.209556100578514"><ele>409.0</ele><time>2026-05-01T11:23:36.999Z</time></trkpt><trkpt lat="42.204113925153656" lon="14.209507884209675"><ele>409.0</ele><time>2026-05-01T11:23:37.999Z</time></trkpt><trkpt lat="42.20419608094362" lon="14.2095099017316"><ele>409.0</ele><time>2026-05-01T11:23:38.999Z</time></trkpt><trkpt lat="42.204269098171544" lon="14.209532661300809"><ele>408.33333333333337</ele><time>2026-05-01T11:23:39.999Z</time></trkpt><trkpt lat="42.20433393635207" lon="14.209580747378395"><ele>407.6666666666667</ele><time>2026-05-01T11:23:40.999Z</time></trkpt><trkpt lat="42.204398363293734" lon="14.209625509825202"><ele>407.0</ele><time>2026-05-01T11:23:41.999Z</time></trkpt><trkpt lat="42.20447116272512" lon="14.209682007837145"><ele>406.33333333333337</ele><time>2026-05-01T11:23:42.999Z</time></trkpt><trkpt lat="42.2045297989647" lon="14.2097421404938"><ele>405.6666666666667</ele><time>2026-05-01T11:23:43.999Z</time></trkpt><trkpt lat="42.20458492341541" lon="14.209815141060085"><ele>405.0</ele><time>2026-05-01T11:23:44.999Z</time></trkpt><trkpt lat="42.204635107385904" lon="14.209881222899364"><ele>403.99999999999994</ele><time>2026-05-01T11:23:45.999Z</time></trkpt><trkpt lat="42.20468052812261" lon="14.209950309814984"><ele>403.0</ele><time>2026-05-01T11:23:46.999Z</time></trkpt><trkpt lat="42.20472421474093" lon="14.210022005987705"><ele>402.0</ele><time>2026-05-01T11:23:47.999Z</time></trkpt><trkpt lat="42.20477125204558" lon="14.210090769942068"><ele>401.0</ele><time>2026-05-01T11:23:48.999Z</time></trkpt><trkpt lat="42.20482839827639" lon="14.21014474818252"><ele>400.0</ele><time>2026-05-01T11:23:49.999Z</time></trkpt><trkpt lat="42.20488916088393" lon="14.210207220168625"><ele>398.99999999999994</ele><time>2026-05-01T11:23:50.999Z</time></trkpt><trkpt lat="42.204931450102045" lon="14.210270504733478"><ele>398.0</ele><time>2026-05-01T11:23:51.999Z</time></trkpt><trkpt lat="42.20499092883247" lon="14.21032539861136"><ele>397.99999999999994</ele><time>2026-05-01T11:23:52.999Z</time></trkpt><trkpt lat="42.20506301630558" lon="14.210376620721552"><ele>398.0</ele><time>2026-05-01T11:23:53.999Z</time></trkpt><trkpt lat="42.20512238748348" lon="14.210414313501763"><ele>398.0</ele><time>2026-05-01T11:23:54.999Z</time></trkpt><trkpt lat="42.2051986493464" lon="14.210431868225985"><ele>398.0</ele><time>2026-05-01T11:23:55.999Z</time></trkpt><trkpt lat="42.20529171627565" lon="14.210419334813631"><ele>397.99999999999994</ele><time>2026-05-01T11:23:56.999Z</time></trkpt><trkpt lat="42.20538670731958" lon="14.210404952986854"><ele>398.0</ele><time>2026-05-01T11:23:57.999Z</time></trkpt><trkpt lat="42.205468454598275" lon="14.21041438089512"><ele>397.99999999999994</ele><time>2026-05-01T11:23:58.999Z</time></trkpt><trkpt lat="42.20553209231152" lon="14.210448579617173"><ele>398.0</ele><time>2026-05-01T11:23:59.999Z</time></trkpt><trkpt lat="42.20564022331572" lon="14.210555250297007"><ele>398.0</ele><time>2026-05-01T11:24:01.999Z</time></trkpt><trkpt lat="42.20571022693437" lon="14.210585873895486"><ele>398.0</ele><time>2026-05-01T11:24:02.999Z</time></trkpt><trkpt lat="42.20577890208957" lon="14.21062315257848"><ele>397.99999999999994</ele><time>2026-05-01T11:24:03.999Z</time></trkpt><trkpt lat="42.20583984518799" lon="14.21067662411908"><ele>398.0</ele><time>2026-05-01T11:24:04.999Z</time></trkpt><trkpt lat="42.205911880810696" lon="14.210765456506584"><ele>396.99999999999994</ele><time>2026-05-01T11:24:05.999Z</time></trkpt><trkpt lat="42.20597525868935" lon="14.210836251157954"><ele>396.0</ele><time>2026-05-01T11:24:06.999Z</time></trkpt><trkpt lat="42.206038191332446" lon="14.21087224572289"><ele>395.0</ele><time>2026-05-01T11:24:07.999Z</time></trkpt><trkpt lat="42.206103555565775" lon="14.210872676105915"><ele>394.0</ele><time>2026-05-01T11:24:08.999Z</time></trkpt><trkpt lat="42.206175911353526" lon="14.210868519240213"><ele>392.99999999999994</ele><time>2026-05-01T11:24:09.999Z</time></trkpt><trkpt lat="42.20626433707386" lon="14.21082161062494"><ele>392.0</ele><time>2026-05-01T11:24:11.999Z</time></trkpt><trkpt lat="42.20634388893795" lon="14.210654906932312"><ele>392.0</ele><time>2026-05-01T11:24:13.999Z</time></trkpt><trkpt lat="42.20639745909938" lon="14.210590777620315"><ele>392.0</ele><time>2026-05-01T11:24:14.999Z</time></trkpt><trkpt lat="42.20652030976236" lon="14.210520724110644"><ele>392.0</ele><time>2026-05-01T11:24:16.999Z</time></trkpt><trkpt lat="42.20660524818737" lon="14.210513949277995"><ele>392.0</ele><time>2026-05-01T11:24:17.999Z</time></trkpt><trkpt lat="42.20668226841971" lon="14.210528019138456"><ele>392.0</ele><time>2026-05-01T11:24:18.999Z</time></trkpt><trkpt lat="42.20678455195931" lon="14.210614135950083"><ele>389.8</ele><time>2026-05-01T11:24:20.999Z</time></trkpt><trkpt lat="42.20685666513015" lon="14.210705628848679"><ele>387.6</ele><time>2026-05-01T11:24:21.999Z</time></trkpt><trkpt lat="42.20695320309283" lon="14.210795754752676"><ele>385.40000000000003</ele><time>2026-05-01T11:24:22.999Z</time></trkpt><trkpt lat="42.20703674853379" lon="14.210862605223522"><ele>383.20000000000005</ele><time>2026-05-01T11:24:23.999Z</time></trkpt><trkpt lat="42.207102776990915" lon="14.21094484455503"><ele>381.0</ele><time>2026-05-01T11:24:24.999Z</time></trkpt><trkpt lat="42.20715747369364" lon="14.211035661695284"><ele>381.0</ele><time>2026-05-01T11:24:25.999Z</time></trkpt><trkpt lat="42.207197255432575" lon="14.211106537532165"><ele>381.0</ele><time>2026-05-01T11:24:26.999Z</time></trkpt><trkpt lat="42.207306636530475" lon="14.211102767583583"><ele>381.0</ele><time>2026-05-01T11:24:28.999Z</time></trkpt><trkpt lat="42.20737652652589" lon="14.211105364455097"><ele>381.0</ele><time>2026-05-01T11:24:29.999Z</time></trkpt><trkpt lat="42.20743963877151" lon="14.21113518556853"><ele>381.0</ele><time>2026-05-01T11:24:30.999Z</time></trkpt><trkpt lat="42.20753975159266" lon="14.211216364394314"><ele>381.0</ele><time>2026-05-01T11:24:32.999Z</time></trkpt><trkpt lat="42.207644642438936" lon="14.211214132795225"><ele>381.0</ele><time>2026-05-01T11:24:33.999Z</time></trkpt><trkpt lat="42.20771772773293" lon="14.211198526462363"><ele>381.0</ele><time>2026-05-01T11:24:34.999Z</time></trkpt><trkpt lat="42.207834295758346" lon="14.211263722656382"><ele>381.0</ele><time>2026-05-01T11:24:36.999Z</time></trkpt><trkpt lat="42.20789392742689" lon="14.211323511517039"><ele>381.0</ele><time>2026-05-01T11:24:37.999Z</time></trkpt><trkpt lat="42.20797123742833" lon="14.211364947019018"><ele>381.0</ele><time>2026-05-01T11:24:38.999Z</time></trkpt><trkpt lat="42.20804706169832" lon="14.211383304360442"><ele>381.0</ele><time>2026-05-01T11:24:39.999Z</time></trkpt><trkpt lat="42.2081320901767" lon="14.21142457896457"><ele>380.6</ele><time>2026-05-01T11:24:40.999Z</time></trkpt><trkpt lat="42.20821194323585" lon="14.211464850500802"><ele>380.20000000000005</ele><time>2026-05-01T11:24:41.999Z</time></trkpt><trkpt lat="42.20831952921527" lon="14.211509869168623"><ele>379.79999999999995</ele><time>2026-05-01T11:24:42.999Z</time></trkpt><trkpt lat="42.20839801690756" lon="14.211545446058103"><ele>379.4</ele><time>2026-05-01T11:24:43.999Z</time></trkpt><trkpt lat="42.208512584339765" lon="14.211568548398418"><ele>379.0</ele><time>2026-05-01T11:24:45.999Z</time></trkpt><trkpt lat="42.20858617098592" lon="14.211539172205752"><ele>377.66666666666663</ele><time>2026-05-01T11:24:46.999Z</time></trkpt><trkpt lat="42.20865243805942" lon="14.211512465325905"><ele>376.3333333333333</ele><time>2026-05-01T11:24:47.999Z</time></trkpt><trkpt lat="42.20873187487451" lon="14.211539346848719"><ele>375.0</ele><time>2026-05-01T11:24:48.999Z</time></trkpt><trkpt lat="42.20880417738528" lon="14.211590818127766"><ele>373.6666666666667</ele><time>2026-05-01T11:24:49.999Z</time></trkpt><trkpt lat="42.20887877193761" lon="14.211644971709925"><ele>372.33333333333337</ele><time>2026-05-01T11:24:50.999Z</time></trkpt><trkpt lat="42.20892263211398" lon="14.211723814379111"><ele>371.0</ele><time>2026-05-01T11:24:51.999Z</time></trkpt><trkpt lat="42.208955922139666" lon="14.211814116102241"><ele>371.0</ele><time>2026-05-01T11:24:52.999Z</time></trkpt><trkpt lat="42.20899117964731" lon="14.21189405766151"><ele>371.0</ele><time>2026-05-01T11:24:53.999Z</time></trkpt><trkpt lat="42.209108093887345" lon="14.211989234911702"><ele>371.0</ele><time>2026-05-01T11:24:55.999Z</time></trkpt><trkpt lat="42.20916637004073" lon="14.212032380395895"><ele>371.0</ele><time>2026-05-01T11:24:56.999Z</time></trkpt><trkpt lat="42.209259236806304" lon="14.212087672214858"><ele>371.0</ele><time>2026-05-01T11:24:57.999Z</time></trkpt><trkpt lat="42.20936672268704" lon="14.212124246823105"><ele>370.83333333333337</ele><time>2026-05-01T11:24:58.999Z</time></trkpt><trkpt lat="42.209451386466135" lon="14.212162805740407"><ele>370.6666666666667</ele><time>2026-05-01T11:24:59.999Z</time></trkpt><trkpt lat="42.20953370476537" lon="14.212194794213946"><ele>370.5</ele><time>2026-05-01T11:25:00.999Z</time></trkpt><trkpt lat="42.209624584062304" lon="14.212227119566863"><ele>370.3333333333333</ele><time>2026-05-01T11:25:01.999Z</time></trkpt><trkpt lat="42.209707169008254" lon="14.212258320779021"><ele>370.16666666666663</ele><time>2026-05-01T11:25:02.999Z</time></trkpt><trkpt lat="42.20977094353501" lon="14.212290376901109"><ele>370.0</ele><time>2026-05-01T11:25:03.999Z</time></trkpt><trkpt lat="42.20986863845283" lon="14.212278132328642"><ele>369.4</ele><time>2026-05-01T11:25:05.999Z</time></trkpt><trkpt lat="42.20994673516965" lon="14.212231212376949"><ele>368.8</ele><time>2026-05-01T11:25:07.999Z</time></trkpt><trkpt lat="42.209973738123715" lon="14.212318326873723"><ele>368.20000000000005</ele><time>2026-05-01T11:25:10.999Z</time></trkpt><trkpt lat="42.209952466738386" lon="14.21245081240082"><ele>367.6</ele><time>2026-05-01T11:25:12Z</time></trkpt><trkpt lat="42.20990568097243" lon="14.212595013444774"><ele>367.0</ele><time>2026-05-01T11:25:13Z</time></trkpt><trkpt lat="42.20982723435737" lon="14.212713428292105"><ele>366.8</ele><time>2026-05-01T11:25:14Z</time></trkpt><trkpt lat="42.20973272396355" lon="14.212756822011817"><ele>366.6</ele><time>2026-05-01T11:25:15Z</time></trkpt><trkpt lat="42.20965686426463" lon="14.212842725059327"><ele>366.40000000000003</ele><time>2026-05-01T11:25:16Z</time></trkpt><trkpt lat="42.209581903472355" lon="14.212902467301802"><ele>366.20000000000005</ele><time>2026-05-01T11:25:17Z</time></trkpt><trkpt lat="42.2095572902659" lon="14.212993527676563"><ele>366.0</ele><time>2026-05-01T11:25:18Z</time></trkpt><trkpt lat="42.20956005936487" lon="14.213127453684153"><ele>365.0</ele><time>2026-05-01T11:25:19Z</time></trkpt><trkpt lat="42.209610980422916" lon="14.213270952311571"><ele>364.0</ele><time>2026-05-01T11:25:20Z</time></trkpt><trkpt lat="42.209689659956545" lon="14.213421719140712"><ele>363.0</ele><time>2026-05-01T11:25:21Z</time></trkpt><trkpt lat="42.20976076273337" lon="14.213613850866421"><ele>362.0</ele><time>2026-05-01T11:25:22Z</time></trkpt><trkpt lat="42.20979883622145" lon="14.213817339600762"><ele>363.0</ele><time>2026-05-01T11:25:23Z</time></trkpt><trkpt lat="42.209823972427806" lon="14.21401296174359"><ele>364.0</ele><time>2026-05-01T11:25:24Z</time></trkpt><trkpt lat="42.20987136356803" lon="14.214144923614386"><ele>365.0</ele><time>2026-05-01T11:25:25Z</time></trkpt><trkpt lat="42.20992714399104" lon="14.214282533699633"><ele>366.0</ele><time>2026-05-01T11:25:26Z</time></trkpt><trkpt lat="42.210049104686185" lon="14.214349925284358"><ele>364.0</ele><time>2026-05-01T11:25:27Z</time></trkpt><trkpt lat="42.21016826868877" lon="14.214426372141794"><ele>362.0</ele><time>2026-05-01T11:25:28Z</time></trkpt><trkpt lat="42.21024341600293" lon="14.214531348846295"><ele>360.0</ele><time>2026-05-01T11:25:29Z</time></trkpt><trkpt lat="42.210269445112885" lon="14.214663848352268"><ele>358.0</ele><time>2026-05-01T11:25:30Z</time></trkpt><trkpt lat="42.21021905907256" lon="14.214808613083909"><ele>360.25</ele><time>2026-05-01T11:25:31Z</time></trkpt><trkpt lat="42.21017967012135" lon="14.214962613081418"><ele>362.5</ele><time>2026-05-01T11:25:32Z</time></trkpt><trkpt lat="42.21016782660528" lon="14.21514893464803"><ele>364.75</ele><time>2026-05-01T11:25:33Z</time></trkpt><trkpt lat="42.21013738918287" lon="14.215340733021641"><ele>367.0</ele><time>2026-05-01T11:25:34Z</time></trkpt><trkpt lat="42.21011728456089" lon="14.215551735295175"><ele>371.0</ele><time>2026-05-01T11:25:35Z</time></trkpt><trkpt lat="42.21009758015939" lon="14.215782728214107"><ele>375.0</ele><time>2026-05-01T11:25:36Z</time></trkpt><trkpt lat="42.210073924103405" lon="14.216008347821505"><ele>379.0</ele><time>2026-05-01T11:25:37Z</time></trkpt><trkpt lat="42.21004833935246" lon="14.216229896540568"><ele>379.0</ele><time>2026-05-01T11:25:38Z</time></trkpt><trkpt lat="42.21002034094833" lon="14.216440746160949"><ele>379.0</ele><time>2026-05-01T11:25:39Z</time></trkpt><trkpt lat="42.209986336288836" lon="14.216614604457913"><ele>379.0</ele><time>2026-05-01T11:25:40Z</time></trkpt><trkpt lat="42.20994547699806" lon="14.21676428594934"><ele>379.0</ele><time>2026-05-01T11:25:41Z</time></trkpt><trkpt lat="42.20989904624752" lon="14.216896750644104"><ele>379.2</ele><time>2026-05-01T11:25:42Z</time></trkpt><trkpt lat="42.20985952578952" lon="14.217014553454066"><ele>379.4</ele><time>2026-05-01T11:25:43Z</time></trkpt><trkpt lat="42.209824089064554" lon="14.217136292158827"><ele>379.6</ele><time>2026-05-01T11:25:44Z</time></trkpt><trkpt lat="42.20980455935191" lon="14.217270262885057"><ele>379.8</ele><time>2026-05-01T11:25:45Z</time></trkpt><trkpt lat="42.209794199924346" lon="14.217389544099587"><ele>380.0</ele><time>2026-05-01T11:25:46Z</time></trkpt><trkpt lat="42.20978911830951" lon="14.217504738328428"><ele>383.0</ele><time>2026-05-01T11:25:47Z</time></trkpt><trkpt lat="42.2097904298576" lon="14.217616110505066"><ele>386.0</ele><time>2026-05-01T11:25:48Z</time></trkpt><trkpt lat="42.209787151020585" lon="14.217712875242244"><ele>389.0</ele><time>2026-05-01T11:25:49Z</time></trkpt><trkpt lat="42.20977572834445" lon="14.217849505290431"><ele>392.0</ele><time>2026-05-01T11:25:51Z</time></trkpt><trkpt lat="42.209775730675965" lon="14.217948185079965"><ele>395.0</ele><time>2026-05-01T11:25:53Z</time></trkpt><trkpt lat="42.20978342928867" lon="14.217740760336696"><ele>395.0</ele><time>2026-05-01T11:25:59Z</time></trkpt><trkpt lat="42.20981404449958" lon="14.217587269463975"><ele>395.0</ele><time>2026-05-01T11:25:59.999Z</time></trkpt><trkpt lat="42.20982165142172" lon="14.21742474914337"><ele>395.0</ele><time>2026-05-01T11:26:00.999Z</time></trkpt><trkpt lat="42.2098264083088" lon="14.21726348732594"><ele>395.0</ele><time>2026-05-01T11:26:01.999Z</time></trkpt><trkpt lat="42.20985005241565" lon="14.217102891436033"><ele>392.0</ele><time>2026-05-01T11:26:02.999Z</time></trkpt><trkpt lat="42.20990490545143" lon="14.216968032167296"><ele>389.0</ele><time>2026-05-01T11:26:03.999Z</time></trkpt><trkpt lat="42.20993684868587" lon="14.216816860248835"><ele>386.0</ele><time>2026-05-01T11:26:04.999Z</time></trkpt><trkpt lat="42.209985016761244" lon="14.216691661200398"><ele>383.0</ele><time>2026-05-01T11:26:05.999Z</time></trkpt><trkpt lat="42.21001777825321" lon="14.216565438052328"><ele>380.0</ele><time>2026-05-01T11:26:06.999Z</time></trkpt><trkpt lat="42.21004442632081" lon="14.216429955559056"><ele>379.83333333333337</ele><time>2026-05-01T11:26:07.999Z</time></trkpt><trkpt lat="42.210062400356726" lon="14.216302623000189"><ele>379.6666666666667</ele><time>2026-05-01T11:26:08.999Z</time></trkpt><trkpt lat="42.21007848421464" lon="14.21619891515355"><ele>379.5</ele><time>2026-05-01T11:26:09.999Z</time></trkpt><trkpt lat="42.21008973820034" lon="14.216111893514537"><ele>379.3333333333333</ele><time>2026-05-01T11:26:10.999Z</time></trkpt><trkpt lat="42.21010873106765" lon="14.215965496951227"><ele>379.16666666666663</ele><time>2026-05-01T11:26:12.999Z</time></trkpt><trkpt lat="42.21013364683157" lon="14.215869880064686"><ele>379.0</ele><time>2026-05-01T11:26:15.999Z</time></trkpt><trkpt lat="42.2101374407593" lon="14.215698722569721"><ele>376.6</ele><time>2026-05-01T11:26:18.999Z</time></trkpt><trkpt lat="42.21013277076174" lon="14.215567341462728"><ele>374.2</ele><time>2026-05-01T11:26:19.999Z</time></trkpt><trkpt lat="42.210143895476065" lon="14.215439149870152"><ele>371.8</ele><time>2026-05-01T11:26:20.999Z</time></trkpt><trkpt lat="42.210157686758585" lon="14.21532432264078"><ele>369.40000000000003</ele><time>2026-05-01T11:26:21.999Z</time></trkpt><trkpt lat="42.210167199917876" lon="14.21520050226801"><ele>367.0</ele><time>2026-05-01T11:26:22.999Z</time></trkpt><trkpt lat="42.210184531721325" lon="14.21508409330165"><ele>367.0</ele><time>2026-05-01T11:26:23.999Z</time></trkpt><trkpt lat="42.21020247067898" lon="14.214999366543829"><ele>367.0</ele><time>2026-05-01T11:26:24.999Z</time></trkpt><trkpt lat="42.21022319809794" lon="14.214900707248283"><ele>367.0</ele><time>2026-05-01T11:26:26.999Z</time></trkpt><trkpt lat="42.210277546510326" lon="14.214811962772785"><ele>367.0</ele><time>2026-05-01T11:26:29.999Z</time></trkpt><trkpt lat="42.210289261754774" lon="14.214589945177972"><ele>367.0</ele><time>2026-05-01T11:27:10.999Z</time></trkpt><trkpt lat="42.210267987761405" lon="14.214485680958305"><ele>365.5</ele><time>2026-05-01T11:27:11.999Z</time></trkpt><trkpt lat="42.210218278293894" lon="14.214397249339955"><ele>364.0</ele><time>2026-05-01T11:27:12.999Z</time></trkpt><trkpt lat="42.2101442447706" lon="14.214329279465568"><ele>362.5</ele><time>2026-05-01T11:27:13.999Z</time></trkpt><trkpt lat="42.21006290634934" lon="14.21428797920062"><ele>361.0</ele><time>2026-05-01T11:27:14.999Z</time></trkpt><trkpt lat="42.20998460680546" lon="14.214243357792983"><ele>359.5</ele><time>2026-05-01T11:27:15.999Z</time></trkpt><trkpt lat="42.20991907672681" lon="14.214196656267756"><ele>358.0</ele><time>2026-05-01T11:27:16.999Z</time></trkpt><trkpt lat="42.20987380678163" lon="14.214116316960181"><ele>358.0</ele><time>2026-05-01T11:27:18Z</time></trkpt><trkpt lat="42.20984309580417" lon="14.214018430515624"><ele>358.0</ele><time>2026-05-01T11:27:19Z</time></trkpt><trkpt lat="42.2098405958626" lon="14.21390539323379"><ele>358.0</ele><time>2026-05-01T11:27:20Z</time></trkpt><trkpt lat="42.20982962054545" lon="14.21379565879098"><ele>358.0</ele><time>2026-05-01T11:27:21Z</time></trkpt><trkpt lat="42.20980490010823" lon="14.213690368125507"><ele>358.0</ele><time>2026-05-01T11:27:22Z</time></trkpt><trkpt lat="42.20979443739691" lon="14.213585958812276"><ele>358.0</ele><time>2026-05-01T11:27:23Z</time></trkpt><trkpt lat="42.20976702185695" lon="14.21347996363286"><ele>358.66666666666663</ele><time>2026-05-01T11:27:24Z</time></trkpt><trkpt lat="42.209721792649134" lon="14.213380216748908"><ele>359.3333333333333</ele><time>2026-05-01T11:27:25Z</time></trkpt><trkpt lat="42.209670147851654" lon="14.213286399193459"><ele>360.0</ele><time>2026-05-01T11:27:26Z</time></trkpt><trkpt lat="42.20962087082716" lon="14.213192403903703"><ele>360.6666666666667</ele><time>2026-05-01T11:27:27Z</time></trkpt><trkpt lat="42.20958774945744" lon="14.213092137288372"><ele>361.33333333333337</ele><time>2026-05-01T11:27:28Z</time></trkpt><trkpt lat="42.20958180758202" lon="14.21298506933365"><ele>362.0</ele><time>2026-05-01T11:27:29Z</time></trkpt><trkpt lat="42.2096087642702" lon="14.21289836005489"><ele>362.1666666666667</ele><time>2026-05-01T11:27:30Z</time></trkpt><trkpt lat="42.20966139001" lon="14.212828618917632"><ele>362.33333333333337</ele><time>2026-05-01T11:27:31Z</time></trkpt><trkpt lat="42.20973548429179" lon="14.212808233875371"><ele>362.5</ele><time>2026-05-01T11:27:32Z</time></trkpt><trkpt lat="42.20980968516093" lon="14.212769785057574"><ele>362.6666666666667</ele><time>2026-05-01T11:27:33Z</time></trkpt><trkpt lat="42.20986782471248" lon="14.212725112926076"><ele>362.8333333333333</ele><time>2026-05-01T11:27:34Z</time></trkpt><trkpt lat="42.20992485419679" lon="14.212652902205415"><ele>363.0</ele><time>2026-05-01T11:27:35Z</time></trkpt><trkpt lat="42.20996759149183" lon="14.212567969178798"><ele>363.0</ele><time>2026-05-01T11:27:36Z</time></trkpt><trkpt lat="42.209986673882064" lon="14.212431801506794"><ele>363.0</ele><time>2026-05-01T11:27:38Z</time></trkpt><trkpt lat="42.20998137011993" lon="14.212327822851732"><ele>363.0</ele><time>2026-05-01T11:27:40Z</time></trkpt><trkpt lat="42.20997368879717" lon="14.212226166090174"><ele>363.0</ele><time>2026-05-01T11:27:42Z</time></trkpt><trkpt lat="42.20992770169047" lon="14.212468019038857"><ele>363.0</ele><time>2026-05-01T11:27:48Z</time></trkpt><trkpt lat="42.20989665137167" lon="14.21260009896269"><ele>363.0</ele><time>2026-05-01T11:27:49Z</time></trkpt><trkpt lat="42.20984572378139" lon="14.212695516999224"><ele>363.0</ele><time>2026-05-01T11:27:50Z</time></trkpt><trkpt lat="42.209788216260954" lon="14.21273996943699"><ele>363.0</ele><time>2026-05-01T11:27:51Z</time></trkpt><trkpt lat="42.209702156109095" lon="14.212734340119903"><ele>363.0</ele><time>2026-05-01T11:27:53Z</time></trkpt><trkpt lat="42.20968484776055" lon="14.212826720816494"><ele>363.0</ele><time>2026-05-01T11:27:57Z</time></trkpt><trkpt lat="42.209782280458576" lon="14.21274271352595"><ele>363.0</ele><time>2026-05-01T11:28:01Z</time></trkpt><trkpt lat="42.2098912173317" lon="14.212681491396813"><ele>363.0</ele><time>2026-05-01T11:28:03Z</time></trkpt><trkpt lat="42.209932700650015" lon="14.21260594280052"><ele>363.0</ele><time>2026-05-01T11:28:04Z</time></trkpt><trkpt lat="42.209957863688366" lon="14.212515648122952"><ele>363.0</ele><time>2026-05-01T11:28:05Z</time></trkpt><trkpt lat="42.20997416795855" lon="14.212419763126546"><ele>363.0</ele><time>2026-05-01T11:28:06Z</time></trkpt><trkpt lat="42.20997733676906" lon="14.212269374057728"><ele>363.0</ele><time>2026-05-01T11:28:08Z</time></trkpt><trkpt lat="42.20987097177956" lon="14.212238936238995"><ele>363.0</ele><time>2026-05-01T11:28:12Z</time></trkpt><trkpt lat="42.20980409350937" lon="14.212282268509087"><ele>364.4</ele><time>2026-05-01T11:28:12.999Z</time></trkpt><trkpt lat="42.209739597601036" lon="14.212304733575131"><ele>365.79999999999995</ele><time>2026-05-01T11:28:13.999Z</time></trkpt><trkpt lat="42.209614273998405" lon="14.212223565905163"><ele>367.2</ele><time>2026-05-01T11:28:15.999Z</time></trkpt><trkpt lat="42.20952810432577" lon="14.212185551600388"><ele>368.6</ele><time>2026-05-01T11:28:16.999Z</time></trkpt><trkpt lat="42.20943879132411" lon="14.21215480225044"><ele>370.0</ele><time>2026-05-01T11:28:17.999Z</time></trkpt><trkpt lat="42.20935897750661" lon="14.212116663216163"><ele>370.0</ele><time>2026-05-01T11:28:18.999Z</time></trkpt><trkpt lat="42.20928906898282" lon="14.21208006103035"><ele>370.0</ele><time>2026-05-01T11:28:19.999Z</time></trkpt><trkpt lat="42.20920281668179" lon="14.21204004734994"><ele>370.0</ele><time>2026-05-01T11:28:21.999Z</time></trkpt><trkpt lat="42.209111177802924" lon="14.211989639863031"><ele>370.0</ele><time>2026-05-01T11:28:23.999Z</time></trkpt><trkpt lat="42.20904799899577" lon="14.211933697825792"><ele>370.0</ele><time>2026-05-01T11:28:25.999Z</time></trkpt><trkpt lat="42.20897168785661" lon="14.21192743873907"><ele>370.0</ele><time>2026-05-01T11:28:28.999Z</time></trkpt><trkpt lat="42.209046233671366" lon="14.211921831210669"><ele>370.0</ele><time>2026-05-01T11:28:34.999Z</time></trkpt><trkpt lat="42.20910255516816" lon="14.211979746112386"><ele>370.0</ele><time>2026-05-01T11:28:35.999Z</time></trkpt><trkpt lat="42.20915926648903" lon="14.212029407045344"><ele>370.0</ele><time>2026-05-01T11:28:36.999Z</time></trkpt><trkpt lat="42.209262431270105" lon="14.212081982970604"><ele>370.0</ele><time>2026-05-01T11:28:38.999Z</time></trkpt><trkpt lat="42.209329629387646" lon="14.212105900044023"><ele>370.0</ele><time>2026-05-01T11:28:39.999Z</time></trkpt><trkpt lat="42.20939503320073" lon="14.212138308144553"><ele>370.0</ele><time>2026-05-01T11:28:40.999Z</time></trkpt><trkpt lat="42.20950439035537" lon="14.212190415385718"><ele>370.0</ele><time>2026-05-01T11:28:42.999Z</time></trkpt><trkpt lat="42.20960855606131" lon="14.212220941818941"><ele>370.0</ele><time>2026-05-01T11:28:44.999Z</time></trkpt><trkpt lat="42.20971781845416" lon="14.212270745478985"><ele>370.0</ele><time>2026-05-01T11:28:46.999Z</time></trkpt><trkpt lat="42.209809506760976" lon="14.212280422353995"><ele>370.0</ele><time>2026-05-01T11:28:48.999Z</time></trkpt><trkpt lat="42.20990016508931" lon="14.212233307876566"><ele>370.0</ele><time>2026-05-01T11:28:50.999Z</time></trkpt><trkpt lat="42.209956123406066" lon="14.212329471545532"><ele>369.2</ele><time>2026-05-01T11:28:55.999Z</time></trkpt><trkpt lat="42.209942625426905" lon="14.212469788329358"><ele>368.4</ele><time>2026-05-01T11:28:56.999Z</time></trkpt><trkpt lat="42.20990077376986" lon="14.212598311990869"><ele>367.6</ele><time>2026-05-01T11:28:57.999Z</time></trkpt><trkpt lat="42.20985115249269" lon="14.212702369097578"><ele>366.8</ele><time>2026-05-01T11:28:58.999Z</time></trkpt><trkpt lat="42.20976464153218" lon="14.212741730406405"><ele>366.0</ele><time>2026-05-01T11:28:59.999Z</time></trkpt><trkpt lat="42.20967778077417" lon="14.212806237945452"><ele>366.0</ele><time>2026-05-01T11:29:00.999Z</time></trkpt><trkpt lat="42.209604242129444" lon="14.212876703815041"><ele>366.0</ele><time>2026-05-01T11:29:01.999Z</time></trkpt><trkpt lat="42.209555352875036" lon="14.212963627422733"><ele>366.0</ele><time>2026-05-01T11:29:02.999Z</time></trkpt><trkpt lat="42.20953615218199" lon="14.213073855068151"><ele>366.0</ele><time>2026-05-01T11:29:03.999Z</time></trkpt><trkpt lat="42.209558148646906" lon="14.213192236148613"><ele>366.0</ele><time>2026-05-01T11:29:04.999Z</time></trkpt><trkpt lat="42.209610973552614" lon="14.213322664895975"><ele>365.0</ele><time>2026-05-01T11:29:05.999Z</time></trkpt><trkpt lat="42.20968630353937" lon="14.213454768184295"><ele>364.0</ele><time>2026-05-01T11:29:06.999Z</time></trkpt><trkpt lat="42.209758003257676" lon="14.213597461851705"><ele>363.0</ele><time>2026-05-01T11:29:07.999Z</time></trkpt><trkpt lat="42.20980681204156" lon="14.213778315834356"><ele>362.0</ele><time>2026-05-01T11:29:08.999Z</time></trkpt><trkpt lat="42.20981868359936" lon="14.213980397192264"><ele>361.20000000000005</ele><time>2026-05-01T11:29:09.999Z</time></trkpt><trkpt lat="42.20986734882609" lon="14.214127035341615"><ele>360.4</ele><time>2026-05-01T11:29:10.999Z</time></trkpt><trkpt lat="42.209891481130256" lon="14.214254744907446"><ele>359.6</ele><time>2026-05-01T11:29:11.999Z</time></trkpt><trkpt lat="42.20997487112052" lon="14.214322517435214"><ele>358.79999999999995</ele><time>2026-05-01T11:29:12.999Z</time></trkpt><trkpt lat="42.2100587060869" lon="14.214363399198367"><ele>358.0</ele><time>2026-05-01T11:29:13.999Z</time></trkpt><trkpt lat="42.2101453301702" lon="14.214393385756278"><ele>358.0</ele><time>2026-05-01T11:29:14.999Z</time></trkpt><trkpt lat="42.210204084829236" lon="14.214469805145601"><ele>358.0</ele><time>2026-05-01T11:29:15.999Z</time></trkpt><trkpt lat="42.21025881065713" lon="14.214541255519869"><ele>358.0</ele><time>2026-05-01T11:29:16.999Z</time></trkpt><trkpt lat="42.210250549723725" lon="14.214656286508124"><ele>358.0</ele><time>2026-05-01T11:29:17.999Z</time></trkpt><trkpt lat="42.21024175608246" lon="14.214749677087946"><ele>358.0</ele><time>2026-05-01T11:29:18.999Z</time></trkpt><trkpt lat="42.21019681787011" lon="14.214892127241303"><ele>358.0</ele><time>2026-05-01T11:29:20.999Z</time></trkpt><trkpt lat="42.21018932890661" lon="14.214980565208101"><ele>360.25</ele><time>2026-05-01T11:29:21.999Z</time></trkpt><trkpt lat="42.21000416926613" lon="14.214957936644515"><ele>362.5</ele><time>2026-05-01T11:29:26Z</time></trkpt><trkpt lat="42.209925619405475" lon="14.214966137094853"><ele>364.75</ele><time>2026-05-01T11:29:27Z</time></trkpt><trkpt lat="42.2098438360378" lon="14.214990772485288"><ele>367.0</ele><time>2026-05-01T11:29:28Z</time></trkpt><trkpt lat="42.209742383177" lon="14.215015902639195"><ele>369.20000000000005</ele><time>2026-05-01T11:29:29Z</time></trkpt><trkpt lat="42.209627472277205" lon="14.21492260988218"><ele>371.4</ele><time>2026-05-01T11:29:30Z</time></trkpt><trkpt lat="42.20952373435745" lon="14.214896437521432"><ele>373.6</ele><time>2026-05-01T11:29:31Z</time></trkpt><trkpt lat="42.20943727589678" lon="14.214889830517242"><ele>375.79999999999995</ele><time>2026-05-01T11:29:32Z</time></trkpt><trkpt lat="42.209363981782246" lon="14.214890534927724"><ele>378.0</ele><time>2026-05-01T11:29:33Z</time></trkpt><trkpt lat="42.209268857572525" lon="14.21489175598013"><ele>378.0</ele><time>2026-05-01T11:29:34Z</time></trkpt><trkpt lat="42.209185269472194" lon="14.214893810890334"><ele>378.0</ele><time>2026-05-01T11:29:35Z</time></trkpt><trkpt lat="42.209100921969004" lon="14.214867465176683"><ele>378.0</ele><time>2026-05-01T11:29:36Z</time></trkpt><trkpt lat="42.20901970854337" lon="14.214840038852868"><ele>378.0</ele><time>2026-05-01T11:29:37Z</time></trkpt><trkpt lat="42.20892166882699" lon="14.214770148162867"><ele>378.0</ele><time>2026-05-01T11:29:39Z</time></trkpt><trkpt lat="42.20887332113589" lon="14.214639936530034"><ele>379.2</ele><time>2026-05-01T11:29:41Z</time></trkpt><trkpt lat="42.20883382334683" lon="14.214519810526689"><ele>380.4</ele><time>2026-05-01T11:29:43Z</time></trkpt><trkpt lat="42.20882702303018" lon="14.214380826920555"><ele>381.59999999999997</ele><time>2026-05-01T11:29:45Z</time></trkpt><trkpt lat="42.20881940131626" lon="14.214276087383166"><ele>382.79999999999995</ele><time>2026-05-01T11:29:47Z</time></trkpt><trkpt lat="42.2088044713095" lon="14.214149416905956"><ele>384.0</ele><time>2026-05-01T11:29:49Z</time></trkpt><trkpt lat="42.20881935592781" lon="14.214028008756172"><ele>382.79999999999995</ele><time>2026-05-01T11:29:51Z</time></trkpt><trkpt lat="42.208760174374774" lon="14.213922838319416"><ele>381.59999999999997</ele><time>2026-05-01T11:29:53Z</time></trkpt><trkpt lat="42.208672582846475" lon="14.213808175540116"><ele>380.4</ele><time>2026-05-01T11:29:55Z</time></trkpt><trkpt lat="42.20858548762784" lon="14.213720553538247"><ele>379.2</ele><time>2026-05-01T11:29:57Z</time></trkpt><trkpt lat="42.208509043857504" lon="14.213640859437753"><ele>378.0</ele><time>2026-05-01T11:29:59Z</time></trkpt><trkpt lat="42.208428450208736" lon="14.213549535459657"><ele>378.0</ele><time>2026-05-01T11:30:01Z</time></trkpt><trkpt lat="42.208386187538096" lon="14.213484539577696"><ele>378.0</ele><time>2026-05-01T11:30:02Z</time></trkpt><trkpt lat="42.208345554013675" lon="14.213409073117871"><ele>378.0</ele><time>2026-05-01T11:30:03Z</time></trkpt><trkpt lat="42.208230993157265" lon="14.213323078779425"><ele>378.0</ele><time>2026-05-01T11:30:05Z</time></trkpt><trkpt lat="42.208171179768904" lon="14.213296442800173"><ele>378.0</ele><time>2026-05-01T11:30:06Z</time></trkpt><trkpt lat="42.208083870792585" lon="14.213272635819575"><ele>378.0</ele><time>2026-05-01T11:30:08Z</time></trkpt><trkpt lat="42.20801973441067" lon="14.213270038435384"><ele>376.79999999999995</ele><time>2026-05-01T11:30:09Z</time></trkpt><trkpt lat="42.20790436609401" lon="14.213253510108123"><ele>375.6</ele><time>2026-05-01T11:30:11Z</time></trkpt><trkpt lat="42.207839029932146" lon="14.213277486803513"><ele>374.4</ele><time>2026-05-01T11:30:12Z</time></trkpt><trkpt lat="42.20772921159707" lon="14.213281395302058"><ele>373.20000000000005</ele><time>2026-05-01T11:30:14Z</time></trkpt><trkpt lat="42.207618659530226" lon="14.213195586774729"><ele>372.0</ele><time>2026-05-01T11:30:16Z</time></trkpt><trkpt lat="42.20753641285584" lon="14.213154834074091"><ele>372.0</ele><time>2026-05-01T11:30:17Z</time></trkpt><trkpt lat="42.20747099102438" lon="14.213150601102521"><ele>372.0</ele><time>2026-05-01T11:30:18Z</time></trkpt><trkpt lat="42.207352694543104" lon="14.213176784892891"><ele>372.0</ele><time>2026-05-01T11:30:20Z</time></trkpt><trkpt lat="42.20728098419481" lon="14.213191716795643"><ele>372.0</ele><time>2026-05-01T11:30:21Z</time></trkpt><trkpt lat="42.20720067354693" lon="14.213254979590644"><ele>372.0</ele><time>2026-05-01T11:30:23Z</time></trkpt><trkpt lat="42.2071522530156" lon="14.213312252971054"><ele>372.0</ele><time>2026-05-01T11:30:23.999Z</time></trkpt><trkpt lat="42.20709148901593" lon="14.213344890339526"><ele>378.0</ele><time>2026-05-01T11:30:24.999Z</time></trkpt><trkpt lat="42.2070270161758" lon="14.213330856380026"><ele>384.0</ele><time>2026-05-01T11:30:25.999Z</time></trkpt><trkpt lat="42.206856642024036" lon="14.213333264225481"><ele>390.0</ele><time>2026-05-01T11:30:27.999Z</time></trkpt><trkpt lat="42.20672719361011" lon="14.21334182883"><ele>396.0</ele><time>2026-05-01T11:30:29.999Z</time></trkpt><trkpt lat="42.20665742672336" lon="14.213398577460268"><ele>402.0</ele><time>2026-05-01T11:30:30.999Z</time></trkpt><trkpt lat="42.206561883558464" lon="14.213440820780095"><ele>403.1428571428571</ele><time>2026-05-01T11:30:31.999Z</time></trkpt><trkpt lat="42.20647475687158" lon="14.213468694380333"><ele>404.28571428571433</ele><time>2026-05-01T11:30:32.999Z</time></trkpt><trkpt lat="42.20640922422899" lon="14.213486558382403"><ele>405.42857142857144</ele><time>2026-05-01T11:30:33.999Z</time></trkpt><trkpt lat="42.20634555751024" lon="14.213478233053648"><ele>406.57142857142856</ele><time>2026-05-01T11:30:34.999Z</time></trkpt><trkpt lat="42.20627224145857" lon="14.213461237681527"><ele>407.71428571428567</ele><time>2026-05-01T11:30:35.999Z</time></trkpt><trkpt lat="42.206203743465124" lon="14.213429398982099"><ele>408.8571428571429</ele><time>2026-05-01T11:30:36.999Z</time></trkpt><trkpt lat="42.206132130748784" lon="14.213397311699222"><ele>410.0</ele><time>2026-05-01T11:30:37.999Z</time></trkpt><trkpt lat="42.20605862830747" lon="14.213400561888086"><ele>409.99999999999994</ele><time>2026-05-01T11:30:38.999Z</time></trkpt><trkpt lat="42.20597621034999" lon="14.21343671473578"><ele>410.0</ele><time>2026-05-01T11:30:39.999Z</time></trkpt><trkpt lat="42.20588711151199" lon="14.213461762942098"><ele>410.0</ele><time>2026-05-01T11:30:40.999Z</time></trkpt><trkpt lat="42.20579858737192" lon="14.213475820042595"><ele>410.0</ele><time>2026-05-01T11:30:41.999Z</time></trkpt><trkpt lat="42.20572262556049" lon="14.21347812972297"><ele>409.99999999999994</ele><time>2026-05-01T11:30:42.999Z</time></trkpt><trkpt lat="42.205635976859135" lon="14.213460937332044"><ele>410.0</ele><time>2026-05-01T11:30:43.999Z</time></trkpt><trkpt lat="42.20554788297776" lon="14.213441036993315"><ele>410.8333333333333</ele><time>2026-05-01T11:30:44.999Z</time></trkpt><trkpt lat="42.20543744340942" lon="14.21343509290749"><ele>411.66666666666663</ele><time>2026-05-01T11:30:46.999Z</time></trkpt><trkpt lat="42.20534998641237" lon="14.213425248178774"><ele>412.5</ele><time>2026-05-01T11:30:47.999Z</time></trkpt><trkpt lat="42.2052626467881" lon="14.213427743647447"><ele>413.33333333333337</ele><time>2026-05-01T11:30:48.999Z</time></trkpt><trkpt lat="42.20519717355016" lon="14.213408108177424"><ele>414.1666666666667</ele><time>2026-05-01T11:30:49.999Z</time></trkpt><trkpt lat="42.20511493042436" lon="14.213410332891545"><ele>415.0</ele><time>2026-05-01T11:30:50.999Z</time></trkpt><trkpt lat="42.205030697973584" lon="14.213411825601463"><ele>415.00000000000006</ele><time>2026-05-01T11:30:51.999Z</time></trkpt><trkpt lat="42.204946102077784" lon="14.213428426175216"><ele>415.0</ele><time>2026-05-01T11:30:52.999Z</time></trkpt><trkpt lat="42.20486520793871" lon="14.213420096338124"><ele>415.0</ele><time>2026-05-01T11:30:53.999Z</time></trkpt><trkpt lat="42.20480057248404" lon="14.213405425023993"><ele>415.0</ele><time>2026-05-01T11:30:54.999Z</time></trkpt><trkpt lat="42.20473391263606" lon="14.213422812687158"><ele>415.00000000000006</ele><time>2026-05-01T11:30:55.999Z</time></trkpt><trkpt lat="42.204666111855374" lon="14.213458059312403"><ele>415.0</ele><time>2026-05-01T11:30:56.999Z</time></trkpt><trkpt lat="42.20459205975835" lon="14.213496605957967"><ele>416.1666666666667</ele><time>2026-05-01T11:30:57.999Z</time></trkpt><trkpt lat="42.20451959945045" lon="14.21353395157697"><ele>417.33333333333337</ele><time>2026-05-01T11:30:58.999Z</time></trkpt><trkpt lat="42.20444930587211" lon="14.213554580822438"><ele>418.5</ele><time>2026-05-01T11:30:59.999Z</time></trkpt><trkpt lat="42.20432553446173" lon="14.213559627918704"><ele>419.66666666666663</ele><time>2026-05-01T11:31:01.999Z</time></trkpt><trkpt lat="42.20424955836236" lon="14.213563661821208"><ele>420.8333333333333</ele><time>2026-05-01T11:31:02.999Z</time></trkpt><trkpt lat="42.20418307593925" lon="14.213556204557966"><ele>422.0</ele><time>2026-05-01T11:31:03.999Z</time></trkpt><trkpt lat="42.20411888577861" lon="14.213568317513532"><ele>421.99999999999994</ele><time>2026-05-01T11:31:04.999Z</time></trkpt><trkpt lat="42.2040544708307" lon="14.213569604554504"><ele>422.0</ele><time>2026-05-01T11:31:05.999Z</time></trkpt><trkpt lat="42.203983227844155" lon="14.213546281641117"><ele>422.0</ele><time>2026-05-01T11:31:06.999Z</time></trkpt><trkpt lat="42.20390909128749" lon="14.213539710561818"><ele>422.0</ele><time>2026-05-01T11:31:07.999Z</time></trkpt><trkpt lat="42.203825750016904" lon="14.21354589834345"><ele>421.99999999999994</ele><time>2026-05-01T11:31:08.999Z</time></trkpt><trkpt lat="42.203748704350986" lon="14.213552845327886"><ele>422.0</ele><time>2026-05-01T11:31:09.999Z</time></trkpt><trkpt lat="42.203664900471736" lon="14.213568806324576"><ele>423.49999999999994</ele><time>2026-05-01T11:31:10.999Z</time></trkpt><trkpt lat="42.20359187224907" lon="14.213577382053735"><ele>425.0</ele><time>2026-05-01T11:31:11.999Z</time></trkpt><trkpt lat="42.20351751107036" lon="14.213577746445594"><ele>426.5</ele><time>2026-05-01T11:31:12.999Z</time></trkpt><trkpt lat="42.20343498139322" lon="14.213556871476865"><ele>428.0</ele><time>2026-05-01T11:31:13.999Z</time></trkpt><trkpt lat="42.20337308155447" lon="14.213527762885587"><ele>429.49999999999994</ele><time>2026-05-01T11:31:14.999Z</time></trkpt><trkpt lat="42.203293844110064" lon="14.213517848041205"><ele>431.0</ele><time>2026-05-01T11:31:15.999Z</time></trkpt><trkpt lat="42.203207676427624" lon="14.213511719281383"><ele>432.49999999999994</ele><time>2026-05-01T11:31:16.999Z</time></trkpt><trkpt lat="42.203124435871786" lon="14.213517198179511"><ele>434.0</ele><time>2026-05-01T11:31:17.999Z</time></trkpt><trkpt lat="42.20304113381831" lon="14.213519263500892"><ele>435.5</ele><time>2026-05-01T11:31:18.999Z</time></trkpt><trkpt lat="42.202971619062794" lon="14.213527172769767"><ele>437.0</ele><time>2026-05-01T11:31:19.999Z</time></trkpt><trkpt lat="42.20290033991899" lon="14.213529847792303"><ele>438.49999999999994</ele><time>2026-05-01T11:31:20.999Z</time></trkpt><trkpt lat="42.20283074340944" lon="14.213523066566285"><ele>440.0</ele><time>2026-05-01T11:31:21.999Z</time></trkpt><trkpt lat="42.20274876113235" lon="14.213523251971253"><ele>440.0</ele><time>2026-05-01T11:31:22.999Z</time></trkpt><trkpt lat="42.202661568974015" lon="14.21351065871253"><ele>440.0</ele><time>2026-05-01T11:31:23.999Z</time></trkpt><trkpt lat="42.20257809051625" lon="14.213482310093715"><ele>440.0</ele><time>2026-05-01T11:31:24.999Z</time></trkpt><trkpt lat="42.20248302230674" lon="14.213477015500917"><ele>440.0</ele><time>2026-05-01T11:31:25.999Z</time></trkpt><trkpt lat="42.202392391709836" lon="14.213461263654148"><ele>440.0</ele><time>2026-05-01T11:31:26.999Z</time></trkpt><trkpt lat="42.20230146921139" lon="14.213450816552104"><ele>442.3333333333333</ele><time>2026-05-01T11:31:27.999Z</time></trkpt><trkpt lat="42.2022195561345" lon="14.21345038826947"><ele>444.66666666666663</ele><time>2026-05-01T11:31:28.999Z</time></trkpt><trkpt lat="42.20213783900288" lon="14.213469612860726"><ele>447.0</ele><time>2026-05-01T11:31:30Z</time></trkpt><trkpt lat="42.202055854777555" lon="14.213488538568912"><ele>449.33333333333337</ele><time>2026-05-01T11:31:31Z</time></trkpt><trkpt lat="42.201964341119506" lon="14.213509157398287"><ele>451.6666666666667</ele><time>2026-05-01T11:31:32Z</time></trkpt><trkpt lat="42.201892677517236" lon="14.213538879271756"><ele>454.0</ele><time>2026-05-01T11:31:33Z</time></trkpt><trkpt lat="42.20181196761412" lon="14.213573141479113"><ele>454.00000000000006</ele><time>2026-05-01T11:31:34Z</time></trkpt><trkpt lat="42.2017301010823" lon="14.213588659575924"><ele>454.0</ele><time>2026-05-01T11:31:35Z</time></trkpt><trkpt lat="42.20163627998037" lon="14.213594406490351"><ele>454.0</ele><time>2026-05-01T11:31:36Z</time></trkpt><trkpt lat="42.20155322425073" lon="14.213594411448549"><ele>454.0</ele><time>2026-05-01T11:31:37Z</time></trkpt><trkpt lat="42.20147155123769" lon="14.213594683084128"><ele>454.00000000000006</ele><time>2026-05-01T11:31:38Z</time></trkpt><trkpt lat="42.20140194915847" lon="14.213590823546737"><ele>454.0</ele><time>2026-05-01T11:31:39Z</time></trkpt><trkpt lat="42.201331125474184" lon="14.213588665936642"><ele>456.0</ele><time>2026-05-01T11:31:40Z</time></trkpt><trkpt lat="42.20124501942731" lon="14.213590305248935"><ele>458.0</ele><time>2026-05-01T11:31:41Z</time></trkpt><trkpt lat="42.201155432664244" lon="14.213576185404179"><ele>460.0</ele><time>2026-05-01T11:31:42Z</time></trkpt><trkpt lat="42.20105859195381" lon="14.21355449893813"><ele>462.0</ele><time>2026-05-01T11:31:43Z</time></trkpt><trkpt lat="42.200956088411154" lon="14.21353598122029"><ele>464.0</ele><time>2026-05-01T11:31:44Z</time></trkpt><trkpt lat="42.20086335075276" lon="14.213508012143993"><ele>463.99999999999994</ele><time>2026-05-01T11:31:45Z</time></trkpt><trkpt lat="42.200802451340444" lon="14.21348117841004"><ele>464.0</ele><time>2026-05-01T11:31:46Z</time></trkpt><trkpt lat="42.200694584676626" lon="14.213447845467504"><ele>464.0</ele><time>2026-05-01T11:31:48Z</time></trkpt><trkpt lat="42.20062164589906" lon="14.21343587981863"><ele>464.0</ele><time>2026-05-01T11:31:49Z</time></trkpt><trkpt lat="42.20053804333724" lon="14.213423014218368"><ele>463.99999999999994</ele><time>2026-05-01T11:31:50Z</time></trkpt><trkpt lat="42.20044848813372" lon="14.2134358400157"><ele>464.0</ele><time>2026-05-01T11:31:51Z</time></trkpt><trkpt lat="42.20035478841166" lon="14.213450077203182"><ele>463.8333333333333</ele><time>2026-05-01T11:31:52Z</time></trkpt><trkpt lat="42.20027844144473" lon="14.213424813155916"><ele>463.66666666666663</ele><time>2026-05-01T11:31:53Z</time></trkpt><trkpt lat="42.2002009539077" lon="14.213399427110199"><ele>463.5</ele><time>2026-05-01T11:31:54Z</time></trkpt><trkpt lat="42.20013471729912" lon="14.21340076165862"><ele>463.33333333333337</ele><time>2026-05-01T11:31:55Z</time></trkpt><trkpt lat="42.20005997229016" lon="14.21341946970539"><ele>463.1666666666667</ele><time>2026-05-01T11:31:56Z</time></trkpt><trkpt lat="42.199977795844376" lon="14.213442616177183"><ele>463.0</ele><time>2026-05-01T11:31:57Z</time></trkpt><trkpt lat="42.19989994134506" lon="14.213472461299158"><ele>463.00000000000006</ele><time>2026-05-01T11:31:58Z</time></trkpt><trkpt lat="42.19983799048428" lon="14.21353030543379"><ele>463.0</ele><time>2026-05-01T11:31:59Z</time></trkpt><trkpt lat="42.19976243597191" lon="14.213602523117965"><ele>463.0</ele><time>2026-05-01T11:32:00Z</time></trkpt><trkpt lat="42.19968285487447" lon="14.213670827388782"><ele>463.0</ele><time>2026-05-01T11:32:01Z</time></trkpt><trkpt lat="42.19961544707166" lon="14.213739630432954"><ele>463.00000000000006</ele><time>2026-05-01T11:32:02Z</time></trkpt><trkpt lat="42.19955502131486" lon="14.213812379793268"><ele>463.0</ele><time>2026-05-01T11:32:03Z</time></trkpt><trkpt lat="42.199492487971995" lon="14.213873894647412"><ele>464.33333333333337</ele><time>2026-05-01T11:32:04Z</time></trkpt><trkpt lat="42.19942390191022" lon="14.213924762897019"><ele>465.6666666666667</ele><time>2026-05-01T11:32:05Z</time></trkpt><trkpt lat="42.19934702576218" lon="14.213953237542345"><ele>467.0</ele><time>2026-05-01T11:32:06Z</time></trkpt><trkpt lat="42.199280226376146" lon="14.213975858887453"><ele>468.33333333333337</ele><time>2026-05-01T11:32:07Z</time></trkpt><trkpt lat="42.19919973089851" lon="14.214037139559435"><ele>469.6666666666667</ele><time>2026-05-01T11:32:08Z</time></trkpt><trkpt lat="42.19911521752871" lon="14.214102142104533"><ele>471.0</ele><time>2026-05-01T11:32:09Z</time></trkpt><trkpt lat="42.19903817624197" lon="14.214190642286825"><ele>467.4</ele><time>2026-05-01T11:32:10Z</time></trkpt><trkpt lat="42.19895784032248" lon="14.21430401503624"><ele>463.8</ele><time>2026-05-01T11:32:11Z</time></trkpt><trkpt lat="42.198878492088554" lon="14.214402205438397"><ele>460.19999999999993</ele><time>2026-05-01T11:32:12Z</time></trkpt><trkpt lat="42.198814745323595" lon="14.214491284547574"><ele>456.59999999999997</ele><time>2026-05-01T11:32:13Z</time></trkpt><trkpt lat="42.19877168459407" lon="14.214579116128848"><ele>453.0</ele><time>2026-05-01T11:32:14Z</time></trkpt><trkpt lat="42.198723160427164" lon="14.214679835507177"><ele>453.0</ele><time>2026-05-01T11:32:15Z</time></trkpt><trkpt lat="42.19866389029979" lon="14.21478403153743"><ele>452.99999999999994</ele><time>2026-05-01T11:32:16Z</time></trkpt><trkpt lat="42.19861266116898" lon="14.214848424199925"><ele>452.99999999999994</ele><time>2026-05-01T11:32:17Z</time></trkpt><trkpt lat="42.198546459364174" lon="14.214897266840422"><ele>453.0</ele><time>2026-05-01T11:32:18Z</time></trkpt><trkpt lat="42.19846820559026" lon="14.21503450379204"><ele>453.0</ele><time>2026-05-01T11:32:20Z</time></trkpt><trkpt lat="42.198386400545964" lon="14.21514394989161"><ele>453.5</ele><time>2026-05-01T11:32:22Z</time></trkpt><trkpt lat="42.19832334290009" lon="14.215174686364554"><ele>454.0</ele><time>2026-05-01T11:32:23Z</time></trkpt><trkpt lat="42.198252747053346" lon="14.215184587723366"><ele>454.5</ele><time>2026-05-01T11:32:24Z</time></trkpt><trkpt lat="42.198184420348795" lon="14.215207149548414"><ele>455.0</ele><time>2026-05-01T11:32:25Z</time></trkpt><trkpt lat="42.1981245122844" lon="14.215280074691723"><ele>455.5</ele><time>2026-05-01T11:34:22Z</time></trkpt><trkpt lat="42.1980709054952" lon="14.21538970464915"><ele>456.0</ele><time>2026-05-01T11:42:35.999Z</time></trkpt><trkpt lat="42.19802241203651" lon="14.215477234314331"><ele>456.0</ele><time>2026-05-01T11:42:37.999Z</time></trkpt><trkpt lat="42.19802499613019" lon="14.21559433710028"><ele>456.0</ele><time>2026-05-01T11:42:39.999Z</time></trkpt><trkpt lat="42.19800810074258" lon="14.215682922168114"><ele>456.0</ele><time>2026-05-01T11:42:40.999Z</time></trkpt><trkpt lat="42.19801469981666" lon="14.21583259235686"><ele>456.0</ele><time>2026-05-01T11:42:42.999Z</time></trkpt><trkpt lat="42.19795088735437" lon="14.215988832162417"><ele>456.0</ele><time>2026-05-01T11:42:44.999Z</time></trkpt><trkpt lat="42.197906544957796" lon="14.216051822182045"><ele>459.3333333333333</ele><time>2026-05-01T11:42:45.999Z</time></trkpt><trkpt lat="42.19783868820719" lon="14.21610899618322"><ele>462.66666666666663</ele><time>2026-05-01T11:42:46.999Z</time></trkpt><trkpt lat="42.197773993571495" lon="14.21616700700563"><ele>466.0</ele><time>2026-05-01T11:42:47.999Z</time></trkpt><trkpt lat="42.19770133651415" lon="14.216283834906445"><ele>469.3333333333333</ele><time>2026-05-01T11:42:49.999Z</time></trkpt><trkpt lat="42.19765964878046" lon="14.21636784604207"><ele>472.66666666666663</ele><time>2026-05-01T11:42:50.999Z</time></trkpt><trkpt lat="42.197617439974046" lon="14.216441637169483"><ele>476.0</ele><time>2026-05-01T11:42:51.999Z</time></trkpt><trkpt lat="42.19755224434745" lon="14.216523197623125"><ele>478.99999999999994</ele><time>2026-05-01T11:42:53.999Z</time></trkpt><trkpt lat="42.1975336447166" lon="14.2166109139873"><ele>482.0</ele><time>2026-05-01T11:42:55.999Z</time></trkpt><trkpt lat="42.19752353135014" lon="14.216768721378871"><ele>485.0</ele><time>2026-05-01T11:42:57.999Z</time></trkpt><trkpt lat="42.197480172772394" lon="14.21687643074866"><ele>488.0</ele><time>2026-05-01T11:42:59.999Z</time></trkpt><trkpt lat="42.19742278567043" lon="14.216956112934495"><ele>490.99999999999994</ele><time>2026-05-01T11:43:01.999Z</time></trkpt><trkpt lat="42.197349499246414" lon="14.217014579366948"><ele>494.0</ele><time>2026-05-01T11:43:03.999Z</time></trkpt><trkpt lat="42.197274636827885" lon="14.217028599553348"><ele>494.0</ele><time>2026-05-01T11:43:04.999Z</time></trkpt><trkpt lat="42.197159550651016" lon="14.217051964262884"><ele>494.0</ele><time>2026-05-01T11:43:05.999Z</time></trkpt><trkpt lat="42.19702510280614" lon="14.217083526906396"><ele>494.0</ele><time>2026-05-01T11:43:06.999Z</time></trkpt><trkpt lat="42.196887383728146" lon="14.217121080848147"><ele>494.0</ele><time>2026-05-01T11:43:07.999Z</time></trkpt><trkpt lat="42.19673080255223" lon="14.217175823129464"><ele>494.0</ele><time>2026-05-01T11:43:08.999Z</time></trkpt><trkpt lat="42.19659257358681" lon="14.217229353438526"><ele>494.0</ele><time>2026-05-01T11:43:09.999Z</time></trkpt><trkpt lat="42.19645195065578" lon="14.217277002541246"><ele>494.0</ele><time>2026-05-01T11:43:10.999Z</time></trkpt><trkpt lat="42.19629776924918" lon="14.217331683564993"><ele>494.0</ele><time>2026-05-01T11:43:11.999Z</time></trkpt><trkpt lat="42.196146017649085" lon="14.217382791221453"><ele>498.0</ele><time>2026-05-01T11:43:12.999Z</time></trkpt><trkpt lat="42.196002187771455" lon="14.217439370544218"><ele>502.0</ele><time>2026-05-01T11:43:13.999Z</time></trkpt><trkpt lat="42.19585711788057" lon="14.217482557433145"><ele>506.0</ele><time>2026-05-01T11:43:14.999Z</time></trkpt><trkpt lat="42.195727314522046" lon="14.217538317086083"><ele>510.0</ele><time>2026-05-01T11:43:15.999Z</time></trkpt><trkpt lat="42.19559727496178" lon="14.217577934799236"><ele>511.0</ele><time>2026-05-01T11:43:16.999Z</time></trkpt><trkpt lat="42.195480725509405" lon="14.217622788227983"><ele>512.0</ele><time>2026-05-01T11:43:17.999Z</time></trkpt><trkpt lat="42.19537301314244" lon="14.217690545998298"><ele>513.0</ele><time>2026-05-01T11:43:18.999Z</time></trkpt><trkpt lat="42.1952785399488" lon="14.217773272629577"><ele>514.0</ele><time>2026-05-01T11:43:19.999Z</time></trkpt><trkpt lat="42.195188064182226" lon="14.21786779656677"><ele>514.0</ele><time>2026-05-01T11:43:20.999Z</time></trkpt><trkpt lat="42.19510680503931" lon="14.21796912842991"><ele>514.0</ele><time>2026-05-01T11:43:21.999Z</time></trkpt><trkpt lat="42.19503148875622" lon="14.218063119327063"><ele>514.0</ele><time>2026-05-01T11:43:22.999Z</time></trkpt><trkpt lat="42.19496034906324" lon="14.218145045124928"><ele>514.0</ele><time>2026-05-01T11:43:23.999Z</time></trkpt><trkpt lat="42.194904291474" lon="14.218190514143144"><ele>514.0</ele><time>2026-05-01T11:43:24.999Z</time></trkpt><trkpt lat="42.19485819576589" lon="14.218270769779613"><ele>514.0</ele><time>2026-05-01T11:43:26.999Z</time></trkpt><trkpt lat="42.19489409677041" lon="14.218366024501277"><ele>514.8333333333334</ele><time>2026-05-01T11:43:28.999Z</time></trkpt><trkpt lat="42.194926649013276" lon="14.218460081010926"><ele>515.6666666666667</ele><time>2026-05-01T11:43:31.999Z</time></trkpt><trkpt lat="42.19493994808253" lon="14.218561962661502"><ele>516.5</ele><time>2026-05-01T11:43:34.999Z</time></trkpt><trkpt lat="42.19505187465575" lon="14.218579483012348"><ele>517.3333333333334</ele><time>2026-05-01T11:43:35.999Z</time></trkpt><trkpt lat="42.195118589632074" lon="14.218619540498144"><ele>518.1666666666666</ele><time>2026-05-01T11:43:36.999Z</time></trkpt><trkpt lat="42.19519818780363" lon="14.218665789798235"><ele>519.0</ele><time>2026-05-01T11:43:37.999Z</time></trkpt><trkpt lat="42.19527455199518" lon="14.218714239922836"><ele>519.0</ele><time>2026-05-01T11:43:38.999Z</time></trkpt><trkpt lat="42.19535729418363" lon="14.218759332718012"><ele>519.0</ele><time>2026-05-01T11:43:40.999Z</time></trkpt><trkpt lat="42.19542324617694" lon="14.218795209423726"><ele>519.0</ele><time>2026-05-01T11:43:44.999Z</time></trkpt><trkpt lat="42.1952974534367" lon="14.218644409778843"><ele>519.0</ele><time>2026-05-01T11:43:47.999Z</time></trkpt><trkpt lat="42.1951954373637" lon="14.218621003733334"><ele>519.0</ele><time>2026-05-01T11:43:49.999Z</time></trkpt><trkpt lat="42.19503276421097" lon="14.218547110730446"><ele>519.0</ele><time>2026-05-01T11:43:51.999Z</time></trkpt><trkpt lat="42.1949587380668" lon="14.218535480974214"><ele>519.0</ele><time>2026-05-01T11:43:52.999Z</time></trkpt><trkpt lat="42.19488831512163" lon="14.218534202922488"><ele>519.0</ele><time>2026-05-01T11:43:53.999Z</time></trkpt><trkpt lat="42.19483506483032" lon="14.218635429683214"><ele>519.0</ele><time>2026-05-01T11:43:54.999Z</time></trkpt><trkpt lat="42.19480798950758" lon="14.21873166667551"><ele>519.0</ele><time>2026-05-01T11:43:55.999Z</time></trkpt><trkpt lat="42.19481055131539" lon="14.218844651462579"><ele>519.0</ele><time>2026-05-01T11:43:56.998Z</time></trkpt><trkpt lat="42.19483071139459" lon="14.218969681529025"><ele>519.5</ele><time>2026-05-01T11:43:57.998Z</time></trkpt><trkpt lat="42.19483248870461" lon="14.219126803270767"><ele>520.0</ele><time>2026-05-01T11:43:58.998Z</time></trkpt><trkpt lat="42.194866655010095" lon="14.219306967815378"><ele>520.5</ele><time>2026-05-01T11:43:59.998Z</time></trkpt><trkpt lat="42.19486595302954" lon="14.219492254299352"><ele>521.0</ele><time>2026-05-01T11:44:00.998Z</time></trkpt><trkpt lat="42.194898148780226" lon="14.219687478656827"><ele>521.75</ele><time>2026-05-01T11:44:01.998Z</time></trkpt><trkpt lat="42.19491273105943" lon="14.219876783057103"><ele>522.5</ele><time>2026-05-01T11:44:02.998Z</time></trkpt><trkpt lat="42.194926228000725" lon="14.220046511523389"><ele>523.25</ele><time>2026-05-01T11:44:03.998Z</time></trkpt><trkpt lat="42.19492812729914" lon="14.220196992712976"><ele>524.0</ele><time>2026-05-01T11:44:04.998Z</time></trkpt><trkpt lat="42.194913089904745" lon="14.220333492830708"><ele>524.0</ele><time>2026-05-01T11:44:06Z</time></trkpt><trkpt lat="42.19486836779773" lon="14.22043731821667"><ele>524.0</ele><time>2026-05-01T11:44:07Z</time></trkpt><trkpt lat="42.19480632749745" lon="14.220504435955684"><ele>524.0</ele><time>2026-05-01T11:44:08Z</time></trkpt><trkpt lat="42.19473787649791" lon="14.220538466867096"><ele>524.0</ele><time>2026-05-01T11:44:09Z</time></trkpt><trkpt lat="42.19466530610401" lon="14.220526787755142"><ele>524.0</ele><time>2026-05-01T11:44:10Z</time></trkpt><trkpt lat="42.19459891587657" lon="14.220477017408667"><ele>524.0</ele><time>2026-05-01T11:44:11Z</time></trkpt><trkpt lat="42.19456516142176" lon="14.220401178779673"><ele>526.0</ele><time>2026-05-01T11:44:12Z</time></trkpt><trkpt lat="42.19453121121062" lon="14.220292140453857"><ele>528.0</ele><time>2026-05-01T11:44:13Z</time></trkpt><trkpt lat="42.19450848455648" lon="14.220191318796523"><ele>530.0</ele><time>2026-05-01T11:44:14Z</time></trkpt><trkpt lat="42.19447589743181" lon="14.220096478624711"><ele>532.0</ele><time>2026-05-01T11:44:15Z</time></trkpt><trkpt lat="42.194445511677955" lon="14.220001108981652"><ele>534.0</ele><time>2026-05-01T11:44:16Z</time></trkpt><trkpt lat="42.19439902571225" lon="14.219905577249893"><ele>536.0</ele><time>2026-05-01T11:44:17Z</time></trkpt><trkpt lat="42.19434586195405" lon="14.219822980176078"><ele>535.0</ele><time>2026-05-01T11:44:18Z</time></trkpt><trkpt lat="42.19426437393604" lon="14.219745834597871"><ele>534.0</ele><time>2026-05-01T11:44:19Z</time></trkpt><trkpt lat="42.19417191632096" lon="14.219673099897959"><ele>533.0</ele><time>2026-05-01T11:44:20Z</time></trkpt><trkpt lat="42.19406596234409" lon="14.21959242419164"><ele>532.0</ele><time>2026-05-01T11:44:21Z</time></trkpt><trkpt lat="42.1939485009848" lon="14.219511751168938"><ele>534.25</ele><time>2026-05-01T11:44:22Z</time></trkpt><trkpt lat="42.19383868991785" lon="14.219424300899302"><ele>536.5</ele><time>2026-05-01T11:44:23Z</time></trkpt><trkpt lat="42.193717311166665" lon="14.21933387250345"><ele>538.75</ele><time>2026-05-01T11:44:24Z</time></trkpt><trkpt lat="42.19361334425554" lon="14.21926125231649"><ele>541.0</ele><time>2026-05-01T11:44:25Z</time></trkpt><trkpt lat="42.19351662260593" lon="14.21921864756714"><ele>541.0</ele><time>2026-05-01T11:44:26Z</time></trkpt><trkpt lat="42.193418971651035" lon="14.219182929122406"><ele>541.0</ele><time>2026-05-01T11:44:27Z</time></trkpt><trkpt lat="42.19331112655316" lon="14.21917977054962"><ele>541.0</ele><time>2026-05-01T11:44:28Z</time></trkpt><trkpt lat="42.19320895179111" lon="14.219217274292596"><ele>541.0</ele><time>2026-05-01T11:44:29Z</time></trkpt><trkpt lat="42.1930999000675" lon="14.219286083785132"><ele>541.0</ele><time>2026-05-01T11:44:30Z</time></trkpt><trkpt lat="42.193011518822935" lon="14.219388290766734"><ele>540.5</ele><time>2026-05-01T11:44:31Z</time></trkpt><trkpt lat="42.19295736418931" lon="14.219499016478814"><ele>540.0</ele><time>2026-05-01T11:44:32Z</time></trkpt><trkpt lat="42.19293438937825" lon="14.219601642504259"><ele>539.5</ele><time>2026-05-01T11:44:33Z</time></trkpt><trkpt lat="42.19293523067006" lon="14.219707586154316"><ele>539.0</ele><time>2026-05-01T11:44:34Z</time></trkpt><trkpt lat="42.1929620562941" lon="14.219805929862499"><ele>538.5</ele><time>2026-05-01T11:44:35Z</time></trkpt><trkpt lat="42.1930134463953" lon="14.219894022813104"><ele>538.0</ele><time>2026-05-01T11:44:36Z</time></trkpt><trkpt lat="42.193079263504465" lon="14.219970270358864"><ele>540.4</ele><time>2026-05-01T11:44:37Z</time></trkpt><trkpt lat="42.193160459428924" lon="14.220020255602266"><ele>542.8</ele><time>2026-05-01T11:44:38Z</time></trkpt><trkpt lat="42.19324678690383" lon="14.220059072887521"><ele>545.2</ele><time>2026-05-01T11:44:38.999Z</time></trkpt><trkpt lat="42.19332640410604" lon="14.220108245334336"><ele>547.6</ele><time>2026-05-01T11:44:39.999Z</time></trkpt><trkpt lat="42.19341374619683" lon="14.220157310829585"><ele>550.0</ele><time>2026-05-01T11:44:40.999Z</time></trkpt><trkpt lat="42.19350322289221" lon="14.220202854560481"><ele>550.0</ele><time>2026-05-01T11:44:41.999Z</time></trkpt><trkpt lat="42.193584028062965" lon="14.220264482350444"><ele>550.0</ele><time>2026-05-01T11:44:42.999Z</time></trkpt><trkpt lat="42.193680258753155" lon="14.220290754251556"><ele>550.0</ele><time>2026-05-01T11:44:43.999Z</time></trkpt><trkpt lat="42.1937532957064" lon="14.220345465346286"><ele>550.0</ele><time>2026-05-01T11:44:44.999Z</time></trkpt><trkpt lat="42.19380459460279" lon="14.220416196566118"><ele>550.0</ele><time>2026-05-01T11:44:45.999Z</time></trkpt><trkpt lat="42.19382786184312" lon="14.220495648438778"><ele>550.0</ele><time>2026-05-01T11:44:46.999Z</time></trkpt><trkpt lat="42.19380624305671" lon="14.220624633254923"><ele>550.0</ele><time>2026-05-01T11:44:48.999Z</time></trkpt><trkpt lat="42.193681118057334" lon="14.220593255814247"><ele>550.0</ele><time>2026-05-01T11:44:50.999Z</time></trkpt><trkpt lat="42.19359935657478" lon="14.220570801678047"><ele>550.0</ele><time>2026-05-01T11:44:51.999Z</time></trkpt><trkpt lat="42.19350590233263" lon="14.220522102387182"><ele>550.0</ele><time>2026-05-01T11:44:52.999Z</time></trkpt><trkpt lat="42.193407090793386" lon="14.220472196338893"><ele>550.0</ele><time>2026-05-01T11:44:53.999Z</time></trkpt><trkpt lat="42.19330574857154" lon="14.220456291303313"><ele>550.0</ele><time>2026-05-01T11:44:54.999Z</time></trkpt><trkpt lat="42.19322769885769" lon="14.220386083901001"><ele>550.0</ele><time>2026-05-01T11:44:56.999Z</time></trkpt><trkpt lat="42.193254036968845" lon="14.220303813772107"><ele>550.0</ele><time>2026-05-01T11:47:53.999Z</time></trkpt><trkpt lat="42.193181596137066" lon="14.220295691705944"><ele>550.0</ele><time>2026-05-01T11:52:18.999Z</time></trkpt><trkpt lat="42.19309286779911" lon="14.220354528531411"><ele>550.0</ele><time>2026-05-01T11:52:21.999Z</time></trkpt><trkpt lat="42.19314670370345" lon="14.220406982868807"><ele>550.0</ele><time>2026-05-01T11:52:24.999Z</time></trkpt><trkpt lat="42.19325187927559" lon="14.220472256308513"><ele>550.0</ele><time>2026-05-01T11:52:26.999Z</time></trkpt><trkpt lat="42.193340377060224" lon="14.220521606235403"><ele>550.0</ele><time>2026-05-01T11:52:29Z</time></trkpt><trkpt lat="42.193378988351924" lon="14.220630695994593"><ele>550.0</ele><time>2026-05-01T11:52:31Z</time></trkpt><trkpt lat="42.19334754958282" lon="14.220765363970372"><ele>550.0</ele><time>2026-05-01T11:52:33Z</time></trkpt><trkpt lat="42.19332537667998" lon="14.220845335649658"><ele>550.0</ele><time>2026-05-01T11:52:34Z</time></trkpt><trkpt lat="42.19330755097061" lon="14.220927361784698"><ele>550.0</ele><time>2026-05-01T11:52:35Z</time></trkpt><trkpt lat="42.19329999283918" lon="14.221022187264913"><ele>551.0</ele><time>2026-05-01T11:52:37Z</time></trkpt><trkpt lat="42.19323624062866" lon="14.221041753598538"><ele>552.0</ele><time>2026-05-01T11:52:46Z</time></trkpt><trkpt lat="42.19314921032522" lon="14.221022206686245"><ele>553.0</ele><time>2026-05-01T11:52:48Z</time></trkpt><trkpt lat="42.19303918517579" lon="14.220990421505777"><ele>554.0</ele><time>2026-05-01T11:52:50Z</time></trkpt><trkpt lat="42.19297486911669" lon="14.220964765026023"><ele>555.0</ele><time>2026-05-01T11:52:51Z</time></trkpt><trkpt lat="42.19289322386981" lon="14.22094756470226"><ele>556.0</ele><time>2026-05-01T11:52:52Z</time></trkpt><trkpt lat="42.19280712782654" lon="14.22093785550729"><ele>558.3333333333334</ele><time>2026-05-01T11:52:53Z</time></trkpt><trkpt lat="42.19273478973678" lon="14.220912816675147"><ele>560.6666666666667</ele><time>2026-05-01T11:52:54Z</time></trkpt><trkpt lat="42.19265616683451" lon="14.220902873979915"><ele>563.0</ele><time>2026-05-01T11:52:55Z</time></trkpt><trkpt lat="42.192587879385464" lon="14.220886400964915"><ele>565.3333333333334</ele><time>2026-05-01T11:52:56Z</time></trkpt><trkpt lat="42.19247580190035" lon="14.220886116213983"><ele>567.6666666666666</ele><time>2026-05-01T11:52:58Z</time></trkpt><trkpt lat="42.19239300901604" lon="14.220868658788186"><ele>570.0</ele><time>2026-05-01T11:53:01Z</time></trkpt><trkpt lat="42.19232307533716" lon="14.220863170071116"><ele>570.6666666666666</ele><time>2026-05-01T11:53:03Z</time></trkpt><trkpt lat="42.19225032535389" lon="14.22087445826168"><ele>571.3333333333334</ele><time>2026-05-01T11:53:04Z</time></trkpt><trkpt lat="42.19218457580683" lon="14.220860337753262"><ele>572.0</ele><time>2026-05-01T11:53:05Z</time></trkpt><trkpt lat="42.192120264589185" lon="14.220837846939764"><ele>572.6666666666667</ele><time>2026-05-01T11:53:06Z</time></trkpt><trkpt lat="42.19206556499" lon="14.220771351356714"><ele>573.3333333333334</ele><time>2026-05-01T11:53:07Z</time></trkpt><trkpt lat="42.192002373264174" lon="14.220669307976841"><ele>574.0</ele><time>2026-05-01T11:53:08Z</time></trkpt><trkpt lat="42.1919259738387" lon="14.220688296293602"><ele>574.0</ele><time>2026-05-01T11:53:09Z</time></trkpt><trkpt lat="42.19184834337201" lon="14.22066121085596"><ele>574.0</ele><time>2026-05-01T11:53:10Z</time></trkpt><trkpt lat="42.19175852634221" lon="14.220633359226197"><ele>574.0</ele><time>2026-05-01T11:53:11Z</time></trkpt><trkpt lat="42.19167999756227" lon="14.220650918004088"><ele>574.0</ele><time>2026-05-01T11:53:12Z</time></trkpt><trkpt lat="42.19160647557012" lon="14.220659202400292"><ele>574.0</ele><time>2026-05-01T11:53:13Z</time></trkpt><trkpt lat="42.191511364634216" lon="14.220656414378592"><ele>574.0</ele><time>2026-05-01T11:53:15Z</time></trkpt><trkpt lat="42.19142200412706" lon="14.220646734200272"><ele>568.0</ele><time>2026-05-01T11:53:17Z</time></trkpt><trkpt lat="42.19133252460486" lon="14.220628461321727"><ele>568.0</ele><time>2026-05-01T11:53:19Z</time></trkpt><trkpt lat="42.19125403312716" lon="14.220612432331983"><ele>568.0</ele><time>2026-05-01T11:53:24Z</time></trkpt><trkpt lat="42.19119068613886" lon="14.22059830117232"><ele>568.0</ele><time>2026-05-01T11:53:33Z</time></trkpt></trkseg></trk></gpx>